<?xml version="1.0" encoding="UTF-8" standalone="no" ?>
<gpx xmlns="http://www.topografix.com/GPX/1/1" xmlns:xsi="http://www.w3.org/2001/XMLSchema-instance" xsi:schemaLocation="http://www.topografix.com/GPX/1/1 http://www.topografix.com/GPX/1/1/gpx.xsd" version="1.1" creator="VisuGPX - https://www.visugpx.com">
  <metadata>
    <name>Sur la trace de l\'XMB de Levens 2012</name>
    <desc><![CDATA[Avec Isa & Pierre]]></desc>
  </metadata>
  <trk>
    <name><![CDATA[2013-03-10-10-45-17 on GPSies.com]]></name>
    <trkseg>
      <trkpt lat="43.86071" lon="7.22916">
        <ele>529</ele>
        <time>2013-03-10T10:45:17Z</time>
      </trkpt>
      <trkpt lat="43.86071" lon="7.22912">
        <ele>523</ele>
        <time>2013-03-10T10:45:21Z</time>
      </trkpt>
      <trkpt lat="43.8607" lon="7.2291">
        <ele>521</ele>
        <time>2013-03-10T10:45:22Z</time>
      </trkpt>
      <trkpt lat="43.8607" lon="7.22907">
        <ele>519</ele>
        <time>2013-03-10T10:45:23Z</time>
      </trkpt>
      <trkpt lat="43.86068" lon="7.22905">
        <ele>517</ele>
        <time>2013-03-10T10:45:24Z</time>
      </trkpt>
      <trkpt lat="43.86062" lon="7.22903">
        <ele>517</ele>
        <time>2013-03-10T10:45:27Z</time>
      </trkpt>
      <trkpt lat="43.86057" lon="7.22902">
        <ele>517</ele>
        <time>2013-03-10T10:45:29Z</time>
      </trkpt>
      <trkpt lat="43.86047" lon="7.22903">
        <ele>517</ele>
        <time>2013-03-10T10:45:34Z</time>
      </trkpt>
      <trkpt lat="43.86031" lon="7.22904">
        <ele>517</ele>
        <time>2013-03-10T10:45:41Z</time>
      </trkpt>
      <trkpt lat="43.86014" lon="7.22902">
        <ele>519</ele>
        <time>2013-03-10T10:45:48Z</time>
      </trkpt>
      <trkpt lat="43.86013" lon="7.22901">
        <ele>521</ele>
        <time>2013-03-10T10:45:49Z</time>
      </trkpt>
      <trkpt lat="43.8601" lon="7.22903">
        <ele>523</ele>
        <time>2013-03-10T10:45:50Z</time>
      </trkpt>
      <trkpt lat="43.86008" lon="7.22906">
        <ele>525</ele>
        <time>2013-03-10T10:45:51Z</time>
      </trkpt>
      <trkpt lat="43.86006" lon="7.22909">
        <ele>528</ele>
        <time>2013-03-10T10:45:52Z</time>
      </trkpt>
      <trkpt lat="43.86001" lon="7.22916">
        <ele>528</ele>
        <time>2013-03-10T10:45:54Z</time>
      </trkpt>
      <trkpt lat="43.85991" lon="7.22927">
        <ele>528</ele>
        <time>2013-03-10T10:45:58Z</time>
      </trkpt>
      <trkpt lat="43.85986" lon="7.22932">
        <ele>528</ele>
        <time>2013-03-10T10:46:01Z</time>
      </trkpt>
      <trkpt lat="43.85983" lon="7.22935">
        <ele>528</ele>
        <time>2013-03-10T10:46:02Z</time>
      </trkpt>
      <trkpt lat="43.85965" lon="7.22957">
        <ele>528</ele>
        <time>2013-03-10T10:46:06Z</time>
      </trkpt>
      <trkpt lat="43.85938" lon="7.22989">
        <ele>527</ele>
        <time>2013-03-10T10:46:11Z</time>
      </trkpt>
      <trkpt lat="43.85931" lon="7.22996">
        <ele>527</ele>
        <time>2013-03-10T10:46:12Z</time>
      </trkpt>
      <trkpt lat="43.85924" lon="7.23004">
        <ele>526</ele>
        <time>2013-03-10T10:46:13Z</time>
      </trkpt>
      <trkpt lat="43.85917" lon="7.23011">
        <ele>526</ele>
        <time>2013-03-10T10:46:14Z</time>
      </trkpt>
      <trkpt lat="43.8591" lon="7.23018">
        <ele>525</ele>
        <time>2013-03-10T10:46:15Z</time>
      </trkpt>
      <trkpt lat="43.85895" lon="7.23028">
        <ele>525</ele>
        <time>2013-03-10T10:46:17Z</time>
      </trkpt>
      <trkpt lat="43.85881" lon="7.23036">
        <ele>525</ele>
        <time>2013-03-10T10:46:19Z</time>
      </trkpt>
      <trkpt lat="43.85869" lon="7.23039">
        <ele>525</ele>
        <time>2013-03-10T10:46:21Z</time>
      </trkpt>
      <trkpt lat="43.85859" lon="7.2304">
        <ele>525</ele>
        <time>2013-03-10T10:46:23Z</time>
      </trkpt>
      <trkpt lat="43.85845" lon="7.2304">
        <ele>525</ele>
        <time>2013-03-10T10:46:26Z</time>
      </trkpt>
      <trkpt lat="43.85809" lon="7.23035">
        <ele>525</ele>
        <time>2013-03-10T10:46:33Z</time>
      </trkpt>
      <trkpt lat="43.85774" lon="7.23031">
        <ele>525</ele>
        <time>2013-03-10T10:46:40Z</time>
      </trkpt>
      <trkpt lat="43.85754" lon="7.23038">
        <ele>525</ele>
        <time>2013-03-10T10:46:44Z</time>
      </trkpt>
      <trkpt lat="43.85749" lon="7.2304">
        <ele>525</ele>
        <time>2013-03-10T10:46:45Z</time>
      </trkpt>
      <trkpt lat="43.8574" lon="7.23046">
        <ele>525</ele>
        <time>2013-03-10T10:46:47Z</time>
      </trkpt>
      <trkpt lat="43.85722" lon="7.2306">
        <ele>525</ele>
        <time>2013-03-10T10:46:51Z</time>
      </trkpt>
      <trkpt lat="43.85704" lon="7.23075">
        <ele>525</ele>
        <time>2013-03-10T10:46:55Z</time>
      </trkpt>
      <trkpt lat="43.85694" lon="7.23088">
        <ele>525</ele>
        <time>2013-03-10T10:46:58Z</time>
      </trkpt>
      <trkpt lat="43.85674" lon="7.23114">
        <ele>525</ele>
        <time>2013-03-10T10:47:05Z</time>
      </trkpt>
      <trkpt lat="43.85676" lon="7.23129">
        <ele>525</ele>
        <time>2013-03-10T10:47:08Z</time>
      </trkpt>
      <trkpt lat="43.85672" lon="7.23136">
        <ele>526</ele>
        <time>2013-03-10T10:47:11Z</time>
      </trkpt>
      <trkpt lat="43.85669" lon="7.23138">
        <ele>526</ele>
        <time>2013-03-10T10:47:12Z</time>
      </trkpt>
      <trkpt lat="43.85667" lon="7.2314">
        <ele>527</ele>
        <time>2013-03-10T10:47:13Z</time>
      </trkpt>
      <trkpt lat="43.85664" lon="7.23141">
        <ele>527</ele>
        <time>2013-03-10T10:47:14Z</time>
      </trkpt>
      <trkpt lat="43.85662" lon="7.23143">
        <ele>528</ele>
        <time>2013-03-10T10:47:15Z</time>
      </trkpt>
      <trkpt lat="43.8566" lon="7.23145">
        <ele>528</ele>
        <time>2013-03-10T10:47:16Z</time>
      </trkpt>
      <trkpt lat="43.85651" lon="7.23153">
        <ele>528</ele>
        <time>2013-03-10T10:47:21Z</time>
      </trkpt>
      <trkpt lat="43.85649" lon="7.23155">
        <ele>529</ele>
        <time>2013-03-10T10:47:22Z</time>
      </trkpt>
      <trkpt lat="43.85647" lon="7.23156">
        <ele>529</ele>
        <time>2013-03-10T10:47:23Z</time>
      </trkpt>
      <trkpt lat="43.85645" lon="7.23157">
        <ele>529</ele>
        <time>2013-03-10T10:47:24Z</time>
      </trkpt>
      <trkpt lat="43.85644" lon="7.23159">
        <ele>530</ele>
        <time>2013-03-10T10:47:25Z</time>
      </trkpt>
      <trkpt lat="43.85635" lon="7.23163">
        <ele>530</ele>
        <time>2013-03-10T10:47:30Z</time>
      </trkpt>
      <trkpt lat="43.85633" lon="7.23163">
        <ele>530</ele>
        <time>2013-03-10T10:47:31Z</time>
      </trkpt>
      <trkpt lat="43.85631" lon="7.23163">
        <ele>531</ele>
        <time>2013-03-10T10:47:32Z</time>
      </trkpt>
      <trkpt lat="43.85629" lon="7.23164">
        <ele>531</ele>
        <time>2013-03-10T10:47:33Z</time>
      </trkpt>
      <trkpt lat="43.85627" lon="7.23165">
        <ele>531</ele>
        <time>2013-03-10T10:47:34Z</time>
      </trkpt>
      <trkpt lat="43.85625" lon="7.23166">
        <ele>532</ele>
        <time>2013-03-10T10:47:35Z</time>
      </trkpt>
      <trkpt lat="43.85623" lon="7.23168">
        <ele>532</ele>
        <time>2013-03-10T10:47:36Z</time>
      </trkpt>
      <trkpt lat="43.85615" lon="7.23178">
        <ele>532</ele>
        <time>2013-03-10T10:47:40Z</time>
      </trkpt>
      <trkpt lat="43.85613" lon="7.2318">
        <ele>533</ele>
        <time>2013-03-10T10:47:41Z</time>
      </trkpt>
      <trkpt lat="43.85612" lon="7.23182">
        <ele>533</ele>
        <time>2013-03-10T10:47:42Z</time>
      </trkpt>
      <trkpt lat="43.8561" lon="7.23184">
        <ele>534</ele>
        <time>2013-03-10T10:47:43Z</time>
      </trkpt>
      <trkpt lat="43.85609" lon="7.23187">
        <ele>534</ele>
        <time>2013-03-10T10:47:44Z</time>
      </trkpt>
      <trkpt lat="43.85602" lon="7.23201">
        <ele>534</ele>
        <time>2013-03-10T10:47:49Z</time>
      </trkpt>
      <trkpt lat="43.85592" lon="7.2322">
        <ele>534</ele>
        <time>2013-03-10T10:47:55Z</time>
      </trkpt>
      <trkpt lat="43.85583" lon="7.23235">
        <ele>534</ele>
        <time>2013-03-10T10:48:01Z</time>
      </trkpt>
      <trkpt lat="43.85578" lon="7.23242">
        <ele>534</ele>
        <time>2013-03-10T10:48:04Z</time>
      </trkpt>
      <trkpt lat="43.85567" lon="7.23255">
        <ele>534</ele>
        <time>2013-03-10T10:48:10Z</time>
      </trkpt>
      <trkpt lat="43.85561" lon="7.2326">
        <ele>534</ele>
        <time>2013-03-10T10:48:12Z</time>
      </trkpt>
      <trkpt lat="43.85558" lon="7.23262">
        <ele>535</ele>
        <time>2013-03-10T10:48:13Z</time>
      </trkpt>
      <trkpt lat="43.85555" lon="7.23264">
        <ele>536</ele>
        <time>2013-03-10T10:48:14Z</time>
      </trkpt>
      <trkpt lat="43.85553" lon="7.23266">
        <ele>536</ele>
        <time>2013-03-10T10:48:15Z</time>
      </trkpt>
      <trkpt lat="43.8555" lon="7.23268">
        <ele>536</ele>
        <time>2013-03-10T10:48:16Z</time>
      </trkpt>
      <trkpt lat="43.85534" lon="7.23281">
        <ele>536</ele>
        <time>2013-03-10T10:48:23Z</time>
      </trkpt>
      <trkpt lat="43.85529" lon="7.23293">
        <ele>536</ele>
        <time>2013-03-10T10:48:28Z</time>
      </trkpt>
      <trkpt lat="43.85528" lon="7.23301">
        <ele>536</ele>
        <time>2013-03-10T10:48:31Z</time>
      </trkpt>
      <trkpt lat="43.85527" lon="7.23304">
        <ele>537</ele>
        <time>2013-03-10T10:48:32Z</time>
      </trkpt>
      <trkpt lat="43.85527" lon="7.23307">
        <ele>537</ele>
        <time>2013-03-10T10:48:33Z</time>
      </trkpt>
      <trkpt lat="43.85526" lon="7.23311">
        <ele>538</ele>
        <time>2013-03-10T10:48:34Z</time>
      </trkpt>
      <trkpt lat="43.85526" lon="7.23314">
        <ele>538</ele>
        <time>2013-03-10T10:48:35Z</time>
      </trkpt>
      <trkpt lat="43.85524" lon="7.23327">
        <ele>539</ele>
        <time>2013-03-10T10:48:39Z</time>
      </trkpt>
      <trkpt lat="43.85524" lon="7.2333">
        <ele>539</ele>
        <time>2013-03-10T10:48:40Z</time>
      </trkpt>
      <trkpt lat="43.85523" lon="7.23333">
        <ele>539</ele>
        <time>2013-03-10T10:48:41Z</time>
      </trkpt>
      <trkpt lat="43.85523" lon="7.23335">
        <ele>540</ele>
        <time>2013-03-10T10:48:42Z</time>
      </trkpt>
      <trkpt lat="43.85522" lon="7.23338">
        <ele>540</ele>
        <time>2013-03-10T10:48:43Z</time>
      </trkpt>
      <trkpt lat="43.85516" lon="7.23351">
        <ele>540</ele>
        <time>2013-03-10T10:48:48Z</time>
      </trkpt>
      <trkpt lat="43.85512" lon="7.23355">
        <ele>541</ele>
        <time>2013-03-10T10:48:50Z</time>
      </trkpt>
      <trkpt lat="43.8551" lon="7.23356">
        <ele>541</ele>
        <time>2013-03-10T10:48:51Z</time>
      </trkpt>
      <trkpt lat="43.85508" lon="7.23358">
        <ele>541</ele>
        <time>2013-03-10T10:48:52Z</time>
      </trkpt>
      <trkpt lat="43.85506" lon="7.2336">
        <ele>542</ele>
        <time>2013-03-10T10:48:53Z</time>
      </trkpt>
      <trkpt lat="43.85504" lon="7.23361">
        <ele>542</ele>
        <time>2013-03-10T10:48:54Z</time>
      </trkpt>
      <trkpt lat="43.855" lon="7.23364">
        <ele>542</ele>
        <time>2013-03-10T10:48:56Z</time>
      </trkpt>
      <trkpt lat="43.85491" lon="7.23377">
        <ele>543</ele>
        <time>2013-03-10T10:49:02Z</time>
      </trkpt>
      <trkpt lat="43.8549" lon="7.23379">
        <ele>544</ele>
        <time>2013-03-10T10:49:03Z</time>
      </trkpt>
      <trkpt lat="43.85489" lon="7.23381">
        <ele>544</ele>
        <time>2013-03-10T10:49:04Z</time>
      </trkpt>
      <trkpt lat="43.85488" lon="7.23384">
        <ele>544</ele>
        <time>2013-03-10T10:49:05Z</time>
      </trkpt>
      <trkpt lat="43.85485" lon="7.23397">
        <ele>544</ele>
        <time>2013-03-10T10:49:10Z</time>
      </trkpt>
      <trkpt lat="43.85484" lon="7.234">
        <ele>545</ele>
        <time>2013-03-10T10:49:12Z</time>
      </trkpt>
      <trkpt lat="43.85483" lon="7.23401">
        <ele>545</ele>
        <time>2013-03-10T10:49:13Z</time>
      </trkpt>
      <trkpt lat="43.85482" lon="7.23403">
        <ele>546</ele>
        <time>2013-03-10T10:49:14Z</time>
      </trkpt>
      <trkpt lat="43.85481" lon="7.23404">
        <ele>546</ele>
        <time>2013-03-10T10:49:15Z</time>
      </trkpt>
      <trkpt lat="43.8548" lon="7.23405">
        <ele>546</ele>
        <time>2013-03-10T10:49:16Z</time>
      </trkpt>
      <trkpt lat="43.8547" lon="7.23415">
        <ele>546</ele>
        <time>2013-03-10T10:49:21Z</time>
      </trkpt>
      <trkpt lat="43.85465" lon="7.23418">
        <ele>547</ele>
        <time>2013-03-10T10:49:23Z</time>
      </trkpt>
      <trkpt lat="43.85463" lon="7.23419">
        <ele>547</ele>
        <time>2013-03-10T10:49:24Z</time>
      </trkpt>
      <trkpt lat="43.8546" lon="7.2342">
        <ele>548</ele>
        <time>2013-03-10T10:49:25Z</time>
      </trkpt>
      <trkpt lat="43.85458" lon="7.23421">
        <ele>548</ele>
        <time>2013-03-10T10:49:26Z</time>
      </trkpt>
      <trkpt lat="43.85455" lon="7.23422">
        <ele>548</ele>
        <time>2013-03-10T10:49:27Z</time>
      </trkpt>
      <trkpt lat="43.85451" lon="7.23424">
        <ele>548</ele>
        <time>2013-03-10T10:49:29Z</time>
      </trkpt>
      <trkpt lat="43.85438" lon="7.2343">
        <ele>548</ele>
        <time>2013-03-10T10:49:35Z</time>
      </trkpt>
      <trkpt lat="43.85435" lon="7.23432">
        <ele>548</ele>
        <time>2013-03-10T10:49:36Z</time>
      </trkpt>
      <trkpt lat="43.85431" lon="7.23435">
        <ele>549</ele>
        <time>2013-03-10T10:49:38Z</time>
      </trkpt>
      <trkpt lat="43.85429" lon="7.23437">
        <ele>549</ele>
        <time>2013-03-10T10:49:39Z</time>
      </trkpt>
      <trkpt lat="43.85427" lon="7.23439">
        <ele>550</ele>
        <time>2013-03-10T10:49:40Z</time>
      </trkpt>
      <trkpt lat="43.85425" lon="7.23442">
        <ele>550</ele>
        <time>2013-03-10T10:49:41Z</time>
      </trkpt>
      <trkpt lat="43.85423" lon="7.23445">
        <ele>551</ele>
        <time>2013-03-10T10:49:42Z</time>
      </trkpt>
      <trkpt lat="43.85407" lon="7.2347">
        <ele>551</ele>
        <time>2013-03-10T10:49:51Z</time>
      </trkpt>
      <trkpt lat="43.85398" lon="7.23483">
        <ele>551</ele>
        <time>2013-03-10T10:49:56Z</time>
      </trkpt>
      <trkpt lat="43.85396" lon="7.23486">
        <ele>551</ele>
        <time>2013-03-10T10:49:57Z</time>
      </trkpt>
      <trkpt lat="43.85395" lon="7.23488">
        <ele>552</ele>
        <time>2013-03-10T10:49:58Z</time>
      </trkpt>
      <trkpt lat="43.85393" lon="7.2349">
        <ele>552</ele>
        <time>2013-03-10T10:49:59Z</time>
      </trkpt>
      <trkpt lat="43.85391" lon="7.23493">
        <ele>553</ele>
        <time>2013-03-10T10:50:00Z</time>
      </trkpt>
      <trkpt lat="43.85381" lon="7.23515">
        <ele>553</ele>
        <time>2013-03-10T10:50:07Z</time>
      </trkpt>
      <trkpt lat="43.85376" lon="7.23529">
        <ele>553</ele>
        <time>2013-03-10T10:50:12Z</time>
      </trkpt>
      <trkpt lat="43.85375" lon="7.23532">
        <ele>554</ele>
        <time>2013-03-10T10:50:13Z</time>
      </trkpt>
      <trkpt lat="43.85374" lon="7.23535">
        <ele>554</ele>
        <time>2013-03-10T10:50:14Z</time>
      </trkpt>
      <trkpt lat="43.85373" lon="7.23539">
        <ele>554</ele>
        <time>2013-03-10T10:50:15Z</time>
      </trkpt>
      <trkpt lat="43.85371" lon="7.23542">
        <ele>555</ele>
        <time>2013-03-10T10:50:16Z</time>
      </trkpt>
      <trkpt lat="43.85365" lon="7.23556">
        <ele>555</ele>
        <time>2013-03-10T10:50:21Z</time>
      </trkpt>
      <trkpt lat="43.85361" lon="7.23565">
        <ele>555</ele>
        <time>2013-03-10T10:50:24Z</time>
      </trkpt>
      <trkpt lat="43.8536" lon="7.23568">
        <ele>556</ele>
        <time>2013-03-10T10:50:25Z</time>
      </trkpt>
      <trkpt lat="43.85359" lon="7.23571">
        <ele>556</ele>
        <time>2013-03-10T10:50:26Z</time>
      </trkpt>
      <trkpt lat="43.85358" lon="7.23574">
        <ele>557</ele>
        <time>2013-03-10T10:50:27Z</time>
      </trkpt>
      <trkpt lat="43.85356" lon="7.23577">
        <ele>557</ele>
        <time>2013-03-10T10:50:28Z</time>
      </trkpt>
      <trkpt lat="43.85354" lon="7.23582">
        <ele>557</ele>
        <time>2013-03-10T10:50:30Z</time>
      </trkpt>
      <trkpt lat="43.85351" lon="7.23591">
        <ele>557</ele>
        <time>2013-03-10T10:50:34Z</time>
      </trkpt>
      <trkpt lat="43.85351" lon="7.23594">
        <ele>557</ele>
        <time>2013-03-10T10:50:35Z</time>
      </trkpt>
      <trkpt lat="43.85351" lon="7.23598">
        <ele>558</ele>
        <time>2013-03-10T10:50:36Z</time>
      </trkpt>
      <trkpt lat="43.8535" lon="7.236">
        <ele>558</ele>
        <time>2013-03-10T10:50:37Z</time>
      </trkpt>
      <trkpt lat="43.8535" lon="7.23603">
        <ele>559</ele>
        <time>2013-03-10T10:50:38Z</time>
      </trkpt>
      <trkpt lat="43.85349" lon="7.23605">
        <ele>559</ele>
        <time>2013-03-10T10:50:39Z</time>
      </trkpt>
      <trkpt lat="43.85348" lon="7.23608">
        <ele>559</ele>
        <time>2013-03-10T10:50:40Z</time>
      </trkpt>
      <trkpt lat="43.85347" lon="7.23616">
        <ele>559</ele>
        <time>2013-03-10T10:50:43Z</time>
      </trkpt>
      <trkpt lat="43.85347" lon="7.23622">
        <ele>560</ele>
        <time>2013-03-10T10:50:45Z</time>
      </trkpt>
      <trkpt lat="43.85347" lon="7.23624">
        <ele>560</ele>
        <time>2013-03-10T10:50:46Z</time>
      </trkpt>
      <trkpt lat="43.85347" lon="7.23627">
        <ele>561</ele>
        <time>2013-03-10T10:50:47Z</time>
      </trkpt>
      <trkpt lat="43.85347" lon="7.2363">
        <ele>561</ele>
        <time>2013-03-10T10:50:48Z</time>
      </trkpt>
      <trkpt lat="43.85347" lon="7.23632">
        <ele>561</ele>
        <time>2013-03-10T10:50:49Z</time>
      </trkpt>
      <trkpt lat="43.85347" lon="7.2365">
        <ele>562</ele>
        <time>2013-03-10T10:50:56Z</time>
      </trkpt>
      <trkpt lat="43.85348" lon="7.23653">
        <ele>562</ele>
        <time>2013-03-10T10:50:57Z</time>
      </trkpt>
      <trkpt lat="43.85348" lon="7.23655">
        <ele>563</ele>
        <time>2013-03-10T10:50:58Z</time>
      </trkpt>
      <trkpt lat="43.85348" lon="7.23658">
        <ele>563</ele>
        <time>2013-03-10T10:50:59Z</time>
      </trkpt>
      <trkpt lat="43.85348" lon="7.23661">
        <ele>563</ele>
        <time>2013-03-10T10:51:00Z</time>
      </trkpt>
      <trkpt lat="43.85348" lon="7.23675">
        <ele>563</ele>
        <time>2013-03-10T10:51:05Z</time>
      </trkpt>
      <trkpt lat="43.85349" lon="7.23677">
        <ele>564</ele>
        <time>2013-03-10T10:51:06Z</time>
      </trkpt>
      <trkpt lat="43.85349" lon="7.23679">
        <ele>565</ele>
        <time>2013-03-10T10:51:07Z</time>
      </trkpt>
      <trkpt lat="43.85349" lon="7.23682">
        <ele>565</ele>
        <time>2013-03-10T10:51:08Z</time>
      </trkpt>
      <trkpt lat="43.8535" lon="7.23685">
        <ele>566</ele>
        <time>2013-03-10T10:51:09Z</time>
      </trkpt>
      <trkpt lat="43.85351" lon="7.23694">
        <ele>566</ele>
        <time>2013-03-10T10:51:12Z</time>
      </trkpt>
      <trkpt lat="43.85352" lon="7.23704">
        <ele>566</ele>
        <time>2013-03-10T10:51:16Z</time>
      </trkpt>
      <trkpt lat="43.85353" lon="7.23707">
        <ele>566</ele>
        <time>2013-03-10T10:51:17Z</time>
      </trkpt>
      <trkpt lat="43.85353" lon="7.23709">
        <ele>567</ele>
        <time>2013-03-10T10:51:18Z</time>
      </trkpt>
      <trkpt lat="43.85353" lon="7.23712">
        <ele>567</ele>
        <time>2013-03-10T10:51:19Z</time>
      </trkpt>
      <trkpt lat="43.85352" lon="7.23714">
        <ele>568</ele>
        <time>2013-03-10T10:51:20Z</time>
      </trkpt>
      <trkpt lat="43.85352" lon="7.23735">
        <ele>568</ele>
        <time>2013-03-10T10:51:27Z</time>
      </trkpt>
      <trkpt lat="43.85353" lon="7.23738">
        <ele>568</ele>
        <time>2013-03-10T10:51:28Z</time>
      </trkpt>
      <trkpt lat="43.85353" lon="7.23742">
        <ele>569</ele>
        <time>2013-03-10T10:51:29Z</time>
      </trkpt>
      <trkpt lat="43.85354" lon="7.23745">
        <ele>569</ele>
        <time>2013-03-10T10:51:30Z</time>
      </trkpt>
      <trkpt lat="43.85354" lon="7.23748">
        <ele>570</ele>
        <time>2013-03-10T10:51:31Z</time>
      </trkpt>
      <trkpt lat="43.85355" lon="7.23757">
        <ele>570</ele>
        <time>2013-03-10T10:51:34Z</time>
      </trkpt>
      <trkpt lat="43.85355" lon="7.23776">
        <ele>570</ele>
        <time>2013-03-10T10:51:40Z</time>
      </trkpt>
      <trkpt lat="43.85355" lon="7.23779">
        <ele>571</ele>
        <time>2013-03-10T10:51:41Z</time>
      </trkpt>
      <trkpt lat="43.85356" lon="7.23782">
        <ele>571</ele>
        <time>2013-03-10T10:51:42Z</time>
      </trkpt>
      <trkpt lat="43.85356" lon="7.23785">
        <ele>571</ele>
        <time>2013-03-10T10:51:43Z</time>
      </trkpt>
      <trkpt lat="43.85356" lon="7.23788">
        <ele>572</ele>
        <time>2013-03-10T10:51:44Z</time>
      </trkpt>
      <trkpt lat="43.85356" lon="7.23797">
        <ele>572</ele>
        <time>2013-03-10T10:51:47Z</time>
      </trkpt>
      <trkpt lat="43.85358" lon="7.23821">
        <ele>572</ele>
        <time>2013-03-10T10:51:55Z</time>
      </trkpt>
      <trkpt lat="43.85359" lon="7.23827">
        <ele>572</ele>
        <time>2013-03-10T10:51:57Z</time>
      </trkpt>
      <trkpt lat="43.85359" lon="7.23831">
        <ele>573</ele>
        <time>2013-03-10T10:51:58Z</time>
      </trkpt>
      <trkpt lat="43.85359" lon="7.23835">
        <ele>573</ele>
        <time>2013-03-10T10:51:59Z</time>
      </trkpt>
      <trkpt lat="43.85359" lon="7.23839">
        <ele>573</ele>
        <time>2013-03-10T10:52:00Z</time>
      </trkpt>
      <trkpt lat="43.85359" lon="7.23843">
        <ele>574</ele>
        <time>2013-03-10T10:52:01Z</time>
      </trkpt>
      <trkpt lat="43.85359" lon="7.2385">
        <ele>574</ele>
        <time>2013-03-10T10:52:03Z</time>
      </trkpt>
      <trkpt lat="43.8536" lon="7.23884">
        <ele>574</ele>
        <time>2013-03-10T10:52:12Z</time>
      </trkpt>
      <trkpt lat="43.85363" lon="7.23911">
        <ele>574</ele>
        <time>2013-03-10T10:52:19Z</time>
      </trkpt>
      <trkpt lat="43.85363" lon="7.23919">
        <ele>574</ele>
        <time>2013-03-10T10:52:21Z</time>
      </trkpt>
      <trkpt lat="43.85363" lon="7.23923">
        <ele>575</ele>
        <time>2013-03-10T10:52:22Z</time>
      </trkpt>
      <trkpt lat="43.85363" lon="7.23927">
        <ele>575</ele>
        <time>2013-03-10T10:52:23Z</time>
      </trkpt>
      <trkpt lat="43.85364" lon="7.2393">
        <ele>575</ele>
        <time>2013-03-10T10:52:24Z</time>
      </trkpt>
      <trkpt lat="43.85364" lon="7.23934">
        <ele>576</ele>
        <time>2013-03-10T10:52:25Z</time>
      </trkpt>
      <trkpt lat="43.85364" lon="7.23941">
        <ele>576</ele>
        <time>2013-03-10T10:52:27Z</time>
      </trkpt>
      <trkpt lat="43.85367" lon="7.23981">
        <ele>576</ele>
        <time>2013-03-10T10:52:38Z</time>
      </trkpt>
      <trkpt lat="43.85368" lon="7.23985">
        <ele>577</ele>
        <time>2013-03-10T10:52:39Z</time>
      </trkpt>
      <trkpt lat="43.85368" lon="7.23988">
        <ele>577</ele>
        <time>2013-03-10T10:52:40Z</time>
      </trkpt>
      <trkpt lat="43.85369" lon="7.23992">
        <ele>578</ele>
        <time>2013-03-10T10:52:41Z</time>
      </trkpt>
      <trkpt lat="43.85369" lon="7.23995">
        <ele>578</ele>
        <time>2013-03-10T10:52:42Z</time>
      </trkpt>
      <trkpt lat="43.85374" lon="7.24006">
        <ele>578</ele>
        <time>2013-03-10T10:52:46Z</time>
      </trkpt>
      <trkpt lat="43.85376" lon="7.24007">
        <ele>579</ele>
        <time>2013-03-10T10:52:47Z</time>
      </trkpt>
      <trkpt lat="43.85378" lon="7.24009">
        <ele>579</ele>
        <time>2013-03-10T10:52:48Z</time>
      </trkpt>
      <trkpt lat="43.85379" lon="7.24012">
        <ele>580</ele>
        <time>2013-03-10T10:52:49Z</time>
      </trkpt>
      <trkpt lat="43.8538" lon="7.24014">
        <ele>580</ele>
        <time>2013-03-10T10:52:50Z</time>
      </trkpt>
      <trkpt lat="43.85384" lon="7.24021">
        <ele>580</ele>
        <time>2013-03-10T10:52:53Z</time>
      </trkpt>
      <trkpt lat="43.85387" lon="7.24032">
        <ele>581</ele>
        <time>2013-03-10T10:52:57Z</time>
      </trkpt>
      <trkpt lat="43.85387" lon="7.24034">
        <ele>581</ele>
        <time>2013-03-10T10:52:58Z</time>
      </trkpt>
      <trkpt lat="43.85388" lon="7.24038">
        <ele>581</ele>
        <time>2013-03-10T10:52:59Z</time>
      </trkpt>
      <trkpt lat="43.85389" lon="7.2404">
        <ele>582</ele>
        <time>2013-03-10T10:53:00Z</time>
      </trkpt>
      <trkpt lat="43.85389" lon="7.24043">
        <ele>582</ele>
        <time>2013-03-10T10:53:01Z</time>
      </trkpt>
      <trkpt lat="43.85394" lon="7.24064">
        <ele>582</ele>
        <time>2013-03-10T10:53:08Z</time>
      </trkpt>
      <trkpt lat="43.85398" lon="7.24075">
        <ele>583</ele>
        <time>2013-03-10T10:53:12Z</time>
      </trkpt>
      <trkpt lat="43.854" lon="7.24078">
        <ele>583</ele>
        <time>2013-03-10T10:53:13Z</time>
      </trkpt>
      <trkpt lat="43.85401" lon="7.24081">
        <ele>583</ele>
        <time>2013-03-10T10:53:14Z</time>
      </trkpt>
      <trkpt lat="43.85402" lon="7.24084">
        <ele>584</ele>
        <time>2013-03-10T10:53:15Z</time>
      </trkpt>
      <trkpt lat="43.85403" lon="7.24087">
        <ele>584</ele>
        <time>2013-03-10T10:53:16Z</time>
      </trkpt>
      <trkpt lat="43.85413" lon="7.24109">
        <ele>584</ele>
        <time>2013-03-10T10:53:23Z</time>
      </trkpt>
      <trkpt lat="43.85425" lon="7.24133">
        <ele>584</ele>
        <time>2013-03-10T10:53:31Z</time>
      </trkpt>
      <trkpt lat="43.85431" lon="7.24141">
        <ele>585</ele>
        <time>2013-03-10T10:53:34Z</time>
      </trkpt>
      <trkpt lat="43.85432" lon="7.24144">
        <ele>586</ele>
        <time>2013-03-10T10:53:35Z</time>
      </trkpt>
      <trkpt lat="43.85434" lon="7.24146">
        <ele>586</ele>
        <time>2013-03-10T10:53:36Z</time>
      </trkpt>
      <trkpt lat="43.85435" lon="7.24148">
        <ele>586</ele>
        <time>2013-03-10T10:53:37Z</time>
      </trkpt>
      <trkpt lat="43.8544" lon="7.24153">
        <ele>586</ele>
        <time>2013-03-10T10:53:39Z</time>
      </trkpt>
      <trkpt lat="43.85458" lon="7.24165">
        <ele>586</ele>
        <time>2013-03-10T10:53:46Z</time>
      </trkpt>
      <trkpt lat="43.85481" lon="7.24184">
        <ele>586</ele>
        <time>2013-03-10T10:53:55Z</time>
      </trkpt>
      <trkpt lat="43.85484" lon="7.24186">
        <ele>587</ele>
        <time>2013-03-10T10:53:56Z</time>
      </trkpt>
      <trkpt lat="43.85486" lon="7.24188">
        <ele>587</ele>
        <time>2013-03-10T10:53:57Z</time>
      </trkpt>
      <trkpt lat="43.85489" lon="7.24191">
        <ele>588</ele>
        <time>2013-03-10T10:53:58Z</time>
      </trkpt>
      <trkpt lat="43.85491" lon="7.24193">
        <ele>589</ele>
        <time>2013-03-10T10:53:59Z</time>
      </trkpt>
      <trkpt lat="43.85501" lon="7.24203">
        <ele>589</ele>
        <time>2013-03-10T10:54:03Z</time>
      </trkpt>
      <trkpt lat="43.85512" lon="7.24227">
        <ele>589</ele>
        <time>2013-03-10T10:54:10Z</time>
      </trkpt>
      <trkpt lat="43.85516" lon="7.24237">
        <ele>589</ele>
        <time>2013-03-10T10:54:13Z</time>
      </trkpt>
      <trkpt lat="43.85518" lon="7.2424">
        <ele>589</ele>
        <time>2013-03-10T10:54:14Z</time>
      </trkpt>
      <trkpt lat="43.85519" lon="7.24244">
        <ele>590</ele>
        <time>2013-03-10T10:54:15Z</time>
      </trkpt>
      <trkpt lat="43.8552" lon="7.24247">
        <ele>590</ele>
        <time>2013-03-10T10:54:16Z</time>
      </trkpt>
      <trkpt lat="43.85521" lon="7.24251">
        <ele>591</ele>
        <time>2013-03-10T10:54:17Z</time>
      </trkpt>
      <trkpt lat="43.85523" lon="7.24253">
        <ele>591</ele>
        <time>2013-03-10T10:54:18Z</time>
      </trkpt>
      <trkpt lat="43.85539" lon="7.24272">
        <ele>591</ele>
        <time>2013-03-10T10:54:25Z</time>
      </trkpt>
      <trkpt lat="43.85554" lon="7.24295">
        <ele>591</ele>
        <time>2013-03-10T10:54:32Z</time>
      </trkpt>
      <trkpt lat="43.85563" lon="7.24309">
        <ele>591</ele>
        <time>2013-03-10T10:54:36Z</time>
      </trkpt>
      <trkpt lat="43.85566" lon="7.24312">
        <ele>591</ele>
        <time>2013-03-10T10:54:37Z</time>
      </trkpt>
      <trkpt lat="43.85569" lon="7.24316">
        <ele>592</ele>
        <time>2013-03-10T10:54:38Z</time>
      </trkpt>
      <trkpt lat="43.85571" lon="7.24319">
        <ele>592</ele>
        <time>2013-03-10T10:54:39Z</time>
      </trkpt>
      <trkpt lat="43.85574" lon="7.24322">
        <ele>593</ele>
        <time>2013-03-10T10:54:40Z</time>
      </trkpt>
      <trkpt lat="43.85593" lon="7.24332">
        <ele>593</ele>
        <time>2013-03-10T10:54:46Z</time>
      </trkpt>
      <trkpt lat="43.8561" lon="7.24338">
        <ele>593</ele>
        <time>2013-03-10T10:54:53Z</time>
      </trkpt>
      <trkpt lat="43.85612" lon="7.24338">
        <ele>594</ele>
        <time>2013-03-10T10:54:54Z</time>
      </trkpt>
      <trkpt lat="43.85614" lon="7.24338">
        <ele>594</ele>
        <time>2013-03-10T10:54:55Z</time>
      </trkpt>
      <trkpt lat="43.85616" lon="7.24338">
        <ele>594</ele>
        <time>2013-03-10T10:54:56Z</time>
      </trkpt>
      <trkpt lat="43.85618" lon="7.24338">
        <ele>595</ele>
        <time>2013-03-10T10:54:57Z</time>
      </trkpt>
      <trkpt lat="43.85626" lon="7.24339">
        <ele>595</ele>
        <time>2013-03-10T10:55:01Z</time>
      </trkpt>
      <trkpt lat="43.8563" lon="7.24339">
        <ele>595</ele>
        <time>2013-03-10T10:55:03Z</time>
      </trkpt>
      <trkpt lat="43.85632" lon="7.24341">
        <ele>596</ele>
        <time>2013-03-10T10:55:04Z</time>
      </trkpt>
      <trkpt lat="43.85632" lon="7.24343">
        <ele>596</ele>
        <time>2013-03-10T10:55:05Z</time>
      </trkpt>
      <trkpt lat="43.85633" lon="7.24345">
        <ele>596</ele>
        <time>2013-03-10T10:55:06Z</time>
      </trkpt>
      <trkpt lat="43.85633" lon="7.24348">
        <ele>597</ele>
        <time>2013-03-10T10:55:07Z</time>
      </trkpt>
      <trkpt lat="43.85631" lon="7.24356">
        <ele>597</ele>
        <time>2013-03-10T10:55:11Z</time>
      </trkpt>
      <trkpt lat="43.85615" lon="7.24369">
        <ele>597</ele>
        <time>2013-03-10T10:55:16Z</time>
      </trkpt>
      <trkpt lat="43.85595" lon="7.24383">
        <ele>597</ele>
        <time>2013-03-10T10:55:22Z</time>
      </trkpt>
      <trkpt lat="43.85578" lon="7.24403">
        <ele>597</ele>
        <time>2013-03-10T10:55:28Z</time>
      </trkpt>
      <trkpt lat="43.85563" lon="7.2442">
        <ele>597</ele>
        <time>2013-03-10T10:55:34Z</time>
      </trkpt>
      <trkpt lat="43.8556" lon="7.24423">
        <ele>598</ele>
        <time>2013-03-10T10:55:35Z</time>
      </trkpt>
      <trkpt lat="43.85558" lon="7.24426">
        <ele>598</ele>
        <time>2013-03-10T10:55:36Z</time>
      </trkpt>
      <trkpt lat="43.85556" lon="7.24429">
        <ele>598</ele>
        <time>2013-03-10T10:55:37Z</time>
      </trkpt>
      <trkpt lat="43.85555" lon="7.24434">
        <ele>599</ele>
        <time>2013-03-10T10:55:38Z</time>
      </trkpt>
      <trkpt lat="43.85556" lon="7.24449">
        <ele>599</ele>
        <time>2013-03-10T10:55:41Z</time>
      </trkpt>
      <trkpt lat="43.85568" lon="7.24481">
        <ele>599</ele>
        <time>2013-03-10T10:55:48Z</time>
      </trkpt>
      <trkpt lat="43.85583" lon="7.24496">
        <ele>599</ele>
        <time>2013-03-10T10:55:53Z</time>
      </trkpt>
      <trkpt lat="43.85599" lon="7.24505">
        <ele>599</ele>
        <time>2013-03-10T10:55:58Z</time>
      </trkpt>
      <trkpt lat="43.85605" lon="7.24511">
        <ele>599</ele>
        <time>2013-03-10T10:56:00Z</time>
      </trkpt>
      <trkpt lat="43.85608" lon="7.24514">
        <ele>600</ele>
        <time>2013-03-10T10:56:01Z</time>
      </trkpt>
      <trkpt lat="43.8561" lon="7.24518">
        <ele>600</ele>
        <time>2013-03-10T10:56:02Z</time>
      </trkpt>
      <trkpt lat="43.85613" lon="7.24521">
        <ele>601</ele>
        <time>2013-03-10T10:56:03Z</time>
      </trkpt>
      <trkpt lat="43.85615" lon="7.24525">
        <ele>601</ele>
        <time>2013-03-10T10:56:04Z</time>
      </trkpt>
      <trkpt lat="43.85636" lon="7.24556">
        <ele>601</ele>
        <time>2013-03-10T10:56:13Z</time>
      </trkpt>
      <trkpt lat="43.85651" lon="7.2458">
        <ele>601</ele>
        <time>2013-03-10T10:56:18Z</time>
      </trkpt>
      <trkpt lat="43.85663" lon="7.24603">
        <ele>601</ele>
        <time>2013-03-10T10:56:21Z</time>
      </trkpt>
      <trkpt lat="43.85668" lon="7.24609">
        <ele>601</ele>
        <time>2013-03-10T10:56:22Z</time>
      </trkpt>
      <trkpt lat="43.85673" lon="7.24614">
        <ele>601</ele>
        <time>2013-03-10T10:56:23Z</time>
      </trkpt>
      <trkpt lat="43.85678" lon="7.24619">
        <ele>600</ele>
        <time>2013-03-10T10:56:24Z</time>
      </trkpt>
      <trkpt lat="43.85682" lon="7.24624">
        <ele>600</ele>
        <time>2013-03-10T10:56:25Z</time>
      </trkpt>
      <trkpt lat="43.85686" lon="7.24628">
        <ele>599</ele>
        <time>2013-03-10T10:56:26Z</time>
      </trkpt>
      <trkpt lat="43.8569" lon="7.24631">
        <ele>599</ele>
        <time>2013-03-10T10:56:27Z</time>
      </trkpt>
      <trkpt lat="43.857" lon="7.24636">
        <ele>599</ele>
        <time>2013-03-10T10:56:30Z</time>
      </trkpt>
      <trkpt lat="43.85703" lon="7.24637">
        <ele>599</ele>
        <time>2013-03-10T10:56:31Z</time>
      </trkpt>
      <trkpt lat="43.85705" lon="7.24638">
        <ele>600</ele>
        <time>2013-03-10T10:56:32Z</time>
      </trkpt>
      <trkpt lat="43.85708" lon="7.24639">
        <ele>600</ele>
        <time>2013-03-10T10:56:33Z</time>
      </trkpt>
      <trkpt lat="43.85711" lon="7.24639">
        <ele>601</ele>
        <time>2013-03-10T10:56:34Z</time>
      </trkpt>
      <trkpt lat="43.85713" lon="7.2464">
        <ele>601</ele>
        <time>2013-03-10T10:56:35Z</time>
      </trkpt>
      <trkpt lat="43.85725" lon="7.24645">
        <ele>601</ele>
        <time>2013-03-10T10:56:40Z</time>
      </trkpt>
      <trkpt lat="43.85728" lon="7.24646">
        <ele>602</ele>
        <time>2013-03-10T10:56:41Z</time>
      </trkpt>
      <trkpt lat="43.8573" lon="7.24648">
        <ele>602</ele>
        <time>2013-03-10T10:56:42Z</time>
      </trkpt>
      <trkpt lat="43.85733" lon="7.24649">
        <ele>603</ele>
        <time>2013-03-10T10:56:43Z</time>
      </trkpt>
      <trkpt lat="43.85735" lon="7.2465">
        <ele>603</ele>
        <time>2013-03-10T10:56:44Z</time>
      </trkpt>
      <trkpt lat="43.85741" lon="7.24654">
        <ele>603</ele>
        <time>2013-03-10T10:56:47Z</time>
      </trkpt>
      <trkpt lat="43.85745" lon="7.24657">
        <ele>604</ele>
        <time>2013-03-10T10:56:49Z</time>
      </trkpt>
      <trkpt lat="43.85747" lon="7.24658">
        <ele>604</ele>
        <time>2013-03-10T10:56:50Z</time>
      </trkpt>
      <trkpt lat="43.85749" lon="7.24659">
        <ele>604</ele>
        <time>2013-03-10T10:56:51Z</time>
      </trkpt>
      <trkpt lat="43.85751" lon="7.2466">
        <ele>605</ele>
        <time>2013-03-10T10:56:52Z</time>
      </trkpt>
      <trkpt lat="43.85753" lon="7.24662">
        <ele>605</ele>
        <time>2013-03-10T10:56:53Z</time>
      </trkpt>
      <trkpt lat="43.85755" lon="7.24664">
        <ele>605</ele>
        <time>2013-03-10T10:56:54Z</time>
      </trkpt>
      <trkpt lat="43.85757" lon="7.24665">
        <ele>605</ele>
        <time>2013-03-10T10:56:55Z</time>
      </trkpt>
      <trkpt lat="43.8576" lon="7.24669">
        <ele>606</ele>
        <time>2013-03-10T10:56:57Z</time>
      </trkpt>
      <trkpt lat="43.85762" lon="7.2467">
        <ele>606</ele>
        <time>2013-03-10T10:56:58Z</time>
      </trkpt>
      <trkpt lat="43.85764" lon="7.24671">
        <ele>607</ele>
        <time>2013-03-10T10:56:59Z</time>
      </trkpt>
      <trkpt lat="43.85766" lon="7.24672">
        <ele>607</ele>
        <time>2013-03-10T10:57:00Z</time>
      </trkpt>
      <trkpt lat="43.85768" lon="7.24673">
        <ele>607</ele>
        <time>2013-03-10T10:57:01Z</time>
      </trkpt>
      <trkpt lat="43.85775" lon="7.24678">
        <ele>608</ele>
        <time>2013-03-10T10:57:05Z</time>
      </trkpt>
      <trkpt lat="43.85777" lon="7.24679">
        <ele>608</ele>
        <time>2013-03-10T10:57:06Z</time>
      </trkpt>
      <trkpt lat="43.85778" lon="7.2468">
        <ele>609</ele>
        <time>2013-03-10T10:57:07Z</time>
      </trkpt>
      <trkpt lat="43.8578" lon="7.24681">
        <ele>609</ele>
        <time>2013-03-10T10:57:08Z</time>
      </trkpt>
      <trkpt lat="43.85781" lon="7.24682">
        <ele>610</ele>
        <time>2013-03-10T10:57:09Z</time>
      </trkpt>
      <trkpt lat="43.85785" lon="7.24689">
        <ele>610</ele>
        <time>2013-03-10T10:57:14Z</time>
      </trkpt>
      <trkpt lat="43.85786" lon="7.24691">
        <ele>610</ele>
        <time>2013-03-10T10:57:15Z</time>
      </trkpt>
      <trkpt lat="43.85786" lon="7.24693">
        <ele>611</ele>
        <time>2013-03-10T10:57:16Z</time>
      </trkpt>
      <trkpt lat="43.85787" lon="7.24695">
        <ele>612</ele>
        <time>2013-03-10T10:57:17Z</time>
      </trkpt>
      <trkpt lat="43.85789" lon="7.24697">
        <ele>612</ele>
        <time>2013-03-10T10:57:19Z</time>
      </trkpt>
      <trkpt lat="43.85791" lon="7.24702">
        <ele>612</ele>
        <time>2013-03-10T10:57:22Z</time>
      </trkpt>
      <trkpt lat="43.85792" lon="7.24704">
        <ele>612</ele>
        <time>2013-03-10T10:57:23Z</time>
      </trkpt>
      <trkpt lat="43.85793" lon="7.24705">
        <ele>613</ele>
        <time>2013-03-10T10:57:24Z</time>
      </trkpt>
      <trkpt lat="43.85794" lon="7.24707">
        <ele>613</ele>
        <time>2013-03-10T10:57:25Z</time>
      </trkpt>
      <trkpt lat="43.85795" lon="7.24708">
        <ele>614</ele>
        <time>2013-03-10T10:57:26Z</time>
      </trkpt>
      <trkpt lat="43.85797" lon="7.24713">
        <ele>614</ele>
        <time>2013-03-10T10:57:29Z</time>
      </trkpt>
      <trkpt lat="43.858" lon="7.2472">
        <ele>614</ele>
        <time>2013-03-10T10:57:33Z</time>
      </trkpt>
      <trkpt lat="43.858" lon="7.24721">
        <ele>615</ele>
        <time>2013-03-10T10:57:34Z</time>
      </trkpt>
      <trkpt lat="43.858" lon="7.24723">
        <ele>615</ele>
        <time>2013-03-10T10:57:35Z</time>
      </trkpt>
      <trkpt lat="43.85801" lon="7.24725">
        <ele>615</ele>
        <time>2013-03-10T10:57:36Z</time>
      </trkpt>
      <trkpt lat="43.85801" lon="7.24727">
        <ele>616</ele>
        <time>2013-03-10T10:57:37Z</time>
      </trkpt>
      <trkpt lat="43.85802" lon="7.24729">
        <ele>616</ele>
        <time>2013-03-10T10:57:38Z</time>
      </trkpt>
      <trkpt lat="43.85805" lon="7.24736">
        <ele>616</ele>
        <time>2013-03-10T10:57:42Z</time>
      </trkpt>
      <trkpt lat="43.85805" lon="7.24738">
        <ele>617</ele>
        <time>2013-03-10T10:57:43Z</time>
      </trkpt>
      <trkpt lat="43.85806" lon="7.2474">
        <ele>617</ele>
        <time>2013-03-10T10:57:44Z</time>
      </trkpt>
      <trkpt lat="43.85806" lon="7.24741">
        <ele>618</ele>
        <time>2013-03-10T10:57:45Z</time>
      </trkpt>
      <trkpt lat="43.85806" lon="7.24743">
        <ele>618</ele>
        <time>2013-03-10T10:57:46Z</time>
      </trkpt>
      <trkpt lat="43.85808" lon="7.24747">
        <ele>618</ele>
        <time>2013-03-10T10:57:49Z</time>
      </trkpt>
      <trkpt lat="43.8581" lon="7.24748">
        <ele>618</ele>
        <time>2013-03-10T10:57:51Z</time>
      </trkpt>
      <trkpt lat="43.85812" lon="7.24748">
        <ele>619</ele>
        <time>2013-03-10T10:57:52Z</time>
      </trkpt>
      <trkpt lat="43.85813" lon="7.24749">
        <ele>619</ele>
        <time>2013-03-10T10:57:53Z</time>
      </trkpt>
      <trkpt lat="43.85814" lon="7.24748">
        <ele>620</ele>
        <time>2013-03-10T10:57:54Z</time>
      </trkpt>
      <trkpt lat="43.85815" lon="7.24747">
        <ele>620</ele>
        <time>2013-03-10T10:57:55Z</time>
      </trkpt>
      <trkpt lat="43.85817" lon="7.24737">
        <ele>620</ele>
        <time>2013-03-10T10:58:02Z</time>
      </trkpt>
      <trkpt lat="43.85816" lon="7.24735">
        <ele>620</ele>
        <time>2013-03-10T10:58:03Z</time>
      </trkpt>
      <trkpt lat="43.85815" lon="7.24734">
        <ele>621</ele>
        <time>2013-03-10T10:58:04Z</time>
      </trkpt>
      <trkpt lat="43.85815" lon="7.24732">
        <ele>621</ele>
        <time>2013-03-10T10:58:05Z</time>
      </trkpt>
      <trkpt lat="43.85814" lon="7.24731">
        <ele>622</ele>
        <time>2013-03-10T10:58:06Z</time>
      </trkpt>
      <trkpt lat="43.85812" lon="7.24722">
        <ele>622</ele>
        <time>2013-03-10T10:58:11Z</time>
      </trkpt>
      <trkpt lat="43.85811" lon="7.24716">
        <ele>622</ele>
        <time>2013-03-10T10:58:14Z</time>
      </trkpt>
      <trkpt lat="43.85811" lon="7.24714">
        <ele>623</ele>
        <time>2013-03-10T10:58:15Z</time>
      </trkpt>
      <trkpt lat="43.85811" lon="7.24711">
        <ele>623</ele>
        <time>2013-03-10T10:58:16Z</time>
      </trkpt>
      <trkpt lat="43.85811" lon="7.24709">
        <ele>624</ele>
        <time>2013-03-10T10:58:17Z</time>
      </trkpt>
      <trkpt lat="43.8581" lon="7.24707">
        <ele>624</ele>
        <time>2013-03-10T10:58:18Z</time>
      </trkpt>
      <trkpt lat="43.85809" lon="7.247">
        <ele>624</ele>
        <time>2013-03-10T10:58:21Z</time>
      </trkpt>
      <trkpt lat="43.85804" lon="7.24681">
        <ele>625</ele>
        <time>2013-03-10T10:58:30Z</time>
      </trkpt>
      <trkpt lat="43.85803" lon="7.24679">
        <ele>625</ele>
        <time>2013-03-10T10:58:31Z</time>
      </trkpt>
      <trkpt lat="43.85803" lon="7.24676">
        <ele>626</ele>
        <time>2013-03-10T10:58:32Z</time>
      </trkpt>
      <trkpt lat="43.85803" lon="7.24674">
        <ele>626</ele>
        <time>2013-03-10T10:58:33Z</time>
      </trkpt>
      <trkpt lat="43.85802" lon="7.24669">
        <ele>626</ele>
        <time>2013-03-10T10:58:35Z</time>
      </trkpt>
      <trkpt lat="43.85803" lon="7.24667">
        <ele>626</ele>
        <time>2013-03-10T10:58:36Z</time>
      </trkpt>
      <trkpt lat="43.85809" lon="7.24671">
        <ele>626</ele>
        <time>2013-03-10T10:58:40Z</time>
      </trkpt>
      <trkpt lat="43.85811" lon="7.24676">
        <ele>626</ele>
        <time>2013-03-10T10:58:42Z</time>
      </trkpt>
      <trkpt lat="43.85812" lon="7.24678">
        <ele>627</ele>
        <time>2013-03-10T10:58:43Z</time>
      </trkpt>
      <trkpt lat="43.85812" lon="7.24681">
        <ele>627</ele>
        <time>2013-03-10T10:58:44Z</time>
      </trkpt>
      <trkpt lat="43.85813" lon="7.24686">
        <ele>628</ele>
        <time>2013-03-10T10:58:45Z</time>
      </trkpt>
      <trkpt lat="43.85814" lon="7.24688">
        <ele>628</ele>
        <time>2013-03-10T10:58:47Z</time>
      </trkpt>
      <trkpt lat="43.85821" lon="7.24704">
        <ele>628</ele>
        <time>2013-03-10T10:58:54Z</time>
      </trkpt>
      <trkpt lat="43.85826" lon="7.2471">
        <ele>629</ele>
        <time>2013-03-10T10:58:57Z</time>
      </trkpt>
      <trkpt lat="43.85827" lon="7.24712">
        <ele>629</ele>
        <time>2013-03-10T10:58:58Z</time>
      </trkpt>
      <trkpt lat="43.85828" lon="7.24714">
        <ele>630</ele>
        <time>2013-03-10T10:58:59Z</time>
      </trkpt>
      <trkpt lat="43.85829" lon="7.24716">
        <ele>630</ele>
        <time>2013-03-10T10:59:00Z</time>
      </trkpt>
      <trkpt lat="43.8583" lon="7.24718">
        <ele>630</ele>
        <time>2013-03-10T10:59:01Z</time>
      </trkpt>
      <trkpt lat="43.85831" lon="7.2472">
        <ele>630</ele>
        <time>2013-03-10T10:59:02Z</time>
      </trkpt>
      <trkpt lat="43.85835" lon="7.2473">
        <ele>631</ele>
        <time>2013-03-10T10:59:07Z</time>
      </trkpt>
      <trkpt lat="43.85835" lon="7.24732">
        <ele>631</ele>
        <time>2013-03-10T10:59:08Z</time>
      </trkpt>
      <trkpt lat="43.85836" lon="7.24733">
        <ele>632</ele>
        <time>2013-03-10T10:59:09Z</time>
      </trkpt>
      <trkpt lat="43.85837" lon="7.24735">
        <ele>632</ele>
        <time>2013-03-10T10:59:10Z</time>
      </trkpt>
      <trkpt lat="43.85838" lon="7.24737">
        <ele>633</ele>
        <time>2013-03-10T10:59:11Z</time>
      </trkpt>
      <trkpt lat="43.85842" lon="7.24742">
        <ele>633</ele>
        <time>2013-03-10T10:59:15Z</time>
      </trkpt>
      <trkpt lat="43.85843" lon="7.24743">
        <ele>633</ele>
        <time>2013-03-10T10:59:16Z</time>
      </trkpt>
      <trkpt lat="43.85845" lon="7.24744">
        <ele>633</ele>
        <time>2013-03-10T10:59:17Z</time>
      </trkpt>
      <trkpt lat="43.85846" lon="7.24745">
        <ele>634</ele>
        <time>2013-03-10T10:59:18Z</time>
      </trkpt>
      <trkpt lat="43.85848" lon="7.24747">
        <ele>634</ele>
        <time>2013-03-10T10:59:19Z</time>
      </trkpt>
      <trkpt lat="43.85849" lon="7.24747">
        <ele>635</ele>
        <time>2013-03-10T10:59:20Z</time>
      </trkpt>
      <trkpt lat="43.85853" lon="7.2475">
        <ele>635</ele>
        <time>2013-03-10T10:59:23Z</time>
      </trkpt>
      <trkpt lat="43.85856" lon="7.24751">
        <ele>635</ele>
        <time>2013-03-10T10:59:25Z</time>
      </trkpt>
      <trkpt lat="43.85857" lon="7.24751">
        <ele>636</ele>
        <time>2013-03-10T10:59:26Z</time>
      </trkpt>
      <trkpt lat="43.85858" lon="7.24751">
        <ele>636</ele>
        <time>2013-03-10T10:59:27Z</time>
      </trkpt>
      <trkpt lat="43.85858" lon="7.24751">
        <ele>636</ele>
        <time>2013-03-10T10:59:28Z</time>
      </trkpt>
      <trkpt lat="43.8586" lon="7.24751">
        <ele>637</ele>
        <time>2013-03-10T10:59:29Z</time>
      </trkpt>
      <trkpt lat="43.85866" lon="7.24744">
        <ele>637</ele>
        <time>2013-03-10T10:59:34Z</time>
      </trkpt>
      <trkpt lat="43.85867" lon="7.24738">
        <ele>637</ele>
        <time>2013-03-10T10:59:37Z</time>
      </trkpt>
      <trkpt lat="43.85867" lon="7.24735">
        <ele>638</ele>
        <time>2013-03-10T10:59:38Z</time>
      </trkpt>
      <trkpt lat="43.85867" lon="7.24733">
        <ele>638</ele>
        <time>2013-03-10T10:59:39Z</time>
      </trkpt>
      <trkpt lat="43.85867" lon="7.24731">
        <ele>638</ele>
        <time>2013-03-10T10:59:40Z</time>
      </trkpt>
      <trkpt lat="43.85867" lon="7.24728">
        <ele>639</ele>
        <time>2013-03-10T10:59:41Z</time>
      </trkpt>
      <trkpt lat="43.8587" lon="7.24708">
        <ele>639</ele>
        <time>2013-03-10T10:59:48Z</time>
      </trkpt>
      <trkpt lat="43.85874" lon="7.24683">
        <ele>639</ele>
        <time>2013-03-10T10:59:56Z</time>
      </trkpt>
      <trkpt lat="43.85871" lon="7.24663">
        <ele>639</ele>
        <time>2013-03-10T11:00:02Z</time>
      </trkpt>
      <trkpt lat="43.85872" lon="7.24648">
        <ele>639</ele>
        <time>2013-03-10T11:00:07Z</time>
      </trkpt>
      <trkpt lat="43.85885" lon="7.24624">
        <ele>639</ele>
        <time>2013-03-10T11:00:15Z</time>
      </trkpt>
      <trkpt lat="43.85898" lon="7.24617">
        <ele>639</ele>
        <time>2013-03-10T11:00:21Z</time>
      </trkpt>
      <trkpt lat="43.859" lon="7.24616">
        <ele>639</ele>
        <time>2013-03-10T11:00:22Z</time>
      </trkpt>
      <trkpt lat="43.85902" lon="7.24615">
        <ele>640</ele>
        <time>2013-03-10T11:00:23Z</time>
      </trkpt>
      <trkpt lat="43.85904" lon="7.24614">
        <ele>640</ele>
        <time>2013-03-10T11:00:24Z</time>
      </trkpt>
      <trkpt lat="43.85906" lon="7.24614">
        <ele>640</ele>
        <time>2013-03-10T11:00:25Z</time>
      </trkpt>
      <trkpt lat="43.85908" lon="7.24613">
        <ele>641</ele>
        <time>2013-03-10T11:00:26Z</time>
      </trkpt>
      <trkpt lat="43.85912" lon="7.24612">
        <ele>641</ele>
        <time>2013-03-10T11:00:28Z</time>
      </trkpt>
      <trkpt lat="43.85919" lon="7.2461">
        <ele>641</ele>
        <time>2013-03-10T11:00:33Z</time>
      </trkpt>
      <trkpt lat="43.8592" lon="7.24609">
        <ele>642</ele>
        <time>2013-03-10T11:00:34Z</time>
      </trkpt>
      <trkpt lat="43.85922" lon="7.24609">
        <ele>642</ele>
        <time>2013-03-10T11:00:35Z</time>
      </trkpt>
      <trkpt lat="43.85923" lon="7.24609">
        <ele>643</ele>
        <time>2013-03-10T11:00:36Z</time>
      </trkpt>
      <trkpt lat="43.85928" lon="7.24606">
        <ele>643</ele>
        <time>2013-03-10T11:00:39Z</time>
      </trkpt>
      <trkpt lat="43.85934" lon="7.24601">
        <ele>643</ele>
        <time>2013-03-10T11:00:43Z</time>
      </trkpt>
      <trkpt lat="43.85936" lon="7.24596">
        <ele>643</ele>
        <time>2013-03-10T11:00:45Z</time>
      </trkpt>
      <trkpt lat="43.85938" lon="7.24594">
        <ele>644</ele>
        <time>2013-03-10T11:00:46Z</time>
      </trkpt>
      <trkpt lat="43.85939" lon="7.24592">
        <ele>644</ele>
        <time>2013-03-10T11:00:47Z</time>
      </trkpt>
      <trkpt lat="43.85939" lon="7.24589">
        <ele>645</ele>
        <time>2013-03-10T11:00:48Z</time>
      </trkpt>
      <trkpt lat="43.8594" lon="7.24586">
        <ele>645</ele>
        <time>2013-03-10T11:00:49Z</time>
      </trkpt>
      <trkpt lat="43.8594" lon="7.24577">
        <ele>645</ele>
        <time>2013-03-10T11:00:52Z</time>
      </trkpt>
      <trkpt lat="43.8594" lon="7.24566">
        <ele>646</ele>
        <time>2013-03-10T11:00:56Z</time>
      </trkpt>
      <trkpt lat="43.85941" lon="7.24563">
        <ele>646</ele>
        <time>2013-03-10T11:00:57Z</time>
      </trkpt>
      <trkpt lat="43.85942" lon="7.2456">
        <ele>647</ele>
        <time>2013-03-10T11:00:58Z</time>
      </trkpt>
      <trkpt lat="43.85942" lon="7.24558">
        <ele>648</ele>
        <time>2013-03-10T11:00:59Z</time>
      </trkpt>
      <trkpt lat="43.85942" lon="7.24556">
        <ele>648</ele>
        <time>2013-03-10T11:01:00Z</time>
      </trkpt>
      <trkpt lat="43.85944" lon="7.24546">
        <ele>648</ele>
        <time>2013-03-10T11:01:04Z</time>
      </trkpt>
      <trkpt lat="43.85943" lon="7.24533">
        <ele>648</ele>
        <time>2013-03-10T11:01:10Z</time>
      </trkpt>
      <trkpt lat="43.85936" lon="7.24521">
        <ele>648</ele>
        <time>2013-03-10T11:01:16Z</time>
      </trkpt>
      <trkpt lat="43.85934" lon="7.2452">
        <ele>649</ele>
        <time>2013-03-10T11:01:17Z</time>
      </trkpt>
      <trkpt lat="43.85933" lon="7.24518">
        <ele>649</ele>
        <time>2013-03-10T11:01:18Z</time>
      </trkpt>
      <trkpt lat="43.85932" lon="7.24517">
        <ele>649</ele>
        <time>2013-03-10T11:01:19Z</time>
      </trkpt>
      <trkpt lat="43.8593" lon="7.24515">
        <ele>650</ele>
        <time>2013-03-10T11:01:20Z</time>
      </trkpt>
      <trkpt lat="43.85929" lon="7.24514">
        <ele>650</ele>
        <time>2013-03-10T11:01:21Z</time>
      </trkpt>
      <trkpt lat="43.85925" lon="7.2451">
        <ele>650</ele>
        <time>2013-03-10T11:01:24Z</time>
      </trkpt>
      <trkpt lat="43.8592" lon="7.24506">
        <ele>651</ele>
        <time>2013-03-10T11:01:27Z</time>
      </trkpt>
      <trkpt lat="43.85918" lon="7.24506">
        <ele>651</ele>
        <time>2013-03-10T11:01:28Z</time>
      </trkpt>
      <trkpt lat="43.85916" lon="7.24505">
        <ele>651</ele>
        <time>2013-03-10T11:01:29Z</time>
      </trkpt>
      <trkpt lat="43.85915" lon="7.24503">
        <ele>652</ele>
        <time>2013-03-10T11:01:30Z</time>
      </trkpt>
      <trkpt lat="43.85914" lon="7.24501">
        <ele>652</ele>
        <time>2013-03-10T11:01:31Z</time>
      </trkpt>
      <trkpt lat="43.85913" lon="7.24497">
        <ele>652</ele>
        <time>2013-03-10T11:01:33Z</time>
      </trkpt>
      <trkpt lat="43.85915" lon="7.24491">
        <ele>652</ele>
        <time>2013-03-10T11:01:36Z</time>
      </trkpt>
      <trkpt lat="43.85917" lon="7.24488">
        <ele>653</ele>
        <time>2013-03-10T11:01:38Z</time>
      </trkpt>
      <trkpt lat="43.85919" lon="7.24486">
        <ele>653</ele>
        <time>2013-03-10T11:01:39Z</time>
      </trkpt>
      <trkpt lat="43.8592" lon="7.24485">
        <ele>654</ele>
        <time>2013-03-10T11:01:40Z</time>
      </trkpt>
      <trkpt lat="43.85921" lon="7.24484">
        <ele>654</ele>
        <time>2013-03-10T11:01:41Z</time>
      </trkpt>
      <trkpt lat="43.85923" lon="7.24482">
        <ele>654</ele>
        <time>2013-03-10T11:01:42Z</time>
      </trkpt>
      <trkpt lat="43.8593" lon="7.24472">
        <ele>654</ele>
        <time>2013-03-10T11:01:48Z</time>
      </trkpt>
      <trkpt lat="43.85931" lon="7.2447">
        <ele>655</ele>
        <time>2013-03-10T11:01:49Z</time>
      </trkpt>
      <trkpt lat="43.85933" lon="7.24469">
        <ele>656</ele>
        <time>2013-03-10T11:01:50Z</time>
      </trkpt>
      <trkpt lat="43.85934" lon="7.24467">
        <ele>656</ele>
        <time>2013-03-10T11:01:51Z</time>
      </trkpt>
      <trkpt lat="43.85935" lon="7.24465">
        <ele>656</ele>
        <time>2013-03-10T11:01:52Z</time>
      </trkpt>
      <trkpt lat="43.85938" lon="7.24463">
        <ele>656</ele>
        <time>2013-03-10T11:01:54Z</time>
      </trkpt>
      <trkpt lat="43.85949" lon="7.24457">
        <ele>657</ele>
        <time>2013-03-10T11:02:00Z</time>
      </trkpt>
      <trkpt lat="43.85951" lon="7.24456">
        <ele>657</ele>
        <time>2013-03-10T11:02:01Z</time>
      </trkpt>
      <trkpt lat="43.85952" lon="7.24455">
        <ele>658</ele>
        <time>2013-03-10T11:02:02Z</time>
      </trkpt>
      <trkpt lat="43.85954" lon="7.24455">
        <ele>658</ele>
        <time>2013-03-10T11:02:03Z</time>
      </trkpt>
      <trkpt lat="43.85956" lon="7.24454">
        <ele>659</ele>
        <time>2013-03-10T11:02:04Z</time>
      </trkpt>
      <trkpt lat="43.85964" lon="7.24451">
        <ele>659</ele>
        <time>2013-03-10T11:02:08Z</time>
      </trkpt>
      <trkpt lat="43.85974" lon="7.24445">
        <ele>659</ele>
        <time>2013-03-10T11:02:13Z</time>
      </trkpt>
      <trkpt lat="43.85976" lon="7.24444">
        <ele>659</ele>
        <time>2013-03-10T11:02:14Z</time>
      </trkpt>
      <trkpt lat="43.85977" lon="7.24443">
        <ele>660</ele>
        <time>2013-03-10T11:02:15Z</time>
      </trkpt>
      <trkpt lat="43.85979" lon="7.24442">
        <ele>661</ele>
        <time>2013-03-10T11:02:16Z</time>
      </trkpt>
      <trkpt lat="43.85989" lon="7.24436">
        <ele>661</ele>
        <time>2013-03-10T11:02:22Z</time>
      </trkpt>
      <trkpt lat="43.85996" lon="7.24428">
        <ele>661</ele>
        <time>2013-03-10T11:02:27Z</time>
      </trkpt>
      <trkpt lat="43.85997" lon="7.24426">
        <ele>661</ele>
        <time>2013-03-10T11:02:28Z</time>
      </trkpt>
      <trkpt lat="43.85998" lon="7.24425">
        <ele>662</ele>
        <time>2013-03-10T11:02:29Z</time>
      </trkpt>
      <trkpt lat="43.85999" lon="7.24424">
        <ele>662</ele>
        <time>2013-03-10T11:02:30Z</time>
      </trkpt>
      <trkpt lat="43.86001" lon="7.24423">
        <ele>663</ele>
        <time>2013-03-10T11:02:31Z</time>
      </trkpt>
      <trkpt lat="43.86005" lon="7.24419">
        <ele>663</ele>
        <time>2013-03-10T11:02:34Z</time>
      </trkpt>
      <trkpt lat="43.86013" lon="7.24416">
        <ele>663</ele>
        <time>2013-03-10T11:02:38Z</time>
      </trkpt>
      <trkpt lat="43.86014" lon="7.24415">
        <ele>664</ele>
        <time>2013-03-10T11:02:39Z</time>
      </trkpt>
      <trkpt lat="43.86016" lon="7.24414">
        <ele>664</ele>
        <time>2013-03-10T11:02:40Z</time>
      </trkpt>
      <trkpt lat="43.86018" lon="7.24413">
        <ele>665</ele>
        <time>2013-03-10T11:02:41Z</time>
      </trkpt>
      <trkpt lat="43.8602" lon="7.24412">
        <ele>665</ele>
        <time>2013-03-10T11:02:42Z</time>
      </trkpt>
      <trkpt lat="43.86029" lon="7.24402">
        <ele>665</ele>
        <time>2013-03-10T11:02:48Z</time>
      </trkpt>
      <trkpt lat="43.86032" lon="7.24399">
        <ele>665</ele>
        <time>2013-03-10T11:02:50Z</time>
      </trkpt>
      <trkpt lat="43.86034" lon="7.24398">
        <ele>666</ele>
        <time>2013-03-10T11:02:51Z</time>
      </trkpt>
      <trkpt lat="43.86036" lon="7.24397">
        <ele>666</ele>
        <time>2013-03-10T11:02:52Z</time>
      </trkpt>
      <trkpt lat="43.86037" lon="7.24395">
        <ele>666</ele>
        <time>2013-03-10T11:02:53Z</time>
      </trkpt>
      <trkpt lat="43.86039" lon="7.24394">
        <ele>667</ele>
        <time>2013-03-10T11:02:54Z</time>
      </trkpt>
      <trkpt lat="43.86041" lon="7.24393">
        <ele>667</ele>
        <time>2013-03-10T11:02:55Z</time>
      </trkpt>
      <trkpt lat="43.86052" lon="7.24384">
        <ele>667</ele>
        <time>2013-03-10T11:03:02Z</time>
      </trkpt>
      <trkpt lat="43.86057" lon="7.24381">
        <ele>668</ele>
        <time>2013-03-10T11:03:05Z</time>
      </trkpt>
      <trkpt lat="43.86058" lon="7.24379">
        <ele>668</ele>
        <time>2013-03-10T11:03:06Z</time>
      </trkpt>
      <trkpt lat="43.86059" lon="7.24378">
        <ele>669</ele>
        <time>2013-03-10T11:03:07Z</time>
      </trkpt>
      <trkpt lat="43.86061" lon="7.24376">
        <ele>669</ele>
        <time>2013-03-10T11:03:08Z</time>
      </trkpt>
      <trkpt lat="43.86067" lon="7.24367">
        <ele>669</ele>
        <time>2013-03-10T11:03:13Z</time>
      </trkpt>
      <trkpt lat="43.8607" lon="7.24363">
        <ele>669</ele>
        <time>2013-03-10T11:03:15Z</time>
      </trkpt>
      <trkpt lat="43.86071" lon="7.24362">
        <ele>670</ele>
        <time>2013-03-10T11:03:16Z</time>
      </trkpt>
      <trkpt lat="43.86073" lon="7.24361">
        <ele>670</ele>
        <time>2013-03-10T11:03:17Z</time>
      </trkpt>
      <trkpt lat="43.86074" lon="7.24359">
        <ele>671</ele>
        <time>2013-03-10T11:03:18Z</time>
      </trkpt>
      <trkpt lat="43.86076" lon="7.24358">
        <ele>671</ele>
        <time>2013-03-10T11:03:19Z</time>
      </trkpt>
      <trkpt lat="43.8608" lon="7.24356">
        <ele>671</ele>
        <time>2013-03-10T11:03:22Z</time>
      </trkpt>
      <trkpt lat="43.86085" lon="7.24355">
        <ele>671</ele>
        <time>2013-03-10T11:03:25Z</time>
      </trkpt>
      <trkpt lat="43.86092" lon="7.24351">
        <ele>672</ele>
        <time>2013-03-10T11:03:31Z</time>
      </trkpt>
      <trkpt lat="43.86093" lon="7.2435">
        <ele>672</ele>
        <time>2013-03-10T11:03:32Z</time>
      </trkpt>
      <trkpt lat="43.86095" lon="7.24349">
        <ele>672</ele>
        <time>2013-03-10T11:03:33Z</time>
      </trkpt>
      <trkpt lat="43.86097" lon="7.24349">
        <ele>673</ele>
        <time>2013-03-10T11:03:34Z</time>
      </trkpt>
      <trkpt lat="43.86099" lon="7.24348">
        <ele>673</ele>
        <time>2013-03-10T11:03:35Z</time>
      </trkpt>
      <trkpt lat="43.86102" lon="7.24346">
        <ele>673</ele>
        <time>2013-03-10T11:03:37Z</time>
      </trkpt>
      <trkpt lat="43.86106" lon="7.24344">
        <ele>674</ele>
        <time>2013-03-10T11:03:40Z</time>
      </trkpt>
      <trkpt lat="43.86108" lon="7.24343">
        <ele>674</ele>
        <time>2013-03-10T11:03:41Z</time>
      </trkpt>
      <trkpt lat="43.8611" lon="7.24343">
        <ele>675</ele>
        <time>2013-03-10T11:03:42Z</time>
      </trkpt>
      <trkpt lat="43.86112" lon="7.24342">
        <ele>675</ele>
        <time>2013-03-10T11:03:43Z</time>
      </trkpt>
      <trkpt lat="43.86113" lon="7.24341">
        <ele>676</ele>
        <time>2013-03-10T11:03:44Z</time>
      </trkpt>
      <trkpt lat="43.86123" lon="7.24339">
        <ele>676</ele>
        <time>2013-03-10T11:03:50Z</time>
      </trkpt>
      <trkpt lat="43.86125" lon="7.24339">
        <ele>676</ele>
        <time>2013-03-10T11:03:51Z</time>
      </trkpt>
      <trkpt lat="43.86126" lon="7.24338">
        <ele>677</ele>
        <time>2013-03-10T11:03:52Z</time>
      </trkpt>
      <trkpt lat="43.86127" lon="7.24338">
        <ele>677</ele>
        <time>2013-03-10T11:03:53Z</time>
      </trkpt>
      <trkpt lat="43.86127" lon="7.24338">
        <ele>678</ele>
        <time>2013-03-10T11:03:54Z</time>
      </trkpt>
      <trkpt lat="43.86128" lon="7.24338">
        <ele>678</ele>
        <time>2013-03-10T11:03:55Z</time>
      </trkpt>
      <trkpt lat="43.86129" lon="7.24339">
        <ele>678</ele>
        <time>2013-03-10T11:03:58Z</time>
      </trkpt>
      <trkpt lat="43.86132" lon="7.24337">
        <ele>678</ele>
        <time>2013-03-10T11:10:34Z</time>
      </trkpt>
      <trkpt lat="43.86133" lon="7.24337">
        <ele>678</ele>
        <time>2013-03-10T11:10:35Z</time>
      </trkpt>
      <trkpt lat="43.86144" lon="7.24337">
        <ele>678</ele>
        <time>2013-03-10T11:10:41Z</time>
      </trkpt>
      <trkpt lat="43.86148" lon="7.24336">
        <ele>678</ele>
        <time>2013-03-10T11:10:44Z</time>
      </trkpt>
      <trkpt lat="43.86149" lon="7.24335">
        <ele>678</ele>
        <time>2013-03-10T11:10:45Z</time>
      </trkpt>
      <trkpt lat="43.86151" lon="7.24335">
        <ele>679</ele>
        <time>2013-03-10T11:10:46Z</time>
      </trkpt>
      <trkpt lat="43.86152" lon="7.24334">
        <ele>679</ele>
        <time>2013-03-10T11:10:47Z</time>
      </trkpt>
      <trkpt lat="43.86153" lon="7.24333">
        <ele>680</ele>
        <time>2013-03-10T11:10:48Z</time>
      </trkpt>
      <trkpt lat="43.86155" lon="7.24333">
        <ele>680</ele>
        <time>2013-03-10T11:10:49Z</time>
      </trkpt>
      <trkpt lat="43.86158" lon="7.24332">
        <ele>680</ele>
        <time>2013-03-10T11:10:52Z</time>
      </trkpt>
      <trkpt lat="43.86165" lon="7.24322">
        <ele>680</ele>
        <time>2013-03-10T11:11:00Z</time>
      </trkpt>
      <trkpt lat="43.86168" lon="7.24318">
        <ele>680</ele>
        <time>2013-03-10T11:11:03Z</time>
      </trkpt>
      <trkpt lat="43.86169" lon="7.24317">
        <ele>681</ele>
        <time>2013-03-10T11:11:04Z</time>
      </trkpt>
      <trkpt lat="43.8617" lon="7.24315">
        <ele>681</ele>
        <time>2013-03-10T11:11:05Z</time>
      </trkpt>
      <trkpt lat="43.86171" lon="7.24313">
        <ele>681</ele>
        <time>2013-03-10T11:11:06Z</time>
      </trkpt>
      <trkpt lat="43.86172" lon="7.24312">
        <ele>682</ele>
        <time>2013-03-10T11:11:07Z</time>
      </trkpt>
      <trkpt lat="43.86174" lon="7.24308">
        <ele>682</ele>
        <time>2013-03-10T11:11:09Z</time>
      </trkpt>
      <trkpt lat="43.86177" lon="7.24298">
        <ele>682</ele>
        <time>2013-03-10T11:11:14Z</time>
      </trkpt>
      <trkpt lat="43.86177" lon="7.24296">
        <ele>682</ele>
        <time>2013-03-10T11:11:15Z</time>
      </trkpt>
      <trkpt lat="43.86176" lon="7.24288">
        <ele>683</ele>
        <time>2013-03-10T11:11:18Z</time>
      </trkpt>
      <trkpt lat="43.86176" lon="7.24286">
        <ele>683</ele>
        <time>2013-03-10T11:11:19Z</time>
      </trkpt>
      <trkpt lat="43.86175" lon="7.24284">
        <ele>683</ele>
        <time>2013-03-10T11:11:20Z</time>
      </trkpt>
      <trkpt lat="43.86174" lon="7.24282">
        <ele>684</ele>
        <time>2013-03-10T11:11:21Z</time>
      </trkpt>
      <trkpt lat="43.86173" lon="7.24275">
        <ele>684</ele>
        <time>2013-03-10T11:11:25Z</time>
      </trkpt>
      <trkpt lat="43.86173" lon="7.24267">
        <ele>684</ele>
        <time>2013-03-10T11:11:28Z</time>
      </trkpt>
      <trkpt lat="43.86174" lon="7.24259">
        <ele>684</ele>
        <time>2013-03-10T11:11:31Z</time>
      </trkpt>
      <trkpt lat="43.86175" lon="7.24257">
        <ele>685</ele>
        <time>2013-03-10T11:11:32Z</time>
      </trkpt>
      <trkpt lat="43.86175" lon="7.24255">
        <ele>685</ele>
        <time>2013-03-10T11:11:33Z</time>
      </trkpt>
      <trkpt lat="43.86176" lon="7.24253">
        <ele>686</ele>
        <time>2013-03-10T11:11:34Z</time>
      </trkpt>
      <trkpt lat="43.86177" lon="7.2425">
        <ele>686</ele>
        <time>2013-03-10T11:11:35Z</time>
      </trkpt>
      <trkpt lat="43.86178" lon="7.24248">
        <ele>686</ele>
        <time>2013-03-10T11:11:36Z</time>
      </trkpt>
      <trkpt lat="43.86184" lon="7.2423">
        <ele>686</ele>
        <time>2013-03-10T11:11:43Z</time>
      </trkpt>
      <trkpt lat="43.86185" lon="7.24228">
        <ele>686</ele>
        <time>2013-03-10T11:11:44Z</time>
      </trkpt>
      <trkpt lat="43.86186" lon="7.24225">
        <ele>687</ele>
        <time>2013-03-10T11:11:45Z</time>
      </trkpt>
      <trkpt lat="43.86187" lon="7.24224">
        <ele>687</ele>
        <time>2013-03-10T11:11:46Z</time>
      </trkpt>
      <trkpt lat="43.86189" lon="7.24222">
        <ele>688</ele>
        <time>2013-03-10T11:11:47Z</time>
      </trkpt>
      <trkpt lat="43.8619" lon="7.24219">
        <ele>688</ele>
        <time>2013-03-10T11:11:48Z</time>
      </trkpt>
      <trkpt lat="43.86192" lon="7.24215">
        <ele>688</ele>
        <time>2013-03-10T11:11:50Z</time>
      </trkpt>
      <trkpt lat="43.86196" lon="7.24202">
        <ele>688</ele>
        <time>2013-03-10T11:11:56Z</time>
      </trkpt>
      <trkpt lat="43.86196" lon="7.24199">
        <ele>689</ele>
        <time>2013-03-10T11:11:57Z</time>
      </trkpt>
      <trkpt lat="43.86197" lon="7.24196">
        <ele>689</ele>
        <time>2013-03-10T11:11:58Z</time>
      </trkpt>
      <trkpt lat="43.86197" lon="7.24194">
        <ele>690</ele>
        <time>2013-03-10T11:11:59Z</time>
      </trkpt>
      <trkpt lat="43.86198" lon="7.24191">
        <ele>690</ele>
        <time>2013-03-10T11:12:00Z</time>
      </trkpt>
      <trkpt lat="43.86199" lon="7.24172">
        <ele>690</ele>
        <time>2013-03-10T11:12:07Z</time>
      </trkpt>
      <trkpt lat="43.86198" lon="7.24167">
        <ele>690</ele>
        <time>2013-03-10T11:12:09Z</time>
      </trkpt>
      <trkpt lat="43.86197" lon="7.24164">
        <ele>691</ele>
        <time>2013-03-10T11:12:10Z</time>
      </trkpt>
      <trkpt lat="43.86197" lon="7.24162">
        <ele>691</ele>
        <time>2013-03-10T11:12:11Z</time>
      </trkpt>
      <trkpt lat="43.86196" lon="7.2416">
        <ele>692</ele>
        <time>2013-03-10T11:12:12Z</time>
      </trkpt>
      <trkpt lat="43.86195" lon="7.24157">
        <ele>692</ele>
        <time>2013-03-10T11:12:13Z</time>
      </trkpt>
      <trkpt lat="43.86193" lon="7.24155">
        <ele>692</ele>
        <time>2013-03-10T11:12:14Z</time>
      </trkpt>
      <trkpt lat="43.86178" lon="7.2414">
        <ele>692</ele>
        <time>2013-03-10T11:12:22Z</time>
      </trkpt>
      <trkpt lat="43.8616" lon="7.24125">
        <ele>692</ele>
        <time>2013-03-10T11:12:31Z</time>
      </trkpt>
      <trkpt lat="43.86151" lon="7.24109">
        <ele>692</ele>
        <time>2013-03-10T11:12:38Z</time>
      </trkpt>
      <trkpt lat="43.8615" lon="7.24102">
        <ele>692</ele>
        <time>2013-03-10T11:12:41Z</time>
      </trkpt>
      <trkpt lat="43.8615" lon="7.24099">
        <ele>693</ele>
        <time>2013-03-10T11:12:42Z</time>
      </trkpt>
      <trkpt lat="43.8615" lon="7.24096">
        <ele>693</ele>
        <time>2013-03-10T11:12:43Z</time>
      </trkpt>
      <trkpt lat="43.8615" lon="7.24094">
        <ele>694</ele>
        <time>2013-03-10T11:12:44Z</time>
      </trkpt>
      <trkpt lat="43.86151" lon="7.24091">
        <ele>694</ele>
        <time>2013-03-10T11:12:45Z</time>
      </trkpt>
      <trkpt lat="43.86156" lon="7.24073">
        <ele>694</ele>
        <time>2013-03-10T11:12:52Z</time>
      </trkpt>
      <trkpt lat="43.86157" lon="7.2407">
        <ele>695</ele>
        <time>2013-03-10T11:12:53Z</time>
      </trkpt>
      <trkpt lat="43.86158" lon="7.24068">
        <ele>695</ele>
        <time>2013-03-10T11:12:54Z</time>
      </trkpt>
      <trkpt lat="43.86159" lon="7.24065">
        <ele>695</ele>
        <time>2013-03-10T11:12:55Z</time>
      </trkpt>
      <trkpt lat="43.86161" lon="7.24062">
        <ele>696</ele>
        <time>2013-03-10T11:12:56Z</time>
      </trkpt>
      <trkpt lat="43.86162" lon="7.2406">
        <ele>696</ele>
        <time>2013-03-10T11:12:57Z</time>
      </trkpt>
      <trkpt lat="43.86168" lon="7.2405">
        <ele>696</ele>
        <time>2013-03-10T11:13:01Z</time>
      </trkpt>
      <trkpt lat="43.8618" lon="7.24031">
        <ele>696</ele>
        <time>2013-03-10T11:13:08Z</time>
      </trkpt>
      <trkpt lat="43.86195" lon="7.24006">
        <ele>696</ele>
        <time>2013-03-10T11:13:17Z</time>
      </trkpt>
      <trkpt lat="43.86196" lon="7.23988">
        <ele>696</ele>
        <time>2013-03-10T11:13:22Z</time>
      </trkpt>
      <trkpt lat="43.86193" lon="7.23969">
        <ele>696</ele>
        <time>2013-03-10T11:13:28Z</time>
      </trkpt>
      <trkpt lat="43.86199" lon="7.23955">
        <ele>696</ele>
        <time>2013-03-10T11:13:32Z</time>
      </trkpt>
      <trkpt lat="43.86211" lon="7.23943">
        <ele>696</ele>
        <time>2013-03-10T11:13:38Z</time>
      </trkpt>
      <trkpt lat="43.86216" lon="7.23927">
        <ele>697</ele>
        <time>2013-03-10T11:13:43Z</time>
      </trkpt>
      <trkpt lat="43.86216" lon="7.23924">
        <ele>697</ele>
        <time>2013-03-10T11:13:44Z</time>
      </trkpt>
      <trkpt lat="43.86216" lon="7.2392">
        <ele>697</ele>
        <time>2013-03-10T11:13:45Z</time>
      </trkpt>
      <trkpt lat="43.86216" lon="7.23917">
        <ele>698</ele>
        <time>2013-03-10T11:13:46Z</time>
      </trkpt>
      <trkpt lat="43.86217" lon="7.23913">
        <ele>698</ele>
        <time>2013-03-10T11:13:47Z</time>
      </trkpt>
      <trkpt lat="43.8622" lon="7.23907">
        <ele>698</ele>
        <time>2013-03-10T11:13:49Z</time>
      </trkpt>
      <trkpt lat="43.86225" lon="7.23902">
        <ele>698</ele>
        <time>2013-03-10T11:13:51Z</time>
      </trkpt>
      <trkpt lat="43.86235" lon="7.23889">
        <ele>698</ele>
        <time>2013-03-10T11:13:56Z</time>
      </trkpt>
      <trkpt lat="43.86251" lon="7.23872">
        <ele>699</ele>
        <time>2013-03-10T11:14:04Z</time>
      </trkpt>
      <trkpt lat="43.86252" lon="7.2387">
        <ele>699</ele>
        <time>2013-03-10T11:14:05Z</time>
      </trkpt>
      <trkpt lat="43.86254" lon="7.23868">
        <ele>700</ele>
        <time>2013-03-10T11:14:06Z</time>
      </trkpt>
      <trkpt lat="43.86256" lon="7.23867">
        <ele>700</ele>
        <time>2013-03-10T11:14:07Z</time>
      </trkpt>
      <trkpt lat="43.86259" lon="7.23865">
        <ele>700</ele>
        <time>2013-03-10T11:14:08Z</time>
      </trkpt>
      <trkpt lat="43.86268" lon="7.2386">
        <ele>700</ele>
        <time>2013-03-10T11:14:12Z</time>
      </trkpt>
      <trkpt lat="43.8628" lon="7.23852">
        <ele>701</ele>
        <time>2013-03-10T11:14:18Z</time>
      </trkpt>
      <trkpt lat="43.86282" lon="7.2385">
        <ele>701</ele>
        <time>2013-03-10T11:14:19Z</time>
      </trkpt>
      <trkpt lat="43.86284" lon="7.23848">
        <ele>702</ele>
        <time>2013-03-10T11:14:20Z</time>
      </trkpt>
      <trkpt lat="43.86286" lon="7.23846">
        <ele>702</ele>
        <time>2013-03-10T11:14:21Z</time>
      </trkpt>
      <trkpt lat="43.86288" lon="7.23844">
        <ele>702</ele>
        <time>2013-03-10T11:14:22Z</time>
      </trkpt>
      <trkpt lat="43.863" lon="7.23834">
        <ele>702</ele>
        <time>2013-03-10T11:14:27Z</time>
      </trkpt>
      <trkpt lat="43.86314" lon="7.23833">
        <ele>702</ele>
        <time>2013-03-10T11:14:32Z</time>
      </trkpt>
      <trkpt lat="43.86324" lon="7.23845">
        <ele>702</ele>
        <time>2013-03-10T11:14:37Z</time>
      </trkpt>
      <trkpt lat="43.86328" lon="7.23858">
        <ele>702</ele>
        <time>2013-03-10T11:14:41Z</time>
      </trkpt>
      <trkpt lat="43.86329" lon="7.23864">
        <ele>702</ele>
        <time>2013-03-10T11:14:43Z</time>
      </trkpt>
      <trkpt lat="43.86335" lon="7.23884">
        <ele>702</ele>
        <time>2013-03-10T11:14:49Z</time>
      </trkpt>
      <trkpt lat="43.86343" lon="7.23897">
        <ele>703</ele>
        <time>2013-03-10T11:14:54Z</time>
      </trkpt>
      <trkpt lat="43.86345" lon="7.239">
        <ele>703</ele>
        <time>2013-03-10T11:14:55Z</time>
      </trkpt>
      <trkpt lat="43.86347" lon="7.23902">
        <ele>704</ele>
        <time>2013-03-10T11:14:56Z</time>
      </trkpt>
      <trkpt lat="43.86349" lon="7.23904">
        <ele>704</ele>
        <time>2013-03-10T11:14:57Z</time>
      </trkpt>
      <trkpt lat="43.86351" lon="7.23905">
        <ele>705</ele>
        <time>2013-03-10T11:14:58Z</time>
      </trkpt>
      <trkpt lat="43.8636" lon="7.23908">
        <ele>705</ele>
        <time>2013-03-10T11:15:02Z</time>
      </trkpt>
      <trkpt lat="43.86365" lon="7.23908">
        <ele>705</ele>
        <time>2013-03-10T11:15:04Z</time>
      </trkpt>
      <trkpt lat="43.86367" lon="7.23909">
        <ele>705</ele>
        <time>2013-03-10T11:15:05Z</time>
      </trkpt>
      <trkpt lat="43.8637" lon="7.23909">
        <ele>706</ele>
        <time>2013-03-10T11:15:06Z</time>
      </trkpt>
      <trkpt lat="43.86372" lon="7.23909">
        <ele>706</ele>
        <time>2013-03-10T11:15:07Z</time>
      </trkpt>
      <trkpt lat="43.86375" lon="7.23909">
        <ele>707</ele>
        <time>2013-03-10T11:15:08Z</time>
      </trkpt>
      <trkpt lat="43.8638" lon="7.23909">
        <ele>707</ele>
        <time>2013-03-10T11:15:10Z</time>
      </trkpt>
      <trkpt lat="43.86398" lon="7.23914">
        <ele>707</ele>
        <time>2013-03-10T11:15:18Z</time>
      </trkpt>
      <trkpt lat="43.864" lon="7.23916">
        <ele>707</ele>
        <time>2013-03-10T11:15:19Z</time>
      </trkpt>
      <trkpt lat="43.86402" lon="7.23917">
        <ele>707</ele>
        <time>2013-03-10T11:15:20Z</time>
      </trkpt>
      <trkpt lat="43.86404" lon="7.23919">
        <ele>708</ele>
        <time>2013-03-10T11:15:21Z</time>
      </trkpt>
      <trkpt lat="43.86406" lon="7.23921">
        <ele>708</ele>
        <time>2013-03-10T11:15:22Z</time>
      </trkpt>
      <trkpt lat="43.86407" lon="7.23922">
        <ele>709</ele>
        <time>2013-03-10T11:15:23Z</time>
      </trkpt>
      <trkpt lat="43.86412" lon="7.23924">
        <ele>709</ele>
        <time>2013-03-10T11:15:25Z</time>
      </trkpt>
      <trkpt lat="43.86427" lon="7.23926">
        <ele>709</ele>
        <time>2013-03-10T11:15:32Z</time>
      </trkpt>
      <trkpt lat="43.86432" lon="7.23926">
        <ele>709</ele>
        <time>2013-03-10T11:15:34Z</time>
      </trkpt>
      <trkpt lat="43.86434" lon="7.23926">
        <ele>710</ele>
        <time>2013-03-10T11:15:35Z</time>
      </trkpt>
      <trkpt lat="43.86436" lon="7.23925">
        <ele>710</ele>
        <time>2013-03-10T11:15:36Z</time>
      </trkpt>
      <trkpt lat="43.86438" lon="7.23925">
        <ele>711</ele>
        <time>2013-03-10T11:15:37Z</time>
      </trkpt>
      <trkpt lat="43.8644" lon="7.23924">
        <ele>711</ele>
        <time>2013-03-10T11:15:38Z</time>
      </trkpt>
      <trkpt lat="43.86451" lon="7.23923">
        <ele>711</ele>
        <time>2013-03-10T11:15:44Z</time>
      </trkpt>
      <trkpt lat="43.86453" lon="7.23923">
        <ele>712</ele>
        <time>2013-03-10T11:15:45Z</time>
      </trkpt>
      <trkpt lat="43.86455" lon="7.23923">
        <ele>712</ele>
        <time>2013-03-10T11:15:46Z</time>
      </trkpt>
      <trkpt lat="43.86457" lon="7.23923">
        <ele>713</ele>
        <time>2013-03-10T11:15:47Z</time>
      </trkpt>
      <trkpt lat="43.86458" lon="7.23923">
        <ele>713</ele>
        <time>2013-03-10T11:15:48Z</time>
      </trkpt>
      <trkpt lat="43.8646" lon="7.23922">
        <ele>713</ele>
        <time>2013-03-10T11:15:49Z</time>
      </trkpt>
      <trkpt lat="43.86467" lon="7.23921">
        <ele>714</ele>
        <time>2013-03-10T11:15:53Z</time>
      </trkpt>
      <trkpt lat="43.86469" lon="7.2392">
        <ele>714</ele>
        <time>2013-03-10T11:15:54Z</time>
      </trkpt>
      <trkpt lat="43.8647" lon="7.2392">
        <ele>714</ele>
        <time>2013-03-10T11:15:55Z</time>
      </trkpt>
      <trkpt lat="43.86472" lon="7.2392">
        <ele>715</ele>
        <time>2013-03-10T11:15:56Z</time>
      </trkpt>
      <trkpt lat="43.86473" lon="7.2392">
        <ele>715</ele>
        <time>2013-03-10T11:15:57Z</time>
      </trkpt>
      <trkpt lat="43.86475" lon="7.23919">
        <ele>715</ele>
        <time>2013-03-10T11:15:58Z</time>
      </trkpt>
      <trkpt lat="43.86486" lon="7.23919">
        <ele>715</ele>
        <time>2013-03-10T11:16:04Z</time>
      </trkpt>
      <trkpt lat="43.86501" lon="7.23911">
        <ele>716</ele>
        <time>2013-03-10T11:16:12Z</time>
      </trkpt>
      <trkpt lat="43.86502" lon="7.23909">
        <ele>716</ele>
        <time>2013-03-10T11:16:13Z</time>
      </trkpt>
      <trkpt lat="43.86503" lon="7.23907">
        <ele>717</ele>
        <time>2013-03-10T11:16:14Z</time>
      </trkpt>
      <trkpt lat="43.86504" lon="7.23905">
        <ele>717</ele>
        <time>2013-03-10T11:16:15Z</time>
      </trkpt>
      <trkpt lat="43.86505" lon="7.23903">
        <ele>717</ele>
        <time>2013-03-10T11:16:16Z</time>
      </trkpt>
      <trkpt lat="43.86508" lon="7.23896">
        <ele>717</ele>
        <time>2013-03-10T11:16:19Z</time>
      </trkpt>
      <trkpt lat="43.8651" lon="7.23889">
        <ele>718</ele>
        <time>2013-03-10T11:16:22Z</time>
      </trkpt>
      <trkpt lat="43.86512" lon="7.23887">
        <ele>718</ele>
        <time>2013-03-10T11:16:23Z</time>
      </trkpt>
      <trkpt lat="43.86513" lon="7.23885">
        <ele>719</ele>
        <time>2013-03-10T11:16:24Z</time>
      </trkpt>
      <trkpt lat="43.86514" lon="7.23882">
        <ele>719</ele>
        <time>2013-03-10T11:16:25Z</time>
      </trkpt>
      <trkpt lat="43.86515" lon="7.2388">
        <ele>719</ele>
        <time>2013-03-10T11:16:26Z</time>
      </trkpt>
      <trkpt lat="43.86516" lon="7.23878">
        <ele>719</ele>
        <time>2013-03-10T11:16:27Z</time>
      </trkpt>
      <trkpt lat="43.86527" lon="7.23862">
        <ele>719</ele>
        <time>2013-03-10T11:16:35Z</time>
      </trkpt>
      <trkpt lat="43.8653" lon="7.23859">
        <ele>720</ele>
        <time>2013-03-10T11:16:37Z</time>
      </trkpt>
      <trkpt lat="43.86531" lon="7.23857">
        <ele>720</ele>
        <time>2013-03-10T11:16:38Z</time>
      </trkpt>
      <trkpt lat="43.86532" lon="7.23855">
        <ele>721</ele>
        <time>2013-03-10T11:16:39Z</time>
      </trkpt>
      <trkpt lat="43.86534" lon="7.23854">
        <ele>722</ele>
        <time>2013-03-10T11:16:40Z</time>
      </trkpt>
      <trkpt lat="43.8654" lon="7.23849">
        <ele>722</ele>
        <time>2013-03-10T11:16:44Z</time>
      </trkpt>
      <trkpt lat="43.86543" lon="7.23848">
        <ele>722</ele>
        <time>2013-03-10T11:16:46Z</time>
      </trkpt>
      <trkpt lat="43.86545" lon="7.23848">
        <ele>722</ele>
        <time>2013-03-10T11:16:47Z</time>
      </trkpt>
      <trkpt lat="43.86547" lon="7.23848">
        <ele>723</ele>
        <time>2013-03-10T11:16:48Z</time>
      </trkpt>
      <trkpt lat="43.86549" lon="7.23849">
        <ele>723</ele>
        <time>2013-03-10T11:16:49Z</time>
      </trkpt>
      <trkpt lat="43.8655" lon="7.2385">
        <ele>724</ele>
        <time>2013-03-10T11:16:50Z</time>
      </trkpt>
      <trkpt lat="43.86562" lon="7.23856">
        <ele>724</ele>
        <time>2013-03-10T11:16:57Z</time>
      </trkpt>
      <trkpt lat="43.86566" lon="7.23858">
        <ele>724</ele>
        <time>2013-03-10T11:16:59Z</time>
      </trkpt>
      <trkpt lat="43.86567" lon="7.23859">
        <ele>725</ele>
        <time>2013-03-10T11:17:00Z</time>
      </trkpt>
      <trkpt lat="43.86569" lon="7.2386">
        <ele>725</ele>
        <time>2013-03-10T11:17:01Z</time>
      </trkpt>
      <trkpt lat="43.86571" lon="7.23861">
        <ele>725</ele>
        <time>2013-03-10T11:17:02Z</time>
      </trkpt>
      <trkpt lat="43.86573" lon="7.23861">
        <ele>726</ele>
        <time>2013-03-10T11:17:03Z</time>
      </trkpt>
      <trkpt lat="43.86575" lon="7.23862">
        <ele>726</ele>
        <time>2013-03-10T11:17:04Z</time>
      </trkpt>
      <trkpt lat="43.86587" lon="7.23868">
        <ele>726</ele>
        <time>2013-03-10T11:17:11Z</time>
      </trkpt>
      <trkpt lat="43.86589" lon="7.23869">
        <ele>726</ele>
        <time>2013-03-10T11:17:12Z</time>
      </trkpt>
      <trkpt lat="43.8659" lon="7.2387">
        <ele>727</ele>
        <time>2013-03-10T11:17:13Z</time>
      </trkpt>
      <trkpt lat="43.86592" lon="7.23871">
        <ele>727</ele>
        <time>2013-03-10T11:17:14Z</time>
      </trkpt>
      <trkpt lat="43.86593" lon="7.23872">
        <ele>727</ele>
        <time>2013-03-10T11:17:15Z</time>
      </trkpt>
      <trkpt lat="43.86595" lon="7.23873">
        <ele>728</ele>
        <time>2013-03-10T11:17:16Z</time>
      </trkpt>
      <trkpt lat="43.86603" lon="7.2388">
        <ele>728</ele>
        <time>2013-03-10T11:17:21Z</time>
      </trkpt>
      <trkpt lat="43.86606" lon="7.23883">
        <ele>728</ele>
        <time>2013-03-10T11:17:23Z</time>
      </trkpt>
      <trkpt lat="43.86607" lon="7.23885">
        <ele>729</ele>
        <time>2013-03-10T11:17:24Z</time>
      </trkpt>
      <trkpt lat="43.86609" lon="7.23887">
        <ele>729</ele>
        <time>2013-03-10T11:17:25Z</time>
      </trkpt>
      <trkpt lat="43.8661" lon="7.23889">
        <ele>729</ele>
        <time>2013-03-10T11:17:26Z</time>
      </trkpt>
      <trkpt lat="43.86611" lon="7.23891">
        <ele>730</ele>
        <time>2013-03-10T11:17:27Z</time>
      </trkpt>
      <trkpt lat="43.86614" lon="7.23895">
        <ele>730</ele>
        <time>2013-03-10T11:17:29Z</time>
      </trkpt>
      <trkpt lat="43.86622" lon="7.2391">
        <ele>730</ele>
        <time>2013-03-10T11:17:36Z</time>
      </trkpt>
      <trkpt lat="43.86623" lon="7.23913">
        <ele>731</ele>
        <time>2013-03-10T11:17:37Z</time>
      </trkpt>
      <trkpt lat="43.86623" lon="7.23915">
        <ele>731</ele>
        <time>2013-03-10T11:17:38Z</time>
      </trkpt>
      <trkpt lat="43.86624" lon="7.23918">
        <ele>732</ele>
        <time>2013-03-10T11:17:39Z</time>
      </trkpt>
      <trkpt lat="43.86625" lon="7.2392">
        <ele>732</ele>
        <time>2013-03-10T11:17:40Z</time>
      </trkpt>
      <trkpt lat="43.86625" lon="7.23925">
        <ele>732</ele>
        <time>2013-03-10T11:17:42Z</time>
      </trkpt>
      <trkpt lat="43.86628" lon="7.23935">
        <ele>732</ele>
        <time>2013-03-10T11:17:46Z</time>
      </trkpt>
      <trkpt lat="43.86629" lon="7.23937">
        <ele>733</ele>
        <time>2013-03-10T11:17:47Z</time>
      </trkpt>
      <trkpt lat="43.86629" lon="7.2394">
        <ele>733</ele>
        <time>2013-03-10T11:17:48Z</time>
      </trkpt>
      <trkpt lat="43.8663" lon="7.23942">
        <ele>734</ele>
        <time>2013-03-10T11:17:49Z</time>
      </trkpt>
      <trkpt lat="43.86631" lon="7.23944">
        <ele>734</ele>
        <time>2013-03-10T11:17:50Z</time>
      </trkpt>
      <trkpt lat="43.86636" lon="7.23962">
        <ele>734</ele>
        <time>2013-03-10T11:17:57Z</time>
      </trkpt>
      <trkpt lat="43.8664" lon="7.2397">
        <ele>735</ele>
        <time>2013-03-10T11:18:00Z</time>
      </trkpt>
      <trkpt lat="43.86641" lon="7.23973">
        <ele>735</ele>
        <time>2013-03-10T11:18:01Z</time>
      </trkpt>
      <trkpt lat="43.86642" lon="7.23976">
        <ele>735</ele>
        <time>2013-03-10T11:18:02Z</time>
      </trkpt>
      <trkpt lat="43.86643" lon="7.23978">
        <ele>736</ele>
        <time>2013-03-10T11:18:03Z</time>
      </trkpt>
      <trkpt lat="43.86644" lon="7.2398">
        <ele>736</ele>
        <time>2013-03-10T11:18:04Z</time>
      </trkpt>
      <trkpt lat="43.86646" lon="7.23982">
        <ele>736</ele>
        <time>2013-03-10T11:18:05Z</time>
      </trkpt>
      <trkpt lat="43.86651" lon="7.23988">
        <ele>737</ele>
        <time>2013-03-10T11:18:08Z</time>
      </trkpt>
      <trkpt lat="43.86653" lon="7.23989">
        <ele>737</ele>
        <time>2013-03-10T11:18:09Z</time>
      </trkpt>
      <trkpt lat="43.86655" lon="7.23991">
        <ele>737</ele>
        <time>2013-03-10T11:18:10Z</time>
      </trkpt>
      <trkpt lat="43.86657" lon="7.23993">
        <ele>738</ele>
        <time>2013-03-10T11:18:11Z</time>
      </trkpt>
      <trkpt lat="43.86659" lon="7.23994">
        <ele>738</ele>
        <time>2013-03-10T11:18:12Z</time>
      </trkpt>
      <trkpt lat="43.86668" lon="7.24001">
        <ele>739</ele>
        <time>2013-03-10T11:18:17Z</time>
      </trkpt>
      <trkpt lat="43.8667" lon="7.24002">
        <ele>739</ele>
        <time>2013-03-10T11:18:18Z</time>
      </trkpt>
      <trkpt lat="43.86671" lon="7.24004">
        <ele>740</ele>
        <time>2013-03-10T11:18:19Z</time>
      </trkpt>
      <trkpt lat="43.86673" lon="7.24005">
        <ele>740</ele>
        <time>2013-03-10T11:18:20Z</time>
      </trkpt>
      <trkpt lat="43.86681" lon="7.24013">
        <ele>741</ele>
        <time>2013-03-10T11:18:25Z</time>
      </trkpt>
      <trkpt lat="43.86682" lon="7.24015">
        <ele>741</ele>
        <time>2013-03-10T11:18:26Z</time>
      </trkpt>
      <trkpt lat="43.86683" lon="7.24017">
        <ele>742</ele>
        <time>2013-03-10T11:18:27Z</time>
      </trkpt>
      <trkpt lat="43.86684" lon="7.2402">
        <ele>742</ele>
        <time>2013-03-10T11:18:28Z</time>
      </trkpt>
      <trkpt lat="43.86686" lon="7.24023">
        <ele>743</ele>
        <time>2013-03-10T11:18:29Z</time>
      </trkpt>
      <trkpt lat="43.86687" lon="7.24034">
        <ele>743</ele>
        <time>2013-03-10T11:18:33Z</time>
      </trkpt>
      <trkpt lat="43.86689" lon="7.24048">
        <ele>743</ele>
        <time>2013-03-10T11:18:38Z</time>
      </trkpt>
      <trkpt lat="43.86689" lon="7.24051">
        <ele>743</ele>
        <time>2013-03-10T11:18:39Z</time>
      </trkpt>
      <trkpt lat="43.86688" lon="7.24054">
        <ele>744</ele>
        <time>2013-03-10T11:18:40Z</time>
      </trkpt>
      <trkpt lat="43.86688" lon="7.24056">
        <ele>744</ele>
        <time>2013-03-10T11:18:41Z</time>
      </trkpt>
      <trkpt lat="43.86687" lon="7.24059">
        <ele>745</ele>
        <time>2013-03-10T11:18:42Z</time>
      </trkpt>
      <trkpt lat="43.86683" lon="7.24068">
        <ele>745</ele>
        <time>2013-03-10T11:18:46Z</time>
      </trkpt>
      <trkpt lat="43.86679" lon="7.24076">
        <ele>745</ele>
        <time>2013-03-10T11:18:50Z</time>
      </trkpt>
      <trkpt lat="43.86678" lon="7.24079">
        <ele>745</ele>
        <time>2013-03-10T11:18:51Z</time>
      </trkpt>
      <trkpt lat="43.86674" lon="7.24084">
        <ele>745</ele>
        <time>2013-03-10T11:18:54Z</time>
      </trkpt>
      <trkpt lat="43.86673" lon="7.24086">
        <ele>746</ele>
        <time>2013-03-10T11:18:55Z</time>
      </trkpt>
      <trkpt lat="43.86672" lon="7.24088">
        <ele>746</ele>
        <time>2013-03-10T11:18:56Z</time>
      </trkpt>
      <trkpt lat="43.86671" lon="7.2409">
        <ele>746</ele>
        <time>2013-03-10T11:18:57Z</time>
      </trkpt>
      <trkpt lat="43.8667" lon="7.24092">
        <ele>747</ele>
        <time>2013-03-10T11:18:58Z</time>
      </trkpt>
      <trkpt lat="43.86667" lon="7.24097">
        <ele>747</ele>
        <time>2013-03-10T11:19:02Z</time>
      </trkpt>
      <trkpt lat="43.86663" lon="7.24106">
        <ele>747</ele>
        <time>2013-03-10T11:19:06Z</time>
      </trkpt>
      <trkpt lat="43.86662" lon="7.24107">
        <ele>748</ele>
        <time>2013-03-10T11:19:07Z</time>
      </trkpt>
      <trkpt lat="43.86661" lon="7.24109">
        <ele>748</ele>
        <time>2013-03-10T11:19:08Z</time>
      </trkpt>
      <trkpt lat="43.8666" lon="7.2411">
        <ele>749</ele>
        <time>2013-03-10T11:19:09Z</time>
      </trkpt>
      <trkpt lat="43.86651" lon="7.24118">
        <ele>749</ele>
        <time>2013-03-10T11:19:16Z</time>
      </trkpt>
      <trkpt lat="43.86641" lon="7.24126">
        <ele>749</ele>
        <time>2013-03-10T11:19:25Z</time>
      </trkpt>
      <trkpt lat="43.86633" lon="7.24134">
        <ele>749</ele>
        <time>2013-03-10T11:19:33Z</time>
      </trkpt>
      <trkpt lat="43.86626" lon="7.24143">
        <ele>749</ele>
        <time>2013-03-10T11:19:38Z</time>
      </trkpt>
      <trkpt lat="43.86615" lon="7.24151">
        <ele>749</ele>
        <time>2013-03-10T11:19:44Z</time>
      </trkpt>
      <trkpt lat="43.86599" lon="7.2416">
        <ele>749</ele>
        <time>2013-03-10T11:19:52Z</time>
      </trkpt>
      <trkpt lat="43.86597" lon="7.24161">
        <ele>750</ele>
        <time>2013-03-10T11:19:53Z</time>
      </trkpt>
      <trkpt lat="43.86595" lon="7.24162">
        <ele>750</ele>
        <time>2013-03-10T11:19:54Z</time>
      </trkpt>
      <trkpt lat="43.86593" lon="7.24163">
        <ele>750</ele>
        <time>2013-03-10T11:19:55Z</time>
      </trkpt>
      <trkpt lat="43.86591" lon="7.24165">
        <ele>751</ele>
        <time>2013-03-10T11:19:56Z</time>
      </trkpt>
      <trkpt lat="43.86586" lon="7.24169">
        <ele>751</ele>
        <time>2013-03-10T11:19:59Z</time>
      </trkpt>
      <trkpt lat="43.86583" lon="7.24172">
        <ele>751</ele>
        <time>2013-03-10T11:20:01Z</time>
      </trkpt>
      <trkpt lat="43.86581" lon="7.24173">
        <ele>752</ele>
        <time>2013-03-10T11:20:02Z</time>
      </trkpt>
      <trkpt lat="43.8658" lon="7.24174">
        <ele>752</ele>
        <time>2013-03-10T11:20:03Z</time>
      </trkpt>
      <trkpt lat="43.86578" lon="7.24175">
        <ele>752</ele>
        <time>2013-03-10T11:20:04Z</time>
      </trkpt>
      <trkpt lat="43.86576" lon="7.24176">
        <ele>753</ele>
        <time>2013-03-10T11:20:05Z</time>
      </trkpt>
      <trkpt lat="43.86575" lon="7.24177">
        <ele>753</ele>
        <time>2013-03-10T11:20:06Z</time>
      </trkpt>
      <trkpt lat="43.86555" lon="7.24182">
        <ele>753</ele>
        <time>2013-03-10T11:20:16Z</time>
      </trkpt>
      <trkpt lat="43.86553" lon="7.24183">
        <ele>754</ele>
        <time>2013-03-10T11:20:17Z</time>
      </trkpt>
      <trkpt lat="43.86551" lon="7.24184">
        <ele>754</ele>
        <time>2013-03-10T11:20:18Z</time>
      </trkpt>
      <trkpt lat="43.86549" lon="7.24185">
        <ele>754</ele>
        <time>2013-03-10T11:20:19Z</time>
      </trkpt>
      <trkpt lat="43.86547" lon="7.24186">
        <ele>755</ele>
        <time>2013-03-10T11:20:20Z</time>
      </trkpt>
      <trkpt lat="43.86542" lon="7.24189">
        <ele>755</ele>
        <time>2013-03-10T11:20:23Z</time>
      </trkpt>
      <trkpt lat="43.86536" lon="7.24192">
        <ele>755</ele>
        <time>2013-03-10T11:20:26Z</time>
      </trkpt>
      <trkpt lat="43.86535" lon="7.24193">
        <ele>756</ele>
        <time>2013-03-10T11:20:27Z</time>
      </trkpt>
      <trkpt lat="43.86533" lon="7.24193">
        <ele>756</ele>
        <time>2013-03-10T11:20:28Z</time>
      </trkpt>
      <trkpt lat="43.86531" lon="7.24193">
        <ele>757</ele>
        <time>2013-03-10T11:20:29Z</time>
      </trkpt>
      <trkpt lat="43.86529" lon="7.24194">
        <ele>757</ele>
        <time>2013-03-10T11:20:30Z</time>
      </trkpt>
      <trkpt lat="43.86521" lon="7.24196">
        <ele>757</ele>
        <time>2013-03-10T11:20:35Z</time>
      </trkpt>
      <trkpt lat="43.86519" lon="7.24196">
        <ele>758</ele>
        <time>2013-03-10T11:20:36Z</time>
      </trkpt>
      <trkpt lat="43.86517" lon="7.24196">
        <ele>758</ele>
        <time>2013-03-10T11:20:37Z</time>
      </trkpt>
      <trkpt lat="43.86515" lon="7.24196">
        <ele>759</ele>
        <time>2013-03-10T11:20:38Z</time>
      </trkpt>
      <trkpt lat="43.86514" lon="7.24196">
        <ele>759</ele>
        <time>2013-03-10T11:20:39Z</time>
      </trkpt>
      <trkpt lat="43.86503" lon="7.24199">
        <ele>759</ele>
        <time>2013-03-10T11:20:46Z</time>
      </trkpt>
      <trkpt lat="43.86501" lon="7.24199">
        <ele>760</ele>
        <time>2013-03-10T11:20:47Z</time>
      </trkpt>
      <trkpt lat="43.865" lon="7.242">
        <ele>760</ele>
        <time>2013-03-10T11:20:48Z</time>
      </trkpt>
      <trkpt lat="43.86498" lon="7.242">
        <ele>760</ele>
        <time>2013-03-10T11:20:49Z</time>
      </trkpt>
      <trkpt lat="43.86497" lon="7.24201">
        <ele>761</ele>
        <time>2013-03-10T11:20:50Z</time>
      </trkpt>
      <trkpt lat="43.86495" lon="7.24201">
        <ele>761</ele>
        <time>2013-03-10T11:20:51Z</time>
      </trkpt>
      <trkpt lat="43.86493" lon="7.24203">
        <ele>761</ele>
        <time>2013-03-10T11:20:53Z</time>
      </trkpt>
      <trkpt lat="43.86481" lon="7.2421">
        <ele>761</ele>
        <time>2013-03-10T11:21:01Z</time>
      </trkpt>
      <trkpt lat="43.86477" lon="7.24214">
        <ele>762</ele>
        <time>2013-03-10T11:21:04Z</time>
      </trkpt>
      <trkpt lat="43.86476" lon="7.24216">
        <ele>762</ele>
        <time>2013-03-10T11:21:05Z</time>
      </trkpt>
      <trkpt lat="43.86475" lon="7.24218">
        <ele>763</ele>
        <time>2013-03-10T11:21:06Z</time>
      </trkpt>
      <trkpt lat="43.86474" lon="7.2422">
        <ele>763</ele>
        <time>2013-03-10T11:21:07Z</time>
      </trkpt>
      <trkpt lat="43.86473" lon="7.24223">
        <ele>763</ele>
        <time>2013-03-10T11:21:08Z</time>
      </trkpt>
      <trkpt lat="43.86465" lon="7.24235">
        <ele>763</ele>
        <time>2013-03-10T11:21:15Z</time>
      </trkpt>
      <trkpt lat="43.86462" lon="7.2424">
        <ele>764</ele>
        <time>2013-03-10T11:21:18Z</time>
      </trkpt>
      <trkpt lat="43.86461" lon="7.24242">
        <ele>764</ele>
        <time>2013-03-10T11:21:19Z</time>
      </trkpt>
      <trkpt lat="43.8646" lon="7.24244">
        <ele>765</ele>
        <time>2013-03-10T11:21:20Z</time>
      </trkpt>
      <trkpt lat="43.86459" lon="7.24246">
        <ele>765</ele>
        <time>2013-03-10T11:21:21Z</time>
      </trkpt>
      <trkpt lat="43.86458" lon="7.24247">
        <ele>765</ele>
        <time>2013-03-10T11:21:22Z</time>
      </trkpt>
      <trkpt lat="43.86456" lon="7.2425">
        <ele>765</ele>
        <time>2013-03-10T11:21:24Z</time>
      </trkpt>
      <trkpt lat="43.86448" lon="7.24265">
        <ele>766</ele>
        <time>2013-03-10T11:21:32Z</time>
      </trkpt>
      <trkpt lat="43.86448" lon="7.24267">
        <ele>766</ele>
        <time>2013-03-10T11:21:33Z</time>
      </trkpt>
      <trkpt lat="43.86446" lon="7.24269">
        <ele>767</ele>
        <time>2013-03-10T11:21:34Z</time>
      </trkpt>
      <trkpt lat="43.86446" lon="7.24271">
        <ele>767</ele>
        <time>2013-03-10T11:21:35Z</time>
      </trkpt>
      <trkpt lat="43.86445" lon="7.24273">
        <ele>767</ele>
        <time>2013-03-10T11:21:36Z</time>
      </trkpt>
      <trkpt lat="43.86443" lon="7.24278">
        <ele>767</ele>
        <time>2013-03-10T11:21:38Z</time>
      </trkpt>
      <trkpt lat="43.8644" lon="7.24289">
        <ele>768</ele>
        <time>2013-03-10T11:21:43Z</time>
      </trkpt>
      <trkpt lat="43.86439" lon="7.24291">
        <ele>768</ele>
        <time>2013-03-10T11:21:44Z</time>
      </trkpt>
      <trkpt lat="43.86439" lon="7.24294">
        <ele>769</ele>
        <time>2013-03-10T11:21:45Z</time>
      </trkpt>
      <trkpt lat="43.86438" lon="7.24296">
        <ele>769</ele>
        <time>2013-03-10T11:21:46Z</time>
      </trkpt>
      <trkpt lat="43.86438" lon="7.24298">
        <ele>769</ele>
        <time>2013-03-10T11:21:47Z</time>
      </trkpt>
      <trkpt lat="43.86435" lon="7.24312">
        <ele>769</ele>
        <time>2013-03-10T11:21:53Z</time>
      </trkpt>
      <trkpt lat="43.86434" lon="7.24316">
        <ele>770</ele>
        <time>2013-03-10T11:21:55Z</time>
      </trkpt>
      <trkpt lat="43.86434" lon="7.24317">
        <ele>770</ele>
        <time>2013-03-10T11:21:56Z</time>
      </trkpt>
      <trkpt lat="43.86434" lon="7.24319">
        <ele>771</ele>
        <time>2013-03-10T11:21:57Z</time>
      </trkpt>
      <trkpt lat="43.86433" lon="7.24321">
        <ele>771</ele>
        <time>2013-03-10T11:21:58Z</time>
      </trkpt>
      <trkpt lat="43.86432" lon="7.24323">
        <ele>772</ele>
        <time>2013-03-10T11:21:59Z</time>
      </trkpt>
      <trkpt lat="43.8643" lon="7.24327">
        <ele>772</ele>
        <time>2013-03-10T11:22:01Z</time>
      </trkpt>
      <trkpt lat="43.86428" lon="7.24332">
        <ele>772</ele>
        <time>2013-03-10T11:22:03Z</time>
      </trkpt>
      <trkpt lat="43.86428" lon="7.24333">
        <ele>772</ele>
        <time>2013-03-10T11:22:04Z</time>
      </trkpt>
      <trkpt lat="43.86427" lon="7.24335">
        <ele>773</ele>
        <time>2013-03-10T11:22:05Z</time>
      </trkpt>
      <trkpt lat="43.86426" lon="7.24337">
        <ele>773</ele>
        <time>2013-03-10T11:22:06Z</time>
      </trkpt>
      <trkpt lat="43.86425" lon="7.24339">
        <ele>774</ele>
        <time>2013-03-10T11:22:07Z</time>
      </trkpt>
      <trkpt lat="43.86423" lon="7.24343">
        <ele>774</ele>
        <time>2013-03-10T11:22:09Z</time>
      </trkpt>
      <trkpt lat="43.86416" lon="7.24353">
        <ele>774</ele>
        <time>2013-03-10T11:22:14Z</time>
      </trkpt>
      <trkpt lat="43.86415" lon="7.24355">
        <ele>774</ele>
        <time>2013-03-10T11:22:15Z</time>
      </trkpt>
      <trkpt lat="43.86413" lon="7.24356">
        <ele>775</ele>
        <time>2013-03-10T11:22:16Z</time>
      </trkpt>
      <trkpt lat="43.86412" lon="7.24358">
        <ele>775</ele>
        <time>2013-03-10T11:22:17Z</time>
      </trkpt>
      <trkpt lat="43.86412" lon="7.24361">
        <ele>776</ele>
        <time>2013-03-10T11:22:18Z</time>
      </trkpt>
      <trkpt lat="43.86408" lon="7.24367">
        <ele>776</ele>
        <time>2013-03-10T11:22:21Z</time>
      </trkpt>
      <trkpt lat="43.86398" lon="7.24381">
        <ele>776</ele>
        <time>2013-03-10T11:22:28Z</time>
      </trkpt>
      <trkpt lat="43.86396" lon="7.24384">
        <ele>776</ele>
        <time>2013-03-10T11:22:30Z</time>
      </trkpt>
      <trkpt lat="43.86395" lon="7.24387">
        <ele>777</ele>
        <time>2013-03-10T11:22:31Z</time>
      </trkpt>
      <trkpt lat="43.86394" lon="7.2439">
        <ele>777</ele>
        <time>2013-03-10T11:22:32Z</time>
      </trkpt>
      <trkpt lat="43.86394" lon="7.24392">
        <ele>777</ele>
        <time>2013-03-10T11:22:33Z</time>
      </trkpt>
      <trkpt lat="43.86393" lon="7.24394">
        <ele>778</ele>
        <time>2013-03-10T11:22:34Z</time>
      </trkpt>
      <trkpt lat="43.86392" lon="7.24396">
        <ele>778</ele>
        <time>2013-03-10T11:22:35Z</time>
      </trkpt>
      <trkpt lat="43.86387" lon="7.24409">
        <ele>778</ele>
        <time>2013-03-10T11:22:41Z</time>
      </trkpt>
      <trkpt lat="43.86386" lon="7.24412">
        <ele>779</ele>
        <time>2013-03-10T11:22:42Z</time>
      </trkpt>
      <trkpt lat="43.86386" lon="7.24414">
        <ele>779</ele>
        <time>2013-03-10T11:22:43Z</time>
      </trkpt>
      <trkpt lat="43.86385" lon="7.24416">
        <ele>779</ele>
        <time>2013-03-10T11:22:44Z</time>
      </trkpt>
      <trkpt lat="43.86385" lon="7.24418">
        <ele>780</ele>
        <time>2013-03-10T11:22:45Z</time>
      </trkpt>
      <trkpt lat="43.86385" lon="7.24436">
        <ele>780</ele>
        <time>2013-03-10T11:22:52Z</time>
      </trkpt>
      <trkpt lat="43.86387" lon="7.24441">
        <ele>780</ele>
        <time>2013-03-10T11:22:54Z</time>
      </trkpt>
      <trkpt lat="43.86387" lon="7.24443">
        <ele>781</ele>
        <time>2013-03-10T11:22:55Z</time>
      </trkpt>
      <trkpt lat="43.86388" lon="7.24446">
        <ele>781</ele>
        <time>2013-03-10T11:22:56Z</time>
      </trkpt>
      <trkpt lat="43.86388" lon="7.24448">
        <ele>782</ele>
        <time>2013-03-10T11:22:57Z</time>
      </trkpt>
      <trkpt lat="43.86389" lon="7.2445">
        <ele>782</ele>
        <time>2013-03-10T11:22:58Z</time>
      </trkpt>
      <trkpt lat="43.86391" lon="7.24457">
        <ele>782</ele>
        <time>2013-03-10T11:23:01Z</time>
      </trkpt>
      <trkpt lat="43.86392" lon="7.24462">
        <ele>782</ele>
        <time>2013-03-10T11:23:03Z</time>
      </trkpt>
      <trkpt lat="43.86393" lon="7.24464">
        <ele>783</ele>
        <time>2013-03-10T11:23:04Z</time>
      </trkpt>
      <trkpt lat="43.86394" lon="7.24466">
        <ele>783</ele>
        <time>2013-03-10T11:23:05Z</time>
      </trkpt>
      <trkpt lat="43.86394" lon="7.24468">
        <ele>784</ele>
        <time>2013-03-10T11:23:06Z</time>
      </trkpt>
      <trkpt lat="43.86395" lon="7.2447">
        <ele>784</ele>
        <time>2013-03-10T11:23:07Z</time>
      </trkpt>
      <trkpt lat="43.86396" lon="7.24474">
        <ele>784</ele>
        <time>2013-03-10T11:23:09Z</time>
      </trkpt>
      <trkpt lat="43.864" lon="7.2449">
        <ele>785</ele>
        <time>2013-03-10T11:23:16Z</time>
      </trkpt>
      <trkpt lat="43.86401" lon="7.24492">
        <ele>785</ele>
        <time>2013-03-10T11:23:17Z</time>
      </trkpt>
      <trkpt lat="43.86402" lon="7.24494">
        <ele>786</ele>
        <time>2013-03-10T11:23:18Z</time>
      </trkpt>
      <trkpt lat="43.86402" lon="7.24496">
        <ele>786</ele>
        <time>2013-03-10T11:23:19Z</time>
      </trkpt>
      <trkpt lat="43.86406" lon="7.24507">
        <ele>786</ele>
        <time>2013-03-10T11:23:24Z</time>
      </trkpt>
      <trkpt lat="43.8641" lon="7.24517">
        <ele>786</ele>
        <time>2013-03-10T11:23:29Z</time>
      </trkpt>
      <trkpt lat="43.86411" lon="7.2452">
        <ele>787</ele>
        <time>2013-03-10T11:23:30Z</time>
      </trkpt>
      <trkpt lat="43.86411" lon="7.24522">
        <ele>787</ele>
        <time>2013-03-10T11:23:31Z</time>
      </trkpt>
      <trkpt lat="43.86412" lon="7.24524">
        <ele>788</ele>
        <time>2013-03-10T11:23:32Z</time>
      </trkpt>
      <trkpt lat="43.86413" lon="7.24525">
        <ele>788</ele>
        <time>2013-03-10T11:23:33Z</time>
      </trkpt>
      <trkpt lat="43.86422" lon="7.2454">
        <ele>789</ele>
        <time>2013-03-10T11:23:41Z</time>
      </trkpt>
      <trkpt lat="43.86423" lon="7.24542">
        <ele>789</ele>
        <time>2013-03-10T11:23:42Z</time>
      </trkpt>
      <trkpt lat="43.86424" lon="7.24543">
        <ele>790</ele>
        <time>2013-03-10T11:23:43Z</time>
      </trkpt>
      <trkpt lat="43.86425" lon="7.24545">
        <ele>790</ele>
        <time>2013-03-10T11:23:44Z</time>
      </trkpt>
      <trkpt lat="43.8643" lon="7.24554">
        <ele>790</ele>
        <time>2013-03-10T11:23:49Z</time>
      </trkpt>
      <trkpt lat="43.86432" lon="7.24555">
        <ele>791</ele>
        <time>2013-03-10T11:23:50Z</time>
      </trkpt>
      <trkpt lat="43.86433" lon="7.24558">
        <ele>791</ele>
        <time>2013-03-10T11:23:51Z</time>
      </trkpt>
      <trkpt lat="43.86434" lon="7.2456">
        <ele>791</ele>
        <time>2013-03-10T11:23:52Z</time>
      </trkpt>
      <trkpt lat="43.86434" lon="7.24562">
        <ele>792</ele>
        <time>2013-03-10T11:23:53Z</time>
      </trkpt>
      <trkpt lat="43.86435" lon="7.24564">
        <ele>792</ele>
        <time>2013-03-10T11:23:54Z</time>
      </trkpt>
      <trkpt lat="43.86437" lon="7.2457">
        <ele>792</ele>
        <time>2013-03-10T11:23:57Z</time>
      </trkpt>
      <trkpt lat="43.8644" lon="7.24582">
        <ele>793</ele>
        <time>2013-03-10T11:24:02Z</time>
      </trkpt>
      <trkpt lat="43.8644" lon="7.24584">
        <ele>793</ele>
        <time>2013-03-10T11:24:03Z</time>
      </trkpt>
      <trkpt lat="43.8644" lon="7.24586">
        <ele>794</ele>
        <time>2013-03-10T11:24:04Z</time>
      </trkpt>
      <trkpt lat="43.8644" lon="7.24588">
        <ele>794</ele>
        <time>2013-03-10T11:24:05Z</time>
      </trkpt>
      <trkpt lat="43.8644" lon="7.24591">
        <ele>794</ele>
        <time>2013-03-10T11:24:06Z</time>
      </trkpt>
      <trkpt lat="43.86441" lon="7.246">
        <ele>794</ele>
        <time>2013-03-10T11:24:10Z</time>
      </trkpt>
      <trkpt lat="43.86441" lon="7.24605">
        <ele>795</ele>
        <time>2013-03-10T11:24:12Z</time>
      </trkpt>
      <trkpt lat="43.86441" lon="7.24607">
        <ele>795</ele>
        <time>2013-03-10T11:24:13Z</time>
      </trkpt>
      <trkpt lat="43.86441" lon="7.2461">
        <ele>796</ele>
        <time>2013-03-10T11:24:14Z</time>
      </trkpt>
      <trkpt lat="43.86441" lon="7.24612">
        <ele>796</ele>
        <time>2013-03-10T11:24:15Z</time>
      </trkpt>
      <trkpt lat="43.8644" lon="7.24615">
        <ele>796</ele>
        <time>2013-03-10T11:24:16Z</time>
      </trkpt>
      <trkpt lat="43.86441" lon="7.24624">
        <ele>796</ele>
        <time>2013-03-10T11:24:20Z</time>
      </trkpt>
      <trkpt lat="43.8644" lon="7.24626">
        <ele>796</ele>
        <time>2013-03-10T11:24:21Z</time>
      </trkpt>
      <trkpt lat="43.86439" lon="7.24631">
        <ele>796</ele>
        <time>2013-03-10T11:24:25Z</time>
      </trkpt>
      <trkpt lat="43.86439" lon="7.24637">
        <ele>797</ele>
        <time>2013-03-10T11:24:30Z</time>
      </trkpt>
      <trkpt lat="43.86438" lon="7.24639">
        <ele>798</ele>
        <time>2013-03-10T11:24:45Z</time>
      </trkpt>
      <trkpt lat="43.86435" lon="7.24655">
        <ele>798</ele>
        <time>2013-03-10T11:24:52Z</time>
      </trkpt>
      <trkpt lat="43.86431" lon="7.24668">
        <ele>799</ele>
        <time>2013-03-10T11:24:58Z</time>
      </trkpt>
      <trkpt lat="43.8643" lon="7.24671">
        <ele>799</ele>
        <time>2013-03-10T11:24:59Z</time>
      </trkpt>
      <trkpt lat="43.86429" lon="7.24673">
        <ele>800</ele>
        <time>2013-03-10T11:25:00Z</time>
      </trkpt>
      <trkpt lat="43.86428" lon="7.24675">
        <ele>800</ele>
        <time>2013-03-10T11:25:01Z</time>
      </trkpt>
      <trkpt lat="43.86428" lon="7.24677">
        <ele>801</ele>
        <time>2013-03-10T11:25:02Z</time>
      </trkpt>
      <trkpt lat="43.86423" lon="7.2469">
        <ele>801</ele>
        <time>2013-03-10T11:25:08Z</time>
      </trkpt>
      <trkpt lat="43.86421" lon="7.24695">
        <ele>801</ele>
        <time>2013-03-10T11:25:10Z</time>
      </trkpt>
      <trkpt lat="43.8642" lon="7.24696">
        <ele>801</ele>
        <time>2013-03-10T11:25:11Z</time>
      </trkpt>
      <trkpt lat="43.8642" lon="7.24698">
        <ele>802</ele>
        <time>2013-03-10T11:25:12Z</time>
      </trkpt>
      <trkpt lat="43.86419" lon="7.247">
        <ele>802</ele>
        <time>2013-03-10T11:25:13Z</time>
      </trkpt>
      <trkpt lat="43.86418" lon="7.24702">
        <ele>803</ele>
        <time>2013-03-10T11:25:14Z</time>
      </trkpt>
      <trkpt lat="43.86417" lon="7.24708">
        <ele>803</ele>
        <time>2013-03-10T11:25:17Z</time>
      </trkpt>
      <trkpt lat="43.86414" lon="7.24715">
        <ele>803</ele>
        <time>2013-03-10T11:25:21Z</time>
      </trkpt>
      <trkpt lat="43.86413" lon="7.24717">
        <ele>804</ele>
        <time>2013-03-10T11:25:22Z</time>
      </trkpt>
      <trkpt lat="43.86412" lon="7.24719">
        <ele>804</ele>
        <time>2013-03-10T11:25:23Z</time>
      </trkpt>
      <trkpt lat="43.86412" lon="7.24721">
        <ele>804</ele>
        <time>2013-03-10T11:25:24Z</time>
      </trkpt>
      <trkpt lat="43.86411" lon="7.24723">
        <ele>805</ele>
        <time>2013-03-10T11:25:25Z</time>
      </trkpt>
      <trkpt lat="43.8641" lon="7.24725">
        <ele>805</ele>
        <time>2013-03-10T11:25:26Z</time>
      </trkpt>
      <trkpt lat="43.86405" lon="7.2474">
        <ele>805</ele>
        <time>2013-03-10T11:25:33Z</time>
      </trkpt>
      <trkpt lat="43.86404" lon="7.24742">
        <ele>806</ele>
        <time>2013-03-10T11:25:34Z</time>
      </trkpt>
      <trkpt lat="43.86403" lon="7.24744">
        <ele>806</ele>
        <time>2013-03-10T11:25:35Z</time>
      </trkpt>
      <trkpt lat="43.86402" lon="7.24747">
        <ele>807</ele>
        <time>2013-03-10T11:25:36Z</time>
      </trkpt>
      <trkpt lat="43.86402" lon="7.24749">
        <ele>807</ele>
        <time>2013-03-10T11:25:37Z</time>
      </trkpt>
      <trkpt lat="43.86396" lon="7.24766">
        <ele>807</ele>
        <time>2013-03-10T11:25:45Z</time>
      </trkpt>
      <trkpt lat="43.86395" lon="7.2477">
        <ele>807</ele>
        <time>2013-03-10T11:25:47Z</time>
      </trkpt>
      <trkpt lat="43.86394" lon="7.24772">
        <ele>808</ele>
        <time>2013-03-10T11:25:48Z</time>
      </trkpt>
      <trkpt lat="43.86393" lon="7.24775">
        <ele>808</ele>
        <time>2013-03-10T11:25:49Z</time>
      </trkpt>
      <trkpt lat="43.86393" lon="7.24777">
        <ele>809</ele>
        <time>2013-03-10T11:25:50Z</time>
      </trkpt>
      <trkpt lat="43.86392" lon="7.24779">
        <ele>809</ele>
        <time>2013-03-10T11:25:51Z</time>
      </trkpt>
      <trkpt lat="43.86391" lon="7.24781">
        <ele>809</ele>
        <time>2013-03-10T11:25:52Z</time>
      </trkpt>
      <trkpt lat="43.86387" lon="7.24798">
        <ele>810</ele>
        <time>2013-03-10T11:26:00Z</time>
      </trkpt>
      <trkpt lat="43.86386" lon="7.24801">
        <ele>810</ele>
        <time>2013-03-10T11:26:01Z</time>
      </trkpt>
      <trkpt lat="43.86386" lon="7.24803">
        <ele>810</ele>
        <time>2013-03-10T11:26:02Z</time>
      </trkpt>
      <trkpt lat="43.86385" lon="7.24805">
        <ele>811</ele>
        <time>2013-03-10T11:26:03Z</time>
      </trkpt>
      <trkpt lat="43.86385" lon="7.24807">
        <ele>811</ele>
        <time>2013-03-10T11:26:04Z</time>
      </trkpt>
      <trkpt lat="43.86382" lon="7.2482">
        <ele>811</ele>
        <time>2013-03-10T11:26:09Z</time>
      </trkpt>
      <trkpt lat="43.86381" lon="7.24822">
        <ele>812</ele>
        <time>2013-03-10T11:26:10Z</time>
      </trkpt>
      <trkpt lat="43.86381" lon="7.24825">
        <ele>812</ele>
        <time>2013-03-10T11:26:11Z</time>
      </trkpt>
      <trkpt lat="43.8638" lon="7.24827">
        <ele>812</ele>
        <time>2013-03-10T11:26:12Z</time>
      </trkpt>
      <trkpt lat="43.8638" lon="7.2483">
        <ele>813</ele>
        <time>2013-03-10T11:26:13Z</time>
      </trkpt>
      <trkpt lat="43.86379" lon="7.24832">
        <ele>813</ele>
        <time>2013-03-10T11:26:14Z</time>
      </trkpt>
      <trkpt lat="43.86378" lon="7.2484">
        <ele>813</ele>
        <time>2013-03-10T11:26:17Z</time>
      </trkpt>
      <trkpt lat="43.86373" lon="7.24856">
        <ele>814</ele>
        <time>2013-03-10T11:26:24Z</time>
      </trkpt>
      <trkpt lat="43.86373" lon="7.24858">
        <ele>814</ele>
        <time>2013-03-10T11:26:25Z</time>
      </trkpt>
      <trkpt lat="43.86372" lon="7.2486">
        <ele>815</ele>
        <time>2013-03-10T11:26:26Z</time>
      </trkpt>
      <trkpt lat="43.86372" lon="7.24863">
        <ele>815</ele>
        <time>2013-03-10T11:26:27Z</time>
      </trkpt>
      <trkpt lat="43.86371" lon="7.24865">
        <ele>815</ele>
        <time>2013-03-10T11:26:28Z</time>
      </trkpt>
      <trkpt lat="43.86369" lon="7.24877">
        <ele>815</ele>
        <time>2013-03-10T11:26:33Z</time>
      </trkpt>
      <trkpt lat="43.86368" lon="7.24881">
        <ele>816</ele>
        <time>2013-03-10T11:26:35Z</time>
      </trkpt>
      <trkpt lat="43.86368" lon="7.24883">
        <ele>816</ele>
        <time>2013-03-10T11:26:36Z</time>
      </trkpt>
      <trkpt lat="43.86368" lon="7.24886">
        <ele>817</ele>
        <time>2013-03-10T11:26:37Z</time>
      </trkpt>
      <trkpt lat="43.86368" lon="7.24888">
        <ele>817</ele>
        <time>2013-03-10T11:26:38Z</time>
      </trkpt>
      <trkpt lat="43.86367" lon="7.2489">
        <ele>818</ele>
        <time>2013-03-10T11:26:39Z</time>
      </trkpt>
      <trkpt lat="43.86365" lon="7.24907">
        <ele>818</ele>
        <time>2013-03-10T11:26:46Z</time>
      </trkpt>
      <trkpt lat="43.86365" lon="7.24914">
        <ele>818</ele>
        <time>2013-03-10T11:26:49Z</time>
      </trkpt>
      <trkpt lat="43.86364" lon="7.24916">
        <ele>818</ele>
        <time>2013-03-10T11:26:50Z</time>
      </trkpt>
      <trkpt lat="43.86364" lon="7.24918">
        <ele>819</ele>
        <time>2013-03-10T11:26:51Z</time>
      </trkpt>
      <trkpt lat="43.86363" lon="7.2492">
        <ele>819</ele>
        <time>2013-03-10T11:26:52Z</time>
      </trkpt>
      <trkpt lat="43.86363" lon="7.24923">
        <ele>820</ele>
        <time>2013-03-10T11:26:53Z</time>
      </trkpt>
      <trkpt lat="43.86363" lon="7.24925">
        <ele>820</ele>
        <time>2013-03-10T11:26:54Z</time>
      </trkpt>
      <trkpt lat="43.86362" lon="7.24939">
        <ele>820</ele>
        <time>2013-03-10T11:27:00Z</time>
      </trkpt>
      <trkpt lat="43.86362" lon="7.24941">
        <ele>820</ele>
        <time>2013-03-10T11:27:01Z</time>
      </trkpt>
      <trkpt lat="43.86362" lon="7.24943">
        <ele>821</ele>
        <time>2013-03-10T11:27:02Z</time>
      </trkpt>
      <trkpt lat="43.86362" lon="7.24946">
        <ele>821</ele>
        <time>2013-03-10T11:27:03Z</time>
      </trkpt>
      <trkpt lat="43.86362" lon="7.24948">
        <ele>822</ele>
        <time>2013-03-10T11:27:04Z</time>
      </trkpt>
      <trkpt lat="43.86361" lon="7.2496">
        <ele>822</ele>
        <time>2013-03-10T11:27:09Z</time>
      </trkpt>
      <trkpt lat="43.86361" lon="7.24969">
        <ele>822</ele>
        <time>2013-03-10T11:27:13Z</time>
      </trkpt>
      <trkpt lat="43.86361" lon="7.24972">
        <ele>823</ele>
        <time>2013-03-10T11:27:14Z</time>
      </trkpt>
      <trkpt lat="43.86362" lon="7.24974">
        <ele>823</ele>
        <time>2013-03-10T11:27:15Z</time>
      </trkpt>
      <trkpt lat="43.86362" lon="7.24976">
        <ele>823</ele>
        <time>2013-03-10T11:27:16Z</time>
      </trkpt>
      <trkpt lat="43.86362" lon="7.24979">
        <ele>824</ele>
        <time>2013-03-10T11:27:17Z</time>
      </trkpt>
      <trkpt lat="43.86363" lon="7.24996">
        <ele>824</ele>
        <time>2013-03-10T11:27:24Z</time>
      </trkpt>
      <trkpt lat="43.86363" lon="7.24998">
        <ele>825</ele>
        <time>2013-03-10T11:27:25Z</time>
      </trkpt>
      <trkpt lat="43.86363" lon="7.25">
        <ele>825</ele>
        <time>2013-03-10T11:27:26Z</time>
      </trkpt>
      <trkpt lat="43.86363" lon="7.25002">
        <ele>825</ele>
        <time>2013-03-10T11:27:27Z</time>
      </trkpt>
      <trkpt lat="43.86364" lon="7.25005">
        <ele>826</ele>
        <time>2013-03-10T11:27:28Z</time>
      </trkpt>
      <trkpt lat="43.86365" lon="7.25015">
        <ele>826</ele>
        <time>2013-03-10T11:27:33Z</time>
      </trkpt>
      <trkpt lat="43.86366" lon="7.25024">
        <ele>826</ele>
        <time>2013-03-10T11:27:38Z</time>
      </trkpt>
      <trkpt lat="43.86366" lon="7.25026">
        <ele>827</ele>
        <time>2013-03-10T11:27:39Z</time>
      </trkpt>
      <trkpt lat="43.86366" lon="7.25028">
        <ele>827</ele>
        <time>2013-03-10T11:27:40Z</time>
      </trkpt>
      <trkpt lat="43.86367" lon="7.25029">
        <ele>827</ele>
        <time>2013-03-10T11:27:41Z</time>
      </trkpt>
      <trkpt lat="43.86367" lon="7.25031">
        <ele>828</ele>
        <time>2013-03-10T11:27:42Z</time>
      </trkpt>
      <trkpt lat="43.86368" lon="7.25041">
        <ele>828</ele>
        <time>2013-03-10T11:27:47Z</time>
      </trkpt>
      <trkpt lat="43.8637" lon="7.25049">
        <ele>828</ele>
        <time>2013-03-10T11:27:51Z</time>
      </trkpt>
      <trkpt lat="43.8637" lon="7.25051">
        <ele>829</ele>
        <time>2013-03-10T11:27:52Z</time>
      </trkpt>
      <trkpt lat="43.86371" lon="7.25053">
        <ele>829</ele>
        <time>2013-03-10T11:27:53Z</time>
      </trkpt>
      <trkpt lat="43.86371" lon="7.25055">
        <ele>829</ele>
        <time>2013-03-10T11:27:54Z</time>
      </trkpt>
      <trkpt lat="43.86371" lon="7.25057">
        <ele>830</ele>
        <time>2013-03-10T11:27:55Z</time>
      </trkpt>
      <trkpt lat="43.86376" lon="7.2507">
        <ele>830</ele>
        <time>2013-03-10T11:28:02Z</time>
      </trkpt>
      <trkpt lat="43.86377" lon="7.25074">
        <ele>830</ele>
        <time>2013-03-10T11:28:04Z</time>
      </trkpt>
      <trkpt lat="43.86377" lon="7.25076">
        <ele>831</ele>
        <time>2013-03-10T11:28:05Z</time>
      </trkpt>
      <trkpt lat="43.86377" lon="7.25078">
        <ele>831</ele>
        <time>2013-03-10T11:28:06Z</time>
      </trkpt>
      <trkpt lat="43.86378" lon="7.2508">
        <ele>831</ele>
        <time>2013-03-10T11:28:07Z</time>
      </trkpt>
      <trkpt lat="43.86379" lon="7.25082">
        <ele>832</ele>
        <time>2013-03-10T11:28:08Z</time>
      </trkpt>
      <trkpt lat="43.86379" lon="7.25084">
        <ele>832</ele>
        <time>2013-03-10T11:28:09Z</time>
      </trkpt>
      <trkpt lat="43.86384" lon="7.251">
        <ele>832</ele>
        <time>2013-03-10T11:28:17Z</time>
      </trkpt>
      <trkpt lat="43.86385" lon="7.25104">
        <ele>832</ele>
        <time>2013-03-10T11:28:20Z</time>
      </trkpt>
      <trkpt lat="43.86385" lon="7.25104">
        <ele>833</ele>
        <time>2013-03-10T11:28:21Z</time>
      </trkpt>
      <trkpt lat="43.86386" lon="7.25106">
        <ele>833</ele>
        <time>2013-03-10T11:28:22Z</time>
      </trkpt>
      <trkpt lat="43.86386" lon="7.25107">
        <ele>834</ele>
        <time>2013-03-10T11:28:23Z</time>
      </trkpt>
      <trkpt lat="43.86387" lon="7.25108">
        <ele>834</ele>
        <time>2013-03-10T11:28:24Z</time>
      </trkpt>
      <trkpt lat="43.86392" lon="7.25123">
        <ele>834</ele>
        <time>2013-03-10T11:28:34Z</time>
      </trkpt>
      <trkpt lat="43.86394" lon="7.25128">
        <ele>835</ele>
        <time>2013-03-10T11:28:37Z</time>
      </trkpt>
      <trkpt lat="43.86394" lon="7.2513">
        <ele>835</ele>
        <time>2013-03-10T11:28:38Z</time>
      </trkpt>
      <trkpt lat="43.86395" lon="7.25131">
        <ele>836</ele>
        <time>2013-03-10T11:28:39Z</time>
      </trkpt>
      <trkpt lat="43.86395" lon="7.25133">
        <ele>836</ele>
        <time>2013-03-10T11:28:40Z</time>
      </trkpt>
      <trkpt lat="43.864" lon="7.25148">
        <ele>836</ele>
        <time>2013-03-10T11:28:49Z</time>
      </trkpt>
      <trkpt lat="43.86402" lon="7.25156">
        <ele>836</ele>
        <time>2013-03-10T11:28:53Z</time>
      </trkpt>
      <trkpt lat="43.86403" lon="7.25157">
        <ele>837</ele>
        <time>2013-03-10T11:28:54Z</time>
      </trkpt>
      <trkpt lat="43.86403" lon="7.25159">
        <ele>837</ele>
        <time>2013-03-10T11:28:55Z</time>
      </trkpt>
      <trkpt lat="43.86404" lon="7.25161">
        <ele>838</ele>
        <time>2013-03-10T11:28:56Z</time>
      </trkpt>
      <trkpt lat="43.86404" lon="7.25163">
        <ele>838</ele>
        <time>2013-03-10T11:28:57Z</time>
      </trkpt>
      <trkpt lat="43.86405" lon="7.25166">
        <ele>838</ele>
        <time>2013-03-10T11:28:58Z</time>
      </trkpt>
      <trkpt lat="43.86407" lon="7.25175">
        <ele>838</ele>
        <time>2013-03-10T11:29:03Z</time>
      </trkpt>
      <trkpt lat="43.86407" lon="7.25177">
        <ele>838</ele>
        <time>2013-03-10T11:29:04Z</time>
      </trkpt>
      <trkpt lat="43.86408" lon="7.2518">
        <ele>839</ele>
        <time>2013-03-10T11:29:05Z</time>
      </trkpt>
      <trkpt lat="43.86408" lon="7.25181">
        <ele>839</ele>
        <time>2013-03-10T11:29:06Z</time>
      </trkpt>
      <trkpt lat="43.8641" lon="7.25183">
        <ele>840</ele>
        <time>2013-03-10T11:29:07Z</time>
      </trkpt>
      <trkpt lat="43.8641" lon="7.25186">
        <ele>840</ele>
        <time>2013-03-10T11:29:08Z</time>
      </trkpt>
      <trkpt lat="43.86412" lon="7.25191">
        <ele>840</ele>
        <time>2013-03-10T11:29:11Z</time>
      </trkpt>
      <trkpt lat="43.86416" lon="7.25204">
        <ele>840</ele>
        <time>2013-03-10T11:29:17Z</time>
      </trkpt>
      <trkpt lat="43.86417" lon="7.25206">
        <ele>841</ele>
        <time>2013-03-10T11:29:18Z</time>
      </trkpt>
      <trkpt lat="43.86417" lon="7.25209">
        <ele>841</ele>
        <time>2013-03-10T11:29:19Z</time>
      </trkpt>
      <trkpt lat="43.86417" lon="7.25211">
        <ele>842</ele>
        <time>2013-03-10T11:29:20Z</time>
      </trkpt>
      <trkpt lat="43.86418" lon="7.25213">
        <ele>842</ele>
        <time>2013-03-10T11:29:21Z</time>
      </trkpt>
      <trkpt lat="43.8642" lon="7.25221">
        <ele>842</ele>
        <time>2013-03-10T11:29:25Z</time>
      </trkpt>
      <trkpt lat="43.86422" lon="7.25234">
        <ele>843</ele>
        <time>2013-03-10T11:29:31Z</time>
      </trkpt>
      <trkpt lat="43.86423" lon="7.25236">
        <ele>843</ele>
        <time>2013-03-10T11:29:32Z</time>
      </trkpt>
      <trkpt lat="43.86423" lon="7.25237">
        <ele>843</ele>
        <time>2013-03-10T11:29:33Z</time>
      </trkpt>
      <trkpt lat="43.86424" lon="7.25239">
        <ele>844</ele>
        <time>2013-03-10T11:29:34Z</time>
      </trkpt>
      <trkpt lat="43.86424" lon="7.25242">
        <ele>844</ele>
        <time>2013-03-10T11:29:35Z</time>
      </trkpt>
      <trkpt lat="43.86427" lon="7.25255">
        <ele>844</ele>
        <time>2013-03-10T11:29:41Z</time>
      </trkpt>
      <trkpt lat="43.86429" lon="7.25266">
        <ele>845</ele>
        <time>2013-03-10T11:29:46Z</time>
      </trkpt>
      <trkpt lat="43.86429" lon="7.25268">
        <ele>845</ele>
        <time>2013-03-10T11:29:47Z</time>
      </trkpt>
      <trkpt lat="43.8643" lon="7.25271">
        <ele>845</ele>
        <time>2013-03-10T11:29:48Z</time>
      </trkpt>
      <trkpt lat="43.8643" lon="7.25273">
        <ele>846</ele>
        <time>2013-03-10T11:29:49Z</time>
      </trkpt>
      <trkpt lat="43.86431" lon="7.25275">
        <ele>846</ele>
        <time>2013-03-10T11:29:50Z</time>
      </trkpt>
      <trkpt lat="43.86433" lon="7.25287">
        <ele>846</ele>
        <time>2013-03-10T11:29:55Z</time>
      </trkpt>
      <trkpt lat="43.86434" lon="7.25291">
        <ele>847</ele>
        <time>2013-03-10T11:29:57Z</time>
      </trkpt>
      <trkpt lat="43.86434" lon="7.25293">
        <ele>847</ele>
        <time>2013-03-10T11:29:58Z</time>
      </trkpt>
      <trkpt lat="43.86435" lon="7.25295">
        <ele>847</ele>
        <time>2013-03-10T11:29:59Z</time>
      </trkpt>
      <trkpt lat="43.86435" lon="7.25298">
        <ele>848</ele>
        <time>2013-03-10T11:30:00Z</time>
      </trkpt>
      <trkpt lat="43.86436" lon="7.253">
        <ele>848</ele>
        <time>2013-03-10T11:30:01Z</time>
      </trkpt>
      <trkpt lat="43.86436" lon="7.25305">
        <ele>848</ele>
        <time>2013-03-10T11:30:03Z</time>
      </trkpt>
      <trkpt lat="43.8644" lon="7.25322">
        <ele>849</ele>
        <time>2013-03-10T11:30:11Z</time>
      </trkpt>
      <trkpt lat="43.8644" lon="7.25324">
        <ele>849</ele>
        <time>2013-03-10T11:30:12Z</time>
      </trkpt>
      <trkpt lat="43.86441" lon="7.25327">
        <ele>850</ele>
        <time>2013-03-10T11:30:13Z</time>
      </trkpt>
      <trkpt lat="43.86441" lon="7.25329">
        <ele>850</ele>
        <time>2013-03-10T11:30:14Z</time>
      </trkpt>
      <trkpt lat="43.86441" lon="7.25331">
        <ele>850</ele>
        <time>2013-03-10T11:30:15Z</time>
      </trkpt>
      <trkpt lat="43.86443" lon="7.25342">
        <ele>850</ele>
        <time>2013-03-10T11:30:20Z</time>
      </trkpt>
      <trkpt lat="43.86444" lon="7.25344">
        <ele>851</ele>
        <time>2013-03-10T11:30:21Z</time>
      </trkpt>
      <trkpt lat="43.86444" lon="7.25346">
        <ele>851</ele>
        <time>2013-03-10T11:30:22Z</time>
      </trkpt>
      <trkpt lat="43.86445" lon="7.25348">
        <ele>852</ele>
        <time>2013-03-10T11:30:23Z</time>
      </trkpt>
      <trkpt lat="43.86445" lon="7.2535">
        <ele>852</ele>
        <time>2013-03-10T11:30:24Z</time>
      </trkpt>
      <trkpt lat="43.86446" lon="7.25352">
        <ele>853</ele>
        <time>2013-03-10T11:30:25Z</time>
      </trkpt>
      <trkpt lat="43.86447" lon="7.25357">
        <ele>853</ele>
        <time>2013-03-10T11:30:28Z</time>
      </trkpt>
      <trkpt lat="43.8645" lon="7.25366">
        <ele>853</ele>
        <time>2013-03-10T11:30:33Z</time>
      </trkpt>
      <trkpt lat="43.8645" lon="7.25368">
        <ele>853</ele>
        <time>2013-03-10T11:30:34Z</time>
      </trkpt>
      <trkpt lat="43.86451" lon="7.25371">
        <ele>854</ele>
        <time>2013-03-10T11:30:35Z</time>
      </trkpt>
      <trkpt lat="43.86451" lon="7.25372">
        <ele>854</ele>
        <time>2013-03-10T11:30:36Z</time>
      </trkpt>
      <trkpt lat="43.86452" lon="7.25375">
        <ele>855</ele>
        <time>2013-03-10T11:30:37Z</time>
      </trkpt>
      <trkpt lat="43.86453" lon="7.25385">
        <ele>855</ele>
        <time>2013-03-10T11:30:42Z</time>
      </trkpt>
      <trkpt lat="43.86454" lon="7.25396">
        <ele>855</ele>
        <time>2013-03-10T11:30:47Z</time>
      </trkpt>
      <trkpt lat="43.86454" lon="7.25398">
        <ele>855</ele>
        <time>2013-03-10T11:30:48Z</time>
      </trkpt>
      <trkpt lat="43.86454" lon="7.254">
        <ele>856</ele>
        <time>2013-03-10T11:30:49Z</time>
      </trkpt>
      <trkpt lat="43.86455" lon="7.25402">
        <ele>856</ele>
        <time>2013-03-10T11:30:50Z</time>
      </trkpt>
      <trkpt lat="43.86455" lon="7.25405">
        <ele>857</ele>
        <time>2013-03-10T11:30:51Z</time>
      </trkpt>
      <trkpt lat="43.86455" lon="7.25415">
        <ele>857</ele>
        <time>2013-03-10T11:30:56Z</time>
      </trkpt>
      <trkpt lat="43.86455" lon="7.25422">
        <ele>857</ele>
        <time>2013-03-10T11:30:59Z</time>
      </trkpt>
      <trkpt lat="43.86456" lon="7.25424">
        <ele>858</ele>
        <time>2013-03-10T11:31:00Z</time>
      </trkpt>
      <trkpt lat="43.86456" lon="7.25427">
        <ele>858</ele>
        <time>2013-03-10T11:31:01Z</time>
      </trkpt>
      <trkpt lat="43.86457" lon="7.25429">
        <ele>858</ele>
        <time>2013-03-10T11:31:02Z</time>
      </trkpt>
      <trkpt lat="43.86457" lon="7.25431">
        <ele>859</ele>
        <time>2013-03-10T11:31:03Z</time>
      </trkpt>
      <trkpt lat="43.86464" lon="7.2545">
        <ele>859</ele>
        <time>2013-03-10T11:31:12Z</time>
      </trkpt>
      <trkpt lat="43.86464" lon="7.25452">
        <ele>859</ele>
        <time>2013-03-10T11:31:13Z</time>
      </trkpt>
      <trkpt lat="43.86465" lon="7.25454">
        <ele>860</ele>
        <time>2013-03-10T11:31:14Z</time>
      </trkpt>
      <trkpt lat="43.86465" lon="7.25456">
        <ele>860</ele>
        <time>2013-03-10T11:31:15Z</time>
      </trkpt>
      <trkpt lat="43.86466" lon="7.25459">
        <ele>860</ele>
        <time>2013-03-10T11:31:16Z</time>
      </trkpt>
      <trkpt lat="43.86466" lon="7.25461">
        <ele>861</ele>
        <time>2013-03-10T11:31:17Z</time>
      </trkpt>
      <trkpt lat="43.86467" lon="7.25463">
        <ele>861</ele>
        <time>2013-03-10T11:31:18Z</time>
      </trkpt>
      <trkpt lat="43.86468" lon="7.25469">
        <ele>861</ele>
        <time>2013-03-10T11:31:21Z</time>
      </trkpt>
      <trkpt lat="43.8647" lon="7.25482">
        <ele>861</ele>
        <time>2013-03-10T11:31:26Z</time>
      </trkpt>
      <trkpt lat="43.86471" lon="7.25484">
        <ele>862</ele>
        <time>2013-03-10T11:31:27Z</time>
      </trkpt>
      <trkpt lat="43.86471" lon="7.25486">
        <ele>862</ele>
        <time>2013-03-10T11:31:28Z</time>
      </trkpt>
      <trkpt lat="43.86472" lon="7.25488">
        <ele>862</ele>
        <time>2013-03-10T11:31:29Z</time>
      </trkpt>
      <trkpt lat="43.86472" lon="7.2549">
        <ele>863</ele>
        <time>2013-03-10T11:31:30Z</time>
      </trkpt>
      <trkpt lat="43.86474" lon="7.25505">
        <ele>863</ele>
        <time>2013-03-10T11:31:36Z</time>
      </trkpt>
      <trkpt lat="43.86474" lon="7.25507">
        <ele>864</ele>
        <time>2013-03-10T11:31:37Z</time>
      </trkpt>
      <trkpt lat="43.86474" lon="7.2551">
        <ele>864</ele>
        <time>2013-03-10T11:31:38Z</time>
      </trkpt>
      <trkpt lat="43.86475" lon="7.25512">
        <ele>865</ele>
        <time>2013-03-10T11:31:39Z</time>
      </trkpt>
      <trkpt lat="43.86475" lon="7.25514">
        <ele>865</ele>
        <time>2013-03-10T11:31:40Z</time>
      </trkpt>
      <trkpt lat="43.86476" lon="7.25522">
        <ele>865</ele>
        <time>2013-03-10T11:31:44Z</time>
      </trkpt>
      <trkpt lat="43.86478" lon="7.25533">
        <ele>865</ele>
        <time>2013-03-10T11:31:49Z</time>
      </trkpt>
      <trkpt lat="43.86478" lon="7.25535">
        <ele>866</ele>
        <time>2013-03-10T11:31:50Z</time>
      </trkpt>
      <trkpt lat="43.86479" lon="7.25537">
        <ele>866</ele>
        <time>2013-03-10T11:31:51Z</time>
      </trkpt>
      <trkpt lat="43.86479" lon="7.2554">
        <ele>867</ele>
        <time>2013-03-10T11:31:52Z</time>
      </trkpt>
      <trkpt lat="43.86479" lon="7.25542">
        <ele>867</ele>
        <time>2013-03-10T11:31:53Z</time>
      </trkpt>
      <trkpt lat="43.86482" lon="7.25557">
        <ele>867</ele>
        <time>2013-03-10T11:32:00Z</time>
      </trkpt>
      <trkpt lat="43.86483" lon="7.25559">
        <ele>867</ele>
        <time>2013-03-10T11:32:01Z</time>
      </trkpt>
      <trkpt lat="43.86484" lon="7.25562">
        <ele>868</ele>
        <time>2013-03-10T11:32:02Z</time>
      </trkpt>
      <trkpt lat="43.86484" lon="7.25564">
        <ele>868</ele>
        <time>2013-03-10T11:32:03Z</time>
      </trkpt>
      <trkpt lat="43.86485" lon="7.25566">
        <ele>869</ele>
        <time>2013-03-10T11:32:04Z</time>
      </trkpt>
      <trkpt lat="43.86486" lon="7.25568">
        <ele>869</ele>
        <time>2013-03-10T11:32:05Z</time>
      </trkpt>
      <trkpt lat="43.86487" lon="7.25572">
        <ele>869</ele>
        <time>2013-03-10T11:32:07Z</time>
      </trkpt>
      <trkpt lat="43.86492" lon="7.25586">
        <ele>869</ele>
        <time>2013-03-10T11:32:14Z</time>
      </trkpt>
      <trkpt lat="43.86493" lon="7.25588">
        <ele>870</ele>
        <time>2013-03-10T11:32:15Z</time>
      </trkpt>
      <trkpt lat="43.86494" lon="7.2559">
        <ele>870</ele>
        <time>2013-03-10T11:32:16Z</time>
      </trkpt>
      <trkpt lat="43.86495" lon="7.25592">
        <ele>871</ele>
        <time>2013-03-10T11:32:17Z</time>
      </trkpt>
      <trkpt lat="43.86497" lon="7.25594">
        <ele>871</ele>
        <time>2013-03-10T11:32:18Z</time>
      </trkpt>
      <trkpt lat="43.86502" lon="7.25603">
        <ele>871</ele>
        <time>2013-03-10T11:32:23Z</time>
      </trkpt>
      <trkpt lat="43.86504" lon="7.25605">
        <ele>872</ele>
        <time>2013-03-10T11:32:25Z</time>
      </trkpt>
      <trkpt lat="43.86506" lon="7.25607">
        <ele>872</ele>
        <time>2013-03-10T11:32:26Z</time>
      </trkpt>
      <trkpt lat="43.86506" lon="7.25608">
        <ele>872</ele>
        <time>2013-03-10T11:32:27Z</time>
      </trkpt>
      <trkpt lat="43.86507" lon="7.2561">
        <ele>873</ele>
        <time>2013-03-10T11:32:28Z</time>
      </trkpt>
      <trkpt lat="43.86508" lon="7.25611">
        <ele>873</ele>
        <time>2013-03-10T11:32:29Z</time>
      </trkpt>
      <trkpt lat="43.86509" lon="7.25612">
        <ele>873</ele>
        <time>2013-03-10T11:32:30Z</time>
      </trkpt>
      <trkpt lat="43.86517" lon="7.25624">
        <ele>873</ele>
        <time>2013-03-10T11:32:37Z</time>
      </trkpt>
      <trkpt lat="43.86521" lon="7.2563">
        <ele>874</ele>
        <time>2013-03-10T11:32:41Z</time>
      </trkpt>
      <trkpt lat="43.86522" lon="7.25632">
        <ele>874</ele>
        <time>2013-03-10T11:32:42Z</time>
      </trkpt>
      <trkpt lat="43.86524" lon="7.25633">
        <ele>874</ele>
        <time>2013-03-10T11:32:43Z</time>
      </trkpt>
      <trkpt lat="43.86526" lon="7.25635">
        <ele>875</ele>
        <time>2013-03-10T11:32:44Z</time>
      </trkpt>
      <trkpt lat="43.86529" lon="7.25638">
        <ele>875</ele>
        <time>2013-03-10T11:32:46Z</time>
      </trkpt>
      <trkpt lat="43.86539" lon="7.25648">
        <ele>875</ele>
        <time>2013-03-10T11:32:53Z</time>
      </trkpt>
      <trkpt lat="43.86542" lon="7.25653">
        <ele>876</ele>
        <time>2013-03-10T11:32:56Z</time>
      </trkpt>
      <trkpt lat="43.86543" lon="7.25655">
        <ele>876</ele>
        <time>2013-03-10T11:32:57Z</time>
      </trkpt>
      <trkpt lat="43.86544" lon="7.25657">
        <ele>877</ele>
        <time>2013-03-10T11:32:58Z</time>
      </trkpt>
      <trkpt lat="43.86545" lon="7.25658">
        <ele>877</ele>
        <time>2013-03-10T11:32:59Z</time>
      </trkpt>
      <trkpt lat="43.86546" lon="7.2566">
        <ele>877</ele>
        <time>2013-03-10T11:33:00Z</time>
      </trkpt>
      <trkpt lat="43.86547" lon="7.25662">
        <ele>877</ele>
        <time>2013-03-10T11:33:01Z</time>
      </trkpt>
      <trkpt lat="43.86549" lon="7.25678">
        <ele>877</ele>
        <time>2013-03-10T11:33:09Z</time>
      </trkpt>
      <trkpt lat="43.8655" lon="7.2568">
        <ele>878</ele>
        <time>2013-03-10T11:33:10Z</time>
      </trkpt>
      <trkpt lat="43.86551" lon="7.25682">
        <ele>879</ele>
        <time>2013-03-10T11:33:11Z</time>
      </trkpt>
      <trkpt lat="43.86551" lon="7.25684">
        <ele>879</ele>
        <time>2013-03-10T11:33:12Z</time>
      </trkpt>
      <trkpt lat="43.86552" lon="7.25686">
        <ele>879</ele>
        <time>2013-03-10T11:33:13Z</time>
      </trkpt>
      <trkpt lat="43.86553" lon="7.25694">
        <ele>879</ele>
        <time>2013-03-10T11:33:16Z</time>
      </trkpt>
      <trkpt lat="43.86556" lon="7.25707">
        <ele>879</ele>
        <time>2013-03-10T11:33:22Z</time>
      </trkpt>
      <trkpt lat="43.86557" lon="7.25714">
        <ele>880</ele>
        <time>2013-03-10T11:33:25Z</time>
      </trkpt>
      <trkpt lat="43.86558" lon="7.25716">
        <ele>880</ele>
        <time>2013-03-10T11:33:26Z</time>
      </trkpt>
      <trkpt lat="43.86559" lon="7.25718">
        <ele>881</ele>
        <time>2013-03-10T11:33:27Z</time>
      </trkpt>
      <trkpt lat="43.86561" lon="7.2572">
        <ele>881</ele>
        <time>2013-03-10T11:33:28Z</time>
      </trkpt>
      <trkpt lat="43.86562" lon="7.25721">
        <ele>881</ele>
        <time>2013-03-10T11:33:29Z</time>
      </trkpt>
      <trkpt lat="43.86567" lon="7.25721">
        <ele>881</ele>
        <time>2013-03-10T11:33:32Z</time>
      </trkpt>
      <trkpt lat="43.8657" lon="7.25719">
        <ele>881</ele>
        <time>2013-03-10T11:33:34Z</time>
      </trkpt>
      <trkpt lat="43.86572" lon="7.25715">
        <ele>881</ele>
        <time>2013-03-10T11:33:36Z</time>
      </trkpt>
      <trkpt lat="43.86571" lon="7.25705">
        <ele>881</ele>
        <time>2013-03-10T11:33:40Z</time>
      </trkpt>
      <trkpt lat="43.86571" lon="7.257">
        <ele>882</ele>
        <time>2013-03-10T11:33:42Z</time>
      </trkpt>
      <trkpt lat="43.8657" lon="7.25698">
        <ele>882</ele>
        <time>2013-03-10T11:33:43Z</time>
      </trkpt>
      <trkpt lat="43.86569" lon="7.25696">
        <ele>883</ele>
        <time>2013-03-10T11:33:44Z</time>
      </trkpt>
      <trkpt lat="43.86569" lon="7.25694">
        <ele>883</ele>
        <time>2013-03-10T11:33:45Z</time>
      </trkpt>
      <trkpt lat="43.86569" lon="7.25692">
        <ele>884</ele>
        <time>2013-03-10T11:33:46Z</time>
      </trkpt>
      <trkpt lat="43.86568" lon="7.25687">
        <ele>884</ele>
        <time>2013-03-10T11:33:48Z</time>
      </trkpt>
      <trkpt lat="43.86567" lon="7.25667">
        <ele>884</ele>
        <time>2013-03-10T11:33:56Z</time>
      </trkpt>
      <trkpt lat="43.86567" lon="7.25665">
        <ele>885</ele>
        <time>2013-03-10T11:33:57Z</time>
      </trkpt>
      <trkpt lat="43.86566" lon="7.25663">
        <ele>885</ele>
        <time>2013-03-10T11:33:58Z</time>
      </trkpt>
      <trkpt lat="43.86566" lon="7.25661">
        <ele>886</ele>
        <time>2013-03-10T11:33:59Z</time>
      </trkpt>
      <trkpt lat="43.86563" lon="7.25648">
        <ele>886</ele>
        <time>2013-03-10T11:34:05Z</time>
      </trkpt>
      <trkpt lat="43.8656" lon="7.25642">
        <ele>886</ele>
        <time>2013-03-10T11:34:08Z</time>
      </trkpt>
      <trkpt lat="43.86559" lon="7.2564">
        <ele>887</ele>
        <time>2013-03-10T11:34:09Z</time>
      </trkpt>
      <trkpt lat="43.86558" lon="7.25638">
        <ele>887</ele>
        <time>2013-03-10T11:34:10Z</time>
      </trkpt>
      <trkpt lat="43.86557" lon="7.25636">
        <ele>887</ele>
        <time>2013-03-10T11:34:11Z</time>
      </trkpt>
      <trkpt lat="43.86556" lon="7.25634">
        <ele>888</ele>
        <time>2013-03-10T11:34:12Z</time>
      </trkpt>
      <trkpt lat="43.86555" lon="7.25632">
        <ele>888</ele>
        <time>2013-03-10T11:34:13Z</time>
      </trkpt>
      <trkpt lat="43.86547" lon="7.25616">
        <ele>888</ele>
        <time>2013-03-10T11:34:21Z</time>
      </trkpt>
      <trkpt lat="43.86546" lon="7.25614">
        <ele>889</ele>
        <time>2013-03-10T11:34:22Z</time>
      </trkpt>
      <trkpt lat="43.86546" lon="7.25612">
        <ele>890</ele>
        <time>2013-03-10T11:34:23Z</time>
      </trkpt>
      <trkpt lat="43.86546" lon="7.2561">
        <ele>890</ele>
        <time>2013-03-10T11:34:24Z</time>
      </trkpt>
      <trkpt lat="43.86544" lon="7.25601">
        <ele>890</ele>
        <time>2013-03-10T11:34:28Z</time>
      </trkpt>
      <trkpt lat="43.86545" lon="7.25594">
        <ele>890</ele>
        <time>2013-03-10T11:34:31Z</time>
      </trkpt>
      <trkpt lat="43.86544" lon="7.25592">
        <ele>891</ele>
        <time>2013-03-10T11:34:32Z</time>
      </trkpt>
      <trkpt lat="43.86544" lon="7.2559">
        <ele>891</ele>
        <time>2013-03-10T11:34:33Z</time>
      </trkpt>
      <trkpt lat="43.86544" lon="7.25587">
        <ele>892</ele>
        <time>2013-03-10T11:34:34Z</time>
      </trkpt>
      <trkpt lat="43.86544" lon="7.25585">
        <ele>892</ele>
        <time>2013-03-10T11:34:35Z</time>
      </trkpt>
      <trkpt lat="43.86544" lon="7.2558">
        <ele>892</ele>
        <time>2013-03-10T11:34:37Z</time>
      </trkpt>
      <trkpt lat="43.86543" lon="7.25569">
        <ele>892</ele>
        <time>2013-03-10T11:34:42Z</time>
      </trkpt>
      <trkpt lat="43.86543" lon="7.25566">
        <ele>893</ele>
        <time>2013-03-10T11:34:43Z</time>
      </trkpt>
      <trkpt lat="43.86543" lon="7.25564">
        <ele>893</ele>
        <time>2013-03-10T11:34:44Z</time>
      </trkpt>
      <trkpt lat="43.86543" lon="7.25562">
        <ele>894</ele>
        <time>2013-03-10T11:34:45Z</time>
      </trkpt>
      <trkpt lat="43.86543" lon="7.2556">
        <ele>894</ele>
        <time>2013-03-10T11:34:46Z</time>
      </trkpt>
      <trkpt lat="43.86543" lon="7.25552">
        <ele>894</ele>
        <time>2013-03-10T11:34:50Z</time>
      </trkpt>
      <trkpt lat="43.86544" lon="7.25545">
        <ele>894</ele>
        <time>2013-03-10T11:34:54Z</time>
      </trkpt>
      <trkpt lat="43.86545" lon="7.25533">
        <ele>894</ele>
        <time>2013-03-10T11:35:03Z</time>
      </trkpt>
      <trkpt lat="43.86545" lon="7.25531">
        <ele>895</ele>
        <time>2013-03-10T11:35:04Z</time>
      </trkpt>
      <trkpt lat="43.86545" lon="7.25529">
        <ele>895</ele>
        <time>2013-03-10T11:35:05Z</time>
      </trkpt>
      <trkpt lat="43.86545" lon="7.25528">
        <ele>896</ele>
        <time>2013-03-10T11:35:06Z</time>
      </trkpt>
      <trkpt lat="43.86545" lon="7.25526">
        <ele>896</ele>
        <time>2013-03-10T11:35:07Z</time>
      </trkpt>
      <trkpt lat="43.86546" lon="7.25519">
        <ele>896</ele>
        <time>2013-03-10T11:35:12Z</time>
      </trkpt>
      <trkpt lat="43.86547" lon="7.25507">
        <ele>897</ele>
        <time>2013-03-10T11:35:18Z</time>
      </trkpt>
      <trkpt lat="43.86547" lon="7.25505">
        <ele>897</ele>
        <time>2013-03-10T11:35:19Z</time>
      </trkpt>
      <trkpt lat="43.86547" lon="7.25503">
        <ele>897</ele>
        <time>2013-03-10T11:35:20Z</time>
      </trkpt>
      <trkpt lat="43.86547" lon="7.25501">
        <ele>898</ele>
        <time>2013-03-10T11:35:21Z</time>
      </trkpt>
      <trkpt lat="43.86548" lon="7.25499">
        <ele>898</ele>
        <time>2013-03-10T11:35:22Z</time>
      </trkpt>
      <trkpt lat="43.86547" lon="7.25488">
        <ele>898</ele>
        <time>2013-03-10T11:35:27Z</time>
      </trkpt>
      <trkpt lat="43.86547" lon="7.2547">
        <ele>899</ele>
        <time>2013-03-10T11:35:35Z</time>
      </trkpt>
      <trkpt lat="43.86547" lon="7.25468">
        <ele>899</ele>
        <time>2013-03-10T11:35:36Z</time>
      </trkpt>
      <trkpt lat="43.86546" lon="7.25466">
        <ele>900</ele>
        <time>2013-03-10T11:35:37Z</time>
      </trkpt>
      <trkpt lat="43.86546" lon="7.25464">
        <ele>900</ele>
        <time>2013-03-10T11:35:38Z</time>
      </trkpt>
      <trkpt lat="43.86545" lon="7.25457">
        <ele>900</ele>
        <time>2013-03-10T11:35:41Z</time>
      </trkpt>
      <trkpt lat="43.86544" lon="7.25446">
        <ele>901</ele>
        <time>2013-03-10T11:35:46Z</time>
      </trkpt>
      <trkpt lat="43.86543" lon="7.25444">
        <ele>901</ele>
        <time>2013-03-10T11:35:47Z</time>
      </trkpt>
      <trkpt lat="43.86543" lon="7.25442">
        <ele>902</ele>
        <time>2013-03-10T11:35:48Z</time>
      </trkpt>
      <trkpt lat="43.86542" lon="7.2544">
        <ele>902</ele>
        <time>2013-03-10T11:35:49Z</time>
      </trkpt>
      <trkpt lat="43.86542" lon="7.25438">
        <ele>902</ele>
        <time>2013-03-10T11:35:50Z</time>
      </trkpt>
      <trkpt lat="43.86541" lon="7.25421">
        <ele>902</ele>
        <time>2013-03-10T11:35:58Z</time>
      </trkpt>
      <trkpt lat="43.8654" lon="7.25416">
        <ele>903</ele>
        <time>2013-03-10T11:36:00Z</time>
      </trkpt>
      <trkpt lat="43.8654" lon="7.25414">
        <ele>904</ele>
        <time>2013-03-10T11:36:01Z</time>
      </trkpt>
      <trkpt lat="43.8654" lon="7.25412">
        <ele>904</ele>
        <time>2013-03-10T11:36:02Z</time>
      </trkpt>
      <trkpt lat="43.8654" lon="7.2541">
        <ele>905</ele>
        <time>2013-03-10T11:36:03Z</time>
      </trkpt>
      <trkpt lat="43.86539" lon="7.25406">
        <ele>905</ele>
        <time>2013-03-10T11:36:05Z</time>
      </trkpt>
      <trkpt lat="43.86537" lon="7.25394">
        <ele>905</ele>
        <time>2013-03-10T11:36:11Z</time>
      </trkpt>
      <trkpt lat="43.86537" lon="7.25392">
        <ele>905</ele>
        <time>2013-03-10T11:36:12Z</time>
      </trkpt>
      <trkpt lat="43.86536" lon="7.2539">
        <ele>906</ele>
        <time>2013-03-10T11:36:13Z</time>
      </trkpt>
      <trkpt lat="43.86536" lon="7.25388">
        <ele>906</ele>
        <time>2013-03-10T11:36:14Z</time>
      </trkpt>
      <trkpt lat="43.86536" lon="7.25387">
        <ele>907</ele>
        <time>2013-03-10T11:36:15Z</time>
      </trkpt>
      <trkpt lat="43.86533" lon="7.25376">
        <ele>907</ele>
        <time>2013-03-10T11:36:21Z</time>
      </trkpt>
      <trkpt lat="43.8653" lon="7.25358">
        <ele>907</ele>
        <time>2013-03-10T11:36:29Z</time>
      </trkpt>
      <trkpt lat="43.8653" lon="7.25356">
        <ele>907</ele>
        <time>2013-03-10T11:36:30Z</time>
      </trkpt>
      <trkpt lat="43.86529" lon="7.25353">
        <ele>907</ele>
        <time>2013-03-10T11:36:31Z</time>
      </trkpt>
      <trkpt lat="43.86529" lon="7.25351">
        <ele>908</ele>
        <time>2013-03-10T11:36:32Z</time>
      </trkpt>
      <trkpt lat="43.86529" lon="7.2535">
        <ele>908</ele>
        <time>2013-03-10T11:36:33Z</time>
      </trkpt>
      <trkpt lat="43.86528" lon="7.25348">
        <ele>909</ele>
        <time>2013-03-10T11:36:34Z</time>
      </trkpt>
      <trkpt lat="43.86527" lon="7.2534">
        <ele>909</ele>
        <time>2013-03-10T11:36:38Z</time>
      </trkpt>
      <trkpt lat="43.86526" lon="7.25331">
        <ele>909</ele>
        <time>2013-03-10T11:36:42Z</time>
      </trkpt>
      <trkpt lat="43.86526" lon="7.25329">
        <ele>910</ele>
        <time>2013-03-10T11:36:43Z</time>
      </trkpt>
      <trkpt lat="43.86525" lon="7.25327">
        <ele>910</ele>
        <time>2013-03-10T11:36:44Z</time>
      </trkpt>
      <trkpt lat="43.86525" lon="7.25325">
        <ele>910</ele>
        <time>2013-03-10T11:36:45Z</time>
      </trkpt>
      <trkpt lat="43.86525" lon="7.25323">
        <ele>911</ele>
        <time>2013-03-10T11:36:46Z</time>
      </trkpt>
      <trkpt lat="43.86523" lon="7.25308">
        <ele>911</ele>
        <time>2013-03-10T11:36:54Z</time>
      </trkpt>
      <trkpt lat="43.86524" lon="7.25303">
        <ele>911</ele>
        <time>2013-03-10T11:36:57Z</time>
      </trkpt>
      <trkpt lat="43.86527" lon="7.25303">
        <ele>911</ele>
        <time>2013-03-10T11:36:59Z</time>
      </trkpt>
      <trkpt lat="43.8653" lon="7.25306">
        <ele>911</ele>
        <time>2013-03-10T11:37:01Z</time>
      </trkpt>
      <trkpt lat="43.86532" lon="7.25309">
        <ele>911</ele>
        <time>2013-03-10T11:37:03Z</time>
      </trkpt>
      <trkpt lat="43.86533" lon="7.25311">
        <ele>912</ele>
        <time>2013-03-10T11:37:04Z</time>
      </trkpt>
      <trkpt lat="43.86534" lon="7.25313">
        <ele>912</ele>
        <time>2013-03-10T11:37:05Z</time>
      </trkpt>
      <trkpt lat="43.86534" lon="7.25314">
        <ele>913</ele>
        <time>2013-03-10T11:37:06Z</time>
      </trkpt>
      <trkpt lat="43.86534" lon="7.25316">
        <ele>913</ele>
        <time>2013-03-10T11:37:07Z</time>
      </trkpt>
      <trkpt lat="43.86535" lon="7.25318">
        <ele>913</ele>
        <time>2013-03-10T11:37:08Z</time>
      </trkpt>
      <trkpt lat="43.86535" lon="7.2532">
        <ele>913</ele>
        <time>2013-03-10T11:37:09Z</time>
      </trkpt>
      <trkpt lat="43.86537" lon="7.25333">
        <ele>914</ele>
        <time>2013-03-10T11:37:15Z</time>
      </trkpt>
      <trkpt lat="43.86537" lon="7.25335">
        <ele>914</ele>
        <time>2013-03-10T11:37:16Z</time>
      </trkpt>
      <trkpt lat="43.86537" lon="7.25337">
        <ele>915</ele>
        <time>2013-03-10T11:37:17Z</time>
      </trkpt>
      <trkpt lat="43.86538" lon="7.25339">
        <ele>915</ele>
        <time>2013-03-10T11:37:18Z</time>
      </trkpt>
      <trkpt lat="43.8654" lon="7.25354">
        <ele>915</ele>
        <time>2013-03-10T11:37:25Z</time>
      </trkpt>
      <trkpt lat="43.86542" lon="7.25363">
        <ele>916</ele>
        <time>2013-03-10T11:37:29Z</time>
      </trkpt>
      <trkpt lat="43.86543" lon="7.25365">
        <ele>916</ele>
        <time>2013-03-10T11:37:30Z</time>
      </trkpt>
      <trkpt lat="43.86543" lon="7.25367">
        <ele>917</ele>
        <time>2013-03-10T11:37:31Z</time>
      </trkpt>
      <trkpt lat="43.86544" lon="7.25369">
        <ele>917</ele>
        <time>2013-03-10T11:37:32Z</time>
      </trkpt>
      <trkpt lat="43.86544" lon="7.25371">
        <ele>917</ele>
        <time>2013-03-10T11:37:33Z</time>
      </trkpt>
      <trkpt lat="43.86549" lon="7.25385">
        <ele>917</ele>
        <time>2013-03-10T11:37:40Z</time>
      </trkpt>
      <trkpt lat="43.86551" lon="7.2539">
        <ele>918</ele>
        <time>2013-03-10T11:37:42Z</time>
      </trkpt>
      <trkpt lat="43.86551" lon="7.25392">
        <ele>918</ele>
        <time>2013-03-10T11:37:43Z</time>
      </trkpt>
      <trkpt lat="43.86552" lon="7.25393">
        <ele>919</ele>
        <time>2013-03-10T11:37:44Z</time>
      </trkpt>
      <trkpt lat="43.86553" lon="7.25395">
        <ele>919</ele>
        <time>2013-03-10T11:37:45Z</time>
      </trkpt>
      <trkpt lat="43.86554" lon="7.25397">
        <ele>919</ele>
        <time>2013-03-10T11:37:46Z</time>
      </trkpt>
      <trkpt lat="43.86557" lon="7.25403">
        <ele>919</ele>
        <time>2013-03-10T11:37:49Z</time>
      </trkpt>
      <trkpt lat="43.86564" lon="7.25416">
        <ele>920</ele>
        <time>2013-03-10T11:37:56Z</time>
      </trkpt>
      <trkpt lat="43.86565" lon="7.25418">
        <ele>920</ele>
        <time>2013-03-10T11:37:57Z</time>
      </trkpt>
      <trkpt lat="43.86565" lon="7.2542">
        <ele>921</ele>
        <time>2013-03-10T11:37:58Z</time>
      </trkpt>
      <trkpt lat="43.86566" lon="7.25422">
        <ele>921</ele>
        <time>2013-03-10T11:37:59Z</time>
      </trkpt>
      <trkpt lat="43.86567" lon="7.25423">
        <ele>922</ele>
        <time>2013-03-10T11:38:00Z</time>
      </trkpt>
      <trkpt lat="43.8657" lon="7.25428">
        <ele>922</ele>
        <time>2013-03-10T11:38:03Z</time>
      </trkpt>
      <trkpt lat="43.86576" lon="7.25441">
        <ele>922</ele>
        <time>2013-03-10T11:38:10Z</time>
      </trkpt>
      <trkpt lat="43.86577" lon="7.25443">
        <ele>922</ele>
        <time>2013-03-10T11:38:11Z</time>
      </trkpt>
      <trkpt lat="43.86577" lon="7.25445">
        <ele>923</ele>
        <time>2013-03-10T11:38:12Z</time>
      </trkpt>
      <trkpt lat="43.86578" lon="7.25446">
        <ele>923</ele>
        <time>2013-03-10T11:38:13Z</time>
      </trkpt>
      <trkpt lat="43.86579" lon="7.25448">
        <ele>924</ele>
        <time>2013-03-10T11:38:14Z</time>
      </trkpt>
      <trkpt lat="43.86585" lon="7.25459">
        <ele>924</ele>
        <time>2013-03-10T11:38:20Z</time>
      </trkpt>
      <trkpt lat="43.86587" lon="7.25462">
        <ele>924</ele>
        <time>2013-03-10T11:38:22Z</time>
      </trkpt>
      <trkpt lat="43.86589" lon="7.25464">
        <ele>925</ele>
        <time>2013-03-10T11:38:23Z</time>
      </trkpt>
      <trkpt lat="43.8659" lon="7.25466">
        <ele>925</ele>
        <time>2013-03-10T11:38:24Z</time>
      </trkpt>
      <trkpt lat="43.86591" lon="7.25467">
        <ele>925</ele>
        <time>2013-03-10T11:38:25Z</time>
      </trkpt>
      <trkpt lat="43.86592" lon="7.25469">
        <ele>926</ele>
        <time>2013-03-10T11:38:26Z</time>
      </trkpt>
      <trkpt lat="43.86594" lon="7.25472">
        <ele>926</ele>
        <time>2013-03-10T11:38:28Z</time>
      </trkpt>
      <trkpt lat="43.866" lon="7.25483">
        <ele>926</ele>
        <time>2013-03-10T11:38:34Z</time>
      </trkpt>
      <trkpt lat="43.866" lon="7.25485">
        <ele>927</ele>
        <time>2013-03-10T11:38:35Z</time>
      </trkpt>
      <trkpt lat="43.86601" lon="7.25487">
        <ele>927</ele>
        <time>2013-03-10T11:38:36Z</time>
      </trkpt>
      <trkpt lat="43.86602" lon="7.25489">
        <ele>927</ele>
        <time>2013-03-10T11:38:37Z</time>
      </trkpt>
      <trkpt lat="43.86603" lon="7.25491">
        <ele>928</ele>
        <time>2013-03-10T11:38:38Z</time>
      </trkpt>
      <trkpt lat="43.86606" lon="7.25501">
        <ele>928</ele>
        <time>2013-03-10T11:38:43Z</time>
      </trkpt>
      <trkpt lat="43.86607" lon="7.2551">
        <ele>928</ele>
        <time>2013-03-10T11:38:47Z</time>
      </trkpt>
      <trkpt lat="43.86607" lon="7.25512">
        <ele>929</ele>
        <time>2013-03-10T11:38:48Z</time>
      </trkpt>
      <trkpt lat="43.86608" lon="7.25514">
        <ele>929</ele>
        <time>2013-03-10T11:38:49Z</time>
      </trkpt>
      <trkpt lat="43.86609" lon="7.25516">
        <ele>929</ele>
        <time>2013-03-10T11:38:50Z</time>
      </trkpt>
      <trkpt lat="43.86609" lon="7.25518">
        <ele>930</ele>
        <time>2013-03-10T11:38:51Z</time>
      </trkpt>
      <trkpt lat="43.86616" lon="7.25534">
        <ele>930</ele>
        <time>2013-03-10T11:38:59Z</time>
      </trkpt>
      <trkpt lat="43.86616" lon="7.25536">
        <ele>931</ele>
        <time>2013-03-10T11:39:00Z</time>
      </trkpt>
      <trkpt lat="43.86617" lon="7.25539">
        <ele>931</ele>
        <time>2013-03-10T11:39:01Z</time>
      </trkpt>
      <trkpt lat="43.86618" lon="7.2554">
        <ele>931</ele>
        <time>2013-03-10T11:39:02Z</time>
      </trkpt>
      <trkpt lat="43.86618" lon="7.25542">
        <ele>932</ele>
        <time>2013-03-10T11:39:03Z</time>
      </trkpt>
      <trkpt lat="43.86622" lon="7.25551">
        <ele>932</ele>
        <time>2013-03-10T11:39:07Z</time>
      </trkpt>
      <trkpt lat="43.86627" lon="7.25563">
        <ele>932</ele>
        <time>2013-03-10T11:39:13Z</time>
      </trkpt>
      <trkpt lat="43.86629" lon="7.25567">
        <ele>932</ele>
        <time>2013-03-10T11:39:15Z</time>
      </trkpt>
      <trkpt lat="43.8663" lon="7.25569">
        <ele>933</ele>
        <time>2013-03-10T11:39:16Z</time>
      </trkpt>
      <trkpt lat="43.86631" lon="7.25572">
        <ele>933</ele>
        <time>2013-03-10T11:39:17Z</time>
      </trkpt>
      <trkpt lat="43.86632" lon="7.25574">
        <ele>934</ele>
        <time>2013-03-10T11:39:18Z</time>
      </trkpt>
      <trkpt lat="43.86633" lon="7.25576">
        <ele>934</ele>
        <time>2013-03-10T11:39:19Z</time>
      </trkpt>
      <trkpt lat="43.86634" lon="7.25578">
        <ele>934</ele>
        <time>2013-03-10T11:39:20Z</time>
      </trkpt>
      <trkpt lat="43.86637" lon="7.25586">
        <ele>934</ele>
        <time>2013-03-10T11:39:24Z</time>
      </trkpt>
      <trkpt lat="43.86638" lon="7.25587">
        <ele>935</ele>
        <time>2013-03-10T11:39:25Z</time>
      </trkpt>
      <trkpt lat="43.86639" lon="7.25589">
        <ele>935</ele>
        <time>2013-03-10T11:39:26Z</time>
      </trkpt>
      <trkpt lat="43.8664" lon="7.25592">
        <ele>936</ele>
        <time>2013-03-10T11:39:27Z</time>
      </trkpt>
      <trkpt lat="43.86641" lon="7.25594">
        <ele>936</ele>
        <time>2013-03-10T11:39:28Z</time>
      </trkpt>
      <trkpt lat="43.86641" lon="7.25596">
        <ele>936</ele>
        <time>2013-03-10T11:39:29Z</time>
      </trkpt>
      <trkpt lat="43.86646" lon="7.25607">
        <ele>936</ele>
        <time>2013-03-10T11:39:35Z</time>
      </trkpt>
      <trkpt lat="43.86647" lon="7.25609">
        <ele>937</ele>
        <time>2013-03-10T11:39:36Z</time>
      </trkpt>
      <trkpt lat="43.86648" lon="7.25611">
        <ele>937</ele>
        <time>2013-03-10T11:39:37Z</time>
      </trkpt>
      <trkpt lat="43.86649" lon="7.25613">
        <ele>938</ele>
        <time>2013-03-10T11:39:38Z</time>
      </trkpt>
      <trkpt lat="43.86649" lon="7.25615">
        <ele>938</ele>
        <time>2013-03-10T11:39:39Z</time>
      </trkpt>
      <trkpt lat="43.86652" lon="7.25622">
        <ele>938</ele>
        <time>2013-03-10T11:39:42Z</time>
      </trkpt>
      <trkpt lat="43.86657" lon="7.25635">
        <ele>939</ele>
        <time>2013-03-10T11:39:49Z</time>
      </trkpt>
      <trkpt lat="43.86658" lon="7.25637">
        <ele>939</ele>
        <time>2013-03-10T11:39:50Z</time>
      </trkpt>
      <trkpt lat="43.86659" lon="7.25639">
        <ele>939</ele>
        <time>2013-03-10T11:39:51Z</time>
      </trkpt>
      <trkpt lat="43.86659" lon="7.25641">
        <ele>940</ele>
        <time>2013-03-10T11:39:52Z</time>
      </trkpt>
      <trkpt lat="43.8666" lon="7.25643">
        <ele>940</ele>
        <time>2013-03-10T11:39:53Z</time>
      </trkpt>
      <trkpt lat="43.86662" lon="7.25648">
        <ele>940</ele>
        <time>2013-03-10T11:39:56Z</time>
      </trkpt>
      <trkpt lat="43.86667" lon="7.2566">
        <ele>941</ele>
        <time>2013-03-10T11:40:02Z</time>
      </trkpt>
      <trkpt lat="43.86668" lon="7.25662">
        <ele>941</ele>
        <time>2013-03-10T11:40:03Z</time>
      </trkpt>
      <trkpt lat="43.86669" lon="7.25664">
        <ele>942</ele>
        <time>2013-03-10T11:40:04Z</time>
      </trkpt>
      <trkpt lat="43.8667" lon="7.25666">
        <ele>942</ele>
        <time>2013-03-10T11:40:05Z</time>
      </trkpt>
      <trkpt lat="43.86671" lon="7.25668">
        <ele>942</ele>
        <time>2013-03-10T11:40:06Z</time>
      </trkpt>
      <trkpt lat="43.86677" lon="7.25679">
        <ele>942</ele>
        <time>2013-03-10T11:40:12Z</time>
      </trkpt>
      <trkpt lat="43.8668" lon="7.25684">
        <ele>943</ele>
        <time>2013-03-10T11:40:15Z</time>
      </trkpt>
      <trkpt lat="43.86682" lon="7.25686">
        <ele>943</ele>
        <time>2013-03-10T11:40:16Z</time>
      </trkpt>
      <trkpt lat="43.86683" lon="7.25688">
        <ele>944</ele>
        <time>2013-03-10T11:40:17Z</time>
      </trkpt>
      <trkpt lat="43.86684" lon="7.25689">
        <ele>944</ele>
        <time>2013-03-10T11:40:18Z</time>
      </trkpt>
      <trkpt lat="43.86685" lon="7.25691">
        <ele>944</ele>
        <time>2013-03-10T11:40:19Z</time>
      </trkpt>
      <trkpt lat="43.86687" lon="7.25692">
        <ele>944</ele>
        <time>2013-03-10T11:40:20Z</time>
      </trkpt>
      <trkpt lat="43.86696" lon="7.25705">
        <ele>944</ele>
        <time>2013-03-10T11:40:27Z</time>
      </trkpt>
      <trkpt lat="43.86699" lon="7.2571">
        <ele>945</ele>
        <time>2013-03-10T11:40:30Z</time>
      </trkpt>
      <trkpt lat="43.867" lon="7.25712">
        <ele>945</ele>
        <time>2013-03-10T11:40:31Z</time>
      </trkpt>
      <trkpt lat="43.86701" lon="7.25714">
        <ele>946</ele>
        <time>2013-03-10T11:40:32Z</time>
      </trkpt>
      <trkpt lat="43.86701" lon="7.25716">
        <ele>946</ele>
        <time>2013-03-10T11:40:33Z</time>
      </trkpt>
      <trkpt lat="43.86702" lon="7.25718">
        <ele>947</ele>
        <time>2013-03-10T11:40:34Z</time>
      </trkpt>
      <trkpt lat="43.86709" lon="7.25738">
        <ele>947</ele>
        <time>2013-03-10T11:40:43Z</time>
      </trkpt>
      <trkpt lat="43.86712" lon="7.2575">
        <ele>947</ele>
        <time>2013-03-10T11:40:48Z</time>
      </trkpt>
      <trkpt lat="43.86713" lon="7.25752">
        <ele>948</ele>
        <time>2013-03-10T11:40:49Z</time>
      </trkpt>
      <trkpt lat="43.86714" lon="7.25755">
        <ele>948</ele>
        <time>2013-03-10T11:40:50Z</time>
      </trkpt>
      <trkpt lat="43.86714" lon="7.25757">
        <ele>948</ele>
        <time>2013-03-10T11:40:51Z</time>
      </trkpt>
      <trkpt lat="43.86715" lon="7.25759">
        <ele>949</ele>
        <time>2013-03-10T11:40:52Z</time>
      </trkpt>
      <trkpt lat="43.8672" lon="7.25773">
        <ele>949</ele>
        <time>2013-03-10T11:40:59Z</time>
      </trkpt>
      <trkpt lat="43.86721" lon="7.25775">
        <ele>949</ele>
        <time>2013-03-10T11:41:00Z</time>
      </trkpt>
      <trkpt lat="43.86722" lon="7.25777">
        <ele>950</ele>
        <time>2013-03-10T11:41:01Z</time>
      </trkpt>
      <trkpt lat="43.86723" lon="7.25779">
        <ele>950</ele>
        <time>2013-03-10T11:41:02Z</time>
      </trkpt>
      <trkpt lat="43.86724" lon="7.25781">
        <ele>950</ele>
        <time>2013-03-10T11:41:03Z</time>
      </trkpt>
      <trkpt lat="43.86725" lon="7.25783">
        <ele>951</ele>
        <time>2013-03-10T11:41:04Z</time>
      </trkpt>
      <trkpt lat="43.86726" lon="7.25785">
        <ele>951</ele>
        <time>2013-03-10T11:41:05Z</time>
      </trkpt>
      <trkpt lat="43.86733" lon="7.25801">
        <ele>951</ele>
        <time>2013-03-10T11:41:13Z</time>
      </trkpt>
      <trkpt lat="43.86734" lon="7.25803">
        <ele>951</ele>
        <time>2013-03-10T11:41:14Z</time>
      </trkpt>
      <trkpt lat="43.86734" lon="7.25805">
        <ele>952</ele>
        <time>2013-03-10T11:41:15Z</time>
      </trkpt>
      <trkpt lat="43.86735" lon="7.25806">
        <ele>952</ele>
        <time>2013-03-10T11:41:16Z</time>
      </trkpt>
      <trkpt lat="43.86736" lon="7.25808">
        <ele>953</ele>
        <time>2013-03-10T11:41:17Z</time>
      </trkpt>
      <trkpt lat="43.86737" lon="7.2581">
        <ele>953</ele>
        <time>2013-03-10T11:41:18Z</time>
      </trkpt>
      <trkpt lat="43.86739" lon="7.25815">
        <ele>953</ele>
        <time>2013-03-10T11:41:21Z</time>
      </trkpt>
      <trkpt lat="43.86745" lon="7.25828">
        <ele>954</ele>
        <time>2013-03-10T11:41:28Z</time>
      </trkpt>
      <trkpt lat="43.86746" lon="7.2583">
        <ele>954</ele>
        <time>2013-03-10T11:41:29Z</time>
      </trkpt>
      <trkpt lat="43.86746" lon="7.25832">
        <ele>954</ele>
        <time>2013-03-10T11:41:30Z</time>
      </trkpt>
      <trkpt lat="43.86747" lon="7.25834">
        <ele>955</ele>
        <time>2013-03-10T11:41:31Z</time>
      </trkpt>
      <trkpt lat="43.86747" lon="7.25836">
        <ele>955</ele>
        <time>2013-03-10T11:41:32Z</time>
      </trkpt>
      <trkpt lat="43.86749" lon="7.25841">
        <ele>955</ele>
        <time>2013-03-10T11:41:35Z</time>
      </trkpt>
      <trkpt lat="43.8675" lon="7.25842">
        <ele>955</ele>
        <time>2013-03-10T11:41:36Z</time>
      </trkpt>
      <trkpt lat="43.86756" lon="7.2585">
        <ele>956</ele>
        <time>2013-03-10T11:41:41Z</time>
      </trkpt>
      <trkpt lat="43.86757" lon="7.25851">
        <ele>956</ele>
        <time>2013-03-10T11:41:42Z</time>
      </trkpt>
      <trkpt lat="43.86759" lon="7.25851">
        <ele>956</ele>
        <time>2013-03-10T11:41:43Z</time>
      </trkpt>
      <trkpt lat="43.8676" lon="7.25852">
        <ele>957</ele>
        <time>2013-03-10T11:41:44Z</time>
      </trkpt>
      <trkpt lat="43.86762" lon="7.25853">
        <ele>957</ele>
        <time>2013-03-10T11:41:45Z</time>
      </trkpt>
      <trkpt lat="43.86766" lon="7.25856">
        <ele>957</ele>
        <time>2013-03-10T11:41:48Z</time>
      </trkpt>
      <trkpt lat="43.8677" lon="7.25858">
        <ele>958</ele>
        <time>2013-03-10T11:41:51Z</time>
      </trkpt>
      <trkpt lat="43.86772" lon="7.25859">
        <ele>958</ele>
        <time>2013-03-10T11:41:52Z</time>
      </trkpt>
      <trkpt lat="43.86773" lon="7.2586">
        <ele>958</ele>
        <time>2013-03-10T11:41:53Z</time>
      </trkpt>
      <trkpt lat="43.86774" lon="7.25861">
        <ele>959</ele>
        <time>2013-03-10T11:41:54Z</time>
      </trkpt>
      <trkpt lat="43.86775" lon="7.25862">
        <ele>959</ele>
        <time>2013-03-10T11:41:55Z</time>
      </trkpt>
      <trkpt lat="43.86787" lon="7.25871">
        <ele>959</ele>
        <time>2013-03-10T11:42:03Z</time>
      </trkpt>
      <trkpt lat="43.86791" lon="7.25876">
        <ele>960</ele>
        <time>2013-03-10T11:42:06Z</time>
      </trkpt>
      <trkpt lat="43.86792" lon="7.25877">
        <ele>960</ele>
        <time>2013-03-10T11:42:07Z</time>
      </trkpt>
      <trkpt lat="43.86793" lon="7.25878">
        <ele>961</ele>
        <time>2013-03-10T11:42:08Z</time>
      </trkpt>
      <trkpt lat="43.86795" lon="7.25879">
        <ele>961</ele>
        <time>2013-03-10T11:42:09Z</time>
      </trkpt>
      <trkpt lat="43.86796" lon="7.2588">
        <ele>962</ele>
        <time>2013-03-10T11:42:10Z</time>
      </trkpt>
      <trkpt lat="43.86805" lon="7.25886">
        <ele>962</ele>
        <time>2013-03-10T11:42:16Z</time>
      </trkpt>
      <trkpt lat="43.86807" lon="7.25886">
        <ele>962</ele>
        <time>2013-03-10T11:42:17Z</time>
      </trkpt>
      <trkpt lat="43.86809" lon="7.25887">
        <ele>963</ele>
        <time>2013-03-10T11:42:18Z</time>
      </trkpt>
      <trkpt lat="43.8681" lon="7.25888">
        <ele>963</ele>
        <time>2013-03-10T11:42:19Z</time>
      </trkpt>
      <trkpt lat="43.86812" lon="7.25889">
        <ele>964</ele>
        <time>2013-03-10T11:42:20Z</time>
      </trkpt>
      <trkpt lat="43.8682" lon="7.25894">
        <ele>964</ele>
        <time>2013-03-10T11:42:25Z</time>
      </trkpt>
      <trkpt lat="43.86824" lon="7.25899">
        <ele>964</ele>
        <time>2013-03-10T11:42:29Z</time>
      </trkpt>
      <trkpt lat="43.86825" lon="7.25901">
        <ele>964</ele>
        <time>2013-03-10T11:42:30Z</time>
      </trkpt>
      <trkpt lat="43.86826" lon="7.25903">
        <ele>965</ele>
        <time>2013-03-10T11:42:31Z</time>
      </trkpt>
      <trkpt lat="43.86826" lon="7.25905">
        <ele>965</ele>
        <time>2013-03-10T11:42:32Z</time>
      </trkpt>
      <trkpt lat="43.86826" lon="7.25908">
        <ele>966</ele>
        <time>2013-03-10T11:42:33Z</time>
      </trkpt>
      <trkpt lat="43.86827" lon="7.25917">
        <ele>966</ele>
        <time>2013-03-10T11:42:38Z</time>
      </trkpt>
      <trkpt lat="43.86827" lon="7.25919">
        <ele>967</ele>
        <time>2013-03-10T11:42:39Z</time>
      </trkpt>
      <trkpt lat="43.86827" lon="7.25921">
        <ele>967</ele>
        <time>2013-03-10T11:42:40Z</time>
      </trkpt>
      <trkpt lat="43.86827" lon="7.25923">
        <ele>967</ele>
        <time>2013-03-10T11:42:41Z</time>
      </trkpt>
      <trkpt lat="43.86827" lon="7.25925">
        <ele>968</ele>
        <time>2013-03-10T11:42:42Z</time>
      </trkpt>
      <trkpt lat="43.86824" lon="7.25936">
        <ele>968</ele>
        <time>2013-03-10T11:42:47Z</time>
      </trkpt>
      <trkpt lat="43.86821" lon="7.25941">
        <ele>968</ele>
        <time>2013-03-10T11:42:50Z</time>
      </trkpt>
      <trkpt lat="43.8682" lon="7.25943">
        <ele>969</ele>
        <time>2013-03-10T11:42:51Z</time>
      </trkpt>
      <trkpt lat="43.86819" lon="7.25944">
        <ele>969</ele>
        <time>2013-03-10T11:42:52Z</time>
      </trkpt>
      <trkpt lat="43.86818" lon="7.25946">
        <ele>969</ele>
        <time>2013-03-10T11:42:53Z</time>
      </trkpt>
      <trkpt lat="43.86818" lon="7.25948">
        <ele>970</ele>
        <time>2013-03-10T11:42:54Z</time>
      </trkpt>
      <trkpt lat="43.86817" lon="7.2595">
        <ele>970</ele>
        <time>2013-03-10T11:42:55Z</time>
      </trkpt>
      <trkpt lat="43.86811" lon="7.25962">
        <ele>970</ele>
        <time>2013-03-10T11:43:02Z</time>
      </trkpt>
      <trkpt lat="43.8681" lon="7.25964">
        <ele>971</ele>
        <time>2013-03-10T11:43:03Z</time>
      </trkpt>
      <trkpt lat="43.86809" lon="7.25965">
        <ele>971</ele>
        <time>2013-03-10T11:43:04Z</time>
      </trkpt>
      <trkpt lat="43.86808" lon="7.25967">
        <ele>972</ele>
        <time>2013-03-10T11:43:05Z</time>
      </trkpt>
      <trkpt lat="43.86807" lon="7.25969">
        <ele>972</ele>
        <time>2013-03-10T11:43:06Z</time>
      </trkpt>
      <trkpt lat="43.86805" lon="7.25973">
        <ele>972</ele>
        <time>2013-03-10T11:43:08Z</time>
      </trkpt>
      <trkpt lat="43.86796" lon="7.25988">
        <ele>972</ele>
        <time>2013-03-10T11:43:17Z</time>
      </trkpt>
      <trkpt lat="43.86795" lon="7.2599">
        <ele>973</ele>
        <time>2013-03-10T11:43:18Z</time>
      </trkpt>
      <trkpt lat="43.86794" lon="7.25991">
        <ele>973</ele>
        <time>2013-03-10T11:43:19Z</time>
      </trkpt>
      <trkpt lat="43.86793" lon="7.25994">
        <ele>974</ele>
        <time>2013-03-10T11:43:20Z</time>
      </trkpt>
      <trkpt lat="43.86793" lon="7.25996">
        <ele>974</ele>
        <time>2013-03-10T11:43:21Z</time>
      </trkpt>
      <trkpt lat="43.86793" lon="7.25997">
        <ele>974</ele>
        <time>2013-03-10T11:43:22Z</time>
      </trkpt>
      <trkpt lat="43.86793" lon="7.26001">
        <ele>974</ele>
        <time>2013-03-10T11:43:24Z</time>
      </trkpt>
      <trkpt lat="43.86796" lon="7.26007">
        <ele>974</ele>
        <time>2013-03-10T11:43:29Z</time>
      </trkpt>
      <trkpt lat="43.86798" lon="7.26008">
        <ele>974</ele>
        <time>2013-03-10T11:43:31Z</time>
      </trkpt>
      <trkpt lat="43.86803" lon="7.26008">
        <ele>974</ele>
        <time>2013-03-10T11:43:37Z</time>
      </trkpt>
      <trkpt lat="43.86804" lon="7.26007">
        <ele>974</ele>
        <time>2013-03-10T11:43:38Z</time>
      </trkpt>
      <trkpt lat="43.86808" lon="7.26003">
        <ele>974</ele>
        <time>2013-03-10T11:43:42Z</time>
      </trkpt>
      <trkpt lat="43.86809" lon="7.26002">
        <ele>975</ele>
        <time>2013-03-10T11:43:43Z</time>
      </trkpt>
      <trkpt lat="43.8681" lon="7.26">
        <ele>975</ele>
        <time>2013-03-10T11:43:44Z</time>
      </trkpt>
      <trkpt lat="43.86811" lon="7.25999">
        <ele>976</ele>
        <time>2013-03-10T11:43:45Z</time>
      </trkpt>
      <trkpt lat="43.86812" lon="7.25997">
        <ele>976</ele>
        <time>2013-03-10T11:43:46Z</time>
      </trkpt>
      <trkpt lat="43.86817" lon="7.25987">
        <ele>976</ele>
        <time>2013-03-10T11:43:52Z</time>
      </trkpt>
      <trkpt lat="43.86823" lon="7.25972">
        <ele>976</ele>
        <time>2013-03-10T11:44:00Z</time>
      </trkpt>
      <trkpt lat="43.86824" lon="7.25971">
        <ele>977</ele>
        <time>2013-03-10T11:44:01Z</time>
      </trkpt>
      <trkpt lat="43.86825" lon="7.25969">
        <ele>977</ele>
        <time>2013-03-10T11:44:02Z</time>
      </trkpt>
      <trkpt lat="43.86825" lon="7.25967">
        <ele>978</ele>
        <time>2013-03-10T11:44:03Z</time>
      </trkpt>
      <trkpt lat="43.86826" lon="7.25966">
        <ele>978</ele>
        <time>2013-03-10T11:44:04Z</time>
      </trkpt>
      <trkpt lat="43.86828" lon="7.2596">
        <ele>978</ele>
        <time>2013-03-10T11:44:08Z</time>
      </trkpt>
      <trkpt lat="43.86833" lon="7.25947">
        <ele>978</ele>
        <time>2013-03-10T11:44:15Z</time>
      </trkpt>
      <trkpt lat="43.8684" lon="7.25938">
        <ele>979</ele>
        <time>2013-03-10T11:44:22Z</time>
      </trkpt>
      <trkpt lat="43.86841" lon="7.25937">
        <ele>979</ele>
        <time>2013-03-10T11:44:23Z</time>
      </trkpt>
      <trkpt lat="43.86843" lon="7.25936">
        <ele>979</ele>
        <time>2013-03-10T11:44:24Z</time>
      </trkpt>
      <trkpt lat="43.86844" lon="7.25936">
        <ele>980</ele>
        <time>2013-03-10T11:44:25Z</time>
      </trkpt>
      <trkpt lat="43.86845" lon="7.25935">
        <ele>980</ele>
        <time>2013-03-10T11:44:26Z</time>
      </trkpt>
      <trkpt lat="43.8685" lon="7.25934">
        <ele>980</ele>
        <time>2013-03-10T11:44:30Z</time>
      </trkpt>
      <trkpt lat="43.86855" lon="7.2593">
        <ele>981</ele>
        <time>2013-03-10T11:44:34Z</time>
      </trkpt>
      <trkpt lat="43.86856" lon="7.25929">
        <ele>981</ele>
        <time>2013-03-10T11:44:35Z</time>
      </trkpt>
      <trkpt lat="43.86857" lon="7.25928">
        <ele>982</ele>
        <time>2013-03-10T11:44:36Z</time>
      </trkpt>
      <trkpt lat="43.86858" lon="7.25926">
        <ele>982</ele>
        <time>2013-03-10T11:44:37Z</time>
      </trkpt>
      <trkpt lat="43.86859" lon="7.25925">
        <ele>983</ele>
        <time>2013-03-10T11:44:38Z</time>
      </trkpt>
      <trkpt lat="43.8686" lon="7.25917">
        <ele>983</ele>
        <time>2013-03-10T11:44:44Z</time>
      </trkpt>
      <trkpt lat="43.8686" lon="7.25908">
        <ele>983</ele>
        <time>2013-03-10T11:44:49Z</time>
      </trkpt>
      <trkpt lat="43.8686" lon="7.25906">
        <ele>983</ele>
        <time>2013-03-10T11:44:50Z</time>
      </trkpt>
      <trkpt lat="43.86859" lon="7.25905">
        <ele>984</ele>
        <time>2013-03-10T11:44:51Z</time>
      </trkpt>
      <trkpt lat="43.86859" lon="7.25903">
        <ele>984</ele>
        <time>2013-03-10T11:44:52Z</time>
      </trkpt>
      <trkpt lat="43.86859" lon="7.25901">
        <ele>985</ele>
        <time>2013-03-10T11:44:53Z</time>
      </trkpt>
      <trkpt lat="43.86856" lon="7.25892">
        <ele>985</ele>
        <time>2013-03-10T11:44:58Z</time>
      </trkpt>
      <trkpt lat="43.86851" lon="7.2588">
        <ele>985</ele>
        <time>2013-03-10T11:45:06Z</time>
      </trkpt>
      <trkpt lat="43.8685" lon="7.25879">
        <ele>985</ele>
        <time>2013-03-10T11:45:07Z</time>
      </trkpt>
      <trkpt lat="43.86849" lon="7.25877">
        <ele>985</ele>
        <time>2013-03-10T11:45:08Z</time>
      </trkpt>
      <trkpt lat="43.86848" lon="7.25876">
        <ele>986</ele>
        <time>2013-03-10T11:45:09Z</time>
      </trkpt>
      <trkpt lat="43.86847" lon="7.25874">
        <ele>986</ele>
        <time>2013-03-10T11:45:10Z</time>
      </trkpt>
      <trkpt lat="43.86847" lon="7.25873">
        <ele>987</ele>
        <time>2013-03-10T11:45:11Z</time>
      </trkpt>
      <trkpt lat="43.86844" lon="7.25868">
        <ele>987</ele>
        <time>2013-03-10T11:45:14Z</time>
      </trkpt>
      <trkpt lat="43.86836" lon="7.25854">
        <ele>987</ele>
        <time>2013-03-10T11:45:22Z</time>
      </trkpt>
      <trkpt lat="43.86829" lon="7.25843">
        <ele>987</ele>
        <time>2013-03-10T11:45:29Z</time>
      </trkpt>
      <trkpt lat="43.86827" lon="7.2584">
        <ele>987</ele>
        <time>2013-03-10T11:45:31Z</time>
      </trkpt>
      <trkpt lat="43.86827" lon="7.25838">
        <ele>988</ele>
        <time>2013-03-10T11:45:32Z</time>
      </trkpt>
      <trkpt lat="43.86826" lon="7.25837">
        <ele>988</ele>
        <time>2013-03-10T11:45:33Z</time>
      </trkpt>
      <trkpt lat="43.86825" lon="7.25835">
        <ele>988</ele>
        <time>2013-03-10T11:45:34Z</time>
      </trkpt>
      <trkpt lat="43.86824" lon="7.25834">
        <ele>989</ele>
        <time>2013-03-10T11:45:35Z</time>
      </trkpt>
      <trkpt lat="43.86823" lon="7.25832">
        <ele>989</ele>
        <time>2013-03-10T11:45:36Z</time>
      </trkpt>
      <trkpt lat="43.86822" lon="7.2583">
        <ele>989</ele>
        <time>2013-03-10T11:45:37Z</time>
      </trkpt>
      <trkpt lat="43.86819" lon="7.25823">
        <ele>989</ele>
        <time>2013-03-10T11:45:41Z</time>
      </trkpt>
      <trkpt lat="43.86815" lon="7.25812">
        <ele>989</ele>
        <time>2013-03-10T11:45:47Z</time>
      </trkpt>
      <trkpt lat="43.86812" lon="7.25806">
        <ele>989</ele>
        <time>2013-03-10T11:45:50Z</time>
      </trkpt>
      <trkpt lat="43.86812" lon="7.25804">
        <ele>990</ele>
        <time>2013-03-10T11:45:51Z</time>
      </trkpt>
      <trkpt lat="43.86811" lon="7.25803">
        <ele>990</ele>
        <time>2013-03-10T11:45:52Z</time>
      </trkpt>
      <trkpt lat="43.8681" lon="7.25801">
        <ele>990</ele>
        <time>2013-03-10T11:45:53Z</time>
      </trkpt>
      <trkpt lat="43.8681" lon="7.25799">
        <ele>991</ele>
        <time>2013-03-10T11:45:54Z</time>
      </trkpt>
      <trkpt lat="43.86805" lon="7.25784">
        <ele>991</ele>
        <time>2013-03-10T11:46:01Z</time>
      </trkpt>
      <trkpt lat="43.86804" lon="7.2578">
        <ele>991</ele>
        <time>2013-03-10T11:46:03Z</time>
      </trkpt>
      <trkpt lat="43.86804" lon="7.25778">
        <ele>992</ele>
        <time>2013-03-10T11:46:04Z</time>
      </trkpt>
      <trkpt lat="43.86803" lon="7.25775">
        <ele>992</ele>
        <time>2013-03-10T11:46:05Z</time>
      </trkpt>
      <trkpt lat="43.86802" lon="7.25773">
        <ele>993</ele>
        <time>2013-03-10T11:46:06Z</time>
      </trkpt>
      <trkpt lat="43.86802" lon="7.25771">
        <ele>993</ele>
        <time>2013-03-10T11:46:07Z</time>
      </trkpt>
      <trkpt lat="43.86796" lon="7.25752">
        <ele>993</ele>
        <time>2013-03-10T11:46:16Z</time>
      </trkpt>
      <trkpt lat="43.86795" lon="7.2575">
        <ele>994</ele>
        <time>2013-03-10T11:46:17Z</time>
      </trkpt>
      <trkpt lat="43.86794" lon="7.25748">
        <ele>994</ele>
        <time>2013-03-10T11:46:18Z</time>
      </trkpt>
      <trkpt lat="43.86794" lon="7.25746">
        <ele>994</ele>
        <time>2013-03-10T11:46:19Z</time>
      </trkpt>
      <trkpt lat="43.86793" lon="7.25744">
        <ele>995</ele>
        <time>2013-03-10T11:46:20Z</time>
      </trkpt>
      <trkpt lat="43.86791" lon="7.25738">
        <ele>995</ele>
        <time>2013-03-10T11:46:23Z</time>
      </trkpt>
      <trkpt lat="43.86786" lon="7.25721">
        <ele>995</ele>
        <time>2013-03-10T11:46:31Z</time>
      </trkpt>
      <trkpt lat="43.86785" lon="7.25719">
        <ele>996</ele>
        <time>2013-03-10T11:46:32Z</time>
      </trkpt>
      <trkpt lat="43.86784" lon="7.25717">
        <ele>996</ele>
        <time>2013-03-10T11:46:33Z</time>
      </trkpt>
      <trkpt lat="43.86783" lon="7.25714">
        <ele>997</ele>
        <time>2013-03-10T11:46:34Z</time>
      </trkpt>
      <trkpt lat="43.86782" lon="7.25712">
        <ele>997</ele>
        <time>2013-03-10T11:46:35Z</time>
      </trkpt>
      <trkpt lat="43.86781" lon="7.25711">
        <ele>997</ele>
        <time>2013-03-10T11:46:36Z</time>
      </trkpt>
      <trkpt lat="43.8678" lon="7.25706">
        <ele>997</ele>
        <time>2013-03-10T11:46:39Z</time>
      </trkpt>
      <trkpt lat="43.86776" lon="7.25696">
        <ele>998</ele>
        <time>2013-03-10T11:46:44Z</time>
      </trkpt>
      <trkpt lat="43.86775" lon="7.25694">
        <ele>998</ele>
        <time>2013-03-10T11:46:45Z</time>
      </trkpt>
      <trkpt lat="43.86775" lon="7.25692">
        <ele>999</ele>
        <time>2013-03-10T11:46:46Z</time>
      </trkpt>
      <trkpt lat="43.86774" lon="7.2569">
        <ele>999</ele>
        <time>2013-03-10T11:46:47Z</time>
      </trkpt>
      <trkpt lat="43.86773" lon="7.25688">
        <ele>1000</ele>
        <time>2013-03-10T11:46:48Z</time>
      </trkpt>
      <trkpt lat="43.86772" lon="7.25682">
        <ele>1000</ele>
        <time>2013-03-10T11:46:51Z</time>
      </trkpt>
      <trkpt lat="43.86771" lon="7.2568">
        <ele>1000</ele>
        <time>2013-03-10T11:46:52Z</time>
      </trkpt>
      <trkpt lat="43.86771" lon="7.25678">
        <ele>1001</ele>
        <time>2013-03-10T11:46:53Z</time>
      </trkpt>
      <trkpt lat="43.8677" lon="7.25676">
        <ele>1001</ele>
        <time>2013-03-10T11:46:54Z</time>
      </trkpt>
      <trkpt lat="43.86769" lon="7.25674">
        <ele>1002</ele>
        <time>2013-03-10T11:46:55Z</time>
      </trkpt>
      <trkpt lat="43.86765" lon="7.25661">
        <ele>1002</ele>
        <time>2013-03-10T11:47:02Z</time>
      </trkpt>
      <trkpt lat="43.86759" lon="7.25644">
        <ele>1002</ele>
        <time>2013-03-10T11:47:11Z</time>
      </trkpt>
      <trkpt lat="43.86759" lon="7.25642">
        <ele>1002</ele>
        <time>2013-03-10T11:47:12Z</time>
      </trkpt>
      <trkpt lat="43.86759" lon="7.2564">
        <ele>1003</ele>
        <time>2013-03-10T11:47:13Z</time>
      </trkpt>
      <trkpt lat="43.86758" lon="7.25638">
        <ele>1003</ele>
        <time>2013-03-10T11:47:14Z</time>
      </trkpt>
      <trkpt lat="43.86758" lon="7.25636">
        <ele>1004</ele>
        <time>2013-03-10T11:47:15Z</time>
      </trkpt>
      <trkpt lat="43.86756" lon="7.25628">
        <ele>1004</ele>
        <time>2013-03-10T11:47:19Z</time>
      </trkpt>
      <trkpt lat="43.86754" lon="7.25614">
        <ele>1004</ele>
        <time>2013-03-10T11:47:25Z</time>
      </trkpt>
      <trkpt lat="43.86753" lon="7.25611">
        <ele>1004</ele>
        <time>2013-03-10T11:47:26Z</time>
      </trkpt>
      <trkpt lat="43.86753" lon="7.25609">
        <ele>1005</ele>
        <time>2013-03-10T11:47:27Z</time>
      </trkpt>
      <trkpt lat="43.86752" lon="7.25606">
        <ele>1005</ele>
        <time>2013-03-10T11:47:28Z</time>
      </trkpt>
      <trkpt lat="43.86752" lon="7.25604">
        <ele>1006</ele>
        <time>2013-03-10T11:47:29Z</time>
      </trkpt>
      <trkpt lat="43.8675" lon="7.25596">
        <ele>1006</ele>
        <time>2013-03-10T11:47:33Z</time>
      </trkpt>
      <trkpt lat="43.86748" lon="7.25582">
        <ele>1006</ele>
        <time>2013-03-10T11:47:39Z</time>
      </trkpt>
      <trkpt lat="43.86747" lon="7.2558">
        <ele>1007</ele>
        <time>2013-03-10T11:47:40Z</time>
      </trkpt>
      <trkpt lat="43.86747" lon="7.25578">
        <ele>1007</ele>
        <time>2013-03-10T11:47:41Z</time>
      </trkpt>
      <trkpt lat="43.86746" lon="7.25576">
        <ele>1007</ele>
        <time>2013-03-10T11:47:42Z</time>
      </trkpt>
      <trkpt lat="43.86746" lon="7.25574">
        <ele>1008</ele>
        <time>2013-03-10T11:47:43Z</time>
      </trkpt>
      <trkpt lat="43.86743" lon="7.25566">
        <ele>1008</ele>
        <time>2013-03-10T11:47:47Z</time>
      </trkpt>
      <trkpt lat="43.86741" lon="7.25554">
        <ele>1008</ele>
        <time>2013-03-10T11:47:53Z</time>
      </trkpt>
      <trkpt lat="43.86741" lon="7.25552">
        <ele>1009</ele>
        <time>2013-03-10T11:47:54Z</time>
      </trkpt>
      <trkpt lat="43.86741" lon="7.2555">
        <ele>1009</ele>
        <time>2013-03-10T11:47:55Z</time>
      </trkpt>
      <trkpt lat="43.8674" lon="7.25548">
        <ele>1010</ele>
        <time>2013-03-10T11:47:56Z</time>
      </trkpt>
      <trkpt lat="43.8674" lon="7.25546">
        <ele>1010</ele>
        <time>2013-03-10T11:47:57Z</time>
      </trkpt>
      <trkpt lat="43.86737" lon="7.25537">
        <ele>1010</ele>
        <time>2013-03-10T11:48:01Z</time>
      </trkpt>
      <trkpt lat="43.86738" lon="7.25533">
        <ele>1010</ele>
        <time>2013-03-10T11:48:03Z</time>
      </trkpt>
      <trkpt lat="43.86745" lon="7.25532">
        <ele>1010</ele>
        <time>2013-03-10T11:48:08Z</time>
      </trkpt>
      <trkpt lat="43.86747" lon="7.25541">
        <ele>1010</ele>
        <time>2013-03-10T11:48:12Z</time>
      </trkpt>
      <trkpt lat="43.86748" lon="7.25543">
        <ele>1011</ele>
        <time>2013-03-10T11:48:13Z</time>
      </trkpt>
      <trkpt lat="43.86748" lon="7.25545">
        <ele>1011</ele>
        <time>2013-03-10T11:48:14Z</time>
      </trkpt>
      <trkpt lat="43.86749" lon="7.25547">
        <ele>1012</ele>
        <time>2013-03-10T11:48:15Z</time>
      </trkpt>
      <trkpt lat="43.86749" lon="7.25549">
        <ele>1012</ele>
        <time>2013-03-10T11:48:16Z</time>
      </trkpt>
      <trkpt lat="43.86751" lon="7.25553">
        <ele>1012</ele>
        <time>2013-03-10T11:48:19Z</time>
      </trkpt>
      <trkpt lat="43.86754" lon="7.25561">
        <ele>1012</ele>
        <time>2013-03-10T11:48:25Z</time>
      </trkpt>
      <trkpt lat="43.86758" lon="7.25569">
        <ele>1012</ele>
        <time>2013-03-10T11:48:30Z</time>
      </trkpt>
      <trkpt lat="43.8676" lon="7.25572">
        <ele>1012</ele>
        <time>2013-03-10T11:48:32Z</time>
      </trkpt>
      <trkpt lat="43.86763" lon="7.25579">
        <ele>1013</ele>
        <time>2013-03-10T11:48:37Z</time>
      </trkpt>
      <trkpt lat="43.86764" lon="7.25581">
        <ele>1013</ele>
        <time>2013-03-10T11:48:38Z</time>
      </trkpt>
      <trkpt lat="43.86764" lon="7.25583">
        <ele>1013</ele>
        <time>2013-03-10T11:48:39Z</time>
      </trkpt>
      <trkpt lat="43.86765" lon="7.25584">
        <ele>1014</ele>
        <time>2013-03-10T11:48:40Z</time>
      </trkpt>
      <trkpt lat="43.86766" lon="7.25586">
        <ele>1014</ele>
        <time>2013-03-10T11:48:41Z</time>
      </trkpt>
      <trkpt lat="43.86768" lon="7.25592">
        <ele>1014</ele>
        <time>2013-03-10T11:48:44Z</time>
      </trkpt>
      <trkpt lat="43.86771" lon="7.25602">
        <ele>1015</ele>
        <time>2013-03-10T11:48:49Z</time>
      </trkpt>
      <trkpt lat="43.86771" lon="7.25604">
        <ele>1015</ele>
        <time>2013-03-10T11:48:50Z</time>
      </trkpt>
      <trkpt lat="43.86772" lon="7.25606">
        <ele>1016</ele>
        <time>2013-03-10T11:48:51Z</time>
      </trkpt>
      <trkpt lat="43.86772" lon="7.25608">
        <ele>1016</ele>
        <time>2013-03-10T11:48:52Z</time>
      </trkpt>
      <trkpt lat="43.86772" lon="7.2561">
        <ele>1017</ele>
        <time>2013-03-10T11:48:53Z</time>
      </trkpt>
      <trkpt lat="43.86777" lon="7.25622">
        <ele>1017</ele>
        <time>2013-03-10T11:48:59Z</time>
      </trkpt>
      <trkpt lat="43.86782" lon="7.25632">
        <ele>1017</ele>
        <time>2013-03-10T11:49:05Z</time>
      </trkpt>
      <trkpt lat="43.86783" lon="7.25634">
        <ele>1017</ele>
        <time>2013-03-10T11:49:06Z</time>
      </trkpt>
      <trkpt lat="43.86785" lon="7.25635">
        <ele>1018</ele>
        <time>2013-03-10T11:49:07Z</time>
      </trkpt>
      <trkpt lat="43.86786" lon="7.25637">
        <ele>1018</ele>
        <time>2013-03-10T11:49:08Z</time>
      </trkpt>
      <trkpt lat="43.86787" lon="7.25639">
        <ele>1019</ele>
        <time>2013-03-10T11:49:09Z</time>
      </trkpt>
      <trkpt lat="43.86793" lon="7.25651">
        <ele>1019</ele>
        <time>2013-03-10T11:49:15Z</time>
      </trkpt>
      <trkpt lat="43.86797" lon="7.25658">
        <ele>1019</ele>
        <time>2013-03-10T11:49:19Z</time>
      </trkpt>
      <trkpt lat="43.86798" lon="7.2566">
        <ele>1020</ele>
        <time>2013-03-10T11:49:20Z</time>
      </trkpt>
      <trkpt lat="43.86799" lon="7.25662">
        <ele>1020</ele>
        <time>2013-03-10T11:49:21Z</time>
      </trkpt>
      <trkpt lat="43.868" lon="7.25664">
        <ele>1021</ele>
        <time>2013-03-10T11:49:22Z</time>
      </trkpt>
      <trkpt lat="43.86801" lon="7.25665">
        <ele>1021</ele>
        <time>2013-03-10T11:49:23Z</time>
      </trkpt>
      <trkpt lat="43.86806" lon="7.25676">
        <ele>1021</ele>
        <time>2013-03-10T11:49:29Z</time>
      </trkpt>
      <trkpt lat="43.86809" lon="7.25681">
        <ele>1021</ele>
        <time>2013-03-10T11:49:32Z</time>
      </trkpt>
      <trkpt lat="43.8681" lon="7.25683">
        <ele>1022</ele>
        <time>2013-03-10T11:49:33Z</time>
      </trkpt>
      <trkpt lat="43.86812" lon="7.25685">
        <ele>1022</ele>
        <time>2013-03-10T11:49:34Z</time>
      </trkpt>
      <trkpt lat="43.86813" lon="7.25686">
        <ele>1023</ele>
        <time>2013-03-10T11:49:35Z</time>
      </trkpt>
      <trkpt lat="43.86814" lon="7.25688">
        <ele>1023</ele>
        <time>2013-03-10T11:49:36Z</time>
      </trkpt>
      <trkpt lat="43.86821" lon="7.257">
        <ele>1023</ele>
        <time>2013-03-10T11:49:43Z</time>
      </trkpt>
      <trkpt lat="43.86822" lon="7.25702">
        <ele>1024</ele>
        <time>2013-03-10T11:49:44Z</time>
      </trkpt>
      <trkpt lat="43.86823" lon="7.25703">
        <ele>1024</ele>
        <time>2013-03-10T11:49:45Z</time>
      </trkpt>
      <trkpt lat="43.86824" lon="7.25704">
        <ele>1024</ele>
        <time>2013-03-10T11:49:46Z</time>
      </trkpt>
      <trkpt lat="43.86825" lon="7.25706">
        <ele>1025</ele>
        <time>2013-03-10T11:49:47Z</time>
      </trkpt>
      <trkpt lat="43.86826" lon="7.25707">
        <ele>1025</ele>
        <time>2013-03-10T11:49:48Z</time>
      </trkpt>
      <trkpt lat="43.86828" lon="7.2571">
        <ele>1025</ele>
        <time>2013-03-10T11:49:50Z</time>
      </trkpt>
      <trkpt lat="43.86836" lon="7.2572">
        <ele>1026</ele>
        <time>2013-03-10T11:49:57Z</time>
      </trkpt>
      <trkpt lat="43.86837" lon="7.25721">
        <ele>1026</ele>
        <time>2013-03-10T11:49:58Z</time>
      </trkpt>
      <trkpt lat="43.86838" lon="7.25722">
        <ele>1026</ele>
        <time>2013-03-10T11:49:59Z</time>
      </trkpt>
      <trkpt lat="43.8684" lon="7.25724">
        <ele>1027</ele>
        <time>2013-03-10T11:50:00Z</time>
      </trkpt>
      <trkpt lat="43.86841" lon="7.25725">
        <ele>1027</ele>
        <time>2013-03-10T11:50:01Z</time>
      </trkpt>
      <trkpt lat="43.86845" lon="7.25732">
        <ele>1027</ele>
        <time>2013-03-10T11:50:05Z</time>
      </trkpt>
      <trkpt lat="43.86853" lon="7.25744">
        <ele>1028</ele>
        <time>2013-03-10T11:50:12Z</time>
      </trkpt>
      <trkpt lat="43.86854" lon="7.25746">
        <ele>1028</ele>
        <time>2013-03-10T11:50:13Z</time>
      </trkpt>
      <trkpt lat="43.86855" lon="7.25748">
        <ele>1029</ele>
        <time>2013-03-10T11:50:14Z</time>
      </trkpt>
      <trkpt lat="43.86856" lon="7.2575">
        <ele>1029</ele>
        <time>2013-03-10T11:50:15Z</time>
      </trkpt>
      <trkpt lat="43.86857" lon="7.25751">
        <ele>1029</ele>
        <time>2013-03-10T11:50:16Z</time>
      </trkpt>
      <trkpt lat="43.86864" lon="7.25758">
        <ele>1029</ele>
        <time>2013-03-10T11:50:21Z</time>
      </trkpt>
      <trkpt lat="43.86867" lon="7.25763">
        <ele>1030</ele>
        <time>2013-03-10T11:50:24Z</time>
      </trkpt>
      <trkpt lat="43.86869" lon="7.25764">
        <ele>1030</ele>
        <time>2013-03-10T11:50:25Z</time>
      </trkpt>
      <trkpt lat="43.86869" lon="7.25765">
        <ele>1031</ele>
        <time>2013-03-10T11:50:26Z</time>
      </trkpt>
      <trkpt lat="43.8687" lon="7.25766">
        <ele>1031</ele>
        <time>2013-03-10T11:50:27Z</time>
      </trkpt>
      <trkpt lat="43.86878" lon="7.25777">
        <ele>1031</ele>
        <time>2013-03-10T11:50:34Z</time>
      </trkpt>
      <trkpt lat="43.86879" lon="7.25779">
        <ele>1032</ele>
        <time>2013-03-10T11:50:35Z</time>
      </trkpt>
      <trkpt lat="43.8688" lon="7.25781">
        <ele>1032</ele>
        <time>2013-03-10T11:50:36Z</time>
      </trkpt>
      <trkpt lat="43.86881" lon="7.25783">
        <ele>1033</ele>
        <time>2013-03-10T11:50:37Z</time>
      </trkpt>
      <trkpt lat="43.86882" lon="7.25785">
        <ele>1033</ele>
        <time>2013-03-10T11:50:38Z</time>
      </trkpt>
      <trkpt lat="43.86883" lon="7.25787">
        <ele>1034</ele>
        <time>2013-03-10T11:50:39Z</time>
      </trkpt>
      <trkpt lat="43.86887" lon="7.25791">
        <ele>1034</ele>
        <time>2013-03-10T11:50:42Z</time>
      </trkpt>
      <trkpt lat="43.86895" lon="7.25803">
        <ele>1034</ele>
        <time>2013-03-10T11:50:49Z</time>
      </trkpt>
      <trkpt lat="43.86896" lon="7.25804">
        <ele>1034</ele>
        <time>2013-03-10T11:50:50Z</time>
      </trkpt>
      <trkpt lat="43.86897" lon="7.25805">
        <ele>1035</ele>
        <time>2013-03-10T11:50:51Z</time>
      </trkpt>
      <trkpt lat="43.86898" lon="7.25806">
        <ele>1036</ele>
        <time>2013-03-10T11:50:52Z</time>
      </trkpt>
      <trkpt lat="43.86905" lon="7.25814">
        <ele>1036</ele>
        <time>2013-03-10T11:50:58Z</time>
      </trkpt>
      <trkpt lat="43.86908" lon="7.25817">
        <ele>1036</ele>
        <time>2013-03-10T11:51:00Z</time>
      </trkpt>
      <trkpt lat="43.86909" lon="7.25819">
        <ele>1036</ele>
        <time>2013-03-10T11:51:01Z</time>
      </trkpt>
      <trkpt lat="43.8691" lon="7.25821">
        <ele>1037</ele>
        <time>2013-03-10T11:51:02Z</time>
      </trkpt>
      <trkpt lat="43.86911" lon="7.25823">
        <ele>1037</ele>
        <time>2013-03-10T11:51:03Z</time>
      </trkpt>
      <trkpt lat="43.86912" lon="7.25825">
        <ele>1038</ele>
        <time>2013-03-10T11:51:04Z</time>
      </trkpt>
      <trkpt lat="43.86914" lon="7.25827">
        <ele>1038</ele>
        <time>2013-03-10T11:51:06Z</time>
      </trkpt>
      <trkpt lat="43.86921" lon="7.25834">
        <ele>1038</ele>
        <time>2013-03-10T11:51:11Z</time>
      </trkpt>
      <trkpt lat="43.86922" lon="7.25835">
        <ele>1038</ele>
        <time>2013-03-10T11:51:12Z</time>
      </trkpt>
      <trkpt lat="43.86923" lon="7.25837">
        <ele>1039</ele>
        <time>2013-03-10T11:51:13Z</time>
      </trkpt>
      <trkpt lat="43.86924" lon="7.25838">
        <ele>1039</ele>
        <time>2013-03-10T11:51:14Z</time>
      </trkpt>
      <trkpt lat="43.86925" lon="7.25839">
        <ele>1040</ele>
        <time>2013-03-10T11:51:15Z</time>
      </trkpt>
      <trkpt lat="43.86932" lon="7.25847">
        <ele>1040</ele>
        <time>2013-03-10T11:51:20Z</time>
      </trkpt>
      <trkpt lat="43.86933" lon="7.25849">
        <ele>1041</ele>
        <time>2013-03-10T11:51:21Z</time>
      </trkpt>
      <trkpt lat="43.86934" lon="7.2585">
        <ele>1041</ele>
        <time>2013-03-10T11:51:22Z</time>
      </trkpt>
      <trkpt lat="43.86935" lon="7.25852">
        <ele>1041</ele>
        <time>2013-03-10T11:51:23Z</time>
      </trkpt>
      <trkpt lat="43.86936" lon="7.25854">
        <ele>1042</ele>
        <time>2013-03-10T11:51:24Z</time>
      </trkpt>
      <trkpt lat="43.86944" lon="7.25863">
        <ele>1042</ele>
        <time>2013-03-10T11:51:31Z</time>
      </trkpt>
      <trkpt lat="43.86945" lon="7.25865">
        <ele>1042</ele>
        <time>2013-03-10T11:51:32Z</time>
      </trkpt>
      <trkpt lat="43.86946" lon="7.25866">
        <ele>1043</ele>
        <time>2013-03-10T11:51:33Z</time>
      </trkpt>
      <trkpt lat="43.86947" lon="7.25868">
        <ele>1043</ele>
        <time>2013-03-10T11:51:34Z</time>
      </trkpt>
      <trkpt lat="43.86949" lon="7.2587">
        <ele>1043</ele>
        <time>2013-03-10T11:51:35Z</time>
      </trkpt>
      <trkpt lat="43.8695" lon="7.25872">
        <ele>1044</ele>
        <time>2013-03-10T11:51:36Z</time>
      </trkpt>
      <trkpt lat="43.86953" lon="7.25875">
        <ele>1044</ele>
        <time>2013-03-10T11:51:38Z</time>
      </trkpt>
      <trkpt lat="43.86961" lon="7.25885">
        <ele>1044</ele>
        <time>2013-03-10T11:51:44Z</time>
      </trkpt>
      <trkpt lat="43.86962" lon="7.25887">
        <ele>1045</ele>
        <time>2013-03-10T11:51:45Z</time>
      </trkpt>
      <trkpt lat="43.86964" lon="7.25889">
        <ele>1045</ele>
        <time>2013-03-10T11:51:46Z</time>
      </trkpt>
      <trkpt lat="43.86965" lon="7.2589">
        <ele>1046</ele>
        <time>2013-03-10T11:51:47Z</time>
      </trkpt>
      <trkpt lat="43.86966" lon="7.25892">
        <ele>1046</ele>
        <time>2013-03-10T11:51:48Z</time>
      </trkpt>
      <trkpt lat="43.86973" lon="7.25899">
        <ele>1046</ele>
        <time>2013-03-10T11:51:53Z</time>
      </trkpt>
      <trkpt lat="43.86977" lon="7.25904">
        <ele>1046</ele>
        <time>2013-03-10T11:51:56Z</time>
      </trkpt>
      <trkpt lat="43.86978" lon="7.25905">
        <ele>1047</ele>
        <time>2013-03-10T11:51:57Z</time>
      </trkpt>
      <trkpt lat="43.8698" lon="7.25906">
        <ele>1047</ele>
        <time>2013-03-10T11:51:58Z</time>
      </trkpt>
      <trkpt lat="43.86981" lon="7.25907">
        <ele>1048</ele>
        <time>2013-03-10T11:51:59Z</time>
      </trkpt>
      <trkpt lat="43.86983" lon="7.25907">
        <ele>1048</ele>
        <time>2013-03-10T11:52:00Z</time>
      </trkpt>
      <trkpt lat="43.86984" lon="7.25908">
        <ele>1048</ele>
        <time>2013-03-10T11:52:01Z</time>
      </trkpt>
      <trkpt lat="43.86992" lon="7.25914">
        <ele>1049</ele>
        <time>2013-03-10T11:52:06Z</time>
      </trkpt>
      <trkpt lat="43.86994" lon="7.25915">
        <ele>1049</ele>
        <time>2013-03-10T11:52:07Z</time>
      </trkpt>
      <trkpt lat="43.86996" lon="7.25916">
        <ele>1050</ele>
        <time>2013-03-10T11:52:08Z</time>
      </trkpt>
      <trkpt lat="43.86997" lon="7.25917">
        <ele>1050</ele>
        <time>2013-03-10T11:52:09Z</time>
      </trkpt>
      <trkpt lat="43.87008" lon="7.25927">
        <ele>1050</ele>
        <time>2013-03-10T11:52:17Z</time>
      </trkpt>
      <trkpt lat="43.87014" lon="7.25932">
        <ele>1051</ele>
        <time>2013-03-10T11:52:21Z</time>
      </trkpt>
      <trkpt lat="43.87016" lon="7.25934">
        <ele>1051</ele>
        <time>2013-03-10T11:52:22Z</time>
      </trkpt>
      <trkpt lat="43.87017" lon="7.25935">
        <ele>1051</ele>
        <time>2013-03-10T11:52:23Z</time>
      </trkpt>
      <trkpt lat="43.87018" lon="7.25936">
        <ele>1052</ele>
        <time>2013-03-10T11:52:24Z</time>
      </trkpt>
      <trkpt lat="43.87019" lon="7.25938">
        <ele>1052</ele>
        <time>2013-03-10T11:52:25Z</time>
      </trkpt>
      <trkpt lat="43.87021" lon="7.25939">
        <ele>1052</ele>
        <time>2013-03-10T11:52:26Z</time>
      </trkpt>
      <trkpt lat="43.87026" lon="7.25944">
        <ele>1053</ele>
        <time>2013-03-10T11:52:30Z</time>
      </trkpt>
      <trkpt lat="43.87027" lon="7.25945">
        <ele>1053</ele>
        <time>2013-03-10T11:52:31Z</time>
      </trkpt>
      <trkpt lat="43.87028" lon="7.25947">
        <ele>1054</ele>
        <time>2013-03-10T11:52:32Z</time>
      </trkpt>
      <trkpt lat="43.87029" lon="7.25948">
        <ele>1054</ele>
        <time>2013-03-10T11:52:33Z</time>
      </trkpt>
      <trkpt lat="43.8703" lon="7.2595">
        <ele>1054</ele>
        <time>2013-03-10T11:52:34Z</time>
      </trkpt>
      <trkpt lat="43.87033" lon="7.2596">
        <ele>1054</ele>
        <time>2013-03-10T11:52:39Z</time>
      </trkpt>
      <trkpt lat="43.87032" lon="7.2597">
        <ele>1055</ele>
        <time>2013-03-10T11:52:44Z</time>
      </trkpt>
      <trkpt lat="43.87031" lon="7.25972">
        <ele>1055</ele>
        <time>2013-03-10T11:52:45Z</time>
      </trkpt>
      <trkpt lat="43.87029" lon="7.25974">
        <ele>1056</ele>
        <time>2013-03-10T11:52:46Z</time>
      </trkpt>
      <trkpt lat="43.87028" lon="7.25975">
        <ele>1056</ele>
        <time>2013-03-10T11:52:47Z</time>
      </trkpt>
      <trkpt lat="43.87027" lon="7.25977">
        <ele>1057</ele>
        <time>2013-03-10T11:52:48Z</time>
      </trkpt>
      <trkpt lat="43.87024" lon="7.25981">
        <ele>1057</ele>
        <time>2013-03-10T11:52:51Z</time>
      </trkpt>
      <trkpt lat="43.87019" lon="7.25989">
        <ele>1057</ele>
        <time>2013-03-10T11:52:55Z</time>
      </trkpt>
      <trkpt lat="43.87018" lon="7.2599">
        <ele>1058</ele>
        <time>2013-03-10T11:52:56Z</time>
      </trkpt>
      <trkpt lat="43.87017" lon="7.25993">
        <ele>1058</ele>
        <time>2013-03-10T11:52:57Z</time>
      </trkpt>
      <trkpt lat="43.87016" lon="7.25994">
        <ele>1059</ele>
        <time>2013-03-10T11:52:58Z</time>
      </trkpt>
      <trkpt lat="43.8701" lon="7.26006">
        <ele>1059</ele>
        <time>2013-03-10T11:53:04Z</time>
      </trkpt>
      <trkpt lat="43.87009" lon="7.26009">
        <ele>1059</ele>
        <time>2013-03-10T11:53:05Z</time>
      </trkpt>
      <trkpt lat="43.87007" lon="7.26013">
        <ele>1059</ele>
        <time>2013-03-10T11:53:08Z</time>
      </trkpt>
      <trkpt lat="43.87006" lon="7.26016">
        <ele>1060</ele>
        <time>2013-03-10T11:53:09Z</time>
      </trkpt>
      <trkpt lat="43.87005" lon="7.26018">
        <ele>1060</ele>
        <time>2013-03-10T11:53:10Z</time>
      </trkpt>
      <trkpt lat="43.87004" lon="7.2602">
        <ele>1060</ele>
        <time>2013-03-10T11:53:11Z</time>
      </trkpt>
      <trkpt lat="43.87004" lon="7.26021">
        <ele>1061</ele>
        <time>2013-03-10T11:53:12Z</time>
      </trkpt>
      <trkpt lat="43.86996" lon="7.26029">
        <ele>1061</ele>
        <time>2013-03-10T11:53:18Z</time>
      </trkpt>
      <trkpt lat="43.86989" lon="7.26036">
        <ele>1061</ele>
        <time>2013-03-10T11:53:23Z</time>
      </trkpt>
      <trkpt lat="43.86987" lon="7.26036">
        <ele>1062</ele>
        <time>2013-03-10T11:53:24Z</time>
      </trkpt>
      <trkpt lat="43.86985" lon="7.26036">
        <ele>1062</ele>
        <time>2013-03-10T11:53:25Z</time>
      </trkpt>
      <trkpt lat="43.86984" lon="7.26037">
        <ele>1062</ele>
        <time>2013-03-10T11:53:26Z</time>
      </trkpt>
      <trkpt lat="43.86983" lon="7.26037">
        <ele>1063</ele>
        <time>2013-03-10T11:53:27Z</time>
      </trkpt>
      <trkpt lat="43.86975" lon="7.26036">
        <ele>1063</ele>
        <time>2013-03-10T11:53:32Z</time>
      </trkpt>
      <trkpt lat="43.86971" lon="7.26035">
        <ele>1063</ele>
        <time>2013-03-10T11:53:35Z</time>
      </trkpt>
      <trkpt lat="43.8697" lon="7.26035">
        <ele>1064</ele>
        <time>2013-03-10T11:53:36Z</time>
      </trkpt>
      <trkpt lat="43.86968" lon="7.26035">
        <ele>1064</ele>
        <time>2013-03-10T11:53:37Z</time>
      </trkpt>
      <trkpt lat="43.86966" lon="7.26035">
        <ele>1065</ele>
        <time>2013-03-10T11:53:38Z</time>
      </trkpt>
      <trkpt lat="43.86964" lon="7.26035">
        <ele>1065</ele>
        <time>2013-03-10T11:53:39Z</time>
      </trkpt>
      <trkpt lat="43.86952" lon="7.26038">
        <ele>1065</ele>
        <time>2013-03-10T11:53:47Z</time>
      </trkpt>
      <trkpt lat="43.8695" lon="7.26039">
        <ele>1066</ele>
        <time>2013-03-10T11:53:48Z</time>
      </trkpt>
      <trkpt lat="43.86949" lon="7.2604">
        <ele>1066</ele>
        <time>2013-03-10T11:53:49Z</time>
      </trkpt>
      <trkpt lat="43.86948" lon="7.2604">
        <ele>1067</ele>
        <time>2013-03-10T11:53:50Z</time>
      </trkpt>
      <trkpt lat="43.86946" lon="7.26041">
        <ele>1067</ele>
        <time>2013-03-10T11:53:51Z</time>
      </trkpt>
      <trkpt lat="43.86944" lon="7.26044">
        <ele>1067</ele>
        <time>2013-03-10T11:53:53Z</time>
      </trkpt>
      <trkpt lat="43.86943" lon="7.26045">
        <ele>1067</ele>
        <time>2013-03-10T11:53:54Z</time>
      </trkpt>
      <trkpt lat="43.86937" lon="7.26054">
        <ele>1067</ele>
        <time>2013-03-10T11:53:59Z</time>
      </trkpt>
      <trkpt lat="43.86936" lon="7.26056">
        <ele>1067</ele>
        <time>2013-03-10T11:54:00Z</time>
      </trkpt>
      <trkpt lat="43.86935" lon="7.26058">
        <ele>1068</ele>
        <time>2013-03-10T11:54:01Z</time>
      </trkpt>
      <trkpt lat="43.86934" lon="7.26061">
        <ele>1068</ele>
        <time>2013-03-10T11:54:02Z</time>
      </trkpt>
      <trkpt lat="43.86934" lon="7.26063">
        <ele>1069</ele>
        <time>2013-03-10T11:54:03Z</time>
      </trkpt>
      <trkpt lat="43.86934" lon="7.26065">
        <ele>1069</ele>
        <time>2013-03-10T11:54:04Z</time>
      </trkpt>
      <trkpt lat="43.86935" lon="7.2607">
        <ele>1069</ele>
        <time>2013-03-10T11:54:06Z</time>
      </trkpt>
      <trkpt lat="43.8694" lon="7.26074">
        <ele>1069</ele>
        <time>2013-03-10T11:54:11Z</time>
      </trkpt>
      <trkpt lat="43.86941" lon="7.26073">
        <ele>1069</ele>
        <time>2013-03-10T11:54:12Z</time>
      </trkpt>
      <trkpt lat="43.86943" lon="7.26072">
        <ele>1069</ele>
        <time>2013-03-10T11:54:14Z</time>
      </trkpt>
      <trkpt lat="43.86944" lon="7.26071">
        <ele>1070</ele>
        <time>2013-03-10T11:54:15Z</time>
      </trkpt>
      <trkpt lat="43.86945" lon="7.2607">
        <ele>1070</ele>
        <time>2013-03-10T11:54:16Z</time>
      </trkpt>
      <trkpt lat="43.86946" lon="7.26067">
        <ele>1071</ele>
        <time>2013-03-10T11:54:17Z</time>
      </trkpt>
      <trkpt lat="43.86947" lon="7.26066">
        <ele>1071</ele>
        <time>2013-03-10T11:54:18Z</time>
      </trkpt>
      <trkpt lat="43.86951" lon="7.26057">
        <ele>1071</ele>
        <time>2013-03-10T11:54:23Z</time>
      </trkpt>
      <trkpt lat="43.8696" lon="7.26049">
        <ele>1072</ele>
        <time>2013-03-10T11:54:31Z</time>
      </trkpt>
      <trkpt lat="43.86962" lon="7.26048">
        <ele>1072</ele>
        <time>2013-03-10T11:54:32Z</time>
      </trkpt>
      <trkpt lat="43.86964" lon="7.26048">
        <ele>1073</ele>
        <time>2013-03-10T11:54:33Z</time>
      </trkpt>
      <trkpt lat="43.86966" lon="7.26048">
        <ele>1073</ele>
        <time>2013-03-10T11:54:34Z</time>
      </trkpt>
      <trkpt lat="43.86972" lon="7.26049">
        <ele>1073</ele>
        <time>2013-03-10T11:54:38Z</time>
      </trkpt>
      <trkpt lat="43.86979" lon="7.26053">
        <ele>1074</ele>
        <time>2013-03-10T11:54:42Z</time>
      </trkpt>
      <trkpt lat="43.8698" lon="7.26054">
        <ele>1074</ele>
        <time>2013-03-10T11:54:43Z</time>
      </trkpt>
      <trkpt lat="43.86981" lon="7.26054">
        <ele>1074</ele>
        <time>2013-03-10T11:54:44Z</time>
      </trkpt>
      <trkpt lat="43.86983" lon="7.26055">
        <ele>1075</ele>
        <time>2013-03-10T11:54:45Z</time>
      </trkpt>
      <trkpt lat="43.86984" lon="7.26057">
        <ele>1075</ele>
        <time>2013-03-10T11:54:46Z</time>
      </trkpt>
      <trkpt lat="43.86994" lon="7.2606">
        <ele>1075</ele>
        <time>2013-03-10T11:54:52Z</time>
      </trkpt>
      <trkpt lat="43.86999" lon="7.26058">
        <ele>1076</ele>
        <time>2013-03-10T11:54:55Z</time>
      </trkpt>
      <trkpt lat="43.87" lon="7.26057">
        <ele>1076</ele>
        <time>2013-03-10T11:54:56Z</time>
      </trkpt>
      <trkpt lat="43.87002" lon="7.26057">
        <ele>1077</ele>
        <time>2013-03-10T11:54:57Z</time>
      </trkpt>
      <trkpt lat="43.87003" lon="7.26056">
        <ele>1077</ele>
        <time>2013-03-10T11:54:58Z</time>
      </trkpt>
      <trkpt lat="43.87005" lon="7.26054">
        <ele>1077</ele>
        <time>2013-03-10T11:55:01Z</time>
      </trkpt>
      <trkpt lat="43.87008" lon="7.26051">
        <ele>1077</ele>
        <time>2013-03-10T11:55:04Z</time>
      </trkpt>
      <trkpt lat="43.87011" lon="7.26047">
        <ele>1077</ele>
        <time>2013-03-10T11:55:07Z</time>
      </trkpt>
      <trkpt lat="43.87011" lon="7.26046">
        <ele>1078</ele>
        <time>2013-03-10T11:55:08Z</time>
      </trkpt>
      <trkpt lat="43.87013" lon="7.26045">
        <ele>1078</ele>
        <time>2013-03-10T11:55:09Z</time>
      </trkpt>
      <trkpt lat="43.87014" lon="7.26044">
        <ele>1079</ele>
        <time>2013-03-10T11:55:10Z</time>
      </trkpt>
      <trkpt lat="43.87015" lon="7.26043">
        <ele>1079</ele>
        <time>2013-03-10T11:55:11Z</time>
      </trkpt>
      <trkpt lat="43.87017" lon="7.26042">
        <ele>1080</ele>
        <time>2013-03-10T11:55:12Z</time>
      </trkpt>
      <trkpt lat="43.87023" lon="7.26038">
        <ele>1080</ele>
        <time>2013-03-10T11:55:16Z</time>
      </trkpt>
      <trkpt lat="43.8703" lon="7.26029">
        <ele>1080</ele>
        <time>2013-03-10T11:55:21Z</time>
      </trkpt>
      <trkpt lat="43.87031" lon="7.26027">
        <ele>1081</ele>
        <time>2013-03-10T11:55:23Z</time>
      </trkpt>
      <trkpt lat="43.87032" lon="7.26025">
        <ele>1081</ele>
        <time>2013-03-10T11:55:24Z</time>
      </trkpt>
      <trkpt lat="43.87033" lon="7.26024">
        <ele>1082</ele>
        <time>2013-03-10T11:55:25Z</time>
      </trkpt>
      <trkpt lat="43.87038" lon="7.26016">
        <ele>1082</ele>
        <time>2013-03-10T11:55:30Z</time>
      </trkpt>
      <trkpt lat="43.87043" lon="7.26008">
        <ele>1082</ele>
        <time>2013-03-10T11:55:35Z</time>
      </trkpt>
      <trkpt lat="43.87044" lon="7.26006">
        <ele>1083</ele>
        <time>2013-03-10T11:55:36Z</time>
      </trkpt>
      <trkpt lat="43.87046" lon="7.26004">
        <ele>1083</ele>
        <time>2013-03-10T11:55:37Z</time>
      </trkpt>
      <trkpt lat="43.87047" lon="7.26002">
        <ele>1083</ele>
        <time>2013-03-10T11:55:38Z</time>
      </trkpt>
      <trkpt lat="43.87049" lon="7.26">
        <ele>1084</ele>
        <time>2013-03-10T11:55:39Z</time>
      </trkpt>
      <trkpt lat="43.87057" lon="7.25994">
        <ele>1084</ele>
        <time>2013-03-10T11:55:44Z</time>
      </trkpt>
      <trkpt lat="43.87068" lon="7.25989">
        <ele>1084</ele>
        <time>2013-03-10T11:55:50Z</time>
      </trkpt>
      <trkpt lat="43.8707" lon="7.25988">
        <ele>1085</ele>
        <time>2013-03-10T11:55:51Z</time>
      </trkpt>
      <trkpt lat="43.87072" lon="7.25986">
        <ele>1085</ele>
        <time>2013-03-10T11:55:52Z</time>
      </trkpt>
      <trkpt lat="43.87074" lon="7.25985">
        <ele>1086</ele>
        <time>2013-03-10T11:55:53Z</time>
      </trkpt>
      <trkpt lat="43.87075" lon="7.25983">
        <ele>1086</ele>
        <time>2013-03-10T11:55:54Z</time>
      </trkpt>
      <trkpt lat="43.87079" lon="7.25977">
        <ele>1086</ele>
        <time>2013-03-10T11:55:57Z</time>
      </trkpt>
      <trkpt lat="43.8709" lon="7.25971">
        <ele>1086</ele>
        <time>2013-03-10T11:56:03Z</time>
      </trkpt>
      <trkpt lat="43.87091" lon="7.2597">
        <ele>1087</ele>
        <time>2013-03-10T11:56:04Z</time>
      </trkpt>
      <trkpt lat="43.87093" lon="7.25968">
        <ele>1087</ele>
        <time>2013-03-10T11:56:05Z</time>
      </trkpt>
      <trkpt lat="43.87095" lon="7.25967">
        <ele>1088</ele>
        <time>2013-03-10T11:56:06Z</time>
      </trkpt>
      <trkpt lat="43.87096" lon="7.25966">
        <ele>1088</ele>
        <time>2013-03-10T11:56:07Z</time>
      </trkpt>
      <trkpt lat="43.87104" lon="7.25962">
        <ele>1088</ele>
        <time>2013-03-10T11:56:11Z</time>
      </trkpt>
      <trkpt lat="43.87112" lon="7.25956">
        <ele>1088</ele>
        <time>2013-03-10T11:56:16Z</time>
      </trkpt>
      <trkpt lat="43.87114" lon="7.25955">
        <ele>1089</ele>
        <time>2013-03-10T11:56:17Z</time>
      </trkpt>
      <trkpt lat="43.87116" lon="7.25955">
        <ele>1089</ele>
        <time>2013-03-10T11:56:18Z</time>
      </trkpt>
      <trkpt lat="43.87118" lon="7.25954">
        <ele>1090</ele>
        <time>2013-03-10T11:56:19Z</time>
      </trkpt>
      <trkpt lat="43.87119" lon="7.25954">
        <ele>1090</ele>
        <time>2013-03-10T11:56:20Z</time>
      </trkpt>
      <trkpt lat="43.87128" lon="7.25958">
        <ele>1090</ele>
        <time>2013-03-10T11:56:25Z</time>
      </trkpt>
      <trkpt lat="43.87135" lon="7.25969">
        <ele>1090</ele>
        <time>2013-03-10T11:56:31Z</time>
      </trkpt>
      <trkpt lat="43.87139" lon="7.25978">
        <ele>1090</ele>
        <time>2013-03-10T11:56:35Z</time>
      </trkpt>
      <trkpt lat="43.87139" lon="7.2598">
        <ele>1091</ele>
        <time>2013-03-10T11:56:36Z</time>
      </trkpt>
      <trkpt lat="43.8714" lon="7.25983">
        <ele>1091</ele>
        <time>2013-03-10T11:56:37Z</time>
      </trkpt>
      <trkpt lat="43.8714" lon="7.25986">
        <ele>1092</ele>
        <time>2013-03-10T11:56:38Z</time>
      </trkpt>
      <trkpt lat="43.87141" lon="7.25988">
        <ele>1092</ele>
        <time>2013-03-10T11:56:39Z</time>
      </trkpt>
      <trkpt lat="43.87145" lon="7.26005">
        <ele>1092</ele>
        <time>2013-03-10T11:56:45Z</time>
      </trkpt>
      <trkpt lat="43.87148" lon="7.26023">
        <ele>1092</ele>
        <time>2013-03-10T11:56:51Z</time>
      </trkpt>
      <trkpt lat="43.87148" lon="7.26026">
        <ele>1093</ele>
        <time>2013-03-10T11:56:52Z</time>
      </trkpt>
      <trkpt lat="43.87148" lon="7.26029">
        <ele>1093</ele>
        <time>2013-03-10T11:56:53Z</time>
      </trkpt>
      <trkpt lat="43.87147" lon="7.26032">
        <ele>1093</ele>
        <time>2013-03-10T11:56:54Z</time>
      </trkpt>
      <trkpt lat="43.87146" lon="7.26034">
        <ele>1094</ele>
        <time>2013-03-10T11:56:55Z</time>
      </trkpt>
      <trkpt lat="43.87145" lon="7.26036">
        <ele>1094</ele>
        <time>2013-03-10T11:56:56Z</time>
      </trkpt>
      <trkpt lat="43.87143" lon="7.26039">
        <ele>1094</ele>
        <time>2013-03-10T11:56:57Z</time>
      </trkpt>
      <trkpt lat="43.87138" lon="7.26051">
        <ele>1094</ele>
        <time>2013-03-10T11:57:02Z</time>
      </trkpt>
      <trkpt lat="43.87136" lon="7.26059">
        <ele>1095</ele>
        <time>2013-03-10T11:57:05Z</time>
      </trkpt>
      <trkpt lat="43.87135" lon="7.26063">
        <ele>1095</ele>
        <time>2013-03-10T11:57:06Z</time>
      </trkpt>
      <trkpt lat="43.87135" lon="7.26065">
        <ele>1095</ele>
        <time>2013-03-10T11:57:07Z</time>
      </trkpt>
      <trkpt lat="43.87135" lon="7.26067">
        <ele>1096</ele>
        <time>2013-03-10T11:57:08Z</time>
      </trkpt>
      <trkpt lat="43.87134" lon="7.26069">
        <ele>1096</ele>
        <time>2013-03-10T11:57:09Z</time>
      </trkpt>
      <trkpt lat="43.87131" lon="7.26077">
        <ele>1096</ele>
        <time>2013-03-10T11:57:12Z</time>
      </trkpt>
      <trkpt lat="43.8713" lon="7.26081">
        <ele>1096</ele>
        <time>2013-03-10T11:57:14Z</time>
      </trkpt>
      <trkpt lat="43.87123" lon="7.26095">
        <ele>1096</ele>
        <time>2013-03-10T11:57:19Z</time>
      </trkpt>
      <trkpt lat="43.87121" lon="7.26099">
        <ele>1097</ele>
        <time>2013-03-10T11:57:21Z</time>
      </trkpt>
      <trkpt lat="43.87119" lon="7.26101">
        <ele>1097</ele>
        <time>2013-03-10T11:57:22Z</time>
      </trkpt>
      <trkpt lat="43.87118" lon="7.26103">
        <ele>1098</ele>
        <time>2013-03-10T11:57:23Z</time>
      </trkpt>
      <trkpt lat="43.87116" lon="7.26106">
        <ele>1098</ele>
        <time>2013-03-10T11:57:24Z</time>
      </trkpt>
      <trkpt lat="43.87114" lon="7.26108">
        <ele>1098</ele>
        <time>2013-03-10T11:57:25Z</time>
      </trkpt>
      <trkpt lat="43.87107" lon="7.26117">
        <ele>1098</ele>
        <time>2013-03-10T11:57:30Z</time>
      </trkpt>
      <trkpt lat="43.87101" lon="7.2613">
        <ele>1099</ele>
        <time>2013-03-10T11:57:37Z</time>
      </trkpt>
      <trkpt lat="43.871" lon="7.26131">
        <ele>1099</ele>
        <time>2013-03-10T11:57:38Z</time>
      </trkpt>
      <trkpt lat="43.87099" lon="7.26132">
        <ele>1100</ele>
        <time>2013-03-10T11:57:39Z</time>
      </trkpt>
      <trkpt lat="43.87098" lon="7.26133">
        <ele>1100</ele>
        <time>2013-03-10T11:57:40Z</time>
      </trkpt>
      <trkpt lat="43.87096" lon="7.26137">
        <ele>1101</ele>
        <time>2013-03-10T11:57:41Z</time>
      </trkpt>
      <trkpt lat="43.87094" lon="7.2614">
        <ele>1101</ele>
        <time>2013-03-10T11:57:42Z</time>
      </trkpt>
      <trkpt lat="43.87083" lon="7.26157">
        <ele>1101</ele>
        <time>2013-03-10T11:57:47Z</time>
      </trkpt>
      <trkpt lat="43.87084" lon="7.26165">
        <ele>1101</ele>
        <time>2013-03-10T11:57:50Z</time>
      </trkpt>
      <trkpt lat="43.87085" lon="7.26168">
        <ele>1101</ele>
        <time>2013-03-10T11:57:51Z</time>
      </trkpt>
      <trkpt lat="43.87085" lon="7.2617">
        <ele>1101</ele>
        <time>2013-03-10T11:57:52Z</time>
      </trkpt>
      <trkpt lat="43.87086" lon="7.26173">
        <ele>1102</ele>
        <time>2013-03-10T11:57:53Z</time>
      </trkpt>
      <trkpt lat="43.87086" lon="7.26175">
        <ele>1102</ele>
        <time>2013-03-10T11:57:54Z</time>
      </trkpt>
      <trkpt lat="43.87086" lon="7.26178">
        <ele>1103</ele>
        <time>2013-03-10T11:57:55Z</time>
      </trkpt>
      <trkpt lat="43.87086" lon="7.26181">
        <ele>1103</ele>
        <time>2013-03-10T11:57:56Z</time>
      </trkpt>
      <trkpt lat="43.87086" lon="7.26199">
        <ele>1103</ele>
        <time>2013-03-10T11:58:02Z</time>
      </trkpt>
      <trkpt lat="43.87085" lon="7.26217">
        <ele>1103</ele>
        <time>2013-03-10T11:58:08Z</time>
      </trkpt>
      <trkpt lat="43.87084" lon="7.2622">
        <ele>1103</ele>
        <time>2013-03-10T11:58:09Z</time>
      </trkpt>
      <trkpt lat="43.87083" lon="7.26223">
        <ele>1104</ele>
        <time>2013-03-10T11:58:10Z</time>
      </trkpt>
      <trkpt lat="43.87084" lon="7.26225">
        <ele>1104</ele>
        <time>2013-03-10T11:58:11Z</time>
      </trkpt>
      <trkpt lat="43.87084" lon="7.26229">
        <ele>1104</ele>
        <time>2013-03-10T11:58:12Z</time>
      </trkpt>
      <trkpt lat="43.87085" lon="7.26232">
        <ele>1105</ele>
        <time>2013-03-10T11:58:13Z</time>
      </trkpt>
      <trkpt lat="43.8709" lon="7.26251">
        <ele>1105</ele>
        <time>2013-03-10T11:58:19Z</time>
      </trkpt>
      <trkpt lat="43.87092" lon="7.2626">
        <ele>1105</ele>
        <time>2013-03-10T11:58:22Z</time>
      </trkpt>
      <trkpt lat="43.87093" lon="7.26262">
        <ele>1106</ele>
        <time>2013-03-10T11:58:23Z</time>
      </trkpt>
      <trkpt lat="43.87094" lon="7.26265">
        <ele>1106</ele>
        <time>2013-03-10T11:58:24Z</time>
      </trkpt>
      <trkpt lat="43.87095" lon="7.26268">
        <ele>1107</ele>
        <time>2013-03-10T11:58:25Z</time>
      </trkpt>
      <trkpt lat="43.87095" lon="7.2627">
        <ele>1107</ele>
        <time>2013-03-10T11:58:26Z</time>
      </trkpt>
      <trkpt lat="43.87099" lon="7.26279">
        <ele>1107</ele>
        <time>2013-03-10T11:58:29Z</time>
      </trkpt>
      <trkpt lat="43.87101" lon="7.26284">
        <ele>1107</ele>
        <time>2013-03-10T11:58:31Z</time>
      </trkpt>
      <trkpt lat="43.87106" lon="7.26302">
        <ele>1107</ele>
        <time>2013-03-10T11:58:37Z</time>
      </trkpt>
      <trkpt lat="43.87106" lon="7.26305">
        <ele>1108</ele>
        <time>2013-03-10T11:58:38Z</time>
      </trkpt>
      <trkpt lat="43.87106" lon="7.26308">
        <ele>1109</ele>
        <time>2013-03-10T11:58:39Z</time>
      </trkpt>
      <trkpt lat="43.87107" lon="7.26312">
        <ele>1109</ele>
        <time>2013-03-10T11:58:40Z</time>
      </trkpt>
      <trkpt lat="43.87107" lon="7.26321">
        <ele>1109</ele>
        <time>2013-03-10T11:58:43Z</time>
      </trkpt>
      <trkpt lat="43.87106" lon="7.26337">
        <ele>1109</ele>
        <time>2013-03-10T11:58:48Z</time>
      </trkpt>
      <trkpt lat="43.87106" lon="7.26351">
        <ele>1110</ele>
        <time>2013-03-10T11:58:52Z</time>
      </trkpt>
      <trkpt lat="43.87105" lon="7.26355">
        <ele>1110</ele>
        <time>2013-03-10T11:58:53Z</time>
      </trkpt>
      <trkpt lat="43.87104" lon="7.26359">
        <ele>1110</ele>
        <time>2013-03-10T11:58:54Z</time>
      </trkpt>
      <trkpt lat="43.87104" lon="7.26362">
        <ele>1111</ele>
        <time>2013-03-10T11:58:55Z</time>
      </trkpt>
      <trkpt lat="43.87103" lon="7.26366">
        <ele>1111</ele>
        <time>2013-03-10T11:58:56Z</time>
      </trkpt>
      <trkpt lat="43.87101" lon="7.26379">
        <ele>1111</ele>
        <time>2013-03-10T11:59:00Z</time>
      </trkpt>
      <trkpt lat="43.87098" lon="7.26399">
        <ele>1111</ele>
        <time>2013-03-10T11:59:07Z</time>
      </trkpt>
      <trkpt lat="43.87102" lon="7.26414">
        <ele>1112</ele>
        <time>2013-03-10T11:59:12Z</time>
      </trkpt>
      <trkpt lat="43.87102" lon="7.26417">
        <ele>1112</ele>
        <time>2013-03-10T11:59:13Z</time>
      </trkpt>
      <trkpt lat="43.87103" lon="7.26421">
        <ele>1112</ele>
        <time>2013-03-10T11:59:14Z</time>
      </trkpt>
      <trkpt lat="43.87103" lon="7.26424">
        <ele>1113</ele>
        <time>2013-03-10T11:59:15Z</time>
      </trkpt>
      <trkpt lat="43.87105" lon="7.26427">
        <ele>1113</ele>
        <time>2013-03-10T11:59:16Z</time>
      </trkpt>
      <trkpt lat="43.87107" lon="7.26433">
        <ele>1113</ele>
        <time>2013-03-10T11:59:18Z</time>
      </trkpt>
      <trkpt lat="43.87112" lon="7.26451">
        <ele>1113</ele>
        <time>2013-03-10T11:59:24Z</time>
      </trkpt>
      <trkpt lat="43.87115" lon="7.26466">
        <ele>1114</ele>
        <time>2013-03-10T11:59:29Z</time>
      </trkpt>
      <trkpt lat="43.87116" lon="7.26468">
        <ele>1114</ele>
        <time>2013-03-10T11:59:30Z</time>
      </trkpt>
      <trkpt lat="43.87116" lon="7.26471">
        <ele>1115</ele>
        <time>2013-03-10T11:59:31Z</time>
      </trkpt>
      <trkpt lat="43.87117" lon="7.26473">
        <ele>1115</ele>
        <time>2013-03-10T11:59:32Z</time>
      </trkpt>
      <trkpt lat="43.87117" lon="7.26476">
        <ele>1115</ele>
        <time>2013-03-10T11:59:33Z</time>
      </trkpt>
      <trkpt lat="43.87116" lon="7.26491">
        <ele>1115</ele>
        <time>2013-03-10T11:59:38Z</time>
      </trkpt>
      <trkpt lat="43.87112" lon="7.26505">
        <ele>1116</ele>
        <time>2013-03-10T11:59:43Z</time>
      </trkpt>
      <trkpt lat="43.8711" lon="7.26508">
        <ele>1116</ele>
        <time>2013-03-10T11:59:44Z</time>
      </trkpt>
      <trkpt lat="43.87109" lon="7.26511">
        <ele>1117</ele>
        <time>2013-03-10T11:59:45Z</time>
      </trkpt>
      <trkpt lat="43.87107" lon="7.26513">
        <ele>1117</ele>
        <time>2013-03-10T11:59:46Z</time>
      </trkpt>
      <trkpt lat="43.87104" lon="7.26516">
        <ele>1117</ele>
        <time>2013-03-10T11:59:47Z</time>
      </trkpt>
      <trkpt lat="43.87097" lon="7.26522">
        <ele>1117</ele>
        <time>2013-03-10T11:59:50Z</time>
      </trkpt>
      <trkpt lat="43.87084" lon="7.2653">
        <ele>1117</ele>
        <time>2013-03-10T11:59:56Z</time>
      </trkpt>
      <trkpt lat="43.87074" lon="7.26528">
        <ele>1117</ele>
        <time>2013-03-10T12:00:01Z</time>
      </trkpt>
      <trkpt lat="43.87073" lon="7.26527">
        <ele>1117</ele>
        <time>2013-03-10T12:00:02Z</time>
      </trkpt>
      <trkpt lat="43.8707" lon="7.26524">
        <ele>1117</ele>
        <time>2013-03-10T12:00:05Z</time>
      </trkpt>
      <trkpt lat="43.8707" lon="7.26523">
        <ele>1117</ele>
        <time>2013-03-10T12:00:07Z</time>
      </trkpt>
      <trkpt lat="43.87065" lon="7.26526">
        <ele>1117</ele>
        <time>2013-03-10T12:06:29Z</time>
      </trkpt>
      <trkpt lat="43.87061" lon="7.26529">
        <ele>1117</ele>
        <time>2013-03-10T12:06:32Z</time>
      </trkpt>
      <trkpt lat="43.8706" lon="7.26532">
        <ele>1117</ele>
        <time>2013-03-10T12:06:34Z</time>
      </trkpt>
      <trkpt lat="43.87063" lon="7.26535">
        <ele>1117</ele>
        <time>2013-03-10T12:06:36Z</time>
      </trkpt>
      <trkpt lat="43.87069" lon="7.26529">
        <ele>1117</ele>
        <time>2013-03-10T12:06:39Z</time>
      </trkpt>
      <trkpt lat="43.87067" lon="7.26523">
        <ele>1117</ele>
        <time>2013-03-10T12:06:42Z</time>
      </trkpt>
      <trkpt lat="43.87067" lon="7.26523">
        <ele>1117</ele>
        <time>2013-03-10T12:06:44Z</time>
      </trkpt>
      <trkpt lat="43.87068" lon="7.26528">
        <ele>1119</ele>
        <time>2013-03-10T12:07:12Z</time>
      </trkpt>
      <trkpt lat="43.87067" lon="7.2653">
        <ele>1119</ele>
        <time>2013-03-10T12:07:13Z</time>
      </trkpt>
      <trkpt lat="43.87061" lon="7.26533">
        <ele>1119</ele>
        <time>2013-03-10T12:07:16Z</time>
      </trkpt>
      <trkpt lat="43.87058" lon="7.26534">
        <ele>1119</ele>
        <time>2013-03-10T12:07:17Z</time>
      </trkpt>
      <trkpt lat="43.8704" lon="7.26533">
        <ele>1119</ele>
        <time>2013-03-10T12:07:23Z</time>
      </trkpt>
      <trkpt lat="43.87037" lon="7.26534">
        <ele>1119</ele>
        <time>2013-03-10T12:07:24Z</time>
      </trkpt>
      <trkpt lat="43.87034" lon="7.26535">
        <ele>1118</ele>
        <time>2013-03-10T12:07:25Z</time>
      </trkpt>
      <trkpt lat="43.87031" lon="7.26536">
        <ele>1118</ele>
        <time>2013-03-10T12:07:26Z</time>
      </trkpt>
      <trkpt lat="43.87028" lon="7.26538">
        <ele>1117</ele>
        <time>2013-03-10T12:07:27Z</time>
      </trkpt>
      <trkpt lat="43.87022" lon="7.26542">
        <ele>1117</ele>
        <time>2013-03-10T12:07:29Z</time>
      </trkpt>
      <trkpt lat="43.87004" lon="7.26559">
        <ele>1117</ele>
        <time>2013-03-10T12:07:34Z</time>
      </trkpt>
      <trkpt lat="43.87" lon="7.26562">
        <ele>1116</ele>
        <time>2013-03-10T12:07:35Z</time>
      </trkpt>
      <trkpt lat="43.86997" lon="7.26564">
        <ele>1116</ele>
        <time>2013-03-10T12:07:36Z</time>
      </trkpt>
      <trkpt lat="43.86994" lon="7.26565">
        <ele>1115</ele>
        <time>2013-03-10T12:07:37Z</time>
      </trkpt>
      <trkpt lat="43.8699" lon="7.26566">
        <ele>1115</ele>
        <time>2013-03-10T12:07:38Z</time>
      </trkpt>
      <trkpt lat="43.86987" lon="7.26566">
        <ele>1115</ele>
        <time>2013-03-10T12:07:39Z</time>
      </trkpt>
      <trkpt lat="43.86972" lon="7.26566">
        <ele>1115</ele>
        <time>2013-03-10T12:07:43Z</time>
      </trkpt>
      <trkpt lat="43.86967" lon="7.26565">
        <ele>1115</ele>
        <time>2013-03-10T12:07:44Z</time>
      </trkpt>
      <trkpt lat="43.86963" lon="7.26565">
        <ele>1114</ele>
        <time>2013-03-10T12:07:45Z</time>
      </trkpt>
      <trkpt lat="43.86959" lon="7.26564">
        <ele>1114</ele>
        <time>2013-03-10T12:07:46Z</time>
      </trkpt>
      <trkpt lat="43.86955" lon="7.26563">
        <ele>1113</ele>
        <time>2013-03-10T12:07:47Z</time>
      </trkpt>
      <trkpt lat="43.8695" lon="7.26562">
        <ele>1113</ele>
        <time>2013-03-10T12:07:48Z</time>
      </trkpt>
      <trkpt lat="43.86937" lon="7.26558">
        <ele>1112</ele>
        <time>2013-03-10T12:07:51Z</time>
      </trkpt>
      <trkpt lat="43.86933" lon="7.26558">
        <ele>1112</ele>
        <time>2013-03-10T12:07:52Z</time>
      </trkpt>
      <trkpt lat="43.86929" lon="7.26559">
        <ele>1112</ele>
        <time>2013-03-10T12:07:53Z</time>
      </trkpt>
      <trkpt lat="43.86924" lon="7.2656">
        <ele>1111</ele>
        <time>2013-03-10T12:07:54Z</time>
      </trkpt>
      <trkpt lat="43.8692" lon="7.26562">
        <ele>1111</ele>
        <time>2013-03-10T12:07:55Z</time>
      </trkpt>
      <trkpt lat="43.8691" lon="7.26577">
        <ele>1111</ele>
        <time>2013-03-10T12:07:58Z</time>
      </trkpt>
      <trkpt lat="43.86908" lon="7.26583">
        <ele>1110</ele>
        <time>2013-03-10T12:07:59Z</time>
      </trkpt>
      <trkpt lat="43.86906" lon="7.2659">
        <ele>1110</ele>
        <time>2013-03-10T12:08:00Z</time>
      </trkpt>
      <trkpt lat="43.86904" lon="7.26596">
        <ele>1109</ele>
        <time>2013-03-10T12:08:01Z</time>
      </trkpt>
      <trkpt lat="43.869" lon="7.26602">
        <ele>1109</ele>
        <time>2013-03-10T12:08:02Z</time>
      </trkpt>
      <trkpt lat="43.86897" lon="7.26609">
        <ele>1108</ele>
        <time>2013-03-10T12:08:03Z</time>
      </trkpt>
      <trkpt lat="43.86893" lon="7.26615">
        <ele>1108</ele>
        <time>2013-03-10T12:08:04Z</time>
      </trkpt>
      <trkpt lat="43.8688" lon="7.26634">
        <ele>1107</ele>
        <time>2013-03-10T12:08:07Z</time>
      </trkpt>
      <trkpt lat="43.86875" lon="7.26641">
        <ele>1107</ele>
        <time>2013-03-10T12:08:08Z</time>
      </trkpt>
      <trkpt lat="43.86869" lon="7.26647">
        <ele>1106</ele>
        <time>2013-03-10T12:08:09Z</time>
      </trkpt>
      <trkpt lat="43.86863" lon="7.26652">
        <ele>1106</ele>
        <time>2013-03-10T12:08:10Z</time>
      </trkpt>
      <trkpt lat="43.86857" lon="7.26656">
        <ele>1105</ele>
        <time>2013-03-10T12:08:11Z</time>
      </trkpt>
      <trkpt lat="43.8685" lon="7.26659">
        <ele>1105</ele>
        <time>2013-03-10T12:08:12Z</time>
      </trkpt>
      <trkpt lat="43.86844" lon="7.26661">
        <ele>1105</ele>
        <time>2013-03-10T12:08:13Z</time>
      </trkpt>
      <trkpt lat="43.86837" lon="7.26661">
        <ele>1104</ele>
        <time>2013-03-10T12:08:14Z</time>
      </trkpt>
      <trkpt lat="43.8683" lon="7.2666">
        <ele>1104</ele>
        <time>2013-03-10T12:08:15Z</time>
      </trkpt>
      <trkpt lat="43.86823" lon="7.26658">
        <ele>1104</ele>
        <time>2013-03-10T12:08:16Z</time>
      </trkpt>
      <trkpt lat="43.86809" lon="7.26651">
        <ele>1103</ele>
        <time>2013-03-10T12:08:18Z</time>
      </trkpt>
      <trkpt lat="43.86803" lon="7.26648">
        <ele>1103</ele>
        <time>2013-03-10T12:08:19Z</time>
      </trkpt>
      <trkpt lat="43.86798" lon="7.26645">
        <ele>1102</ele>
        <time>2013-03-10T12:08:20Z</time>
      </trkpt>
      <trkpt lat="43.86793" lon="7.26642">
        <ele>1102</ele>
        <time>2013-03-10T12:08:21Z</time>
      </trkpt>
      <trkpt lat="43.86789" lon="7.26638">
        <ele>1101</ele>
        <time>2013-03-10T12:08:22Z</time>
      </trkpt>
      <trkpt lat="43.86779" lon="7.2663">
        <ele>1101</ele>
        <time>2013-03-10T12:08:24Z</time>
      </trkpt>
      <trkpt lat="43.86774" lon="7.26628">
        <ele>1101</ele>
        <time>2013-03-10T12:08:25Z</time>
      </trkpt>
      <trkpt lat="43.86769" lon="7.26626">
        <ele>1101</ele>
        <time>2013-03-10T12:08:26Z</time>
      </trkpt>
      <trkpt lat="43.86763" lon="7.26625">
        <ele>1101</ele>
        <time>2013-03-10T12:08:27Z</time>
      </trkpt>
      <trkpt lat="43.86757" lon="7.26624">
        <ele>1100</ele>
        <time>2013-03-10T12:08:28Z</time>
      </trkpt>
      <trkpt lat="43.86752" lon="7.26624">
        <ele>1100</ele>
        <time>2013-03-10T12:08:29Z</time>
      </trkpt>
      <trkpt lat="43.86746" lon="7.26624">
        <ele>1099</ele>
        <time>2013-03-10T12:08:30Z</time>
      </trkpt>
      <trkpt lat="43.86722" lon="7.26624">
        <ele>1099</ele>
        <time>2013-03-10T12:08:34Z</time>
      </trkpt>
      <trkpt lat="43.86717" lon="7.26625">
        <ele>1099</ele>
        <time>2013-03-10T12:08:35Z</time>
      </trkpt>
      <trkpt lat="43.86712" lon="7.26627">
        <ele>1098</ele>
        <time>2013-03-10T12:08:36Z</time>
      </trkpt>
      <trkpt lat="43.86707" lon="7.26629">
        <ele>1098</ele>
        <time>2013-03-10T12:08:37Z</time>
      </trkpt>
      <trkpt lat="43.86702" lon="7.26631">
        <ele>1097</ele>
        <time>2013-03-10T12:08:38Z</time>
      </trkpt>
      <trkpt lat="43.86692" lon="7.26637">
        <ele>1097</ele>
        <time>2013-03-10T12:08:40Z</time>
      </trkpt>
      <trkpt lat="43.86682" lon="7.26643">
        <ele>1097</ele>
        <time>2013-03-10T12:08:42Z</time>
      </trkpt>
      <trkpt lat="43.86677" lon="7.26646">
        <ele>1096</ele>
        <time>2013-03-10T12:08:43Z</time>
      </trkpt>
      <trkpt lat="43.86671" lon="7.26649">
        <ele>1096</ele>
        <time>2013-03-10T12:08:44Z</time>
      </trkpt>
      <trkpt lat="43.86666" lon="7.26652">
        <ele>1096</ele>
        <time>2013-03-10T12:08:45Z</time>
      </trkpt>
      <trkpt lat="43.86661" lon="7.26654">
        <ele>1095</ele>
        <time>2013-03-10T12:08:46Z</time>
      </trkpt>
      <trkpt lat="43.86651" lon="7.26659">
        <ele>1095</ele>
        <time>2013-03-10T12:08:48Z</time>
      </trkpt>
      <trkpt lat="43.86633" lon="7.26667">
        <ele>1095</ele>
        <time>2013-03-10T12:08:52Z</time>
      </trkpt>
      <trkpt lat="43.86628" lon="7.26668">
        <ele>1095</ele>
        <time>2013-03-10T12:08:53Z</time>
      </trkpt>
      <trkpt lat="43.86624" lon="7.26668">
        <ele>1094</ele>
        <time>2013-03-10T12:08:54Z</time>
      </trkpt>
      <trkpt lat="43.86619" lon="7.26668">
        <ele>1094</ele>
        <time>2013-03-10T12:08:55Z</time>
      </trkpt>
      <trkpt lat="43.86613" lon="7.26668">
        <ele>1094</ele>
        <time>2013-03-10T12:08:56Z</time>
      </trkpt>
      <trkpt lat="43.86607" lon="7.26667">
        <ele>1093</ele>
        <time>2013-03-10T12:08:57Z</time>
      </trkpt>
      <trkpt lat="43.86601" lon="7.26667">
        <ele>1093</ele>
        <time>2013-03-10T12:08:58Z</time>
      </trkpt>
      <trkpt lat="43.86595" lon="7.26668">
        <ele>1093</ele>
        <time>2013-03-10T12:08:59Z</time>
      </trkpt>
      <trkpt lat="43.86577" lon="7.26669">
        <ele>1093</ele>
        <time>2013-03-10T12:09:02Z</time>
      </trkpt>
      <trkpt lat="43.86571" lon="7.26669">
        <ele>1092</ele>
        <time>2013-03-10T12:09:03Z</time>
      </trkpt>
      <trkpt lat="43.86566" lon="7.26667">
        <ele>1092</ele>
        <time>2013-03-10T12:09:04Z</time>
      </trkpt>
      <trkpt lat="43.8656" lon="7.26665">
        <ele>1091</ele>
        <time>2013-03-10T12:09:05Z</time>
      </trkpt>
      <trkpt lat="43.86555" lon="7.26664">
        <ele>1091</ele>
        <time>2013-03-10T12:09:06Z</time>
      </trkpt>
      <trkpt lat="43.86525" lon="7.26654">
        <ele>1091</ele>
        <time>2013-03-10T12:09:12Z</time>
      </trkpt>
      <trkpt lat="43.86503" lon="7.26643">
        <ele>1090</ele>
        <time>2013-03-10T12:09:16Z</time>
      </trkpt>
      <trkpt lat="43.86497" lon="7.2664">
        <ele>1090</ele>
        <time>2013-03-10T12:09:17Z</time>
      </trkpt>
      <trkpt lat="43.86491" lon="7.26638">
        <ele>1090</ele>
        <time>2013-03-10T12:09:18Z</time>
      </trkpt>
      <trkpt lat="43.86485" lon="7.26635">
        <ele>1089</ele>
        <time>2013-03-10T12:09:19Z</time>
      </trkpt>
      <trkpt lat="43.8648" lon="7.26633">
        <ele>1089</ele>
        <time>2013-03-10T12:09:20Z</time>
      </trkpt>
      <trkpt lat="43.86463" lon="7.26622">
        <ele>1089</ele>
        <time>2013-03-10T12:09:23Z</time>
      </trkpt>
      <trkpt lat="43.86452" lon="7.26617">
        <ele>1088</ele>
        <time>2013-03-10T12:09:25Z</time>
      </trkpt>
      <trkpt lat="43.86446" lon="7.26615">
        <ele>1088</ele>
        <time>2013-03-10T12:09:26Z</time>
      </trkpt>
      <trkpt lat="43.8644" lon="7.26614">
        <ele>1087</ele>
        <time>2013-03-10T12:09:27Z</time>
      </trkpt>
      <trkpt lat="43.86435" lon="7.26614">
        <ele>1087</ele>
        <time>2013-03-10T12:09:28Z</time>
      </trkpt>
      <trkpt lat="43.86429" lon="7.26614">
        <ele>1086</ele>
        <time>2013-03-10T12:09:29Z</time>
      </trkpt>
      <trkpt lat="43.86418" lon="7.26615">
        <ele>1086</ele>
        <time>2013-03-10T12:09:31Z</time>
      </trkpt>
      <trkpt lat="43.86407" lon="7.26615">
        <ele>1086</ele>
        <time>2013-03-10T12:09:33Z</time>
      </trkpt>
      <trkpt lat="43.8639" lon="7.26617">
        <ele>1086</ele>
        <time>2013-03-10T12:09:36Z</time>
      </trkpt>
      <trkpt lat="43.86384" lon="7.26618">
        <ele>1086</ele>
        <time>2013-03-10T12:09:37Z</time>
      </trkpt>
      <trkpt lat="43.86379" lon="7.26619">
        <ele>1085</ele>
        <time>2013-03-10T12:09:38Z</time>
      </trkpt>
      <trkpt lat="43.86373" lon="7.2662">
        <ele>1085</ele>
        <time>2013-03-10T12:09:39Z</time>
      </trkpt>
      <trkpt lat="43.86367" lon="7.26622">
        <ele>1084</ele>
        <time>2013-03-10T12:09:40Z</time>
      </trkpt>
      <trkpt lat="43.86342" lon="7.2663">
        <ele>1084</ele>
        <time>2013-03-10T12:09:45Z</time>
      </trkpt>
      <trkpt lat="43.86337" lon="7.26632">
        <ele>1083</ele>
        <time>2013-03-10T12:09:46Z</time>
      </trkpt>
      <trkpt lat="43.86331" lon="7.26634">
        <ele>1083</ele>
        <time>2013-03-10T12:09:47Z</time>
      </trkpt>
      <trkpt lat="43.86326" lon="7.26637">
        <ele>1082</ele>
        <time>2013-03-10T12:09:48Z</time>
      </trkpt>
      <trkpt lat="43.8632" lon="7.26639">
        <ele>1082</ele>
        <time>2013-03-10T12:09:49Z</time>
      </trkpt>
      <trkpt lat="43.86304" lon="7.26649">
        <ele>1082</ele>
        <time>2013-03-10T12:09:52Z</time>
      </trkpt>
      <trkpt lat="43.86299" lon="7.26651">
        <ele>1081</ele>
        <time>2013-03-10T12:09:53Z</time>
      </trkpt>
      <trkpt lat="43.86293" lon="7.26654">
        <ele>1081</ele>
        <time>2013-03-10T12:09:54Z</time>
      </trkpt>
      <trkpt lat="43.86287" lon="7.26656">
        <ele>1080</ele>
        <time>2013-03-10T12:09:55Z</time>
      </trkpt>
      <trkpt lat="43.86281" lon="7.26658">
        <ele>1080</ele>
        <time>2013-03-10T12:09:56Z</time>
      </trkpt>
      <trkpt lat="43.86275" lon="7.2666">
        <ele>1080</ele>
        <time>2013-03-10T12:09:57Z</time>
      </trkpt>
      <trkpt lat="43.86269" lon="7.26662">
        <ele>1079</ele>
        <time>2013-03-10T12:09:58Z</time>
      </trkpt>
      <trkpt lat="43.86262" lon="7.26662">
        <ele>1079</ele>
        <time>2013-03-10T12:09:59Z</time>
      </trkpt>
      <trkpt lat="43.86256" lon="7.26664">
        <ele>1078</ele>
        <time>2013-03-10T12:10:00Z</time>
      </trkpt>
      <trkpt lat="43.86249" lon="7.26665">
        <ele>1078</ele>
        <time>2013-03-10T12:10:01Z</time>
      </trkpt>
      <trkpt lat="43.86242" lon="7.26666">
        <ele>1077</ele>
        <time>2013-03-10T12:10:02Z</time>
      </trkpt>
      <trkpt lat="43.86234" lon="7.26669">
        <ele>1077</ele>
        <time>2013-03-10T12:10:03Z</time>
      </trkpt>
      <trkpt lat="43.86227" lon="7.26671">
        <ele>1076</ele>
        <time>2013-03-10T12:10:04Z</time>
      </trkpt>
      <trkpt lat="43.86219" lon="7.26674">
        <ele>1076</ele>
        <time>2013-03-10T12:10:05Z</time>
      </trkpt>
      <trkpt lat="43.86212" lon="7.26676">
        <ele>1075</ele>
        <time>2013-03-10T12:10:06Z</time>
      </trkpt>
      <trkpt lat="43.86204" lon="7.26678">
        <ele>1075</ele>
        <time>2013-03-10T12:10:07Z</time>
      </trkpt>
      <trkpt lat="43.86196" lon="7.2668">
        <ele>1074</ele>
        <time>2013-03-10T12:10:08Z</time>
      </trkpt>
      <trkpt lat="43.8619" lon="7.26683">
        <ele>1073</ele>
        <time>2013-03-10T12:10:09Z</time>
      </trkpt>
      <trkpt lat="43.86184" lon="7.26685">
        <ele>1072</ele>
        <time>2013-03-10T12:10:10Z</time>
      </trkpt>
      <trkpt lat="43.86162" lon="7.26693">
        <ele>1072</ele>
        <time>2013-03-10T12:10:14Z</time>
      </trkpt>
      <trkpt lat="43.86142" lon="7.26699">
        <ele>1072</ele>
        <time>2013-03-10T12:10:18Z</time>
      </trkpt>
      <trkpt lat="43.86135" lon="7.26701">
        <ele>1072</ele>
        <time>2013-03-10T12:10:20Z</time>
      </trkpt>
      <trkpt lat="43.86123" lon="7.2671">
        <ele>1073</ele>
        <time>2013-03-10T12:10:24Z</time>
      </trkpt>
      <trkpt lat="43.86121" lon="7.26712">
        <ele>1073</ele>
        <time>2013-03-10T12:10:25Z</time>
      </trkpt>
      <trkpt lat="43.86118" lon="7.26714">
        <ele>1074</ele>
        <time>2013-03-10T12:10:26Z</time>
      </trkpt>
      <trkpt lat="43.86117" lon="7.26716">
        <ele>1074</ele>
        <time>2013-03-10T12:10:27Z</time>
      </trkpt>
      <trkpt lat="43.86115" lon="7.26718">
        <ele>1075</ele>
        <time>2013-03-10T12:10:28Z</time>
      </trkpt>
      <trkpt lat="43.86112" lon="7.26722">
        <ele>1075</ele>
        <time>2013-03-10T12:10:30Z</time>
      </trkpt>
      <trkpt lat="43.86104" lon="7.26727">
        <ele>1075</ele>
        <time>2013-03-10T12:10:35Z</time>
      </trkpt>
      <trkpt lat="43.86103" lon="7.26728">
        <ele>1076</ele>
        <time>2013-03-10T12:10:36Z</time>
      </trkpt>
      <trkpt lat="43.86102" lon="7.26728">
        <ele>1076</ele>
        <time>2013-03-10T12:10:37Z</time>
      </trkpt>
      <trkpt lat="43.861" lon="7.26729">
        <ele>1076</ele>
        <time>2013-03-10T12:10:38Z</time>
      </trkpt>
      <trkpt lat="43.86098" lon="7.26729">
        <ele>1077</ele>
        <time>2013-03-10T12:10:39Z</time>
      </trkpt>
      <trkpt lat="43.86093" lon="7.2673">
        <ele>1077</ele>
        <time>2013-03-10T12:10:42Z</time>
      </trkpt>
      <trkpt lat="43.86081" lon="7.26734">
        <ele>1077</ele>
        <time>2013-03-10T12:10:49Z</time>
      </trkpt>
      <trkpt lat="43.86079" lon="7.26735">
        <ele>1078</ele>
        <time>2013-03-10T12:10:50Z</time>
      </trkpt>
      <trkpt lat="43.86078" lon="7.26736">
        <ele>1078</ele>
        <time>2013-03-10T12:10:51Z</time>
      </trkpt>
      <trkpt lat="43.86076" lon="7.26736">
        <ele>1078</ele>
        <time>2013-03-10T12:10:52Z</time>
      </trkpt>
      <trkpt lat="43.86074" lon="7.26736">
        <ele>1079</ele>
        <time>2013-03-10T12:10:53Z</time>
      </trkpt>
      <trkpt lat="43.86069" lon="7.26738">
        <ele>1079</ele>
        <time>2013-03-10T12:10:56Z</time>
      </trkpt>
      <trkpt lat="43.86058" lon="7.2674">
        <ele>1079</ele>
        <time>2013-03-10T12:11:02Z</time>
      </trkpt>
      <trkpt lat="43.86056" lon="7.2674">
        <ele>1080</ele>
        <time>2013-03-10T12:11:03Z</time>
      </trkpt>
      <trkpt lat="43.86054" lon="7.26741">
        <ele>1080</ele>
        <time>2013-03-10T12:11:04Z</time>
      </trkpt>
      <trkpt lat="43.86052" lon="7.26741">
        <ele>1081</ele>
        <time>2013-03-10T12:11:05Z</time>
      </trkpt>
      <trkpt lat="43.8605" lon="7.26741">
        <ele>1081</ele>
        <time>2013-03-10T12:11:06Z</time>
      </trkpt>
      <trkpt lat="43.8604" lon="7.26744">
        <ele>1081</ele>
        <time>2013-03-10T12:11:12Z</time>
      </trkpt>
      <trkpt lat="43.86035" lon="7.26744">
        <ele>1081</ele>
        <time>2013-03-10T12:11:15Z</time>
      </trkpt>
      <trkpt lat="43.86033" lon="7.26745">
        <ele>1082</ele>
        <time>2013-03-10T12:11:16Z</time>
      </trkpt>
      <trkpt lat="43.86031" lon="7.26745">
        <ele>1082</ele>
        <time>2013-03-10T12:11:17Z</time>
      </trkpt>
      <trkpt lat="43.86029" lon="7.26745">
        <ele>1083</ele>
        <time>2013-03-10T12:11:18Z</time>
      </trkpt>
      <trkpt lat="43.86028" lon="7.26745">
        <ele>1083</ele>
        <time>2013-03-10T12:11:19Z</time>
      </trkpt>
      <trkpt lat="43.86017" lon="7.26747">
        <ele>1083</ele>
        <time>2013-03-10T12:11:25Z</time>
      </trkpt>
      <trkpt lat="43.86016" lon="7.26748">
        <ele>1084</ele>
        <time>2013-03-10T12:11:26Z</time>
      </trkpt>
      <trkpt lat="43.86014" lon="7.26748">
        <ele>1084</ele>
        <time>2013-03-10T12:11:27Z</time>
      </trkpt>
      <trkpt lat="43.86013" lon="7.26748">
        <ele>1084</ele>
        <time>2013-03-10T12:11:28Z</time>
      </trkpt>
      <trkpt lat="43.86011" lon="7.26748">
        <ele>1085</ele>
        <time>2013-03-10T12:11:29Z</time>
      </trkpt>
      <trkpt lat="43.86009" lon="7.26748">
        <ele>1085</ele>
        <time>2013-03-10T12:11:30Z</time>
      </trkpt>
      <trkpt lat="43.86008" lon="7.26748">
        <ele>1085</ele>
        <time>2013-03-10T12:11:31Z</time>
      </trkpt>
      <trkpt lat="43.85995" lon="7.2675">
        <ele>1086</ele>
        <time>2013-03-10T12:11:39Z</time>
      </trkpt>
      <trkpt lat="43.85993" lon="7.26751">
        <ele>1086</ele>
        <time>2013-03-10T12:11:40Z</time>
      </trkpt>
      <trkpt lat="43.85992" lon="7.26752">
        <ele>1087</ele>
        <time>2013-03-10T12:11:41Z</time>
      </trkpt>
      <trkpt lat="43.85991" lon="7.26753">
        <ele>1087</ele>
        <time>2013-03-10T12:11:42Z</time>
      </trkpt>
      <trkpt lat="43.85989" lon="7.26754">
        <ele>1087</ele>
        <time>2013-03-10T12:11:43Z</time>
      </trkpt>
      <trkpt lat="43.85986" lon="7.26756">
        <ele>1087</ele>
        <time>2013-03-10T12:11:45Z</time>
      </trkpt>
      <trkpt lat="43.85978" lon="7.26761">
        <ele>1088</ele>
        <time>2013-03-10T12:11:51Z</time>
      </trkpt>
      <trkpt lat="43.85976" lon="7.26762">
        <ele>1088</ele>
        <time>2013-03-10T12:11:52Z</time>
      </trkpt>
      <trkpt lat="43.85975" lon="7.26763">
        <ele>1089</ele>
        <time>2013-03-10T12:11:53Z</time>
      </trkpt>
      <trkpt lat="43.85974" lon="7.26764">
        <ele>1089</ele>
        <time>2013-03-10T12:11:54Z</time>
      </trkpt>
      <trkpt lat="43.85972" lon="7.26764">
        <ele>1089</ele>
        <time>2013-03-10T12:11:55Z</time>
      </trkpt>
      <trkpt lat="43.85967" lon="7.26767">
        <ele>1089</ele>
        <time>2013-03-10T12:11:59Z</time>
      </trkpt>
      <trkpt lat="43.85965" lon="7.26767">
        <ele>1089</ele>
        <time>2013-03-10T12:12:00Z</time>
      </trkpt>
      <trkpt lat="43.85959" lon="7.26769">
        <ele>1090</ele>
        <time>2013-03-10T12:12:04Z</time>
      </trkpt>
      <trkpt lat="43.85957" lon="7.26771">
        <ele>1090</ele>
        <time>2013-03-10T12:12:05Z</time>
      </trkpt>
      <trkpt lat="43.85956" lon="7.26772">
        <ele>1091</ele>
        <time>2013-03-10T12:12:06Z</time>
      </trkpt>
      <trkpt lat="43.85954" lon="7.26773">
        <ele>1091</ele>
        <time>2013-03-10T12:12:07Z</time>
      </trkpt>
      <trkpt lat="43.85953" lon="7.26773">
        <ele>1092</ele>
        <time>2013-03-10T12:12:08Z</time>
      </trkpt>
      <trkpt lat="43.85947" lon="7.26774">
        <ele>1092</ele>
        <time>2013-03-10T12:12:12Z</time>
      </trkpt>
      <trkpt lat="43.85937" lon="7.26776">
        <ele>1092</ele>
        <time>2013-03-10T12:12:18Z</time>
      </trkpt>
      <trkpt lat="43.85936" lon="7.26776">
        <ele>1092</ele>
        <time>2013-03-10T12:12:19Z</time>
      </trkpt>
      <trkpt lat="43.85935" lon="7.26776">
        <ele>1093</ele>
        <time>2013-03-10T12:12:20Z</time>
      </trkpt>
      <trkpt lat="43.85934" lon="7.26775">
        <ele>1093</ele>
        <time>2013-03-10T12:12:21Z</time>
      </trkpt>
      <trkpt lat="43.85933" lon="7.26774">
        <ele>1094</ele>
        <time>2013-03-10T12:12:22Z</time>
      </trkpt>
      <trkpt lat="43.85925" lon="7.26771">
        <ele>1094</ele>
        <time>2013-03-10T12:12:27Z</time>
      </trkpt>
      <trkpt lat="43.85916" lon="7.26765">
        <ele>1094</ele>
        <time>2013-03-10T12:12:34Z</time>
      </trkpt>
      <trkpt lat="43.85915" lon="7.26764">
        <ele>1094</ele>
        <time>2013-03-10T12:12:35Z</time>
      </trkpt>
      <trkpt lat="43.85914" lon="7.26763">
        <ele>1095</ele>
        <time>2013-03-10T12:12:36Z</time>
      </trkpt>
      <trkpt lat="43.85913" lon="7.26761">
        <ele>1095</ele>
        <time>2013-03-10T12:12:37Z</time>
      </trkpt>
      <trkpt lat="43.85911" lon="7.26761">
        <ele>1096</ele>
        <time>2013-03-10T12:12:38Z</time>
      </trkpt>
      <trkpt lat="43.85908" lon="7.26759">
        <ele>1096</ele>
        <time>2013-03-10T12:12:40Z</time>
      </trkpt>
      <trkpt lat="43.85905" lon="7.26756">
        <ele>1096</ele>
        <time>2013-03-10T12:12:42Z</time>
      </trkpt>
      <trkpt lat="43.85901" lon="7.26754">
        <ele>1096</ele>
        <time>2013-03-10T12:12:45Z</time>
      </trkpt>
      <trkpt lat="43.85899" lon="7.26753">
        <ele>1097</ele>
        <time>2013-03-10T12:12:46Z</time>
      </trkpt>
      <trkpt lat="43.85898" lon="7.26752">
        <ele>1097</ele>
        <time>2013-03-10T12:12:47Z</time>
      </trkpt>
      <trkpt lat="43.85897" lon="7.26752">
        <ele>1097</ele>
        <time>2013-03-10T12:12:48Z</time>
      </trkpt>
      <trkpt lat="43.85895" lon="7.26751">
        <ele>1098</ele>
        <time>2013-03-10T12:12:49Z</time>
      </trkpt>
      <trkpt lat="43.85889" lon="7.2675">
        <ele>1098</ele>
        <time>2013-03-10T12:12:53Z</time>
      </trkpt>
      <trkpt lat="43.85878" lon="7.26751">
        <ele>1098</ele>
        <time>2013-03-10T12:13:00Z</time>
      </trkpt>
      <trkpt lat="43.85877" lon="7.26752">
        <ele>1099</ele>
        <time>2013-03-10T12:13:01Z</time>
      </trkpt>
      <trkpt lat="43.85876" lon="7.26752">
        <ele>1100</ele>
        <time>2013-03-10T12:13:02Z</time>
      </trkpt>
      <trkpt lat="43.85874" lon="7.26754">
        <ele>1100</ele>
        <time>2013-03-10T12:13:03Z</time>
      </trkpt>
      <trkpt lat="43.85868" lon="7.26758">
        <ele>1100</ele>
        <time>2013-03-10T12:13:08Z</time>
      </trkpt>
      <trkpt lat="43.8586" lon="7.26767">
        <ele>1100</ele>
        <time>2013-03-10T12:13:15Z</time>
      </trkpt>
      <trkpt lat="43.85859" lon="7.26768">
        <ele>1100</ele>
        <time>2013-03-10T12:13:16Z</time>
      </trkpt>
      <trkpt lat="43.85858" lon="7.26769">
        <ele>1101</ele>
        <time>2013-03-10T12:13:17Z</time>
      </trkpt>
      <trkpt lat="43.85857" lon="7.2677">
        <ele>1101</ele>
        <time>2013-03-10T12:13:18Z</time>
      </trkpt>
      <trkpt lat="43.85855" lon="7.26771">
        <ele>1102</ele>
        <time>2013-03-10T12:13:19Z</time>
      </trkpt>
      <trkpt lat="43.85854" lon="7.26772">
        <ele>1102</ele>
        <time>2013-03-10T12:13:20Z</time>
      </trkpt>
      <trkpt lat="43.85851" lon="7.26773">
        <ele>1102</ele>
        <time>2013-03-10T12:13:22Z</time>
      </trkpt>
      <trkpt lat="43.85844" lon="7.26774">
        <ele>1103</ele>
        <time>2013-03-10T12:13:27Z</time>
      </trkpt>
      <trkpt lat="43.85842" lon="7.26774">
        <ele>1103</ele>
        <time>2013-03-10T12:13:28Z</time>
      </trkpt>
      <trkpt lat="43.85841" lon="7.26775">
        <ele>1104</ele>
        <time>2013-03-10T12:13:29Z</time>
      </trkpt>
      <trkpt lat="43.85839" lon="7.26775">
        <ele>1104</ele>
        <time>2013-03-10T12:13:30Z</time>
      </trkpt>
      <trkpt lat="43.8583" lon="7.26777">
        <ele>1104</ele>
        <time>2013-03-10T12:13:36Z</time>
      </trkpt>
      <trkpt lat="43.85826" lon="7.26778">
        <ele>1104</ele>
        <time>2013-03-10T12:13:39Z</time>
      </trkpt>
      <trkpt lat="43.85824" lon="7.26779">
        <ele>1105</ele>
        <time>2013-03-10T12:13:40Z</time>
      </trkpt>
      <trkpt lat="43.85823" lon="7.2678">
        <ele>1105</ele>
        <time>2013-03-10T12:13:41Z</time>
      </trkpt>
      <trkpt lat="43.85822" lon="7.2678">
        <ele>1106</ele>
        <time>2013-03-10T12:13:42Z</time>
      </trkpt>
      <trkpt lat="43.8582" lon="7.26781">
        <ele>1106</ele>
        <time>2013-03-10T12:13:43Z</time>
      </trkpt>
      <trkpt lat="43.85816" lon="7.26783">
        <ele>1106</ele>
        <time>2013-03-10T12:13:46Z</time>
      </trkpt>
      <trkpt lat="43.85812" lon="7.26785">
        <ele>1106</ele>
        <time>2013-03-10T12:13:49Z</time>
      </trkpt>
      <trkpt lat="43.85809" lon="7.26787">
        <ele>1107</ele>
        <time>2013-03-10T12:13:51Z</time>
      </trkpt>
      <trkpt lat="43.85808" lon="7.26787">
        <ele>1107</ele>
        <time>2013-03-10T12:13:52Z</time>
      </trkpt>
      <trkpt lat="43.85806" lon="7.26788">
        <ele>1108</ele>
        <time>2013-03-10T12:13:53Z</time>
      </trkpt>
      <trkpt lat="43.85805" lon="7.26789">
        <ele>1108</ele>
        <time>2013-03-10T12:13:54Z</time>
      </trkpt>
      <trkpt lat="43.85802" lon="7.2679">
        <ele>1108</ele>
        <time>2013-03-10T12:13:56Z</time>
      </trkpt>
      <trkpt lat="43.8579" lon="7.2679">
        <ele>1108</ele>
        <time>2013-03-10T12:14:04Z</time>
      </trkpt>
      <trkpt lat="43.85783" lon="7.26792">
        <ele>1109</ele>
        <time>2013-03-10T12:14:08Z</time>
      </trkpt>
      <trkpt lat="43.85782" lon="7.26792">
        <ele>1109</ele>
        <time>2013-03-10T12:14:09Z</time>
      </trkpt>
      <trkpt lat="43.8578" lon="7.26792">
        <ele>1110</ele>
        <time>2013-03-10T12:14:10Z</time>
      </trkpt>
      <trkpt lat="43.85779" lon="7.26793">
        <ele>1110</ele>
        <time>2013-03-10T12:14:11Z</time>
      </trkpt>
      <trkpt lat="43.85777" lon="7.26794">
        <ele>1110</ele>
        <time>2013-03-10T12:14:12Z</time>
      </trkpt>
      <trkpt lat="43.85776" lon="7.26794">
        <ele>1110</ele>
        <time>2013-03-10T12:14:13Z</time>
      </trkpt>
      <trkpt lat="43.85765" lon="7.26799">
        <ele>1111</ele>
        <time>2013-03-10T12:14:20Z</time>
      </trkpt>
      <trkpt lat="43.85764" lon="7.268">
        <ele>1111</ele>
        <time>2013-03-10T12:14:21Z</time>
      </trkpt>
      <trkpt lat="43.85763" lon="7.268">
        <ele>1112</ele>
        <time>2013-03-10T12:14:22Z</time>
      </trkpt>
      <trkpt lat="43.85761" lon="7.26801">
        <ele>1112</ele>
        <time>2013-03-10T12:14:23Z</time>
      </trkpt>
      <trkpt lat="43.8576" lon="7.26801">
        <ele>1112</ele>
        <time>2013-03-10T12:14:24Z</time>
      </trkpt>
      <trkpt lat="43.85756" lon="7.26803">
        <ele>1112</ele>
        <time>2013-03-10T12:14:27Z</time>
      </trkpt>
      <trkpt lat="43.85747" lon="7.26806">
        <ele>1113</ele>
        <time>2013-03-10T12:14:33Z</time>
      </trkpt>
      <trkpt lat="43.85746" lon="7.26807">
        <ele>1113</ele>
        <time>2013-03-10T12:14:34Z</time>
      </trkpt>
      <trkpt lat="43.85744" lon="7.26808">
        <ele>1114</ele>
        <time>2013-03-10T12:14:35Z</time>
      </trkpt>
      <trkpt lat="43.85743" lon="7.26808">
        <ele>1114</ele>
        <time>2013-03-10T12:14:36Z</time>
      </trkpt>
      <trkpt lat="43.85741" lon="7.26809">
        <ele>1115</ele>
        <time>2013-03-10T12:14:37Z</time>
      </trkpt>
      <trkpt lat="43.85732" lon="7.26812">
        <ele>1115</ele>
        <time>2013-03-10T12:14:43Z</time>
      </trkpt>
      <trkpt lat="43.85731" lon="7.26812">
        <ele>1115</ele>
        <time>2013-03-10T12:14:44Z</time>
      </trkpt>
      <trkpt lat="43.85724" lon="7.26816">
        <ele>1115</ele>
        <time>2013-03-10T12:14:49Z</time>
      </trkpt>
      <trkpt lat="43.85723" lon="7.26816">
        <ele>1115</ele>
        <time>2013-03-10T12:14:50Z</time>
      </trkpt>
      <trkpt lat="43.85721" lon="7.26817">
        <ele>1116</ele>
        <time>2013-03-10T12:14:51Z</time>
      </trkpt>
      <trkpt lat="43.8572" lon="7.26818">
        <ele>1116</ele>
        <time>2013-03-10T12:14:52Z</time>
      </trkpt>
      <trkpt lat="43.85718" lon="7.26819">
        <ele>1117</ele>
        <time>2013-03-10T12:14:53Z</time>
      </trkpt>
      <trkpt lat="43.8571" lon="7.26823">
        <ele>1117</ele>
        <time>2013-03-10T12:14:59Z</time>
      </trkpt>
      <trkpt lat="43.85704" lon="7.26825">
        <ele>1117</ele>
        <time>2013-03-10T12:15:04Z</time>
      </trkpt>
      <trkpt lat="43.85702" lon="7.26826">
        <ele>1118</ele>
        <time>2013-03-10T12:15:05Z</time>
      </trkpt>
      <trkpt lat="43.85701" lon="7.26826">
        <ele>1118</ele>
        <time>2013-03-10T12:15:06Z</time>
      </trkpt>
      <trkpt lat="43.85699" lon="7.26827">
        <ele>1119</ele>
        <time>2013-03-10T12:15:07Z</time>
      </trkpt>
      <trkpt lat="43.85691" lon="7.26826">
        <ele>1119</ele>
        <time>2013-03-10T12:15:13Z</time>
      </trkpt>
      <trkpt lat="43.85689" lon="7.26826">
        <ele>1119</ele>
        <time>2013-03-10T12:15:14Z</time>
      </trkpt>
      <trkpt lat="43.85685" lon="7.26826">
        <ele>1119</ele>
        <time>2013-03-10T12:15:17Z</time>
      </trkpt>
      <trkpt lat="43.85684" lon="7.26826">
        <ele>1120</ele>
        <time>2013-03-10T12:15:18Z</time>
      </trkpt>
      <trkpt lat="43.85682" lon="7.26826">
        <ele>1120</ele>
        <time>2013-03-10T12:15:19Z</time>
      </trkpt>
      <trkpt lat="43.85681" lon="7.26826">
        <ele>1120</ele>
        <time>2013-03-10T12:15:20Z</time>
      </trkpt>
      <trkpt lat="43.85679" lon="7.26826">
        <ele>1121</ele>
        <time>2013-03-10T12:15:21Z</time>
      </trkpt>
      <trkpt lat="43.85678" lon="7.26826">
        <ele>1121</ele>
        <time>2013-03-10T12:15:22Z</time>
      </trkpt>
      <trkpt lat="43.85668" lon="7.26828">
        <ele>1121</ele>
        <time>2013-03-10T12:15:28Z</time>
      </trkpt>
      <trkpt lat="43.8566" lon="7.26831">
        <ele>1121</ele>
        <time>2013-03-10T12:15:34Z</time>
      </trkpt>
      <trkpt lat="43.85659" lon="7.26832">
        <ele>1122</ele>
        <time>2013-03-10T12:15:35Z</time>
      </trkpt>
      <trkpt lat="43.85657" lon="7.26831">
        <ele>1122</ele>
        <time>2013-03-10T12:15:36Z</time>
      </trkpt>
      <trkpt lat="43.85656" lon="7.26831">
        <ele>1122</ele>
        <time>2013-03-10T12:15:37Z</time>
      </trkpt>
      <trkpt lat="43.85654" lon="7.26832">
        <ele>1123</ele>
        <time>2013-03-10T12:15:38Z</time>
      </trkpt>
      <trkpt lat="43.8565" lon="7.26832">
        <ele>1123</ele>
        <time>2013-03-10T12:15:41Z</time>
      </trkpt>
      <trkpt lat="43.85638" lon="7.26835">
        <ele>1123</ele>
        <time>2013-03-10T12:15:49Z</time>
      </trkpt>
      <trkpt lat="43.85636" lon="7.26834">
        <ele>1124</ele>
        <time>2013-03-10T12:15:50Z</time>
      </trkpt>
      <trkpt lat="43.85635" lon="7.26835">
        <ele>1124</ele>
        <time>2013-03-10T12:15:51Z</time>
      </trkpt>
      <trkpt lat="43.85634" lon="7.26835">
        <ele>1124</ele>
        <time>2013-03-10T12:15:52Z</time>
      </trkpt>
      <trkpt lat="43.85632" lon="7.26835">
        <ele>1125</ele>
        <time>2013-03-10T12:15:53Z</time>
      </trkpt>
      <trkpt lat="43.85629" lon="7.26834">
        <ele>1125</ele>
        <time>2013-03-10T12:15:55Z</time>
      </trkpt>
      <trkpt lat="43.85621" lon="7.26832">
        <ele>1125</ele>
        <time>2013-03-10T12:16:01Z</time>
      </trkpt>
      <trkpt lat="43.8562" lon="7.26831">
        <ele>1125</ele>
        <time>2013-03-10T12:16:02Z</time>
      </trkpt>
      <trkpt lat="43.85619" lon="7.2683">
        <ele>1126</ele>
        <time>2013-03-10T12:16:03Z</time>
      </trkpt>
      <trkpt lat="43.85617" lon="7.2683">
        <ele>1126</ele>
        <time>2013-03-10T12:16:04Z</time>
      </trkpt>
      <trkpt lat="43.85616" lon="7.2683">
        <ele>1127</ele>
        <time>2013-03-10T12:16:05Z</time>
      </trkpt>
      <trkpt lat="43.85614" lon="7.2683">
        <ele>1127</ele>
        <time>2013-03-10T12:16:06Z</time>
      </trkpt>
      <trkpt lat="43.85613" lon="7.2683">
        <ele>1127</ele>
        <time>2013-03-10T12:16:07Z</time>
      </trkpt>
      <trkpt lat="43.85602" lon="7.26832">
        <ele>1127</ele>
        <time>2013-03-10T12:16:15Z</time>
      </trkpt>
      <trkpt lat="43.85599" lon="7.26833">
        <ele>1127</ele>
        <time>2013-03-10T12:16:17Z</time>
      </trkpt>
      <trkpt lat="43.85598" lon="7.26834">
        <ele>1128</ele>
        <time>2013-03-10T12:16:18Z</time>
      </trkpt>
      <trkpt lat="43.85596" lon="7.26834">
        <ele>1128</ele>
        <time>2013-03-10T12:16:19Z</time>
      </trkpt>
      <trkpt lat="43.85595" lon="7.26834">
        <ele>1129</ele>
        <time>2013-03-10T12:16:20Z</time>
      </trkpt>
      <trkpt lat="43.85593" lon="7.26835">
        <ele>1129</ele>
        <time>2013-03-10T12:16:21Z</time>
      </trkpt>
      <trkpt lat="43.85592" lon="7.26836">
        <ele>1129</ele>
        <time>2013-03-10T12:16:22Z</time>
      </trkpt>
      <trkpt lat="43.85584" lon="7.26838">
        <ele>1129</ele>
        <time>2013-03-10T12:16:28Z</time>
      </trkpt>
      <trkpt lat="43.85581" lon="7.26839">
        <ele>1129</ele>
        <time>2013-03-10T12:16:30Z</time>
      </trkpt>
      <trkpt lat="43.85579" lon="7.2684">
        <ele>1130</ele>
        <time>2013-03-10T12:16:31Z</time>
      </trkpt>
      <trkpt lat="43.85577" lon="7.2684">
        <ele>1130</ele>
        <time>2013-03-10T12:16:32Z</time>
      </trkpt>
      <trkpt lat="43.85576" lon="7.26841">
        <ele>1131</ele>
        <time>2013-03-10T12:16:33Z</time>
      </trkpt>
      <trkpt lat="43.85574" lon="7.26841">
        <ele>1131</ele>
        <time>2013-03-10T12:16:34Z</time>
      </trkpt>
      <trkpt lat="43.85573" lon="7.26842">
        <ele>1131</ele>
        <time>2013-03-10T12:16:35Z</time>
      </trkpt>
      <trkpt lat="43.85563" lon="7.26845">
        <ele>1131</ele>
        <time>2013-03-10T12:16:42Z</time>
      </trkpt>
      <trkpt lat="43.8556" lon="7.26845">
        <ele>1131</ele>
        <time>2013-03-10T12:16:44Z</time>
      </trkpt>
      <trkpt lat="43.85557" lon="7.26846">
        <ele>1131</ele>
        <time>2013-03-10T12:16:46Z</time>
      </trkpt>
      <trkpt lat="43.85556" lon="7.26846">
        <ele>1132</ele>
        <time>2013-03-10T12:16:47Z</time>
      </trkpt>
      <trkpt lat="43.85555" lon="7.26847">
        <ele>1132</ele>
        <time>2013-03-10T12:16:48Z</time>
      </trkpt>
      <trkpt lat="43.85554" lon="7.26848">
        <ele>1133</ele>
        <time>2013-03-10T12:16:49Z</time>
      </trkpt>
      <trkpt lat="43.85553" lon="7.26848">
        <ele>1133</ele>
        <time>2013-03-10T12:16:50Z</time>
      </trkpt>
      <trkpt lat="43.85545" lon="7.26851">
        <ele>1133</ele>
        <time>2013-03-10T12:16:56Z</time>
      </trkpt>
      <trkpt lat="43.85543" lon="7.26851">
        <ele>1133</ele>
        <time>2013-03-10T12:16:58Z</time>
      </trkpt>
      <trkpt lat="43.85542" lon="7.26851">
        <ele>1134</ele>
        <time>2013-03-10T12:16:59Z</time>
      </trkpt>
      <trkpt lat="43.8554" lon="7.26851">
        <ele>1134</ele>
        <time>2013-03-10T12:17:00Z</time>
      </trkpt>
      <trkpt lat="43.85538" lon="7.26852">
        <ele>1135</ele>
        <time>2013-03-10T12:17:01Z</time>
      </trkpt>
      <trkpt lat="43.85537" lon="7.26852">
        <ele>1135</ele>
        <time>2013-03-10T12:17:02Z</time>
      </trkpt>
      <trkpt lat="43.85527" lon="7.26854">
        <ele>1135</ele>
        <time>2013-03-10T12:17:08Z</time>
      </trkpt>
      <trkpt lat="43.85521" lon="7.26856">
        <ele>1136</ele>
        <time>2013-03-10T12:17:12Z</time>
      </trkpt>
      <trkpt lat="43.8552" lon="7.26857">
        <ele>1136</ele>
        <time>2013-03-10T12:17:13Z</time>
      </trkpt>
      <trkpt lat="43.85518" lon="7.26857">
        <ele>1136</ele>
        <time>2013-03-10T12:17:14Z</time>
      </trkpt>
      <trkpt lat="43.85517" lon="7.26857">
        <ele>1137</ele>
        <time>2013-03-10T12:17:15Z</time>
      </trkpt>
      <trkpt lat="43.85515" lon="7.26858">
        <ele>1137</ele>
        <time>2013-03-10T12:17:16Z</time>
      </trkpt>
      <trkpt lat="43.85507" lon="7.2686">
        <ele>1137</ele>
        <time>2013-03-10T12:17:22Z</time>
      </trkpt>
      <trkpt lat="43.85501" lon="7.26862">
        <ele>1138</ele>
        <time>2013-03-10T12:17:26Z</time>
      </trkpt>
      <trkpt lat="43.855" lon="7.26863">
        <ele>1138</ele>
        <time>2013-03-10T12:17:27Z</time>
      </trkpt>
      <trkpt lat="43.85498" lon="7.26863">
        <ele>1138</ele>
        <time>2013-03-10T12:17:28Z</time>
      </trkpt>
      <trkpt lat="43.85496" lon="7.26864">
        <ele>1139</ele>
        <time>2013-03-10T12:17:29Z</time>
      </trkpt>
      <trkpt lat="43.85495" lon="7.26864">
        <ele>1139</ele>
        <time>2013-03-10T12:17:30Z</time>
      </trkpt>
      <trkpt lat="43.85484" lon="7.26869">
        <ele>1139</ele>
        <time>2013-03-10T12:17:38Z</time>
      </trkpt>
      <trkpt lat="43.85478" lon="7.26872">
        <ele>1140</ele>
        <time>2013-03-10T12:17:42Z</time>
      </trkpt>
      <trkpt lat="43.85476" lon="7.26873">
        <ele>1140</ele>
        <time>2013-03-10T12:17:43Z</time>
      </trkpt>
      <trkpt lat="43.85475" lon="7.26874">
        <ele>1141</ele>
        <time>2013-03-10T12:17:44Z</time>
      </trkpt>
      <trkpt lat="43.85474" lon="7.26874">
        <ele>1141</ele>
        <time>2013-03-10T12:17:45Z</time>
      </trkpt>
      <trkpt lat="43.85472" lon="7.26875">
        <ele>1141</ele>
        <time>2013-03-10T12:17:46Z</time>
      </trkpt>
      <trkpt lat="43.85465" lon="7.26882">
        <ele>1141</ele>
        <time>2013-03-10T12:17:52Z</time>
      </trkpt>
      <trkpt lat="43.85463" lon="7.26885">
        <ele>1142</ele>
        <time>2013-03-10T12:17:54Z</time>
      </trkpt>
      <trkpt lat="43.85461" lon="7.26886">
        <ele>1142</ele>
        <time>2013-03-10T12:17:55Z</time>
      </trkpt>
      <trkpt lat="43.8546" lon="7.26887">
        <ele>1143</ele>
        <time>2013-03-10T12:17:56Z</time>
      </trkpt>
      <trkpt lat="43.85459" lon="7.26888">
        <ele>1143</ele>
        <time>2013-03-10T12:17:57Z</time>
      </trkpt>
      <trkpt lat="43.85457" lon="7.26889">
        <ele>1143</ele>
        <time>2013-03-10T12:17:58Z</time>
      </trkpt>
      <trkpt lat="43.85454" lon="7.26891">
        <ele>1143</ele>
        <time>2013-03-10T12:18:00Z</time>
      </trkpt>
      <trkpt lat="43.85443" lon="7.26896">
        <ele>1143</ele>
        <time>2013-03-10T12:18:07Z</time>
      </trkpt>
      <trkpt lat="43.85442" lon="7.26896">
        <ele>1144</ele>
        <time>2013-03-10T12:18:08Z</time>
      </trkpt>
      <trkpt lat="43.85441" lon="7.26897">
        <ele>1144</ele>
        <time>2013-03-10T12:18:09Z</time>
      </trkpt>
      <trkpt lat="43.85439" lon="7.26897">
        <ele>1145</ele>
        <time>2013-03-10T12:18:10Z</time>
      </trkpt>
      <trkpt lat="43.85438" lon="7.26898">
        <ele>1145</ele>
        <time>2013-03-10T12:18:11Z</time>
      </trkpt>
      <trkpt lat="43.85436" lon="7.26898">
        <ele>1146</ele>
        <time>2013-03-10T12:18:12Z</time>
      </trkpt>
      <trkpt lat="43.85433" lon="7.269">
        <ele>1146</ele>
        <time>2013-03-10T12:18:15Z</time>
      </trkpt>
      <trkpt lat="43.85428" lon="7.269">
        <ele>1146</ele>
        <time>2013-03-10T12:18:22Z</time>
      </trkpt>
      <trkpt lat="43.85422" lon="7.26902">
        <ele>1146</ele>
        <time>2013-03-10T12:18:28Z</time>
      </trkpt>
      <trkpt lat="43.85421" lon="7.26902">
        <ele>1146</ele>
        <time>2013-03-10T12:18:29Z</time>
      </trkpt>
      <trkpt lat="43.8542" lon="7.26903">
        <ele>1147</ele>
        <time>2013-03-10T12:18:30Z</time>
      </trkpt>
      <trkpt lat="43.85418" lon="7.26903">
        <ele>1147</ele>
        <time>2013-03-10T12:18:31Z</time>
      </trkpt>
      <trkpt lat="43.85417" lon="7.26903">
        <ele>1148</ele>
        <time>2013-03-10T12:18:32Z</time>
      </trkpt>
      <trkpt lat="43.85411" lon="7.26905">
        <ele>1148</ele>
        <time>2013-03-10T12:18:36Z</time>
      </trkpt>
      <trkpt lat="43.85405" lon="7.26907">
        <ele>1148</ele>
        <time>2013-03-10T12:18:40Z</time>
      </trkpt>
      <trkpt lat="43.85404" lon="7.26907">
        <ele>1148</ele>
        <time>2013-03-10T12:18:41Z</time>
      </trkpt>
      <trkpt lat="43.85402" lon="7.26908">
        <ele>1149</ele>
        <time>2013-03-10T12:18:42Z</time>
      </trkpt>
      <trkpt lat="43.85401" lon="7.26908">
        <ele>1149</ele>
        <time>2013-03-10T12:18:43Z</time>
      </trkpt>
      <trkpt lat="43.854" lon="7.26909">
        <ele>1150</ele>
        <time>2013-03-10T12:18:44Z</time>
      </trkpt>
      <trkpt lat="43.8539" lon="7.26914">
        <ele>1150</ele>
        <time>2013-03-10T12:18:51Z</time>
      </trkpt>
      <trkpt lat="43.85382" lon="7.26917">
        <ele>1150</ele>
        <time>2013-03-10T12:18:57Z</time>
      </trkpt>
      <trkpt lat="43.8538" lon="7.26917">
        <ele>1150</ele>
        <time>2013-03-10T12:18:58Z</time>
      </trkpt>
      <trkpt lat="43.85379" lon="7.26918">
        <ele>1151</ele>
        <time>2013-03-10T12:18:59Z</time>
      </trkpt>
      <trkpt lat="43.85377" lon="7.26918">
        <ele>1151</ele>
        <time>2013-03-10T12:19:00Z</time>
      </trkpt>
      <trkpt lat="43.85376" lon="7.26919">
        <ele>1152</ele>
        <time>2013-03-10T12:19:01Z</time>
      </trkpt>
      <trkpt lat="43.8537" lon="7.26923">
        <ele>1152</ele>
        <time>2013-03-10T12:19:05Z</time>
      </trkpt>
      <trkpt lat="43.85361" lon="7.26932">
        <ele>1152</ele>
        <time>2013-03-10T12:19:12Z</time>
      </trkpt>
      <trkpt lat="43.8536" lon="7.26934">
        <ele>1153</ele>
        <time>2013-03-10T12:19:13Z</time>
      </trkpt>
      <trkpt lat="43.85359" lon="7.26935">
        <ele>1153</ele>
        <time>2013-03-10T12:19:14Z</time>
      </trkpt>
      <trkpt lat="43.85358" lon="7.26936">
        <ele>1154</ele>
        <time>2013-03-10T12:19:15Z</time>
      </trkpt>
      <trkpt lat="43.85348" lon="7.26942">
        <ele>1154</ele>
        <time>2013-03-10T12:19:23Z</time>
      </trkpt>
      <trkpt lat="43.85343" lon="7.26943">
        <ele>1154</ele>
        <time>2013-03-10T12:19:26Z</time>
      </trkpt>
      <trkpt lat="43.85342" lon="7.26943">
        <ele>1155</ele>
        <time>2013-03-10T12:19:27Z</time>
      </trkpt>
      <trkpt lat="43.85341" lon="7.26942">
        <ele>1155</ele>
        <time>2013-03-10T12:19:28Z</time>
      </trkpt>
      <trkpt lat="43.8534" lon="7.26941">
        <ele>1156</ele>
        <time>2013-03-10T12:19:29Z</time>
      </trkpt>
      <trkpt lat="43.85338" lon="7.26941">
        <ele>1156</ele>
        <time>2013-03-10T12:19:30Z</time>
      </trkpt>
      <trkpt lat="43.85331" lon="7.26942">
        <ele>1156</ele>
        <time>2013-03-10T12:19:35Z</time>
      </trkpt>
      <trkpt lat="43.85329" lon="7.26943">
        <ele>1156</ele>
        <time>2013-03-10T12:19:36Z</time>
      </trkpt>
      <trkpt lat="43.85323" lon="7.26945">
        <ele>1156</ele>
        <time>2013-03-10T12:19:40Z</time>
      </trkpt>
      <trkpt lat="43.85322" lon="7.26945">
        <ele>1157</ele>
        <time>2013-03-10T12:19:41Z</time>
      </trkpt>
      <trkpt lat="43.8532" lon="7.26945">
        <ele>1157</ele>
        <time>2013-03-10T12:19:42Z</time>
      </trkpt>
      <trkpt lat="43.85318" lon="7.26946">
        <ele>1158</ele>
        <time>2013-03-10T12:19:43Z</time>
      </trkpt>
      <trkpt lat="43.85317" lon="7.26946">
        <ele>1158</ele>
        <time>2013-03-10T12:19:44Z</time>
      </trkpt>
      <trkpt lat="43.85307" lon="7.26957">
        <ele>1158</ele>
        <time>2013-03-10T12:19:51Z</time>
      </trkpt>
      <trkpt lat="43.85302" lon="7.26962">
        <ele>1158</ele>
        <time>2013-03-10T12:19:55Z</time>
      </trkpt>
      <trkpt lat="43.85301" lon="7.26964">
        <ele>1159</ele>
        <time>2013-03-10T12:19:56Z</time>
      </trkpt>
      <trkpt lat="43.853" lon="7.26965">
        <ele>1159</ele>
        <time>2013-03-10T12:19:57Z</time>
      </trkpt>
      <trkpt lat="43.85299" lon="7.26967">
        <ele>1160</ele>
        <time>2013-03-10T12:19:58Z</time>
      </trkpt>
      <trkpt lat="43.85299" lon="7.26968">
        <ele>1160</ele>
        <time>2013-03-10T12:19:59Z</time>
      </trkpt>
      <trkpt lat="43.85291" lon="7.26978">
        <ele>1160</ele>
        <time>2013-03-10T12:20:05Z</time>
      </trkpt>
      <trkpt lat="43.85287" lon="7.26982">
        <ele>1161</ele>
        <time>2013-03-10T12:20:08Z</time>
      </trkpt>
      <trkpt lat="43.85286" lon="7.26983">
        <ele>1161</ele>
        <time>2013-03-10T12:20:09Z</time>
      </trkpt>
      <trkpt lat="43.85285" lon="7.26985">
        <ele>1161</ele>
        <time>2013-03-10T12:20:10Z</time>
      </trkpt>
      <trkpt lat="43.85283" lon="7.26987">
        <ele>1162</ele>
        <time>2013-03-10T12:20:11Z</time>
      </trkpt>
      <trkpt lat="43.85282" lon="7.26988">
        <ele>1162</ele>
        <time>2013-03-10T12:20:12Z</time>
      </trkpt>
      <trkpt lat="43.85271" lon="7.27">
        <ele>1163</ele>
        <time>2013-03-10T12:20:21Z</time>
      </trkpt>
      <trkpt lat="43.85271" lon="7.27002">
        <ele>1163</ele>
        <time>2013-03-10T12:20:22Z</time>
      </trkpt>
      <trkpt lat="43.8527" lon="7.27004">
        <ele>1163</ele>
        <time>2013-03-10T12:20:23Z</time>
      </trkpt>
      <trkpt lat="43.85269" lon="7.27006">
        <ele>1164</ele>
        <time>2013-03-10T12:20:24Z</time>
      </trkpt>
      <trkpt lat="43.85268" lon="7.27008">
        <ele>1164</ele>
        <time>2013-03-10T12:20:25Z</time>
      </trkpt>
      <trkpt lat="43.85265" lon="7.27019">
        <ele>1164</ele>
        <time>2013-03-10T12:20:30Z</time>
      </trkpt>
      <trkpt lat="43.85263" lon="7.27029">
        <ele>1165</ele>
        <time>2013-03-10T12:20:35Z</time>
      </trkpt>
      <trkpt lat="43.85262" lon="7.27032">
        <ele>1165</ele>
        <time>2013-03-10T12:20:36Z</time>
      </trkpt>
      <trkpt lat="43.85262" lon="7.27034">
        <ele>1166</ele>
        <time>2013-03-10T12:20:37Z</time>
      </trkpt>
      <trkpt lat="43.85262" lon="7.27036">
        <ele>1166</ele>
        <time>2013-03-10T12:20:38Z</time>
      </trkpt>
      <trkpt lat="43.85261" lon="7.27038">
        <ele>1166</ele>
        <time>2013-03-10T12:20:39Z</time>
      </trkpt>
      <trkpt lat="43.8526" lon="7.27052">
        <ele>1166</ele>
        <time>2013-03-10T12:20:45Z</time>
      </trkpt>
      <trkpt lat="43.85261" lon="7.27056">
        <ele>1167</ele>
        <time>2013-03-10T12:20:47Z</time>
      </trkpt>
      <trkpt lat="43.85261" lon="7.27058">
        <ele>1167</ele>
        <time>2013-03-10T12:20:48Z</time>
      </trkpt>
      <trkpt lat="43.85261" lon="7.2706">
        <ele>1168</ele>
        <time>2013-03-10T12:20:49Z</time>
      </trkpt>
      <trkpt lat="43.85261" lon="7.27063">
        <ele>1168</ele>
        <time>2013-03-10T12:20:50Z</time>
      </trkpt>
      <trkpt lat="43.85262" lon="7.27065">
        <ele>1168</ele>
        <time>2013-03-10T12:20:51Z</time>
      </trkpt>
      <trkpt lat="43.85262" lon="7.27069">
        <ele>1168</ele>
        <time>2013-03-10T12:20:53Z</time>
      </trkpt>
      <trkpt lat="43.85265" lon="7.27086">
        <ele>1169</ele>
        <time>2013-03-10T12:21:01Z</time>
      </trkpt>
      <trkpt lat="43.85265" lon="7.27088">
        <ele>1169</ele>
        <time>2013-03-10T12:21:02Z</time>
      </trkpt>
      <trkpt lat="43.85265" lon="7.2709">
        <ele>1170</ele>
        <time>2013-03-10T12:21:03Z</time>
      </trkpt>
      <trkpt lat="43.85266" lon="7.27092">
        <ele>1170</ele>
        <time>2013-03-10T12:21:04Z</time>
      </trkpt>
      <trkpt lat="43.85266" lon="7.27094">
        <ele>1171</ele>
        <time>2013-03-10T12:21:05Z</time>
      </trkpt>
      <trkpt lat="43.85267" lon="7.27105">
        <ele>1171</ele>
        <time>2013-03-10T12:21:10Z</time>
      </trkpt>
      <trkpt lat="43.85267" lon="7.27114">
        <ele>1171</ele>
        <time>2013-03-10T12:21:14Z</time>
      </trkpt>
      <trkpt lat="43.85266" lon="7.27117">
        <ele>1171</ele>
        <time>2013-03-10T12:21:15Z</time>
      </trkpt>
      <trkpt lat="43.85266" lon="7.27119">
        <ele>1172</ele>
        <time>2013-03-10T12:21:16Z</time>
      </trkpt>
      <trkpt lat="43.85266" lon="7.27122">
        <ele>1173</ele>
        <time>2013-03-10T12:21:17Z</time>
      </trkpt>
      <trkpt lat="43.85266" lon="7.27124">
        <ele>1173</ele>
        <time>2013-03-10T12:21:18Z</time>
      </trkpt>
      <trkpt lat="43.85261" lon="7.27137">
        <ele>1173</ele>
        <time>2013-03-10T12:21:25Z</time>
      </trkpt>
      <trkpt lat="43.8526" lon="7.27143">
        <ele>1173</ele>
        <time>2013-03-10T12:21:28Z</time>
      </trkpt>
      <trkpt lat="43.85259" lon="7.27145">
        <ele>1173</ele>
        <time>2013-03-10T12:21:29Z</time>
      </trkpt>
      <trkpt lat="43.85258" lon="7.27147">
        <ele>1174</ele>
        <time>2013-03-10T12:21:30Z</time>
      </trkpt>
      <trkpt lat="43.85258" lon="7.27149">
        <ele>1174</ele>
        <time>2013-03-10T12:21:31Z</time>
      </trkpt>
      <trkpt lat="43.85257" lon="7.27151">
        <ele>1175</ele>
        <time>2013-03-10T12:21:32Z</time>
      </trkpt>
      <trkpt lat="43.85257" lon="7.27153">
        <ele>1175</ele>
        <time>2013-03-10T12:21:33Z</time>
      </trkpt>
      <trkpt lat="43.85253" lon="7.27168">
        <ele>1175</ele>
        <time>2013-03-10T12:21:41Z</time>
      </trkpt>
      <trkpt lat="43.85252" lon="7.27172">
        <ele>1175</ele>
        <time>2013-03-10T12:21:43Z</time>
      </trkpt>
      <trkpt lat="43.85251" lon="7.27174">
        <ele>1176</ele>
        <time>2013-03-10T12:21:44Z</time>
      </trkpt>
      <trkpt lat="43.8525" lon="7.27175">
        <ele>1176</ele>
        <time>2013-03-10T12:21:45Z</time>
      </trkpt>
      <trkpt lat="43.85249" lon="7.27177">
        <ele>1176</ele>
        <time>2013-03-10T12:21:46Z</time>
      </trkpt>
      <trkpt lat="43.85248" lon="7.27179">
        <ele>1177</ele>
        <time>2013-03-10T12:21:47Z</time>
      </trkpt>
      <trkpt lat="43.85248" lon="7.27181">
        <ele>1177</ele>
        <time>2013-03-10T12:21:48Z</time>
      </trkpt>
      <trkpt lat="43.85241" lon="7.27194">
        <ele>1177</ele>
        <time>2013-03-10T12:21:55Z</time>
      </trkpt>
      <trkpt lat="43.8524" lon="7.27197">
        <ele>1177</ele>
        <time>2013-03-10T12:21:57Z</time>
      </trkpt>
      <trkpt lat="43.85239" lon="7.27198">
        <ele>1178</ele>
        <time>2013-03-10T12:21:58Z</time>
      </trkpt>
      <trkpt lat="43.85238" lon="7.272">
        <ele>1178</ele>
        <time>2013-03-10T12:21:59Z</time>
      </trkpt>
      <trkpt lat="43.85237" lon="7.27202">
        <ele>1178</ele>
        <time>2013-03-10T12:22:00Z</time>
      </trkpt>
      <trkpt lat="43.85236" lon="7.27204">
        <ele>1179</ele>
        <time>2013-03-10T12:22:01Z</time>
      </trkpt>
      <trkpt lat="43.85234" lon="7.2721">
        <ele>1179</ele>
        <time>2013-03-10T12:22:04Z</time>
      </trkpt>
      <trkpt lat="43.8523" lon="7.27217">
        <ele>1179</ele>
        <time>2013-03-10T12:22:08Z</time>
      </trkpt>
      <trkpt lat="43.85229" lon="7.27219">
        <ele>1180</ele>
        <time>2013-03-10T12:22:09Z</time>
      </trkpt>
      <trkpt lat="43.85228" lon="7.27221">
        <ele>1180</ele>
        <time>2013-03-10T12:22:10Z</time>
      </trkpt>
      <trkpt lat="43.85227" lon="7.27223">
        <ele>1180</ele>
        <time>2013-03-10T12:22:11Z</time>
      </trkpt>
      <trkpt lat="43.85226" lon="7.27225">
        <ele>1181</ele>
        <time>2013-03-10T12:22:12Z</time>
      </trkpt>
      <trkpt lat="43.85218" lon="7.27238">
        <ele>1181</ele>
        <time>2013-03-10T12:22:19Z</time>
      </trkpt>
      <trkpt lat="43.85214" lon="7.27243">
        <ele>1181</ele>
        <time>2013-03-10T12:22:22Z</time>
      </trkpt>
      <trkpt lat="43.85213" lon="7.27245">
        <ele>1182</ele>
        <time>2013-03-10T12:22:23Z</time>
      </trkpt>
      <trkpt lat="43.85212" lon="7.27246">
        <ele>1182</ele>
        <time>2013-03-10T12:22:24Z</time>
      </trkpt>
      <trkpt lat="43.85211" lon="7.27248">
        <ele>1183</ele>
        <time>2013-03-10T12:22:25Z</time>
      </trkpt>
      <trkpt lat="43.85209" lon="7.27249">
        <ele>1183</ele>
        <time>2013-03-10T12:22:26Z</time>
      </trkpt>
      <trkpt lat="43.85202" lon="7.27259">
        <ele>1183</ele>
        <time>2013-03-10T12:22:32Z</time>
      </trkpt>
      <trkpt lat="43.85197" lon="7.27263">
        <ele>1183</ele>
        <time>2013-03-10T12:22:35Z</time>
      </trkpt>
      <trkpt lat="43.85196" lon="7.27264">
        <ele>1184</ele>
        <time>2013-03-10T12:22:36Z</time>
      </trkpt>
      <trkpt lat="43.85194" lon="7.27266">
        <ele>1184</ele>
        <time>2013-03-10T12:22:37Z</time>
      </trkpt>
      <trkpt lat="43.85193" lon="7.27267">
        <ele>1185</ele>
        <time>2013-03-10T12:22:38Z</time>
      </trkpt>
      <trkpt lat="43.85191" lon="7.27269">
        <ele>1185</ele>
        <time>2013-03-10T12:22:39Z</time>
      </trkpt>
      <trkpt lat="43.85188" lon="7.27272">
        <ele>1185</ele>
        <time>2013-03-10T12:22:41Z</time>
      </trkpt>
      <trkpt lat="43.85181" lon="7.27286">
        <ele>1185</ele>
        <time>2013-03-10T12:22:48Z</time>
      </trkpt>
      <trkpt lat="43.8518" lon="7.27288">
        <ele>1185</ele>
        <time>2013-03-10T12:22:50Z</time>
      </trkpt>
      <trkpt lat="43.8518" lon="7.2729">
        <ele>1186</ele>
        <time>2013-03-10T12:22:51Z</time>
      </trkpt>
      <trkpt lat="43.8518" lon="7.27291">
        <ele>1186</ele>
        <time>2013-03-10T12:22:52Z</time>
      </trkpt>
      <trkpt lat="43.8518" lon="7.27291">
        <ele>1187</ele>
        <time>2013-03-10T12:22:53Z</time>
      </trkpt>
      <trkpt lat="43.85189" lon="7.27287">
        <ele>1187</ele>
        <time>2013-03-10T12:30:51Z</time>
      </trkpt>
      <trkpt lat="43.85193" lon="7.27287">
        <ele>1187</ele>
        <time>2013-03-10T12:30:53Z</time>
      </trkpt>
      <trkpt lat="43.85199" lon="7.27283">
        <ele>1187</ele>
        <time>2013-03-10T12:30:57Z</time>
      </trkpt>
      <trkpt lat="43.852" lon="7.27282">
        <ele>1187</ele>
        <time>2013-03-10T12:31:02Z</time>
      </trkpt>
      <trkpt lat="43.85204" lon="7.27277">
        <ele>1187</ele>
        <time>2013-03-10T12:31:05Z</time>
      </trkpt>
      <trkpt lat="43.85212" lon="7.27269">
        <ele>1187</ele>
        <time>2013-03-10T12:31:10Z</time>
      </trkpt>
      <trkpt lat="43.8522" lon="7.27265">
        <ele>1188</ele>
        <time>2013-03-10T12:31:14Z</time>
      </trkpt>
      <trkpt lat="43.85222" lon="7.27264">
        <ele>1188</ele>
        <time>2013-03-10T12:31:15Z</time>
      </trkpt>
      <trkpt lat="43.85224" lon="7.27264">
        <ele>1189</ele>
        <time>2013-03-10T12:31:16Z</time>
      </trkpt>
      <trkpt lat="43.85226" lon="7.27263">
        <ele>1189</ele>
        <time>2013-03-10T12:31:17Z</time>
      </trkpt>
      <trkpt lat="43.85228" lon="7.27263">
        <ele>1190</ele>
        <time>2013-03-10T12:31:18Z</time>
      </trkpt>
      <trkpt lat="43.85239" lon="7.27256">
        <ele>1190</ele>
        <time>2013-03-10T12:31:24Z</time>
      </trkpt>
      <trkpt lat="43.85241" lon="7.27255">
        <ele>1190</ele>
        <time>2013-03-10T12:31:25Z</time>
      </trkpt>
      <trkpt lat="43.85243" lon="7.27253">
        <ele>1191</ele>
        <time>2013-03-10T12:31:26Z</time>
      </trkpt>
      <trkpt lat="43.85245" lon="7.27253">
        <ele>1191</ele>
        <time>2013-03-10T12:31:27Z</time>
      </trkpt>
      <trkpt lat="43.85246" lon="7.27252">
        <ele>1192</ele>
        <time>2013-03-10T12:31:28Z</time>
      </trkpt>
      <trkpt lat="43.85252" lon="7.27249">
        <ele>1192</ele>
        <time>2013-03-10T12:31:31Z</time>
      </trkpt>
      <trkpt lat="43.85258" lon="7.27245">
        <ele>1192</ele>
        <time>2013-03-10T12:31:35Z</time>
      </trkpt>
      <trkpt lat="43.8526" lon="7.27244">
        <ele>1192</ele>
        <time>2013-03-10T12:31:36Z</time>
      </trkpt>
      <trkpt lat="43.85261" lon="7.27243">
        <ele>1193</ele>
        <time>2013-03-10T12:31:37Z</time>
      </trkpt>
      <trkpt lat="43.85262" lon="7.27242">
        <ele>1193</ele>
        <time>2013-03-10T12:31:38Z</time>
      </trkpt>
      <trkpt lat="43.85264" lon="7.2724">
        <ele>1194</ele>
        <time>2013-03-10T12:31:39Z</time>
      </trkpt>
      <trkpt lat="43.85274" lon="7.27231">
        <ele>1194</ele>
        <time>2013-03-10T12:31:46Z</time>
      </trkpt>
      <trkpt lat="43.85275" lon="7.2723">
        <ele>1194</ele>
        <time>2013-03-10T12:31:47Z</time>
      </trkpt>
      <trkpt lat="43.85276" lon="7.27228">
        <ele>1195</ele>
        <time>2013-03-10T12:31:48Z</time>
      </trkpt>
      <trkpt lat="43.85277" lon="7.27227">
        <ele>1195</ele>
        <time>2013-03-10T12:31:49Z</time>
      </trkpt>
      <trkpt lat="43.85278" lon="7.27225">
        <ele>1196</ele>
        <time>2013-03-10T12:31:50Z</time>
      </trkpt>
      <trkpt lat="43.85279" lon="7.27223">
        <ele>1196</ele>
        <time>2013-03-10T12:31:51Z</time>
      </trkpt>
      <trkpt lat="43.85283" lon="7.27219">
        <ele>1196</ele>
        <time>2013-03-10T12:31:54Z</time>
      </trkpt>
      <trkpt lat="43.85292" lon="7.2721">
        <ele>1196</ele>
        <time>2013-03-10T12:32:01Z</time>
      </trkpt>
      <trkpt lat="43.85294" lon="7.27208">
        <ele>1197</ele>
        <time>2013-03-10T12:32:02Z</time>
      </trkpt>
      <trkpt lat="43.85295" lon="7.27207">
        <ele>1198</ele>
        <time>2013-03-10T12:32:03Z</time>
      </trkpt>
      <trkpt lat="43.85296" lon="7.27205">
        <ele>1198</ele>
        <time>2013-03-10T12:32:04Z</time>
      </trkpt>
      <trkpt lat="43.85304" lon="7.27196">
        <ele>1198</ele>
        <time>2013-03-10T12:32:10Z</time>
      </trkpt>
      <trkpt lat="43.85308" lon="7.27191">
        <ele>1199</ele>
        <time>2013-03-10T12:32:13Z</time>
      </trkpt>
      <trkpt lat="43.8531" lon="7.27189">
        <ele>1199</ele>
        <time>2013-03-10T12:32:14Z</time>
      </trkpt>
      <trkpt lat="43.85311" lon="7.27187">
        <ele>1199</ele>
        <time>2013-03-10T12:32:15Z</time>
      </trkpt>
      <trkpt lat="43.85312" lon="7.27186">
        <ele>1200</ele>
        <time>2013-03-10T12:32:16Z</time>
      </trkpt>
      <trkpt lat="43.85314" lon="7.27185">
        <ele>1200</ele>
        <time>2013-03-10T12:32:17Z</time>
      </trkpt>
      <trkpt lat="43.85325" lon="7.27177">
        <ele>1201</ele>
        <time>2013-03-10T12:32:24Z</time>
      </trkpt>
      <trkpt lat="43.85326" lon="7.27176">
        <ele>1201</ele>
        <time>2013-03-10T12:32:25Z</time>
      </trkpt>
      <trkpt lat="43.85328" lon="7.27175">
        <ele>1202</ele>
        <time>2013-03-10T12:32:26Z</time>
      </trkpt>
      <trkpt lat="43.85329" lon="7.27174">
        <ele>1202</ele>
        <time>2013-03-10T12:32:27Z</time>
      </trkpt>
      <trkpt lat="43.85331" lon="7.27172">
        <ele>1202</ele>
        <time>2013-03-10T12:32:28Z</time>
      </trkpt>
      <trkpt lat="43.85337" lon="7.27166">
        <ele>1202</ele>
        <time>2013-03-10T12:32:32Z</time>
      </trkpt>
      <trkpt lat="43.85347" lon="7.27156">
        <ele>1202</ele>
        <time>2013-03-10T12:32:39Z</time>
      </trkpt>
      <trkpt lat="43.85348" lon="7.27155">
        <ele>1203</ele>
        <time>2013-03-10T12:32:40Z</time>
      </trkpt>
      <trkpt lat="43.85349" lon="7.27154">
        <ele>1203</ele>
        <time>2013-03-10T12:32:41Z</time>
      </trkpt>
      <trkpt lat="43.85351" lon="7.27153">
        <ele>1204</ele>
        <time>2013-03-10T12:32:42Z</time>
      </trkpt>
      <trkpt lat="43.85351" lon="7.27152">
        <ele>1204</ele>
        <time>2013-03-10T12:32:43Z</time>
      </trkpt>
      <trkpt lat="43.85353" lon="7.2715">
        <ele>1205</ele>
        <time>2013-03-10T12:32:44Z</time>
      </trkpt>
      <trkpt lat="43.85358" lon="7.27146">
        <ele>1205</ele>
        <time>2013-03-10T12:32:47Z</time>
      </trkpt>
      <trkpt lat="43.85366" lon="7.27141">
        <ele>1205</ele>
        <time>2013-03-10T12:32:53Z</time>
      </trkpt>
      <trkpt lat="43.85368" lon="7.2714">
        <ele>1205</ele>
        <time>2013-03-10T12:32:54Z</time>
      </trkpt>
      <trkpt lat="43.85369" lon="7.27139">
        <ele>1206</ele>
        <time>2013-03-10T12:32:55Z</time>
      </trkpt>
      <trkpt lat="43.85371" lon="7.27138">
        <ele>1206</ele>
        <time>2013-03-10T12:32:56Z</time>
      </trkpt>
      <trkpt lat="43.85373" lon="7.27138">
        <ele>1207</ele>
        <time>2013-03-10T12:32:57Z</time>
      </trkpt>
      <trkpt lat="43.85377" lon="7.27137">
        <ele>1207</ele>
        <time>2013-03-10T12:33:00Z</time>
      </trkpt>
      <trkpt lat="43.85388" lon="7.27135">
        <ele>1207</ele>
        <time>2013-03-10T12:33:06Z</time>
      </trkpt>
      <trkpt lat="43.8539" lon="7.27135">
        <ele>1208</ele>
        <time>2013-03-10T12:33:07Z</time>
      </trkpt>
      <trkpt lat="43.85391" lon="7.27135">
        <ele>1208</ele>
        <time>2013-03-10T12:33:08Z</time>
      </trkpt>
      <trkpt lat="43.85393" lon="7.27135">
        <ele>1208</ele>
        <time>2013-03-10T12:33:09Z</time>
      </trkpt>
      <trkpt lat="43.85395" lon="7.27134">
        <ele>1209</ele>
        <time>2013-03-10T12:33:10Z</time>
      </trkpt>
      <trkpt lat="43.854" lon="7.27134">
        <ele>1209</ele>
        <time>2013-03-10T12:33:13Z</time>
      </trkpt>
      <trkpt lat="43.8541" lon="7.2713">
        <ele>1209</ele>
        <time>2013-03-10T12:33:19Z</time>
      </trkpt>
      <trkpt lat="43.85414" lon="7.27127">
        <ele>1209</ele>
        <time>2013-03-10T12:33:22Z</time>
      </trkpt>
      <trkpt lat="43.85416" lon="7.27126">
        <ele>1210</ele>
        <time>2013-03-10T12:33:23Z</time>
      </trkpt>
      <trkpt lat="43.85417" lon="7.27125">
        <ele>1210</ele>
        <time>2013-03-10T12:33:24Z</time>
      </trkpt>
      <trkpt lat="43.85418" lon="7.27124">
        <ele>1210</ele>
        <time>2013-03-10T12:33:25Z</time>
      </trkpt>
      <trkpt lat="43.85419" lon="7.27123">
        <ele>1211</ele>
        <time>2013-03-10T12:33:26Z</time>
      </trkpt>
      <trkpt lat="43.85423" lon="7.2712">
        <ele>1211</ele>
        <time>2013-03-10T12:33:29Z</time>
      </trkpt>
      <trkpt lat="43.85435" lon="7.27113">
        <ele>1211</ele>
        <time>2013-03-10T12:33:37Z</time>
      </trkpt>
      <trkpt lat="43.85437" lon="7.27112">
        <ele>1212</ele>
        <time>2013-03-10T12:33:38Z</time>
      </trkpt>
      <trkpt lat="43.85438" lon="7.27112">
        <ele>1212</ele>
        <time>2013-03-10T12:33:39Z</time>
      </trkpt>
      <trkpt lat="43.8544" lon="7.27112">
        <ele>1212</ele>
        <time>2013-03-10T12:33:40Z</time>
      </trkpt>
      <trkpt lat="43.85441" lon="7.27111">
        <ele>1213</ele>
        <time>2013-03-10T12:33:41Z</time>
      </trkpt>
      <trkpt lat="43.85448" lon="7.2711">
        <ele>1213</ele>
        <time>2013-03-10T12:33:45Z</time>
      </trkpt>
      <trkpt lat="43.85459" lon="7.2711">
        <ele>1213</ele>
        <time>2013-03-10T12:33:52Z</time>
      </trkpt>
      <trkpt lat="43.85461" lon="7.27109">
        <ele>1214</ele>
        <time>2013-03-10T12:33:53Z</time>
      </trkpt>
      <trkpt lat="43.85462" lon="7.27109">
        <ele>1214</ele>
        <time>2013-03-10T12:33:54Z</time>
      </trkpt>
      <trkpt lat="43.85464" lon="7.2711">
        <ele>1215</ele>
        <time>2013-03-10T12:33:55Z</time>
      </trkpt>
      <trkpt lat="43.85466" lon="7.2711">
        <ele>1215</ele>
        <time>2013-03-10T12:33:56Z</time>
      </trkpt>
      <trkpt lat="43.85474" lon="7.27111">
        <ele>1215</ele>
        <time>2013-03-10T12:34:01Z</time>
      </trkpt>
      <trkpt lat="43.85484" lon="7.2711">
        <ele>1216</ele>
        <time>2013-03-10T12:34:06Z</time>
      </trkpt>
      <trkpt lat="43.85486" lon="7.2711">
        <ele>1216</ele>
        <time>2013-03-10T12:34:07Z</time>
      </trkpt>
      <trkpt lat="43.85488" lon="7.2711">
        <ele>1217</ele>
        <time>2013-03-10T12:34:08Z</time>
      </trkpt>
      <trkpt lat="43.85489" lon="7.2711">
        <ele>1217</ele>
        <time>2013-03-10T12:34:09Z</time>
      </trkpt>
      <trkpt lat="43.855" lon="7.2711">
        <ele>1217</ele>
        <time>2013-03-10T12:34:15Z</time>
      </trkpt>
      <trkpt lat="43.85504" lon="7.27111">
        <ele>1217</ele>
        <time>2013-03-10T12:34:18Z</time>
      </trkpt>
      <trkpt lat="43.85506" lon="7.27111">
        <ele>1218</ele>
        <time>2013-03-10T12:34:19Z</time>
      </trkpt>
      <trkpt lat="43.85507" lon="7.27111">
        <ele>1218</ele>
        <time>2013-03-10T12:34:20Z</time>
      </trkpt>
      <trkpt lat="43.85509" lon="7.27112">
        <ele>1219</ele>
        <time>2013-03-10T12:34:21Z</time>
      </trkpt>
      <trkpt lat="43.8551" lon="7.27112">
        <ele>1219</ele>
        <time>2013-03-10T12:34:22Z</time>
      </trkpt>
      <trkpt lat="43.85512" lon="7.27112">
        <ele>1219</ele>
        <time>2013-03-10T12:34:23Z</time>
      </trkpt>
      <trkpt lat="43.85525" lon="7.27111">
        <ele>1220</ele>
        <time>2013-03-10T12:34:31Z</time>
      </trkpt>
      <trkpt lat="43.85527" lon="7.27111">
        <ele>1220</ele>
        <time>2013-03-10T12:34:32Z</time>
      </trkpt>
      <trkpt lat="43.85529" lon="7.27112">
        <ele>1220</ele>
        <time>2013-03-10T12:34:33Z</time>
      </trkpt>
      <trkpt lat="43.85531" lon="7.27112">
        <ele>1221</ele>
        <time>2013-03-10T12:34:34Z</time>
      </trkpt>
      <trkpt lat="43.85532" lon="7.27112">
        <ele>1221</ele>
        <time>2013-03-10T12:34:35Z</time>
      </trkpt>
      <trkpt lat="43.85539" lon="7.27112">
        <ele>1221</ele>
        <time>2013-03-10T12:34:39Z</time>
      </trkpt>
      <trkpt lat="43.85548" lon="7.27112">
        <ele>1221</ele>
        <time>2013-03-10T12:34:44Z</time>
      </trkpt>
      <trkpt lat="43.85551" lon="7.27112">
        <ele>1222</ele>
        <time>2013-03-10T12:34:46Z</time>
      </trkpt>
      <trkpt lat="43.85553" lon="7.27112">
        <ele>1222</ele>
        <time>2013-03-10T12:34:47Z</time>
      </trkpt>
      <trkpt lat="43.85554" lon="7.27112">
        <ele>1222</ele>
        <time>2013-03-10T12:34:48Z</time>
      </trkpt>
      <trkpt lat="43.85556" lon="7.27112">
        <ele>1223</ele>
        <time>2013-03-10T12:34:49Z</time>
      </trkpt>
      <trkpt lat="43.85557" lon="7.27112">
        <ele>1223</ele>
        <time>2013-03-10T12:34:50Z</time>
      </trkpt>
      <trkpt lat="43.85568" lon="7.27111">
        <ele>1223</ele>
        <time>2013-03-10T12:34:56Z</time>
      </trkpt>
      <trkpt lat="43.85574" lon="7.2711">
        <ele>1224</ele>
        <time>2013-03-10T12:35:00Z</time>
      </trkpt>
      <trkpt lat="43.85576" lon="7.2711">
        <ele>1224</ele>
        <time>2013-03-10T12:35:01Z</time>
      </trkpt>
      <trkpt lat="43.85578" lon="7.27109">
        <ele>1224</ele>
        <time>2013-03-10T12:35:02Z</time>
      </trkpt>
      <trkpt lat="43.85579" lon="7.27109">
        <ele>1225</ele>
        <time>2013-03-10T12:35:03Z</time>
      </trkpt>
      <trkpt lat="43.85581" lon="7.27109">
        <ele>1225</ele>
        <time>2013-03-10T12:35:04Z</time>
      </trkpt>
      <trkpt lat="43.85583" lon="7.27108">
        <ele>1225</ele>
        <time>2013-03-10T12:35:05Z</time>
      </trkpt>
      <trkpt lat="43.8559" lon="7.27108">
        <ele>1225</ele>
        <time>2013-03-10T12:35:09Z</time>
      </trkpt>
      <trkpt lat="43.85598" lon="7.27107">
        <ele>1225</ele>
        <time>2013-03-10T12:35:13Z</time>
      </trkpt>
      <trkpt lat="43.85603" lon="7.27108">
        <ele>1225</ele>
        <time>2013-03-10T12:35:16Z</time>
      </trkpt>
      <trkpt lat="43.85607" lon="7.27108">
        <ele>1226</ele>
        <time>2013-03-10T12:35:18Z</time>
      </trkpt>
      <trkpt lat="43.85609" lon="7.27108">
        <ele>1226</ele>
        <time>2013-03-10T12:35:19Z</time>
      </trkpt>
      <trkpt lat="43.8561" lon="7.27108">
        <ele>1227</ele>
        <time>2013-03-10T12:35:20Z</time>
      </trkpt>
      <trkpt lat="43.85612" lon="7.27109">
        <ele>1227</ele>
        <time>2013-03-10T12:35:21Z</time>
      </trkpt>
      <trkpt lat="43.85613" lon="7.27109">
        <ele>1227</ele>
        <time>2013-03-10T12:35:22Z</time>
      </trkpt>
      <trkpt lat="43.85615" lon="7.27109">
        <ele>1227</ele>
        <time>2013-03-10T12:35:23Z</time>
      </trkpt>
      <trkpt lat="43.85629" lon="7.27112">
        <ele>1227</ele>
        <time>2013-03-10T12:35:31Z</time>
      </trkpt>
      <trkpt lat="43.85636" lon="7.27113">
        <ele>1228</ele>
        <time>2013-03-10T12:35:35Z</time>
      </trkpt>
      <trkpt lat="43.85637" lon="7.27113">
        <ele>1228</ele>
        <time>2013-03-10T12:35:36Z</time>
      </trkpt>
      <trkpt lat="43.85639" lon="7.27114">
        <ele>1229</ele>
        <time>2013-03-10T12:35:37Z</time>
      </trkpt>
      <trkpt lat="43.85641" lon="7.27114">
        <ele>1229</ele>
        <time>2013-03-10T12:35:38Z</time>
      </trkpt>
      <trkpt lat="43.85642" lon="7.27113">
        <ele>1230</ele>
        <time>2013-03-10T12:35:39Z</time>
      </trkpt>
      <trkpt lat="43.85652" lon="7.27113">
        <ele>1230</ele>
        <time>2013-03-10T12:35:45Z</time>
      </trkpt>
      <trkpt lat="43.85655" lon="7.27113">
        <ele>1230</ele>
        <time>2013-03-10T12:35:47Z</time>
      </trkpt>
      <trkpt lat="43.85656" lon="7.27113">
        <ele>1230</ele>
        <time>2013-03-10T12:35:48Z</time>
      </trkpt>
      <trkpt lat="43.85658" lon="7.27112">
        <ele>1231</ele>
        <time>2013-03-10T12:35:49Z</time>
      </trkpt>
      <trkpt lat="43.8566" lon="7.27113">
        <ele>1231</ele>
        <time>2013-03-10T12:35:50Z</time>
      </trkpt>
      <trkpt lat="43.85662" lon="7.27113">
        <ele>1232</ele>
        <time>2013-03-10T12:35:51Z</time>
      </trkpt>
      <trkpt lat="43.85663" lon="7.27112">
        <ele>1232</ele>
        <time>2013-03-10T12:35:52Z</time>
      </trkpt>
      <trkpt lat="43.85675" lon="7.27113">
        <ele>1232</ele>
        <time>2013-03-10T12:35:59Z</time>
      </trkpt>
      <trkpt lat="43.85678" lon="7.27113">
        <ele>1232</ele>
        <time>2013-03-10T12:36:01Z</time>
      </trkpt>
      <trkpt lat="43.8568" lon="7.27113">
        <ele>1232</ele>
        <time>2013-03-10T12:36:02Z</time>
      </trkpt>
      <trkpt lat="43.85681" lon="7.27114">
        <ele>1233</ele>
        <time>2013-03-10T12:36:03Z</time>
      </trkpt>
      <trkpt lat="43.85683" lon="7.27114">
        <ele>1234</ele>
        <time>2013-03-10T12:36:04Z</time>
      </trkpt>
      <trkpt lat="43.85686" lon="7.27113">
        <ele>1234</ele>
        <time>2013-03-10T12:36:06Z</time>
      </trkpt>
      <trkpt lat="43.85688" lon="7.27114">
        <ele>1234</ele>
        <time>2013-03-10T12:36:08Z</time>
      </trkpt>
      <trkpt lat="43.85689" lon="7.27113">
        <ele>1235</ele>
        <time>2013-03-10T12:36:09Z</time>
      </trkpt>
      <trkpt lat="43.8569" lon="7.27112">
        <ele>1235</ele>
        <time>2013-03-10T12:36:10Z</time>
      </trkpt>
      <trkpt lat="43.85691" lon="7.27112">
        <ele>1235</ele>
        <time>2013-03-10T12:36:11Z</time>
      </trkpt>
      <trkpt lat="43.85693" lon="7.27112">
        <ele>1236</ele>
        <time>2013-03-10T12:36:12Z</time>
      </trkpt>
      <trkpt lat="43.85705" lon="7.27113">
        <ele>1236</ele>
        <time>2013-03-10T12:36:20Z</time>
      </trkpt>
      <trkpt lat="43.85706" lon="7.27112">
        <ele>1236</ele>
        <time>2013-03-10T12:36:21Z</time>
      </trkpt>
      <trkpt lat="43.85713" lon="7.27113">
        <ele>1236</ele>
        <time>2013-03-10T12:36:25Z</time>
      </trkpt>
      <trkpt lat="43.85714" lon="7.27113">
        <ele>1237</ele>
        <time>2013-03-10T12:36:26Z</time>
      </trkpt>
      <trkpt lat="43.85716" lon="7.27113">
        <ele>1237</ele>
        <time>2013-03-10T12:36:27Z</time>
      </trkpt>
      <trkpt lat="43.85718" lon="7.27113">
        <ele>1237</ele>
        <time>2013-03-10T12:36:28Z</time>
      </trkpt>
      <trkpt lat="43.85719" lon="7.27113">
        <ele>1238</ele>
        <time>2013-03-10T12:36:29Z</time>
      </trkpt>
      <trkpt lat="43.85724" lon="7.27112">
        <ele>1238</ele>
        <time>2013-03-10T12:36:32Z</time>
      </trkpt>
      <trkpt lat="43.85725" lon="7.27112">
        <ele>1238</ele>
        <time>2013-03-10T12:36:33Z</time>
      </trkpt>
      <trkpt lat="43.85735" lon="7.27111">
        <ele>1238</ele>
        <time>2013-03-10T12:36:39Z</time>
      </trkpt>
      <trkpt lat="43.85742" lon="7.2711">
        <ele>1238</ele>
        <time>2013-03-10T12:36:43Z</time>
      </trkpt>
      <trkpt lat="43.85743" lon="7.27109">
        <ele>1239</ele>
        <time>2013-03-10T12:36:44Z</time>
      </trkpt>
      <trkpt lat="43.85745" lon="7.27109">
        <ele>1239</ele>
        <time>2013-03-10T12:36:45Z</time>
      </trkpt>
      <trkpt lat="43.85746" lon="7.27108">
        <ele>1239</ele>
        <time>2013-03-10T12:36:46Z</time>
      </trkpt>
      <trkpt lat="43.85748" lon="7.27108">
        <ele>1240</ele>
        <time>2013-03-10T12:36:47Z</time>
      </trkpt>
      <trkpt lat="43.85756" lon="7.27107">
        <ele>1240</ele>
        <time>2013-03-10T12:36:53Z</time>
      </trkpt>
      <trkpt lat="43.85762" lon="7.27106">
        <ele>1240</ele>
        <time>2013-03-10T12:36:57Z</time>
      </trkpt>
      <trkpt lat="43.85764" lon="7.27106">
        <ele>1241</ele>
        <time>2013-03-10T12:36:58Z</time>
      </trkpt>
      <trkpt lat="43.85766" lon="7.27106">
        <ele>1241</ele>
        <time>2013-03-10T12:36:59Z</time>
      </trkpt>
      <trkpt lat="43.85768" lon="7.27106">
        <ele>1242</ele>
        <time>2013-03-10T12:37:00Z</time>
      </trkpt>
      <trkpt lat="43.85769" lon="7.27106">
        <ele>1242</ele>
        <time>2013-03-10T12:37:01Z</time>
      </trkpt>
      <trkpt lat="43.85777" lon="7.27106">
        <ele>1242</ele>
        <time>2013-03-10T12:37:07Z</time>
      </trkpt>
      <trkpt lat="43.85786" lon="7.27108">
        <ele>1242</ele>
        <time>2013-03-10T12:37:13Z</time>
      </trkpt>
      <trkpt lat="43.85787" lon="7.27108">
        <ele>1243</ele>
        <time>2013-03-10T12:37:14Z</time>
      </trkpt>
      <trkpt lat="43.85789" lon="7.27108">
        <ele>1243</ele>
        <time>2013-03-10T12:37:15Z</time>
      </trkpt>
      <trkpt lat="43.8579" lon="7.27107">
        <ele>1244</ele>
        <time>2013-03-10T12:37:16Z</time>
      </trkpt>
      <trkpt lat="43.85791" lon="7.27107">
        <ele>1244</ele>
        <time>2013-03-10T12:37:17Z</time>
      </trkpt>
      <trkpt lat="43.85796" lon="7.27108">
        <ele>1244</ele>
        <time>2013-03-10T12:37:20Z</time>
      </trkpt>
      <trkpt lat="43.85805" lon="7.27108">
        <ele>1244</ele>
        <time>2013-03-10T12:37:26Z</time>
      </trkpt>
      <trkpt lat="43.85807" lon="7.27108">
        <ele>1245</ele>
        <time>2013-03-10T12:37:27Z</time>
      </trkpt>
      <trkpt lat="43.85808" lon="7.27108">
        <ele>1245</ele>
        <time>2013-03-10T12:37:28Z</time>
      </trkpt>
      <trkpt lat="43.85809" lon="7.27108">
        <ele>1245</ele>
        <time>2013-03-10T12:37:29Z</time>
      </trkpt>
      <trkpt lat="43.85811" lon="7.27107">
        <ele>1246</ele>
        <time>2013-03-10T12:37:30Z</time>
      </trkpt>
      <trkpt lat="43.85813" lon="7.27108">
        <ele>1246</ele>
        <time>2013-03-10T12:37:31Z</time>
      </trkpt>
      <trkpt lat="43.85821" lon="7.27108">
        <ele>1246</ele>
        <time>2013-03-10T12:37:37Z</time>
      </trkpt>
      <trkpt lat="43.85829" lon="7.27107">
        <ele>1247</ele>
        <time>2013-03-10T12:37:42Z</time>
      </trkpt>
      <trkpt lat="43.85831" lon="7.27107">
        <ele>1247</ele>
        <time>2013-03-10T12:37:43Z</time>
      </trkpt>
      <trkpt lat="43.85832" lon="7.27108">
        <ele>1247</ele>
        <time>2013-03-10T12:37:44Z</time>
      </trkpt>
      <trkpt lat="43.85833" lon="7.27108">
        <ele>1248</ele>
        <time>2013-03-10T12:37:45Z</time>
      </trkpt>
      <trkpt lat="43.85835" lon="7.27108">
        <ele>1248</ele>
        <time>2013-03-10T12:37:46Z</time>
      </trkpt>
      <trkpt lat="43.85848" lon="7.27108">
        <ele>1248</ele>
        <time>2013-03-10T12:37:54Z</time>
      </trkpt>
      <trkpt lat="43.85852" lon="7.27108">
        <ele>1249</ele>
        <time>2013-03-10T12:37:56Z</time>
      </trkpt>
      <trkpt lat="43.85853" lon="7.27109">
        <ele>1249</ele>
        <time>2013-03-10T12:37:57Z</time>
      </trkpt>
      <trkpt lat="43.85855" lon="7.27109">
        <ele>1249</ele>
        <time>2013-03-10T12:37:58Z</time>
      </trkpt>
      <trkpt lat="43.85856" lon="7.2711">
        <ele>1250</ele>
        <time>2013-03-10T12:37:59Z</time>
      </trkpt>
      <trkpt lat="43.85858" lon="7.2711">
        <ele>1250</ele>
        <time>2013-03-10T12:38:00Z</time>
      </trkpt>
      <trkpt lat="43.8586" lon="7.27111">
        <ele>1250</ele>
        <time>2013-03-10T12:38:01Z</time>
      </trkpt>
      <trkpt lat="43.8587" lon="7.27117">
        <ele>1251</ele>
        <time>2013-03-10T12:38:08Z</time>
      </trkpt>
      <trkpt lat="43.85872" lon="7.27119">
        <ele>1251</ele>
        <time>2013-03-10T12:38:09Z</time>
      </trkpt>
      <trkpt lat="43.85873" lon="7.2712">
        <ele>1252</ele>
        <time>2013-03-10T12:38:10Z</time>
      </trkpt>
      <trkpt lat="43.85874" lon="7.27121">
        <ele>1252</ele>
        <time>2013-03-10T12:38:11Z</time>
      </trkpt>
      <trkpt lat="43.85876" lon="7.27122">
        <ele>1252</ele>
        <time>2013-03-10T12:38:12Z</time>
      </trkpt>
      <trkpt lat="43.85884" lon="7.27127">
        <ele>1252</ele>
        <time>2013-03-10T12:38:17Z</time>
      </trkpt>
      <trkpt lat="43.85891" lon="7.27133">
        <ele>1253</ele>
        <time>2013-03-10T12:38:23Z</time>
      </trkpt>
      <trkpt lat="43.85893" lon="7.27134">
        <ele>1253</ele>
        <time>2013-03-10T12:38:24Z</time>
      </trkpt>
      <trkpt lat="43.85895" lon="7.27136">
        <ele>1254</ele>
        <time>2013-03-10T12:38:25Z</time>
      </trkpt>
      <trkpt lat="43.85897" lon="7.27136">
        <ele>1254</ele>
        <time>2013-03-10T12:38:26Z</time>
      </trkpt>
      <trkpt lat="43.85898" lon="7.27137">
        <ele>1255</ele>
        <time>2013-03-10T12:38:27Z</time>
      </trkpt>
      <trkpt lat="43.85905" lon="7.27142">
        <ele>1255</ele>
        <time>2013-03-10T12:38:32Z</time>
      </trkpt>
      <trkpt lat="43.85912" lon="7.27146">
        <ele>1255</ele>
        <time>2013-03-10T12:38:37Z</time>
      </trkpt>
      <trkpt lat="43.85914" lon="7.27147">
        <ele>1255</ele>
        <time>2013-03-10T12:38:38Z</time>
      </trkpt>
      <trkpt lat="43.85915" lon="7.27147">
        <ele>1256</ele>
        <time>2013-03-10T12:38:39Z</time>
      </trkpt>
      <trkpt lat="43.85917" lon="7.27149">
        <ele>1256</ele>
        <time>2013-03-10T12:38:40Z</time>
      </trkpt>
      <trkpt lat="43.85918" lon="7.2715">
        <ele>1257</ele>
        <time>2013-03-10T12:38:41Z</time>
      </trkpt>
      <trkpt lat="43.85926" lon="7.27156">
        <ele>1257</ele>
        <time>2013-03-10T12:38:46Z</time>
      </trkpt>
      <trkpt lat="43.85933" lon="7.27155">
        <ele>1257</ele>
        <time>2013-03-10T12:38:50Z</time>
      </trkpt>
      <trkpt lat="43.85935" lon="7.27155">
        <ele>1257</ele>
        <time>2013-03-10T12:38:51Z</time>
      </trkpt>
      <trkpt lat="43.85937" lon="7.27154">
        <ele>1258</ele>
        <time>2013-03-10T12:38:52Z</time>
      </trkpt>
      <trkpt lat="43.85938" lon="7.27154">
        <ele>1258</ele>
        <time>2013-03-10T12:38:53Z</time>
      </trkpt>
      <trkpt lat="43.8594" lon="7.27156">
        <ele>1259</ele>
        <time>2013-03-10T12:38:54Z</time>
      </trkpt>
      <trkpt lat="43.85944" lon="7.27158">
        <ele>1259</ele>
        <time>2013-03-10T12:38:58Z</time>
      </trkpt>
      <trkpt lat="43.85951" lon="7.27163">
        <ele>1259</ele>
        <time>2013-03-10T12:39:03Z</time>
      </trkpt>
      <trkpt lat="43.85953" lon="7.27166">
        <ele>1259</ele>
        <time>2013-03-10T12:39:05Z</time>
      </trkpt>
      <trkpt lat="43.85953" lon="7.27167">
        <ele>1259</ele>
        <time>2013-03-10T12:39:06Z</time>
      </trkpt>
      <trkpt lat="43.85954" lon="7.27169">
        <ele>1260</ele>
        <time>2013-03-10T12:39:07Z</time>
      </trkpt>
      <trkpt lat="43.85955" lon="7.27171">
        <ele>1260</ele>
        <time>2013-03-10T12:39:08Z</time>
      </trkpt>
      <trkpt lat="43.85955" lon="7.27172">
        <ele>1261</ele>
        <time>2013-03-10T12:39:09Z</time>
      </trkpt>
      <trkpt lat="43.85957" lon="7.27178">
        <ele>1261</ele>
        <time>2013-03-10T12:39:13Z</time>
      </trkpt>
      <trkpt lat="43.85957" lon="7.2718">
        <ele>1261</ele>
        <time>2013-03-10T12:39:14Z</time>
      </trkpt>
      <trkpt lat="43.85958" lon="7.27182">
        <ele>1261</ele>
        <time>2013-03-10T12:39:15Z</time>
      </trkpt>
      <trkpt lat="43.85958" lon="7.27183">
        <ele>1262</ele>
        <time>2013-03-10T12:39:16Z</time>
      </trkpt>
      <trkpt lat="43.85958" lon="7.27184">
        <ele>1262</ele>
        <time>2013-03-10T12:39:17Z</time>
      </trkpt>
      <trkpt lat="43.85958" lon="7.27187">
        <ele>1262</ele>
        <time>2013-03-10T12:39:18Z</time>
      </trkpt>
      <trkpt lat="43.85958" lon="7.2719">
        <ele>1263</ele>
        <time>2013-03-10T12:39:19Z</time>
      </trkpt>
      <trkpt lat="43.85957" lon="7.27192">
        <ele>1263</ele>
        <time>2013-03-10T12:39:20Z</time>
      </trkpt>
      <trkpt lat="43.85958" lon="7.27197">
        <ele>1263</ele>
        <time>2013-03-10T12:39:25Z</time>
      </trkpt>
      <trkpt lat="43.85954" lon="7.27198">
        <ele>1263</ele>
        <time>2013-03-10T12:39:29Z</time>
      </trkpt>
      <trkpt lat="43.8595" lon="7.27202">
        <ele>1263</ele>
        <time>2013-03-10T12:39:32Z</time>
      </trkpt>
      <trkpt lat="43.85948" lon="7.27207">
        <ele>1263</ele>
        <time>2013-03-10T12:39:35Z</time>
      </trkpt>
      <trkpt lat="43.8594" lon="7.2722">
        <ele>1263</ele>
        <time>2013-03-10T12:39:42Z</time>
      </trkpt>
      <trkpt lat="43.85925" lon="7.27228">
        <ele>1263</ele>
        <time>2013-03-10T12:39:48Z</time>
      </trkpt>
      <trkpt lat="43.85917" lon="7.27233">
        <ele>1263</ele>
        <time>2013-03-10T12:39:52Z</time>
      </trkpt>
      <trkpt lat="43.85915" lon="7.27234">
        <ele>1264</ele>
        <time>2013-03-10T12:39:53Z</time>
      </trkpt>
      <trkpt lat="43.85912" lon="7.27235">
        <ele>1264</ele>
        <time>2013-03-10T12:39:54Z</time>
      </trkpt>
      <trkpt lat="43.85909" lon="7.27236">
        <ele>1265</ele>
        <time>2013-03-10T12:39:55Z</time>
      </trkpt>
      <trkpt lat="43.85906" lon="7.27237">
        <ele>1265</ele>
        <time>2013-03-10T12:39:56Z</time>
      </trkpt>
      <trkpt lat="43.85897" lon="7.27238">
        <ele>1265</ele>
        <time>2013-03-10T12:39:59Z</time>
      </trkpt>
      <trkpt lat="43.85892" lon="7.2723">
        <ele>1265</ele>
        <time>2013-03-10T12:40:03Z</time>
      </trkpt>
      <trkpt lat="43.85894" lon="7.2721">
        <ele>1264</ele>
        <time>2013-03-10T12:40:09Z</time>
      </trkpt>
      <trkpt lat="43.85896" lon="7.27207">
        <ele>1264</ele>
        <time>2013-03-10T12:40:10Z</time>
      </trkpt>
      <trkpt lat="43.85897" lon="7.27205">
        <ele>1264</ele>
        <time>2013-03-10T12:40:11Z</time>
      </trkpt>
      <trkpt lat="43.85898" lon="7.27203">
        <ele>1263</ele>
        <time>2013-03-10T12:40:12Z</time>
      </trkpt>
      <trkpt lat="43.85899" lon="7.27202">
        <ele>1263</ele>
        <time>2013-03-10T12:40:13Z</time>
      </trkpt>
      <trkpt lat="43.85903" lon="7.27196">
        <ele>1263</ele>
        <time>2013-03-10T12:40:19Z</time>
      </trkpt>
      <trkpt lat="43.85906" lon="7.27194">
        <ele>1263</ele>
        <time>2013-03-10T12:41:14Z</time>
      </trkpt>
      <trkpt lat="43.85908" lon="7.27193">
        <ele>1263</ele>
        <time>2013-03-10T12:41:16Z</time>
      </trkpt>
      <trkpt lat="43.85908" lon="7.27192">
        <ele>1263</ele>
        <time>2013-03-10T12:41:18Z</time>
      </trkpt>
      <trkpt lat="43.85913" lon="7.27196">
        <ele>1263</ele>
        <time>2013-03-10T12:43:04Z</time>
      </trkpt>
      <trkpt lat="43.85913" lon="7.272">
        <ele>1263</ele>
        <time>2013-03-10T12:43:05Z</time>
      </trkpt>
      <trkpt lat="43.85909" lon="7.27206">
        <ele>1263</ele>
        <time>2013-03-10T12:43:08Z</time>
      </trkpt>
      <trkpt lat="43.85911" lon="7.27214">
        <ele>1263</ele>
        <time>2013-03-10T12:43:13Z</time>
      </trkpt>
      <trkpt lat="43.85912" lon="7.27217">
        <ele>1263</ele>
        <time>2013-03-10T12:43:15Z</time>
      </trkpt>
      <trkpt lat="43.85914" lon="7.27223">
        <ele>1263</ele>
        <time>2013-03-10T12:43:18Z</time>
      </trkpt>
      <trkpt lat="43.85917" lon="7.2723">
        <ele>1263</ele>
        <time>2013-03-10T12:43:22Z</time>
      </trkpt>
      <trkpt lat="43.85932" lon="7.27236">
        <ele>1263</ele>
        <time>2013-03-10T12:43:28Z</time>
      </trkpt>
      <trkpt lat="43.85934" lon="7.27237">
        <ele>1263</ele>
        <time>2013-03-10T12:43:29Z</time>
      </trkpt>
      <trkpt lat="43.85936" lon="7.27238">
        <ele>1264</ele>
        <time>2013-03-10T12:43:30Z</time>
      </trkpt>
      <trkpt lat="43.85939" lon="7.27239">
        <ele>1264</ele>
        <time>2013-03-10T12:43:31Z</time>
      </trkpt>
      <trkpt lat="43.8594" lon="7.27239">
        <ele>1265</ele>
        <time>2013-03-10T12:43:32Z</time>
      </trkpt>
      <trkpt lat="43.85949" lon="7.27239">
        <ele>1265</ele>
        <time>2013-03-10T12:43:36Z</time>
      </trkpt>
      <trkpt lat="43.85958" lon="7.2724">
        <ele>1265</ele>
        <time>2013-03-10T12:43:41Z</time>
      </trkpt>
      <trkpt lat="43.8596" lon="7.27241">
        <ele>1265</ele>
        <time>2013-03-10T12:43:42Z</time>
      </trkpt>
      <trkpt lat="43.85962" lon="7.27241">
        <ele>1266</ele>
        <time>2013-03-10T12:43:43Z</time>
      </trkpt>
      <trkpt lat="43.85963" lon="7.27241">
        <ele>1266</ele>
        <time>2013-03-10T12:43:44Z</time>
      </trkpt>
      <trkpt lat="43.85966" lon="7.27242">
        <ele>1267</ele>
        <time>2013-03-10T12:43:45Z</time>
      </trkpt>
      <trkpt lat="43.85974" lon="7.27246">
        <ele>1267</ele>
        <time>2013-03-10T12:43:48Z</time>
      </trkpt>
      <trkpt lat="43.85981" lon="7.27266">
        <ele>1267</ele>
        <time>2013-03-10T12:43:54Z</time>
      </trkpt>
      <trkpt lat="43.85974" lon="7.27281">
        <ele>1267</ele>
        <time>2013-03-10T12:43:59Z</time>
      </trkpt>
      <trkpt lat="43.85973" lon="7.27283">
        <ele>1267</ele>
        <time>2013-03-10T12:44:00Z</time>
      </trkpt>
      <trkpt lat="43.85972" lon="7.27285">
        <ele>1268</ele>
        <time>2013-03-10T12:44:01Z</time>
      </trkpt>
      <trkpt lat="43.85971" lon="7.27287">
        <ele>1268</ele>
        <time>2013-03-10T12:44:02Z</time>
      </trkpt>
      <trkpt lat="43.8597" lon="7.27288">
        <ele>1269</ele>
        <time>2013-03-10T12:44:03Z</time>
      </trkpt>
      <trkpt lat="43.85967" lon="7.27293">
        <ele>1269</ele>
        <time>2013-03-10T12:44:06Z</time>
      </trkpt>
      <trkpt lat="43.85964" lon="7.273">
        <ele>1269</ele>
        <time>2013-03-10T12:44:09Z</time>
      </trkpt>
      <trkpt lat="43.85963" lon="7.27302">
        <ele>1270</ele>
        <time>2013-03-10T12:44:10Z</time>
      </trkpt>
      <trkpt lat="43.85964" lon="7.27305">
        <ele>1270</ele>
        <time>2013-03-10T12:44:11Z</time>
      </trkpt>
      <trkpt lat="43.85965" lon="7.27307">
        <ele>1270</ele>
        <time>2013-03-10T12:44:12Z</time>
      </trkpt>
      <trkpt lat="43.85966" lon="7.27309">
        <ele>1271</ele>
        <time>2013-03-10T12:44:13Z</time>
      </trkpt>
      <trkpt lat="43.85969" lon="7.27311">
        <ele>1271</ele>
        <time>2013-03-10T12:44:15Z</time>
      </trkpt>
      <trkpt lat="43.8597" lon="7.27311">
        <ele>1271</ele>
        <time>2013-03-10T12:44:16Z</time>
      </trkpt>
      <trkpt lat="43.85972" lon="7.27312">
        <ele>1271</ele>
        <time>2013-03-10T12:44:18Z</time>
      </trkpt>
      <trkpt lat="43.85972" lon="7.27312">
        <ele>1271</ele>
        <time>2013-03-10T12:44:20Z</time>
      </trkpt>
      <trkpt lat="43.85975" lon="7.27309">
        <ele>1273</ele>
        <time>2013-03-10T12:44:56Z</time>
      </trkpt>
      <trkpt lat="43.85985" lon="7.27302">
        <ele>1273</ele>
        <time>2013-03-10T12:45:03Z</time>
      </trkpt>
      <trkpt lat="43.85996" lon="7.27294">
        <ele>1273</ele>
        <time>2013-03-10T12:45:09Z</time>
      </trkpt>
      <trkpt lat="43.85997" lon="7.27292">
        <ele>1273</ele>
        <time>2013-03-10T12:45:10Z</time>
      </trkpt>
      <trkpt lat="43.85999" lon="7.27292">
        <ele>1274</ele>
        <time>2013-03-10T12:45:11Z</time>
      </trkpt>
      <trkpt lat="43.86001" lon="7.27292">
        <ele>1274</ele>
        <time>2013-03-10T12:45:12Z</time>
      </trkpt>
      <trkpt lat="43.86003" lon="7.27292">
        <ele>1275</ele>
        <time>2013-03-10T12:45:13Z</time>
      </trkpt>
      <trkpt lat="43.86005" lon="7.27292">
        <ele>1275</ele>
        <time>2013-03-10T12:45:14Z</time>
      </trkpt>
      <trkpt lat="43.86015" lon="7.27291">
        <ele>1275</ele>
        <time>2013-03-10T12:45:21Z</time>
      </trkpt>
      <trkpt lat="43.86016" lon="7.2729">
        <ele>1276</ele>
        <time>2013-03-10T12:45:22Z</time>
      </trkpt>
      <trkpt lat="43.86017" lon="7.2729">
        <ele>1276</ele>
        <time>2013-03-10T12:45:23Z</time>
      </trkpt>
      <trkpt lat="43.86018" lon="7.2729">
        <ele>1277</ele>
        <time>2013-03-10T12:45:24Z</time>
      </trkpt>
      <trkpt lat="43.86018" lon="7.27289">
        <ele>1277</ele>
        <time>2013-03-10T12:45:25Z</time>
      </trkpt>
      <trkpt lat="43.8602" lon="7.27289">
        <ele>1277</ele>
        <time>2013-03-10T12:45:27Z</time>
      </trkpt>
      <trkpt lat="43.8602" lon="7.27289">
        <ele>1277</ele>
        <time>2013-03-10T12:45:28Z</time>
      </trkpt>
      <trkpt lat="43.86022" lon="7.2729">
        <ele>1277</ele>
        <time>2013-03-10T12:45:38Z</time>
      </trkpt>
      <trkpt lat="43.86025" lon="7.27288">
        <ele>1277</ele>
        <time>2013-03-10T12:45:40Z</time>
      </trkpt>
      <trkpt lat="43.86041" lon="7.27284">
        <ele>1278</ele>
        <time>2013-03-10T12:45:48Z</time>
      </trkpt>
      <trkpt lat="43.86042" lon="7.27283">
        <ele>1278</ele>
        <time>2013-03-10T12:45:49Z</time>
      </trkpt>
      <trkpt lat="43.86044" lon="7.27282">
        <ele>1278</ele>
        <time>2013-03-10T12:45:50Z</time>
      </trkpt>
      <trkpt lat="43.86046" lon="7.27281">
        <ele>1279</ele>
        <time>2013-03-10T12:45:51Z</time>
      </trkpt>
      <trkpt lat="43.86048" lon="7.2728">
        <ele>1279</ele>
        <time>2013-03-10T12:45:52Z</time>
      </trkpt>
      <trkpt lat="43.86053" lon="7.27276">
        <ele>1279</ele>
        <time>2013-03-10T12:45:55Z</time>
      </trkpt>
      <trkpt lat="43.86058" lon="7.27273">
        <ele>1280</ele>
        <time>2013-03-10T12:45:58Z</time>
      </trkpt>
      <trkpt lat="43.8606" lon="7.27272">
        <ele>1280</ele>
        <time>2013-03-10T12:45:59Z</time>
      </trkpt>
      <trkpt lat="43.86061" lon="7.2727">
        <ele>1281</ele>
        <time>2013-03-10T12:46:00Z</time>
      </trkpt>
      <trkpt lat="43.86061" lon="7.27268">
        <ele>1281</ele>
        <time>2013-03-10T12:46:01Z</time>
      </trkpt>
      <trkpt lat="43.86062" lon="7.27266">
        <ele>1282</ele>
        <time>2013-03-10T12:46:02Z</time>
      </trkpt>
      <trkpt lat="43.8606" lon="7.27252">
        <ele>1282</ele>
        <time>2013-03-10T12:46:08Z</time>
      </trkpt>
      <trkpt lat="43.86054" lon="7.27244">
        <ele>1282</ele>
        <time>2013-03-10T12:46:13Z</time>
      </trkpt>
      <trkpt lat="43.86052" lon="7.27243">
        <ele>1282</ele>
        <time>2013-03-10T12:46:14Z</time>
      </trkpt>
      <trkpt lat="43.86051" lon="7.27241">
        <ele>1283</ele>
        <time>2013-03-10T12:46:15Z</time>
      </trkpt>
      <trkpt lat="43.8605" lon="7.27239">
        <ele>1283</ele>
        <time>2013-03-10T12:46:16Z</time>
      </trkpt>
      <trkpt lat="43.8605" lon="7.27238">
        <ele>1284</ele>
        <time>2013-03-10T12:46:17Z</time>
      </trkpt>
      <trkpt lat="43.8605" lon="7.27227">
        <ele>1284</ele>
        <time>2013-03-10T12:46:22Z</time>
      </trkpt>
      <trkpt lat="43.8605" lon="7.27225">
        <ele>1285</ele>
        <time>2013-03-10T12:46:23Z</time>
      </trkpt>
      <trkpt lat="43.8605" lon="7.27224">
        <ele>1285</ele>
        <time>2013-03-10T12:46:24Z</time>
      </trkpt>
      <trkpt lat="43.86051" lon="7.27222">
        <ele>1285</ele>
        <time>2013-03-10T12:46:25Z</time>
      </trkpt>
      <trkpt lat="43.86051" lon="7.2722">
        <ele>1286</ele>
        <time>2013-03-10T12:46:26Z</time>
      </trkpt>
      <trkpt lat="43.86053" lon="7.27215">
        <ele>1286</ele>
        <time>2013-03-10T12:46:29Z</time>
      </trkpt>
      <trkpt lat="43.86054" lon="7.27213">
        <ele>1286</ele>
        <time>2013-03-10T12:46:30Z</time>
      </trkpt>
      <trkpt lat="43.86061" lon="7.27204">
        <ele>1286</ele>
        <time>2013-03-10T12:46:36Z</time>
      </trkpt>
      <trkpt lat="43.86063" lon="7.27203">
        <ele>1287</ele>
        <time>2013-03-10T12:46:37Z</time>
      </trkpt>
      <trkpt lat="43.86064" lon="7.27201">
        <ele>1287</ele>
        <time>2013-03-10T12:46:38Z</time>
      </trkpt>
      <trkpt lat="43.86065" lon="7.272">
        <ele>1288</ele>
        <time>2013-03-10T12:46:39Z</time>
      </trkpt>
      <trkpt lat="43.86067" lon="7.27198">
        <ele>1288</ele>
        <time>2013-03-10T12:46:40Z</time>
      </trkpt>
      <trkpt lat="43.86074" lon="7.27194">
        <ele>1288</ele>
        <time>2013-03-10T12:46:44Z</time>
      </trkpt>
      <trkpt lat="43.86085" lon="7.2719">
        <ele>1289</ele>
        <time>2013-03-10T12:46:51Z</time>
      </trkpt>
      <trkpt lat="43.86087" lon="7.2719">
        <ele>1289</ele>
        <time>2013-03-10T12:46:52Z</time>
      </trkpt>
      <trkpt lat="43.86089" lon="7.27189">
        <ele>1289</ele>
        <time>2013-03-10T12:46:53Z</time>
      </trkpt>
      <trkpt lat="43.86091" lon="7.27189">
        <ele>1290</ele>
        <time>2013-03-10T12:46:54Z</time>
      </trkpt>
      <trkpt lat="43.86092" lon="7.27188">
        <ele>1290</ele>
        <time>2013-03-10T12:46:55Z</time>
      </trkpt>
      <trkpt lat="43.86095" lon="7.27188">
        <ele>1290</ele>
        <time>2013-03-10T12:46:57Z</time>
      </trkpt>
      <trkpt lat="43.86098" lon="7.27186">
        <ele>1290</ele>
        <time>2013-03-10T12:46:59Z</time>
      </trkpt>
      <trkpt lat="43.86108" lon="7.27181">
        <ele>1291</ele>
        <time>2013-03-10T12:47:05Z</time>
      </trkpt>
      <trkpt lat="43.86109" lon="7.27181">
        <ele>1291</ele>
        <time>2013-03-10T12:47:06Z</time>
      </trkpt>
      <trkpt lat="43.8611" lon="7.2718">
        <ele>1292</ele>
        <time>2013-03-10T12:47:07Z</time>
      </trkpt>
      <trkpt lat="43.86112" lon="7.27179">
        <ele>1292</ele>
        <time>2013-03-10T12:47:08Z</time>
      </trkpt>
      <trkpt lat="43.86114" lon="7.27178">
        <ele>1293</ele>
        <time>2013-03-10T12:47:09Z</time>
      </trkpt>
      <trkpt lat="43.86118" lon="7.27175">
        <ele>1293</ele>
        <time>2013-03-10T12:47:12Z</time>
      </trkpt>
      <trkpt lat="43.86129" lon="7.27169">
        <ele>1293</ele>
        <time>2013-03-10T12:47:19Z</time>
      </trkpt>
      <trkpt lat="43.86131" lon="7.27169">
        <ele>1293</ele>
        <time>2013-03-10T12:47:20Z</time>
      </trkpt>
      <trkpt lat="43.86133" lon="7.27169">
        <ele>1294</ele>
        <time>2013-03-10T12:47:21Z</time>
      </trkpt>
      <trkpt lat="43.86135" lon="7.27169">
        <ele>1294</ele>
        <time>2013-03-10T12:47:22Z</time>
      </trkpt>
      <trkpt lat="43.86136" lon="7.27169">
        <ele>1295</ele>
        <time>2013-03-10T12:47:23Z</time>
      </trkpt>
      <trkpt lat="43.86144" lon="7.27169">
        <ele>1295</ele>
        <time>2013-03-10T12:47:28Z</time>
      </trkpt>
      <trkpt lat="43.86146" lon="7.27169">
        <ele>1295</ele>
        <time>2013-03-10T12:47:29Z</time>
      </trkpt>
      <trkpt lat="43.86147" lon="7.27169">
        <ele>1296</ele>
        <time>2013-03-10T12:47:30Z</time>
      </trkpt>
      <trkpt lat="43.86149" lon="7.27169">
        <ele>1297</ele>
        <time>2013-03-10T12:47:31Z</time>
      </trkpt>
      <trkpt lat="43.86151" lon="7.27168">
        <ele>1297</ele>
        <time>2013-03-10T12:47:32Z</time>
      </trkpt>
      <trkpt lat="43.86153" lon="7.27168">
        <ele>1298</ele>
        <time>2013-03-10T12:47:33Z</time>
      </trkpt>
      <trkpt lat="43.86156" lon="7.27167">
        <ele>1298</ele>
        <time>2013-03-10T12:47:35Z</time>
      </trkpt>
      <trkpt lat="43.86168" lon="7.27162">
        <ele>1298</ele>
        <time>2013-03-10T12:47:42Z</time>
      </trkpt>
      <trkpt lat="43.8618" lon="7.27157">
        <ele>1298</ele>
        <time>2013-03-10T12:47:49Z</time>
      </trkpt>
      <trkpt lat="43.86182" lon="7.27157">
        <ele>1298</ele>
        <time>2013-03-10T12:47:50Z</time>
      </trkpt>
      <trkpt lat="43.86184" lon="7.27156">
        <ele>1299</ele>
        <time>2013-03-10T12:47:51Z</time>
      </trkpt>
      <trkpt lat="43.86185" lon="7.27155">
        <ele>1299</ele>
        <time>2013-03-10T12:47:52Z</time>
      </trkpt>
      <trkpt lat="43.86187" lon="7.27155">
        <ele>1300</ele>
        <time>2013-03-10T12:47:53Z</time>
      </trkpt>
      <trkpt lat="43.86188" lon="7.27155">
        <ele>1300</ele>
        <time>2013-03-10T12:47:54Z</time>
      </trkpt>
      <trkpt lat="43.8619" lon="7.27154">
        <ele>1300</ele>
        <time>2013-03-10T12:47:55Z</time>
      </trkpt>
      <trkpt lat="43.862" lon="7.27148">
        <ele>1300</ele>
        <time>2013-03-10T12:48:02Z</time>
      </trkpt>
      <trkpt lat="43.86203" lon="7.27147">
        <ele>1300</ele>
        <time>2013-03-10T12:48:04Z</time>
      </trkpt>
      <trkpt lat="43.86203" lon="7.27146">
        <ele>1300</ele>
        <time>2013-03-10T12:48:05Z</time>
      </trkpt>
      <trkpt lat="43.86204" lon="7.27145">
        <ele>1301</ele>
        <time>2013-03-10T12:48:06Z</time>
      </trkpt>
      <trkpt lat="43.86204" lon="7.27144">
        <ele>1301</ele>
        <time>2013-03-10T12:48:07Z</time>
      </trkpt>
      <trkpt lat="43.86205" lon="7.27144">
        <ele>1302</ele>
        <time>2013-03-10T12:48:08Z</time>
      </trkpt>
      <trkpt lat="43.86206" lon="7.27145">
        <ele>1302</ele>
        <time>2013-03-10T12:48:09Z</time>
      </trkpt>
      <trkpt lat="43.86208" lon="7.27144">
        <ele>1302</ele>
        <time>2013-03-10T12:48:12Z</time>
      </trkpt>
      <trkpt lat="43.8621" lon="7.27144">
        <ele>1302</ele>
        <time>2013-03-10T12:48:15Z</time>
      </trkpt>
      <trkpt lat="43.86212" lon="7.27142">
        <ele>1302</ele>
        <time>2013-03-10T12:48:23Z</time>
      </trkpt>
      <trkpt lat="43.86214" lon="7.27141">
        <ele>1302</ele>
        <time>2013-03-10T12:48:24Z</time>
      </trkpt>
      <trkpt lat="43.86224" lon="7.27138">
        <ele>1302</ele>
        <time>2013-03-10T12:48:30Z</time>
      </trkpt>
      <trkpt lat="43.86226" lon="7.27137">
        <ele>1303</ele>
        <time>2013-03-10T12:48:31Z</time>
      </trkpt>
      <trkpt lat="43.86227" lon="7.27136">
        <ele>1303</ele>
        <time>2013-03-10T12:48:32Z</time>
      </trkpt>
      <trkpt lat="43.86228" lon="7.27135">
        <ele>1303</ele>
        <time>2013-03-10T12:48:33Z</time>
      </trkpt>
      <trkpt lat="43.8623" lon="7.27134">
        <ele>1304</ele>
        <time>2013-03-10T12:48:34Z</time>
      </trkpt>
      <trkpt lat="43.86231" lon="7.27134">
        <ele>1304</ele>
        <time>2013-03-10T12:48:35Z</time>
      </trkpt>
      <trkpt lat="43.86236" lon="7.27131">
        <ele>1304</ele>
        <time>2013-03-10T12:48:38Z</time>
      </trkpt>
      <trkpt lat="43.86245" lon="7.27125">
        <ele>1305</ele>
        <time>2013-03-10T12:48:44Z</time>
      </trkpt>
      <trkpt lat="43.86246" lon="7.27125">
        <ele>1305</ele>
        <time>2013-03-10T12:48:45Z</time>
      </trkpt>
      <trkpt lat="43.86248" lon="7.27124">
        <ele>1305</ele>
        <time>2013-03-10T12:48:46Z</time>
      </trkpt>
      <trkpt lat="43.86249" lon="7.27124">
        <ele>1306</ele>
        <time>2013-03-10T12:48:47Z</time>
      </trkpt>
      <trkpt lat="43.86251" lon="7.27124">
        <ele>1306</ele>
        <time>2013-03-10T12:48:48Z</time>
      </trkpt>
      <trkpt lat="43.86257" lon="7.27122">
        <ele>1306</ele>
        <time>2013-03-10T12:48:52Z</time>
      </trkpt>
      <trkpt lat="43.86264" lon="7.2712">
        <ele>1307</ele>
        <time>2013-03-10T12:48:56Z</time>
      </trkpt>
      <trkpt lat="43.86266" lon="7.2712">
        <ele>1307</ele>
        <time>2013-03-10T12:48:57Z</time>
      </trkpt>
      <trkpt lat="43.86267" lon="7.2712">
        <ele>1307</ele>
        <time>2013-03-10T12:48:58Z</time>
      </trkpt>
      <trkpt lat="43.86269" lon="7.2712">
        <ele>1308</ele>
        <time>2013-03-10T12:48:59Z</time>
      </trkpt>
      <trkpt lat="43.86271" lon="7.2712">
        <ele>1308</ele>
        <time>2013-03-10T12:49:00Z</time>
      </trkpt>
      <trkpt lat="43.86279" lon="7.27118">
        <ele>1308</ele>
        <time>2013-03-10T12:49:06Z</time>
      </trkpt>
      <trkpt lat="43.86281" lon="7.27118">
        <ele>1309</ele>
        <time>2013-03-10T12:49:07Z</time>
      </trkpt>
      <trkpt lat="43.86283" lon="7.27118">
        <ele>1309</ele>
        <time>2013-03-10T12:49:08Z</time>
      </trkpt>
      <trkpt lat="43.86286" lon="7.27118">
        <ele>1309</ele>
        <time>2013-03-10T12:49:09Z</time>
      </trkpt>
      <trkpt lat="43.86289" lon="7.27118">
        <ele>1310</ele>
        <time>2013-03-10T12:49:10Z</time>
      </trkpt>
      <trkpt lat="43.86292" lon="7.27118">
        <ele>1310</ele>
        <time>2013-03-10T12:49:11Z</time>
      </trkpt>
      <trkpt lat="43.86302" lon="7.27117">
        <ele>1311</ele>
        <time>2013-03-10T12:49:15Z</time>
      </trkpt>
      <trkpt lat="43.86304" lon="7.27118">
        <ele>1311</ele>
        <time>2013-03-10T12:49:16Z</time>
      </trkpt>
      <trkpt lat="43.86307" lon="7.27118">
        <ele>1312</ele>
        <time>2013-03-10T12:49:17Z</time>
      </trkpt>
      <trkpt lat="43.86309" lon="7.27119">
        <ele>1312</ele>
        <time>2013-03-10T12:49:18Z</time>
      </trkpt>
      <trkpt lat="43.86311" lon="7.27119">
        <ele>1312</ele>
        <time>2013-03-10T12:49:19Z</time>
      </trkpt>
      <trkpt lat="43.86316" lon="7.2712">
        <ele>1312</ele>
        <time>2013-03-10T12:49:22Z</time>
      </trkpt>
      <trkpt lat="43.8632" lon="7.2712">
        <ele>1313</ele>
        <time>2013-03-10T12:49:26Z</time>
      </trkpt>
      <trkpt lat="43.86321" lon="7.2712">
        <ele>1313</ele>
        <time>2013-03-10T12:49:27Z</time>
      </trkpt>
      <trkpt lat="43.86322" lon="7.2712">
        <ele>1314</ele>
        <time>2013-03-10T12:49:28Z</time>
      </trkpt>
      <trkpt lat="43.86324" lon="7.27119">
        <ele>1314</ele>
        <time>2013-03-10T12:49:29Z</time>
      </trkpt>
      <trkpt lat="43.86329" lon="7.27119">
        <ele>1314</ele>
        <time>2013-03-10T12:49:33Z</time>
      </trkpt>
      <trkpt lat="43.86331" lon="7.2712">
        <ele>1314</ele>
        <time>2013-03-10T12:49:35Z</time>
      </trkpt>
      <trkpt lat="43.86333" lon="7.2712">
        <ele>1314</ele>
        <time>2013-03-10T12:49:37Z</time>
      </trkpt>
      <trkpt lat="43.86337" lon="7.2712">
        <ele>1315</ele>
        <time>2013-03-10T12:49:40Z</time>
      </trkpt>
      <trkpt lat="43.86338" lon="7.2712">
        <ele>1315</ele>
        <time>2013-03-10T12:49:41Z</time>
      </trkpt>
      <trkpt lat="43.86339" lon="7.27119">
        <ele>1316</ele>
        <time>2013-03-10T12:49:42Z</time>
      </trkpt>
      <trkpt lat="43.8634" lon="7.27119">
        <ele>1316</ele>
        <time>2013-03-10T12:49:43Z</time>
      </trkpt>
      <trkpt lat="43.86342" lon="7.2712">
        <ele>1316</ele>
        <time>2013-03-10T12:49:44Z</time>
      </trkpt>
      <trkpt lat="43.86344" lon="7.27119">
        <ele>1316</ele>
        <time>2013-03-10T12:49:46Z</time>
      </trkpt>
      <trkpt lat="43.86347" lon="7.27119">
        <ele>1316</ele>
        <time>2013-03-10T12:49:48Z</time>
      </trkpt>
      <trkpt lat="43.86355" lon="7.27122">
        <ele>1317</ele>
        <time>2013-03-10T12:49:54Z</time>
      </trkpt>
      <trkpt lat="43.86356" lon="7.27123">
        <ele>1317</ele>
        <time>2013-03-10T12:49:55Z</time>
      </trkpt>
      <trkpt lat="43.86357" lon="7.27123">
        <ele>1318</ele>
        <time>2013-03-10T12:49:56Z</time>
      </trkpt>
      <trkpt lat="43.86358" lon="7.27124">
        <ele>1318</ele>
        <time>2013-03-10T12:49:57Z</time>
      </trkpt>
      <trkpt lat="43.86359" lon="7.27125">
        <ele>1319</ele>
        <time>2013-03-10T12:49:58Z</time>
      </trkpt>
      <trkpt lat="43.86364" lon="7.27128">
        <ele>1319</ele>
        <time>2013-03-10T12:50:02Z</time>
      </trkpt>
      <trkpt lat="43.86366" lon="7.2713">
        <ele>1319</ele>
        <time>2013-03-10T12:50:04Z</time>
      </trkpt>
      <trkpt lat="43.86371" lon="7.27134">
        <ele>1319</ele>
        <time>2013-03-10T12:50:08Z</time>
      </trkpt>
      <trkpt lat="43.86373" lon="7.27136">
        <ele>1319</ele>
        <time>2013-03-10T12:50:10Z</time>
      </trkpt>
      <trkpt lat="43.86374" lon="7.27136">
        <ele>1319</ele>
        <time>2013-03-10T12:50:11Z</time>
      </trkpt>
      <trkpt lat="43.86376" lon="7.27137">
        <ele>1320</ele>
        <time>2013-03-10T12:50:12Z</time>
      </trkpt>
      <trkpt lat="43.86377" lon="7.27137">
        <ele>1320</ele>
        <time>2013-03-10T12:50:13Z</time>
      </trkpt>
      <trkpt lat="43.86378" lon="7.27138">
        <ele>1321</ele>
        <time>2013-03-10T12:50:14Z</time>
      </trkpt>
      <trkpt lat="43.8638" lon="7.27139">
        <ele>1321</ele>
        <time>2013-03-10T12:50:15Z</time>
      </trkpt>
      <trkpt lat="43.86392" lon="7.27145">
        <ele>1321</ele>
        <time>2013-03-10T12:50:23Z</time>
      </trkpt>
      <trkpt lat="43.86393" lon="7.27146">
        <ele>1322</ele>
        <time>2013-03-10T12:50:24Z</time>
      </trkpt>
      <trkpt lat="43.86395" lon="7.27146">
        <ele>1322</ele>
        <time>2013-03-10T12:50:25Z</time>
      </trkpt>
      <trkpt lat="43.86397" lon="7.27147">
        <ele>1322</ele>
        <time>2013-03-10T12:50:26Z</time>
      </trkpt>
      <trkpt lat="43.86398" lon="7.27147">
        <ele>1323</ele>
        <time>2013-03-10T12:50:27Z</time>
      </trkpt>
      <trkpt lat="43.86406" lon="7.27147">
        <ele>1323</ele>
        <time>2013-03-10T12:50:32Z</time>
      </trkpt>
      <trkpt lat="43.86414" lon="7.27145">
        <ele>1323</ele>
        <time>2013-03-10T12:50:38Z</time>
      </trkpt>
      <trkpt lat="43.86415" lon="7.27145">
        <ele>1324</ele>
        <time>2013-03-10T12:50:39Z</time>
      </trkpt>
      <trkpt lat="43.86417" lon="7.27144">
        <ele>1324</ele>
        <time>2013-03-10T12:50:40Z</time>
      </trkpt>
      <trkpt lat="43.86418" lon="7.27144">
        <ele>1325</ele>
        <time>2013-03-10T12:50:41Z</time>
      </trkpt>
      <trkpt lat="43.86419" lon="7.27144">
        <ele>1325</ele>
        <time>2013-03-10T12:50:42Z</time>
      </trkpt>
      <trkpt lat="43.86423" lon="7.27143">
        <ele>1325</ele>
        <time>2013-03-10T12:50:45Z</time>
      </trkpt>
      <trkpt lat="43.86426" lon="7.27143">
        <ele>1325</ele>
        <time>2013-03-10T12:50:48Z</time>
      </trkpt>
      <trkpt lat="43.86429" lon="7.27142">
        <ele>1325</ele>
        <time>2013-03-10T12:50:50Z</time>
      </trkpt>
      <trkpt lat="43.8643" lon="7.27142">
        <ele>1326</ele>
        <time>2013-03-10T12:50:51Z</time>
      </trkpt>
      <trkpt lat="43.86431" lon="7.27142">
        <ele>1326</ele>
        <time>2013-03-10T12:50:52Z</time>
      </trkpt>
      <trkpt lat="43.86433" lon="7.27141">
        <ele>1327</ele>
        <time>2013-03-10T12:50:53Z</time>
      </trkpt>
      <trkpt lat="43.86434" lon="7.27142">
        <ele>1327</ele>
        <time>2013-03-10T12:50:54Z</time>
      </trkpt>
      <trkpt lat="43.86439" lon="7.27143">
        <ele>1327</ele>
        <time>2013-03-10T12:50:57Z</time>
      </trkpt>
      <trkpt lat="43.86445" lon="7.27143">
        <ele>1327</ele>
        <time>2013-03-10T12:51:02Z</time>
      </trkpt>
      <trkpt lat="43.86447" lon="7.27143">
        <ele>1328</ele>
        <time>2013-03-10T12:51:03Z</time>
      </trkpt>
      <trkpt lat="43.86448" lon="7.27143">
        <ele>1328</ele>
        <time>2013-03-10T12:51:04Z</time>
      </trkpt>
      <trkpt lat="43.8645" lon="7.27144">
        <ele>1329</ele>
        <time>2013-03-10T12:51:05Z</time>
      </trkpt>
      <trkpt lat="43.86451" lon="7.27144">
        <ele>1329</ele>
        <time>2013-03-10T12:51:06Z</time>
      </trkpt>
      <trkpt lat="43.86458" lon="7.27142">
        <ele>1329</ele>
        <time>2013-03-10T12:51:11Z</time>
      </trkpt>
      <trkpt lat="43.86462" lon="7.27142">
        <ele>1330</ele>
        <time>2013-03-10T12:51:14Z</time>
      </trkpt>
      <trkpt lat="43.86464" lon="7.27142">
        <ele>1330</ele>
        <time>2013-03-10T12:51:15Z</time>
      </trkpt>
      <trkpt lat="43.86465" lon="7.27143">
        <ele>1330</ele>
        <time>2013-03-10T12:51:16Z</time>
      </trkpt>
      <trkpt lat="43.86467" lon="7.27143">
        <ele>1331</ele>
        <time>2013-03-10T12:51:17Z</time>
      </trkpt>
      <trkpt lat="43.86469" lon="7.27143">
        <ele>1331</ele>
        <time>2013-03-10T12:51:18Z</time>
      </trkpt>
      <trkpt lat="43.86474" lon="7.27143">
        <ele>1331</ele>
        <time>2013-03-10T12:51:22Z</time>
      </trkpt>
      <trkpt lat="43.86476" lon="7.27143">
        <ele>1331</ele>
        <time>2013-03-10T12:51:24Z</time>
      </trkpt>
      <trkpt lat="43.86485" lon="7.27145">
        <ele>1332</ele>
        <time>2013-03-10T12:51:29Z</time>
      </trkpt>
      <trkpt lat="43.86486" lon="7.27146">
        <ele>1332</ele>
        <time>2013-03-10T12:51:30Z</time>
      </trkpt>
      <trkpt lat="43.86488" lon="7.27146">
        <ele>1333</ele>
        <time>2013-03-10T12:51:31Z</time>
      </trkpt>
      <trkpt lat="43.86489" lon="7.27146">
        <ele>1333</ele>
        <time>2013-03-10T12:51:32Z</time>
      </trkpt>
      <trkpt lat="43.86491" lon="7.27147">
        <ele>1333</ele>
        <time>2013-03-10T12:51:33Z</time>
      </trkpt>
      <trkpt lat="43.86497" lon="7.27147">
        <ele>1333</ele>
        <time>2013-03-10T12:51:37Z</time>
      </trkpt>
      <trkpt lat="43.86499" lon="7.27148">
        <ele>1333</ele>
        <time>2013-03-10T12:51:39Z</time>
      </trkpt>
      <trkpt lat="43.86501" lon="7.27148">
        <ele>1334</ele>
        <time>2013-03-10T12:51:40Z</time>
      </trkpt>
      <trkpt lat="43.86502" lon="7.27148">
        <ele>1334</ele>
        <time>2013-03-10T12:51:41Z</time>
      </trkpt>
      <trkpt lat="43.86504" lon="7.27147">
        <ele>1335</ele>
        <time>2013-03-10T12:51:42Z</time>
      </trkpt>
      <trkpt lat="43.86505" lon="7.27147">
        <ele>1335</ele>
        <time>2013-03-10T12:51:43Z</time>
      </trkpt>
      <trkpt lat="43.86506" lon="7.27147">
        <ele>1335</ele>
        <time>2013-03-10T12:51:44Z</time>
      </trkpt>
      <trkpt lat="43.86509" lon="7.27146">
        <ele>1335</ele>
        <time>2013-03-10T12:51:46Z</time>
      </trkpt>
      <trkpt lat="43.86517" lon="7.27144">
        <ele>1335</ele>
        <time>2013-03-10T12:51:54Z</time>
      </trkpt>
      <trkpt lat="43.8652" lon="7.27144">
        <ele>1336</ele>
        <time>2013-03-10T12:51:56Z</time>
      </trkpt>
      <trkpt lat="43.86521" lon="7.27144">
        <ele>1336</ele>
        <time>2013-03-10T12:51:57Z</time>
      </trkpt>
      <trkpt lat="43.86523" lon="7.27144">
        <ele>1337</ele>
        <time>2013-03-10T12:51:58Z</time>
      </trkpt>
      <trkpt lat="43.86524" lon="7.27143">
        <ele>1337</ele>
        <time>2013-03-10T12:51:59Z</time>
      </trkpt>
      <trkpt lat="43.86525" lon="7.27142">
        <ele>1338</ele>
        <time>2013-03-10T12:52:00Z</time>
      </trkpt>
      <trkpt lat="43.8653" lon="7.27142">
        <ele>1338</ele>
        <time>2013-03-10T12:52:04Z</time>
      </trkpt>
      <trkpt lat="43.86537" lon="7.2714">
        <ele>1338</ele>
        <time>2013-03-10T12:52:09Z</time>
      </trkpt>
      <trkpt lat="43.86538" lon="7.2714">
        <ele>1338</ele>
        <time>2013-03-10T12:52:10Z</time>
      </trkpt>
      <trkpt lat="43.86539" lon="7.27139">
        <ele>1339</ele>
        <time>2013-03-10T12:52:11Z</time>
      </trkpt>
      <trkpt lat="43.8654" lon="7.27139">
        <ele>1339</ele>
        <time>2013-03-10T12:52:12Z</time>
      </trkpt>
      <trkpt lat="43.86542" lon="7.27138">
        <ele>1340</ele>
        <time>2013-03-10T12:52:13Z</time>
      </trkpt>
      <trkpt lat="43.86548" lon="7.27136">
        <ele>1340</ele>
        <time>2013-03-10T12:52:18Z</time>
      </trkpt>
      <trkpt lat="43.86553" lon="7.27137">
        <ele>1341</ele>
        <time>2013-03-10T12:52:21Z</time>
      </trkpt>
      <trkpt lat="43.86555" lon="7.27138">
        <ele>1341</ele>
        <time>2013-03-10T12:52:22Z</time>
      </trkpt>
      <trkpt lat="43.86556" lon="7.27138">
        <ele>1341</ele>
        <time>2013-03-10T12:52:23Z</time>
      </trkpt>
      <trkpt lat="43.86558" lon="7.27138">
        <ele>1342</ele>
        <time>2013-03-10T12:52:24Z</time>
      </trkpt>
      <trkpt lat="43.8656" lon="7.27138">
        <ele>1342</ele>
        <time>2013-03-10T12:52:25Z</time>
      </trkpt>
      <trkpt lat="43.8657" lon="7.2714">
        <ele>1342</ele>
        <time>2013-03-10T12:52:32Z</time>
      </trkpt>
      <trkpt lat="43.86572" lon="7.2714">
        <ele>1342</ele>
        <time>2013-03-10T12:52:33Z</time>
      </trkpt>
      <trkpt lat="43.86572" lon="7.27139">
        <ele>1343</ele>
        <time>2013-03-10T12:52:34Z</time>
      </trkpt>
      <trkpt lat="43.86574" lon="7.27139">
        <ele>1343</ele>
        <time>2013-03-10T12:52:35Z</time>
      </trkpt>
      <trkpt lat="43.86575" lon="7.27139">
        <ele>1344</ele>
        <time>2013-03-10T12:52:36Z</time>
      </trkpt>
      <trkpt lat="43.86577" lon="7.27139">
        <ele>1344</ele>
        <time>2013-03-10T12:52:37Z</time>
      </trkpt>
      <trkpt lat="43.86579" lon="7.27139">
        <ele>1344</ele>
        <time>2013-03-10T12:52:38Z</time>
      </trkpt>
      <trkpt lat="43.8659" lon="7.27139">
        <ele>1345</ele>
        <time>2013-03-10T12:52:45Z</time>
      </trkpt>
      <trkpt lat="43.86591" lon="7.27139">
        <ele>1345</ele>
        <time>2013-03-10T12:52:46Z</time>
      </trkpt>
      <trkpt lat="43.86593" lon="7.27138">
        <ele>1346</ele>
        <time>2013-03-10T12:52:47Z</time>
      </trkpt>
      <trkpt lat="43.86594" lon="7.27137">
        <ele>1346</ele>
        <time>2013-03-10T12:52:48Z</time>
      </trkpt>
      <trkpt lat="43.86599" lon="7.27136">
        <ele>1346</ele>
        <time>2013-03-10T12:52:51Z</time>
      </trkpt>
      <trkpt lat="43.86605" lon="7.27134">
        <ele>1346</ele>
        <time>2013-03-10T12:52:55Z</time>
      </trkpt>
      <trkpt lat="43.86606" lon="7.27133">
        <ele>1347</ele>
        <time>2013-03-10T12:52:56Z</time>
      </trkpt>
      <trkpt lat="43.86607" lon="7.27133">
        <ele>1347</ele>
        <time>2013-03-10T12:52:57Z</time>
      </trkpt>
      <trkpt lat="43.86608" lon="7.27133">
        <ele>1348</ele>
        <time>2013-03-10T12:52:58Z</time>
      </trkpt>
      <trkpt lat="43.86609" lon="7.27132">
        <ele>1348</ele>
        <time>2013-03-10T12:52:59Z</time>
      </trkpt>
      <trkpt lat="43.86614" lon="7.27132">
        <ele>1348</ele>
        <time>2013-03-10T12:53:03Z</time>
      </trkpt>
      <trkpt lat="43.8662" lon="7.27132">
        <ele>1348</ele>
        <time>2013-03-10T12:53:07Z</time>
      </trkpt>
      <trkpt lat="43.86621" lon="7.27132">
        <ele>1349</ele>
        <time>2013-03-10T12:53:08Z</time>
      </trkpt>
      <trkpt lat="43.86623" lon="7.27132">
        <ele>1349</ele>
        <time>2013-03-10T12:53:09Z</time>
      </trkpt>
      <trkpt lat="43.86625" lon="7.27132">
        <ele>1350</ele>
        <time>2013-03-10T12:53:10Z</time>
      </trkpt>
      <trkpt lat="43.86626" lon="7.27132">
        <ele>1350</ele>
        <time>2013-03-10T12:53:11Z</time>
      </trkpt>
      <trkpt lat="43.86631" lon="7.27131">
        <ele>1350</ele>
        <time>2013-03-10T12:53:14Z</time>
      </trkpt>
      <trkpt lat="43.86632" lon="7.27129">
        <ele>1350</ele>
        <time>2013-03-10T12:53:17Z</time>
      </trkpt>
      <trkpt lat="43.86637" lon="7.27129">
        <ele>1351</ele>
        <time>2013-03-10T12:53:22Z</time>
      </trkpt>
      <trkpt lat="43.86639" lon="7.27128">
        <ele>1351</ele>
        <time>2013-03-10T12:53:23Z</time>
      </trkpt>
      <trkpt lat="43.86641" lon="7.27128">
        <ele>1351</ele>
        <time>2013-03-10T12:53:24Z</time>
      </trkpt>
      <trkpt lat="43.86642" lon="7.27127">
        <ele>1352</ele>
        <time>2013-03-10T12:53:25Z</time>
      </trkpt>
      <trkpt lat="43.86644" lon="7.27127">
        <ele>1352</ele>
        <time>2013-03-10T12:53:26Z</time>
      </trkpt>
      <trkpt lat="43.8665" lon="7.27129">
        <ele>1352</ele>
        <time>2013-03-10T12:53:31Z</time>
      </trkpt>
      <trkpt lat="43.86655" lon="7.2713">
        <ele>1353</ele>
        <time>2013-03-10T12:53:34Z</time>
      </trkpt>
      <trkpt lat="43.86656" lon="7.2713">
        <ele>1353</ele>
        <time>2013-03-10T12:53:35Z</time>
      </trkpt>
      <trkpt lat="43.86658" lon="7.27129">
        <ele>1353</ele>
        <time>2013-03-10T12:53:36Z</time>
      </trkpt>
      <trkpt lat="43.8666" lon="7.27128">
        <ele>1354</ele>
        <time>2013-03-10T12:53:37Z</time>
      </trkpt>
      <trkpt lat="43.86661" lon="7.27128">
        <ele>1354</ele>
        <time>2013-03-10T12:53:38Z</time>
      </trkpt>
      <trkpt lat="43.86662" lon="7.27128">
        <ele>1354</ele>
        <time>2013-03-10T12:53:39Z</time>
      </trkpt>
      <trkpt lat="43.8667" lon="7.27128">
        <ele>1354</ele>
        <time>2013-03-10T12:53:44Z</time>
      </trkpt>
      <trkpt lat="43.86674" lon="7.27129">
        <ele>1355</ele>
        <time>2013-03-10T12:53:47Z</time>
      </trkpt>
      <trkpt lat="43.86676" lon="7.27129">
        <ele>1355</ele>
        <time>2013-03-10T12:53:48Z</time>
      </trkpt>
      <trkpt lat="43.86677" lon="7.27129">
        <ele>1355</ele>
        <time>2013-03-10T12:53:49Z</time>
      </trkpt>
      <trkpt lat="43.86678" lon="7.27128">
        <ele>1356</ele>
        <time>2013-03-10T12:53:50Z</time>
      </trkpt>
      <trkpt lat="43.86679" lon="7.27128">
        <ele>1356</ele>
        <time>2013-03-10T12:53:51Z</time>
      </trkpt>
      <trkpt lat="43.86689" lon="7.27127">
        <ele>1356</ele>
        <time>2013-03-10T12:53:58Z</time>
      </trkpt>
      <trkpt lat="43.86692" lon="7.27127">
        <ele>1357</ele>
        <time>2013-03-10T12:54:00Z</time>
      </trkpt>
      <trkpt lat="43.86693" lon="7.27127">
        <ele>1357</ele>
        <time>2013-03-10T12:54:01Z</time>
      </trkpt>
      <trkpt lat="43.86695" lon="7.27127">
        <ele>1358</ele>
        <time>2013-03-10T12:54:02Z</time>
      </trkpt>
      <trkpt lat="43.86697" lon="7.27128">
        <ele>1358</ele>
        <time>2013-03-10T12:54:03Z</time>
      </trkpt>
      <trkpt lat="43.86699" lon="7.27128">
        <ele>1358</ele>
        <time>2013-03-10T12:54:04Z</time>
      </trkpt>
      <trkpt lat="43.86702" lon="7.27128">
        <ele>1358</ele>
        <time>2013-03-10T12:54:06Z</time>
      </trkpt>
      <trkpt lat="43.86709" lon="7.27129">
        <ele>1359</ele>
        <time>2013-03-10T12:54:11Z</time>
      </trkpt>
      <trkpt lat="43.8671" lon="7.27129">
        <ele>1359</ele>
        <time>2013-03-10T12:54:12Z</time>
      </trkpt>
      <trkpt lat="43.86712" lon="7.27129">
        <ele>1360</ele>
        <time>2013-03-10T12:54:13Z</time>
      </trkpt>
      <trkpt lat="43.86713" lon="7.27129">
        <ele>1360</ele>
        <time>2013-03-10T12:54:14Z</time>
      </trkpt>
      <trkpt lat="43.86715" lon="7.27129">
        <ele>1360</ele>
        <time>2013-03-10T12:54:15Z</time>
      </trkpt>
      <trkpt lat="43.86723" lon="7.27128">
        <ele>1360</ele>
        <time>2013-03-10T12:54:20Z</time>
      </trkpt>
      <trkpt lat="43.86726" lon="7.27128">
        <ele>1361</ele>
        <time>2013-03-10T12:54:22Z</time>
      </trkpt>
      <trkpt lat="43.86728" lon="7.27128">
        <ele>1361</ele>
        <time>2013-03-10T12:54:23Z</time>
      </trkpt>
      <trkpt lat="43.86729" lon="7.27128">
        <ele>1362</ele>
        <time>2013-03-10T12:54:24Z</time>
      </trkpt>
      <trkpt lat="43.8673" lon="7.27127">
        <ele>1363</ele>
        <time>2013-03-10T12:54:25Z</time>
      </trkpt>
      <trkpt lat="43.86734" lon="7.27126">
        <ele>1363</ele>
        <time>2013-03-10T12:54:27Z</time>
      </trkpt>
      <trkpt lat="43.86742" lon="7.27123">
        <ele>1363</ele>
        <time>2013-03-10T12:54:32Z</time>
      </trkpt>
      <trkpt lat="43.86743" lon="7.27122">
        <ele>1363</ele>
        <time>2013-03-10T12:54:33Z</time>
      </trkpt>
      <trkpt lat="43.86745" lon="7.27123">
        <ele>1364</ele>
        <time>2013-03-10T12:54:34Z</time>
      </trkpt>
      <trkpt lat="43.86747" lon="7.27123">
        <ele>1364</ele>
        <time>2013-03-10T12:54:35Z</time>
      </trkpt>
      <trkpt lat="43.86748" lon="7.27122">
        <ele>1365</ele>
        <time>2013-03-10T12:54:36Z</time>
      </trkpt>
      <trkpt lat="43.86756" lon="7.2712">
        <ele>1365</ele>
        <time>2013-03-10T12:54:41Z</time>
      </trkpt>
      <trkpt lat="43.86757" lon="7.2712">
        <ele>1365</ele>
        <time>2013-03-10T12:54:42Z</time>
      </trkpt>
      <trkpt lat="43.86765" lon="7.27119">
        <ele>1365</ele>
        <time>2013-03-10T12:54:47Z</time>
      </trkpt>
      <trkpt lat="43.86766" lon="7.27119">
        <ele>1365</ele>
        <time>2013-03-10T12:54:48Z</time>
      </trkpt>
      <trkpt lat="43.86768" lon="7.2712">
        <ele>1366</ele>
        <time>2013-03-10T12:54:49Z</time>
      </trkpt>
      <trkpt lat="43.86769" lon="7.27121">
        <ele>1367</ele>
        <time>2013-03-10T12:54:50Z</time>
      </trkpt>
      <trkpt lat="43.86774" lon="7.27123">
        <ele>1367</ele>
        <time>2013-03-10T12:54:53Z</time>
      </trkpt>
      <trkpt lat="43.86784" lon="7.27129">
        <ele>1367</ele>
        <time>2013-03-10T12:55:00Z</time>
      </trkpt>
      <trkpt lat="43.86795" lon="7.27134">
        <ele>1367</ele>
        <time>2013-03-10T12:55:07Z</time>
      </trkpt>
      <trkpt lat="43.86796" lon="7.27135">
        <ele>1367</ele>
        <time>2013-03-10T12:55:08Z</time>
      </trkpt>
      <trkpt lat="43.86798" lon="7.27136">
        <ele>1367</ele>
        <time>2013-03-10T12:55:09Z</time>
      </trkpt>
      <trkpt lat="43.868" lon="7.27137">
        <ele>1368</ele>
        <time>2013-03-10T12:55:10Z</time>
      </trkpt>
      <trkpt lat="43.86801" lon="7.27139">
        <ele>1368</ele>
        <time>2013-03-10T12:55:11Z</time>
      </trkpt>
      <trkpt lat="43.86802" lon="7.27139">
        <ele>1369</ele>
        <time>2013-03-10T12:55:12Z</time>
      </trkpt>
      <trkpt lat="43.86804" lon="7.2714">
        <ele>1369</ele>
        <time>2013-03-10T12:55:13Z</time>
      </trkpt>
      <trkpt lat="43.86812" lon="7.27148">
        <ele>1369</ele>
        <time>2013-03-10T12:55:20Z</time>
      </trkpt>
      <trkpt lat="43.86822" lon="7.27156">
        <ele>1369</ele>
        <time>2013-03-10T12:55:27Z</time>
      </trkpt>
      <trkpt lat="43.86825" lon="7.27158">
        <ele>1369</ele>
        <time>2013-03-10T12:55:29Z</time>
      </trkpt>
      <trkpt lat="43.86826" lon="7.2716">
        <ele>1370</ele>
        <time>2013-03-10T12:55:30Z</time>
      </trkpt>
      <trkpt lat="43.86828" lon="7.27161">
        <ele>1370</ele>
        <time>2013-03-10T12:55:31Z</time>
      </trkpt>
      <trkpt lat="43.8683" lon="7.27161">
        <ele>1370</ele>
        <time>2013-03-10T12:55:32Z</time>
      </trkpt>
      <trkpt lat="43.86832" lon="7.27162">
        <ele>1371</ele>
        <time>2013-03-10T12:55:33Z</time>
      </trkpt>
      <trkpt lat="43.86842" lon="7.27165">
        <ele>1371</ele>
        <time>2013-03-10T12:55:39Z</time>
      </trkpt>
      <trkpt lat="43.86851" lon="7.27167">
        <ele>1371</ele>
        <time>2013-03-10T12:55:45Z</time>
      </trkpt>
      <trkpt lat="43.86853" lon="7.27168">
        <ele>1371</ele>
        <time>2013-03-10T12:55:46Z</time>
      </trkpt>
      <trkpt lat="43.86854" lon="7.27168">
        <ele>1372</ele>
        <time>2013-03-10T12:55:47Z</time>
      </trkpt>
      <trkpt lat="43.86856" lon="7.27168">
        <ele>1372</ele>
        <time>2013-03-10T12:55:48Z</time>
      </trkpt>
      <trkpt lat="43.86858" lon="7.27169">
        <ele>1372</ele>
        <time>2013-03-10T12:55:49Z</time>
      </trkpt>
      <trkpt lat="43.8686" lon="7.27169">
        <ele>1373</ele>
        <time>2013-03-10T12:55:50Z</time>
      </trkpt>
      <trkpt lat="43.8687" lon="7.27172">
        <ele>1373</ele>
        <time>2013-03-10T12:55:56Z</time>
      </trkpt>
      <trkpt lat="43.86881" lon="7.27172">
        <ele>1373</ele>
        <time>2013-03-10T12:56:02Z</time>
      </trkpt>
      <trkpt lat="43.86884" lon="7.27171">
        <ele>1373</ele>
        <time>2013-03-10T12:56:04Z</time>
      </trkpt>
      <trkpt lat="43.86886" lon="7.27171">
        <ele>1374</ele>
        <time>2013-03-10T12:56:05Z</time>
      </trkpt>
      <trkpt lat="43.86888" lon="7.27171">
        <ele>1374</ele>
        <time>2013-03-10T12:56:06Z</time>
      </trkpt>
      <trkpt lat="43.8689" lon="7.27172">
        <ele>1374</ele>
        <time>2013-03-10T12:56:07Z</time>
      </trkpt>
      <trkpt lat="43.86891" lon="7.27171">
        <ele>1375</ele>
        <time>2013-03-10T12:56:08Z</time>
      </trkpt>
      <trkpt lat="43.86892" lon="7.27171">
        <ele>1375</ele>
        <time>2013-03-10T12:56:09Z</time>
      </trkpt>
      <trkpt lat="43.869" lon="7.27172">
        <ele>1375</ele>
        <time>2013-03-10T12:56:13Z</time>
      </trkpt>
      <trkpt lat="43.86904" lon="7.27172">
        <ele>1375</ele>
        <time>2013-03-10T12:56:15Z</time>
      </trkpt>
      <trkpt lat="43.86915" lon="7.27173">
        <ele>1375</ele>
        <time>2013-03-10T12:56:21Z</time>
      </trkpt>
      <trkpt lat="43.86919" lon="7.27173">
        <ele>1375</ele>
        <time>2013-03-10T12:56:24Z</time>
      </trkpt>
      <trkpt lat="43.8692" lon="7.27173">
        <ele>1376</ele>
        <time>2013-03-10T12:56:25Z</time>
      </trkpt>
      <trkpt lat="43.86922" lon="7.27174">
        <ele>1376</ele>
        <time>2013-03-10T12:56:26Z</time>
      </trkpt>
      <trkpt lat="43.86923" lon="7.27174">
        <ele>1377</ele>
        <time>2013-03-10T12:56:27Z</time>
      </trkpt>
      <trkpt lat="43.86925" lon="7.27174">
        <ele>1377</ele>
        <time>2013-03-10T12:56:28Z</time>
      </trkpt>
      <trkpt lat="43.86934" lon="7.27176">
        <ele>1377</ele>
        <time>2013-03-10T12:56:33Z</time>
      </trkpt>
      <trkpt lat="43.86942" lon="7.27178">
        <ele>1377</ele>
        <time>2013-03-10T12:56:38Z</time>
      </trkpt>
      <trkpt lat="43.8695" lon="7.2718">
        <ele>1377</ele>
        <time>2013-03-10T12:56:42Z</time>
      </trkpt>
      <trkpt lat="43.86953" lon="7.27181">
        <ele>1378</ele>
        <time>2013-03-10T12:56:43Z</time>
      </trkpt>
      <trkpt lat="43.86954" lon="7.27182">
        <ele>1378</ele>
        <time>2013-03-10T12:56:44Z</time>
      </trkpt>
      <trkpt lat="43.86956" lon="7.27182">
        <ele>1379</ele>
        <time>2013-03-10T12:56:45Z</time>
      </trkpt>
      <trkpt lat="43.86957" lon="7.27183">
        <ele>1379</ele>
        <time>2013-03-10T12:56:46Z</time>
      </trkpt>
      <trkpt lat="43.86964" lon="7.27189">
        <ele>1379</ele>
        <time>2013-03-10T12:56:50Z</time>
      </trkpt>
      <trkpt lat="43.86974" lon="7.27194">
        <ele>1379</ele>
        <time>2013-03-10T12:56:56Z</time>
      </trkpt>
      <trkpt lat="43.86986" lon="7.27205">
        <ele>1379</ele>
        <time>2013-03-10T12:57:03Z</time>
      </trkpt>
      <trkpt lat="43.86998" lon="7.27217">
        <ele>1379</ele>
        <time>2013-03-10T12:57:10Z</time>
      </trkpt>
      <trkpt lat="43.87005" lon="7.27225">
        <ele>1379</ele>
        <time>2013-03-10T12:57:15Z</time>
      </trkpt>
      <trkpt lat="43.87012" lon="7.27235">
        <ele>1379</ele>
        <time>2013-03-10T12:57:21Z</time>
      </trkpt>
      <trkpt lat="43.87017" lon="7.27249">
        <ele>1379</ele>
        <time>2013-03-10T12:57:27Z</time>
      </trkpt>
      <trkpt lat="43.8702" lon="7.27254">
        <ele>1380</ele>
        <time>2013-03-10T12:57:30Z</time>
      </trkpt>
      <trkpt lat="43.87021" lon="7.27257">
        <ele>1380</ele>
        <time>2013-03-10T12:57:31Z</time>
      </trkpt>
      <trkpt lat="43.87022" lon="7.27259">
        <ele>1380</ele>
        <time>2013-03-10T12:57:32Z</time>
      </trkpt>
      <trkpt lat="43.87023" lon="7.27262">
        <ele>1381</ele>
        <time>2013-03-10T12:57:33Z</time>
      </trkpt>
      <trkpt lat="43.87024" lon="7.27264">
        <ele>1381</ele>
        <time>2013-03-10T12:57:34Z</time>
      </trkpt>
      <trkpt lat="43.87025" lon="7.27266">
        <ele>1381</ele>
        <time>2013-03-10T12:57:35Z</time>
      </trkpt>
      <trkpt lat="43.87025" lon="7.27284">
        <ele>1381</ele>
        <time>2013-03-10T12:57:42Z</time>
      </trkpt>
      <trkpt lat="43.87023" lon="7.27291">
        <ele>1381</ele>
        <time>2013-03-10T12:57:45Z</time>
      </trkpt>
      <trkpt lat="43.8702" lon="7.27292">
        <ele>1381</ele>
        <time>2013-03-10T12:57:47Z</time>
      </trkpt>
      <trkpt lat="43.87016" lon="7.27287">
        <ele>1381</ele>
        <time>2013-03-10T12:57:51Z</time>
      </trkpt>
      <trkpt lat="43.87015" lon="7.27286">
        <ele>1381</ele>
        <time>2013-03-10T12:57:52Z</time>
      </trkpt>
      <trkpt lat="43.87012" lon="7.27282">
        <ele>1382</ele>
        <time>2013-03-10T12:57:55Z</time>
      </trkpt>
      <trkpt lat="43.8701" lon="7.27282">
        <ele>1382</ele>
        <time>2013-03-10T12:57:56Z</time>
      </trkpt>
      <trkpt lat="43.87009" lon="7.27281">
        <ele>1382</ele>
        <time>2013-03-10T12:57:57Z</time>
      </trkpt>
      <trkpt lat="43.87008" lon="7.2728">
        <ele>1383</ele>
        <time>2013-03-10T12:57:58Z</time>
      </trkpt>
      <trkpt lat="43.87007" lon="7.27279">
        <ele>1383</ele>
        <time>2013-03-10T12:57:59Z</time>
      </trkpt>
      <trkpt lat="43.87" lon="7.27273">
        <ele>1383</ele>
        <time>2013-03-10T12:58:05Z</time>
      </trkpt>
      <trkpt lat="43.86996" lon="7.2727">
        <ele>1384</ele>
        <time>2013-03-10T12:58:08Z</time>
      </trkpt>
      <trkpt lat="43.86995" lon="7.27269">
        <ele>1384</ele>
        <time>2013-03-10T12:58:09Z</time>
      </trkpt>
      <trkpt lat="43.86994" lon="7.27268">
        <ele>1385</ele>
        <time>2013-03-10T12:58:10Z</time>
      </trkpt>
      <trkpt lat="43.86993" lon="7.27267">
        <ele>1385</ele>
        <time>2013-03-10T12:58:11Z</time>
      </trkpt>
      <trkpt lat="43.86992" lon="7.27265">
        <ele>1385</ele>
        <time>2013-03-10T12:58:12Z</time>
      </trkpt>
      <trkpt lat="43.86986" lon="7.27257">
        <ele>1385</ele>
        <time>2013-03-10T12:58:18Z</time>
      </trkpt>
      <trkpt lat="43.86981" lon="7.27255">
        <ele>1386</ele>
        <time>2013-03-10T12:58:22Z</time>
      </trkpt>
      <trkpt lat="43.86979" lon="7.27254">
        <ele>1386</ele>
        <time>2013-03-10T12:58:23Z</time>
      </trkpt>
      <trkpt lat="43.86978" lon="7.27252">
        <ele>1387</ele>
        <time>2013-03-10T12:58:24Z</time>
      </trkpt>
      <trkpt lat="43.86977" lon="7.2725">
        <ele>1387</ele>
        <time>2013-03-10T12:58:25Z</time>
      </trkpt>
      <trkpt lat="43.86976" lon="7.27249">
        <ele>1387</ele>
        <time>2013-03-10T12:58:26Z</time>
      </trkpt>
      <trkpt lat="43.86971" lon="7.27246">
        <ele>1387</ele>
        <time>2013-03-10T12:58:32Z</time>
      </trkpt>
      <trkpt lat="43.86968" lon="7.27243">
        <ele>1388</ele>
        <time>2013-03-10T12:58:35Z</time>
      </trkpt>
      <trkpt lat="43.86967" lon="7.27241">
        <ele>1388</ele>
        <time>2013-03-10T12:58:36Z</time>
      </trkpt>
      <trkpt lat="43.86966" lon="7.2724">
        <ele>1389</ele>
        <time>2013-03-10T12:58:37Z</time>
      </trkpt>
      <trkpt lat="43.86965" lon="7.27238">
        <ele>1389</ele>
        <time>2013-03-10T12:58:38Z</time>
      </trkpt>
      <trkpt lat="43.86964" lon="7.27237">
        <ele>1390</ele>
        <time>2013-03-10T12:58:39Z</time>
      </trkpt>
      <trkpt lat="43.86962" lon="7.27235">
        <ele>1390</ele>
        <time>2013-03-10T12:58:41Z</time>
      </trkpt>
      <trkpt lat="43.86956" lon="7.2723">
        <ele>1390</ele>
        <time>2013-03-10T12:58:47Z</time>
      </trkpt>
      <trkpt lat="43.86955" lon="7.27229">
        <ele>1390</ele>
        <time>2013-03-10T12:58:48Z</time>
      </trkpt>
      <trkpt lat="43.86954" lon="7.27228">
        <ele>1391</ele>
        <time>2013-03-10T12:58:49Z</time>
      </trkpt>
      <trkpt lat="43.86953" lon="7.27228">
        <ele>1391</ele>
        <time>2013-03-10T12:58:50Z</time>
      </trkpt>
      <trkpt lat="43.86952" lon="7.27227">
        <ele>1392</ele>
        <time>2013-03-10T12:58:51Z</time>
      </trkpt>
      <trkpt lat="43.86947" lon="7.27225">
        <ele>1392</ele>
        <time>2013-03-10T12:58:56Z</time>
      </trkpt>
      <trkpt lat="43.86946" lon="7.27224">
        <ele>1393</ele>
        <time>2013-03-10T12:58:57Z</time>
      </trkpt>
      <trkpt lat="43.86945" lon="7.27225">
        <ele>1393</ele>
        <time>2013-03-10T12:58:58Z</time>
      </trkpt>
      <trkpt lat="43.86943" lon="7.27225">
        <ele>1393</ele>
        <time>2013-03-10T12:58:59Z</time>
      </trkpt>
      <trkpt lat="43.86942" lon="7.27225">
        <ele>1394</ele>
        <time>2013-03-10T12:59:00Z</time>
      </trkpt>
      <trkpt lat="43.86938" lon="7.27227">
        <ele>1394</ele>
        <time>2013-03-10T12:59:03Z</time>
      </trkpt>
      <trkpt lat="43.86932" lon="7.27229">
        <ele>1394</ele>
        <time>2013-03-10T12:59:09Z</time>
      </trkpt>
      <trkpt lat="43.86932" lon="7.2723">
        <ele>1395</ele>
        <time>2013-03-10T12:59:10Z</time>
      </trkpt>
      <trkpt lat="43.8693" lon="7.2723">
        <ele>1395</ele>
        <time>2013-03-10T12:59:11Z</time>
      </trkpt>
      <trkpt lat="43.86929" lon="7.27231">
        <ele>1395</ele>
        <time>2013-03-10T12:59:12Z</time>
      </trkpt>
      <trkpt lat="43.86927" lon="7.27231">
        <ele>1396</ele>
        <time>2013-03-10T12:59:13Z</time>
      </trkpt>
      <trkpt lat="43.86925" lon="7.27232">
        <ele>1396</ele>
        <time>2013-03-10T12:59:16Z</time>
      </trkpt>
      <trkpt lat="43.86921" lon="7.27235">
        <ele>1396</ele>
        <time>2013-03-10T12:59:28Z</time>
      </trkpt>
      <trkpt lat="43.86913" lon="7.2724">
        <ele>1396</ele>
        <time>2013-03-10T12:59:34Z</time>
      </trkpt>
      <trkpt lat="43.86913" lon="7.2724">
        <ele>1397</ele>
        <time>2013-03-10T12:59:35Z</time>
      </trkpt>
      <trkpt lat="43.86907" lon="7.27241">
        <ele>1398</ele>
        <time>2013-03-10T12:59:43Z</time>
      </trkpt>
      <trkpt lat="43.869" lon="7.27241">
        <ele>1398</ele>
        <time>2013-03-10T12:59:47Z</time>
      </trkpt>
      <trkpt lat="43.86899" lon="7.27242">
        <ele>1398</ele>
        <time>2013-03-10T12:59:48Z</time>
      </trkpt>
      <trkpt lat="43.86897" lon="7.27242">
        <ele>1399</ele>
        <time>2013-03-10T12:59:49Z</time>
      </trkpt>
      <trkpt lat="43.86896" lon="7.27242">
        <ele>1399</ele>
        <time>2013-03-10T12:59:50Z</time>
      </trkpt>
      <trkpt lat="43.86894" lon="7.27243">
        <ele>1400</ele>
        <time>2013-03-10T12:59:51Z</time>
      </trkpt>
      <trkpt lat="43.86893" lon="7.27244">
        <ele>1400</ele>
        <time>2013-03-10T12:59:52Z</time>
      </trkpt>
      <trkpt lat="43.86891" lon="7.27245">
        <ele>1400</ele>
        <time>2013-03-10T12:59:53Z</time>
      </trkpt>
      <trkpt lat="43.86883" lon="7.27247">
        <ele>1401</ele>
        <time>2013-03-10T12:59:59Z</time>
      </trkpt>
      <trkpt lat="43.86882" lon="7.27247">
        <ele>1401</ele>
        <time>2013-03-10T13:00:00Z</time>
      </trkpt>
      <trkpt lat="43.8688" lon="7.27247">
        <ele>1401</ele>
        <time>2013-03-10T13:00:01Z</time>
      </trkpt>
      <trkpt lat="43.86879" lon="7.27248">
        <ele>1402</ele>
        <time>2013-03-10T13:00:02Z</time>
      </trkpt>
      <trkpt lat="43.86878" lon="7.27248">
        <ele>1402</ele>
        <time>2013-03-10T13:00:03Z</time>
      </trkpt>
      <trkpt lat="43.86873" lon="7.27248">
        <ele>1402</ele>
        <time>2013-03-10T13:00:06Z</time>
      </trkpt>
      <trkpt lat="43.86868" lon="7.27249">
        <ele>1403</ele>
        <time>2013-03-10T13:00:10Z</time>
      </trkpt>
      <trkpt lat="43.86867" lon="7.27249">
        <ele>1403</ele>
        <time>2013-03-10T13:00:11Z</time>
      </trkpt>
      <trkpt lat="43.86866" lon="7.27249">
        <ele>1404</ele>
        <time>2013-03-10T13:00:12Z</time>
      </trkpt>
      <trkpt lat="43.86864" lon="7.2725">
        <ele>1404</ele>
        <time>2013-03-10T13:00:13Z</time>
      </trkpt>
      <trkpt lat="43.86863" lon="7.27249">
        <ele>1404</ele>
        <time>2013-03-10T13:00:14Z</time>
      </trkpt>
      <trkpt lat="43.86861" lon="7.27249">
        <ele>1404</ele>
        <time>2013-03-10T13:00:16Z</time>
      </trkpt>
      <trkpt lat="43.86856" lon="7.27246">
        <ele>1404</ele>
        <time>2013-03-10T13:00:19Z</time>
      </trkpt>
      <trkpt lat="43.86851" lon="7.27246">
        <ele>1405</ele>
        <time>2013-03-10T13:00:23Z</time>
      </trkpt>
      <trkpt lat="43.86849" lon="7.27245">
        <ele>1405</ele>
        <time>2013-03-10T13:00:24Z</time>
      </trkpt>
      <trkpt lat="43.86848" lon="7.27245">
        <ele>1406</ele>
        <time>2013-03-10T13:00:25Z</time>
      </trkpt>
      <trkpt lat="43.86846" lon="7.27244">
        <ele>1406</ele>
        <time>2013-03-10T13:00:26Z</time>
      </trkpt>
      <trkpt lat="43.86845" lon="7.27244">
        <ele>1407</ele>
        <time>2013-03-10T13:00:27Z</time>
      </trkpt>
      <trkpt lat="43.86837" lon="7.27243">
        <ele>1407</ele>
        <time>2013-03-10T13:00:33Z</time>
      </trkpt>
      <trkpt lat="43.86834" lon="7.27242">
        <ele>1407</ele>
        <time>2013-03-10T13:00:34Z</time>
      </trkpt>
      <trkpt lat="43.86833" lon="7.27243">
        <ele>1408</ele>
        <time>2013-03-10T13:00:35Z</time>
      </trkpt>
      <trkpt lat="43.86831" lon="7.27244">
        <ele>1408</ele>
        <time>2013-03-10T13:00:36Z</time>
      </trkpt>
      <trkpt lat="43.8683" lon="7.27244">
        <ele>1409</ele>
        <time>2013-03-10T13:00:37Z</time>
      </trkpt>
      <trkpt lat="43.86828" lon="7.27244">
        <ele>1409</ele>
        <time>2013-03-10T13:00:38Z</time>
      </trkpt>
      <trkpt lat="43.86821" lon="7.27245">
        <ele>1409</ele>
        <time>2013-03-10T13:00:43Z</time>
      </trkpt>
      <trkpt lat="43.8682" lon="7.27246">
        <ele>1410</ele>
        <time>2013-03-10T13:00:44Z</time>
      </trkpt>
      <trkpt lat="43.86818" lon="7.27246">
        <ele>1410</ele>
        <time>2013-03-10T13:00:45Z</time>
      </trkpt>
      <trkpt lat="43.86817" lon="7.27246">
        <ele>1411</ele>
        <time>2013-03-10T13:00:46Z</time>
      </trkpt>
      <trkpt lat="43.86815" lon="7.27246">
        <ele>1411</ele>
        <time>2013-03-10T13:00:47Z</time>
      </trkpt>
      <trkpt lat="43.86809" lon="7.27247">
        <ele>1411</ele>
        <time>2013-03-10T13:00:51Z</time>
      </trkpt>
      <trkpt lat="43.86808" lon="7.27247">
        <ele>1411</ele>
        <time>2013-03-10T13:00:52Z</time>
      </trkpt>
      <trkpt lat="43.86806" lon="7.27248">
        <ele>1412</ele>
        <time>2013-03-10T13:00:53Z</time>
      </trkpt>
      <trkpt lat="43.86805" lon="7.27248">
        <ele>1412</ele>
        <time>2013-03-10T13:00:54Z</time>
      </trkpt>
      <trkpt lat="43.86804" lon="7.27248">
        <ele>1412</ele>
        <time>2013-03-10T13:00:55Z</time>
      </trkpt>
      <trkpt lat="43.86802" lon="7.27248">
        <ele>1413</ele>
        <time>2013-03-10T13:00:56Z</time>
      </trkpt>
      <trkpt lat="43.86801" lon="7.27248">
        <ele>1413</ele>
        <time>2013-03-10T13:00:57Z</time>
      </trkpt>
      <trkpt lat="43.86799" lon="7.27248">
        <ele>1413</ele>
        <time>2013-03-10T13:00:58Z</time>
      </trkpt>
      <trkpt lat="43.86792" lon="7.27245">
        <ele>1413</ele>
        <time>2013-03-10T13:01:04Z</time>
      </trkpt>
      <trkpt lat="43.86791" lon="7.27243">
        <ele>1413</ele>
        <time>2013-03-10T13:01:06Z</time>
      </trkpt>
      <trkpt lat="43.86788" lon="7.27242">
        <ele>1413</ele>
        <time>2013-03-10T13:01:09Z</time>
      </trkpt>
      <trkpt lat="43.86787" lon="7.27241">
        <ele>1413</ele>
        <time>2013-03-10T13:01:12Z</time>
      </trkpt>
      <trkpt lat="43.86786" lon="7.27238">
        <ele>1414</ele>
        <time>2013-03-10T13:11:33Z</time>
      </trkpt>
      <trkpt lat="43.86787" lon="7.2724">
        <ele>1414</ele>
        <time>2013-03-10T13:11:34Z</time>
      </trkpt>
      <trkpt lat="43.86788" lon="7.27242">
        <ele>1414</ele>
        <time>2013-03-10T13:11:35Z</time>
      </trkpt>
      <trkpt lat="43.8679" lon="7.2724">
        <ele>1414</ele>
        <time>2013-03-10T13:11:38Z</time>
      </trkpt>
      <trkpt lat="43.86787" lon="7.27235">
        <ele>1414</ele>
        <time>2013-03-10T13:11:41Z</time>
      </trkpt>
      <trkpt lat="43.86783" lon="7.27232">
        <ele>1414</ele>
        <time>2013-03-10T13:11:43Z</time>
      </trkpt>
      <trkpt lat="43.86777" lon="7.27233">
        <ele>1414</ele>
        <time>2013-03-10T13:11:46Z</time>
      </trkpt>
      <trkpt lat="43.8677" lon="7.27231">
        <ele>1414</ele>
        <time>2013-03-10T13:11:49Z</time>
      </trkpt>
      <trkpt lat="43.86766" lon="7.27229">
        <ele>1413</ele>
        <time>2013-03-10T13:11:50Z</time>
      </trkpt>
      <trkpt lat="43.86762" lon="7.27228">
        <ele>1413</ele>
        <time>2013-03-10T13:11:51Z</time>
      </trkpt>
      <trkpt lat="43.8676" lon="7.27226">
        <ele>1412</ele>
        <time>2013-03-10T13:11:52Z</time>
      </trkpt>
      <trkpt lat="43.86758" lon="7.27225">
        <ele>1412</ele>
        <time>2013-03-10T13:11:53Z</time>
      </trkpt>
      <trkpt lat="43.86758" lon="7.27225">
        <ele>1411</ele>
        <time>2013-03-10T13:11:54Z</time>
      </trkpt>
      <trkpt lat="43.86758" lon="7.27225">
        <ele>1409</ele>
        <time>2013-03-10T13:12:03Z</time>
      </trkpt>
      <trkpt lat="43.86759" lon="7.27226">
        <ele>1409</ele>
        <time>2013-03-10T13:12:05Z</time>
      </trkpt>
      <trkpt lat="43.86758" lon="7.27225">
        <ele>1409</ele>
        <time>2013-03-10T13:12:11Z</time>
      </trkpt>
      <trkpt lat="43.86756" lon="7.27222">
        <ele>1409</ele>
        <time>2013-03-10T13:12:13Z</time>
      </trkpt>
      <trkpt lat="43.86752" lon="7.27218">
        <ele>1409</ele>
        <time>2013-03-10T13:12:16Z</time>
      </trkpt>
      <trkpt lat="43.86752" lon="7.27218">
        <ele>1408</ele>
        <time>2013-03-10T13:12:17Z</time>
      </trkpt>
      <trkpt lat="43.86751" lon="7.27217">
        <ele>1408</ele>
        <time>2013-03-10T13:12:18Z</time>
      </trkpt>
      <trkpt lat="43.86749" lon="7.27215">
        <ele>1407</ele>
        <time>2013-03-10T13:12:19Z</time>
      </trkpt>
      <trkpt lat="43.86747" lon="7.27214">
        <ele>1407</ele>
        <time>2013-03-10T13:12:20Z</time>
      </trkpt>
      <trkpt lat="43.86744" lon="7.27213">
        <ele>1407</ele>
        <time>2013-03-10T13:12:22Z</time>
      </trkpt>
      <trkpt lat="43.86744" lon="7.27214">
        <ele>1406</ele>
        <time>2013-03-10T13:12:23Z</time>
      </trkpt>
      <trkpt lat="43.86741" lon="7.27214">
        <ele>1405</ele>
        <time>2013-03-10T13:12:30Z</time>
      </trkpt>
      <trkpt lat="43.86735" lon="7.27214">
        <ele>1405</ele>
        <time>2013-03-10T13:12:33Z</time>
      </trkpt>
      <trkpt lat="43.86732" lon="7.27214">
        <ele>1405</ele>
        <time>2013-03-10T13:12:34Z</time>
      </trkpt>
      <trkpt lat="43.8673" lon="7.27213">
        <ele>1404</ele>
        <time>2013-03-10T13:12:35Z</time>
      </trkpt>
      <trkpt lat="43.86728" lon="7.27213">
        <ele>1404</ele>
        <time>2013-03-10T13:12:36Z</time>
      </trkpt>
      <trkpt lat="43.86727" lon="7.27213">
        <ele>1403</ele>
        <time>2013-03-10T13:12:37Z</time>
      </trkpt>
      <trkpt lat="43.86726" lon="7.27213">
        <ele>1403</ele>
        <time>2013-03-10T13:12:38Z</time>
      </trkpt>
      <trkpt lat="43.86724" lon="7.27214">
        <ele>1402</ele>
        <time>2013-03-10T13:12:39Z</time>
      </trkpt>
      <trkpt lat="43.8672" lon="7.27215">
        <ele>1402</ele>
        <time>2013-03-10T13:12:41Z</time>
      </trkpt>
      <trkpt lat="43.86718" lon="7.27215">
        <ele>1401</ele>
        <time>2013-03-10T13:12:42Z</time>
      </trkpt>
      <trkpt lat="43.86716" lon="7.27215">
        <ele>1401</ele>
        <time>2013-03-10T13:12:43Z</time>
      </trkpt>
      <trkpt lat="43.86714" lon="7.27215">
        <ele>1400</ele>
        <time>2013-03-10T13:12:44Z</time>
      </trkpt>
      <trkpt lat="43.86712" lon="7.27215">
        <ele>1400</ele>
        <time>2013-03-10T13:12:45Z</time>
      </trkpt>
      <trkpt lat="43.86711" lon="7.27214">
        <ele>1399</ele>
        <time>2013-03-10T13:12:46Z</time>
      </trkpt>
      <trkpt lat="43.86709" lon="7.27213">
        <ele>1398</ele>
        <time>2013-03-10T13:12:47Z</time>
      </trkpt>
      <trkpt lat="43.86707" lon="7.27213">
        <ele>1398</ele>
        <time>2013-03-10T13:12:48Z</time>
      </trkpt>
      <trkpt lat="43.86704" lon="7.27213">
        <ele>1397</ele>
        <time>2013-03-10T13:12:49Z</time>
      </trkpt>
      <trkpt lat="43.86701" lon="7.27213">
        <ele>1396</ele>
        <time>2013-03-10T13:12:50Z</time>
      </trkpt>
      <trkpt lat="43.86699" lon="7.27214">
        <ele>1396</ele>
        <time>2013-03-10T13:12:51Z</time>
      </trkpt>
      <trkpt lat="43.86697" lon="7.27215">
        <ele>1395</ele>
        <time>2013-03-10T13:12:52Z</time>
      </trkpt>
      <trkpt lat="43.86694" lon="7.27216">
        <ele>1394</ele>
        <time>2013-03-10T13:12:53Z</time>
      </trkpt>
      <trkpt lat="43.86692" lon="7.27216">
        <ele>1394</ele>
        <time>2013-03-10T13:12:54Z</time>
      </trkpt>
      <trkpt lat="43.86689" lon="7.27217">
        <ele>1393</ele>
        <time>2013-03-10T13:12:55Z</time>
      </trkpt>
      <trkpt lat="43.86687" lon="7.27217">
        <ele>1392</ele>
        <time>2013-03-10T13:12:56Z</time>
      </trkpt>
      <trkpt lat="43.86684" lon="7.27218">
        <ele>1390</ele>
        <time>2013-03-10T13:12:57Z</time>
      </trkpt>
      <trkpt lat="43.86681" lon="7.27218">
        <ele>1390</ele>
        <time>2013-03-10T13:12:58Z</time>
      </trkpt>
      <trkpt lat="43.86678" lon="7.27219">
        <ele>1389</ele>
        <time>2013-03-10T13:12:59Z</time>
      </trkpt>
      <trkpt lat="43.86675" lon="7.2722">
        <ele>1388</ele>
        <time>2013-03-10T13:13:00Z</time>
      </trkpt>
      <trkpt lat="43.86673" lon="7.27221">
        <ele>1387</ele>
        <time>2013-03-10T13:13:01Z</time>
      </trkpt>
      <trkpt lat="43.86671" lon="7.27221">
        <ele>1386</ele>
        <time>2013-03-10T13:13:02Z</time>
      </trkpt>
      <trkpt lat="43.86668" lon="7.27221">
        <ele>1385</ele>
        <time>2013-03-10T13:13:03Z</time>
      </trkpt>
      <trkpt lat="43.86667" lon="7.2722">
        <ele>1384</ele>
        <time>2013-03-10T13:13:04Z</time>
      </trkpt>
      <trkpt lat="43.86666" lon="7.2722">
        <ele>1384</ele>
        <time>2013-03-10T13:13:05Z</time>
      </trkpt>
      <trkpt lat="43.86665" lon="7.27221">
        <ele>1383</ele>
        <time>2013-03-10T13:13:06Z</time>
      </trkpt>
      <trkpt lat="43.86663" lon="7.27221">
        <ele>1383</ele>
        <time>2013-03-10T13:13:07Z</time>
      </trkpt>
      <trkpt lat="43.86661" lon="7.27221">
        <ele>1382</ele>
        <time>2013-03-10T13:13:08Z</time>
      </trkpt>
      <trkpt lat="43.86658" lon="7.27222">
        <ele>1382</ele>
        <time>2013-03-10T13:13:09Z</time>
      </trkpt>
      <trkpt lat="43.86657" lon="7.27223">
        <ele>1381</ele>
        <time>2013-03-10T13:13:10Z</time>
      </trkpt>
      <trkpt lat="43.86656" lon="7.27223">
        <ele>1381</ele>
        <time>2013-03-10T13:13:11Z</time>
      </trkpt>
      <trkpt lat="43.86655" lon="7.27224">
        <ele>1380</ele>
        <time>2013-03-10T13:13:12Z</time>
      </trkpt>
      <trkpt lat="43.86655" lon="7.27225">
        <ele>1380</ele>
        <time>2013-03-10T13:13:13Z</time>
      </trkpt>
      <trkpt lat="43.86655" lon="7.27225">
        <ele>1377</ele>
        <time>2013-03-10T13:14:19Z</time>
      </trkpt>
      <trkpt lat="43.86652" lon="7.27226">
        <ele>1377</ele>
        <time>2013-03-10T13:14:20Z</time>
      </trkpt>
      <trkpt lat="43.86642" lon="7.27225">
        <ele>1377</ele>
        <time>2013-03-10T13:14:24Z</time>
      </trkpt>
      <trkpt lat="43.86639" lon="7.27224">
        <ele>1377</ele>
        <time>2013-03-10T13:14:25Z</time>
      </trkpt>
      <trkpt lat="43.86635" lon="7.27223">
        <ele>1376</ele>
        <time>2013-03-10T13:14:26Z</time>
      </trkpt>
      <trkpt lat="43.8663" lon="7.27223">
        <ele>1376</ele>
        <time>2013-03-10T13:14:27Z</time>
      </trkpt>
      <trkpt lat="43.86626" lon="7.27224">
        <ele>1375</ele>
        <time>2013-03-10T13:14:28Z</time>
      </trkpt>
      <trkpt lat="43.86621" lon="7.27224">
        <ele>1374</ele>
        <time>2013-03-10T13:14:29Z</time>
      </trkpt>
      <trkpt lat="43.86617" lon="7.27224">
        <ele>1374</ele>
        <time>2013-03-10T13:14:30Z</time>
      </trkpt>
      <trkpt lat="43.86613" lon="7.27225">
        <ele>1373</ele>
        <time>2013-03-10T13:14:31Z</time>
      </trkpt>
      <trkpt lat="43.8661" lon="7.27226">
        <ele>1372</ele>
        <time>2013-03-10T13:14:32Z</time>
      </trkpt>
      <trkpt lat="43.86607" lon="7.27227">
        <ele>1371</ele>
        <time>2013-03-10T13:14:33Z</time>
      </trkpt>
      <trkpt lat="43.86605" lon="7.27227">
        <ele>1370</ele>
        <time>2013-03-10T13:14:34Z</time>
      </trkpt>
      <trkpt lat="43.86599" lon="7.27229">
        <ele>1370</ele>
        <time>2013-03-10T13:14:37Z</time>
      </trkpt>
      <trkpt lat="43.86594" lon="7.27229">
        <ele>1370</ele>
        <time>2013-03-10T13:14:40Z</time>
      </trkpt>
      <trkpt lat="43.86591" lon="7.2723">
        <ele>1369</ele>
        <time>2013-03-10T13:14:41Z</time>
      </trkpt>
      <trkpt lat="43.86589" lon="7.27231">
        <ele>1369</ele>
        <time>2013-03-10T13:14:42Z</time>
      </trkpt>
      <trkpt lat="43.86588" lon="7.2723">
        <ele>1369</ele>
        <time>2013-03-10T13:14:43Z</time>
      </trkpt>
      <trkpt lat="43.86585" lon="7.2723">
        <ele>1368</ele>
        <time>2013-03-10T13:14:44Z</time>
      </trkpt>
      <trkpt lat="43.86582" lon="7.2723">
        <ele>1368</ele>
        <time>2013-03-10T13:14:45Z</time>
      </trkpt>
      <trkpt lat="43.86578" lon="7.2723">
        <ele>1367</ele>
        <time>2013-03-10T13:14:46Z</time>
      </trkpt>
      <trkpt lat="43.86575" lon="7.2723">
        <ele>1366</ele>
        <time>2013-03-10T13:14:47Z</time>
      </trkpt>
      <trkpt lat="43.86572" lon="7.2723">
        <ele>1366</ele>
        <time>2013-03-10T13:14:48Z</time>
      </trkpt>
      <trkpt lat="43.8657" lon="7.2723">
        <ele>1365</ele>
        <time>2013-03-10T13:14:49Z</time>
      </trkpt>
      <trkpt lat="43.86568" lon="7.27231">
        <ele>1365</ele>
        <time>2013-03-10T13:14:50Z</time>
      </trkpt>
      <trkpt lat="43.86567" lon="7.27232">
        <ele>1364</ele>
        <time>2013-03-10T13:14:51Z</time>
      </trkpt>
      <trkpt lat="43.86565" lon="7.27234">
        <ele>1364</ele>
        <time>2013-03-10T13:14:52Z</time>
      </trkpt>
      <trkpt lat="43.86564" lon="7.27235">
        <ele>1363</ele>
        <time>2013-03-10T13:14:53Z</time>
      </trkpt>
      <trkpt lat="43.86562" lon="7.27237">
        <ele>1363</ele>
        <time>2013-03-10T13:14:54Z</time>
      </trkpt>
      <trkpt lat="43.8656" lon="7.27237">
        <ele>1362</ele>
        <time>2013-03-10T13:14:55Z</time>
      </trkpt>
      <trkpt lat="43.86558" lon="7.27237">
        <ele>1362</ele>
        <time>2013-03-10T13:14:56Z</time>
      </trkpt>
      <trkpt lat="43.86553" lon="7.27238">
        <ele>1362</ele>
        <time>2013-03-10T13:15:00Z</time>
      </trkpt>
      <trkpt lat="43.8655" lon="7.27238">
        <ele>1362</ele>
        <time>2013-03-10T13:15:02Z</time>
      </trkpt>
      <trkpt lat="43.86548" lon="7.27238">
        <ele>1361</ele>
        <time>2013-03-10T13:15:03Z</time>
      </trkpt>
      <trkpt lat="43.86547" lon="7.27239">
        <ele>1361</ele>
        <time>2013-03-10T13:15:04Z</time>
      </trkpt>
      <trkpt lat="43.86546" lon="7.27239">
        <ele>1360</ele>
        <time>2013-03-10T13:15:05Z</time>
      </trkpt>
      <trkpt lat="43.86546" lon="7.2724">
        <ele>1360</ele>
        <time>2013-03-10T13:15:06Z</time>
      </trkpt>
      <trkpt lat="43.86546" lon="7.2724">
        <ele>1360</ele>
        <time>2013-03-10T13:15:07Z</time>
      </trkpt>
      <trkpt lat="43.86542" lon="7.27239">
        <ele>1360</ele>
        <time>2013-03-10T13:16:05Z</time>
      </trkpt>
      <trkpt lat="43.86538" lon="7.2724">
        <ele>1360</ele>
        <time>2013-03-10T13:16:07Z</time>
      </trkpt>
      <trkpt lat="43.86531" lon="7.27244">
        <ele>1360</ele>
        <time>2013-03-10T13:16:10Z</time>
      </trkpt>
      <trkpt lat="43.86525" lon="7.27247">
        <ele>1360</ele>
        <time>2013-03-10T13:16:12Z</time>
      </trkpt>
      <trkpt lat="43.86519" lon="7.27252">
        <ele>1360</ele>
        <time>2013-03-10T13:16:16Z</time>
      </trkpt>
      <trkpt lat="43.86518" lon="7.27253">
        <ele>1360</ele>
        <time>2013-03-10T13:16:18Z</time>
      </trkpt>
      <trkpt lat="43.86515" lon="7.27251">
        <ele>1360</ele>
        <time>2013-03-10T13:16:27Z</time>
      </trkpt>
      <trkpt lat="43.86512" lon="7.27249">
        <ele>1360</ele>
        <time>2013-03-10T13:16:29Z</time>
      </trkpt>
      <trkpt lat="43.86509" lon="7.27249">
        <ele>1360</ele>
        <time>2013-03-10T13:16:32Z</time>
      </trkpt>
      <trkpt lat="43.86507" lon="7.27249">
        <ele>1359</ele>
        <time>2013-03-10T13:16:33Z</time>
      </trkpt>
      <trkpt lat="43.86504" lon="7.27249">
        <ele>1359</ele>
        <time>2013-03-10T13:16:34Z</time>
      </trkpt>
      <trkpt lat="43.86501" lon="7.27249">
        <ele>1358</ele>
        <time>2013-03-10T13:16:35Z</time>
      </trkpt>
      <trkpt lat="43.86498" lon="7.27249">
        <ele>1358</ele>
        <time>2013-03-10T13:16:36Z</time>
      </trkpt>
      <trkpt lat="43.86493" lon="7.2725">
        <ele>1357</ele>
        <time>2013-03-10T13:16:37Z</time>
      </trkpt>
      <trkpt lat="43.86488" lon="7.27251">
        <ele>1357</ele>
        <time>2013-03-10T13:16:38Z</time>
      </trkpt>
      <trkpt lat="43.86483" lon="7.27252">
        <ele>1356</ele>
        <time>2013-03-10T13:16:39Z</time>
      </trkpt>
      <trkpt lat="43.86479" lon="7.27253">
        <ele>1356</ele>
        <time>2013-03-10T13:16:40Z</time>
      </trkpt>
      <trkpt lat="43.86475" lon="7.27254">
        <ele>1355</ele>
        <time>2013-03-10T13:16:41Z</time>
      </trkpt>
      <trkpt lat="43.86472" lon="7.27255">
        <ele>1355</ele>
        <time>2013-03-10T13:16:42Z</time>
      </trkpt>
      <trkpt lat="43.86469" lon="7.27255">
        <ele>1355</ele>
        <time>2013-03-10T13:16:43Z</time>
      </trkpt>
      <trkpt lat="43.86464" lon="7.27255">
        <ele>1355</ele>
        <time>2013-03-10T13:16:45Z</time>
      </trkpt>
      <trkpt lat="43.86461" lon="7.27256">
        <ele>1355</ele>
        <time>2013-03-10T13:16:47Z</time>
      </trkpt>
      <trkpt lat="43.86452" lon="7.27261">
        <ele>1355</ele>
        <time>2013-03-10T13:16:52Z</time>
      </trkpt>
      <trkpt lat="43.8645" lon="7.27263">
        <ele>1355</ele>
        <time>2013-03-10T13:16:53Z</time>
      </trkpt>
      <trkpt lat="43.86449" lon="7.27264">
        <ele>1355</ele>
        <time>2013-03-10T13:16:54Z</time>
      </trkpt>
      <trkpt lat="43.86447" lon="7.27265">
        <ele>1356</ele>
        <time>2013-03-10T13:16:55Z</time>
      </trkpt>
      <trkpt lat="43.86445" lon="7.27266">
        <ele>1356</ele>
        <time>2013-03-10T13:16:56Z</time>
      </trkpt>
      <trkpt lat="43.86442" lon="7.27267">
        <ele>1356</ele>
        <time>2013-03-10T13:16:57Z</time>
      </trkpt>
      <trkpt lat="43.8644" lon="7.27267">
        <ele>1357</ele>
        <time>2013-03-10T13:16:58Z</time>
      </trkpt>
      <trkpt lat="43.86437" lon="7.27266">
        <ele>1357</ele>
        <time>2013-03-10T13:16:59Z</time>
      </trkpt>
      <trkpt lat="43.86429" lon="7.27265">
        <ele>1356</ele>
        <time>2013-03-10T13:17:01Z</time>
      </trkpt>
      <trkpt lat="43.86424" lon="7.27266">
        <ele>1356</ele>
        <time>2013-03-10T13:17:02Z</time>
      </trkpt>
      <trkpt lat="43.86421" lon="7.27268">
        <ele>1356</ele>
        <time>2013-03-10T13:17:03Z</time>
      </trkpt>
      <trkpt lat="43.86417" lon="7.27269">
        <ele>1355</ele>
        <time>2013-03-10T13:17:04Z</time>
      </trkpt>
      <trkpt lat="43.86414" lon="7.27271">
        <ele>1355</ele>
        <time>2013-03-10T13:17:05Z</time>
      </trkpt>
      <trkpt lat="43.86399" lon="7.27277">
        <ele>1355</ele>
        <time>2013-03-10T13:17:09Z</time>
      </trkpt>
      <trkpt lat="43.86396" lon="7.27276">
        <ele>1355</ele>
        <time>2013-03-10T13:17:10Z</time>
      </trkpt>
      <trkpt lat="43.86386" lon="7.27277">
        <ele>1355</ele>
        <time>2013-03-10T13:17:15Z</time>
      </trkpt>
      <trkpt lat="43.86383" lon="7.27278">
        <ele>1355</ele>
        <time>2013-03-10T13:17:18Z</time>
      </trkpt>
      <trkpt lat="43.8638" lon="7.27277">
        <ele>1355</ele>
        <time>2013-03-10T13:18:30Z</time>
      </trkpt>
      <trkpt lat="43.86368" lon="7.27273">
        <ele>1354</ele>
        <time>2013-03-10T13:18:33Z</time>
      </trkpt>
      <trkpt lat="43.86364" lon="7.2727">
        <ele>1354</ele>
        <time>2013-03-10T13:18:34Z</time>
      </trkpt>
      <trkpt lat="43.8636" lon="7.27268">
        <ele>1354</ele>
        <time>2013-03-10T13:18:35Z</time>
      </trkpt>
      <trkpt lat="43.86356" lon="7.27266">
        <ele>1353</ele>
        <time>2013-03-10T13:18:36Z</time>
      </trkpt>
      <trkpt lat="43.86352" lon="7.27264">
        <ele>1352</ele>
        <time>2013-03-10T13:18:37Z</time>
      </trkpt>
      <trkpt lat="43.86349" lon="7.27263">
        <ele>1352</ele>
        <time>2013-03-10T13:18:38Z</time>
      </trkpt>
      <trkpt lat="43.86348" lon="7.27263">
        <ele>1351</ele>
        <time>2013-03-10T13:18:39Z</time>
      </trkpt>
      <trkpt lat="43.86346" lon="7.27263">
        <ele>1350</ele>
        <time>2013-03-10T13:18:40Z</time>
      </trkpt>
      <trkpt lat="43.86344" lon="7.27263">
        <ele>1349</ele>
        <time>2013-03-10T13:18:41Z</time>
      </trkpt>
      <trkpt lat="43.86341" lon="7.27259">
        <ele>1348</ele>
        <time>2013-03-10T13:18:42Z</time>
      </trkpt>
      <trkpt lat="43.86338" lon="7.27254">
        <ele>1347</ele>
        <time>2013-03-10T13:18:43Z</time>
      </trkpt>
      <trkpt lat="43.86333" lon="7.2725">
        <ele>1346</ele>
        <time>2013-03-10T13:18:44Z</time>
      </trkpt>
      <trkpt lat="43.86328" lon="7.27246">
        <ele>1345</ele>
        <time>2013-03-10T13:18:45Z</time>
      </trkpt>
      <trkpt lat="43.86322" lon="7.27243">
        <ele>1345</ele>
        <time>2013-03-10T13:18:46Z</time>
      </trkpt>
      <trkpt lat="43.86317" lon="7.27241">
        <ele>1344</ele>
        <time>2013-03-10T13:18:47Z</time>
      </trkpt>
      <trkpt lat="43.86312" lon="7.2724">
        <ele>1343</ele>
        <time>2013-03-10T13:18:48Z</time>
      </trkpt>
      <trkpt lat="43.86309" lon="7.2724">
        <ele>1342</ele>
        <time>2013-03-10T13:18:49Z</time>
      </trkpt>
      <trkpt lat="43.86308" lon="7.27239">
        <ele>1341</ele>
        <time>2013-03-10T13:18:50Z</time>
      </trkpt>
      <trkpt lat="43.86306" lon="7.27237">
        <ele>1341</ele>
        <time>2013-03-10T13:18:51Z</time>
      </trkpt>
      <trkpt lat="43.86304" lon="7.27235">
        <ele>1341</ele>
        <time>2013-03-10T13:18:52Z</time>
      </trkpt>
      <trkpt lat="43.86302" lon="7.27233">
        <ele>1340</ele>
        <time>2013-03-10T13:18:53Z</time>
      </trkpt>
      <trkpt lat="43.863" lon="7.27232">
        <ele>1340</ele>
        <time>2013-03-10T13:18:54Z</time>
      </trkpt>
      <trkpt lat="43.86297" lon="7.27231">
        <ele>1339</ele>
        <time>2013-03-10T13:18:55Z</time>
      </trkpt>
      <trkpt lat="43.86294" lon="7.27231">
        <ele>1339</ele>
        <time>2013-03-10T13:18:56Z</time>
      </trkpt>
      <trkpt lat="43.8629" lon="7.2723">
        <ele>1338</ele>
        <time>2013-03-10T13:18:57Z</time>
      </trkpt>
      <trkpt lat="43.86286" lon="7.2723">
        <ele>1337</ele>
        <time>2013-03-10T13:18:58Z</time>
      </trkpt>
      <trkpt lat="43.86283" lon="7.27228">
        <ele>1337</ele>
        <time>2013-03-10T13:18:59Z</time>
      </trkpt>
      <trkpt lat="43.86279" lon="7.27226">
        <ele>1336</ele>
        <time>2013-03-10T13:19:00Z</time>
      </trkpt>
      <trkpt lat="43.86277" lon="7.27223">
        <ele>1336</ele>
        <time>2013-03-10T13:19:01Z</time>
      </trkpt>
      <trkpt lat="43.86275" lon="7.27222">
        <ele>1335</ele>
        <time>2013-03-10T13:19:02Z</time>
      </trkpt>
      <trkpt lat="43.86273" lon="7.27223">
        <ele>1335</ele>
        <time>2013-03-10T13:19:03Z</time>
      </trkpt>
      <trkpt lat="43.8627" lon="7.27224">
        <ele>1334</ele>
        <time>2013-03-10T13:19:04Z</time>
      </trkpt>
      <trkpt lat="43.86268" lon="7.27226">
        <ele>1334</ele>
        <time>2013-03-10T13:19:05Z</time>
      </trkpt>
      <trkpt lat="43.86265" lon="7.27228">
        <ele>1333</ele>
        <time>2013-03-10T13:19:06Z</time>
      </trkpt>
      <trkpt lat="43.86262" lon="7.27229">
        <ele>1332</ele>
        <time>2013-03-10T13:19:07Z</time>
      </trkpt>
      <trkpt lat="43.86259" lon="7.27232">
        <ele>1332</ele>
        <time>2013-03-10T13:19:08Z</time>
      </trkpt>
      <trkpt lat="43.86249" lon="7.27234">
        <ele>1332</ele>
        <time>2013-03-10T13:19:11Z</time>
      </trkpt>
      <trkpt lat="43.86245" lon="7.27232">
        <ele>1331</ele>
        <time>2013-03-10T13:19:12Z</time>
      </trkpt>
      <trkpt lat="43.86241" lon="7.2723">
        <ele>1331</ele>
        <time>2013-03-10T13:19:13Z</time>
      </trkpt>
      <trkpt lat="43.86237" lon="7.27229">
        <ele>1330</ele>
        <time>2013-03-10T13:19:14Z</time>
      </trkpt>
      <trkpt lat="43.86233" lon="7.2723">
        <ele>1329</ele>
        <time>2013-03-10T13:19:15Z</time>
      </trkpt>
      <trkpt lat="43.86229" lon="7.27233">
        <ele>1329</ele>
        <time>2013-03-10T13:19:16Z</time>
      </trkpt>
      <trkpt lat="43.86225" lon="7.27235">
        <ele>1328</ele>
        <time>2013-03-10T13:19:17Z</time>
      </trkpt>
      <trkpt lat="43.86221" lon="7.27236">
        <ele>1327</ele>
        <time>2013-03-10T13:19:18Z</time>
      </trkpt>
      <trkpt lat="43.86218" lon="7.27235">
        <ele>1326</ele>
        <time>2013-03-10T13:19:19Z</time>
      </trkpt>
      <trkpt lat="43.86215" lon="7.27234">
        <ele>1326</ele>
        <time>2013-03-10T13:19:20Z</time>
      </trkpt>
      <trkpt lat="43.86212" lon="7.27234">
        <ele>1325</ele>
        <time>2013-03-10T13:19:21Z</time>
      </trkpt>
      <trkpt lat="43.8621" lon="7.27235">
        <ele>1324</ele>
        <time>2013-03-10T13:19:22Z</time>
      </trkpt>
      <trkpt lat="43.86207" lon="7.27236">
        <ele>1324</ele>
        <time>2013-03-10T13:19:23Z</time>
      </trkpt>
      <trkpt lat="43.86203" lon="7.27236">
        <ele>1323</ele>
        <time>2013-03-10T13:19:24Z</time>
      </trkpt>
      <trkpt lat="43.86199" lon="7.27236">
        <ele>1323</ele>
        <time>2013-03-10T13:19:25Z</time>
      </trkpt>
      <trkpt lat="43.86195" lon="7.27237">
        <ele>1322</ele>
        <time>2013-03-10T13:19:26Z</time>
      </trkpt>
      <trkpt lat="43.86191" lon="7.27237">
        <ele>1322</ele>
        <time>2013-03-10T13:19:27Z</time>
      </trkpt>
      <trkpt lat="43.86188" lon="7.2724">
        <ele>1321</ele>
        <time>2013-03-10T13:19:28Z</time>
      </trkpt>
      <trkpt lat="43.86186" lon="7.27242">
        <ele>1321</ele>
        <time>2013-03-10T13:19:29Z</time>
      </trkpt>
      <trkpt lat="43.86185" lon="7.27244">
        <ele>1320</ele>
        <time>2013-03-10T13:19:30Z</time>
      </trkpt>
      <trkpt lat="43.86183" lon="7.27245">
        <ele>1320</ele>
        <time>2013-03-10T13:19:31Z</time>
      </trkpt>
      <trkpt lat="43.86183" lon="7.27245">
        <ele>1320</ele>
        <time>2013-03-10T13:19:32Z</time>
      </trkpt>
      <trkpt lat="43.8618" lon="7.27245">
        <ele>1320</ele>
        <time>2013-03-10T13:20:52Z</time>
      </trkpt>
      <trkpt lat="43.86179" lon="7.27245">
        <ele>1320</ele>
        <time>2013-03-10T13:20:53Z</time>
      </trkpt>
      <trkpt lat="43.86179" lon="7.27246">
        <ele>1320</ele>
        <time>2013-03-10T13:20:54Z</time>
      </trkpt>
      <trkpt lat="43.86175" lon="7.27246">
        <ele>1320</ele>
        <time>2013-03-10T13:21:06Z</time>
      </trkpt>
      <trkpt lat="43.86171" lon="7.27246">
        <ele>1320</ele>
        <time>2013-03-10T13:21:08Z</time>
      </trkpt>
      <trkpt lat="43.86167" lon="7.27247">
        <ele>1320</ele>
        <time>2013-03-10T13:21:10Z</time>
      </trkpt>
      <trkpt lat="43.86166" lon="7.27248">
        <ele>1319</ele>
        <time>2013-03-10T13:21:12Z</time>
      </trkpt>
      <trkpt lat="43.86164" lon="7.27246">
        <ele>1318</ele>
        <time>2013-03-10T13:21:15Z</time>
      </trkpt>
      <trkpt lat="43.86163" lon="7.27247">
        <ele>1318</ele>
        <time>2013-03-10T13:21:17Z</time>
      </trkpt>
      <trkpt lat="43.8616" lon="7.27247">
        <ele>1318</ele>
        <time>2013-03-10T13:21:29Z</time>
      </trkpt>
      <trkpt lat="43.86156" lon="7.27245">
        <ele>1317</ele>
        <time>2013-03-10T13:21:31Z</time>
      </trkpt>
      <trkpt lat="43.86154" lon="7.27245">
        <ele>1317</ele>
        <time>2013-03-10T13:21:32Z</time>
      </trkpt>
      <trkpt lat="43.86151" lon="7.27244">
        <ele>1317</ele>
        <time>2013-03-10T13:21:33Z</time>
      </trkpt>
      <trkpt lat="43.86148" lon="7.27243">
        <ele>1316</ele>
        <time>2013-03-10T13:21:34Z</time>
      </trkpt>
      <trkpt lat="43.86145" lon="7.27242">
        <ele>1316</ele>
        <time>2013-03-10T13:21:35Z</time>
      </trkpt>
      <trkpt lat="43.86142" lon="7.2724">
        <ele>1314</ele>
        <time>2013-03-10T13:21:36Z</time>
      </trkpt>
      <trkpt lat="43.86138" lon="7.2724">
        <ele>1314</ele>
        <time>2013-03-10T13:21:37Z</time>
      </trkpt>
      <trkpt lat="43.86136" lon="7.27239">
        <ele>1313</ele>
        <time>2013-03-10T13:21:38Z</time>
      </trkpt>
      <trkpt lat="43.86133" lon="7.27241">
        <ele>1312</ele>
        <time>2013-03-10T13:21:39Z</time>
      </trkpt>
      <trkpt lat="43.86131" lon="7.27241">
        <ele>1312</ele>
        <time>2013-03-10T13:21:40Z</time>
      </trkpt>
      <trkpt lat="43.86128" lon="7.27242">
        <ele>1311</ele>
        <time>2013-03-10T13:21:41Z</time>
      </trkpt>
      <trkpt lat="43.86126" lon="7.27242">
        <ele>1310</ele>
        <time>2013-03-10T13:21:42Z</time>
      </trkpt>
      <trkpt lat="43.86122" lon="7.27243">
        <ele>1309</ele>
        <time>2013-03-10T13:21:43Z</time>
      </trkpt>
      <trkpt lat="43.86119" lon="7.27243">
        <ele>1308</ele>
        <time>2013-03-10T13:21:44Z</time>
      </trkpt>
      <trkpt lat="43.86116" lon="7.27243">
        <ele>1308</ele>
        <time>2013-03-10T13:21:45Z</time>
      </trkpt>
      <trkpt lat="43.86115" lon="7.27242">
        <ele>1308</ele>
        <time>2013-03-10T13:21:46Z</time>
      </trkpt>
      <trkpt lat="43.86114" lon="7.2724">
        <ele>1307</ele>
        <time>2013-03-10T13:21:47Z</time>
      </trkpt>
      <trkpt lat="43.86113" lon="7.27239">
        <ele>1307</ele>
        <time>2013-03-10T13:21:48Z</time>
      </trkpt>
      <trkpt lat="43.86112" lon="7.27238">
        <ele>1306</ele>
        <time>2013-03-10T13:21:49Z</time>
      </trkpt>
      <trkpt lat="43.86111" lon="7.27237">
        <ele>1306</ele>
        <time>2013-03-10T13:21:51Z</time>
      </trkpt>
      <trkpt lat="43.86111" lon="7.27237">
        <ele>1305</ele>
        <time>2013-03-10T13:21:52Z</time>
      </trkpt>
      <trkpt lat="43.86109" lon="7.27238">
        <ele>1304</ele>
        <time>2013-03-10T13:22:04Z</time>
      </trkpt>
      <trkpt lat="43.86104" lon="7.27238">
        <ele>1304</ele>
        <time>2013-03-10T13:22:06Z</time>
      </trkpt>
      <trkpt lat="43.861" lon="7.27237">
        <ele>1304</ele>
        <time>2013-03-10T13:22:08Z</time>
      </trkpt>
      <trkpt lat="43.86097" lon="7.27237">
        <ele>1303</ele>
        <time>2013-03-10T13:22:09Z</time>
      </trkpt>
      <trkpt lat="43.86093" lon="7.27237">
        <ele>1303</ele>
        <time>2013-03-10T13:22:10Z</time>
      </trkpt>
      <trkpt lat="43.86089" lon="7.27235">
        <ele>1302</ele>
        <time>2013-03-10T13:22:11Z</time>
      </trkpt>
      <trkpt lat="43.86084" lon="7.27235">
        <ele>1301</ele>
        <time>2013-03-10T13:22:12Z</time>
      </trkpt>
      <trkpt lat="43.8608" lon="7.27234">
        <ele>1301</ele>
        <time>2013-03-10T13:22:13Z</time>
      </trkpt>
      <trkpt lat="43.86077" lon="7.27232">
        <ele>1300</ele>
        <time>2013-03-10T13:22:14Z</time>
      </trkpt>
      <trkpt lat="43.86075" lon="7.27232">
        <ele>1299</ele>
        <time>2013-03-10T13:22:15Z</time>
      </trkpt>
      <trkpt lat="43.86072" lon="7.27232">
        <ele>1298</ele>
        <time>2013-03-10T13:22:16Z</time>
      </trkpt>
      <trkpt lat="43.86071" lon="7.27233">
        <ele>1298</ele>
        <time>2013-03-10T13:22:17Z</time>
      </trkpt>
      <trkpt lat="43.8607" lon="7.27232">
        <ele>1297</ele>
        <time>2013-03-10T13:22:18Z</time>
      </trkpt>
      <trkpt lat="43.86069" lon="7.27231">
        <ele>1296</ele>
        <time>2013-03-10T13:22:19Z</time>
      </trkpt>
      <trkpt lat="43.86067" lon="7.2723">
        <ele>1295</ele>
        <time>2013-03-10T13:22:20Z</time>
      </trkpt>
      <trkpt lat="43.86066" lon="7.27229">
        <ele>1294</ele>
        <time>2013-03-10T13:22:21Z</time>
      </trkpt>
      <trkpt lat="43.86064" lon="7.27229">
        <ele>1294</ele>
        <time>2013-03-10T13:22:22Z</time>
      </trkpt>
      <trkpt lat="43.86062" lon="7.2723">
        <ele>1293</ele>
        <time>2013-03-10T13:22:23Z</time>
      </trkpt>
      <trkpt lat="43.8606" lon="7.27231">
        <ele>1292</ele>
        <time>2013-03-10T13:22:24Z</time>
      </trkpt>
      <trkpt lat="43.86059" lon="7.27231">
        <ele>1292</ele>
        <time>2013-03-10T13:22:25Z</time>
      </trkpt>
      <trkpt lat="43.86056" lon="7.27232">
        <ele>1291</ele>
        <time>2013-03-10T13:22:26Z</time>
      </trkpt>
      <trkpt lat="43.86055" lon="7.27234">
        <ele>1290</ele>
        <time>2013-03-10T13:22:27Z</time>
      </trkpt>
      <trkpt lat="43.86055" lon="7.27235">
        <ele>1290</ele>
        <time>2013-03-10T13:22:28Z</time>
      </trkpt>
      <trkpt lat="43.86055" lon="7.27237">
        <ele>1289</ele>
        <time>2013-03-10T13:22:29Z</time>
      </trkpt>
      <trkpt lat="43.86056" lon="7.2724">
        <ele>1288</ele>
        <time>2013-03-10T13:22:30Z</time>
      </trkpt>
      <trkpt lat="43.86057" lon="7.27244">
        <ele>1288</ele>
        <time>2013-03-10T13:22:31Z</time>
      </trkpt>
      <trkpt lat="43.86059" lon="7.27249">
        <ele>1287</ele>
        <time>2013-03-10T13:22:32Z</time>
      </trkpt>
      <trkpt lat="43.8606" lon="7.27255">
        <ele>1286</ele>
        <time>2013-03-10T13:22:33Z</time>
      </trkpt>
      <trkpt lat="43.86061" lon="7.2726">
        <ele>1285</ele>
        <time>2013-03-10T13:22:34Z</time>
      </trkpt>
      <trkpt lat="43.86061" lon="7.27263">
        <ele>1285</ele>
        <time>2013-03-10T13:22:35Z</time>
      </trkpt>
      <trkpt lat="43.86062" lon="7.27265">
        <ele>1284</ele>
        <time>2013-03-10T13:22:36Z</time>
      </trkpt>
      <trkpt lat="43.86062" lon="7.27266">
        <ele>1283</ele>
        <time>2013-03-10T13:22:37Z</time>
      </trkpt>
      <trkpt lat="43.86062" lon="7.27265">
        <ele>1281</ele>
        <time>2013-03-10T13:24:18Z</time>
      </trkpt>
      <trkpt lat="43.86061" lon="7.27268">
        <ele>1281</ele>
        <time>2013-03-10T13:24:20Z</time>
      </trkpt>
      <trkpt lat="43.86061" lon="7.27268">
        <ele>1281</ele>
        <time>2013-03-10T13:24:21Z</time>
      </trkpt>
      <trkpt lat="43.86058" lon="7.27269">
        <ele>1279</ele>
        <time>2013-03-10T13:24:27Z</time>
      </trkpt>
      <trkpt lat="43.86055" lon="7.27269">
        <ele>1280</ele>
        <time>2013-03-10T13:24:28Z</time>
      </trkpt>
      <trkpt lat="43.86052" lon="7.27269">
        <ele>1280</ele>
        <time>2013-03-10T13:24:29Z</time>
      </trkpt>
      <trkpt lat="43.86049" lon="7.27269">
        <ele>1280</ele>
        <time>2013-03-10T13:24:30Z</time>
      </trkpt>
      <trkpt lat="43.86047" lon="7.27269">
        <ele>1280</ele>
        <time>2013-03-10T13:24:31Z</time>
      </trkpt>
      <trkpt lat="43.86045" lon="7.27269">
        <ele>1280</ele>
        <time>2013-03-10T13:24:32Z</time>
      </trkpt>
      <trkpt lat="43.86042" lon="7.2727">
        <ele>1279</ele>
        <time>2013-03-10T13:24:33Z</time>
      </trkpt>
      <trkpt lat="43.86037" lon="7.27267">
        <ele>1278</ele>
        <time>2013-03-10T13:24:34Z</time>
      </trkpt>
      <trkpt lat="43.86032" lon="7.27265">
        <ele>1278</ele>
        <time>2013-03-10T13:24:35Z</time>
      </trkpt>
      <trkpt lat="43.86027" lon="7.27263">
        <ele>1277</ele>
        <time>2013-03-10T13:24:36Z</time>
      </trkpt>
      <trkpt lat="43.86023" lon="7.27261">
        <ele>1276</ele>
        <time>2013-03-10T13:24:37Z</time>
      </trkpt>
      <trkpt lat="43.86016" lon="7.27258">
        <ele>1275</ele>
        <time>2013-03-10T13:24:38Z</time>
      </trkpt>
      <trkpt lat="43.8601" lon="7.27255">
        <ele>1275</ele>
        <time>2013-03-10T13:24:39Z</time>
      </trkpt>
      <trkpt lat="43.86005" lon="7.27253">
        <ele>1274</ele>
        <time>2013-03-10T13:24:40Z</time>
      </trkpt>
      <trkpt lat="43.85998" lon="7.27251">
        <ele>1273</ele>
        <time>2013-03-10T13:24:41Z</time>
      </trkpt>
      <trkpt lat="43.85992" lon="7.27251">
        <ele>1272</ele>
        <time>2013-03-10T13:24:42Z</time>
      </trkpt>
      <trkpt lat="43.85985" lon="7.2725">
        <ele>1271</ele>
        <time>2013-03-10T13:24:43Z</time>
      </trkpt>
      <trkpt lat="43.8598" lon="7.27247">
        <ele>1270</ele>
        <time>2013-03-10T13:24:44Z</time>
      </trkpt>
      <trkpt lat="43.85975" lon="7.27243">
        <ele>1269</ele>
        <time>2013-03-10T13:24:45Z</time>
      </trkpt>
      <trkpt lat="43.85971" lon="7.2724">
        <ele>1268</ele>
        <time>2013-03-10T13:24:46Z</time>
      </trkpt>
      <trkpt lat="43.85968" lon="7.27237">
        <ele>1267</ele>
        <time>2013-03-10T13:24:47Z</time>
      </trkpt>
      <trkpt lat="43.85965" lon="7.27235">
        <ele>1267</ele>
        <time>2013-03-10T13:24:48Z</time>
      </trkpt>
      <trkpt lat="43.85958" lon="7.27234">
        <ele>1266</ele>
        <time>2013-03-10T13:24:50Z</time>
      </trkpt>
      <trkpt lat="43.85955" lon="7.27235">
        <ele>1266</ele>
        <time>2013-03-10T13:24:51Z</time>
      </trkpt>
      <trkpt lat="43.85953" lon="7.27236">
        <ele>1265</ele>
        <time>2013-03-10T13:24:52Z</time>
      </trkpt>
      <trkpt lat="43.85951" lon="7.27237">
        <ele>1265</ele>
        <time>2013-03-10T13:24:53Z</time>
      </trkpt>
      <trkpt lat="43.85949" lon="7.27238">
        <ele>1265</ele>
        <time>2013-03-10T13:24:54Z</time>
      </trkpt>
      <trkpt lat="43.85932" lon="7.27243">
        <ele>1265</ele>
        <time>2013-03-10T13:25:00Z</time>
      </trkpt>
      <trkpt lat="43.85927" lon="7.2724">
        <ele>1264</ele>
        <time>2013-03-10T13:25:02Z</time>
      </trkpt>
      <trkpt lat="43.85925" lon="7.27239">
        <ele>1264</ele>
        <time>2013-03-10T13:25:03Z</time>
      </trkpt>
      <trkpt lat="43.85921" lon="7.27236">
        <ele>1263</ele>
        <time>2013-03-10T13:25:04Z</time>
      </trkpt>
      <trkpt lat="43.85918" lon="7.27233">
        <ele>1263</ele>
        <time>2013-03-10T13:25:05Z</time>
      </trkpt>
      <trkpt lat="43.85915" lon="7.27229">
        <ele>1262</ele>
        <time>2013-03-10T13:25:06Z</time>
      </trkpt>
      <trkpt lat="43.85903" lon="7.27218">
        <ele>1262</ele>
        <time>2013-03-10T13:25:09Z</time>
      </trkpt>
      <trkpt lat="43.85899" lon="7.27213">
        <ele>1262</ele>
        <time>2013-03-10T13:25:10Z</time>
      </trkpt>
      <trkpt lat="43.85894" lon="7.2721">
        <ele>1261</ele>
        <time>2013-03-10T13:25:11Z</time>
      </trkpt>
      <trkpt lat="43.85889" lon="7.27205">
        <ele>1261</ele>
        <time>2013-03-10T13:25:12Z</time>
      </trkpt>
      <trkpt lat="43.85886" lon="7.27204">
        <ele>1260</ele>
        <time>2013-03-10T13:25:13Z</time>
      </trkpt>
      <trkpt lat="43.85884" lon="7.27204">
        <ele>1260</ele>
        <time>2013-03-10T13:25:14Z</time>
      </trkpt>
      <trkpt lat="43.85882" lon="7.27204">
        <ele>1260</ele>
        <time>2013-03-10T13:25:17Z</time>
      </trkpt>
      <trkpt lat="43.85878" lon="7.27205">
        <ele>1257</ele>
        <time>2013-03-10T13:25:49Z</time>
      </trkpt>
      <trkpt lat="43.85864" lon="7.27205">
        <ele>1257</ele>
        <time>2013-03-10T13:25:54Z</time>
      </trkpt>
      <trkpt lat="43.85849" lon="7.27203">
        <ele>1257</ele>
        <time>2013-03-10T13:25:59Z</time>
      </trkpt>
      <trkpt lat="43.85824" lon="7.27199">
        <ele>1257</ele>
        <time>2013-03-10T13:26:05Z</time>
      </trkpt>
      <trkpt lat="43.85804" lon="7.27202">
        <ele>1257</ele>
        <time>2013-03-10T13:26:10Z</time>
      </trkpt>
      <trkpt lat="43.85798" lon="7.27202">
        <ele>1257</ele>
        <time>2013-03-10T13:26:11Z</time>
      </trkpt>
      <trkpt lat="43.85793" lon="7.27205">
        <ele>1256</ele>
        <time>2013-03-10T13:26:12Z</time>
      </trkpt>
      <trkpt lat="43.85788" lon="7.27208">
        <ele>1256</ele>
        <time>2013-03-10T13:26:13Z</time>
      </trkpt>
      <trkpt lat="43.85783" lon="7.27209">
        <ele>1255</ele>
        <time>2013-03-10T13:26:14Z</time>
      </trkpt>
      <trkpt lat="43.85778" lon="7.27209">
        <ele>1255</ele>
        <time>2013-03-10T13:26:15Z</time>
      </trkpt>
      <trkpt lat="43.85773" lon="7.27208">
        <ele>1254</ele>
        <time>2013-03-10T13:26:16Z</time>
      </trkpt>
      <trkpt lat="43.85767" lon="7.27207">
        <ele>1254</ele>
        <time>2013-03-10T13:26:17Z</time>
      </trkpt>
      <trkpt lat="43.85762" lon="7.27206">
        <ele>1253</ele>
        <time>2013-03-10T13:26:18Z</time>
      </trkpt>
      <trkpt lat="43.85756" lon="7.27205">
        <ele>1253</ele>
        <time>2013-03-10T13:26:19Z</time>
      </trkpt>
      <trkpt lat="43.8575" lon="7.27204">
        <ele>1252</ele>
        <time>2013-03-10T13:26:20Z</time>
      </trkpt>
      <trkpt lat="43.85744" lon="7.27205">
        <ele>1252</ele>
        <time>2013-03-10T13:26:21Z</time>
      </trkpt>
      <trkpt lat="43.85739" lon="7.27205">
        <ele>1251</ele>
        <time>2013-03-10T13:26:22Z</time>
      </trkpt>
      <trkpt lat="43.85733" lon="7.27205">
        <ele>1251</ele>
        <time>2013-03-10T13:26:23Z</time>
      </trkpt>
      <trkpt lat="43.85726" lon="7.27203">
        <ele>1250</ele>
        <time>2013-03-10T13:26:24Z</time>
      </trkpt>
      <trkpt lat="43.8572" lon="7.27201">
        <ele>1250</ele>
        <time>2013-03-10T13:26:25Z</time>
      </trkpt>
      <trkpt lat="43.85716" lon="7.272">
        <ele>1249</ele>
        <time>2013-03-10T13:26:26Z</time>
      </trkpt>
      <trkpt lat="43.85712" lon="7.27197">
        <ele>1249</ele>
        <time>2013-03-10T13:26:27Z</time>
      </trkpt>
      <trkpt lat="43.85707" lon="7.27193">
        <ele>1248</ele>
        <time>2013-03-10T13:26:28Z</time>
      </trkpt>
      <trkpt lat="43.85703" lon="7.2719">
        <ele>1247</ele>
        <time>2013-03-10T13:26:29Z</time>
      </trkpt>
      <trkpt lat="43.85698" lon="7.27188">
        <ele>1247</ele>
        <time>2013-03-10T13:26:30Z</time>
      </trkpt>
      <trkpt lat="43.85693" lon="7.27186">
        <ele>1246</ele>
        <time>2013-03-10T13:26:31Z</time>
      </trkpt>
      <trkpt lat="43.85687" lon="7.27185">
        <ele>1246</ele>
        <time>2013-03-10T13:26:32Z</time>
      </trkpt>
      <trkpt lat="43.85682" lon="7.27185">
        <ele>1245</ele>
        <time>2013-03-10T13:26:33Z</time>
      </trkpt>
      <trkpt lat="43.85676" lon="7.27186">
        <ele>1245</ele>
        <time>2013-03-10T13:26:34Z</time>
      </trkpt>
      <trkpt lat="43.85671" lon="7.27187">
        <ele>1245</ele>
        <time>2013-03-10T13:26:35Z</time>
      </trkpt>
      <trkpt lat="43.85665" lon="7.27188">
        <ele>1244</ele>
        <time>2013-03-10T13:26:36Z</time>
      </trkpt>
      <trkpt lat="43.85654" lon="7.27186">
        <ele>1244</ele>
        <time>2013-03-10T13:26:38Z</time>
      </trkpt>
      <trkpt lat="43.85649" lon="7.27183">
        <ele>1243</ele>
        <time>2013-03-10T13:26:39Z</time>
      </trkpt>
      <trkpt lat="43.85644" lon="7.27179">
        <ele>1243</ele>
        <time>2013-03-10T13:26:40Z</time>
      </trkpt>
      <trkpt lat="43.85639" lon="7.27174">
        <ele>1242</ele>
        <time>2013-03-10T13:26:41Z</time>
      </trkpt>
      <trkpt lat="43.85636" lon="7.27171">
        <ele>1242</ele>
        <time>2013-03-10T13:26:42Z</time>
      </trkpt>
      <trkpt lat="43.85635" lon="7.2717">
        <ele>1241</ele>
        <time>2013-03-10T13:26:43Z</time>
      </trkpt>
      <trkpt lat="43.85634" lon="7.27168">
        <ele>1241</ele>
        <time>2013-03-10T13:26:44Z</time>
      </trkpt>
      <trkpt lat="43.85634" lon="7.27168">
        <ele>1240</ele>
        <time>2013-03-10T13:26:45Z</time>
      </trkpt>
      <trkpt lat="43.85635" lon="7.27165">
        <ele>1237</ele>
        <time>2013-03-10T13:27:13Z</time>
      </trkpt>
      <trkpt lat="43.85635" lon="7.27161">
        <ele>1237</ele>
        <time>2013-03-10T13:27:14Z</time>
      </trkpt>
      <trkpt lat="43.85636" lon="7.27155">
        <ele>1237</ele>
        <time>2013-03-10T13:27:15Z</time>
      </trkpt>
      <trkpt lat="43.85634" lon="7.2714">
        <ele>1237</ele>
        <time>2013-03-10T13:27:17Z</time>
      </trkpt>
      <trkpt lat="43.85634" lon="7.27134">
        <ele>1236</ele>
        <time>2013-03-10T13:27:18Z</time>
      </trkpt>
      <trkpt lat="43.85635" lon="7.27131">
        <ele>1236</ele>
        <time>2013-03-10T13:27:19Z</time>
      </trkpt>
      <trkpt lat="43.85636" lon="7.2713">
        <ele>1235</ele>
        <time>2013-03-10T13:27:20Z</time>
      </trkpt>
      <trkpt lat="43.85639" lon="7.27127">
        <ele>1233</ele>
        <time>2013-03-10T13:27:21Z</time>
      </trkpt>
      <trkpt lat="43.85642" lon="7.27124">
        <ele>1233</ele>
        <time>2013-03-10T13:27:22Z</time>
      </trkpt>
      <trkpt lat="43.85645" lon="7.27119">
        <ele>1232</ele>
        <time>2013-03-10T13:27:23Z</time>
      </trkpt>
      <trkpt lat="43.85649" lon="7.27113">
        <ele>1231</ele>
        <time>2013-03-10T13:27:24Z</time>
      </trkpt>
      <trkpt lat="43.85651" lon="7.27111">
        <ele>1230</ele>
        <time>2013-03-10T13:27:25Z</time>
      </trkpt>
      <trkpt lat="43.85654" lon="7.27107">
        <ele>1230</ele>
        <time>2013-03-10T13:27:26Z</time>
      </trkpt>
      <trkpt lat="43.85655" lon="7.27103">
        <ele>1229</ele>
        <time>2013-03-10T13:27:27Z</time>
      </trkpt>
      <trkpt lat="43.85654" lon="7.27102">
        <ele>1228</ele>
        <time>2013-03-10T13:27:28Z</time>
      </trkpt>
      <trkpt lat="43.85653" lon="7.271">
        <ele>1227</ele>
        <time>2013-03-10T13:27:29Z</time>
      </trkpt>
      <trkpt lat="43.85651" lon="7.27099">
        <ele>1226</ele>
        <time>2013-03-10T13:27:30Z</time>
      </trkpt>
      <trkpt lat="43.85648" lon="7.27099">
        <ele>1226</ele>
        <time>2013-03-10T13:27:31Z</time>
      </trkpt>
      <trkpt lat="43.85644" lon="7.27097">
        <ele>1225</ele>
        <time>2013-03-10T13:27:32Z</time>
      </trkpt>
      <trkpt lat="43.85641" lon="7.27094">
        <ele>1224</ele>
        <time>2013-03-10T13:27:33Z</time>
      </trkpt>
      <trkpt lat="43.85637" lon="7.27091">
        <ele>1224</ele>
        <time>2013-03-10T13:27:34Z</time>
      </trkpt>
      <trkpt lat="43.85636" lon="7.27088">
        <ele>1223</ele>
        <time>2013-03-10T13:27:35Z</time>
      </trkpt>
      <trkpt lat="43.85636" lon="7.27085">
        <ele>1222</ele>
        <time>2013-03-10T13:27:36Z</time>
      </trkpt>
      <trkpt lat="43.85635" lon="7.27082">
        <ele>1221</ele>
        <time>2013-03-10T13:27:37Z</time>
      </trkpt>
      <trkpt lat="43.85636" lon="7.2708">
        <ele>1220</ele>
        <time>2013-03-10T13:27:38Z</time>
      </trkpt>
      <trkpt lat="43.85637" lon="7.27079">
        <ele>1220</ele>
        <time>2013-03-10T13:27:39Z</time>
      </trkpt>
      <trkpt lat="43.85639" lon="7.27078">
        <ele>1219</ele>
        <time>2013-03-10T13:27:40Z</time>
      </trkpt>
      <trkpt lat="43.85642" lon="7.27075">
        <ele>1218</ele>
        <time>2013-03-10T13:27:41Z</time>
      </trkpt>
      <trkpt lat="43.85645" lon="7.27073">
        <ele>1217</ele>
        <time>2013-03-10T13:27:42Z</time>
      </trkpt>
      <trkpt lat="43.85646" lon="7.27071">
        <ele>1216</ele>
        <time>2013-03-10T13:27:43Z</time>
      </trkpt>
      <trkpt lat="43.85646" lon="7.27068">
        <ele>1216</ele>
        <time>2013-03-10T13:27:44Z</time>
      </trkpt>
      <trkpt lat="43.85644" lon="7.27065">
        <ele>1215</ele>
        <time>2013-03-10T13:27:45Z</time>
      </trkpt>
      <trkpt lat="43.8564" lon="7.27063">
        <ele>1214</ele>
        <time>2013-03-10T13:27:46Z</time>
      </trkpt>
      <trkpt lat="43.85638" lon="7.27062">
        <ele>1214</ele>
        <time>2013-03-10T13:27:47Z</time>
      </trkpt>
      <trkpt lat="43.85637" lon="7.27061">
        <ele>1213</ele>
        <time>2013-03-10T13:27:48Z</time>
      </trkpt>
      <trkpt lat="43.85636" lon="7.27059">
        <ele>1212</ele>
        <time>2013-03-10T13:27:49Z</time>
      </trkpt>
      <trkpt lat="43.85636" lon="7.27059">
        <ele>1212</ele>
        <time>2013-03-10T13:27:50Z</time>
      </trkpt>
      <trkpt lat="43.85638" lon="7.27057">
        <ele>1211</ele>
        <time>2013-03-10T13:27:51Z</time>
      </trkpt>
      <trkpt lat="43.8564" lon="7.27056">
        <ele>1210</ele>
        <time>2013-03-10T13:27:52Z</time>
      </trkpt>
      <trkpt lat="43.8564" lon="7.27054">
        <ele>1210</ele>
        <time>2013-03-10T13:27:53Z</time>
      </trkpt>
      <trkpt lat="43.85638" lon="7.27053">
        <ele>1209</ele>
        <time>2013-03-10T13:27:54Z</time>
      </trkpt>
      <trkpt lat="43.85635" lon="7.27051">
        <ele>1209</ele>
        <time>2013-03-10T13:27:55Z</time>
      </trkpt>
      <trkpt lat="43.85632" lon="7.27048">
        <ele>1208</ele>
        <time>2013-03-10T13:27:56Z</time>
      </trkpt>
      <trkpt lat="43.85628" lon="7.27044">
        <ele>1207</ele>
        <time>2013-03-10T13:27:57Z</time>
      </trkpt>
      <trkpt lat="43.85625" lon="7.2704">
        <ele>1206</ele>
        <time>2013-03-10T13:27:58Z</time>
      </trkpt>
      <trkpt lat="43.85622" lon="7.27036">
        <ele>1206</ele>
        <time>2013-03-10T13:27:59Z</time>
      </trkpt>
      <trkpt lat="43.85619" lon="7.27032">
        <ele>1205</ele>
        <time>2013-03-10T13:28:00Z</time>
      </trkpt>
      <trkpt lat="43.85616" lon="7.27029">
        <ele>1204</ele>
        <time>2013-03-10T13:28:01Z</time>
      </trkpt>
      <trkpt lat="43.85614" lon="7.27026">
        <ele>1203</ele>
        <time>2013-03-10T13:28:02Z</time>
      </trkpt>
      <trkpt lat="43.85612" lon="7.27022">
        <ele>1202</ele>
        <time>2013-03-10T13:28:03Z</time>
      </trkpt>
      <trkpt lat="43.85609" lon="7.27019">
        <ele>1200</ele>
        <time>2013-03-10T13:28:04Z</time>
      </trkpt>
      <trkpt lat="43.85608" lon="7.27015">
        <ele>1199</ele>
        <time>2013-03-10T13:28:05Z</time>
      </trkpt>
      <trkpt lat="43.85606" lon="7.27012">
        <ele>1198</ele>
        <time>2013-03-10T13:28:06Z</time>
      </trkpt>
      <trkpt lat="43.85606" lon="7.2701">
        <ele>1197</ele>
        <time>2013-03-10T13:28:07Z</time>
      </trkpt>
      <trkpt lat="43.85605" lon="7.27007">
        <ele>1196</ele>
        <time>2013-03-10T13:28:08Z</time>
      </trkpt>
      <trkpt lat="43.85605" lon="7.27004">
        <ele>1195</ele>
        <time>2013-03-10T13:28:09Z</time>
      </trkpt>
      <trkpt lat="43.85604" lon="7.27002">
        <ele>1193</ele>
        <time>2013-03-10T13:28:10Z</time>
      </trkpt>
      <trkpt lat="43.85605" lon="7.27002">
        <ele>1192</ele>
        <time>2013-03-10T13:28:11Z</time>
      </trkpt>
      <trkpt lat="43.85607" lon="7.26999">
        <ele>1189</ele>
        <time>2013-03-10T13:28:14Z</time>
      </trkpt>
      <trkpt lat="43.8561" lon="7.26998">
        <ele>1188</ele>
        <time>2013-03-10T13:28:15Z</time>
      </trkpt>
      <trkpt lat="43.85612" lon="7.26996">
        <ele>1188</ele>
        <time>2013-03-10T13:28:16Z</time>
      </trkpt>
      <trkpt lat="43.85614" lon="7.26994">
        <ele>1187</ele>
        <time>2013-03-10T13:28:17Z</time>
      </trkpt>
      <trkpt lat="43.85616" lon="7.26993">
        <ele>1186</ele>
        <time>2013-03-10T13:28:18Z</time>
      </trkpt>
      <trkpt lat="43.85618" lon="7.26992">
        <ele>1186</ele>
        <time>2013-03-10T13:28:19Z</time>
      </trkpt>
      <trkpt lat="43.85619" lon="7.26991">
        <ele>1185</ele>
        <time>2013-03-10T13:28:20Z</time>
      </trkpt>
      <trkpt lat="43.8562" lon="7.26988">
        <ele>1184</ele>
        <time>2013-03-10T13:28:21Z</time>
      </trkpt>
      <trkpt lat="43.8562" lon="7.26986">
        <ele>1184</ele>
        <time>2013-03-10T13:28:22Z</time>
      </trkpt>
      <trkpt lat="43.8562" lon="7.26983">
        <ele>1183</ele>
        <time>2013-03-10T13:28:23Z</time>
      </trkpt>
      <trkpt lat="43.85621" lon="7.26979">
        <ele>1182</ele>
        <time>2013-03-10T13:28:24Z</time>
      </trkpt>
      <trkpt lat="43.8562" lon="7.26977">
        <ele>1181</ele>
        <time>2013-03-10T13:28:25Z</time>
      </trkpt>
      <trkpt lat="43.85619" lon="7.26975">
        <ele>1181</ele>
        <time>2013-03-10T13:28:26Z</time>
      </trkpt>
      <trkpt lat="43.85618" lon="7.26975">
        <ele>1180</ele>
        <time>2013-03-10T13:28:27Z</time>
      </trkpt>
      <trkpt lat="43.85617" lon="7.26975">
        <ele>1179</ele>
        <time>2013-03-10T13:28:28Z</time>
      </trkpt>
      <trkpt lat="43.85616" lon="7.26974">
        <ele>1178</ele>
        <time>2013-03-10T13:28:29Z</time>
      </trkpt>
      <trkpt lat="43.85615" lon="7.26973">
        <ele>1178</ele>
        <time>2013-03-10T13:28:30Z</time>
      </trkpt>
      <trkpt lat="43.85615" lon="7.26972">
        <ele>1177</ele>
        <time>2013-03-10T13:28:31Z</time>
      </trkpt>
      <trkpt lat="43.85615" lon="7.26971">
        <ele>1176</ele>
        <time>2013-03-10T13:28:32Z</time>
      </trkpt>
      <trkpt lat="43.85615" lon="7.2697">
        <ele>1176</ele>
        <time>2013-03-10T13:28:33Z</time>
      </trkpt>
      <trkpt lat="43.85615" lon="7.26968">
        <ele>1175</ele>
        <time>2013-03-10T13:28:34Z</time>
      </trkpt>
      <trkpt lat="43.85615" lon="7.26967">
        <ele>1174</ele>
        <time>2013-03-10T13:28:35Z</time>
      </trkpt>
      <trkpt lat="43.85613" lon="7.26965">
        <ele>1174</ele>
        <time>2013-03-10T13:28:36Z</time>
      </trkpt>
      <trkpt lat="43.85612" lon="7.26962">
        <ele>1173</ele>
        <time>2013-03-10T13:28:37Z</time>
      </trkpt>
      <trkpt lat="43.8561" lon="7.26961">
        <ele>1172</ele>
        <time>2013-03-10T13:28:38Z</time>
      </trkpt>
      <trkpt lat="43.85607" lon="7.26959">
        <ele>1172</ele>
        <time>2013-03-10T13:28:39Z</time>
      </trkpt>
      <trkpt lat="43.85605" lon="7.26958">
        <ele>1171</ele>
        <time>2013-03-10T13:28:40Z</time>
      </trkpt>
      <trkpt lat="43.85604" lon="7.26956">
        <ele>1171</ele>
        <time>2013-03-10T13:28:41Z</time>
      </trkpt>
      <trkpt lat="43.85604" lon="7.26956">
        <ele>1170</ele>
        <time>2013-03-10T13:28:42Z</time>
      </trkpt>
      <trkpt lat="43.85603" lon="7.26957">
        <ele>1170</ele>
        <time>2013-03-10T13:28:43Z</time>
      </trkpt>
      <trkpt lat="43.85603" lon="7.26957">
        <ele>1170</ele>
        <time>2013-03-10T13:28:44Z</time>
      </trkpt>
      <trkpt lat="43.85605" lon="7.26956">
        <ele>1168</ele>
        <time>2013-03-10T13:29:27Z</time>
      </trkpt>
      <trkpt lat="43.85603" lon="7.26952">
        <ele>1168</ele>
        <time>2013-03-10T13:29:29Z</time>
      </trkpt>
      <trkpt lat="43.85603" lon="7.26952">
        <ele>1168</ele>
        <time>2013-03-10T13:29:30Z</time>
      </trkpt>
      <trkpt lat="43.85603" lon="7.2695">
        <ele>1167</ele>
        <time>2013-03-10T13:29:31Z</time>
      </trkpt>
      <trkpt lat="43.85604" lon="7.26948">
        <ele>1167</ele>
        <time>2013-03-10T13:29:32Z</time>
      </trkpt>
      <trkpt lat="43.85605" lon="7.26946">
        <ele>1166</ele>
        <time>2013-03-10T13:29:33Z</time>
      </trkpt>
      <trkpt lat="43.85606" lon="7.26944">
        <ele>1166</ele>
        <time>2013-03-10T13:29:34Z</time>
      </trkpt>
      <trkpt lat="43.85608" lon="7.26942">
        <ele>1165</ele>
        <time>2013-03-10T13:29:35Z</time>
      </trkpt>
      <trkpt lat="43.85608" lon="7.26938">
        <ele>1165</ele>
        <time>2013-03-10T13:29:36Z</time>
      </trkpt>
      <trkpt lat="43.85609" lon="7.26936">
        <ele>1165</ele>
        <time>2013-03-10T13:29:37Z</time>
      </trkpt>
      <trkpt lat="43.8561" lon="7.26935">
        <ele>1164</ele>
        <time>2013-03-10T13:29:38Z</time>
      </trkpt>
      <trkpt lat="43.85609" lon="7.26934">
        <ele>1163</ele>
        <time>2013-03-10T13:29:39Z</time>
      </trkpt>
      <trkpt lat="43.85609" lon="7.26932">
        <ele>1163</ele>
        <time>2013-03-10T13:29:40Z</time>
      </trkpt>
      <trkpt lat="43.85608" lon="7.26932">
        <ele>1162</ele>
        <time>2013-03-10T13:29:41Z</time>
      </trkpt>
      <trkpt lat="43.85608" lon="7.26932">
        <ele>1161</ele>
        <time>2013-03-10T13:29:42Z</time>
      </trkpt>
      <trkpt lat="43.85604" lon="7.26929">
        <ele>1161</ele>
        <time>2013-03-10T13:29:44Z</time>
      </trkpt>
      <trkpt lat="43.85603" lon="7.26927">
        <ele>1160</ele>
        <time>2013-03-10T13:29:45Z</time>
      </trkpt>
      <trkpt lat="43.85603" lon="7.26925">
        <ele>1160</ele>
        <time>2013-03-10T13:29:46Z</time>
      </trkpt>
      <trkpt lat="43.85604" lon="7.26924">
        <ele>1160</ele>
        <time>2013-03-10T13:29:47Z</time>
      </trkpt>
      <trkpt lat="43.85604" lon="7.26923">
        <ele>1159</ele>
        <time>2013-03-10T13:29:48Z</time>
      </trkpt>
      <trkpt lat="43.85606" lon="7.26923">
        <ele>1158</ele>
        <time>2013-03-10T13:29:49Z</time>
      </trkpt>
      <trkpt lat="43.85607" lon="7.26922">
        <ele>1158</ele>
        <time>2013-03-10T13:29:50Z</time>
      </trkpt>
      <trkpt lat="43.85607" lon="7.26921">
        <ele>1158</ele>
        <time>2013-03-10T13:29:51Z</time>
      </trkpt>
      <trkpt lat="43.8561" lon="7.26917">
        <ele>1155</ele>
        <time>2013-03-10T13:31:27Z</time>
      </trkpt>
      <trkpt lat="43.85613" lon="7.26915">
        <ele>1155</ele>
        <time>2013-03-10T13:31:29Z</time>
      </trkpt>
      <trkpt lat="43.85615" lon="7.26914">
        <ele>1155</ele>
        <time>2013-03-10T13:31:30Z</time>
      </trkpt>
      <trkpt lat="43.85616" lon="7.26911">
        <ele>1154</ele>
        <time>2013-03-10T13:31:31Z</time>
      </trkpt>
      <trkpt lat="43.85616" lon="7.26907">
        <ele>1154</ele>
        <time>2013-03-10T13:31:32Z</time>
      </trkpt>
      <trkpt lat="43.85616" lon="7.26904">
        <ele>1153</ele>
        <time>2013-03-10T13:31:33Z</time>
      </trkpt>
      <trkpt lat="43.85616" lon="7.269">
        <ele>1153</ele>
        <time>2013-03-10T13:31:34Z</time>
      </trkpt>
      <trkpt lat="43.85617" lon="7.26896">
        <ele>1152</ele>
        <time>2013-03-10T13:31:35Z</time>
      </trkpt>
      <trkpt lat="43.85617" lon="7.26894">
        <ele>1152</ele>
        <time>2013-03-10T13:31:36Z</time>
      </trkpt>
      <trkpt lat="43.85617" lon="7.26894">
        <ele>1151</ele>
        <time>2013-03-10T13:31:37Z</time>
      </trkpt>
      <trkpt lat="43.85618" lon="7.26894">
        <ele>1150</ele>
        <time>2013-03-10T13:31:38Z</time>
      </trkpt>
      <trkpt lat="43.8562" lon="7.26894">
        <ele>1150</ele>
        <time>2013-03-10T13:31:39Z</time>
      </trkpt>
      <trkpt lat="43.85623" lon="7.26894">
        <ele>1149</ele>
        <time>2013-03-10T13:31:40Z</time>
      </trkpt>
      <trkpt lat="43.85627" lon="7.26893">
        <ele>1148</ele>
        <time>2013-03-10T13:31:41Z</time>
      </trkpt>
      <trkpt lat="43.8563" lon="7.26892">
        <ele>1148</ele>
        <time>2013-03-10T13:31:42Z</time>
      </trkpt>
      <trkpt lat="43.85633" lon="7.2689">
        <ele>1147</ele>
        <time>2013-03-10T13:31:43Z</time>
      </trkpt>
      <trkpt lat="43.85634" lon="7.2689">
        <ele>1147</ele>
        <time>2013-03-10T13:31:44Z</time>
      </trkpt>
      <trkpt lat="43.85633" lon="7.2689">
        <ele>1146</ele>
        <time>2013-03-10T13:31:45Z</time>
      </trkpt>
      <trkpt lat="43.85632" lon="7.26889">
        <ele>1145</ele>
        <time>2013-03-10T13:31:46Z</time>
      </trkpt>
      <trkpt lat="43.85631" lon="7.26887">
        <ele>1145</ele>
        <time>2013-03-10T13:31:47Z</time>
      </trkpt>
      <trkpt lat="43.8563" lon="7.26885">
        <ele>1144</ele>
        <time>2013-03-10T13:31:48Z</time>
      </trkpt>
      <trkpt lat="43.85628" lon="7.26882">
        <ele>1144</ele>
        <time>2013-03-10T13:31:49Z</time>
      </trkpt>
      <trkpt lat="43.85626" lon="7.26879">
        <ele>1143</ele>
        <time>2013-03-10T13:31:50Z</time>
      </trkpt>
      <trkpt lat="43.85626" lon="7.26878">
        <ele>1143</ele>
        <time>2013-03-10T13:31:51Z</time>
      </trkpt>
      <trkpt lat="43.85626" lon="7.26878">
        <ele>1142</ele>
        <time>2013-03-10T13:31:52Z</time>
      </trkpt>
      <trkpt lat="43.85628" lon="7.26875">
        <ele>1140</ele>
        <time>2013-03-10T13:31:58Z</time>
      </trkpt>
      <trkpt lat="43.85625" lon="7.2687">
        <ele>1139</ele>
        <time>2013-03-10T13:32:01Z</time>
      </trkpt>
      <trkpt lat="43.85623" lon="7.26868">
        <ele>1139</ele>
        <time>2013-03-10T13:32:02Z</time>
      </trkpt>
      <trkpt lat="43.85621" lon="7.26865">
        <ele>1138</ele>
        <time>2013-03-10T13:32:03Z</time>
      </trkpt>
      <trkpt lat="43.8562" lon="7.26863">
        <ele>1138</ele>
        <time>2013-03-10T13:32:04Z</time>
      </trkpt>
      <trkpt lat="43.85618" lon="7.2686">
        <ele>1137</ele>
        <time>2013-03-10T13:32:05Z</time>
      </trkpt>
      <trkpt lat="43.85617" lon="7.26858">
        <ele>1137</ele>
        <time>2013-03-10T13:32:06Z</time>
      </trkpt>
      <trkpt lat="43.85616" lon="7.26858">
        <ele>1136</ele>
        <time>2013-03-10T13:32:07Z</time>
      </trkpt>
      <trkpt lat="43.85616" lon="7.26857">
        <ele>1135</ele>
        <time>2013-03-10T13:32:08Z</time>
      </trkpt>
      <trkpt lat="43.85616" lon="7.26857">
        <ele>1135</ele>
        <time>2013-03-10T13:32:09Z</time>
      </trkpt>
      <trkpt lat="43.85617" lon="7.26854">
        <ele>1133</ele>
        <time>2013-03-10T13:32:46Z</time>
      </trkpt>
      <trkpt lat="43.8562" lon="7.26853">
        <ele>1133</ele>
        <time>2013-03-10T13:32:48Z</time>
      </trkpt>
      <trkpt lat="43.85632" lon="7.26851">
        <ele>1132</ele>
        <time>2013-03-10T13:32:52Z</time>
      </trkpt>
      <trkpt lat="43.85636" lon="7.26848">
        <ele>1132</ele>
        <time>2013-03-10T13:32:53Z</time>
      </trkpt>
      <trkpt lat="43.8564" lon="7.26846">
        <ele>1131</ele>
        <time>2013-03-10T13:32:54Z</time>
      </trkpt>
      <trkpt lat="43.85643" lon="7.26845">
        <ele>1131</ele>
        <time>2013-03-10T13:32:55Z</time>
      </trkpt>
      <trkpt lat="43.85646" lon="7.26845">
        <ele>1130</ele>
        <time>2013-03-10T13:32:56Z</time>
      </trkpt>
      <trkpt lat="43.8565" lon="7.26844">
        <ele>1129</ele>
        <time>2013-03-10T13:32:57Z</time>
      </trkpt>
      <trkpt lat="43.85652" lon="7.26843">
        <ele>1129</ele>
        <time>2013-03-10T13:32:58Z</time>
      </trkpt>
      <trkpt lat="43.85655" lon="7.26842">
        <ele>1128</ele>
        <time>2013-03-10T13:32:59Z</time>
      </trkpt>
      <trkpt lat="43.85658" lon="7.26842">
        <ele>1128</ele>
        <time>2013-03-10T13:33:00Z</time>
      </trkpt>
      <trkpt lat="43.8566" lon="7.26842">
        <ele>1127</ele>
        <time>2013-03-10T13:33:01Z</time>
      </trkpt>
      <trkpt lat="43.85663" lon="7.26841">
        <ele>1127</ele>
        <time>2013-03-10T13:33:02Z</time>
      </trkpt>
      <trkpt lat="43.85666" lon="7.26841">
        <ele>1126</ele>
        <time>2013-03-10T13:33:03Z</time>
      </trkpt>
      <trkpt lat="43.85677" lon="7.26841">
        <ele>1126</ele>
        <time>2013-03-10T13:33:06Z</time>
      </trkpt>
      <trkpt lat="43.85689" lon="7.26838">
        <ele>1126</ele>
        <time>2013-03-10T13:33:11Z</time>
      </trkpt>
      <trkpt lat="43.85693" lon="7.26838">
        <ele>1125</ele>
        <time>2013-03-10T13:33:12Z</time>
      </trkpt>
      <trkpt lat="43.85697" lon="7.26837">
        <ele>1125</ele>
        <time>2013-03-10T13:33:13Z</time>
      </trkpt>
      <trkpt lat="43.857" lon="7.26836">
        <ele>1124</ele>
        <time>2013-03-10T13:33:14Z</time>
      </trkpt>
      <trkpt lat="43.85703" lon="7.26834">
        <ele>1124</ele>
        <time>2013-03-10T13:33:15Z</time>
      </trkpt>
      <trkpt lat="43.85707" lon="7.26832">
        <ele>1123</ele>
        <time>2013-03-10T13:33:16Z</time>
      </trkpt>
      <trkpt lat="43.85711" lon="7.26828">
        <ele>1123</ele>
        <time>2013-03-10T13:33:17Z</time>
      </trkpt>
      <trkpt lat="43.85715" lon="7.26825">
        <ele>1122</ele>
        <time>2013-03-10T13:33:18Z</time>
      </trkpt>
      <trkpt lat="43.85719" lon="7.26821">
        <ele>1122</ele>
        <time>2013-03-10T13:33:19Z</time>
      </trkpt>
      <trkpt lat="43.85723" lon="7.26819">
        <ele>1121</ele>
        <time>2013-03-10T13:33:20Z</time>
      </trkpt>
      <trkpt lat="43.85726" lon="7.26819">
        <ele>1121</ele>
        <time>2013-03-10T13:33:21Z</time>
      </trkpt>
      <trkpt lat="43.85728" lon="7.26819">
        <ele>1120</ele>
        <time>2013-03-10T13:33:22Z</time>
      </trkpt>
      <trkpt lat="43.8573" lon="7.26819">
        <ele>1120</ele>
        <time>2013-03-10T13:33:23Z</time>
      </trkpt>
      <trkpt lat="43.85733" lon="7.26817">
        <ele>1119</ele>
        <time>2013-03-10T13:33:24Z</time>
      </trkpt>
      <trkpt lat="43.85735" lon="7.26816">
        <ele>1119</ele>
        <time>2013-03-10T13:33:25Z</time>
      </trkpt>
      <trkpt lat="43.85736" lon="7.26814">
        <ele>1118</ele>
        <time>2013-03-10T13:33:26Z</time>
      </trkpt>
      <trkpt lat="43.85738" lon="7.26812">
        <ele>1118</ele>
        <time>2013-03-10T13:33:27Z</time>
      </trkpt>
      <trkpt lat="43.85742" lon="7.2681">
        <ele>1117</ele>
        <time>2013-03-10T13:33:28Z</time>
      </trkpt>
      <trkpt lat="43.85745" lon="7.26809">
        <ele>1117</ele>
        <time>2013-03-10T13:33:29Z</time>
      </trkpt>
      <trkpt lat="43.85748" lon="7.26809">
        <ele>1116</ele>
        <time>2013-03-10T13:33:30Z</time>
      </trkpt>
      <trkpt lat="43.85752" lon="7.26808">
        <ele>1115</ele>
        <time>2013-03-10T13:33:31Z</time>
      </trkpt>
      <trkpt lat="43.85756" lon="7.26806">
        <ele>1115</ele>
        <time>2013-03-10T13:33:32Z</time>
      </trkpt>
      <trkpt lat="43.85762" lon="7.26806">
        <ele>1115</ele>
        <time>2013-03-10T13:33:34Z</time>
      </trkpt>
      <trkpt lat="43.8577" lon="7.26807">
        <ele>1115</ele>
        <time>2013-03-10T13:33:38Z</time>
      </trkpt>
      <trkpt lat="43.85771" lon="7.26807">
        <ele>1115</ele>
        <time>2013-03-10T13:33:39Z</time>
      </trkpt>
      <trkpt lat="43.85782" lon="7.26808">
        <ele>1115</ele>
        <time>2013-03-10T13:33:43Z</time>
      </trkpt>
      <trkpt lat="43.85785" lon="7.26808">
        <ele>1115</ele>
        <time>2013-03-10T13:33:44Z</time>
      </trkpt>
      <trkpt lat="43.85793" lon="7.26806">
        <ele>1115</ele>
        <time>2013-03-10T13:33:47Z</time>
      </trkpt>
      <trkpt lat="43.85795" lon="7.26803">
        <ele>1115</ele>
        <time>2013-03-10T13:33:48Z</time>
      </trkpt>
      <trkpt lat="43.85805" lon="7.26797">
        <ele>1114</ele>
        <time>2013-03-10T13:33:51Z</time>
      </trkpt>
      <trkpt lat="43.8581" lon="7.26795">
        <ele>1114</ele>
        <time>2013-03-10T13:33:52Z</time>
      </trkpt>
      <trkpt lat="43.85815" lon="7.26793">
        <ele>1113</ele>
        <time>2013-03-10T13:33:53Z</time>
      </trkpt>
      <trkpt lat="43.8582" lon="7.26792">
        <ele>1113</ele>
        <time>2013-03-10T13:33:54Z</time>
      </trkpt>
      <trkpt lat="43.85824" lon="7.26792">
        <ele>1112</ele>
        <time>2013-03-10T13:33:55Z</time>
      </trkpt>
      <trkpt lat="43.85828" lon="7.26793">
        <ele>1111</ele>
        <time>2013-03-10T13:33:56Z</time>
      </trkpt>
      <trkpt lat="43.8583" lon="7.26792">
        <ele>1111</ele>
        <time>2013-03-10T13:33:57Z</time>
      </trkpt>
      <trkpt lat="43.85832" lon="7.26792">
        <ele>1110</ele>
        <time>2013-03-10T13:33:58Z</time>
      </trkpt>
      <trkpt lat="43.85834" lon="7.26792">
        <ele>1110</ele>
        <time>2013-03-10T13:33:59Z</time>
      </trkpt>
      <trkpt lat="43.85843" lon="7.26789">
        <ele>1110</ele>
        <time>2013-03-10T13:34:04Z</time>
      </trkpt>
      <trkpt lat="43.85848" lon="7.2679">
        <ele>1110</ele>
        <time>2013-03-10T13:34:08Z</time>
      </trkpt>
      <trkpt lat="43.8585" lon="7.26793">
        <ele>1110</ele>
        <time>2013-03-10T13:34:10Z</time>
      </trkpt>
      <trkpt lat="43.85854" lon="7.26792">
        <ele>1110</ele>
        <time>2013-03-10T13:34:12Z</time>
      </trkpt>
      <trkpt lat="43.85864" lon="7.26788">
        <ele>1110</ele>
        <time>2013-03-10T13:34:16Z</time>
      </trkpt>
      <trkpt lat="43.85867" lon="7.26787">
        <ele>1110</ele>
        <time>2013-03-10T13:34:17Z</time>
      </trkpt>
      <trkpt lat="43.85881" lon="7.26783">
        <ele>1110</ele>
        <time>2013-03-10T13:34:22Z</time>
      </trkpt>
      <trkpt lat="43.85886" lon="7.26777">
        <ele>1110</ele>
        <time>2013-03-10T13:34:24Z</time>
      </trkpt>
      <trkpt lat="43.85888" lon="7.26774">
        <ele>1109</ele>
        <time>2013-03-10T13:34:25Z</time>
      </trkpt>
      <trkpt lat="43.85891" lon="7.26772">
        <ele>1109</ele>
        <time>2013-03-10T13:34:26Z</time>
      </trkpt>
      <trkpt lat="43.85894" lon="7.26771">
        <ele>1108</ele>
        <time>2013-03-10T13:34:27Z</time>
      </trkpt>
      <trkpt lat="43.85897" lon="7.2677">
        <ele>1107</ele>
        <time>2013-03-10T13:34:28Z</time>
      </trkpt>
      <trkpt lat="43.859" lon="7.2677">
        <ele>1107</ele>
        <time>2013-03-10T13:34:29Z</time>
      </trkpt>
      <trkpt lat="43.85903" lon="7.26771">
        <ele>1106</ele>
        <time>2013-03-10T13:34:30Z</time>
      </trkpt>
      <trkpt lat="43.85906" lon="7.26773">
        <ele>1105</ele>
        <time>2013-03-10T13:34:31Z</time>
      </trkpt>
      <trkpt lat="43.8591" lon="7.26774">
        <ele>1105</ele>
        <time>2013-03-10T13:34:32Z</time>
      </trkpt>
      <trkpt lat="43.85914" lon="7.26777">
        <ele>1104</ele>
        <time>2013-03-10T13:34:33Z</time>
      </trkpt>
      <trkpt lat="43.85919" lon="7.26781">
        <ele>1103</ele>
        <time>2013-03-10T13:34:34Z</time>
      </trkpt>
      <trkpt lat="43.85924" lon="7.26784">
        <ele>1102</ele>
        <time>2013-03-10T13:34:35Z</time>
      </trkpt>
      <trkpt lat="43.85929" lon="7.26784">
        <ele>1102</ele>
        <time>2013-03-10T13:34:36Z</time>
      </trkpt>
      <trkpt lat="43.85934" lon="7.26785">
        <ele>1101</ele>
        <time>2013-03-10T13:34:37Z</time>
      </trkpt>
      <trkpt lat="43.85939" lon="7.26785">
        <ele>1100</ele>
        <time>2013-03-10T13:34:38Z</time>
      </trkpt>
      <trkpt lat="43.85944" lon="7.26785">
        <ele>1100</ele>
        <time>2013-03-10T13:34:39Z</time>
      </trkpt>
      <trkpt lat="43.85948" lon="7.26785">
        <ele>1099</ele>
        <time>2013-03-10T13:34:40Z</time>
      </trkpt>
      <trkpt lat="43.85951" lon="7.26784">
        <ele>1098</ele>
        <time>2013-03-10T13:34:41Z</time>
      </trkpt>
      <trkpt lat="43.85954" lon="7.26784">
        <ele>1098</ele>
        <time>2013-03-10T13:34:42Z</time>
      </trkpt>
      <trkpt lat="43.8597" lon="7.26782">
        <ele>1098</ele>
        <time>2013-03-10T13:34:47Z</time>
      </trkpt>
      <trkpt lat="43.85981" lon="7.26783">
        <ele>1098</ele>
        <time>2013-03-10T13:34:51Z</time>
      </trkpt>
      <trkpt lat="43.85985" lon="7.26783">
        <ele>1098</ele>
        <time>2013-03-10T13:34:54Z</time>
      </trkpt>
      <trkpt lat="43.85987" lon="7.26782">
        <ele>1099</ele>
        <time>2013-03-10T13:34:55Z</time>
      </trkpt>
      <trkpt lat="43.85988" lon="7.26782">
        <ele>1099</ele>
        <time>2013-03-10T13:34:56Z</time>
      </trkpt>
      <trkpt lat="43.85988" lon="7.26782">
        <ele>1099</ele>
        <time>2013-03-10T13:34:57Z</time>
      </trkpt>
      <trkpt lat="43.85989" lon="7.26781">
        <ele>1100</ele>
        <time>2013-03-10T13:34:58Z</time>
      </trkpt>
      <trkpt lat="43.8599" lon="7.26779">
        <ele>1100</ele>
        <time>2013-03-10T13:36:30Z</time>
      </trkpt>
      <trkpt lat="43.85994" lon="7.26776">
        <ele>1100</ele>
        <time>2013-03-10T13:36:32Z</time>
      </trkpt>
      <trkpt lat="43.85999" lon="7.26772">
        <ele>1100</ele>
        <time>2013-03-10T13:36:34Z</time>
      </trkpt>
      <trkpt lat="43.86005" lon="7.26771">
        <ele>1100</ele>
        <time>2013-03-10T13:36:36Z</time>
      </trkpt>
      <trkpt lat="43.86008" lon="7.26772">
        <ele>1099</ele>
        <time>2013-03-10T13:36:37Z</time>
      </trkpt>
      <trkpt lat="43.86011" lon="7.2677">
        <ele>1099</ele>
        <time>2013-03-10T13:36:38Z</time>
      </trkpt>
      <trkpt lat="43.86014" lon="7.26769">
        <ele>1099</ele>
        <time>2013-03-10T13:36:39Z</time>
      </trkpt>
      <trkpt lat="43.86016" lon="7.26767">
        <ele>1098</ele>
        <time>2013-03-10T13:36:40Z</time>
      </trkpt>
      <trkpt lat="43.86019" lon="7.26766">
        <ele>1098</ele>
        <time>2013-03-10T13:36:41Z</time>
      </trkpt>
      <trkpt lat="43.86022" lon="7.26765">
        <ele>1097</ele>
        <time>2013-03-10T13:36:42Z</time>
      </trkpt>
      <trkpt lat="43.86025" lon="7.26764">
        <ele>1097</ele>
        <time>2013-03-10T13:36:43Z</time>
      </trkpt>
      <trkpt lat="43.86028" lon="7.26762">
        <ele>1096</ele>
        <time>2013-03-10T13:36:44Z</time>
      </trkpt>
      <trkpt lat="43.86032" lon="7.26761">
        <ele>1095</ele>
        <time>2013-03-10T13:36:45Z</time>
      </trkpt>
      <trkpt lat="43.86036" lon="7.26759">
        <ele>1095</ele>
        <time>2013-03-10T13:36:46Z</time>
      </trkpt>
      <trkpt lat="43.8604" lon="7.26757">
        <ele>1094</ele>
        <time>2013-03-10T13:36:47Z</time>
      </trkpt>
      <trkpt lat="43.86046" lon="7.26756">
        <ele>1092</ele>
        <time>2013-03-10T13:36:48Z</time>
      </trkpt>
      <trkpt lat="43.86051" lon="7.26755">
        <ele>1091</ele>
        <time>2013-03-10T13:36:49Z</time>
      </trkpt>
      <trkpt lat="43.86056" lon="7.26754">
        <ele>1091</ele>
        <time>2013-03-10T13:36:50Z</time>
      </trkpt>
      <trkpt lat="43.8606" lon="7.26752">
        <ele>1090</ele>
        <time>2013-03-10T13:36:51Z</time>
      </trkpt>
      <trkpt lat="43.86064" lon="7.26751">
        <ele>1089</ele>
        <time>2013-03-10T13:36:52Z</time>
      </trkpt>
      <trkpt lat="43.86068" lon="7.26749">
        <ele>1088</ele>
        <time>2013-03-10T13:36:53Z</time>
      </trkpt>
      <trkpt lat="43.86073" lon="7.26747">
        <ele>1088</ele>
        <time>2013-03-10T13:36:54Z</time>
      </trkpt>
      <trkpt lat="43.86076" lon="7.26745">
        <ele>1087</ele>
        <time>2013-03-10T13:36:55Z</time>
      </trkpt>
      <trkpt lat="43.8608" lon="7.26742">
        <ele>1087</ele>
        <time>2013-03-10T13:36:56Z</time>
      </trkpt>
      <trkpt lat="43.86084" lon="7.26741">
        <ele>1086</ele>
        <time>2013-03-10T13:36:57Z</time>
      </trkpt>
      <trkpt lat="43.86087" lon="7.2674">
        <ele>1085</ele>
        <time>2013-03-10T13:36:58Z</time>
      </trkpt>
      <trkpt lat="43.8609" lon="7.2674">
        <ele>1084</ele>
        <time>2013-03-10T13:36:59Z</time>
      </trkpt>
      <trkpt lat="43.86093" lon="7.2674">
        <ele>1084</ele>
        <time>2013-03-10T13:37:00Z</time>
      </trkpt>
      <trkpt lat="43.86096" lon="7.26739">
        <ele>1083</ele>
        <time>2013-03-10T13:37:01Z</time>
      </trkpt>
      <trkpt lat="43.86099" lon="7.26738">
        <ele>1083</ele>
        <time>2013-03-10T13:37:02Z</time>
      </trkpt>
      <trkpt lat="43.86103" lon="7.26737">
        <ele>1082</ele>
        <time>2013-03-10T13:37:03Z</time>
      </trkpt>
      <trkpt lat="43.86106" lon="7.26737">
        <ele>1082</ele>
        <time>2013-03-10T13:37:04Z</time>
      </trkpt>
      <trkpt lat="43.86108" lon="7.26737">
        <ele>1082</ele>
        <time>2013-03-10T13:37:05Z</time>
      </trkpt>
      <trkpt lat="43.8611" lon="7.26738">
        <ele>1082</ele>
        <time>2013-03-10T13:37:06Z</time>
      </trkpt>
      <trkpt lat="43.86113" lon="7.26738">
        <ele>1081</ele>
        <time>2013-03-10T13:37:08Z</time>
      </trkpt>
      <trkpt lat="43.86114" lon="7.26738">
        <ele>1081</ele>
        <time>2013-03-10T13:37:09Z</time>
      </trkpt>
      <trkpt lat="43.86116" lon="7.26734">
        <ele>1080</ele>
        <time>2013-03-10T13:37:10Z</time>
      </trkpt>
      <trkpt lat="43.86118" lon="7.26732">
        <ele>1080</ele>
        <time>2013-03-10T13:37:11Z</time>
      </trkpt>
      <trkpt lat="43.86118" lon="7.26731">
        <ele>1079</ele>
        <time>2013-03-10T13:37:12Z</time>
      </trkpt>
      <trkpt lat="43.86119" lon="7.26729">
        <ele>1079</ele>
        <time>2013-03-10T13:37:13Z</time>
      </trkpt>
      <trkpt lat="43.8612" lon="7.26727">
        <ele>1078</ele>
        <time>2013-03-10T13:37:14Z</time>
      </trkpt>
      <trkpt lat="43.86121" lon="7.26725">
        <ele>1078</ele>
        <time>2013-03-10T13:37:15Z</time>
      </trkpt>
      <trkpt lat="43.86124" lon="7.26723">
        <ele>1077</ele>
        <time>2013-03-10T13:37:16Z</time>
      </trkpt>
      <trkpt lat="43.86127" lon="7.26722">
        <ele>1077</ele>
        <time>2013-03-10T13:37:17Z</time>
      </trkpt>
      <trkpt lat="43.8613" lon="7.26723">
        <ele>1076</ele>
        <time>2013-03-10T13:37:18Z</time>
      </trkpt>
      <trkpt lat="43.86133" lon="7.26722">
        <ele>1076</ele>
        <time>2013-03-10T13:37:19Z</time>
      </trkpt>
      <trkpt lat="43.86134" lon="7.26721">
        <ele>1075</ele>
        <time>2013-03-10T13:37:20Z</time>
      </trkpt>
      <trkpt lat="43.8614" lon="7.2672">
        <ele>1075</ele>
        <time>2013-03-10T13:37:22Z</time>
      </trkpt>
      <trkpt lat="43.86147" lon="7.26718">
        <ele>1075</ele>
        <time>2013-03-10T13:37:25Z</time>
      </trkpt>
      <trkpt lat="43.8615" lon="7.26716">
        <ele>1075</ele>
        <time>2013-03-10T13:37:26Z</time>
      </trkpt>
      <trkpt lat="43.86159" lon="7.26711">
        <ele>1075</ele>
        <time>2013-03-10T13:37:28Z</time>
      </trkpt>
      <trkpt lat="43.8617" lon="7.26712">
        <ele>1075</ele>
        <time>2013-03-10T13:37:30Z</time>
      </trkpt>
      <trkpt lat="43.86173" lon="7.26712">
        <ele>1074</ele>
        <time>2013-03-10T13:37:31Z</time>
      </trkpt>
      <trkpt lat="43.86175" lon="7.26709">
        <ele>1074</ele>
        <time>2013-03-10T13:37:32Z</time>
      </trkpt>
      <trkpt lat="43.86177" lon="7.26707">
        <ele>1073</ele>
        <time>2013-03-10T13:37:33Z</time>
      </trkpt>
      <trkpt lat="43.86179" lon="7.26705">
        <ele>1073</ele>
        <time>2013-03-10T13:37:34Z</time>
      </trkpt>
      <trkpt lat="43.8618" lon="7.26704">
        <ele>1073</ele>
        <time>2013-03-10T13:37:36Z</time>
      </trkpt>
      <trkpt lat="43.86186" lon="7.26695">
        <ele>1064</ele>
        <time>2013-03-10T13:39:22Z</time>
      </trkpt>
      <trkpt lat="43.86198" lon="7.26689">
        <ele>1064</ele>
        <time>2013-03-10T13:39:26Z</time>
      </trkpt>
      <trkpt lat="43.86212" lon="7.26684">
        <ele>1064</ele>
        <time>2013-03-10T13:39:31Z</time>
      </trkpt>
      <trkpt lat="43.86215" lon="7.26683">
        <ele>1064</ele>
        <time>2013-03-10T13:39:33Z</time>
      </trkpt>
      <trkpt lat="43.86217" lon="7.26682">
        <ele>1064</ele>
        <time>2013-03-10T13:39:36Z</time>
      </trkpt>
      <trkpt lat="43.8622" lon="7.26679">
        <ele>1064</ele>
        <time>2013-03-10T13:39:55Z</time>
      </trkpt>
      <trkpt lat="43.86224" lon="7.26671">
        <ele>1064</ele>
        <time>2013-03-10T13:39:57Z</time>
      </trkpt>
      <trkpt lat="43.8623" lon="7.26659">
        <ele>1064</ele>
        <time>2013-03-10T13:40:00Z</time>
      </trkpt>
      <trkpt lat="43.86232" lon="7.26654">
        <ele>1063</ele>
        <time>2013-03-10T13:40:01Z</time>
      </trkpt>
      <trkpt lat="43.86235" lon="7.2665">
        <ele>1062</ele>
        <time>2013-03-10T13:40:02Z</time>
      </trkpt>
      <trkpt lat="43.86237" lon="7.26647">
        <ele>1062</ele>
        <time>2013-03-10T13:40:03Z</time>
      </trkpt>
      <trkpt lat="43.86239" lon="7.26643">
        <ele>1061</ele>
        <time>2013-03-10T13:40:04Z</time>
      </trkpt>
      <trkpt lat="43.86241" lon="7.2664">
        <ele>1060</ele>
        <time>2013-03-10T13:40:05Z</time>
      </trkpt>
      <trkpt lat="43.86243" lon="7.26636">
        <ele>1059</ele>
        <time>2013-03-10T13:40:06Z</time>
      </trkpt>
      <trkpt lat="43.86245" lon="7.26633">
        <ele>1058</ele>
        <time>2013-03-10T13:40:07Z</time>
      </trkpt>
      <trkpt lat="43.86247" lon="7.26629">
        <ele>1057</ele>
        <time>2013-03-10T13:40:08Z</time>
      </trkpt>
      <trkpt lat="43.86249" lon="7.26624">
        <ele>1057</ele>
        <time>2013-03-10T13:40:09Z</time>
      </trkpt>
      <trkpt lat="43.86251" lon="7.2662">
        <ele>1056</ele>
        <time>2013-03-10T13:40:10Z</time>
      </trkpt>
      <trkpt lat="43.86252" lon="7.26617">
        <ele>1055</ele>
        <time>2013-03-10T13:40:11Z</time>
      </trkpt>
      <trkpt lat="43.86254" lon="7.26615">
        <ele>1055</ele>
        <time>2013-03-10T13:40:12Z</time>
      </trkpt>
      <trkpt lat="43.86256" lon="7.26613">
        <ele>1054</ele>
        <time>2013-03-10T13:40:13Z</time>
      </trkpt>
      <trkpt lat="43.86259" lon="7.26611">
        <ele>1053</ele>
        <time>2013-03-10T13:40:14Z</time>
      </trkpt>
      <trkpt lat="43.86261" lon="7.26609">
        <ele>1053</ele>
        <time>2013-03-10T13:40:15Z</time>
      </trkpt>
      <trkpt lat="43.86263" lon="7.26607">
        <ele>1052</ele>
        <time>2013-03-10T13:40:16Z</time>
      </trkpt>
      <trkpt lat="43.86266" lon="7.26604">
        <ele>1051</ele>
        <time>2013-03-10T13:40:17Z</time>
      </trkpt>
      <trkpt lat="43.86268" lon="7.26602">
        <ele>1051</ele>
        <time>2013-03-10T13:40:18Z</time>
      </trkpt>
      <trkpt lat="43.86271" lon="7.26601">
        <ele>1050</ele>
        <time>2013-03-10T13:40:19Z</time>
      </trkpt>
      <trkpt lat="43.86273" lon="7.266">
        <ele>1050</ele>
        <time>2013-03-10T13:40:20Z</time>
      </trkpt>
      <trkpt lat="43.86275" lon="7.26597">
        <ele>1050</ele>
        <time>2013-03-10T13:40:21Z</time>
      </trkpt>
      <trkpt lat="43.86277" lon="7.26596">
        <ele>1049</ele>
        <time>2013-03-10T13:40:22Z</time>
      </trkpt>
      <trkpt lat="43.86279" lon="7.26593">
        <ele>1049</ele>
        <time>2013-03-10T13:40:23Z</time>
      </trkpt>
      <trkpt lat="43.86281" lon="7.26591">
        <ele>1049</ele>
        <time>2013-03-10T13:40:24Z</time>
      </trkpt>
      <trkpt lat="43.86283" lon="7.26588">
        <ele>1048</ele>
        <time>2013-03-10T13:40:25Z</time>
      </trkpt>
      <trkpt lat="43.86285" lon="7.26585">
        <ele>1048</ele>
        <time>2013-03-10T13:40:26Z</time>
      </trkpt>
      <trkpt lat="43.86289" lon="7.26577">
        <ele>1048</ele>
        <time>2013-03-10T13:40:29Z</time>
      </trkpt>
      <trkpt lat="43.86291" lon="7.26574">
        <ele>1047</ele>
        <time>2013-03-10T13:40:30Z</time>
      </trkpt>
      <trkpt lat="43.86292" lon="7.26571">
        <ele>1046</ele>
        <time>2013-03-10T13:40:31Z</time>
      </trkpt>
      <trkpt lat="43.86294" lon="7.26568">
        <ele>1046</ele>
        <time>2013-03-10T13:40:32Z</time>
      </trkpt>
      <trkpt lat="43.86296" lon="7.26564">
        <ele>1046</ele>
        <time>2013-03-10T13:40:33Z</time>
      </trkpt>
      <trkpt lat="43.86298" lon="7.2656">
        <ele>1045</ele>
        <time>2013-03-10T13:40:34Z</time>
      </trkpt>
      <trkpt lat="43.863" lon="7.26557">
        <ele>1045</ele>
        <time>2013-03-10T13:40:35Z</time>
      </trkpt>
      <trkpt lat="43.86302" lon="7.26553">
        <ele>1044</ele>
        <time>2013-03-10T13:40:36Z</time>
      </trkpt>
      <trkpt lat="43.86304" lon="7.2655">
        <ele>1044</ele>
        <time>2013-03-10T13:40:37Z</time>
      </trkpt>
      <trkpt lat="43.86304" lon="7.26547">
        <ele>1043</ele>
        <time>2013-03-10T13:40:38Z</time>
      </trkpt>
      <trkpt lat="43.86304" lon="7.26544">
        <ele>1043</ele>
        <time>2013-03-10T13:40:39Z</time>
      </trkpt>
      <trkpt lat="43.86304" lon="7.26542">
        <ele>1042</ele>
        <time>2013-03-10T13:40:40Z</time>
      </trkpt>
      <trkpt lat="43.86303" lon="7.26541">
        <ele>1042</ele>
        <time>2013-03-10T13:40:41Z</time>
      </trkpt>
      <trkpt lat="43.86301" lon="7.26542">
        <ele>1041</ele>
        <time>2013-03-10T13:40:42Z</time>
      </trkpt>
      <trkpt lat="43.86301" lon="7.26542">
        <ele>1041</ele>
        <time>2013-03-10T13:40:43Z</time>
      </trkpt>
      <trkpt lat="43.86301" lon="7.26542">
        <ele>1040</ele>
        <time>2013-03-10T13:40:44Z</time>
      </trkpt>
      <trkpt lat="43.863" lon="7.26544">
        <ele>1040</ele>
        <time>2013-03-10T13:41:02Z</time>
      </trkpt>
      <trkpt lat="43.86299" lon="7.26544">
        <ele>1040</ele>
        <time>2013-03-10T13:41:03Z</time>
      </trkpt>
      <trkpt lat="43.86298" lon="7.26544">
        <ele>1040</ele>
        <time>2013-03-10T13:41:04Z</time>
      </trkpt>
      <trkpt lat="43.86297" lon="7.26543">
        <ele>1039</ele>
        <time>2013-03-10T13:41:05Z</time>
      </trkpt>
      <trkpt lat="43.86295" lon="7.2654">
        <ele>1039</ele>
        <time>2013-03-10T13:41:06Z</time>
      </trkpt>
      <trkpt lat="43.86293" lon="7.26538">
        <ele>1038</ele>
        <time>2013-03-10T13:41:07Z</time>
      </trkpt>
      <trkpt lat="43.8629" lon="7.26535">
        <ele>1038</ele>
        <time>2013-03-10T13:41:08Z</time>
      </trkpt>
      <trkpt lat="43.86289" lon="7.26533">
        <ele>1037</ele>
        <time>2013-03-10T13:41:09Z</time>
      </trkpt>
      <trkpt lat="43.86288" lon="7.26533">
        <ele>1037</ele>
        <time>2013-03-10T13:41:10Z</time>
      </trkpt>
      <trkpt lat="43.86286" lon="7.26532">
        <ele>1036</ele>
        <time>2013-03-10T13:41:11Z</time>
      </trkpt>
      <trkpt lat="43.86285" lon="7.26531">
        <ele>1036</ele>
        <time>2013-03-10T13:41:12Z</time>
      </trkpt>
      <trkpt lat="43.86283" lon="7.26531">
        <ele>1035</ele>
        <time>2013-03-10T13:41:13Z</time>
      </trkpt>
      <trkpt lat="43.8628" lon="7.26529">
        <ele>1035</ele>
        <time>2013-03-10T13:41:14Z</time>
      </trkpt>
      <trkpt lat="43.86277" lon="7.26528">
        <ele>1034</ele>
        <time>2013-03-10T13:41:15Z</time>
      </trkpt>
      <trkpt lat="43.86275" lon="7.26527">
        <ele>1034</ele>
        <time>2013-03-10T13:41:16Z</time>
      </trkpt>
      <trkpt lat="43.86273" lon="7.26527">
        <ele>1033</ele>
        <time>2013-03-10T13:41:17Z</time>
      </trkpt>
      <trkpt lat="43.86271" lon="7.26527">
        <ele>1033</ele>
        <time>2013-03-10T13:41:18Z</time>
      </trkpt>
      <trkpt lat="43.86271" lon="7.26526">
        <ele>1033</ele>
        <time>2013-03-10T13:41:19Z</time>
      </trkpt>
      <trkpt lat="43.8627" lon="7.26524">
        <ele>1033</ele>
        <time>2013-03-10T13:41:20Z</time>
      </trkpt>
      <trkpt lat="43.86269" lon="7.26521">
        <ele>1032</ele>
        <time>2013-03-10T13:41:21Z</time>
      </trkpt>
      <trkpt lat="43.86268" lon="7.2652">
        <ele>1032</ele>
        <time>2013-03-10T13:41:22Z</time>
      </trkpt>
      <trkpt lat="43.86266" lon="7.26518">
        <ele>1032</ele>
        <time>2013-03-10T13:41:23Z</time>
      </trkpt>
      <trkpt lat="43.86264" lon="7.26518">
        <ele>1031</ele>
        <time>2013-03-10T13:41:24Z</time>
      </trkpt>
      <trkpt lat="43.86263" lon="7.26517">
        <ele>1031</ele>
        <time>2013-03-10T13:41:25Z</time>
      </trkpt>
      <trkpt lat="43.86261" lon="7.26515">
        <ele>1030</ele>
        <time>2013-03-10T13:41:27Z</time>
      </trkpt>
      <trkpt lat="43.8626" lon="7.26514">
        <ele>1030</ele>
        <time>2013-03-10T13:41:28Z</time>
      </trkpt>
      <trkpt lat="43.8626" lon="7.26514">
        <ele>1029</ele>
        <time>2013-03-10T13:41:29Z</time>
      </trkpt>
      <trkpt lat="43.86244" lon="7.2651">
        <ele>1024</ele>
        <time>2013-03-10T13:42:34Z</time>
      </trkpt>
      <trkpt lat="43.86239" lon="7.26515">
        <ele>1024</ele>
        <time>2013-03-10T13:42:36Z</time>
      </trkpt>
      <trkpt lat="43.86232" lon="7.26524">
        <ele>1023</ele>
        <time>2013-03-10T13:42:39Z</time>
      </trkpt>
      <trkpt lat="43.8623" lon="7.26526">
        <ele>1023</ele>
        <time>2013-03-10T13:42:40Z</time>
      </trkpt>
      <trkpt lat="43.86227" lon="7.26528">
        <ele>1023</ele>
        <time>2013-03-10T13:42:41Z</time>
      </trkpt>
      <trkpt lat="43.86224" lon="7.26529">
        <ele>1022</ele>
        <time>2013-03-10T13:42:42Z</time>
      </trkpt>
      <trkpt lat="43.86222" lon="7.26527">
        <ele>1022</ele>
        <time>2013-03-10T13:42:43Z</time>
      </trkpt>
      <trkpt lat="43.86217" lon="7.26527">
        <ele>1021</ele>
        <time>2013-03-10T13:42:45Z</time>
      </trkpt>
      <trkpt lat="43.86214" lon="7.26528">
        <ele>1021</ele>
        <time>2013-03-10T13:42:46Z</time>
      </trkpt>
      <trkpt lat="43.86212" lon="7.26529">
        <ele>1020</ele>
        <time>2013-03-10T13:42:47Z</time>
      </trkpt>
      <trkpt lat="43.86211" lon="7.2653">
        <ele>1020</ele>
        <time>2013-03-10T13:42:48Z</time>
      </trkpt>
      <trkpt lat="43.86208" lon="7.26531">
        <ele>1019</ele>
        <time>2013-03-10T13:42:49Z</time>
      </trkpt>
      <trkpt lat="43.86205" lon="7.2653">
        <ele>1019</ele>
        <time>2013-03-10T13:42:50Z</time>
      </trkpt>
      <trkpt lat="43.86202" lon="7.26531">
        <ele>1018</ele>
        <time>2013-03-10T13:42:51Z</time>
      </trkpt>
      <trkpt lat="43.86199" lon="7.26531">
        <ele>1018</ele>
        <time>2013-03-10T13:42:52Z</time>
      </trkpt>
      <trkpt lat="43.86198" lon="7.26531">
        <ele>1017</ele>
        <time>2013-03-10T13:42:53Z</time>
      </trkpt>
      <trkpt lat="43.86196" lon="7.26528">
        <ele>1017</ele>
        <time>2013-03-10T13:42:54Z</time>
      </trkpt>
      <trkpt lat="43.86193" lon="7.26528">
        <ele>1016</ele>
        <time>2013-03-10T13:42:55Z</time>
      </trkpt>
      <trkpt lat="43.86192" lon="7.2653">
        <ele>1016</ele>
        <time>2013-03-10T13:42:56Z</time>
      </trkpt>
      <trkpt lat="43.86191" lon="7.26532">
        <ele>1015</ele>
        <time>2013-03-10T13:42:57Z</time>
      </trkpt>
      <trkpt lat="43.86188" lon="7.26534">
        <ele>1014</ele>
        <time>2013-03-10T13:42:58Z</time>
      </trkpt>
      <trkpt lat="43.86185" lon="7.26534">
        <ele>1014</ele>
        <time>2013-03-10T13:42:59Z</time>
      </trkpt>
      <trkpt lat="43.86184" lon="7.26532">
        <ele>1013</ele>
        <time>2013-03-10T13:43:00Z</time>
      </trkpt>
      <trkpt lat="43.86182" lon="7.2653">
        <ele>1013</ele>
        <time>2013-03-10T13:43:01Z</time>
      </trkpt>
      <trkpt lat="43.86179" lon="7.26526">
        <ele>1013</ele>
        <time>2013-03-10T13:43:03Z</time>
      </trkpt>
      <trkpt lat="43.86178" lon="7.26521">
        <ele>1013</ele>
        <time>2013-03-10T13:43:04Z</time>
      </trkpt>
      <trkpt lat="43.86177" lon="7.26519">
        <ele>1012</ele>
        <time>2013-03-10T13:43:05Z</time>
      </trkpt>
      <trkpt lat="43.86176" lon="7.26517">
        <ele>1012</ele>
        <time>2013-03-10T13:43:06Z</time>
      </trkpt>
      <trkpt lat="43.86174" lon="7.26516">
        <ele>1011</ele>
        <time>2013-03-10T13:43:07Z</time>
      </trkpt>
      <trkpt lat="43.86172" lon="7.26516">
        <ele>1010</ele>
        <time>2013-03-10T13:43:08Z</time>
      </trkpt>
      <trkpt lat="43.8617" lon="7.26516">
        <ele>1010</ele>
        <time>2013-03-10T13:43:09Z</time>
      </trkpt>
      <trkpt lat="43.86166" lon="7.26516">
        <ele>1009</ele>
        <time>2013-03-10T13:43:10Z</time>
      </trkpt>
      <trkpt lat="43.86162" lon="7.26516">
        <ele>1008</ele>
        <time>2013-03-10T13:43:11Z</time>
      </trkpt>
      <trkpt lat="43.86159" lon="7.26518">
        <ele>1007</ele>
        <time>2013-03-10T13:43:12Z</time>
      </trkpt>
      <trkpt lat="43.86157" lon="7.26517">
        <ele>1007</ele>
        <time>2013-03-10T13:43:13Z</time>
      </trkpt>
      <trkpt lat="43.86153" lon="7.26514">
        <ele>1006</ele>
        <time>2013-03-10T13:43:14Z</time>
      </trkpt>
      <trkpt lat="43.86151" lon="7.26513">
        <ele>1006</ele>
        <time>2013-03-10T13:43:15Z</time>
      </trkpt>
      <trkpt lat="43.86149" lon="7.26512">
        <ele>1006</ele>
        <time>2013-03-10T13:43:16Z</time>
      </trkpt>
      <trkpt lat="43.86147" lon="7.2651">
        <ele>1005</ele>
        <time>2013-03-10T13:43:17Z</time>
      </trkpt>
      <trkpt lat="43.86147" lon="7.26511">
        <ele>1005</ele>
        <time>2013-03-10T13:43:18Z</time>
      </trkpt>
      <trkpt lat="43.86147" lon="7.26511">
        <ele>1004</ele>
        <time>2013-03-10T13:43:19Z</time>
      </trkpt>
      <trkpt lat="43.86146" lon="7.2651">
        <ele>1003</ele>
        <time>2013-03-10T13:43:20Z</time>
      </trkpt>
      <trkpt lat="43.86143" lon="7.26507">
        <ele>1003</ele>
        <time>2013-03-10T13:43:21Z</time>
      </trkpt>
      <trkpt lat="43.8614" lon="7.26506">
        <ele>1002</ele>
        <time>2013-03-10T13:43:22Z</time>
      </trkpt>
      <trkpt lat="43.86138" lon="7.26504">
        <ele>1001</ele>
        <time>2013-03-10T13:43:23Z</time>
      </trkpt>
      <trkpt lat="43.86136" lon="7.26499">
        <ele>1001</ele>
        <time>2013-03-10T13:43:24Z</time>
      </trkpt>
      <trkpt lat="43.86136" lon="7.26496">
        <ele>1000</ele>
        <time>2013-03-10T13:43:25Z</time>
      </trkpt>
      <trkpt lat="43.86136" lon="7.26491">
        <ele>999</ele>
        <time>2013-03-10T13:43:26Z</time>
      </trkpt>
      <trkpt lat="43.86137" lon="7.26484">
        <ele>998</ele>
        <time>2013-03-10T13:43:27Z</time>
      </trkpt>
      <trkpt lat="43.86138" lon="7.26479">
        <ele>997</ele>
        <time>2013-03-10T13:43:28Z</time>
      </trkpt>
      <trkpt lat="43.86137" lon="7.26476">
        <ele>996</ele>
        <time>2013-03-10T13:43:29Z</time>
      </trkpt>
      <trkpt lat="43.86135" lon="7.26471">
        <ele>995</ele>
        <time>2013-03-10T13:43:30Z</time>
      </trkpt>
      <trkpt lat="43.86132" lon="7.26469">
        <ele>995</ele>
        <time>2013-03-10T13:43:31Z</time>
      </trkpt>
      <trkpt lat="43.86131" lon="7.26468">
        <ele>994</ele>
        <time>2013-03-10T13:43:32Z</time>
      </trkpt>
      <trkpt lat="43.86128" lon="7.26467">
        <ele>993</ele>
        <time>2013-03-10T13:43:33Z</time>
      </trkpt>
      <trkpt lat="43.86125" lon="7.26466">
        <ele>992</ele>
        <time>2013-03-10T13:43:34Z</time>
      </trkpt>
      <trkpt lat="43.86123" lon="7.26465">
        <ele>991</ele>
        <time>2013-03-10T13:43:35Z</time>
      </trkpt>
      <trkpt lat="43.8612" lon="7.26467">
        <ele>990</ele>
        <time>2013-03-10T13:43:36Z</time>
      </trkpt>
      <trkpt lat="43.86118" lon="7.26469">
        <ele>989</ele>
        <time>2013-03-10T13:43:37Z</time>
      </trkpt>
      <trkpt lat="43.86116" lon="7.26472">
        <ele>988</ele>
        <time>2013-03-10T13:43:38Z</time>
      </trkpt>
      <trkpt lat="43.86114" lon="7.26476">
        <ele>987</ele>
        <time>2013-03-10T13:43:39Z</time>
      </trkpt>
      <trkpt lat="43.86113" lon="7.26478">
        <ele>986</ele>
        <time>2013-03-10T13:43:40Z</time>
      </trkpt>
      <trkpt lat="43.86111" lon="7.26482">
        <ele>986</ele>
        <time>2013-03-10T13:43:42Z</time>
      </trkpt>
      <trkpt lat="43.86108" lon="7.26484">
        <ele>986</ele>
        <time>2013-03-10T13:43:45Z</time>
      </trkpt>
      <trkpt lat="43.86108" lon="7.26486">
        <ele>986</ele>
        <time>2013-03-10T13:43:47Z</time>
      </trkpt>
      <trkpt lat="43.86108" lon="7.26486">
        <ele>986</ele>
        <time>2013-03-10T13:43:48Z</time>
      </trkpt>
      <trkpt lat="43.86106" lon="7.26492">
        <ele>985</ele>
        <time>2013-03-10T13:44:54Z</time>
      </trkpt>
      <trkpt lat="43.86105" lon="7.26494">
        <ele>985</ele>
        <time>2013-03-10T13:44:55Z</time>
      </trkpt>
      <trkpt lat="43.86102" lon="7.26497">
        <ele>985</ele>
        <time>2013-03-10T13:44:56Z</time>
      </trkpt>
      <trkpt lat="43.86097" lon="7.26499">
        <ele>985</ele>
        <time>2013-03-10T13:44:58Z</time>
      </trkpt>
      <trkpt lat="43.86093" lon="7.26497">
        <ele>985</ele>
        <time>2013-03-10T13:44:59Z</time>
      </trkpt>
      <trkpt lat="43.86085" lon="7.265">
        <ele>984</ele>
        <time>2013-03-10T13:45:02Z</time>
      </trkpt>
      <trkpt lat="43.86081" lon="7.265">
        <ele>983</ele>
        <time>2013-03-10T13:45:03Z</time>
      </trkpt>
      <trkpt lat="43.8608" lon="7.26501">
        <ele>983</ele>
        <time>2013-03-10T13:45:04Z</time>
      </trkpt>
      <trkpt lat="43.86079" lon="7.26501">
        <ele>982</ele>
        <time>2013-03-10T13:45:05Z</time>
      </trkpt>
      <trkpt lat="43.86077" lon="7.26498">
        <ele>982</ele>
        <time>2013-03-10T13:45:06Z</time>
      </trkpt>
      <trkpt lat="43.86076" lon="7.26497">
        <ele>982</ele>
        <time>2013-03-10T13:45:07Z</time>
      </trkpt>
      <trkpt lat="43.86074" lon="7.26496">
        <ele>981</ele>
        <time>2013-03-10T13:45:08Z</time>
      </trkpt>
      <trkpt lat="43.86073" lon="7.26497">
        <ele>980</ele>
        <time>2013-03-10T13:45:09Z</time>
      </trkpt>
      <trkpt lat="43.8607" lon="7.26496">
        <ele>980</ele>
        <time>2013-03-10T13:45:10Z</time>
      </trkpt>
      <trkpt lat="43.86068" lon="7.26495">
        <ele>979</ele>
        <time>2013-03-10T13:45:11Z</time>
      </trkpt>
      <trkpt lat="43.86067" lon="7.26493">
        <ele>979</ele>
        <time>2013-03-10T13:45:12Z</time>
      </trkpt>
      <trkpt lat="43.86067" lon="7.26491">
        <ele>978</ele>
        <time>2013-03-10T13:45:13Z</time>
      </trkpt>
      <trkpt lat="43.86067" lon="7.26489">
        <ele>978</ele>
        <time>2013-03-10T13:45:14Z</time>
      </trkpt>
      <trkpt lat="43.86068" lon="7.26488">
        <ele>977</ele>
        <time>2013-03-10T13:45:15Z</time>
      </trkpt>
      <trkpt lat="43.86069" lon="7.26487">
        <ele>977</ele>
        <time>2013-03-10T13:45:16Z</time>
      </trkpt>
      <trkpt lat="43.8607" lon="7.26485">
        <ele>976</ele>
        <time>2013-03-10T13:45:17Z</time>
      </trkpt>
      <trkpt lat="43.86071" lon="7.26483">
        <ele>976</ele>
        <time>2013-03-10T13:45:18Z</time>
      </trkpt>
      <trkpt lat="43.86071" lon="7.2648">
        <ele>976</ele>
        <time>2013-03-10T13:45:19Z</time>
      </trkpt>
      <trkpt lat="43.86067" lon="7.26475">
        <ele>975</ele>
        <time>2013-03-10T13:45:22Z</time>
      </trkpt>
      <trkpt lat="43.86065" lon="7.26472">
        <ele>975</ele>
        <time>2013-03-10T13:45:23Z</time>
      </trkpt>
      <trkpt lat="43.86064" lon="7.26469">
        <ele>974</ele>
        <time>2013-03-10T13:45:24Z</time>
      </trkpt>
      <trkpt lat="43.86063" lon="7.26466">
        <ele>974</ele>
        <time>2013-03-10T13:45:25Z</time>
      </trkpt>
      <trkpt lat="43.86062" lon="7.26461">
        <ele>973</ele>
        <time>2013-03-10T13:45:26Z</time>
      </trkpt>
      <trkpt lat="43.86059" lon="7.26458">
        <ele>972</ele>
        <time>2013-03-10T13:45:27Z</time>
      </trkpt>
      <trkpt lat="43.86058" lon="7.26455">
        <ele>971</ele>
        <time>2013-03-10T13:45:28Z</time>
      </trkpt>
      <trkpt lat="43.86057" lon="7.26453">
        <ele>970</ele>
        <time>2013-03-10T13:45:29Z</time>
      </trkpt>
      <trkpt lat="43.86057" lon="7.26449">
        <ele>970</ele>
        <time>2013-03-10T13:45:30Z</time>
      </trkpt>
      <trkpt lat="43.86057" lon="7.26446">
        <ele>969</ele>
        <time>2013-03-10T13:45:31Z</time>
      </trkpt>
      <trkpt lat="43.86057" lon="7.26443">
        <ele>968</ele>
        <time>2013-03-10T13:45:32Z</time>
      </trkpt>
      <trkpt lat="43.86058" lon="7.26438">
        <ele>967</ele>
        <time>2013-03-10T13:45:33Z</time>
      </trkpt>
      <trkpt lat="43.86057" lon="7.26435">
        <ele>967</ele>
        <time>2013-03-10T13:45:34Z</time>
      </trkpt>
      <trkpt lat="43.86056" lon="7.26436">
        <ele>966</ele>
        <time>2013-03-10T13:45:35Z</time>
      </trkpt>
      <trkpt lat="43.86054" lon="7.26435">
        <ele>966</ele>
        <time>2013-03-10T13:45:36Z</time>
      </trkpt>
      <trkpt lat="43.86053" lon="7.26433">
        <ele>965</ele>
        <time>2013-03-10T13:45:37Z</time>
      </trkpt>
      <trkpt lat="43.8605" lon="7.26432">
        <ele>964</ele>
        <time>2013-03-10T13:45:38Z</time>
      </trkpt>
      <trkpt lat="43.86049" lon="7.26431">
        <ele>964</ele>
        <time>2013-03-10T13:45:39Z</time>
      </trkpt>
      <trkpt lat="43.86048" lon="7.26428">
        <ele>963</ele>
        <time>2013-03-10T13:45:40Z</time>
      </trkpt>
      <trkpt lat="43.86047" lon="7.26425">
        <ele>963</ele>
        <time>2013-03-10T13:45:41Z</time>
      </trkpt>
      <trkpt lat="43.86047" lon="7.26422">
        <ele>962</ele>
        <time>2013-03-10T13:45:42Z</time>
      </trkpt>
      <trkpt lat="43.86047" lon="7.26418">
        <ele>962</ele>
        <time>2013-03-10T13:45:43Z</time>
      </trkpt>
      <trkpt lat="43.86045" lon="7.26417">
        <ele>961</ele>
        <time>2013-03-10T13:45:44Z</time>
      </trkpt>
      <trkpt lat="43.86044" lon="7.26417">
        <ele>960</ele>
        <time>2013-03-10T13:45:45Z</time>
      </trkpt>
      <trkpt lat="43.86042" lon="7.26417">
        <ele>960</ele>
        <time>2013-03-10T13:45:46Z</time>
      </trkpt>
      <trkpt lat="43.8604" lon="7.26419">
        <ele>959</ele>
        <time>2013-03-10T13:45:47Z</time>
      </trkpt>
      <trkpt lat="43.86039" lon="7.2642">
        <ele>958</ele>
        <time>2013-03-10T13:45:48Z</time>
      </trkpt>
      <trkpt lat="43.86038" lon="7.26421">
        <ele>957</ele>
        <time>2013-03-10T13:45:49Z</time>
      </trkpt>
      <trkpt lat="43.86037" lon="7.26422">
        <ele>956</ele>
        <time>2013-03-10T13:45:50Z</time>
      </trkpt>
      <trkpt lat="43.86037" lon="7.26423">
        <ele>956</ele>
        <time>2013-03-10T13:45:51Z</time>
      </trkpt>
      <trkpt lat="43.86037" lon="7.26423">
        <ele>955</ele>
        <time>2013-03-10T13:45:52Z</time>
      </trkpt>
      <trkpt lat="43.86032" lon="7.26424">
        <ele>954</ele>
        <time>2013-03-10T13:46:01Z</time>
      </trkpt>
      <trkpt lat="43.86028" lon="7.26422">
        <ele>954</ele>
        <time>2013-03-10T13:46:03Z</time>
      </trkpt>
      <trkpt lat="43.8602" lon="7.26417">
        <ele>954</ele>
        <time>2013-03-10T13:46:06Z</time>
      </trkpt>
      <trkpt lat="43.86019" lon="7.26416">
        <ele>954</ele>
        <time>2013-03-10T13:46:07Z</time>
      </trkpt>
      <trkpt lat="43.86016" lon="7.26414">
        <ele>953</ele>
        <time>2013-03-10T13:46:08Z</time>
      </trkpt>
      <trkpt lat="43.86015" lon="7.26412">
        <ele>953</ele>
        <time>2013-03-10T13:46:09Z</time>
      </trkpt>
      <trkpt lat="43.86013" lon="7.26411">
        <ele>952</ele>
        <time>2013-03-10T13:46:10Z</time>
      </trkpt>
      <trkpt lat="43.86012" lon="7.26409">
        <ele>952</ele>
        <time>2013-03-10T13:46:11Z</time>
      </trkpt>
      <trkpt lat="43.86012" lon="7.26406">
        <ele>951</ele>
        <time>2013-03-10T13:46:12Z</time>
      </trkpt>
      <trkpt lat="43.86011" lon="7.26403">
        <ele>950</ele>
        <time>2013-03-10T13:46:13Z</time>
      </trkpt>
      <trkpt lat="43.8601" lon="7.26403">
        <ele>950</ele>
        <time>2013-03-10T13:46:14Z</time>
      </trkpt>
      <trkpt lat="43.8601" lon="7.26404">
        <ele>949</ele>
        <time>2013-03-10T13:46:15Z</time>
      </trkpt>
      <trkpt lat="43.86009" lon="7.26405">
        <ele>948</ele>
        <time>2013-03-10T13:46:16Z</time>
      </trkpt>
      <trkpt lat="43.86007" lon="7.26405">
        <ele>948</ele>
        <time>2013-03-10T13:46:17Z</time>
      </trkpt>
      <trkpt lat="43.86005" lon="7.26404">
        <ele>947</ele>
        <time>2013-03-10T13:46:18Z</time>
      </trkpt>
      <trkpt lat="43.86001" lon="7.26403">
        <ele>947</ele>
        <time>2013-03-10T13:46:20Z</time>
      </trkpt>
      <trkpt lat="43.86001" lon="7.26402">
        <ele>947</ele>
        <time>2013-03-10T13:46:21Z</time>
      </trkpt>
      <trkpt lat="43.86001" lon="7.26401">
        <ele>946</ele>
        <time>2013-03-10T13:46:22Z</time>
      </trkpt>
      <trkpt lat="43.86001" lon="7.264">
        <ele>946</ele>
        <time>2013-03-10T13:46:23Z</time>
      </trkpt>
      <trkpt lat="43.86001" lon="7.26398">
        <ele>945</ele>
        <time>2013-03-10T13:46:24Z</time>
      </trkpt>
      <trkpt lat="43.86001" lon="7.26395">
        <ele>945</ele>
        <time>2013-03-10T13:46:27Z</time>
      </trkpt>
      <trkpt lat="43.86001" lon="7.26393">
        <ele>945</ele>
        <time>2013-03-10T13:46:28Z</time>
      </trkpt>
      <trkpt lat="43.86" lon="7.26389">
        <ele>945</ele>
        <time>2013-03-10T13:46:29Z</time>
      </trkpt>
      <trkpt lat="43.85998" lon="7.26385">
        <ele>944</ele>
        <time>2013-03-10T13:46:30Z</time>
      </trkpt>
      <trkpt lat="43.85997" lon="7.26381">
        <ele>944</ele>
        <time>2013-03-10T13:46:31Z</time>
      </trkpt>
      <trkpt lat="43.85995" lon="7.2638">
        <ele>943</ele>
        <time>2013-03-10T13:46:32Z</time>
      </trkpt>
      <trkpt lat="43.85992" lon="7.26379">
        <ele>942</ele>
        <time>2013-03-10T13:46:33Z</time>
      </trkpt>
      <trkpt lat="43.8599" lon="7.26378">
        <ele>942</ele>
        <time>2013-03-10T13:46:34Z</time>
      </trkpt>
      <trkpt lat="43.85989" lon="7.26379">
        <ele>941</ele>
        <time>2013-03-10T13:46:35Z</time>
      </trkpt>
      <trkpt lat="43.8599" lon="7.26379">
        <ele>940</ele>
        <time>2013-03-10T13:46:36Z</time>
      </trkpt>
      <trkpt lat="43.85989" lon="7.26378">
        <ele>939</ele>
        <time>2013-03-10T13:48:22Z</time>
      </trkpt>
      <trkpt lat="43.85984" lon="7.26381">
        <ele>939</ele>
        <time>2013-03-10T13:48:24Z</time>
      </trkpt>
      <trkpt lat="43.85979" lon="7.26381">
        <ele>938</ele>
        <time>2013-03-10T13:48:25Z</time>
      </trkpt>
      <trkpt lat="43.85974" lon="7.26383">
        <ele>938</ele>
        <time>2013-03-10T13:48:26Z</time>
      </trkpt>
      <trkpt lat="43.85969" lon="7.26382">
        <ele>937</ele>
        <time>2013-03-10T13:48:27Z</time>
      </trkpt>
      <trkpt lat="43.85965" lon="7.26379">
        <ele>937</ele>
        <time>2013-03-10T13:48:28Z</time>
      </trkpt>
      <trkpt lat="43.8596" lon="7.26369">
        <ele>936</ele>
        <time>2013-03-10T13:48:30Z</time>
      </trkpt>
      <trkpt lat="43.85957" lon="7.26365">
        <ele>936</ele>
        <time>2013-03-10T13:48:31Z</time>
      </trkpt>
      <trkpt lat="43.85954" lon="7.26362">
        <ele>935</ele>
        <time>2013-03-10T13:48:32Z</time>
      </trkpt>
      <trkpt lat="43.8595" lon="7.26357">
        <ele>934</ele>
        <time>2013-03-10T13:48:33Z</time>
      </trkpt>
      <trkpt lat="43.85947" lon="7.26354">
        <ele>933</ele>
        <time>2013-03-10T13:48:34Z</time>
      </trkpt>
      <trkpt lat="43.85948" lon="7.26354">
        <ele>932</ele>
        <time>2013-03-10T13:48:35Z</time>
      </trkpt>
      <trkpt lat="43.85948" lon="7.26355">
        <ele>931</ele>
        <time>2013-03-10T13:48:36Z</time>
      </trkpt>
      <trkpt lat="43.8595" lon="7.26352">
        <ele>928</ele>
        <time>2013-03-10T13:48:39Z</time>
      </trkpt>
      <trkpt lat="43.85951" lon="7.26352">
        <ele>927</ele>
        <time>2013-03-10T13:48:40Z</time>
      </trkpt>
      <trkpt lat="43.85952" lon="7.26352">
        <ele>926</ele>
        <time>2013-03-10T13:48:41Z</time>
      </trkpt>
      <trkpt lat="43.85955" lon="7.26347">
        <ele>926</ele>
        <time>2013-03-10T13:48:45Z</time>
      </trkpt>
      <trkpt lat="43.85957" lon="7.26345">
        <ele>926</ele>
        <time>2013-03-10T13:48:47Z</time>
      </trkpt>
      <trkpt lat="43.8596" lon="7.26344">
        <ele>926</ele>
        <time>2013-03-10T13:48:48Z</time>
      </trkpt>
      <trkpt lat="43.85963" lon="7.26344">
        <ele>925</ele>
        <time>2013-03-10T13:48:49Z</time>
      </trkpt>
      <trkpt lat="43.85966" lon="7.26345">
        <ele>925</ele>
        <time>2013-03-10T13:48:50Z</time>
      </trkpt>
      <trkpt lat="43.8597" lon="7.26346">
        <ele>924</ele>
        <time>2013-03-10T13:48:51Z</time>
      </trkpt>
      <trkpt lat="43.85972" lon="7.26344">
        <ele>924</ele>
        <time>2013-03-10T13:48:53Z</time>
      </trkpt>
      <trkpt lat="43.85974" lon="7.26341">
        <ele>924</ele>
        <time>2013-03-10T13:48:55Z</time>
      </trkpt>
      <trkpt lat="43.85977" lon="7.2634">
        <ele>923</ele>
        <time>2013-03-10T13:48:56Z</time>
      </trkpt>
      <trkpt lat="43.85981" lon="7.26338">
        <ele>923</ele>
        <time>2013-03-10T13:48:57Z</time>
      </trkpt>
      <trkpt lat="43.85984" lon="7.26336">
        <ele>922</ele>
        <time>2013-03-10T13:48:58Z</time>
      </trkpt>
      <trkpt lat="43.85987" lon="7.26332">
        <ele>922</ele>
        <time>2013-03-10T13:48:59Z</time>
      </trkpt>
      <trkpt lat="43.85988" lon="7.26331">
        <ele>921</ele>
        <time>2013-03-10T13:49:00Z</time>
      </trkpt>
      <trkpt lat="43.8599" lon="7.2633">
        <ele>921</ele>
        <time>2013-03-10T13:49:01Z</time>
      </trkpt>
      <trkpt lat="43.85994" lon="7.26331">
        <ele>920</ele>
        <time>2013-03-10T13:49:02Z</time>
      </trkpt>
      <trkpt lat="43.85997" lon="7.26331">
        <ele>920</ele>
        <time>2013-03-10T13:49:03Z</time>
      </trkpt>
      <trkpt lat="43.85999" lon="7.26328">
        <ele>919</ele>
        <time>2013-03-10T13:49:04Z</time>
      </trkpt>
      <trkpt lat="43.86002" lon="7.26324">
        <ele>919</ele>
        <time>2013-03-10T13:49:05Z</time>
      </trkpt>
      <trkpt lat="43.86006" lon="7.26322">
        <ele>918</ele>
        <time>2013-03-10T13:49:06Z</time>
      </trkpt>
      <trkpt lat="43.8601" lon="7.26322">
        <ele>918</ele>
        <time>2013-03-10T13:49:07Z</time>
      </trkpt>
      <trkpt lat="43.86013" lon="7.26321">
        <ele>917</ele>
        <time>2013-03-10T13:49:08Z</time>
      </trkpt>
      <trkpt lat="43.86017" lon="7.26324">
        <ele>916</ele>
        <time>2013-03-10T13:49:09Z</time>
      </trkpt>
      <trkpt lat="43.8602" lon="7.26327">
        <ele>915</ele>
        <time>2013-03-10T13:49:10Z</time>
      </trkpt>
      <trkpt lat="43.86022" lon="7.26329">
        <ele>914</ele>
        <time>2013-03-10T13:49:11Z</time>
      </trkpt>
      <trkpt lat="43.86023" lon="7.2633">
        <ele>914</ele>
        <time>2013-03-10T13:49:12Z</time>
      </trkpt>
      <trkpt lat="43.86024" lon="7.26331">
        <ele>913</ele>
        <time>2013-03-10T13:49:13Z</time>
      </trkpt>
      <trkpt lat="43.86027" lon="7.26333">
        <ele>913</ele>
        <time>2013-03-10T13:49:14Z</time>
      </trkpt>
      <trkpt lat="43.86028" lon="7.26332">
        <ele>913</ele>
        <time>2013-03-10T13:49:15Z</time>
      </trkpt>
      <trkpt lat="43.86029" lon="7.26331">
        <ele>912</ele>
        <time>2013-03-10T13:49:16Z</time>
      </trkpt>
      <trkpt lat="43.8603" lon="7.26331">
        <ele>912</ele>
        <time>2013-03-10T13:49:17Z</time>
      </trkpt>
      <trkpt lat="43.86029" lon="7.26331">
        <ele>912</ele>
        <time>2013-03-10T13:49:18Z</time>
      </trkpt>
      <trkpt lat="43.86025" lon="7.26296">
        <ele>912</ele>
        <time>2013-03-10T13:49:49Z</time>
      </trkpt>
      <trkpt lat="43.86022" lon="7.2629">
        <ele>912</ele>
        <time>2013-03-10T13:49:51Z</time>
      </trkpt>
      <trkpt lat="43.86022" lon="7.26285">
        <ele>912</ele>
        <time>2013-03-10T13:49:56Z</time>
      </trkpt>
      <trkpt lat="43.86018" lon="7.26269">
        <ele>914</ele>
        <time>2013-03-10T13:50:09Z</time>
      </trkpt>
      <trkpt lat="43.86019" lon="7.26267">
        <ele>914</ele>
        <time>2013-03-10T13:50:10Z</time>
      </trkpt>
      <trkpt lat="43.86017" lon="7.26262">
        <ele>914</ele>
        <time>2013-03-10T13:50:12Z</time>
      </trkpt>
      <trkpt lat="43.86017" lon="7.26259">
        <ele>915</ele>
        <time>2013-03-10T13:50:13Z</time>
      </trkpt>
      <trkpt lat="43.86016" lon="7.26258">
        <ele>915</ele>
        <time>2013-03-10T13:50:14Z</time>
      </trkpt>
      <trkpt lat="43.86015" lon="7.26256">
        <ele>916</ele>
        <time>2013-03-10T13:50:15Z</time>
      </trkpt>
      <trkpt lat="43.86014" lon="7.26254">
        <ele>916</ele>
        <time>2013-03-10T13:50:16Z</time>
      </trkpt>
      <trkpt lat="43.86014" lon="7.26254">
        <ele>916</ele>
        <time>2013-03-10T13:50:17Z</time>
      </trkpt>
      <trkpt lat="43.86014" lon="7.26253">
        <ele>916</ele>
        <time>2013-03-10T13:50:18Z</time>
      </trkpt>
      <trkpt lat="43.86014" lon="7.26251">
        <ele>916</ele>
        <time>2013-03-10T13:50:19Z</time>
      </trkpt>
      <trkpt lat="43.86014" lon="7.2625">
        <ele>916</ele>
        <time>2013-03-10T13:50:20Z</time>
      </trkpt>
      <trkpt lat="43.86" lon="7.26212">
        <ele>923</ele>
        <time>2013-03-10T13:50:49Z</time>
      </trkpt>
      <trkpt lat="43.86" lon="7.2621">
        <ele>923</ele>
        <time>2013-03-10T13:50:50Z</time>
      </trkpt>
      <trkpt lat="43.85999" lon="7.26207">
        <ele>923</ele>
        <time>2013-03-10T13:50:52Z</time>
      </trkpt>
      <trkpt lat="43.85996" lon="7.26201">
        <ele>923</ele>
        <time>2013-03-10T13:50:57Z</time>
      </trkpt>
      <trkpt lat="43.85994" lon="7.26199">
        <ele>923</ele>
        <time>2013-03-10T13:51:01Z</time>
      </trkpt>
      <trkpt lat="43.85993" lon="7.26195">
        <ele>923</ele>
        <time>2013-03-10T13:51:06Z</time>
      </trkpt>
      <trkpt lat="43.85987" lon="7.26185">
        <ele>924</ele>
        <time>2013-03-10T13:51:11Z</time>
      </trkpt>
      <trkpt lat="43.85986" lon="7.26183">
        <ele>924</ele>
        <time>2013-03-10T13:51:12Z</time>
      </trkpt>
      <trkpt lat="43.85985" lon="7.2618">
        <ele>925</ele>
        <time>2013-03-10T13:51:13Z</time>
      </trkpt>
      <trkpt lat="43.85984" lon="7.26178">
        <ele>925</ele>
        <time>2013-03-10T13:51:14Z</time>
      </trkpt>
      <trkpt lat="43.85982" lon="7.26172">
        <ele>925</ele>
        <time>2013-03-10T13:51:17Z</time>
      </trkpt>
      <trkpt lat="43.8598" lon="7.26166">
        <ele>925</ele>
        <time>2013-03-10T13:51:20Z</time>
      </trkpt>
      <trkpt lat="43.85979" lon="7.26164">
        <ele>926</ele>
        <time>2013-03-10T13:51:21Z</time>
      </trkpt>
      <trkpt lat="43.85978" lon="7.26162">
        <ele>926</ele>
        <time>2013-03-10T13:51:22Z</time>
      </trkpt>
      <trkpt lat="43.85977" lon="7.2616">
        <ele>927</ele>
        <time>2013-03-10T13:51:23Z</time>
      </trkpt>
      <trkpt lat="43.85976" lon="7.26157">
        <ele>927</ele>
        <time>2013-03-10T13:51:24Z</time>
      </trkpt>
      <trkpt lat="43.85974" lon="7.26149">
        <ele>927</ele>
        <time>2013-03-10T13:51:27Z</time>
      </trkpt>
      <trkpt lat="43.85974" lon="7.26135">
        <ele>927</ele>
        <time>2013-03-10T13:51:33Z</time>
      </trkpt>
      <trkpt lat="43.8598" lon="7.26127">
        <ele>927</ele>
        <time>2013-03-10T13:51:39Z</time>
      </trkpt>
      <trkpt lat="43.85981" lon="7.26126">
        <ele>927</ele>
        <time>2013-03-10T13:52:21Z</time>
      </trkpt>
      <trkpt lat="43.85989" lon="7.26117">
        <ele>927</ele>
        <time>2013-03-10T13:52:25Z</time>
      </trkpt>
      <trkpt lat="43.85992" lon="7.26115">
        <ele>927</ele>
        <time>2013-03-10T13:52:26Z</time>
      </trkpt>
      <trkpt lat="43.86003" lon="7.26101">
        <ele>927</ele>
        <time>2013-03-10T13:52:30Z</time>
      </trkpt>
      <trkpt lat="43.86006" lon="7.26097">
        <ele>927</ele>
        <time>2013-03-10T13:52:31Z</time>
      </trkpt>
      <trkpt lat="43.8601" lon="7.26093">
        <ele>927</ele>
        <time>2013-03-10T13:52:32Z</time>
      </trkpt>
      <trkpt lat="43.86014" lon="7.2609">
        <ele>926</ele>
        <time>2013-03-10T13:52:33Z</time>
      </trkpt>
      <trkpt lat="43.86018" lon="7.26086">
        <ele>926</ele>
        <time>2013-03-10T13:52:34Z</time>
      </trkpt>
      <trkpt lat="43.86022" lon="7.26083">
        <ele>925</ele>
        <time>2013-03-10T13:52:35Z</time>
      </trkpt>
      <trkpt lat="43.86026" lon="7.26078">
        <ele>925</ele>
        <time>2013-03-10T13:52:36Z</time>
      </trkpt>
      <trkpt lat="43.8603" lon="7.26074">
        <ele>924</ele>
        <time>2013-03-10T13:52:37Z</time>
      </trkpt>
      <trkpt lat="43.86033" lon="7.26069">
        <ele>923</ele>
        <time>2013-03-10T13:52:38Z</time>
      </trkpt>
      <trkpt lat="43.86036" lon="7.26066">
        <ele>923</ele>
        <time>2013-03-10T13:52:39Z</time>
      </trkpt>
      <trkpt lat="43.86042" lon="7.26058">
        <ele>923</ele>
        <time>2013-03-10T13:52:42Z</time>
      </trkpt>
      <trkpt lat="43.86045" lon="7.2605">
        <ele>922</ele>
        <time>2013-03-10T13:52:44Z</time>
      </trkpt>
      <trkpt lat="43.86048" lon="7.26045">
        <ele>922</ele>
        <time>2013-03-10T13:52:45Z</time>
      </trkpt>
      <trkpt lat="43.8605" lon="7.26041">
        <ele>922</ele>
        <time>2013-03-10T13:52:46Z</time>
      </trkpt>
      <trkpt lat="43.86053" lon="7.26037">
        <ele>921</ele>
        <time>2013-03-10T13:52:47Z</time>
      </trkpt>
      <trkpt lat="43.86054" lon="7.26033">
        <ele>921</ele>
        <time>2013-03-10T13:52:48Z</time>
      </trkpt>
      <trkpt lat="43.86054" lon="7.26029">
        <ele>921</ele>
        <time>2013-03-10T13:52:49Z</time>
      </trkpt>
      <trkpt lat="43.86053" lon="7.26012">
        <ele>921</ele>
        <time>2013-03-10T13:52:52Z</time>
      </trkpt>
      <trkpt lat="43.86054" lon="7.26001">
        <ele>921</ele>
        <time>2013-03-10T13:52:55Z</time>
      </trkpt>
      <trkpt lat="43.86053" lon="7.25999">
        <ele>921</ele>
        <time>2013-03-10T13:52:57Z</time>
      </trkpt>
      <trkpt lat="43.86053" lon="7.25997">
        <ele>921</ele>
        <time>2013-03-10T13:57:49Z</time>
      </trkpt>
      <trkpt lat="43.86043" lon="7.25991">
        <ele>921</ele>
        <time>2013-03-10T13:57:54Z</time>
      </trkpt>
      <trkpt lat="43.86039" lon="7.25989">
        <ele>920</ele>
        <time>2013-03-10T13:57:56Z</time>
      </trkpt>
      <trkpt lat="43.86038" lon="7.25989">
        <ele>920</ele>
        <time>2013-03-10T13:57:57Z</time>
      </trkpt>
      <trkpt lat="43.86037" lon="7.25988">
        <ele>918</ele>
        <time>2013-03-10T13:58:05Z</time>
      </trkpt>
      <trkpt lat="43.86034" lon="7.25987">
        <ele>918</ele>
        <time>2013-03-10T13:58:07Z</time>
      </trkpt>
      <trkpt lat="43.86033" lon="7.2599">
        <ele>918</ele>
        <time>2013-03-10T13:58:09Z</time>
      </trkpt>
      <trkpt lat="43.86032" lon="7.25991">
        <ele>918</ele>
        <time>2013-03-10T13:58:10Z</time>
      </trkpt>
      <trkpt lat="43.86032" lon="7.25992">
        <ele>917</ele>
        <time>2013-03-10T13:58:11Z</time>
      </trkpt>
      <trkpt lat="43.86031" lon="7.25992">
        <ele>917</ele>
        <time>2013-03-10T13:58:12Z</time>
      </trkpt>
      <trkpt lat="43.8603" lon="7.25992">
        <ele>917</ele>
        <time>2013-03-10T13:58:13Z</time>
      </trkpt>
      <trkpt lat="43.86029" lon="7.25992">
        <ele>916</ele>
        <time>2013-03-10T13:58:14Z</time>
      </trkpt>
      <trkpt lat="43.86027" lon="7.25991">
        <ele>916</ele>
        <time>2013-03-10T13:58:15Z</time>
      </trkpt>
      <trkpt lat="43.86024" lon="7.25991">
        <ele>915</ele>
        <time>2013-03-10T13:58:16Z</time>
      </trkpt>
      <trkpt lat="43.86021" lon="7.2599">
        <ele>915</ele>
        <time>2013-03-10T13:58:17Z</time>
      </trkpt>
      <trkpt lat="43.86017" lon="7.25989">
        <ele>914</ele>
        <time>2013-03-10T13:58:18Z</time>
      </trkpt>
      <trkpt lat="43.86013" lon="7.25987">
        <ele>914</ele>
        <time>2013-03-10T13:58:19Z</time>
      </trkpt>
      <trkpt lat="43.86008" lon="7.25986">
        <ele>913</ele>
        <time>2013-03-10T13:58:20Z</time>
      </trkpt>
      <trkpt lat="43.86004" lon="7.25985">
        <ele>913</ele>
        <time>2013-03-10T13:58:21Z</time>
      </trkpt>
      <trkpt lat="43.86" lon="7.25983">
        <ele>912</ele>
        <time>2013-03-10T13:58:22Z</time>
      </trkpt>
      <trkpt lat="43.85996" lon="7.25981">
        <ele>912</ele>
        <time>2013-03-10T13:58:23Z</time>
      </trkpt>
      <trkpt lat="43.85992" lon="7.25979">
        <ele>911</ele>
        <time>2013-03-10T13:58:24Z</time>
      </trkpt>
      <trkpt lat="43.85988" lon="7.25978">
        <ele>910</ele>
        <time>2013-03-10T13:58:25Z</time>
      </trkpt>
      <trkpt lat="43.85983" lon="7.25978">
        <ele>910</ele>
        <time>2013-03-10T13:58:26Z</time>
      </trkpt>
      <trkpt lat="43.85978" lon="7.25977">
        <ele>909</ele>
        <time>2013-03-10T13:58:27Z</time>
      </trkpt>
      <trkpt lat="43.85973" lon="7.25977">
        <ele>908</ele>
        <time>2013-03-10T13:58:28Z</time>
      </trkpt>
      <trkpt lat="43.85968" lon="7.25976">
        <ele>908</ele>
        <time>2013-03-10T13:58:29Z</time>
      </trkpt>
      <trkpt lat="43.85963" lon="7.25974">
        <ele>907</ele>
        <time>2013-03-10T13:58:30Z</time>
      </trkpt>
      <trkpt lat="43.85958" lon="7.25972">
        <ele>907</ele>
        <time>2013-03-10T13:58:31Z</time>
      </trkpt>
      <trkpt lat="43.85954" lon="7.2597">
        <ele>906</ele>
        <time>2013-03-10T13:58:32Z</time>
      </trkpt>
      <trkpt lat="43.85951" lon="7.25969">
        <ele>905</ele>
        <time>2013-03-10T13:58:33Z</time>
      </trkpt>
      <trkpt lat="43.85947" lon="7.25969">
        <ele>904</ele>
        <time>2013-03-10T13:58:34Z</time>
      </trkpt>
      <trkpt lat="43.85943" lon="7.25968">
        <ele>904</ele>
        <time>2013-03-10T13:58:35Z</time>
      </trkpt>
      <trkpt lat="43.8594" lon="7.25967">
        <ele>903</ele>
        <time>2013-03-10T13:58:36Z</time>
      </trkpt>
      <trkpt lat="43.85936" lon="7.25967">
        <ele>902</ele>
        <time>2013-03-10T13:58:37Z</time>
      </trkpt>
      <trkpt lat="43.85933" lon="7.25967">
        <ele>902</ele>
        <time>2013-03-10T13:58:38Z</time>
      </trkpt>
      <trkpt lat="43.85929" lon="7.25967">
        <ele>900</ele>
        <time>2013-03-10T13:58:39Z</time>
      </trkpt>
      <trkpt lat="43.85925" lon="7.25967">
        <ele>900</ele>
        <time>2013-03-10T13:58:40Z</time>
      </trkpt>
      <trkpt lat="43.85923" lon="7.25966">
        <ele>899</ele>
        <time>2013-03-10T13:58:41Z</time>
      </trkpt>
      <trkpt lat="43.85922" lon="7.25965">
        <ele>898</ele>
        <time>2013-03-10T13:58:42Z</time>
      </trkpt>
      <trkpt lat="43.85919" lon="7.25965">
        <ele>897</ele>
        <time>2013-03-10T13:58:43Z</time>
      </trkpt>
      <trkpt lat="43.85916" lon="7.25965">
        <ele>897</ele>
        <time>2013-03-10T13:58:44Z</time>
      </trkpt>
      <trkpt lat="43.85911" lon="7.25966">
        <ele>896</ele>
        <time>2013-03-10T13:58:45Z</time>
      </trkpt>
      <trkpt lat="43.85906" lon="7.25966">
        <ele>895</ele>
        <time>2013-03-10T13:58:46Z</time>
      </trkpt>
      <trkpt lat="43.85901" lon="7.25965">
        <ele>894</ele>
        <time>2013-03-10T13:58:47Z</time>
      </trkpt>
      <trkpt lat="43.85897" lon="7.25964">
        <ele>894</ele>
        <time>2013-03-10T13:58:48Z</time>
      </trkpt>
      <trkpt lat="43.85893" lon="7.25963">
        <ele>893</ele>
        <time>2013-03-10T13:58:49Z</time>
      </trkpt>
      <trkpt lat="43.8589" lon="7.25962">
        <ele>892</ele>
        <time>2013-03-10T13:58:50Z</time>
      </trkpt>
      <trkpt lat="43.85888" lon="7.25961">
        <ele>892</ele>
        <time>2013-03-10T13:58:51Z</time>
      </trkpt>
      <trkpt lat="43.85885" lon="7.2596">
        <ele>891</ele>
        <time>2013-03-10T13:58:52Z</time>
      </trkpt>
      <trkpt lat="43.85881" lon="7.2596">
        <ele>890</ele>
        <time>2013-03-10T13:58:53Z</time>
      </trkpt>
      <trkpt lat="43.85876" lon="7.2596">
        <ele>889</ele>
        <time>2013-03-10T13:58:54Z</time>
      </trkpt>
      <trkpt lat="43.85871" lon="7.25959">
        <ele>889</ele>
        <time>2013-03-10T13:58:55Z</time>
      </trkpt>
      <trkpt lat="43.85866" lon="7.2596">
        <ele>888</ele>
        <time>2013-03-10T13:58:56Z</time>
      </trkpt>
      <trkpt lat="43.85861" lon="7.2596">
        <ele>887</ele>
        <time>2013-03-10T13:58:57Z</time>
      </trkpt>
      <trkpt lat="43.85857" lon="7.25959">
        <ele>887</ele>
        <time>2013-03-10T13:58:58Z</time>
      </trkpt>
      <trkpt lat="43.85853" lon="7.25959">
        <ele>886</ele>
        <time>2013-03-10T13:58:59Z</time>
      </trkpt>
      <trkpt lat="43.85849" lon="7.25959">
        <ele>885</ele>
        <time>2013-03-10T13:59:00Z</time>
      </trkpt>
      <trkpt lat="43.85845" lon="7.25959">
        <ele>884</ele>
        <time>2013-03-10T13:59:01Z</time>
      </trkpt>
      <trkpt lat="43.85841" lon="7.25958">
        <ele>884</ele>
        <time>2013-03-10T13:59:02Z</time>
      </trkpt>
      <trkpt lat="43.85839" lon="7.25958">
        <ele>882</ele>
        <time>2013-03-10T13:59:03Z</time>
      </trkpt>
      <trkpt lat="43.85836" lon="7.25957">
        <ele>882</ele>
        <time>2013-03-10T13:59:04Z</time>
      </trkpt>
      <trkpt lat="43.85833" lon="7.25957">
        <ele>881</ele>
        <time>2013-03-10T13:59:05Z</time>
      </trkpt>
      <trkpt lat="43.8583" lon="7.25957">
        <ele>880</ele>
        <time>2013-03-10T13:59:06Z</time>
      </trkpt>
      <trkpt lat="43.85827" lon="7.25957">
        <ele>880</ele>
        <time>2013-03-10T13:59:07Z</time>
      </trkpt>
      <trkpt lat="43.85825" lon="7.25957">
        <ele>879</ele>
        <time>2013-03-10T13:59:08Z</time>
      </trkpt>
      <trkpt lat="43.85824" lon="7.25957">
        <ele>878</ele>
        <time>2013-03-10T13:59:09Z</time>
      </trkpt>
      <trkpt lat="43.85817" lon="7.25959">
        <ele>878</ele>
        <time>2013-03-10T13:59:12Z</time>
      </trkpt>
      <trkpt lat="43.85815" lon="7.25958">
        <ele>877</ele>
        <time>2013-03-10T13:59:13Z</time>
      </trkpt>
      <trkpt lat="43.85814" lon="7.25958">
        <ele>877</ele>
        <time>2013-03-10T13:59:14Z</time>
      </trkpt>
      <trkpt lat="43.85814" lon="7.25959">
        <ele>876</ele>
        <time>2013-03-10T13:59:15Z</time>
      </trkpt>
      <trkpt lat="43.85813" lon="7.25958">
        <ele>876</ele>
        <time>2013-03-10T13:59:52Z</time>
      </trkpt>
      <trkpt lat="43.85808" lon="7.25956">
        <ele>876</ele>
        <time>2013-03-10T13:59:54Z</time>
      </trkpt>
      <trkpt lat="43.85802" lon="7.25957">
        <ele>875</ele>
        <time>2013-03-10T13:59:56Z</time>
      </trkpt>
      <trkpt lat="43.85798" lon="7.25959">
        <ele>875</ele>
        <time>2013-03-10T13:59:57Z</time>
      </trkpt>
      <trkpt lat="43.85794" lon="7.25959">
        <ele>875</ele>
        <time>2013-03-10T13:59:58Z</time>
      </trkpt>
      <trkpt lat="43.8579" lon="7.25959">
        <ele>874</ele>
        <time>2013-03-10T13:59:59Z</time>
      </trkpt>
      <trkpt lat="43.85787" lon="7.2596">
        <ele>873</ele>
        <time>2013-03-10T14:00:00Z</time>
      </trkpt>
      <trkpt lat="43.85783" lon="7.2596">
        <ele>873</ele>
        <time>2013-03-10T14:00:01Z</time>
      </trkpt>
      <trkpt lat="43.85779" lon="7.25959">
        <ele>872</ele>
        <time>2013-03-10T14:00:02Z</time>
      </trkpt>
      <trkpt lat="43.85775" lon="7.25957">
        <ele>871</ele>
        <time>2013-03-10T14:00:03Z</time>
      </trkpt>
      <trkpt lat="43.85771" lon="7.25955">
        <ele>871</ele>
        <time>2013-03-10T14:00:04Z</time>
      </trkpt>
      <trkpt lat="43.85766" lon="7.25952">
        <ele>870</ele>
        <time>2013-03-10T14:00:05Z</time>
      </trkpt>
      <trkpt lat="43.85762" lon="7.25949">
        <ele>869</ele>
        <time>2013-03-10T14:00:06Z</time>
      </trkpt>
      <trkpt lat="43.85759" lon="7.25948">
        <ele>868</ele>
        <time>2013-03-10T14:00:07Z</time>
      </trkpt>
      <trkpt lat="43.85757" lon="7.25947">
        <ele>867</ele>
        <time>2013-03-10T14:00:08Z</time>
      </trkpt>
      <trkpt lat="43.85756" lon="7.25947">
        <ele>866</ele>
        <time>2013-03-10T14:00:09Z</time>
      </trkpt>
      <trkpt lat="43.85756" lon="7.25947">
        <ele>865</ele>
        <time>2013-03-10T14:00:10Z</time>
      </trkpt>
      <trkpt lat="43.85754" lon="7.25948">
        <ele>864</ele>
        <time>2013-03-10T14:00:14Z</time>
      </trkpt>
      <trkpt lat="43.85753" lon="7.25948">
        <ele>864</ele>
        <time>2013-03-10T14:00:15Z</time>
      </trkpt>
      <trkpt lat="43.85751" lon="7.25948">
        <ele>864</ele>
        <time>2013-03-10T14:00:16Z</time>
      </trkpt>
      <trkpt lat="43.85749" lon="7.25946">
        <ele>863</ele>
        <time>2013-03-10T14:00:17Z</time>
      </trkpt>
      <trkpt lat="43.85746" lon="7.25943">
        <ele>862</ele>
        <time>2013-03-10T14:00:18Z</time>
      </trkpt>
      <trkpt lat="43.85738" lon="7.25939">
        <ele>862</ele>
        <time>2013-03-10T14:00:20Z</time>
      </trkpt>
      <trkpt lat="43.85734" lon="7.25938">
        <ele>862</ele>
        <time>2013-03-10T14:00:21Z</time>
      </trkpt>
      <trkpt lat="43.8573" lon="7.25937">
        <ele>861</ele>
        <time>2013-03-10T14:00:22Z</time>
      </trkpt>
      <trkpt lat="43.85725" lon="7.25936">
        <ele>861</ele>
        <time>2013-03-10T14:00:23Z</time>
      </trkpt>
      <trkpt lat="43.85722" lon="7.25936">
        <ele>860</ele>
        <time>2013-03-10T14:00:24Z</time>
      </trkpt>
      <trkpt lat="43.85719" lon="7.25937">
        <ele>860</ele>
        <time>2013-03-10T14:00:25Z</time>
      </trkpt>
      <trkpt lat="43.85718" lon="7.25937">
        <ele>859</ele>
        <time>2013-03-10T14:00:26Z</time>
      </trkpt>
      <trkpt lat="43.85717" lon="7.25938">
        <ele>859</ele>
        <time>2013-03-10T14:00:27Z</time>
      </trkpt>
      <trkpt lat="43.85716" lon="7.25937">
        <ele>858</ele>
        <time>2013-03-10T14:00:28Z</time>
      </trkpt>
      <trkpt lat="43.85712" lon="7.25938">
        <ele>856</ele>
        <time>2013-03-10T14:00:33Z</time>
      </trkpt>
      <trkpt lat="43.85711" lon="7.25938">
        <ele>856</ele>
        <time>2013-03-10T14:00:34Z</time>
      </trkpt>
      <trkpt lat="43.85709" lon="7.25938">
        <ele>855</ele>
        <time>2013-03-10T14:00:35Z</time>
      </trkpt>
      <trkpt lat="43.85707" lon="7.25939">
        <ele>855</ele>
        <time>2013-03-10T14:00:36Z</time>
      </trkpt>
      <trkpt lat="43.85704" lon="7.25938">
        <ele>855</ele>
        <time>2013-03-10T14:00:37Z</time>
      </trkpt>
      <trkpt lat="43.857" lon="7.25937">
        <ele>854</ele>
        <time>2013-03-10T14:00:38Z</time>
      </trkpt>
      <trkpt lat="43.85697" lon="7.25937">
        <ele>853</ele>
        <time>2013-03-10T14:00:39Z</time>
      </trkpt>
      <trkpt lat="43.85694" lon="7.25937">
        <ele>853</ele>
        <time>2013-03-10T14:00:40Z</time>
      </trkpt>
      <trkpt lat="43.85689" lon="7.25936">
        <ele>852</ele>
        <time>2013-03-10T14:00:41Z</time>
      </trkpt>
      <trkpt lat="43.85684" lon="7.25935">
        <ele>850</ele>
        <time>2013-03-10T14:00:42Z</time>
      </trkpt>
      <trkpt lat="43.8568" lon="7.25932">
        <ele>849</ele>
        <time>2013-03-10T14:00:43Z</time>
      </trkpt>
      <trkpt lat="43.85676" lon="7.25929">
        <ele>849</ele>
        <time>2013-03-10T14:00:44Z</time>
      </trkpt>
      <trkpt lat="43.85673" lon="7.25924">
        <ele>848</ele>
        <time>2013-03-10T14:00:45Z</time>
      </trkpt>
      <trkpt lat="43.8567" lon="7.25921">
        <ele>847</ele>
        <time>2013-03-10T14:00:46Z</time>
      </trkpt>
      <trkpt lat="43.85667" lon="7.2592">
        <ele>846</ele>
        <time>2013-03-10T14:00:47Z</time>
      </trkpt>
      <trkpt lat="43.85664" lon="7.25919">
        <ele>846</ele>
        <time>2013-03-10T14:00:48Z</time>
      </trkpt>
      <trkpt lat="43.85658" lon="7.25918">
        <ele>846</ele>
        <time>2013-03-10T14:00:50Z</time>
      </trkpt>
      <trkpt lat="43.85656" lon="7.25918">
        <ele>845</ele>
        <time>2013-03-10T14:00:51Z</time>
      </trkpt>
      <trkpt lat="43.85654" lon="7.25919">
        <ele>845</ele>
        <time>2013-03-10T14:00:52Z</time>
      </trkpt>
      <trkpt lat="43.85652" lon="7.25919">
        <ele>845</ele>
        <time>2013-03-10T14:00:53Z</time>
      </trkpt>
      <trkpt lat="43.85649" lon="7.2592">
        <ele>844</ele>
        <time>2013-03-10T14:00:54Z</time>
      </trkpt>
      <trkpt lat="43.85647" lon="7.25922">
        <ele>843</ele>
        <time>2013-03-10T14:00:55Z</time>
      </trkpt>
      <trkpt lat="43.85644" lon="7.25922">
        <ele>843</ele>
        <time>2013-03-10T14:00:56Z</time>
      </trkpt>
      <trkpt lat="43.85642" lon="7.25921">
        <ele>842</ele>
        <time>2013-03-10T14:00:57Z</time>
      </trkpt>
      <trkpt lat="43.85639" lon="7.25918">
        <ele>841</ele>
        <time>2013-03-10T14:00:58Z</time>
      </trkpt>
      <trkpt lat="43.85637" lon="7.25914">
        <ele>841</ele>
        <time>2013-03-10T14:00:59Z</time>
      </trkpt>
      <trkpt lat="43.85635" lon="7.25912">
        <ele>840</ele>
        <time>2013-03-10T14:01:00Z</time>
      </trkpt>
      <trkpt lat="43.85634" lon="7.25913">
        <ele>839</ele>
        <time>2013-03-10T14:01:01Z</time>
      </trkpt>
      <trkpt lat="43.85627" lon="7.2591">
        <ele>839</ele>
        <time>2013-03-10T14:01:04Z</time>
      </trkpt>
      <trkpt lat="43.85624" lon="7.25908">
        <ele>838</ele>
        <time>2013-03-10T14:01:05Z</time>
      </trkpt>
      <trkpt lat="43.85622" lon="7.25906">
        <ele>838</ele>
        <time>2013-03-10T14:01:06Z</time>
      </trkpt>
      <trkpt lat="43.85619" lon="7.25906">
        <ele>837</ele>
        <time>2013-03-10T14:01:07Z</time>
      </trkpt>
      <trkpt lat="43.85616" lon="7.25907">
        <ele>837</ele>
        <time>2013-03-10T14:01:08Z</time>
      </trkpt>
      <trkpt lat="43.85614" lon="7.25908">
        <ele>837</ele>
        <time>2013-03-10T14:01:09Z</time>
      </trkpt>
      <trkpt lat="43.85614" lon="7.25909">
        <ele>836</ele>
        <time>2013-03-10T14:01:10Z</time>
      </trkpt>
      <trkpt lat="43.85616" lon="7.25906">
        <ele>835</ele>
        <time>2013-03-10T14:01:22Z</time>
      </trkpt>
      <trkpt lat="43.85606" lon="7.25901">
        <ele>835</ele>
        <time>2013-03-10T14:01:25Z</time>
      </trkpt>
      <trkpt lat="43.85602" lon="7.25899">
        <ele>835</ele>
        <time>2013-03-10T14:01:26Z</time>
      </trkpt>
      <trkpt lat="43.85598" lon="7.25896">
        <ele>835</ele>
        <time>2013-03-10T14:01:27Z</time>
      </trkpt>
      <trkpt lat="43.85595" lon="7.25893">
        <ele>835</ele>
        <time>2013-03-10T14:01:28Z</time>
      </trkpt>
      <trkpt lat="43.85593" lon="7.25891">
        <ele>834</ele>
        <time>2013-03-10T14:01:29Z</time>
      </trkpt>
      <trkpt lat="43.85591" lon="7.2589">
        <ele>834</ele>
        <time>2013-03-10T14:01:30Z</time>
      </trkpt>
      <trkpt lat="43.85589" lon="7.25891">
        <ele>833</ele>
        <time>2013-03-10T14:01:31Z</time>
      </trkpt>
      <trkpt lat="43.85587" lon="7.25892">
        <ele>832</ele>
        <time>2013-03-10T14:01:32Z</time>
      </trkpt>
      <trkpt lat="43.85584" lon="7.25892">
        <ele>832</ele>
        <time>2013-03-10T14:01:33Z</time>
      </trkpt>
      <trkpt lat="43.85582" lon="7.2589">
        <ele>831</ele>
        <time>2013-03-10T14:01:34Z</time>
      </trkpt>
      <trkpt lat="43.8558" lon="7.2589">
        <ele>831</ele>
        <time>2013-03-10T14:01:35Z</time>
      </trkpt>
      <trkpt lat="43.85577" lon="7.25889">
        <ele>830</ele>
        <time>2013-03-10T14:01:36Z</time>
      </trkpt>
      <trkpt lat="43.85574" lon="7.25889">
        <ele>829</ele>
        <time>2013-03-10T14:01:37Z</time>
      </trkpt>
      <trkpt lat="43.85569" lon="7.25888">
        <ele>829</ele>
        <time>2013-03-10T14:01:38Z</time>
      </trkpt>
      <trkpt lat="43.85565" lon="7.25886">
        <ele>828</ele>
        <time>2013-03-10T14:01:39Z</time>
      </trkpt>
      <trkpt lat="43.85562" lon="7.25886">
        <ele>828</ele>
        <time>2013-03-10T14:01:40Z</time>
      </trkpt>
      <trkpt lat="43.85559" lon="7.25885">
        <ele>827</ele>
        <time>2013-03-10T14:01:41Z</time>
      </trkpt>
      <trkpt lat="43.85556" lon="7.25885">
        <ele>827</ele>
        <time>2013-03-10T14:01:42Z</time>
      </trkpt>
      <trkpt lat="43.85552" lon="7.25886">
        <ele>826</ele>
        <time>2013-03-10T14:01:43Z</time>
      </trkpt>
      <trkpt lat="43.85549" lon="7.25886">
        <ele>825</ele>
        <time>2013-03-10T14:01:44Z</time>
      </trkpt>
      <trkpt lat="43.85544" lon="7.25885">
        <ele>825</ele>
        <time>2013-03-10T14:01:45Z</time>
      </trkpt>
      <trkpt lat="43.85539" lon="7.25884">
        <ele>824</ele>
        <time>2013-03-10T14:01:46Z</time>
      </trkpt>
      <trkpt lat="43.85534" lon="7.25884">
        <ele>823</ele>
        <time>2013-03-10T14:01:47Z</time>
      </trkpt>
      <trkpt lat="43.8553" lon="7.25884">
        <ele>823</ele>
        <time>2013-03-10T14:01:48Z</time>
      </trkpt>
      <trkpt lat="43.85525" lon="7.25883">
        <ele>822</ele>
        <time>2013-03-10T14:01:49Z</time>
      </trkpt>
      <trkpt lat="43.85521" lon="7.2588">
        <ele>821</ele>
        <time>2013-03-10T14:01:50Z</time>
      </trkpt>
      <trkpt lat="43.85517" lon="7.25877">
        <ele>821</ele>
        <time>2013-03-10T14:01:51Z</time>
      </trkpt>
      <trkpt lat="43.85502" lon="7.25865">
        <ele>821</ele>
        <time>2013-03-10T14:01:55Z</time>
      </trkpt>
      <trkpt lat="43.85498" lon="7.25863">
        <ele>821</ele>
        <time>2013-03-10T14:01:56Z</time>
      </trkpt>
      <trkpt lat="43.8549" lon="7.25859">
        <ele>821</ele>
        <time>2013-03-10T14:01:58Z</time>
      </trkpt>
      <trkpt lat="43.85487" lon="7.25858">
        <ele>821</ele>
        <time>2013-03-10T14:01:59Z</time>
      </trkpt>
      <trkpt lat="43.85484" lon="7.25859">
        <ele>820</ele>
        <time>2013-03-10T14:02:00Z</time>
      </trkpt>
      <trkpt lat="43.85482" lon="7.2586">
        <ele>820</ele>
        <time>2013-03-10T14:02:01Z</time>
      </trkpt>
      <trkpt lat="43.85478" lon="7.25859">
        <ele>819</ele>
        <time>2013-03-10T14:02:02Z</time>
      </trkpt>
      <trkpt lat="43.85474" lon="7.25857">
        <ele>819</ele>
        <time>2013-03-10T14:02:03Z</time>
      </trkpt>
      <trkpt lat="43.8547" lon="7.25856">
        <ele>819</ele>
        <time>2013-03-10T14:02:04Z</time>
      </trkpt>
      <trkpt lat="43.8546" lon="7.25854">
        <ele>819</ele>
        <time>2013-03-10T14:02:07Z</time>
      </trkpt>
      <trkpt lat="43.85443" lon="7.25848">
        <ele>819</ele>
        <time>2013-03-10T14:02:12Z</time>
      </trkpt>
      <trkpt lat="43.85441" lon="7.25848">
        <ele>819</ele>
        <time>2013-03-10T14:02:13Z</time>
      </trkpt>
      <trkpt lat="43.85438" lon="7.25847">
        <ele>818</ele>
        <time>2013-03-10T14:02:14Z</time>
      </trkpt>
      <trkpt lat="43.85436" lon="7.25847">
        <ele>818</ele>
        <time>2013-03-10T14:02:15Z</time>
      </trkpt>
      <trkpt lat="43.85434" lon="7.25846">
        <ele>818</ele>
        <time>2013-03-10T14:02:16Z</time>
      </trkpt>
      <trkpt lat="43.85433" lon="7.25845">
        <ele>817</ele>
        <time>2013-03-10T14:02:17Z</time>
      </trkpt>
      <trkpt lat="43.85432" lon="7.25845">
        <ele>817</ele>
        <time>2013-03-10T14:02:18Z</time>
      </trkpt>
      <trkpt lat="43.85431" lon="7.25844">
        <ele>817</ele>
        <time>2013-03-10T14:02:37Z</time>
      </trkpt>
      <trkpt lat="43.85427" lon="7.25844">
        <ele>817</ele>
        <time>2013-03-10T14:02:39Z</time>
      </trkpt>
      <trkpt lat="43.85409" lon="7.25835">
        <ele>817</ele>
        <time>2013-03-10T14:02:45Z</time>
      </trkpt>
      <trkpt lat="43.85405" lon="7.25832">
        <ele>817</ele>
        <time>2013-03-10T14:02:46Z</time>
      </trkpt>
      <trkpt lat="43.85388" lon="7.25825">
        <ele>817</ele>
        <time>2013-03-10T14:02:50Z</time>
      </trkpt>
      <trkpt lat="43.85387" lon="7.25822">
        <ele>816</ele>
        <time>2013-03-10T14:02:51Z</time>
      </trkpt>
      <trkpt lat="43.85388" lon="7.2582">
        <ele>816</ele>
        <time>2013-03-10T14:02:52Z</time>
      </trkpt>
      <trkpt lat="43.85392" lon="7.25817">
        <ele>815</ele>
        <time>2013-03-10T14:02:53Z</time>
      </trkpt>
      <trkpt lat="43.85396" lon="7.25814">
        <ele>815</ele>
        <time>2013-03-10T14:02:54Z</time>
      </trkpt>
      <trkpt lat="43.85401" lon="7.25811">
        <ele>815</ele>
        <time>2013-03-10T14:02:55Z</time>
      </trkpt>
      <trkpt lat="43.85406" lon="7.25809">
        <ele>814</ele>
        <time>2013-03-10T14:02:56Z</time>
      </trkpt>
      <trkpt lat="43.8541" lon="7.25807">
        <ele>814</ele>
        <time>2013-03-10T14:02:57Z</time>
      </trkpt>
      <trkpt lat="43.85413" lon="7.25805">
        <ele>813</ele>
        <time>2013-03-10T14:02:58Z</time>
      </trkpt>
      <trkpt lat="43.85415" lon="7.25801">
        <ele>813</ele>
        <time>2013-03-10T14:02:59Z</time>
      </trkpt>
      <trkpt lat="43.85417" lon="7.25796">
        <ele>812</ele>
        <time>2013-03-10T14:03:00Z</time>
      </trkpt>
      <trkpt lat="43.85418" lon="7.2579">
        <ele>812</ele>
        <time>2013-03-10T14:03:01Z</time>
      </trkpt>
      <trkpt lat="43.85419" lon="7.25785">
        <ele>811</ele>
        <time>2013-03-10T14:03:02Z</time>
      </trkpt>
      <trkpt lat="43.85421" lon="7.25782">
        <ele>810</ele>
        <time>2013-03-10T14:03:03Z</time>
      </trkpt>
      <trkpt lat="43.85423" lon="7.25777">
        <ele>809</ele>
        <time>2013-03-10T14:03:04Z</time>
      </trkpt>
      <trkpt lat="43.85425" lon="7.25771">
        <ele>809</ele>
        <time>2013-03-10T14:03:05Z</time>
      </trkpt>
      <trkpt lat="43.85428" lon="7.25765">
        <ele>808</ele>
        <time>2013-03-10T14:03:06Z</time>
      </trkpt>
      <trkpt lat="43.85431" lon="7.2576">
        <ele>807</ele>
        <time>2013-03-10T14:03:07Z</time>
      </trkpt>
      <trkpt lat="43.85439" lon="7.25744">
        <ele>806</ele>
        <time>2013-03-10T14:03:10Z</time>
      </trkpt>
      <trkpt lat="43.85441" lon="7.2574">
        <ele>806</ele>
        <time>2013-03-10T14:03:11Z</time>
      </trkpt>
      <trkpt lat="43.85443" lon="7.25737">
        <ele>805</ele>
        <time>2013-03-10T14:03:12Z</time>
      </trkpt>
      <trkpt lat="43.85444" lon="7.25734">
        <ele>805</ele>
        <time>2013-03-10T14:03:13Z</time>
      </trkpt>
      <trkpt lat="43.85443" lon="7.25731">
        <ele>805</ele>
        <time>2013-03-10T14:03:14Z</time>
      </trkpt>
      <trkpt lat="43.85434" lon="7.25724">
        <ele>805</ele>
        <time>2013-03-10T14:03:17Z</time>
      </trkpt>
      <trkpt lat="43.85428" lon="7.25724">
        <ele>805</ele>
        <time>2013-03-10T14:03:20Z</time>
      </trkpt>
      <trkpt lat="43.85419" lon="7.25719">
        <ele>805</ele>
        <time>2013-03-10T14:03:24Z</time>
      </trkpt>
      <trkpt lat="43.85416" lon="7.25716">
        <ele>804</ele>
        <time>2013-03-10T14:03:25Z</time>
      </trkpt>
      <trkpt lat="43.85412" lon="7.2571">
        <ele>804</ele>
        <time>2013-03-10T14:03:26Z</time>
      </trkpt>
      <trkpt lat="43.85409" lon="7.25705">
        <ele>804</ele>
        <time>2013-03-10T14:03:27Z</time>
      </trkpt>
      <trkpt lat="43.85406" lon="7.257">
        <ele>803</ele>
        <time>2013-03-10T14:03:28Z</time>
      </trkpt>
      <trkpt lat="43.85404" lon="7.25694">
        <ele>803</ele>
        <time>2013-03-10T14:03:29Z</time>
      </trkpt>
      <trkpt lat="43.85402" lon="7.2569">
        <ele>802</ele>
        <time>2013-03-10T14:03:30Z</time>
      </trkpt>
      <trkpt lat="43.85398" lon="7.25686">
        <ele>802</ele>
        <time>2013-03-10T14:03:31Z</time>
      </trkpt>
      <trkpt lat="43.85395" lon="7.25684">
        <ele>801</ele>
        <time>2013-03-10T14:03:32Z</time>
      </trkpt>
      <trkpt lat="43.85392" lon="7.25682">
        <ele>801</ele>
        <time>2013-03-10T14:03:33Z</time>
      </trkpt>
      <trkpt lat="43.8539" lon="7.25681">
        <ele>800</ele>
        <time>2013-03-10T14:03:34Z</time>
      </trkpt>
      <trkpt lat="43.85386" lon="7.2568">
        <ele>800</ele>
        <time>2013-03-10T14:03:35Z</time>
      </trkpt>
      <trkpt lat="43.85381" lon="7.25678">
        <ele>799</ele>
        <time>2013-03-10T14:03:36Z</time>
      </trkpt>
      <trkpt lat="43.85377" lon="7.25676">
        <ele>799</ele>
        <time>2013-03-10T14:03:37Z</time>
      </trkpt>
      <trkpt lat="43.85373" lon="7.25672">
        <ele>798</ele>
        <time>2013-03-10T14:03:38Z</time>
      </trkpt>
      <trkpt lat="43.8537" lon="7.25667">
        <ele>798</ele>
        <time>2013-03-10T14:03:39Z</time>
      </trkpt>
      <trkpt lat="43.85368" lon="7.25662">
        <ele>797</ele>
        <time>2013-03-10T14:03:40Z</time>
      </trkpt>
      <trkpt lat="43.85367" lon="7.25659">
        <ele>797</ele>
        <time>2013-03-10T14:03:41Z</time>
      </trkpt>
      <trkpt lat="43.85364" lon="7.25656">
        <ele>796</ele>
        <time>2013-03-10T14:03:42Z</time>
      </trkpt>
      <trkpt lat="43.8536" lon="7.25653">
        <ele>795</ele>
        <time>2013-03-10T14:03:43Z</time>
      </trkpt>
      <trkpt lat="43.85355" lon="7.2565">
        <ele>795</ele>
        <time>2013-03-10T14:03:44Z</time>
      </trkpt>
      <trkpt lat="43.8535" lon="7.25646">
        <ele>794</ele>
        <time>2013-03-10T14:03:45Z</time>
      </trkpt>
      <trkpt lat="43.85345" lon="7.25642">
        <ele>794</ele>
        <time>2013-03-10T14:03:46Z</time>
      </trkpt>
      <trkpt lat="43.8534" lon="7.25638">
        <ele>793</ele>
        <time>2013-03-10T14:03:47Z</time>
      </trkpt>
      <trkpt lat="43.85336" lon="7.25634">
        <ele>792</ele>
        <time>2013-03-10T14:03:48Z</time>
      </trkpt>
      <trkpt lat="43.85333" lon="7.25629">
        <ele>792</ele>
        <time>2013-03-10T14:03:49Z</time>
      </trkpt>
      <trkpt lat="43.85331" lon="7.25625">
        <ele>791</ele>
        <time>2013-03-10T14:03:50Z</time>
      </trkpt>
      <trkpt lat="43.85328" lon="7.2562">
        <ele>791</ele>
        <time>2013-03-10T14:03:51Z</time>
      </trkpt>
      <trkpt lat="43.85324" lon="7.25616">
        <ele>790</ele>
        <time>2013-03-10T14:03:52Z</time>
      </trkpt>
      <trkpt lat="43.85321" lon="7.25613">
        <ele>790</ele>
        <time>2013-03-10T14:03:53Z</time>
      </trkpt>
      <trkpt lat="43.85317" lon="7.2561">
        <ele>789</ele>
        <time>2013-03-10T14:03:54Z</time>
      </trkpt>
      <trkpt lat="43.85313" lon="7.25605">
        <ele>789</ele>
        <time>2013-03-10T14:03:55Z</time>
      </trkpt>
      <trkpt lat="43.85307" lon="7.25593">
        <ele>789</ele>
        <time>2013-03-10T14:03:57Z</time>
      </trkpt>
      <trkpt lat="43.85304" lon="7.25587">
        <ele>788</ele>
        <time>2013-03-10T14:03:58Z</time>
      </trkpt>
      <trkpt lat="43.85302" lon="7.25583">
        <ele>787</ele>
        <time>2013-03-10T14:03:59Z</time>
      </trkpt>
      <trkpt lat="43.853" lon="7.2558">
        <ele>787</ele>
        <time>2013-03-10T14:04:00Z</time>
      </trkpt>
      <trkpt lat="43.85297" lon="7.25578">
        <ele>786</ele>
        <time>2013-03-10T14:04:01Z</time>
      </trkpt>
      <trkpt lat="43.85294" lon="7.25575">
        <ele>786</ele>
        <time>2013-03-10T14:04:02Z</time>
      </trkpt>
      <trkpt lat="43.85291" lon="7.2557">
        <ele>785</ele>
        <time>2013-03-10T14:04:03Z</time>
      </trkpt>
      <trkpt lat="43.85288" lon="7.25565">
        <ele>785</ele>
        <time>2013-03-10T14:04:04Z</time>
      </trkpt>
      <trkpt lat="43.85284" lon="7.2556">
        <ele>784</ele>
        <time>2013-03-10T14:04:05Z</time>
      </trkpt>
      <trkpt lat="43.8528" lon="7.25556">
        <ele>783</ele>
        <time>2013-03-10T14:04:06Z</time>
      </trkpt>
      <trkpt lat="43.85276" lon="7.25552">
        <ele>782</ele>
        <time>2013-03-10T14:04:07Z</time>
      </trkpt>
      <trkpt lat="43.85272" lon="7.25549">
        <ele>781</ele>
        <time>2013-03-10T14:04:08Z</time>
      </trkpt>
      <trkpt lat="43.85268" lon="7.25546">
        <ele>780</ele>
        <time>2013-03-10T14:04:09Z</time>
      </trkpt>
      <trkpt lat="43.85264" lon="7.25541">
        <ele>779</ele>
        <time>2013-03-10T14:04:10Z</time>
      </trkpt>
      <trkpt lat="43.85262" lon="7.25536">
        <ele>778</ele>
        <time>2013-03-10T14:04:11Z</time>
      </trkpt>
      <trkpt lat="43.85261" lon="7.2553">
        <ele>777</ele>
        <time>2013-03-10T14:04:12Z</time>
      </trkpt>
      <trkpt lat="43.8526" lon="7.25523">
        <ele>776</ele>
        <time>2013-03-10T14:04:13Z</time>
      </trkpt>
      <trkpt lat="43.85259" lon="7.25517">
        <ele>775</ele>
        <time>2013-03-10T14:04:14Z</time>
      </trkpt>
      <trkpt lat="43.85258" lon="7.2551">
        <ele>774</ele>
        <time>2013-03-10T14:04:15Z</time>
      </trkpt>
      <trkpt lat="43.85257" lon="7.25504">
        <ele>773</ele>
        <time>2013-03-10T14:04:16Z</time>
      </trkpt>
      <trkpt lat="43.85255" lon="7.25498">
        <ele>772</ele>
        <time>2013-03-10T14:04:17Z</time>
      </trkpt>
      <trkpt lat="43.85253" lon="7.25494">
        <ele>771</ele>
        <time>2013-03-10T14:04:18Z</time>
      </trkpt>
      <trkpt lat="43.8525" lon="7.25489">
        <ele>770</ele>
        <time>2013-03-10T14:04:19Z</time>
      </trkpt>
      <trkpt lat="43.85247" lon="7.25485">
        <ele>769</ele>
        <time>2013-03-10T14:04:20Z</time>
      </trkpt>
      <trkpt lat="43.85244" lon="7.2548">
        <ele>768</ele>
        <time>2013-03-10T14:04:21Z</time>
      </trkpt>
      <trkpt lat="43.8524" lon="7.25474">
        <ele>767</ele>
        <time>2013-03-10T14:04:22Z</time>
      </trkpt>
      <trkpt lat="43.85238" lon="7.25468">
        <ele>766</ele>
        <time>2013-03-10T14:04:23Z</time>
      </trkpt>
      <trkpt lat="43.85234" lon="7.25463">
        <ele>765</ele>
        <time>2013-03-10T14:04:24Z</time>
      </trkpt>
      <trkpt lat="43.85232" lon="7.25458">
        <ele>764</ele>
        <time>2013-03-10T14:04:25Z</time>
      </trkpt>
      <trkpt lat="43.85229" lon="7.25452">
        <ele>763</ele>
        <time>2013-03-10T14:04:26Z</time>
      </trkpt>
      <trkpt lat="43.85228" lon="7.25446">
        <ele>762</ele>
        <time>2013-03-10T14:04:27Z</time>
      </trkpt>
      <trkpt lat="43.85227" lon="7.25441">
        <ele>762</ele>
        <time>2013-03-10T14:04:28Z</time>
      </trkpt>
      <trkpt lat="43.85225" lon="7.25435">
        <ele>761</ele>
        <time>2013-03-10T14:04:29Z</time>
      </trkpt>
      <trkpt lat="43.85225" lon="7.2543">
        <ele>760</ele>
        <time>2013-03-10T14:04:30Z</time>
      </trkpt>
      <trkpt lat="43.85224" lon="7.2542">
        <ele>759</ele>
        <time>2013-03-10T14:04:32Z</time>
      </trkpt>
      <trkpt lat="43.85225" lon="7.25416">
        <ele>759</ele>
        <time>2013-03-10T14:04:33Z</time>
      </trkpt>
      <trkpt lat="43.85226" lon="7.25411">
        <ele>759</ele>
        <time>2013-03-10T14:04:34Z</time>
      </trkpt>
      <trkpt lat="43.85225" lon="7.25407">
        <ele>758</ele>
        <time>2013-03-10T14:04:35Z</time>
      </trkpt>
      <trkpt lat="43.85223" lon="7.25402">
        <ele>758</ele>
        <time>2013-03-10T14:04:36Z</time>
      </trkpt>
      <trkpt lat="43.85221" lon="7.25397">
        <ele>757</ele>
        <time>2013-03-10T14:04:37Z</time>
      </trkpt>
      <trkpt lat="43.85219" lon="7.25391">
        <ele>757</ele>
        <time>2013-03-10T14:04:38Z</time>
      </trkpt>
      <trkpt lat="43.85216" lon="7.25384">
        <ele>756</ele>
        <time>2013-03-10T14:04:39Z</time>
      </trkpt>
      <trkpt lat="43.85214" lon="7.25377">
        <ele>756</ele>
        <time>2013-03-10T14:04:40Z</time>
      </trkpt>
      <trkpt lat="43.85211" lon="7.2537">
        <ele>755</ele>
        <time>2013-03-10T14:04:41Z</time>
      </trkpt>
      <trkpt lat="43.8521" lon="7.25364">
        <ele>754</ele>
        <time>2013-03-10T14:04:42Z</time>
      </trkpt>
      <trkpt lat="43.85208" lon="7.25358">
        <ele>754</ele>
        <time>2013-03-10T14:04:43Z</time>
      </trkpt>
      <trkpt lat="43.85206" lon="7.25352">
        <ele>753</ele>
        <time>2013-03-10T14:04:44Z</time>
      </trkpt>
      <trkpt lat="43.85204" lon="7.25348">
        <ele>752</ele>
        <time>2013-03-10T14:04:45Z</time>
      </trkpt>
      <trkpt lat="43.852" lon="7.25344">
        <ele>751</ele>
        <time>2013-03-10T14:04:46Z</time>
      </trkpt>
      <trkpt lat="43.85197" lon="7.25342">
        <ele>751</ele>
        <time>2013-03-10T14:04:47Z</time>
      </trkpt>
      <trkpt lat="43.85194" lon="7.2534">
        <ele>750</ele>
        <time>2013-03-10T14:04:48Z</time>
      </trkpt>
      <trkpt lat="43.85192" lon="7.2534">
        <ele>748</ele>
        <time>2013-03-10T14:04:49Z</time>
      </trkpt>
      <trkpt lat="43.85192" lon="7.25341">
        <ele>748</ele>
        <time>2013-03-10T14:04:50Z</time>
      </trkpt>
      <trkpt lat="43.85192" lon="7.25341">
        <ele>748</ele>
        <time>2013-03-10T14:04:51Z</time>
      </trkpt>
      <trkpt lat="43.85189" lon="7.2534">
        <ele>746</ele>
        <time>2013-03-10T14:09:01Z</time>
      </trkpt>
      <trkpt lat="43.85186" lon="7.25338">
        <ele>746</ele>
        <time>2013-03-10T14:09:03Z</time>
      </trkpt>
      <trkpt lat="43.85187" lon="7.25342">
        <ele>746</ele>
        <time>2013-03-10T14:09:06Z</time>
      </trkpt>
      <trkpt lat="43.85191" lon="7.25341">
        <ele>746</ele>
        <time>2013-03-10T14:09:10Z</time>
      </trkpt>
      <trkpt lat="43.85192" lon="7.2534">
        <ele>746</ele>
        <time>2013-03-10T14:09:11Z</time>
      </trkpt>
      <trkpt lat="43.85194" lon="7.25341">
        <ele>746</ele>
        <time>2013-03-10T14:09:26Z</time>
      </trkpt>
      <trkpt lat="43.85196" lon="7.25343">
        <ele>746</ele>
        <time>2013-03-10T14:09:28Z</time>
      </trkpt>
      <trkpt lat="43.85196" lon="7.2534">
        <ele>746</ele>
        <time>2013-03-10T14:09:31Z</time>
      </trkpt>
      <trkpt lat="43.85195" lon="7.2534">
        <ele>746</ele>
        <time>2013-03-10T14:09:32Z</time>
      </trkpt>
      <trkpt lat="43.85189" lon="7.25337">
        <ele>746</ele>
        <time>2013-03-10T14:09:35Z</time>
      </trkpt>
      <trkpt lat="43.85172" lon="7.25332">
        <ele>746</ele>
        <time>2013-03-10T14:09:42Z</time>
      </trkpt>
      <trkpt lat="43.8517" lon="7.25332">
        <ele>747</ele>
        <time>2013-03-10T14:09:43Z</time>
      </trkpt>
      <trkpt lat="43.85168" lon="7.25332">
        <ele>747</ele>
        <time>2013-03-10T14:09:44Z</time>
      </trkpt>
      <trkpt lat="43.85166" lon="7.25332">
        <ele>748</ele>
        <time>2013-03-10T14:09:45Z</time>
      </trkpt>
      <trkpt lat="43.85165" lon="7.25331">
        <ele>748</ele>
        <time>2013-03-10T14:09:46Z</time>
      </trkpt>
      <trkpt lat="43.85163" lon="7.25331">
        <ele>748</ele>
        <time>2013-03-10T14:09:47Z</time>
      </trkpt>
      <trkpt lat="43.85162" lon="7.25331">
        <ele>748</ele>
        <time>2013-03-10T14:09:48Z</time>
      </trkpt>
      <trkpt lat="43.8516" lon="7.25331">
        <ele>749</ele>
        <time>2013-03-10T14:09:49Z</time>
      </trkpt>
      <trkpt lat="43.85159" lon="7.2533">
        <ele>749</ele>
        <time>2013-03-10T14:09:50Z</time>
      </trkpt>
      <trkpt lat="43.85157" lon="7.25331">
        <ele>750</ele>
        <time>2013-03-10T14:09:51Z</time>
      </trkpt>
      <trkpt lat="43.85155" lon="7.25331">
        <ele>750</ele>
        <time>2013-03-10T14:09:52Z</time>
      </trkpt>
      <trkpt lat="43.85154" lon="7.25332">
        <ele>751</ele>
        <time>2013-03-10T14:09:53Z</time>
      </trkpt>
      <trkpt lat="43.85153" lon="7.25333">
        <ele>752</ele>
        <time>2013-03-10T14:09:54Z</time>
      </trkpt>
      <trkpt lat="43.85152" lon="7.25333">
        <ele>752</ele>
        <time>2013-03-10T14:09:55Z</time>
      </trkpt>
      <trkpt lat="43.8515" lon="7.25333">
        <ele>753</ele>
        <time>2013-03-10T14:09:56Z</time>
      </trkpt>
      <trkpt lat="43.85149" lon="7.25333">
        <ele>753</ele>
        <time>2013-03-10T14:09:57Z</time>
      </trkpt>
      <trkpt lat="43.85148" lon="7.25334">
        <ele>753</ele>
        <time>2013-03-10T14:09:58Z</time>
      </trkpt>
      <trkpt lat="43.85147" lon="7.25334">
        <ele>754</ele>
        <time>2013-03-10T14:09:59Z</time>
      </trkpt>
      <trkpt lat="43.85145" lon="7.25334">
        <ele>754</ele>
        <time>2013-03-10T14:10:00Z</time>
      </trkpt>
      <trkpt lat="43.85144" lon="7.25335">
        <ele>755</ele>
        <time>2013-03-10T14:10:01Z</time>
      </trkpt>
      <trkpt lat="43.85142" lon="7.25334">
        <ele>755</ele>
        <time>2013-03-10T14:10:02Z</time>
      </trkpt>
      <trkpt lat="43.8514" lon="7.25334">
        <ele>756</ele>
        <time>2013-03-10T14:10:03Z</time>
      </trkpt>
      <trkpt lat="43.85138" lon="7.25334">
        <ele>756</ele>
        <time>2013-03-10T14:10:04Z</time>
      </trkpt>
      <trkpt lat="43.85137" lon="7.25335">
        <ele>756</ele>
        <time>2013-03-10T14:10:05Z</time>
      </trkpt>
      <trkpt lat="43.85135" lon="7.25335">
        <ele>757</ele>
        <time>2013-03-10T14:10:06Z</time>
      </trkpt>
      <trkpt lat="43.85134" lon="7.25336">
        <ele>757</ele>
        <time>2013-03-10T14:10:07Z</time>
      </trkpt>
      <trkpt lat="43.85132" lon="7.25337">
        <ele>758</ele>
        <time>2013-03-10T14:10:09Z</time>
      </trkpt>
      <trkpt lat="43.85131" lon="7.25338">
        <ele>758</ele>
        <time>2013-03-10T14:10:10Z</time>
      </trkpt>
      <trkpt lat="43.8513" lon="7.25339">
        <ele>759</ele>
        <time>2013-03-10T14:10:11Z</time>
      </trkpt>
      <trkpt lat="43.85129" lon="7.2534">
        <ele>759</ele>
        <time>2013-03-10T14:10:12Z</time>
      </trkpt>
      <trkpt lat="43.85128" lon="7.2534">
        <ele>760</ele>
        <time>2013-03-10T14:10:13Z</time>
      </trkpt>
      <trkpt lat="43.85125" lon="7.25339">
        <ele>760</ele>
        <time>2013-03-10T14:10:16Z</time>
      </trkpt>
      <trkpt lat="43.85123" lon="7.25339">
        <ele>760</ele>
        <time>2013-03-10T14:10:17Z</time>
      </trkpt>
      <trkpt lat="43.85122" lon="7.25339">
        <ele>761</ele>
        <time>2013-03-10T14:10:18Z</time>
      </trkpt>
      <trkpt lat="43.85121" lon="7.25339">
        <ele>762</ele>
        <time>2013-03-10T14:10:19Z</time>
      </trkpt>
      <trkpt lat="43.85116" lon="7.2534">
        <ele>762</ele>
        <time>2013-03-10T14:10:23Z</time>
      </trkpt>
      <trkpt lat="43.85115" lon="7.25341">
        <ele>763</ele>
        <time>2013-03-10T14:10:24Z</time>
      </trkpt>
      <trkpt lat="43.85114" lon="7.25341">
        <ele>763</ele>
        <time>2013-03-10T14:10:25Z</time>
      </trkpt>
      <trkpt lat="43.85113" lon="7.25342">
        <ele>764</ele>
        <time>2013-03-10T14:10:26Z</time>
      </trkpt>
      <trkpt lat="43.85111" lon="7.25342">
        <ele>764</ele>
        <time>2013-03-10T14:10:27Z</time>
      </trkpt>
      <trkpt lat="43.85109" lon="7.25342">
        <ele>764</ele>
        <time>2013-03-10T14:10:29Z</time>
      </trkpt>
      <trkpt lat="43.85108" lon="7.25342">
        <ele>764</ele>
        <time>2013-03-10T14:10:30Z</time>
      </trkpt>
      <trkpt lat="43.85103" lon="7.25342">
        <ele>764</ele>
        <time>2013-03-10T14:10:34Z</time>
      </trkpt>
      <trkpt lat="43.85102" lon="7.25342">
        <ele>765</ele>
        <time>2013-03-10T14:10:35Z</time>
      </trkpt>
      <trkpt lat="43.85102" lon="7.25342">
        <ele>765</ele>
        <time>2013-03-10T14:10:36Z</time>
      </trkpt>
      <trkpt lat="43.85101" lon="7.25342">
        <ele>766</ele>
        <time>2013-03-10T14:10:37Z</time>
      </trkpt>
      <trkpt lat="43.85099" lon="7.25342">
        <ele>766</ele>
        <time>2013-03-10T14:10:38Z</time>
      </trkpt>
      <trkpt lat="43.85097" lon="7.25342">
        <ele>766</ele>
        <time>2013-03-10T14:10:41Z</time>
      </trkpt>
      <trkpt lat="43.85096" lon="7.25343">
        <ele>766</ele>
        <time>2013-03-10T14:10:43Z</time>
      </trkpt>
      <trkpt lat="43.85093" lon="7.25342">
        <ele>766</ele>
        <time>2013-03-10T14:11:40Z</time>
      </trkpt>
      <trkpt lat="43.85091" lon="7.25341">
        <ele>766</ele>
        <time>2013-03-10T14:11:41Z</time>
      </trkpt>
      <trkpt lat="43.85079" lon="7.25339">
        <ele>766</ele>
        <time>2013-03-10T14:11:44Z</time>
      </trkpt>
      <trkpt lat="43.85061" lon="7.25337">
        <ele>766</ele>
        <time>2013-03-10T14:11:47Z</time>
      </trkpt>
      <trkpt lat="43.85054" lon="7.25335">
        <ele>765</ele>
        <time>2013-03-10T14:11:48Z</time>
      </trkpt>
      <trkpt lat="43.85047" lon="7.25332">
        <ele>765</ele>
        <time>2013-03-10T14:11:49Z</time>
      </trkpt>
      <trkpt lat="43.8504" lon="7.2533">
        <ele>764</ele>
        <time>2013-03-10T14:11:50Z</time>
      </trkpt>
      <trkpt lat="43.85033" lon="7.25327">
        <ele>764</ele>
        <time>2013-03-10T14:11:51Z</time>
      </trkpt>
      <trkpt lat="43.85025" lon="7.25325">
        <ele>763</ele>
        <time>2013-03-10T14:11:52Z</time>
      </trkpt>
      <trkpt lat="43.85017" lon="7.25323">
        <ele>763</ele>
        <time>2013-03-10T14:11:53Z</time>
      </trkpt>
      <trkpt lat="43.85009" lon="7.2532">
        <ele>763</ele>
        <time>2013-03-10T14:11:54Z</time>
      </trkpt>
      <trkpt lat="43.85002" lon="7.25318">
        <ele>762</ele>
        <time>2013-03-10T14:11:55Z</time>
      </trkpt>
      <trkpt lat="43.84995" lon="7.25316">
        <ele>761</ele>
        <time>2013-03-10T14:11:56Z</time>
      </trkpt>
      <trkpt lat="43.84988" lon="7.25314">
        <ele>761</ele>
        <time>2013-03-10T14:11:57Z</time>
      </trkpt>
      <trkpt lat="43.84982" lon="7.25313">
        <ele>760</ele>
        <time>2013-03-10T14:11:58Z</time>
      </trkpt>
      <trkpt lat="43.84977" lon="7.25312">
        <ele>760</ele>
        <time>2013-03-10T14:11:59Z</time>
      </trkpt>
      <trkpt lat="43.84971" lon="7.25311">
        <ele>759</ele>
        <time>2013-03-10T14:12:00Z</time>
      </trkpt>
      <trkpt lat="43.84966" lon="7.25311">
        <ele>759</ele>
        <time>2013-03-10T14:12:01Z</time>
      </trkpt>
      <trkpt lat="43.84961" lon="7.25312">
        <ele>758</ele>
        <time>2013-03-10T14:12:02Z</time>
      </trkpt>
      <trkpt lat="43.84956" lon="7.25313">
        <ele>758</ele>
        <time>2013-03-10T14:12:03Z</time>
      </trkpt>
      <trkpt lat="43.84951" lon="7.25313">
        <ele>758</ele>
        <time>2013-03-10T14:12:04Z</time>
      </trkpt>
      <trkpt lat="43.84942" lon="7.25307">
        <ele>758</ele>
        <time>2013-03-10T14:12:06Z</time>
      </trkpt>
      <trkpt lat="43.84938" lon="7.25305">
        <ele>758</ele>
        <time>2013-03-10T14:12:07Z</time>
      </trkpt>
      <trkpt lat="43.84921" lon="7.25301">
        <ele>758</ele>
        <time>2013-03-10T14:12:11Z</time>
      </trkpt>
      <trkpt lat="43.84917" lon="7.25299">
        <ele>758</ele>
        <time>2013-03-10T14:12:12Z</time>
      </trkpt>
      <trkpt lat="43.84911" lon="7.25298">
        <ele>757</ele>
        <time>2013-03-10T14:12:13Z</time>
      </trkpt>
      <trkpt lat="43.84906" lon="7.25297">
        <ele>757</ele>
        <time>2013-03-10T14:12:14Z</time>
      </trkpt>
      <trkpt lat="43.849" lon="7.25296">
        <ele>756</ele>
        <time>2013-03-10T14:12:15Z</time>
      </trkpt>
      <trkpt lat="43.84893" lon="7.25294">
        <ele>756</ele>
        <time>2013-03-10T14:12:16Z</time>
      </trkpt>
      <trkpt lat="43.84886" lon="7.25292">
        <ele>755</ele>
        <time>2013-03-10T14:12:17Z</time>
      </trkpt>
      <trkpt lat="43.8488" lon="7.25291">
        <ele>755</ele>
        <time>2013-03-10T14:12:18Z</time>
      </trkpt>
      <trkpt lat="43.84874" lon="7.25289">
        <ele>754</ele>
        <time>2013-03-10T14:12:19Z</time>
      </trkpt>
      <trkpt lat="43.84868" lon="7.25288">
        <ele>753</ele>
        <time>2013-03-10T14:12:20Z</time>
      </trkpt>
      <trkpt lat="43.84861" lon="7.25286">
        <ele>752</ele>
        <time>2013-03-10T14:12:21Z</time>
      </trkpt>
      <trkpt lat="43.84855" lon="7.25284">
        <ele>751</ele>
        <time>2013-03-10T14:12:22Z</time>
      </trkpt>
      <trkpt lat="43.84848" lon="7.25282">
        <ele>750</ele>
        <time>2013-03-10T14:12:23Z</time>
      </trkpt>
      <trkpt lat="43.84841" lon="7.25279">
        <ele>747</ele>
        <time>2013-03-10T14:12:24Z</time>
      </trkpt>
      <trkpt lat="43.84833" lon="7.25278">
        <ele>746</ele>
        <time>2013-03-10T14:12:25Z</time>
      </trkpt>
      <trkpt lat="43.84826" lon="7.25277">
        <ele>744</ele>
        <time>2013-03-10T14:12:26Z</time>
      </trkpt>
      <trkpt lat="43.8482" lon="7.25277">
        <ele>742</ele>
        <time>2013-03-10T14:12:27Z</time>
      </trkpt>
      <trkpt lat="43.84814" lon="7.25278">
        <ele>741</ele>
        <time>2013-03-10T14:12:28Z</time>
      </trkpt>
      <trkpt lat="43.84807" lon="7.25277">
        <ele>739</ele>
        <time>2013-03-10T14:12:29Z</time>
      </trkpt>
      <trkpt lat="43.84801" lon="7.25276">
        <ele>738</ele>
        <time>2013-03-10T14:12:30Z</time>
      </trkpt>
      <trkpt lat="43.84794" lon="7.25276">
        <ele>736</ele>
        <time>2013-03-10T14:12:31Z</time>
      </trkpt>
      <trkpt lat="43.84787" lon="7.25275">
        <ele>735</ele>
        <time>2013-03-10T14:12:32Z</time>
      </trkpt>
      <trkpt lat="43.84781" lon="7.25275">
        <ele>733</ele>
        <time>2013-03-10T14:12:33Z</time>
      </trkpt>
      <trkpt lat="43.84775" lon="7.25274">
        <ele>732</ele>
        <time>2013-03-10T14:12:34Z</time>
      </trkpt>
      <trkpt lat="43.84769" lon="7.25275">
        <ele>730</ele>
        <time>2013-03-10T14:12:35Z</time>
      </trkpt>
      <trkpt lat="43.84763" lon="7.25276">
        <ele>728</ele>
        <time>2013-03-10T14:12:36Z</time>
      </trkpt>
      <trkpt lat="43.84758" lon="7.25277">
        <ele>727</ele>
        <time>2013-03-10T14:12:37Z</time>
      </trkpt>
      <trkpt lat="43.84751" lon="7.25276">
        <ele>725</ele>
        <time>2013-03-10T14:12:38Z</time>
      </trkpt>
      <trkpt lat="43.84744" lon="7.25276">
        <ele>724</ele>
        <time>2013-03-10T14:12:39Z</time>
      </trkpt>
      <trkpt lat="43.84737" lon="7.25275">
        <ele>723</ele>
        <time>2013-03-10T14:12:40Z</time>
      </trkpt>
      <trkpt lat="43.84729" lon="7.25274">
        <ele>721</ele>
        <time>2013-03-10T14:12:41Z</time>
      </trkpt>
      <trkpt lat="43.8472" lon="7.25272">
        <ele>720</ele>
        <time>2013-03-10T14:12:42Z</time>
      </trkpt>
      <trkpt lat="43.84713" lon="7.25269">
        <ele>718</ele>
        <time>2013-03-10T14:12:43Z</time>
      </trkpt>
      <trkpt lat="43.84706" lon="7.25268">
        <ele>717</ele>
        <time>2013-03-10T14:12:44Z</time>
      </trkpt>
      <trkpt lat="43.84702" lon="7.25267">
        <ele>715</ele>
        <time>2013-03-10T14:12:45Z</time>
      </trkpt>
      <trkpt lat="43.84699" lon="7.25267">
        <ele>714</ele>
        <time>2013-03-10T14:12:46Z</time>
      </trkpt>
      <trkpt lat="43.84697" lon="7.25268">
        <ele>713</ele>
        <time>2013-03-10T14:12:47Z</time>
      </trkpt>
      <trkpt lat="43.84696" lon="7.25269">
        <ele>710</ele>
        <time>2013-03-10T14:12:48Z</time>
      </trkpt>
      <trkpt lat="43.84697" lon="7.25269">
        <ele>710</ele>
        <time>2013-03-10T14:12:50Z</time>
      </trkpt>
      <trkpt lat="43.84699" lon="7.25267">
        <ele>709</ele>
        <time>2013-03-10T14:15:59Z</time>
      </trkpt>
      <trkpt lat="43.84697" lon="7.25266">
        <ele>709</ele>
        <time>2013-03-10T14:16:00Z</time>
      </trkpt>
      <trkpt lat="43.84695" lon="7.25264">
        <ele>708</ele>
        <time>2013-03-10T14:16:01Z</time>
      </trkpt>
      <trkpt lat="43.84693" lon="7.25259">
        <ele>708</ele>
        <time>2013-03-10T14:16:02Z</time>
      </trkpt>
      <trkpt lat="43.84692" lon="7.25253">
        <ele>707</ele>
        <time>2013-03-10T14:16:03Z</time>
      </trkpt>
      <trkpt lat="43.84692" lon="7.25247">
        <ele>707</ele>
        <time>2013-03-10T14:16:04Z</time>
      </trkpt>
      <trkpt lat="43.84691" lon="7.25241">
        <ele>706</ele>
        <time>2013-03-10T14:16:05Z</time>
      </trkpt>
      <trkpt lat="43.8469" lon="7.25236">
        <ele>706</ele>
        <time>2013-03-10T14:16:06Z</time>
      </trkpt>
      <trkpt lat="43.84691" lon="7.2523">
        <ele>705</ele>
        <time>2013-03-10T14:16:07Z</time>
      </trkpt>
      <trkpt lat="43.84692" lon="7.25225">
        <ele>703</ele>
        <time>2013-03-10T14:16:08Z</time>
      </trkpt>
      <trkpt lat="43.84694" lon="7.25224">
        <ele>703</ele>
        <time>2013-03-10T14:16:09Z</time>
      </trkpt>
      <trkpt lat="43.84696" lon="7.25222">
        <ele>702</ele>
        <time>2013-03-10T14:16:10Z</time>
      </trkpt>
      <trkpt lat="43.84701" lon="7.2522">
        <ele>701</ele>
        <time>2013-03-10T14:16:11Z</time>
      </trkpt>
      <trkpt lat="43.84707" lon="7.25217">
        <ele>700</ele>
        <time>2013-03-10T14:16:12Z</time>
      </trkpt>
      <trkpt lat="43.84713" lon="7.25214">
        <ele>700</ele>
        <time>2013-03-10T14:16:13Z</time>
      </trkpt>
      <trkpt lat="43.8472" lon="7.25212">
        <ele>699</ele>
        <time>2013-03-10T14:16:14Z</time>
      </trkpt>
      <trkpt lat="43.84725" lon="7.25209">
        <ele>698</ele>
        <time>2013-03-10T14:16:15Z</time>
      </trkpt>
      <trkpt lat="43.84729" lon="7.25204">
        <ele>697</ele>
        <time>2013-03-10T14:16:16Z</time>
      </trkpt>
      <trkpt lat="43.84733" lon="7.25199">
        <ele>696</ele>
        <time>2013-03-10T14:16:17Z</time>
      </trkpt>
      <trkpt lat="43.84736" lon="7.25194">
        <ele>695</ele>
        <time>2013-03-10T14:16:18Z</time>
      </trkpt>
      <trkpt lat="43.84739" lon="7.25188">
        <ele>694</ele>
        <time>2013-03-10T14:16:19Z</time>
      </trkpt>
      <trkpt lat="43.84743" lon="7.25182">
        <ele>693</ele>
        <time>2013-03-10T14:16:20Z</time>
      </trkpt>
      <trkpt lat="43.84746" lon="7.25175">
        <ele>692</ele>
        <time>2013-03-10T14:16:21Z</time>
      </trkpt>
      <trkpt lat="43.84748" lon="7.25169">
        <ele>691</ele>
        <time>2013-03-10T14:16:22Z</time>
      </trkpt>
      <trkpt lat="43.84749" lon="7.25163">
        <ele>690</ele>
        <time>2013-03-10T14:16:23Z</time>
      </trkpt>
      <trkpt lat="43.84749" lon="7.2516">
        <ele>688</ele>
        <time>2013-03-10T14:16:24Z</time>
      </trkpt>
      <trkpt lat="43.84749" lon="7.2516">
        <ele>688</ele>
        <time>2013-03-10T14:16:25Z</time>
      </trkpt>
      <trkpt lat="43.84749" lon="7.25158">
        <ele>687</ele>
        <time>2013-03-10T14:16:26Z</time>
      </trkpt>
      <trkpt lat="43.84749" lon="7.25156">
        <ele>686</ele>
        <time>2013-03-10T14:16:27Z</time>
      </trkpt>
      <trkpt lat="43.8475" lon="7.25152">
        <ele>685</ele>
        <time>2013-03-10T14:16:28Z</time>
      </trkpt>
      <trkpt lat="43.8475" lon="7.25148">
        <ele>684</ele>
        <time>2013-03-10T14:16:29Z</time>
      </trkpt>
      <trkpt lat="43.84751" lon="7.25137">
        <ele>684</ele>
        <time>2013-03-10T14:16:31Z</time>
      </trkpt>
      <trkpt lat="43.84752" lon="7.2513">
        <ele>684</ele>
        <time>2013-03-10T14:16:32Z</time>
      </trkpt>
      <trkpt lat="43.84755" lon="7.25122">
        <ele>683</ele>
        <time>2013-03-10T14:16:33Z</time>
      </trkpt>
      <trkpt lat="43.84758" lon="7.25116">
        <ele>683</ele>
        <time>2013-03-10T14:16:34Z</time>
      </trkpt>
      <trkpt lat="43.84763" lon="7.25111">
        <ele>682</ele>
        <time>2013-03-10T14:16:35Z</time>
      </trkpt>
      <trkpt lat="43.84768" lon="7.25106">
        <ele>681</ele>
        <time>2013-03-10T14:16:36Z</time>
      </trkpt>
      <trkpt lat="43.84773" lon="7.251">
        <ele>680</ele>
        <time>2013-03-10T14:16:37Z</time>
      </trkpt>
      <trkpt lat="43.84778" lon="7.25094">
        <ele>680</ele>
        <time>2013-03-10T14:16:38Z</time>
      </trkpt>
      <trkpt lat="43.84782" lon="7.25087">
        <ele>679</ele>
        <time>2013-03-10T14:16:39Z</time>
      </trkpt>
      <trkpt lat="43.84784" lon="7.25082">
        <ele>678</ele>
        <time>2013-03-10T14:16:40Z</time>
      </trkpt>
      <trkpt lat="43.84785" lon="7.25076">
        <ele>677</ele>
        <time>2013-03-10T14:16:41Z</time>
      </trkpt>
      <trkpt lat="43.84787" lon="7.25071">
        <ele>677</ele>
        <time>2013-03-10T14:16:42Z</time>
      </trkpt>
      <trkpt lat="43.84787" lon="7.2506">
        <ele>677</ele>
        <time>2013-03-10T14:16:44Z</time>
      </trkpt>
      <trkpt lat="43.84787" lon="7.25054">
        <ele>676</ele>
        <time>2013-03-10T14:16:45Z</time>
      </trkpt>
      <trkpt lat="43.84786" lon="7.2505">
        <ele>676</ele>
        <time>2013-03-10T14:16:46Z</time>
      </trkpt>
      <trkpt lat="43.84784" lon="7.25045">
        <ele>675</ele>
        <time>2013-03-10T14:16:47Z</time>
      </trkpt>
      <trkpt lat="43.84782" lon="7.25041">
        <ele>675</ele>
        <time>2013-03-10T14:16:48Z</time>
      </trkpt>
      <trkpt lat="43.84774" lon="7.25032">
        <ele>675</ele>
        <time>2013-03-10T14:16:52Z</time>
      </trkpt>
      <trkpt lat="43.84774" lon="7.25031">
        <ele>675</ele>
        <time>2013-03-10T14:16:54Z</time>
      </trkpt>
      <trkpt lat="43.84776" lon="7.25029">
        <ele>676</ele>
        <time>2013-03-10T14:17:46Z</time>
      </trkpt>
      <trkpt lat="43.84777" lon="7.2503">
        <ele>676</ele>
        <time>2013-03-10T14:17:47Z</time>
      </trkpt>
      <trkpt lat="43.84783" lon="7.2504">
        <ele>676</ele>
        <time>2013-03-10T14:17:51Z</time>
      </trkpt>
      <trkpt lat="43.84789" lon="7.25058">
        <ele>676</ele>
        <time>2013-03-10T14:17:56Z</time>
      </trkpt>
      <trkpt lat="43.8479" lon="7.2507">
        <ele>676</ele>
        <time>2013-03-10T14:18:00Z</time>
      </trkpt>
      <trkpt lat="43.84789" lon="7.25075">
        <ele>676</ele>
        <time>2013-03-10T14:18:03Z</time>
      </trkpt>
      <trkpt lat="43.84787" lon="7.2508">
        <ele>676</ele>
        <time>2013-03-10T14:18:05Z</time>
      </trkpt>
      <trkpt lat="43.84782" lon="7.25096">
        <ele>676</ele>
        <time>2013-03-10T14:18:12Z</time>
      </trkpt>
      <trkpt lat="43.8477" lon="7.25109">
        <ele>676</ele>
        <time>2013-03-10T14:18:20Z</time>
      </trkpt>
      <trkpt lat="43.84763" lon="7.25117">
        <ele>676</ele>
        <time>2013-03-10T14:18:25Z</time>
      </trkpt>
      <trkpt lat="43.84762" lon="7.25119">
        <ele>676</ele>
        <time>2013-03-10T14:18:26Z</time>
      </trkpt>
      <trkpt lat="43.8476" lon="7.2512">
        <ele>677</ele>
        <time>2013-03-10T14:18:27Z</time>
      </trkpt>
      <trkpt lat="43.84759" lon="7.25121">
        <ele>677</ele>
        <time>2013-03-10T14:18:28Z</time>
      </trkpt>
      <trkpt lat="43.84758" lon="7.25123">
        <ele>678</ele>
        <time>2013-03-10T14:18:29Z</time>
      </trkpt>
      <trkpt lat="43.84753" lon="7.25133">
        <ele>678</ele>
        <time>2013-03-10T14:18:34Z</time>
      </trkpt>
      <trkpt lat="43.84753" lon="7.25135">
        <ele>678</ele>
        <time>2013-03-10T14:18:35Z</time>
      </trkpt>
      <trkpt lat="43.84752" lon="7.25136">
        <ele>679</ele>
        <time>2013-03-10T14:18:36Z</time>
      </trkpt>
      <trkpt lat="43.84751" lon="7.25138">
        <ele>679</ele>
        <time>2013-03-10T14:18:37Z</time>
      </trkpt>
      <trkpt lat="43.84751" lon="7.2514">
        <ele>680</ele>
        <time>2013-03-10T14:18:38Z</time>
      </trkpt>
      <trkpt lat="43.84749" lon="7.25146">
        <ele>680</ele>
        <time>2013-03-10T14:18:41Z</time>
      </trkpt>
      <trkpt lat="43.84749" lon="7.25148">
        <ele>680</ele>
        <time>2013-03-10T14:18:42Z</time>
      </trkpt>
      <trkpt lat="43.84748" lon="7.2515">
        <ele>681</ele>
        <time>2013-03-10T14:18:43Z</time>
      </trkpt>
      <trkpt lat="43.84748" lon="7.25151">
        <ele>681</ele>
        <time>2013-03-10T14:18:44Z</time>
      </trkpt>
      <trkpt lat="43.84748" lon="7.25153">
        <ele>681</ele>
        <time>2013-03-10T14:18:45Z</time>
      </trkpt>
      <trkpt lat="43.84748" lon="7.25155">
        <ele>682</ele>
        <time>2013-03-10T14:18:46Z</time>
      </trkpt>
      <trkpt lat="43.84747" lon="7.2516">
        <ele>682</ele>
        <time>2013-03-10T14:18:49Z</time>
      </trkpt>
      <trkpt lat="43.84748" lon="7.25166">
        <ele>682</ele>
        <time>2013-03-10T14:18:53Z</time>
      </trkpt>
      <trkpt lat="43.84748" lon="7.25168">
        <ele>683</ele>
        <time>2013-03-10T14:18:54Z</time>
      </trkpt>
      <trkpt lat="43.84748" lon="7.2517">
        <ele>683</ele>
        <time>2013-03-10T14:18:55Z</time>
      </trkpt>
      <trkpt lat="43.84748" lon="7.25171">
        <ele>684</ele>
        <time>2013-03-10T14:18:56Z</time>
      </trkpt>
      <trkpt lat="43.84748" lon="7.25173">
        <ele>684</ele>
        <time>2013-03-10T14:18:57Z</time>
      </trkpt>
      <trkpt lat="43.84745" lon="7.25182">
        <ele>684</ele>
        <time>2013-03-10T14:19:02Z</time>
      </trkpt>
      <trkpt lat="43.84744" lon="7.25183">
        <ele>685</ele>
        <time>2013-03-10T14:19:03Z</time>
      </trkpt>
      <trkpt lat="43.84743" lon="7.25185">
        <ele>685</ele>
        <time>2013-03-10T14:19:04Z</time>
      </trkpt>
      <trkpt lat="43.84742" lon="7.25187">
        <ele>686</ele>
        <time>2013-03-10T14:19:05Z</time>
      </trkpt>
      <trkpt lat="43.84741" lon="7.25187">
        <ele>686</ele>
        <time>2013-03-10T14:19:06Z</time>
      </trkpt>
      <trkpt lat="43.84739" lon="7.25191">
        <ele>686</ele>
        <time>2013-03-10T14:19:09Z</time>
      </trkpt>
      <trkpt lat="43.84738" lon="7.25196">
        <ele>687</ele>
        <time>2013-03-10T14:19:13Z</time>
      </trkpt>
      <trkpt lat="43.84737" lon="7.25197">
        <ele>687</ele>
        <time>2013-03-10T14:19:14Z</time>
      </trkpt>
      <trkpt lat="43.84736" lon="7.25198">
        <ele>687</ele>
        <time>2013-03-10T14:19:15Z</time>
      </trkpt>
      <trkpt lat="43.84736" lon="7.252">
        <ele>688</ele>
        <time>2013-03-10T14:19:16Z</time>
      </trkpt>
      <trkpt lat="43.84735" lon="7.25201">
        <ele>688</ele>
        <time>2013-03-10T14:19:17Z</time>
      </trkpt>
      <trkpt lat="43.84734" lon="7.25202">
        <ele>688</ele>
        <time>2013-03-10T14:19:18Z</time>
      </trkpt>
      <trkpt lat="43.84733" lon="7.25206">
        <ele>689</ele>
        <time>2013-03-10T14:19:21Z</time>
      </trkpt>
      <trkpt lat="43.84732" lon="7.25207">
        <ele>689</ele>
        <time>2013-03-10T14:19:22Z</time>
      </trkpt>
      <trkpt lat="43.84731" lon="7.25208">
        <ele>689</ele>
        <time>2013-03-10T14:19:23Z</time>
      </trkpt>
      <trkpt lat="43.84731" lon="7.25209">
        <ele>690</ele>
        <time>2013-03-10T14:19:24Z</time>
      </trkpt>
      <trkpt lat="43.8473" lon="7.2521">
        <ele>690</ele>
        <time>2013-03-10T14:19:25Z</time>
      </trkpt>
      <trkpt lat="43.84727" lon="7.25212">
        <ele>690</ele>
        <time>2013-03-10T14:19:28Z</time>
      </trkpt>
      <trkpt lat="43.84724" lon="7.25214">
        <ele>691</ele>
        <time>2013-03-10T14:19:31Z</time>
      </trkpt>
      <trkpt lat="43.84723" lon="7.25215">
        <ele>691</ele>
        <time>2013-03-10T14:19:32Z</time>
      </trkpt>
      <trkpt lat="43.84722" lon="7.25216">
        <ele>692</ele>
        <time>2013-03-10T14:19:33Z</time>
      </trkpt>
      <trkpt lat="43.84721" lon="7.25216">
        <ele>692</ele>
        <time>2013-03-10T14:19:34Z</time>
      </trkpt>
      <trkpt lat="43.84719" lon="7.25217">
        <ele>692</ele>
        <time>2013-03-10T14:19:35Z</time>
      </trkpt>
      <trkpt lat="43.84712" lon="7.25218">
        <ele>693</ele>
        <time>2013-03-10T14:19:41Z</time>
      </trkpt>
      <trkpt lat="43.84712" lon="7.25218">
        <ele>693</ele>
        <time>2013-03-10T14:19:42Z</time>
      </trkpt>
      <trkpt lat="43.84711" lon="7.25218">
        <ele>694</ele>
        <time>2013-03-10T14:19:43Z</time>
      </trkpt>
      <trkpt lat="43.84709" lon="7.25218">
        <ele>694</ele>
        <time>2013-03-10T14:19:45Z</time>
      </trkpt>
      <trkpt lat="43.84706" lon="7.25221">
        <ele>694</ele>
        <time>2013-03-10T14:19:48Z</time>
      </trkpt>
      <trkpt lat="43.84702" lon="7.25225">
        <ele>695</ele>
        <time>2013-03-10T14:19:53Z</time>
      </trkpt>
      <trkpt lat="43.84701" lon="7.25225">
        <ele>695</ele>
        <time>2013-03-10T14:19:54Z</time>
      </trkpt>
      <trkpt lat="43.847" lon="7.25225">
        <ele>696</ele>
        <time>2013-03-10T14:19:55Z</time>
      </trkpt>
      <trkpt lat="43.84699" lon="7.25226">
        <ele>696</ele>
        <time>2013-03-10T14:19:56Z</time>
      </trkpt>
      <trkpt lat="43.84698" lon="7.25226">
        <ele>697</ele>
        <time>2013-03-10T14:19:57Z</time>
      </trkpt>
      <trkpt lat="43.84696" lon="7.25227">
        <ele>697</ele>
        <time>2013-03-10T14:19:59Z</time>
      </trkpt>
      <trkpt lat="43.84695" lon="7.25228">
        <ele>697</ele>
        <time>2013-03-10T14:20:01Z</time>
      </trkpt>
      <trkpt lat="43.84694" lon="7.25227">
        <ele>697</ele>
        <time>2013-03-10T14:20:02Z</time>
      </trkpt>
      <trkpt lat="43.84694" lon="7.25227">
        <ele>698</ele>
        <time>2013-03-10T14:20:03Z</time>
      </trkpt>
      <trkpt lat="43.84693" lon="7.25228">
        <ele>698</ele>
        <time>2013-03-10T14:20:04Z</time>
      </trkpt>
      <trkpt lat="43.84692" lon="7.25229">
        <ele>699</ele>
        <time>2013-03-10T14:20:05Z</time>
      </trkpt>
      <trkpt lat="43.84691" lon="7.25233">
        <ele>699</ele>
        <time>2013-03-10T14:20:09Z</time>
      </trkpt>
      <trkpt lat="43.84691" lon="7.25236">
        <ele>699</ele>
        <time>2013-03-10T14:20:12Z</time>
      </trkpt>
      <trkpt lat="43.84692" lon="7.25238">
        <ele>700</ele>
        <time>2013-03-10T14:20:13Z</time>
      </trkpt>
      <trkpt lat="43.84692" lon="7.25239">
        <ele>700</ele>
        <time>2013-03-10T14:20:14Z</time>
      </trkpt>
      <trkpt lat="43.84692" lon="7.25241">
        <ele>701</ele>
        <time>2013-03-10T14:20:15Z</time>
      </trkpt>
      <trkpt lat="43.84692" lon="7.25242">
        <ele>701</ele>
        <time>2013-03-10T14:20:16Z</time>
      </trkpt>
      <trkpt lat="43.84693" lon="7.25246">
        <ele>701</ele>
        <time>2013-03-10T14:20:21Z</time>
      </trkpt>
      <trkpt lat="43.84693" lon="7.25246">
        <ele>702</ele>
        <time>2013-03-10T14:20:22Z</time>
      </trkpt>
      <trkpt lat="43.84693" lon="7.25247">
        <ele>702</ele>
        <time>2013-03-10T14:20:23Z</time>
      </trkpt>
      <trkpt lat="43.84707" lon="7.25275">
        <ele>710</ele>
        <time>2013-03-10T14:22:20Z</time>
      </trkpt>
      <trkpt lat="43.84709" lon="7.25276">
        <ele>710</ele>
        <time>2013-03-10T14:22:22Z</time>
      </trkpt>
      <trkpt lat="43.84713" lon="7.25277">
        <ele>710</ele>
        <time>2013-03-10T14:22:24Z</time>
      </trkpt>
      <trkpt lat="43.84726" lon="7.25286">
        <ele>710</ele>
        <time>2013-03-10T14:22:29Z</time>
      </trkpt>
      <trkpt lat="43.84743" lon="7.25298">
        <ele>710</ele>
        <time>2013-03-10T14:22:35Z</time>
      </trkpt>
      <trkpt lat="43.84765" lon="7.25311">
        <ele>710</ele>
        <time>2013-03-10T14:22:42Z</time>
      </trkpt>
      <trkpt lat="43.84775" lon="7.25317">
        <ele>709</ele>
        <time>2013-03-10T14:22:45Z</time>
      </trkpt>
      <trkpt lat="43.84779" lon="7.25321">
        <ele>709</ele>
        <time>2013-03-10T14:22:46Z</time>
      </trkpt>
      <trkpt lat="43.84783" lon="7.25324">
        <ele>708</ele>
        <time>2013-03-10T14:22:47Z</time>
      </trkpt>
      <trkpt lat="43.84787" lon="7.25329">
        <ele>708</ele>
        <time>2013-03-10T14:22:48Z</time>
      </trkpt>
      <trkpt lat="43.84792" lon="7.25333">
        <ele>707</ele>
        <time>2013-03-10T14:22:49Z</time>
      </trkpt>
      <trkpt lat="43.84808" lon="7.25346">
        <ele>707</ele>
        <time>2013-03-10T14:22:52Z</time>
      </trkpt>
      <trkpt lat="43.84813" lon="7.25351">
        <ele>706</ele>
        <time>2013-03-10T14:22:53Z</time>
      </trkpt>
      <trkpt lat="43.84819" lon="7.25355">
        <ele>706</ele>
        <time>2013-03-10T14:22:54Z</time>
      </trkpt>
      <trkpt lat="43.84825" lon="7.2536">
        <ele>705</ele>
        <time>2013-03-10T14:22:55Z</time>
      </trkpt>
      <trkpt lat="43.84831" lon="7.25365">
        <ele>705</ele>
        <time>2013-03-10T14:22:56Z</time>
      </trkpt>
      <trkpt lat="43.84836" lon="7.25371">
        <ele>704</ele>
        <time>2013-03-10T14:22:57Z</time>
      </trkpt>
      <trkpt lat="43.84842" lon="7.25377">
        <ele>703</ele>
        <time>2013-03-10T14:22:58Z</time>
      </trkpt>
      <trkpt lat="43.84848" lon="7.25383">
        <ele>703</ele>
        <time>2013-03-10T14:22:59Z</time>
      </trkpt>
      <trkpt lat="43.84854" lon="7.25388">
        <ele>702</ele>
        <time>2013-03-10T14:23:00Z</time>
      </trkpt>
      <trkpt lat="43.84859" lon="7.25393">
        <ele>701</ele>
        <time>2013-03-10T14:23:01Z</time>
      </trkpt>
      <trkpt lat="43.84863" lon="7.25399">
        <ele>701</ele>
        <time>2013-03-10T14:23:02Z</time>
      </trkpt>
      <trkpt lat="43.84869" lon="7.25406">
        <ele>701</ele>
        <time>2013-03-10T14:23:03Z</time>
      </trkpt>
      <trkpt lat="43.84874" lon="7.2541">
        <ele>700</ele>
        <time>2013-03-10T14:23:04Z</time>
      </trkpt>
      <trkpt lat="43.8488" lon="7.25414">
        <ele>700</ele>
        <time>2013-03-10T14:23:05Z</time>
      </trkpt>
      <trkpt lat="43.84886" lon="7.25419">
        <ele>699</ele>
        <time>2013-03-10T14:23:06Z</time>
      </trkpt>
      <trkpt lat="43.84892" lon="7.25423">
        <ele>699</ele>
        <time>2013-03-10T14:23:07Z</time>
      </trkpt>
      <trkpt lat="43.84898" lon="7.25426">
        <ele>698</ele>
        <time>2013-03-10T14:23:08Z</time>
      </trkpt>
      <trkpt lat="43.8491" lon="7.25434">
        <ele>698</ele>
        <time>2013-03-10T14:23:10Z</time>
      </trkpt>
      <trkpt lat="43.84916" lon="7.25437">
        <ele>697</ele>
        <time>2013-03-10T14:23:11Z</time>
      </trkpt>
      <trkpt lat="43.84923" lon="7.25439">
        <ele>697</ele>
        <time>2013-03-10T14:23:12Z</time>
      </trkpt>
      <trkpt lat="43.84929" lon="7.25442">
        <ele>696</ele>
        <time>2013-03-10T14:23:13Z</time>
      </trkpt>
      <trkpt lat="43.84935" lon="7.25445">
        <ele>696</ele>
        <time>2013-03-10T14:23:14Z</time>
      </trkpt>
      <trkpt lat="43.84946" lon="7.25451">
        <ele>695</ele>
        <time>2013-03-10T14:23:16Z</time>
      </trkpt>
      <trkpt lat="43.84952" lon="7.25454">
        <ele>695</ele>
        <time>2013-03-10T14:23:17Z</time>
      </trkpt>
      <trkpt lat="43.84956" lon="7.25455">
        <ele>694</ele>
        <time>2013-03-10T14:23:18Z</time>
      </trkpt>
      <trkpt lat="43.84961" lon="7.25456">
        <ele>693</ele>
        <time>2013-03-10T14:23:19Z</time>
      </trkpt>
      <trkpt lat="43.84967" lon="7.2546">
        <ele>693</ele>
        <time>2013-03-10T14:23:20Z</time>
      </trkpt>
      <trkpt lat="43.84973" lon="7.25464">
        <ele>692</ele>
        <time>2013-03-10T14:23:21Z</time>
      </trkpt>
      <trkpt lat="43.84979" lon="7.25468">
        <ele>691</ele>
        <time>2013-03-10T14:23:22Z</time>
      </trkpt>
      <trkpt lat="43.84984" lon="7.25472">
        <ele>691</ele>
        <time>2013-03-10T14:23:23Z</time>
      </trkpt>
      <trkpt lat="43.84989" lon="7.25478">
        <ele>690</ele>
        <time>2013-03-10T14:23:24Z</time>
      </trkpt>
      <trkpt lat="43.84995" lon="7.25484">
        <ele>689</ele>
        <time>2013-03-10T14:23:25Z</time>
      </trkpt>
      <trkpt lat="43.85" lon="7.25488">
        <ele>689</ele>
        <time>2013-03-10T14:23:26Z</time>
      </trkpt>
      <trkpt lat="43.85005" lon="7.25492">
        <ele>688</ele>
        <time>2013-03-10T14:23:27Z</time>
      </trkpt>
      <trkpt lat="43.8501" lon="7.25497">
        <ele>687</ele>
        <time>2013-03-10T14:23:28Z</time>
      </trkpt>
      <trkpt lat="43.85016" lon="7.25503">
        <ele>686</ele>
        <time>2013-03-10T14:23:29Z</time>
      </trkpt>
      <trkpt lat="43.85022" lon="7.25509">
        <ele>685</ele>
        <time>2013-03-10T14:23:30Z</time>
      </trkpt>
      <trkpt lat="43.85027" lon="7.25515">
        <ele>685</ele>
        <time>2013-03-10T14:23:31Z</time>
      </trkpt>
      <trkpt lat="43.85033" lon="7.25521">
        <ele>685</ele>
        <time>2013-03-10T14:23:32Z</time>
      </trkpt>
      <trkpt lat="43.85037" lon="7.25526">
        <ele>684</ele>
        <time>2013-03-10T14:23:33Z</time>
      </trkpt>
      <trkpt lat="43.85042" lon="7.25531">
        <ele>683</ele>
        <time>2013-03-10T14:23:34Z</time>
      </trkpt>
      <trkpt lat="43.85046" lon="7.25537">
        <ele>683</ele>
        <time>2013-03-10T14:23:35Z</time>
      </trkpt>
      <trkpt lat="43.85051" lon="7.2554">
        <ele>682</ele>
        <time>2013-03-10T14:23:36Z</time>
      </trkpt>
      <trkpt lat="43.85056" lon="7.25544">
        <ele>682</ele>
        <time>2013-03-10T14:23:37Z</time>
      </trkpt>
      <trkpt lat="43.8506" lon="7.25548">
        <ele>681</ele>
        <time>2013-03-10T14:23:38Z</time>
      </trkpt>
      <trkpt lat="43.85064" lon="7.25552">
        <ele>681</ele>
        <time>2013-03-10T14:23:39Z</time>
      </trkpt>
      <trkpt lat="43.8507" lon="7.25559">
        <ele>681</ele>
        <time>2013-03-10T14:23:41Z</time>
      </trkpt>
      <trkpt lat="43.85071" lon="7.25563">
        <ele>680</ele>
        <time>2013-03-10T14:23:42Z</time>
      </trkpt>
      <trkpt lat="43.85072" lon="7.25566">
        <ele>680</ele>
        <time>2013-03-10T14:23:43Z</time>
      </trkpt>
      <trkpt lat="43.85073" lon="7.25571">
        <ele>679</ele>
        <time>2013-03-10T14:23:44Z</time>
      </trkpt>
      <trkpt lat="43.85071" lon="7.25574">
        <ele>679</ele>
        <time>2013-03-10T14:23:45Z</time>
      </trkpt>
      <trkpt lat="43.85069" lon="7.25576">
        <ele>678</ele>
        <time>2013-03-10T14:23:46Z</time>
      </trkpt>
      <trkpt lat="43.85063" lon="7.25583">
        <ele>678</ele>
        <time>2013-03-10T14:23:49Z</time>
      </trkpt>
      <trkpt lat="43.85054" lon="7.25601">
        <ele>678</ele>
        <time>2013-03-10T14:23:55Z</time>
      </trkpt>
      <trkpt lat="43.85049" lon="7.25623">
        <ele>678</ele>
        <time>2013-03-10T14:24:02Z</time>
      </trkpt>
      <trkpt lat="43.8505" lon="7.25627">
        <ele>678</ele>
        <time>2013-03-10T14:24:03Z</time>
      </trkpt>
      <trkpt lat="43.85053" lon="7.2564">
        <ele>678</ele>
        <time>2013-03-10T14:24:06Z</time>
      </trkpt>
      <trkpt lat="43.85055" lon="7.25659">
        <ele>678</ele>
        <time>2013-03-10T14:24:10Z</time>
      </trkpt>
      <trkpt lat="43.85055" lon="7.25665">
        <ele>678</ele>
        <time>2013-03-10T14:24:11Z</time>
      </trkpt>
      <trkpt lat="43.85055" lon="7.25671">
        <ele>678</ele>
        <time>2013-03-10T14:24:12Z</time>
      </trkpt>
      <trkpt lat="43.85055" lon="7.25678">
        <ele>678</ele>
        <time>2013-03-10T14:24:13Z</time>
      </trkpt>
      <trkpt lat="43.85056" lon="7.25687">
        <ele>677</ele>
        <time>2013-03-10T14:24:14Z</time>
      </trkpt>
      <trkpt lat="43.85057" lon="7.25696">
        <ele>676</ele>
        <time>2013-03-10T14:24:15Z</time>
      </trkpt>
      <trkpt lat="43.85058" lon="7.25705">
        <ele>675</ele>
        <time>2013-03-10T14:24:16Z</time>
      </trkpt>
      <trkpt lat="43.85059" lon="7.25714">
        <ele>675</ele>
        <time>2013-03-10T14:24:17Z</time>
      </trkpt>
      <trkpt lat="43.8506" lon="7.25723">
        <ele>674</ele>
        <time>2013-03-10T14:24:18Z</time>
      </trkpt>
      <trkpt lat="43.85062" lon="7.25731">
        <ele>674</ele>
        <time>2013-03-10T14:24:19Z</time>
      </trkpt>
      <trkpt lat="43.85064" lon="7.25738">
        <ele>673</ele>
        <time>2013-03-10T14:24:20Z</time>
      </trkpt>
      <trkpt lat="43.85066" lon="7.25743">
        <ele>673</ele>
        <time>2013-03-10T14:24:21Z</time>
      </trkpt>
      <trkpt lat="43.85068" lon="7.25747">
        <ele>672</ele>
        <time>2013-03-10T14:24:22Z</time>
      </trkpt>
      <trkpt lat="43.85069" lon="7.25752">
        <ele>672</ele>
        <time>2013-03-10T14:24:23Z</time>
      </trkpt>
      <trkpt lat="43.85069" lon="7.25757">
        <ele>672</ele>
        <time>2013-03-10T14:24:24Z</time>
      </trkpt>
      <trkpt lat="43.85067" lon="7.25773">
        <ele>672</ele>
        <time>2013-03-10T14:24:28Z</time>
      </trkpt>
      <trkpt lat="43.85067" lon="7.25775">
        <ele>672</ele>
        <time>2013-03-10T14:24:29Z</time>
      </trkpt>
      <trkpt lat="43.85067" lon="7.25779">
        <ele>673</ele>
        <time>2013-03-10T14:24:30Z</time>
      </trkpt>
      <trkpt lat="43.85066" lon="7.25783">
        <ele>673</ele>
        <time>2013-03-10T14:24:31Z</time>
      </trkpt>
      <trkpt lat="43.85066" lon="7.25788">
        <ele>674</ele>
        <time>2013-03-10T14:24:32Z</time>
      </trkpt>
      <trkpt lat="43.85068" lon="7.25793">
        <ele>674</ele>
        <time>2013-03-10T14:24:33Z</time>
      </trkpt>
      <trkpt lat="43.85069" lon="7.25799">
        <ele>674</ele>
        <time>2013-03-10T14:24:34Z</time>
      </trkpt>
      <trkpt lat="43.85076" lon="7.25813">
        <ele>674</ele>
        <time>2013-03-10T14:24:37Z</time>
      </trkpt>
      <trkpt lat="43.8508" lon="7.2582">
        <ele>674</ele>
        <time>2013-03-10T14:24:39Z</time>
      </trkpt>
      <trkpt lat="43.85085" lon="7.25831">
        <ele>674</ele>
        <time>2013-03-10T14:24:42Z</time>
      </trkpt>
      <trkpt lat="43.85087" lon="7.25844">
        <ele>674</ele>
        <time>2013-03-10T14:24:45Z</time>
      </trkpt>
      <trkpt lat="43.85087" lon="7.25847">
        <ele>673</ele>
        <time>2013-03-10T14:24:46Z</time>
      </trkpt>
      <trkpt lat="43.85086" lon="7.25849">
        <ele>672</ele>
        <time>2013-03-10T14:24:47Z</time>
      </trkpt>
      <trkpt lat="43.85085" lon="7.25851">
        <ele>672</ele>
        <time>2013-03-10T14:24:48Z</time>
      </trkpt>
      <trkpt lat="43.85082" lon="7.25853">
        <ele>672</ele>
        <time>2013-03-10T14:24:50Z</time>
      </trkpt>
      <trkpt lat="43.85074" lon="7.25854">
        <ele>672</ele>
        <time>2013-03-10T14:24:54Z</time>
      </trkpt>
      <trkpt lat="43.8507" lon="7.25856">
        <ele>672</ele>
        <time>2013-03-10T14:24:57Z</time>
      </trkpt>
      <trkpt lat="43.85066" lon="7.25859">
        <ele>672</ele>
        <time>2013-03-10T14:25:02Z</time>
      </trkpt>
      <trkpt lat="43.85065" lon="7.2586">
        <ele>673</ele>
        <time>2013-03-10T14:25:03Z</time>
      </trkpt>
      <trkpt lat="43.85064" lon="7.2586">
        <ele>673</ele>
        <time>2013-03-10T14:25:04Z</time>
      </trkpt>
      <trkpt lat="43.85063" lon="7.25861">
        <ele>673</ele>
        <time>2013-03-10T14:25:05Z</time>
      </trkpt>
      <trkpt lat="43.85062" lon="7.25863">
        <ele>674</ele>
        <time>2013-03-10T14:25:06Z</time>
      </trkpt>
      <trkpt lat="43.85059" lon="7.25865">
        <ele>674</ele>
        <time>2013-03-10T14:25:09Z</time>
      </trkpt>
      <trkpt lat="43.85052" lon="7.25866">
        <ele>674</ele>
        <time>2013-03-10T14:25:15Z</time>
      </trkpt>
      <trkpt lat="43.85051" lon="7.25866">
        <ele>675</ele>
        <time>2013-03-10T14:25:16Z</time>
      </trkpt>
      <trkpt lat="43.85049" lon="7.25866">
        <ele>675</ele>
        <time>2013-03-10T14:25:17Z</time>
      </trkpt>
      <trkpt lat="43.85048" lon="7.25865">
        <ele>676</ele>
        <time>2013-03-10T14:25:18Z</time>
      </trkpt>
      <trkpt lat="43.85046" lon="7.25865">
        <ele>676</ele>
        <time>2013-03-10T14:25:19Z</time>
      </trkpt>
      <trkpt lat="43.85044" lon="7.25864">
        <ele>676</ele>
        <time>2013-03-10T14:25:21Z</time>
      </trkpt>
      <trkpt lat="43.85036" lon="7.25861">
        <ele>677</ele>
        <time>2013-03-10T14:25:27Z</time>
      </trkpt>
      <trkpt lat="43.85035" lon="7.25861">
        <ele>677</ele>
        <time>2013-03-10T14:25:28Z</time>
      </trkpt>
      <trkpt lat="43.85034" lon="7.25861">
        <ele>677</ele>
        <time>2013-03-10T14:25:29Z</time>
      </trkpt>
      <trkpt lat="43.85033" lon="7.2586">
        <ele>678</ele>
        <time>2013-03-10T14:25:30Z</time>
      </trkpt>
      <trkpt lat="43.85032" lon="7.25858">
        <ele>678</ele>
        <time>2013-03-10T14:25:31Z</time>
      </trkpt>
      <trkpt lat="43.85032" lon="7.25857">
        <ele>678</ele>
        <time>2013-03-10T14:25:32Z</time>
      </trkpt>
      <trkpt lat="43.85031" lon="7.25855">
        <ele>678</ele>
        <time>2013-03-10T14:25:34Z</time>
      </trkpt>
      <trkpt lat="43.85031" lon="7.25854">
        <ele>678</ele>
        <time>2013-03-10T14:25:35Z</time>
      </trkpt>
      <trkpt lat="43.8503" lon="7.25853">
        <ele>679</ele>
        <time>2013-03-10T14:25:36Z</time>
      </trkpt>
      <trkpt lat="43.85029" lon="7.25852">
        <ele>679</ele>
        <time>2013-03-10T14:25:37Z</time>
      </trkpt>
      <trkpt lat="43.85028" lon="7.25852">
        <ele>680</ele>
        <time>2013-03-10T14:25:38Z</time>
      </trkpt>
      <trkpt lat="43.85026" lon="7.25851">
        <ele>680</ele>
        <time>2013-03-10T14:25:39Z</time>
      </trkpt>
      <trkpt lat="43.85025" lon="7.25851">
        <ele>680</ele>
        <time>2013-03-10T14:25:40Z</time>
      </trkpt>
      <trkpt lat="43.8502" lon="7.25848">
        <ele>681</ele>
        <time>2013-03-10T14:25:44Z</time>
      </trkpt>
      <trkpt lat="43.85019" lon="7.25847">
        <ele>681</ele>
        <time>2013-03-10T14:25:45Z</time>
      </trkpt>
      <trkpt lat="43.85018" lon="7.25847">
        <ele>681</ele>
        <time>2013-03-10T14:25:46Z</time>
      </trkpt>
      <trkpt lat="43.85017" lon="7.25845">
        <ele>682</ele>
        <time>2013-03-10T14:25:47Z</time>
      </trkpt>
      <trkpt lat="43.85016" lon="7.25845">
        <ele>682</ele>
        <time>2013-03-10T14:25:48Z</time>
      </trkpt>
      <trkpt lat="43.85012" lon="7.25848">
        <ele>682</ele>
        <time>2013-03-10T14:25:52Z</time>
      </trkpt>
      <trkpt lat="43.85011" lon="7.25849">
        <ele>682</ele>
        <time>2013-03-10T14:25:54Z</time>
      </trkpt>
      <trkpt lat="43.85005" lon="7.25863">
        <ele>684</ele>
        <time>2013-03-10T14:27:16Z</time>
      </trkpt>
      <trkpt lat="43.85005" lon="7.25864">
        <ele>684</ele>
        <time>2013-03-10T14:27:17Z</time>
      </trkpt>
      <trkpt lat="43.85005" lon="7.25866">
        <ele>685</ele>
        <time>2013-03-10T14:27:19Z</time>
      </trkpt>
      <trkpt lat="43.85005" lon="7.25867">
        <ele>685</ele>
        <time>2013-03-10T14:27:20Z</time>
      </trkpt>
      <trkpt lat="43.85005" lon="7.25867">
        <ele>686</ele>
        <time>2013-03-10T14:27:21Z</time>
      </trkpt>
      <trkpt lat="43.85004" lon="7.25869">
        <ele>686</ele>
        <time>2013-03-10T14:27:22Z</time>
      </trkpt>
      <trkpt lat="43.85004" lon="7.2587">
        <ele>686</ele>
        <time>2013-03-10T14:27:23Z</time>
      </trkpt>
      <trkpt lat="43.85003" lon="7.25871">
        <ele>686</ele>
        <time>2013-03-10T14:27:24Z</time>
      </trkpt>
      <trkpt lat="43.85002" lon="7.25873">
        <ele>686</ele>
        <time>2013-03-10T14:27:27Z</time>
      </trkpt>
      <trkpt lat="43.84998" lon="7.25877">
        <ele>687</ele>
        <time>2013-03-10T14:27:33Z</time>
      </trkpt>
      <trkpt lat="43.84997" lon="7.25877">
        <ele>687</ele>
        <time>2013-03-10T14:27:34Z</time>
      </trkpt>
      <trkpt lat="43.84997" lon="7.25878">
        <ele>688</ele>
        <time>2013-03-10T14:27:35Z</time>
      </trkpt>
      <trkpt lat="43.84955" lon="7.25881">
        <ele>705</ele>
        <time>2013-03-10T14:29:30Z</time>
      </trkpt>
      <trkpt lat="43.84954" lon="7.2588">
        <ele>705</ele>
        <time>2013-03-10T14:29:32Z</time>
      </trkpt>
      <trkpt lat="43.849" lon="7.25906">
        <ele>719</ele>
        <time>2013-03-10T14:32:40Z</time>
      </trkpt>
      <trkpt lat="43.84898" lon="7.25911">
        <ele>719</ele>
        <time>2013-03-10T14:32:43Z</time>
      </trkpt>
      <trkpt lat="43.84892" lon="7.2592">
        <ele>719</ele>
        <time>2013-03-10T14:32:49Z</time>
      </trkpt>
      <trkpt lat="43.84888" lon="7.25929">
        <ele>719</ele>
        <time>2013-03-10T14:32:55Z</time>
      </trkpt>
      <trkpt lat="43.84881" lon="7.2594">
        <ele>719</ele>
        <time>2013-03-10T14:33:03Z</time>
      </trkpt>
      <trkpt lat="43.84879" lon="7.25945">
        <ele>720</ele>
        <time>2013-03-10T14:33:06Z</time>
      </trkpt>
      <trkpt lat="43.84879" lon="7.25947">
        <ele>720</ele>
        <time>2013-03-10T14:33:07Z</time>
      </trkpt>
      <trkpt lat="43.84878" lon="7.25949">
        <ele>721</ele>
        <time>2013-03-10T14:33:08Z</time>
      </trkpt>
      <trkpt lat="43.84878" lon="7.2595">
        <ele>721</ele>
        <time>2013-03-10T14:33:09Z</time>
      </trkpt>
      <trkpt lat="43.84877" lon="7.25951">
        <ele>721</ele>
        <time>2013-03-10T14:33:10Z</time>
      </trkpt>
      <trkpt lat="43.84876" lon="7.25953">
        <ele>721</ele>
        <time>2013-03-10T14:33:11Z</time>
      </trkpt>
      <trkpt lat="43.84875" lon="7.25958">
        <ele>721</ele>
        <time>2013-03-10T14:33:17Z</time>
      </trkpt>
      <trkpt lat="43.84874" lon="7.25968">
        <ele>722</ele>
        <time>2013-03-10T14:33:22Z</time>
      </trkpt>
      <trkpt lat="43.84874" lon="7.25969">
        <ele>722</ele>
        <time>2013-03-10T14:33:23Z</time>
      </trkpt>
      <trkpt lat="43.84873" lon="7.25972">
        <ele>723</ele>
        <time>2013-03-10T14:33:24Z</time>
      </trkpt>
      <trkpt lat="43.84873" lon="7.25974">
        <ele>723</ele>
        <time>2013-03-10T14:33:25Z</time>
      </trkpt>
      <trkpt lat="43.84872" lon="7.25976">
        <ele>724</ele>
        <time>2013-03-10T14:33:26Z</time>
      </trkpt>
      <trkpt lat="43.8487" lon="7.2598">
        <ele>724</ele>
        <time>2013-03-10T14:33:28Z</time>
      </trkpt>
      <trkpt lat="43.84866" lon="7.25989">
        <ele>724</ele>
        <time>2013-03-10T14:33:33Z</time>
      </trkpt>
      <trkpt lat="43.84865" lon="7.25993">
        <ele>724</ele>
        <time>2013-03-10T14:33:36Z</time>
      </trkpt>
      <trkpt lat="43.84864" lon="7.25995">
        <ele>724</ele>
        <time>2013-03-10T14:33:52Z</time>
      </trkpt>
      <trkpt lat="43.84863" lon="7.25996">
        <ele>724</ele>
        <time>2013-03-10T14:33:53Z</time>
      </trkpt>
      <trkpt lat="43.84856" lon="7.26007">
        <ele>724</ele>
        <time>2013-03-10T14:33:59Z</time>
      </trkpt>
      <trkpt lat="43.84852" lon="7.26016">
        <ele>724</ele>
        <time>2013-03-10T14:34:04Z</time>
      </trkpt>
      <trkpt lat="43.84851" lon="7.26018">
        <ele>724</ele>
        <time>2013-03-10T14:34:05Z</time>
      </trkpt>
      <trkpt lat="43.8485" lon="7.26019">
        <ele>724</ele>
        <time>2013-03-10T14:34:06Z</time>
      </trkpt>
      <trkpt lat="43.8485" lon="7.26019">
        <ele>725</ele>
        <time>2013-03-10T14:34:07Z</time>
      </trkpt>
      <trkpt lat="43.84847" lon="7.26025">
        <ele>726</ele>
        <time>2013-03-10T14:34:13Z</time>
      </trkpt>
      <trkpt lat="43.84845" lon="7.26025">
        <ele>726</ele>
        <time>2013-03-10T14:34:15Z</time>
      </trkpt>
      <trkpt lat="43.84843" lon="7.26025">
        <ele>726</ele>
        <time>2013-03-10T14:34:18Z</time>
      </trkpt>
      <trkpt lat="43.84841" lon="7.26026">
        <ele>726</ele>
        <time>2013-03-10T14:34:20Z</time>
      </trkpt>
      <trkpt lat="43.84839" lon="7.26027">
        <ele>726</ele>
        <time>2013-03-10T14:34:22Z</time>
      </trkpt>
      <trkpt lat="43.84839" lon="7.26027">
        <ele>727</ele>
        <time>2013-03-10T14:34:23Z</time>
      </trkpt>
      <trkpt lat="43.84838" lon="7.26028">
        <ele>727</ele>
        <time>2013-03-10T14:34:24Z</time>
      </trkpt>
      <trkpt lat="43.84795" lon="7.26036">
        <ele>735</ele>
        <time>2013-03-10T14:35:21Z</time>
      </trkpt>
      <trkpt lat="43.84794" lon="7.26036">
        <ele>736</ele>
        <time>2013-03-10T14:35:22Z</time>
      </trkpt>
      <trkpt lat="43.84793" lon="7.26037">
        <ele>736</ele>
        <time>2013-03-10T14:35:23Z</time>
      </trkpt>
      <trkpt lat="43.84792" lon="7.26038">
        <ele>736</ele>
        <time>2013-03-10T14:35:24Z</time>
      </trkpt>
      <trkpt lat="43.84791" lon="7.26039">
        <ele>736</ele>
        <time>2013-03-10T14:35:25Z</time>
      </trkpt>
      <trkpt lat="43.84789" lon="7.2604">
        <ele>736</ele>
        <time>2013-03-10T14:35:27Z</time>
      </trkpt>
      <trkpt lat="43.84786" lon="7.26042">
        <ele>736</ele>
        <time>2013-03-10T14:35:30Z</time>
      </trkpt>
      <trkpt lat="43.84784" lon="7.26045">
        <ele>736</ele>
        <time>2013-03-10T14:35:33Z</time>
      </trkpt>
      <trkpt lat="43.8478" lon="7.26048">
        <ele>736</ele>
        <time>2013-03-10T14:35:37Z</time>
      </trkpt>
      <trkpt lat="43.84773" lon="7.26052">
        <ele>737</ele>
        <time>2013-03-10T14:35:44Z</time>
      </trkpt>
      <trkpt lat="43.84772" lon="7.26052">
        <ele>738</ele>
        <time>2013-03-10T14:35:45Z</time>
      </trkpt>
      <trkpt lat="43.8477" lon="7.26053">
        <ele>738</ele>
        <time>2013-03-10T14:35:46Z</time>
      </trkpt>
      <trkpt lat="43.84769" lon="7.26053">
        <ele>738</ele>
        <time>2013-03-10T14:35:47Z</time>
      </trkpt>
      <trkpt lat="43.84763" lon="7.26058">
        <ele>738</ele>
        <time>2013-03-10T14:35:54Z</time>
      </trkpt>
      <trkpt lat="43.84759" lon="7.26062">
        <ele>738</ele>
        <time>2013-03-10T14:35:59Z</time>
      </trkpt>
      <trkpt lat="43.84749" lon="7.2607">
        <ele>740</ele>
        <time>2013-03-10T14:36:14Z</time>
      </trkpt>
      <trkpt lat="43.84748" lon="7.2607">
        <ele>740</ele>
        <time>2013-03-10T14:36:15Z</time>
      </trkpt>
      <trkpt lat="43.84747" lon="7.26071">
        <ele>741</ele>
        <time>2013-03-10T14:36:16Z</time>
      </trkpt>
      <trkpt lat="43.8474" lon="7.26073">
        <ele>741</ele>
        <time>2013-03-10T14:36:22Z</time>
      </trkpt>
      <trkpt lat="43.84734" lon="7.26076">
        <ele>741</ele>
        <time>2013-03-10T14:36:27Z</time>
      </trkpt>
      <trkpt lat="43.84733" lon="7.26077">
        <ele>741</ele>
        <time>2013-03-10T14:36:28Z</time>
      </trkpt>
      <trkpt lat="43.84732" lon="7.26079">
        <ele>742</ele>
        <time>2013-03-10T14:36:29Z</time>
      </trkpt>
      <trkpt lat="43.84732" lon="7.2608">
        <ele>742</ele>
        <time>2013-03-10T14:36:30Z</time>
      </trkpt>
      <trkpt lat="43.84731" lon="7.26081">
        <ele>743</ele>
        <time>2013-03-10T14:36:31Z</time>
      </trkpt>
      <trkpt lat="43.84725" lon="7.26083">
        <ele>743</ele>
        <time>2013-03-10T14:36:37Z</time>
      </trkpt>
      <trkpt lat="43.84718" lon="7.26087">
        <ele>743</ele>
        <time>2013-03-10T14:36:44Z</time>
      </trkpt>
      <trkpt lat="43.84716" lon="7.26088">
        <ele>743</ele>
        <time>2013-03-10T14:36:46Z</time>
      </trkpt>
      <trkpt lat="43.84715" lon="7.26088">
        <ele>743</ele>
        <time>2013-03-10T14:36:47Z</time>
      </trkpt>
      <trkpt lat="43.84713" lon="7.26089">
        <ele>744</ele>
        <time>2013-03-10T14:36:48Z</time>
      </trkpt>
      <trkpt lat="43.84713" lon="7.2609">
        <ele>744</ele>
        <time>2013-03-10T14:36:49Z</time>
      </trkpt>
      <trkpt lat="43.84712" lon="7.26091">
        <ele>745</ele>
        <time>2013-03-10T14:36:50Z</time>
      </trkpt>
      <trkpt lat="43.84711" lon="7.26092">
        <ele>745</ele>
        <time>2013-03-10T14:36:51Z</time>
      </trkpt>
      <trkpt lat="43.84706" lon="7.26097">
        <ele>745</ele>
        <time>2013-03-10T14:36:57Z</time>
      </trkpt>
      <trkpt lat="43.847" lon="7.26101">
        <ele>745</ele>
        <time>2013-03-10T14:37:02Z</time>
      </trkpt>
      <trkpt lat="43.847" lon="7.26102">
        <ele>746</ele>
        <time>2013-03-10T14:37:03Z</time>
      </trkpt>
      <trkpt lat="43.84699" lon="7.26103">
        <ele>746</ele>
        <time>2013-03-10T14:37:04Z</time>
      </trkpt>
      <trkpt lat="43.84698" lon="7.26103">
        <ele>747</ele>
        <time>2013-03-10T14:37:05Z</time>
      </trkpt>
      <trkpt lat="43.84697" lon="7.26104">
        <ele>747</ele>
        <time>2013-03-10T14:37:06Z</time>
      </trkpt>
      <trkpt lat="43.84692" lon="7.26109">
        <ele>747</ele>
        <time>2013-03-10T14:37:12Z</time>
      </trkpt>
      <trkpt lat="43.8469" lon="7.2611">
        <ele>747</ele>
        <time>2013-03-10T14:37:14Z</time>
      </trkpt>
      <trkpt lat="43.8469" lon="7.26111">
        <ele>748</ele>
        <time>2013-03-10T14:37:15Z</time>
      </trkpt>
      <trkpt lat="43.84689" lon="7.26111">
        <ele>748</ele>
        <time>2013-03-10T14:37:16Z</time>
      </trkpt>
      <trkpt lat="43.84688" lon="7.26112">
        <ele>749</ele>
        <time>2013-03-10T14:37:17Z</time>
      </trkpt>
      <trkpt lat="43.84687" lon="7.26113">
        <ele>749</ele>
        <time>2013-03-10T14:37:18Z</time>
      </trkpt>
      <trkpt lat="43.84687" lon="7.26114">
        <ele>749</ele>
        <time>2013-03-10T14:37:19Z</time>
      </trkpt>
      <trkpt lat="43.84685" lon="7.26117">
        <ele>749</ele>
        <time>2013-03-10T14:37:22Z</time>
      </trkpt>
      <trkpt lat="43.84683" lon="7.26118">
        <ele>749</ele>
        <time>2013-03-10T14:37:27Z</time>
      </trkpt>
      <trkpt lat="43.84648" lon="7.26154">
        <ele>760</ele>
        <time>2013-03-10T14:39:10Z</time>
      </trkpt>
      <trkpt lat="43.84643" lon="7.26155">
        <ele>760</ele>
        <time>2013-03-10T14:39:16Z</time>
      </trkpt>
      <trkpt lat="43.84643" lon="7.26155">
        <ele>761</ele>
        <time>2013-03-10T14:39:17Z</time>
      </trkpt>
      <trkpt lat="43.84643" lon="7.26154">
        <ele>761</ele>
        <time>2013-03-10T14:39:18Z</time>
      </trkpt>
      <trkpt lat="43.84642" lon="7.26154">
        <ele>761</ele>
        <time>2013-03-10T14:39:19Z</time>
      </trkpt>
      <trkpt lat="43.84641" lon="7.26153">
        <ele>762</ele>
        <time>2013-03-10T14:39:20Z</time>
      </trkpt>
      <trkpt lat="43.8464" lon="7.26153">
        <ele>762</ele>
        <time>2013-03-10T14:39:21Z</time>
      </trkpt>
      <trkpt lat="43.84639" lon="7.26153">
        <ele>762</ele>
        <time>2013-03-10T14:39:22Z</time>
      </trkpt>
      <trkpt lat="43.84638" lon="7.26153">
        <ele>762</ele>
        <time>2013-03-10T14:39:23Z</time>
      </trkpt>
      <trkpt lat="43.84633" lon="7.26154">
        <ele>762</ele>
        <time>2013-03-10T14:39:28Z</time>
      </trkpt>
      <trkpt lat="43.84629" lon="7.26155">
        <ele>763</ele>
        <time>2013-03-10T14:39:32Z</time>
      </trkpt>
      <trkpt lat="43.84628" lon="7.26155">
        <ele>763</ele>
        <time>2013-03-10T14:39:33Z</time>
      </trkpt>
      <trkpt lat="43.84627" lon="7.26155">
        <ele>764</ele>
        <time>2013-03-10T14:39:34Z</time>
      </trkpt>
      <trkpt lat="43.84626" lon="7.26155">
        <ele>764</ele>
        <time>2013-03-10T14:39:35Z</time>
      </trkpt>
      <trkpt lat="43.84625" lon="7.26156">
        <ele>764</ele>
        <time>2013-03-10T14:39:36Z</time>
      </trkpt>
      <trkpt lat="43.84621" lon="7.26156">
        <ele>764</ele>
        <time>2013-03-10T14:39:40Z</time>
      </trkpt>
      <trkpt lat="43.8462" lon="7.26156">
        <ele>764</ele>
        <time>2013-03-10T14:39:41Z</time>
      </trkpt>
      <trkpt lat="43.84616" lon="7.26156">
        <ele>765</ele>
        <time>2013-03-10T14:39:45Z</time>
      </trkpt>
      <trkpt lat="43.84616" lon="7.26156">
        <ele>765</ele>
        <time>2013-03-10T14:39:46Z</time>
      </trkpt>
      <trkpt lat="43.84615" lon="7.26157">
        <ele>766</ele>
        <time>2013-03-10T14:39:47Z</time>
      </trkpt>
      <trkpt lat="43.84614" lon="7.26156">
        <ele>766</ele>
        <time>2013-03-10T14:39:48Z</time>
      </trkpt>
      <trkpt lat="43.84613" lon="7.26156">
        <ele>766</ele>
        <time>2013-03-10T14:39:49Z</time>
      </trkpt>
      <trkpt lat="43.84608" lon="7.26157">
        <ele>766</ele>
        <time>2013-03-10T14:39:56Z</time>
      </trkpt>
      <trkpt lat="43.84605" lon="7.26171">
        <ele>769</ele>
        <time>2013-03-10T14:45:05Z</time>
      </trkpt>
      <trkpt lat="43.84605" lon="7.26163">
        <ele>769</ele>
        <time>2013-03-10T14:45:08Z</time>
      </trkpt>
      <trkpt lat="43.84604" lon="7.26154">
        <ele>769</ele>
        <time>2013-03-10T14:45:11Z</time>
      </trkpt>
      <trkpt lat="43.84602" lon="7.26143">
        <ele>769</ele>
        <time>2013-03-10T14:45:15Z</time>
      </trkpt>
      <trkpt lat="43.846" lon="7.26135">
        <ele>769</ele>
        <time>2013-03-10T14:45:21Z</time>
      </trkpt>
      <trkpt lat="43.84596" lon="7.26129">
        <ele>769</ele>
        <time>2013-03-10T14:47:29Z</time>
      </trkpt>
      <trkpt lat="43.84594" lon="7.26127">
        <ele>769</ele>
        <time>2013-03-10T14:47:31Z</time>
      </trkpt>
      <trkpt lat="43.8459" lon="7.26122">
        <ele>769</ele>
        <time>2013-03-10T14:47:35Z</time>
      </trkpt>
      <trkpt lat="43.84588" lon="7.2612">
        <ele>769</ele>
        <time>2013-03-10T14:47:36Z</time>
      </trkpt>
      <trkpt lat="43.84583" lon="7.26118">
        <ele>769</ele>
        <time>2013-03-10T14:47:38Z</time>
      </trkpt>
      <trkpt lat="43.84573" lon="7.26114">
        <ele>769</ele>
        <time>2013-03-10T14:47:43Z</time>
      </trkpt>
      <trkpt lat="43.84572" lon="7.26114">
        <ele>770</ele>
        <time>2013-03-10T14:47:44Z</time>
      </trkpt>
      <trkpt lat="43.84571" lon="7.26113">
        <ele>770</ele>
        <time>2013-03-10T14:47:45Z</time>
      </trkpt>
      <trkpt lat="43.8457" lon="7.26113">
        <ele>771</ele>
        <time>2013-03-10T14:47:46Z</time>
      </trkpt>
      <trkpt lat="43.84562" lon="7.2611">
        <ele>771</ele>
        <time>2013-03-10T14:47:51Z</time>
      </trkpt>
      <trkpt lat="43.84552" lon="7.26106">
        <ele>771</ele>
        <time>2013-03-10T14:47:56Z</time>
      </trkpt>
      <trkpt lat="43.84536" lon="7.26101">
        <ele>771</ele>
        <time>2013-03-10T14:48:05Z</time>
      </trkpt>
      <trkpt lat="43.84534" lon="7.261">
        <ele>772</ele>
        <time>2013-03-10T14:48:06Z</time>
      </trkpt>
      <trkpt lat="43.84533" lon="7.26099">
        <ele>772</ele>
        <time>2013-03-10T14:48:07Z</time>
      </trkpt>
      <trkpt lat="43.8453" lon="7.26098">
        <ele>773</ele>
        <time>2013-03-10T14:48:08Z</time>
      </trkpt>
      <trkpt lat="43.84521" lon="7.26092">
        <ele>773</ele>
        <time>2013-03-10T14:48:13Z</time>
      </trkpt>
      <trkpt lat="43.84512" lon="7.26087">
        <ele>773</ele>
        <time>2013-03-10T14:48:19Z</time>
      </trkpt>
      <trkpt lat="43.84511" lon="7.26086">
        <ele>773</ele>
        <time>2013-03-10T14:48:48Z</time>
      </trkpt>
      <trkpt lat="43.84499" lon="7.26084">
        <ele>773</ele>
        <time>2013-03-10T14:48:53Z</time>
      </trkpt>
      <trkpt lat="43.84483" lon="7.26083">
        <ele>773</ele>
        <time>2013-03-10T14:48:58Z</time>
      </trkpt>
      <trkpt lat="43.84462" lon="7.26077">
        <ele>773</ele>
        <time>2013-03-10T14:49:05Z</time>
      </trkpt>
      <trkpt lat="43.84437" lon="7.26072">
        <ele>773</ele>
        <time>2013-03-10T14:49:13Z</time>
      </trkpt>
      <trkpt lat="43.84421" lon="7.2607">
        <ele>773</ele>
        <time>2013-03-10T14:49:19Z</time>
      </trkpt>
      <trkpt lat="43.84415" lon="7.26068">
        <ele>773</ele>
        <time>2013-03-10T14:49:24Z</time>
      </trkpt>
      <trkpt lat="43.84412" lon="7.26066">
        <ele>773</ele>
        <time>2013-03-10T14:49:28Z</time>
      </trkpt>
      <trkpt lat="43.84415" lon="7.26067">
        <ele>774</ele>
        <time>2013-03-10T14:50:24Z</time>
      </trkpt>
      <trkpt lat="43.84423" lon="7.26071">
        <ele>774</ele>
        <time>2013-03-10T14:50:30Z</time>
      </trkpt>
      <trkpt lat="43.84423" lon="7.26071">
        <ele>774</ele>
        <time>2013-03-10T14:50:31Z</time>
      </trkpt>
      <trkpt lat="43.84425" lon="7.2607">
        <ele>774</ele>
        <time>2013-03-10T14:50:53Z</time>
      </trkpt>
      <trkpt lat="43.84426" lon="7.26072">
        <ele>774</ele>
        <time>2013-03-10T14:50:55Z</time>
      </trkpt>
      <trkpt lat="43.84421" lon="7.26072">
        <ele>774</ele>
        <time>2013-03-10T14:50:59Z</time>
      </trkpt>
      <trkpt lat="43.84404" lon="7.2607">
        <ele>774</ele>
        <time>2013-03-10T14:51:03Z</time>
      </trkpt>
      <trkpt lat="43.84393" lon="7.2607">
        <ele>773</ele>
        <time>2013-03-10T14:51:05Z</time>
      </trkpt>
      <trkpt lat="43.84388" lon="7.2607">
        <ele>773</ele>
        <time>2013-03-10T14:51:06Z</time>
      </trkpt>
      <trkpt lat="43.84383" lon="7.2607">
        <ele>773</ele>
        <time>2013-03-10T14:51:07Z</time>
      </trkpt>
      <trkpt lat="43.84378" lon="7.26069">
        <ele>772</ele>
        <time>2013-03-10T14:51:08Z</time>
      </trkpt>
      <trkpt lat="43.84373" lon="7.26067">
        <ele>772</ele>
        <time>2013-03-10T14:51:09Z</time>
      </trkpt>
      <trkpt lat="43.84362" lon="7.26065">
        <ele>772</ele>
        <time>2013-03-10T14:51:12Z</time>
      </trkpt>
      <trkpt lat="43.84338" lon="7.26063">
        <ele>772</ele>
        <time>2013-03-10T14:51:19Z</time>
      </trkpt>
      <trkpt lat="43.84321" lon="7.26061">
        <ele>772</ele>
        <time>2013-03-10T14:51:25Z</time>
      </trkpt>
      <trkpt lat="43.84308" lon="7.26062">
        <ele>772</ele>
        <time>2013-03-10T14:51:28Z</time>
      </trkpt>
      <trkpt lat="43.84302" lon="7.26064">
        <ele>772</ele>
        <time>2013-03-10T14:51:29Z</time>
      </trkpt>
      <trkpt lat="43.84296" lon="7.26066">
        <ele>771</ele>
        <time>2013-03-10T14:51:30Z</time>
      </trkpt>
      <trkpt lat="43.84291" lon="7.2607">
        <ele>771</ele>
        <time>2013-03-10T14:51:31Z</time>
      </trkpt>
      <trkpt lat="43.84288" lon="7.26072">
        <ele>770</ele>
        <time>2013-03-10T14:51:32Z</time>
      </trkpt>
      <trkpt lat="43.84283" lon="7.26073">
        <ele>770</ele>
        <time>2013-03-10T14:51:33Z</time>
      </trkpt>
      <trkpt lat="43.84279" lon="7.26073">
        <ele>769</ele>
        <time>2013-03-10T14:51:34Z</time>
      </trkpt>
      <trkpt lat="43.84276" lon="7.26075">
        <ele>768</ele>
        <time>2013-03-10T14:51:35Z</time>
      </trkpt>
      <trkpt lat="43.84273" lon="7.26077">
        <ele>767</ele>
        <time>2013-03-10T14:51:36Z</time>
      </trkpt>
      <trkpt lat="43.84271" lon="7.26078">
        <ele>767</ele>
        <time>2013-03-10T14:51:37Z</time>
      </trkpt>
      <trkpt lat="43.8427" lon="7.26079">
        <ele>766</ele>
        <time>2013-03-10T14:51:38Z</time>
      </trkpt>
      <trkpt lat="43.84271" lon="7.26079">
        <ele>765</ele>
        <time>2013-03-10T14:51:39Z</time>
      </trkpt>
      <trkpt lat="43.84268" lon="7.2608">
        <ele>764</ele>
        <time>2013-03-10T14:51:46Z</time>
      </trkpt>
      <trkpt lat="43.84266" lon="7.2608">
        <ele>764</ele>
        <time>2013-03-10T14:51:47Z</time>
      </trkpt>
      <trkpt lat="43.84263" lon="7.26081">
        <ele>764</ele>
        <time>2013-03-10T14:51:48Z</time>
      </trkpt>
      <trkpt lat="43.84259" lon="7.26082">
        <ele>763</ele>
        <time>2013-03-10T14:51:49Z</time>
      </trkpt>
      <trkpt lat="43.84255" lon="7.26083">
        <ele>763</ele>
        <time>2013-03-10T14:51:50Z</time>
      </trkpt>
      <trkpt lat="43.84251" lon="7.26085">
        <ele>762</ele>
        <time>2013-03-10T14:51:51Z</time>
      </trkpt>
      <trkpt lat="43.84246" lon="7.26086">
        <ele>761</ele>
        <time>2013-03-10T14:51:52Z</time>
      </trkpt>
      <trkpt lat="43.84242" lon="7.26086">
        <ele>761</ele>
        <time>2013-03-10T14:51:53Z</time>
      </trkpt>
      <trkpt lat="43.8424" lon="7.26087">
        <ele>760</ele>
        <time>2013-03-10T14:51:54Z</time>
      </trkpt>
      <trkpt lat="43.84237" lon="7.26087">
        <ele>759</ele>
        <time>2013-03-10T14:51:55Z</time>
      </trkpt>
      <trkpt lat="43.84234" lon="7.26087">
        <ele>759</ele>
        <time>2013-03-10T14:51:56Z</time>
      </trkpt>
      <trkpt lat="43.8423" lon="7.26086">
        <ele>758</ele>
        <time>2013-03-10T14:51:57Z</time>
      </trkpt>
      <trkpt lat="43.84227" lon="7.26086">
        <ele>757</ele>
        <time>2013-03-10T14:51:58Z</time>
      </trkpt>
      <trkpt lat="43.84222" lon="7.26088">
        <ele>756</ele>
        <time>2013-03-10T14:51:59Z</time>
      </trkpt>
      <trkpt lat="43.84219" lon="7.26089">
        <ele>755</ele>
        <time>2013-03-10T14:52:00Z</time>
      </trkpt>
      <trkpt lat="43.84216" lon="7.2609">
        <ele>755</ele>
        <time>2013-03-10T14:52:01Z</time>
      </trkpt>
      <trkpt lat="43.84212" lon="7.2609">
        <ele>754</ele>
        <time>2013-03-10T14:52:02Z</time>
      </trkpt>
      <trkpt lat="43.84209" lon="7.26092">
        <ele>754</ele>
        <time>2013-03-10T14:52:03Z</time>
      </trkpt>
      <trkpt lat="43.84205" lon="7.26093">
        <ele>753</ele>
        <time>2013-03-10T14:52:04Z</time>
      </trkpt>
      <trkpt lat="43.84201" lon="7.26095">
        <ele>753</ele>
        <time>2013-03-10T14:52:05Z</time>
      </trkpt>
      <trkpt lat="43.84196" lon="7.26096">
        <ele>752</ele>
        <time>2013-03-10T14:52:06Z</time>
      </trkpt>
      <trkpt lat="43.8419" lon="7.26099">
        <ele>752</ele>
        <time>2013-03-10T14:52:07Z</time>
      </trkpt>
      <trkpt lat="43.84184" lon="7.26103">
        <ele>751</ele>
        <time>2013-03-10T14:52:08Z</time>
      </trkpt>
      <trkpt lat="43.84178" lon="7.26107">
        <ele>750</ele>
        <time>2013-03-10T14:52:09Z</time>
      </trkpt>
      <trkpt lat="43.84172" lon="7.2611">
        <ele>749</ele>
        <time>2013-03-10T14:52:10Z</time>
      </trkpt>
      <trkpt lat="43.84166" lon="7.26111">
        <ele>748</ele>
        <time>2013-03-10T14:52:11Z</time>
      </trkpt>
      <trkpt lat="43.8416" lon="7.26113">
        <ele>747</ele>
        <time>2013-03-10T14:52:12Z</time>
      </trkpt>
      <trkpt lat="43.84156" lon="7.26116">
        <ele>745</ele>
        <time>2013-03-10T14:52:13Z</time>
      </trkpt>
      <trkpt lat="43.84151" lon="7.26118">
        <ele>744</ele>
        <time>2013-03-10T14:52:14Z</time>
      </trkpt>
      <trkpt lat="43.84146" lon="7.26119">
        <ele>743</ele>
        <time>2013-03-10T14:52:15Z</time>
      </trkpt>
      <trkpt lat="43.84142" lon="7.2612">
        <ele>741</ele>
        <time>2013-03-10T14:52:16Z</time>
      </trkpt>
      <trkpt lat="43.84138" lon="7.26121">
        <ele>740</ele>
        <time>2013-03-10T14:52:17Z</time>
      </trkpt>
      <trkpt lat="43.84134" lon="7.26124">
        <ele>739</ele>
        <time>2013-03-10T14:52:18Z</time>
      </trkpt>
      <trkpt lat="43.84131" lon="7.26126">
        <ele>738</ele>
        <time>2013-03-10T14:52:19Z</time>
      </trkpt>
      <trkpt lat="43.84128" lon="7.26129">
        <ele>737</ele>
        <time>2013-03-10T14:52:20Z</time>
      </trkpt>
      <trkpt lat="43.84127" lon="7.26129">
        <ele>736</ele>
        <time>2013-03-10T14:52:21Z</time>
      </trkpt>
      <trkpt lat="43.84127" lon="7.26129">
        <ele>735</ele>
        <time>2013-03-10T14:52:22Z</time>
      </trkpt>
      <trkpt lat="43.84127" lon="7.2613">
        <ele>734</ele>
        <time>2013-03-10T14:52:23Z</time>
      </trkpt>
      <trkpt lat="43.84126" lon="7.26129">
        <ele>734</ele>
        <time>2013-03-10T14:52:44Z</time>
      </trkpt>
      <trkpt lat="43.84123" lon="7.2613">
        <ele>733</ele>
        <time>2013-03-10T14:52:45Z</time>
      </trkpt>
      <trkpt lat="43.84121" lon="7.26132">
        <ele>733</ele>
        <time>2013-03-10T14:52:46Z</time>
      </trkpt>
      <trkpt lat="43.84117" lon="7.26133">
        <ele>732</ele>
        <time>2013-03-10T14:52:47Z</time>
      </trkpt>
      <trkpt lat="43.84111" lon="7.26135">
        <ele>732</ele>
        <time>2013-03-10T14:52:48Z</time>
      </trkpt>
      <trkpt lat="43.84104" lon="7.26133">
        <ele>731</ele>
        <time>2013-03-10T14:52:49Z</time>
      </trkpt>
      <trkpt lat="43.84098" lon="7.26133">
        <ele>731</ele>
        <time>2013-03-10T14:52:50Z</time>
      </trkpt>
      <trkpt lat="43.84093" lon="7.26133">
        <ele>730</ele>
        <time>2013-03-10T14:52:51Z</time>
      </trkpt>
      <trkpt lat="43.84088" lon="7.26135">
        <ele>729</ele>
        <time>2013-03-10T14:52:52Z</time>
      </trkpt>
      <trkpt lat="43.8408" lon="7.26136">
        <ele>728</ele>
        <time>2013-03-10T14:52:53Z</time>
      </trkpt>
      <trkpt lat="43.84072" lon="7.26136">
        <ele>727</ele>
        <time>2013-03-10T14:52:54Z</time>
      </trkpt>
      <trkpt lat="43.84065" lon="7.26137">
        <ele>726</ele>
        <time>2013-03-10T14:52:55Z</time>
      </trkpt>
      <trkpt lat="43.84058" lon="7.26138">
        <ele>725</ele>
        <time>2013-03-10T14:52:56Z</time>
      </trkpt>
      <trkpt lat="43.84054" lon="7.26141">
        <ele>724</ele>
        <time>2013-03-10T14:52:57Z</time>
      </trkpt>
      <trkpt lat="43.84049" lon="7.26144">
        <ele>723</ele>
        <time>2013-03-10T14:52:58Z</time>
      </trkpt>
      <trkpt lat="43.84044" lon="7.26145">
        <ele>722</ele>
        <time>2013-03-10T14:52:59Z</time>
      </trkpt>
      <trkpt lat="43.84039" lon="7.26146">
        <ele>720</ele>
        <time>2013-03-10T14:53:00Z</time>
      </trkpt>
      <trkpt lat="43.84034" lon="7.26147">
        <ele>719</ele>
        <time>2013-03-10T14:53:01Z</time>
      </trkpt>
      <trkpt lat="43.84029" lon="7.26149">
        <ele>718</ele>
        <time>2013-03-10T14:53:02Z</time>
      </trkpt>
      <trkpt lat="43.84023" lon="7.26149">
        <ele>717</ele>
        <time>2013-03-10T14:53:03Z</time>
      </trkpt>
      <trkpt lat="43.84019" lon="7.26149">
        <ele>716</ele>
        <time>2013-03-10T14:53:04Z</time>
      </trkpt>
      <trkpt lat="43.84014" lon="7.26149">
        <ele>714</ele>
        <time>2013-03-10T14:53:05Z</time>
      </trkpt>
      <trkpt lat="43.84009" lon="7.26148">
        <ele>713</ele>
        <time>2013-03-10T14:53:06Z</time>
      </trkpt>
      <trkpt lat="43.84004" lon="7.26148">
        <ele>712</ele>
        <time>2013-03-10T14:53:07Z</time>
      </trkpt>
      <trkpt lat="43.83999" lon="7.26148">
        <ele>711</ele>
        <time>2013-03-10T14:53:08Z</time>
      </trkpt>
      <trkpt lat="43.83995" lon="7.26146">
        <ele>710</ele>
        <time>2013-03-10T14:53:09Z</time>
      </trkpt>
      <trkpt lat="43.83991" lon="7.26144">
        <ele>709</ele>
        <time>2013-03-10T14:53:10Z</time>
      </trkpt>
      <trkpt lat="43.83987" lon="7.26139">
        <ele>708</ele>
        <time>2013-03-10T14:53:11Z</time>
      </trkpt>
      <trkpt lat="43.83984" lon="7.26135">
        <ele>707</ele>
        <time>2013-03-10T14:53:12Z</time>
      </trkpt>
      <trkpt lat="43.83982" lon="7.26129">
        <ele>706</ele>
        <time>2013-03-10T14:53:13Z</time>
      </trkpt>
      <trkpt lat="43.8398" lon="7.26122">
        <ele>705</ele>
        <time>2013-03-10T14:53:14Z</time>
      </trkpt>
      <trkpt lat="43.83979" lon="7.26112">
        <ele>704</ele>
        <time>2013-03-10T14:53:15Z</time>
      </trkpt>
      <trkpt lat="43.83977" lon="7.261">
        <ele>704</ele>
        <time>2013-03-10T14:53:16Z</time>
      </trkpt>
      <trkpt lat="43.83976" lon="7.2609">
        <ele>703</ele>
        <time>2013-03-10T14:53:17Z</time>
      </trkpt>
      <trkpt lat="43.83972" lon="7.26066">
        <ele>703</ele>
        <time>2013-03-10T14:53:20Z</time>
      </trkpt>
      <trkpt lat="43.83967" lon="7.26048">
        <ele>703</ele>
        <time>2013-03-10T14:53:24Z</time>
      </trkpt>
      <trkpt lat="43.83964" lon="7.26045">
        <ele>703</ele>
        <time>2013-03-10T14:53:25Z</time>
      </trkpt>
      <trkpt lat="43.83954" lon="7.26039">
        <ele>703</ele>
        <time>2013-03-10T14:53:28Z</time>
      </trkpt>
      <trkpt lat="43.8395" lon="7.26037">
        <ele>703</ele>
        <time>2013-03-10T14:53:29Z</time>
      </trkpt>
      <trkpt lat="43.83947" lon="7.26028">
        <ele>703</ele>
        <time>2013-03-10T14:53:31Z</time>
      </trkpt>
      <trkpt lat="43.83947" lon="7.26024">
        <ele>703</ele>
        <time>2013-03-10T14:53:32Z</time>
      </trkpt>
      <trkpt lat="43.83951" lon="7.26008">
        <ele>703</ele>
        <time>2013-03-10T14:53:37Z</time>
      </trkpt>
      <trkpt lat="43.83951" lon="7.25999">
        <ele>703</ele>
        <time>2013-03-10T14:53:39Z</time>
      </trkpt>
      <trkpt lat="43.8395" lon="7.25992">
        <ele>703</ele>
        <time>2013-03-10T14:53:41Z</time>
      </trkpt>
      <trkpt lat="43.83948" lon="7.25976">
        <ele>703</ele>
        <time>2013-03-10T14:53:46Z</time>
      </trkpt>
      <trkpt lat="43.83948" lon="7.2596">
        <ele>703</ele>
        <time>2013-03-10T14:53:49Z</time>
      </trkpt>
      <trkpt lat="43.83949" lon="7.25953">
        <ele>703</ele>
        <time>2013-03-10T14:53:50Z</time>
      </trkpt>
      <trkpt lat="43.83949" lon="7.25946">
        <ele>702</ele>
        <time>2013-03-10T14:53:51Z</time>
      </trkpt>
      <trkpt lat="43.8395" lon="7.25944">
        <ele>702</ele>
        <time>2013-03-10T14:53:52Z</time>
      </trkpt>
      <trkpt lat="43.8395" lon="7.25945">
        <ele>701</ele>
        <time>2013-03-10T14:53:53Z</time>
      </trkpt>
      <trkpt lat="43.8395" lon="7.25945">
        <ele>701</ele>
        <time>2013-03-10T14:53:54Z</time>
      </trkpt>
      <trkpt lat="43.83948" lon="7.25939">
        <ele>701</ele>
        <time>2013-03-10T14:55:00Z</time>
      </trkpt>
      <trkpt lat="43.83948" lon="7.25932">
        <ele>701</ele>
        <time>2013-03-10T14:55:02Z</time>
      </trkpt>
      <trkpt lat="43.83946" lon="7.25914">
        <ele>700</ele>
        <time>2013-03-10T14:55:06Z</time>
      </trkpt>
      <trkpt lat="43.83944" lon="7.25912">
        <ele>700</ele>
        <time>2013-03-10T14:55:07Z</time>
      </trkpt>
      <trkpt lat="43.83942" lon="7.25912">
        <ele>699</ele>
        <time>2013-03-10T14:55:08Z</time>
      </trkpt>
      <trkpt lat="43.83938" lon="7.25912">
        <ele>698</ele>
        <time>2013-03-10T14:55:09Z</time>
      </trkpt>
      <trkpt lat="43.83934" lon="7.25909">
        <ele>698</ele>
        <time>2013-03-10T14:55:10Z</time>
      </trkpt>
      <trkpt lat="43.8393" lon="7.25906">
        <ele>698</ele>
        <time>2013-03-10T14:55:11Z</time>
      </trkpt>
      <trkpt lat="43.83926" lon="7.25905">
        <ele>697</ele>
        <time>2013-03-10T14:55:12Z</time>
      </trkpt>
      <trkpt lat="43.83922" lon="7.25903">
        <ele>697</ele>
        <time>2013-03-10T14:55:13Z</time>
      </trkpt>
      <trkpt lat="43.83918" lon="7.259">
        <ele>696</ele>
        <time>2013-03-10T14:55:14Z</time>
      </trkpt>
      <trkpt lat="43.83915" lon="7.25896">
        <ele>696</ele>
        <time>2013-03-10T14:55:15Z</time>
      </trkpt>
      <trkpt lat="43.83907" lon="7.25879">
        <ele>695</ele>
        <time>2013-03-10T14:55:19Z</time>
      </trkpt>
      <trkpt lat="43.83907" lon="7.25874">
        <ele>695</ele>
        <time>2013-03-10T14:55:20Z</time>
      </trkpt>
      <trkpt lat="43.83906" lon="7.25868">
        <ele>694</ele>
        <time>2013-03-10T14:55:21Z</time>
      </trkpt>
      <trkpt lat="43.83906" lon="7.25862">
        <ele>694</ele>
        <time>2013-03-10T14:55:22Z</time>
      </trkpt>
      <trkpt lat="43.83908" lon="7.25856">
        <ele>693</ele>
        <time>2013-03-10T14:55:23Z</time>
      </trkpt>
      <trkpt lat="43.8391" lon="7.25846">
        <ele>693</ele>
        <time>2013-03-10T14:55:25Z</time>
      </trkpt>
      <trkpt lat="43.83911" lon="7.2584">
        <ele>693</ele>
        <time>2013-03-10T14:55:26Z</time>
      </trkpt>
      <trkpt lat="43.83914" lon="7.25812">
        <ele>693</ele>
        <time>2013-03-10T14:55:30Z</time>
      </trkpt>
      <trkpt lat="43.83918" lon="7.25782">
        <ele>693</ele>
        <time>2013-03-10T14:55:34Z</time>
      </trkpt>
      <trkpt lat="43.83919" lon="7.25776">
        <ele>693</ele>
        <time>2013-03-10T14:55:35Z</time>
      </trkpt>
      <trkpt lat="43.83922" lon="7.2577">
        <ele>692</ele>
        <time>2013-03-10T14:55:36Z</time>
      </trkpt>
      <trkpt lat="43.83925" lon="7.25764">
        <ele>692</ele>
        <time>2013-03-10T14:55:37Z</time>
      </trkpt>
      <trkpt lat="43.83929" lon="7.25759">
        <ele>691</ele>
        <time>2013-03-10T14:55:38Z</time>
      </trkpt>
      <trkpt lat="43.83933" lon="7.25757">
        <ele>691</ele>
        <time>2013-03-10T14:55:39Z</time>
      </trkpt>
      <trkpt lat="43.83934" lon="7.25748">
        <ele>691</ele>
        <time>2013-03-10T14:55:42Z</time>
      </trkpt>
      <trkpt lat="43.83929" lon="7.25742">
        <ele>691</ele>
        <time>2013-03-10T14:55:44Z</time>
      </trkpt>
      <trkpt lat="43.83924" lon="7.25734">
        <ele>691</ele>
        <time>2013-03-10T14:55:46Z</time>
      </trkpt>
      <trkpt lat="43.83917" lon="7.25725">
        <ele>691</ele>
        <time>2013-03-10T14:55:50Z</time>
      </trkpt>
      <trkpt lat="43.83908" lon="7.25718">
        <ele>691</ele>
        <time>2013-03-10T14:55:55Z</time>
      </trkpt>
      <trkpt lat="43.83906" lon="7.25717">
        <ele>691</ele>
        <time>2013-03-10T14:55:56Z</time>
      </trkpt>
      <trkpt lat="43.83901" lon="7.25716">
        <ele>692</ele>
        <time>2013-03-10T14:55:58Z</time>
      </trkpt>
      <trkpt lat="43.83898" lon="7.25715">
        <ele>692</ele>
        <time>2013-03-10T14:55:59Z</time>
      </trkpt>
      <trkpt lat="43.83895" lon="7.25715">
        <ele>693</ele>
        <time>2013-03-10T14:56:00Z</time>
      </trkpt>
      <trkpt lat="43.83892" lon="7.25715">
        <ele>693</ele>
        <time>2013-03-10T14:56:01Z</time>
      </trkpt>
      <trkpt lat="43.83889" lon="7.25714">
        <ele>694</ele>
        <time>2013-03-10T14:56:02Z</time>
      </trkpt>
      <trkpt lat="43.83877" lon="7.25708">
        <ele>694</ele>
        <time>2013-03-10T14:56:07Z</time>
      </trkpt>
      <trkpt lat="43.83868" lon="7.25704">
        <ele>694</ele>
        <time>2013-03-10T14:56:10Z</time>
      </trkpt>
      <trkpt lat="43.83864" lon="7.25704">
        <ele>694</ele>
        <time>2013-03-10T14:56:11Z</time>
      </trkpt>
      <trkpt lat="43.8384" lon="7.25698">
        <ele>694</ele>
        <time>2013-03-10T14:56:18Z</time>
      </trkpt>
      <trkpt lat="43.83817" lon="7.25693">
        <ele>694</ele>
        <time>2013-03-10T14:56:25Z</time>
      </trkpt>
      <trkpt lat="43.83798" lon="7.25691">
        <ele>694</ele>
        <time>2013-03-10T14:56:31Z</time>
      </trkpt>
      <trkpt lat="43.83787" lon="7.25685">
        <ele>694</ele>
        <time>2013-03-10T14:56:36Z</time>
      </trkpt>
      <trkpt lat="43.83779" lon="7.25681">
        <ele>694</ele>
        <time>2013-03-10T14:56:40Z</time>
      </trkpt>
      <trkpt lat="43.83776" lon="7.25681">
        <ele>694</ele>
        <time>2013-03-10T14:56:41Z</time>
      </trkpt>
      <trkpt lat="43.83773" lon="7.2568">
        <ele>695</ele>
        <time>2013-03-10T14:56:42Z</time>
      </trkpt>
      <trkpt lat="43.83771" lon="7.25679">
        <ele>695</ele>
        <time>2013-03-10T14:56:43Z</time>
      </trkpt>
      <trkpt lat="43.83767" lon="7.25678">
        <ele>696</ele>
        <time>2013-03-10T14:56:44Z</time>
      </trkpt>
      <trkpt lat="43.83752" lon="7.25674">
        <ele>696</ele>
        <time>2013-03-10T14:56:49Z</time>
      </trkpt>
      <trkpt lat="43.83735" lon="7.25663">
        <ele>696</ele>
        <time>2013-03-10T14:56:55Z</time>
      </trkpt>
      <trkpt lat="43.83723" lon="7.25654">
        <ele>696</ele>
        <time>2013-03-10T14:57:00Z</time>
      </trkpt>
      <trkpt lat="43.83706" lon="7.2565">
        <ele>696</ele>
        <time>2013-03-10T14:57:06Z</time>
      </trkpt>
      <trkpt lat="43.83696" lon="7.25639">
        <ele>696</ele>
        <time>2013-03-10T14:57:11Z</time>
      </trkpt>
      <trkpt lat="43.83695" lon="7.25636">
        <ele>697</ele>
        <time>2013-03-10T14:57:12Z</time>
      </trkpt>
      <trkpt lat="43.83695" lon="7.25634">
        <ele>697</ele>
        <time>2013-03-10T14:57:13Z</time>
      </trkpt>
      <trkpt lat="43.83695" lon="7.25632">
        <ele>697</ele>
        <time>2013-03-10T14:57:14Z</time>
      </trkpt>
      <trkpt lat="43.83695" lon="7.25629">
        <ele>698</ele>
        <time>2013-03-10T14:57:15Z</time>
      </trkpt>
      <trkpt lat="43.83696" lon="7.25628">
        <ele>698</ele>
        <time>2013-03-10T14:57:16Z</time>
      </trkpt>
      <trkpt lat="43.83695" lon="7.25628">
        <ele>698</ele>
        <time>2013-03-10T14:57:17Z</time>
      </trkpt>
      <trkpt lat="43.83695" lon="7.25623">
        <ele>698</ele>
        <time>2013-03-10T14:58:46Z</time>
      </trkpt>
      <trkpt lat="43.83693" lon="7.25619">
        <ele>698</ele>
        <time>2013-03-10T14:58:48Z</time>
      </trkpt>
      <trkpt lat="43.8369" lon="7.25613">
        <ele>698</ele>
        <time>2013-03-10T14:58:50Z</time>
      </trkpt>
      <trkpt lat="43.8369" lon="7.25607">
        <ele>698</ele>
        <time>2013-03-10T14:58:51Z</time>
      </trkpt>
      <trkpt lat="43.83691" lon="7.25602">
        <ele>697</ele>
        <time>2013-03-10T14:58:52Z</time>
      </trkpt>
      <trkpt lat="43.83693" lon="7.25595">
        <ele>697</ele>
        <time>2013-03-10T14:58:53Z</time>
      </trkpt>
      <trkpt lat="43.83694" lon="7.2559">
        <ele>696</ele>
        <time>2013-03-10T14:58:54Z</time>
      </trkpt>
      <trkpt lat="43.83695" lon="7.25584">
        <ele>696</ele>
        <time>2013-03-10T14:58:55Z</time>
      </trkpt>
      <trkpt lat="43.83696" lon="7.25577">
        <ele>695</ele>
        <time>2013-03-10T14:58:56Z</time>
      </trkpt>
      <trkpt lat="43.83698" lon="7.25571">
        <ele>694</ele>
        <time>2013-03-10T14:58:57Z</time>
      </trkpt>
      <trkpt lat="43.837" lon="7.25565">
        <ele>693</ele>
        <time>2013-03-10T14:58:58Z</time>
      </trkpt>
      <trkpt lat="43.83704" lon="7.2556">
        <ele>692</ele>
        <time>2013-03-10T14:58:59Z</time>
      </trkpt>
      <trkpt lat="43.83708" lon="7.25557">
        <ele>692</ele>
        <time>2013-03-10T14:59:00Z</time>
      </trkpt>
      <trkpt lat="43.83712" lon="7.25554">
        <ele>691</ele>
        <time>2013-03-10T14:59:01Z</time>
      </trkpt>
      <trkpt lat="43.83715" lon="7.2555">
        <ele>690</ele>
        <time>2013-03-10T14:59:02Z</time>
      </trkpt>
      <trkpt lat="43.83719" lon="7.25547">
        <ele>689</ele>
        <time>2013-03-10T14:59:03Z</time>
      </trkpt>
      <trkpt lat="43.83721" lon="7.25545">
        <ele>688</ele>
        <time>2013-03-10T14:59:04Z</time>
      </trkpt>
      <trkpt lat="43.83721" lon="7.25544">
        <ele>687</ele>
        <time>2013-03-10T14:59:05Z</time>
      </trkpt>
      <trkpt lat="43.83722" lon="7.25543">
        <ele>687</ele>
        <time>2013-03-10T14:59:06Z</time>
      </trkpt>
      <trkpt lat="43.83722" lon="7.25542">
        <ele>686</ele>
        <time>2013-03-10T14:59:07Z</time>
      </trkpt>
      <trkpt lat="43.83723" lon="7.2554">
        <ele>685</ele>
        <time>2013-03-10T14:59:08Z</time>
      </trkpt>
      <trkpt lat="43.83723" lon="7.25539">
        <ele>684</ele>
        <time>2013-03-10T14:59:09Z</time>
      </trkpt>
      <trkpt lat="43.83726" lon="7.25538">
        <ele>684</ele>
        <time>2013-03-10T14:59:12Z</time>
      </trkpt>
      <trkpt lat="43.83729" lon="7.25536">
        <ele>682</ele>
        <time>2013-03-10T14:59:19Z</time>
      </trkpt>
      <trkpt lat="43.83734" lon="7.25531">
        <ele>682</ele>
        <time>2013-03-10T14:59:21Z</time>
      </trkpt>
      <trkpt lat="43.83735" lon="7.25529">
        <ele>682</ele>
        <time>2013-03-10T14:59:22Z</time>
      </trkpt>
      <trkpt lat="43.83735" lon="7.25529">
        <ele>681</ele>
        <time>2013-03-10T14:59:23Z</time>
      </trkpt>
      <trkpt lat="43.83733" lon="7.25548">
        <ele>683</ele>
        <time>2013-03-10T15:00:58Z</time>
      </trkpt>
      <trkpt lat="43.83734" lon="7.25547">
        <ele>683</ele>
        <time>2013-03-10T15:00:59Z</time>
      </trkpt>
      <trkpt lat="43.83735" lon="7.25547">
        <ele>684</ele>
        <time>2013-03-10T15:01:00Z</time>
      </trkpt>
      <trkpt lat="43.83737" lon="7.25547">
        <ele>684</ele>
        <time>2013-03-10T15:01:01Z</time>
      </trkpt>
      <trkpt lat="43.83739" lon="7.25547">
        <ele>684</ele>
        <time>2013-03-10T15:01:02Z</time>
      </trkpt>
      <trkpt lat="43.83741" lon="7.25546">
        <ele>684</ele>
        <time>2013-03-10T15:01:03Z</time>
      </trkpt>
      <trkpt lat="43.83754" lon="7.25545">
        <ele>684</ele>
        <time>2013-03-10T15:01:09Z</time>
      </trkpt>
      <trkpt lat="43.83756" lon="7.25545">
        <ele>684</ele>
        <time>2013-03-10T15:01:10Z</time>
      </trkpt>
      <trkpt lat="43.83758" lon="7.25544">
        <ele>685</ele>
        <time>2013-03-10T15:01:11Z</time>
      </trkpt>
      <trkpt lat="43.8376" lon="7.25543">
        <ele>685</ele>
        <time>2013-03-10T15:01:12Z</time>
      </trkpt>
      <trkpt lat="43.83762" lon="7.25543">
        <ele>686</ele>
        <time>2013-03-10T15:01:13Z</time>
      </trkpt>
      <trkpt lat="43.83764" lon="7.25541">
        <ele>686</ele>
        <time>2013-03-10T15:01:14Z</time>
      </trkpt>
      <trkpt lat="43.83765" lon="7.2554">
        <ele>686</ele>
        <time>2013-03-10T15:01:15Z</time>
      </trkpt>
      <trkpt lat="43.83769" lon="7.25538">
        <ele>686</ele>
        <time>2013-03-10T15:01:17Z</time>
      </trkpt>
      <trkpt lat="43.83774" lon="7.25534">
        <ele>687</ele>
        <time>2013-03-10T15:01:20Z</time>
      </trkpt>
      <trkpt lat="43.83775" lon="7.25533">
        <ele>687</ele>
        <time>2013-03-10T15:01:21Z</time>
      </trkpt>
      <trkpt lat="43.83777" lon="7.25531">
        <ele>688</ele>
        <time>2013-03-10T15:01:22Z</time>
      </trkpt>
      <trkpt lat="43.83778" lon="7.25529">
        <ele>688</ele>
        <time>2013-03-10T15:01:23Z</time>
      </trkpt>
      <trkpt lat="43.83779" lon="7.25528">
        <ele>688</ele>
        <time>2013-03-10T15:01:24Z</time>
      </trkpt>
      <trkpt lat="43.83788" lon="7.25513">
        <ele>688</ele>
        <time>2013-03-10T15:01:32Z</time>
      </trkpt>
      <trkpt lat="43.83789" lon="7.25511">
        <ele>689</ele>
        <time>2013-03-10T15:01:33Z</time>
      </trkpt>
      <trkpt lat="43.8379" lon="7.25509">
        <ele>689</ele>
        <time>2013-03-10T15:01:34Z</time>
      </trkpt>
      <trkpt lat="43.8379" lon="7.25507">
        <ele>690</ele>
        <time>2013-03-10T15:01:35Z</time>
      </trkpt>
      <trkpt lat="43.83791" lon="7.25505">
        <ele>690</ele>
        <time>2013-03-10T15:01:36Z</time>
      </trkpt>
      <trkpt lat="43.83791" lon="7.25503">
        <ele>691</ele>
        <time>2013-03-10T15:01:37Z</time>
      </trkpt>
      <trkpt lat="43.83793" lon="7.25494">
        <ele>691</ele>
        <time>2013-03-10T15:01:41Z</time>
      </trkpt>
      <trkpt lat="43.83794" lon="7.25486">
        <ele>691</ele>
        <time>2013-03-10T15:01:45Z</time>
      </trkpt>
      <trkpt lat="43.83794" lon="7.25483">
        <ele>691</ele>
        <time>2013-03-10T15:01:46Z</time>
      </trkpt>
      <trkpt lat="43.83794" lon="7.25481">
        <ele>692</ele>
        <time>2013-03-10T15:01:47Z</time>
      </trkpt>
      <trkpt lat="43.83794" lon="7.25479">
        <ele>692</ele>
        <time>2013-03-10T15:01:48Z</time>
      </trkpt>
      <trkpt lat="43.83794" lon="7.25477">
        <ele>693</ele>
        <time>2013-03-10T15:01:49Z</time>
      </trkpt>
      <trkpt lat="43.83795" lon="7.25461">
        <ele>693</ele>
        <time>2013-03-10T15:01:56Z</time>
      </trkpt>
      <trkpt lat="43.83796" lon="7.25457">
        <ele>693</ele>
        <time>2013-03-10T15:01:58Z</time>
      </trkpt>
      <trkpt lat="43.83797" lon="7.25454">
        <ele>694</ele>
        <time>2013-03-10T15:01:59Z</time>
      </trkpt>
      <trkpt lat="43.83798" lon="7.25453">
        <ele>694</ele>
        <time>2013-03-10T15:02:00Z</time>
      </trkpt>
      <trkpt lat="43.83799" lon="7.25451">
        <ele>694</ele>
        <time>2013-03-10T15:02:01Z</time>
      </trkpt>
      <trkpt lat="43.83799" lon="7.25449">
        <ele>695</ele>
        <time>2013-03-10T15:02:02Z</time>
      </trkpt>
      <trkpt lat="43.838" lon="7.25447">
        <ele>695</ele>
        <time>2013-03-10T15:02:03Z</time>
      </trkpt>
      <trkpt lat="43.83806" lon="7.25436">
        <ele>695</ele>
        <time>2013-03-10T15:02:10Z</time>
      </trkpt>
      <trkpt lat="43.83807" lon="7.25435">
        <ele>696</ele>
        <time>2013-03-10T15:02:11Z</time>
      </trkpt>
      <trkpt lat="43.83808" lon="7.25433">
        <ele>696</ele>
        <time>2013-03-10T15:02:12Z</time>
      </trkpt>
      <trkpt lat="43.83809" lon="7.25432">
        <ele>697</ele>
        <time>2013-03-10T15:02:13Z</time>
      </trkpt>
      <trkpt lat="43.8381" lon="7.2543">
        <ele>697</ele>
        <time>2013-03-10T15:02:14Z</time>
      </trkpt>
      <trkpt lat="43.83812" lon="7.25427">
        <ele>697</ele>
        <time>2013-03-10T15:02:16Z</time>
      </trkpt>
      <trkpt lat="43.83819" lon="7.25416">
        <ele>697</ele>
        <time>2013-03-10T15:02:23Z</time>
      </trkpt>
      <trkpt lat="43.83821" lon="7.25415">
        <ele>698</ele>
        <time>2013-03-10T15:02:24Z</time>
      </trkpt>
      <trkpt lat="43.83822" lon="7.25414">
        <ele>698</ele>
        <time>2013-03-10T15:02:25Z</time>
      </trkpt>
      <trkpt lat="43.83824" lon="7.25413">
        <ele>699</ele>
        <time>2013-03-10T15:02:26Z</time>
      </trkpt>
      <trkpt lat="43.83825" lon="7.25412">
        <ele>699</ele>
        <time>2013-03-10T15:02:27Z</time>
      </trkpt>
      <trkpt lat="43.83829" lon="7.2541">
        <ele>699</ele>
        <time>2013-03-10T15:02:31Z</time>
      </trkpt>
      <trkpt lat="43.83832" lon="7.25406">
        <ele>699</ele>
        <time>2013-03-10T15:02:35Z</time>
      </trkpt>
      <trkpt lat="43.83832" lon="7.25404">
        <ele>699</ele>
        <time>2013-03-10T15:02:37Z</time>
      </trkpt>
      <trkpt lat="43.83832" lon="7.25403">
        <ele>699</ele>
        <time>2013-03-10T15:02:39Z</time>
      </trkpt>
      <trkpt lat="43.83832" lon="7.25409">
        <ele>701</ele>
        <time>2013-03-10T15:03:49Z</time>
      </trkpt>
      <trkpt lat="43.83833" lon="7.25412">
        <ele>701</ele>
        <time>2013-03-10T15:03:51Z</time>
      </trkpt>
      <trkpt lat="43.83835" lon="7.25409">
        <ele>701</ele>
        <time>2013-03-10T15:03:55Z</time>
      </trkpt>
      <trkpt lat="43.83833" lon="7.25402">
        <ele>701</ele>
        <time>2013-03-10T15:03:59Z</time>
      </trkpt>
      <trkpt lat="43.83835" lon="7.25393">
        <ele>701</ele>
        <time>2013-03-10T15:04:03Z</time>
      </trkpt>
      <trkpt lat="43.83836" lon="7.25382">
        <ele>701</ele>
        <time>2013-03-10T15:04:05Z</time>
      </trkpt>
      <trkpt lat="43.83836" lon="7.25375">
        <ele>700</ele>
        <time>2013-03-10T15:04:06Z</time>
      </trkpt>
      <trkpt lat="43.83835" lon="7.25369">
        <ele>699</ele>
        <time>2013-03-10T15:04:07Z</time>
      </trkpt>
      <trkpt lat="43.83833" lon="7.25364">
        <ele>698</ele>
        <time>2013-03-10T15:04:08Z</time>
      </trkpt>
      <trkpt lat="43.83831" lon="7.25357">
        <ele>696</ele>
        <time>2013-03-10T15:04:09Z</time>
      </trkpt>
      <trkpt lat="43.83828" lon="7.25351">
        <ele>695</ele>
        <time>2013-03-10T15:04:10Z</time>
      </trkpt>
      <trkpt lat="43.83826" lon="7.25344">
        <ele>694</ele>
        <time>2013-03-10T15:04:11Z</time>
      </trkpt>
      <trkpt lat="43.83824" lon="7.2534">
        <ele>693</ele>
        <time>2013-03-10T15:04:12Z</time>
      </trkpt>
      <trkpt lat="43.83823" lon="7.25335">
        <ele>692</ele>
        <time>2013-03-10T15:04:13Z</time>
      </trkpt>
      <trkpt lat="43.83822" lon="7.2533">
        <ele>691</ele>
        <time>2013-03-10T15:04:14Z</time>
      </trkpt>
      <trkpt lat="43.83821" lon="7.25322">
        <ele>690</ele>
        <time>2013-03-10T15:04:15Z</time>
      </trkpt>
      <trkpt lat="43.83819" lon="7.25313">
        <ele>688</ele>
        <time>2013-03-10T15:04:16Z</time>
      </trkpt>
      <trkpt lat="43.83818" lon="7.25304">
        <ele>687</ele>
        <time>2013-03-10T15:04:17Z</time>
      </trkpt>
      <trkpt lat="43.83817" lon="7.25295">
        <ele>686</ele>
        <time>2013-03-10T15:04:18Z</time>
      </trkpt>
      <trkpt lat="43.83816" lon="7.25285">
        <ele>685</ele>
        <time>2013-03-10T15:04:19Z</time>
      </trkpt>
      <trkpt lat="43.83815" lon="7.25276">
        <ele>684</ele>
        <time>2013-03-10T15:04:20Z</time>
      </trkpt>
      <trkpt lat="43.83814" lon="7.25267">
        <ele>683</ele>
        <time>2013-03-10T15:04:21Z</time>
      </trkpt>
      <trkpt lat="43.83814" lon="7.2526">
        <ele>682</ele>
        <time>2013-03-10T15:04:22Z</time>
      </trkpt>
      <trkpt lat="43.83813" lon="7.25253">
        <ele>681</ele>
        <time>2013-03-10T15:04:23Z</time>
      </trkpt>
      <trkpt lat="43.83813" lon="7.25248">
        <ele>680</ele>
        <time>2013-03-10T15:04:24Z</time>
      </trkpt>
      <trkpt lat="43.83813" lon="7.25243">
        <ele>679</ele>
        <time>2013-03-10T15:04:25Z</time>
      </trkpt>
      <trkpt lat="43.83813" lon="7.25239">
        <ele>677</ele>
        <time>2013-03-10T15:04:26Z</time>
      </trkpt>
      <trkpt lat="43.83812" lon="7.25234">
        <ele>676</ele>
        <time>2013-03-10T15:04:27Z</time>
      </trkpt>
      <trkpt lat="43.83812" lon="7.25229">
        <ele>675</ele>
        <time>2013-03-10T15:04:28Z</time>
      </trkpt>
      <trkpt lat="43.83811" lon="7.25224">
        <ele>674</ele>
        <time>2013-03-10T15:04:29Z</time>
      </trkpt>
      <trkpt lat="43.8381" lon="7.25219">
        <ele>674</ele>
        <time>2013-03-10T15:04:30Z</time>
      </trkpt>
      <trkpt lat="43.83808" lon="7.25214">
        <ele>673</ele>
        <time>2013-03-10T15:04:31Z</time>
      </trkpt>
      <trkpt lat="43.83807" lon="7.25209">
        <ele>673</ele>
        <time>2013-03-10T15:04:32Z</time>
      </trkpt>
      <trkpt lat="43.83806" lon="7.25203">
        <ele>672</ele>
        <time>2013-03-10T15:04:33Z</time>
      </trkpt>
      <trkpt lat="43.83805" lon="7.25197">
        <ele>672</ele>
        <time>2013-03-10T15:04:34Z</time>
      </trkpt>
      <trkpt lat="43.83805" lon="7.25192">
        <ele>671</ele>
        <time>2013-03-10T15:04:35Z</time>
      </trkpt>
      <trkpt lat="43.83805" lon="7.25188">
        <ele>671</ele>
        <time>2013-03-10T15:04:36Z</time>
      </trkpt>
      <trkpt lat="43.83805" lon="7.25185">
        <ele>670</ele>
        <time>2013-03-10T15:04:37Z</time>
      </trkpt>
      <trkpt lat="43.83807" lon="7.25183">
        <ele>669</ele>
        <time>2013-03-10T15:04:38Z</time>
      </trkpt>
      <trkpt lat="43.83808" lon="7.25181">
        <ele>668</ele>
        <time>2013-03-10T15:04:39Z</time>
      </trkpt>
      <trkpt lat="43.83811" lon="7.25178">
        <ele>668</ele>
        <time>2013-03-10T15:04:40Z</time>
      </trkpt>
      <trkpt lat="43.83812" lon="7.25175">
        <ele>667</ele>
        <time>2013-03-10T15:04:41Z</time>
      </trkpt>
      <trkpt lat="43.83813" lon="7.25171">
        <ele>666</ele>
        <time>2013-03-10T15:04:42Z</time>
      </trkpt>
      <trkpt lat="43.83814" lon="7.25165">
        <ele>666</ele>
        <time>2013-03-10T15:04:43Z</time>
      </trkpt>
      <trkpt lat="43.83816" lon="7.2516">
        <ele>665</ele>
        <time>2013-03-10T15:04:44Z</time>
      </trkpt>
      <trkpt lat="43.83818" lon="7.25154">
        <ele>664</ele>
        <time>2013-03-10T15:04:45Z</time>
      </trkpt>
      <trkpt lat="43.8382" lon="7.25149">
        <ele>663</ele>
        <time>2013-03-10T15:04:46Z</time>
      </trkpt>
      <trkpt lat="43.83822" lon="7.25144">
        <ele>662</ele>
        <time>2013-03-10T15:04:47Z</time>
      </trkpt>
      <trkpt lat="43.83824" lon="7.25141">
        <ele>661</ele>
        <time>2013-03-10T15:04:48Z</time>
      </trkpt>
      <trkpt lat="43.83825" lon="7.25139">
        <ele>660</ele>
        <time>2013-03-10T15:04:49Z</time>
      </trkpt>
      <trkpt lat="43.83828" lon="7.25136">
        <ele>659</ele>
        <time>2013-03-10T15:04:50Z</time>
      </trkpt>
      <trkpt lat="43.83831" lon="7.25133">
        <ele>658</ele>
        <time>2013-03-10T15:04:51Z</time>
      </trkpt>
      <trkpt lat="43.83834" lon="7.25129">
        <ele>657</ele>
        <time>2013-03-10T15:04:52Z</time>
      </trkpt>
      <trkpt lat="43.83837" lon="7.25125">
        <ele>657</ele>
        <time>2013-03-10T15:04:53Z</time>
      </trkpt>
      <trkpt lat="43.83839" lon="7.25122">
        <ele>656</ele>
        <time>2013-03-10T15:04:54Z</time>
      </trkpt>
      <trkpt lat="43.83841" lon="7.25118">
        <ele>654</ele>
        <time>2013-03-10T15:04:55Z</time>
      </trkpt>
      <trkpt lat="43.83842" lon="7.25114">
        <ele>653</ele>
        <time>2013-03-10T15:04:56Z</time>
      </trkpt>
      <trkpt lat="43.83843" lon="7.25109">
        <ele>652</ele>
        <time>2013-03-10T15:04:57Z</time>
      </trkpt>
      <trkpt lat="43.83843" lon="7.25105">
        <ele>651</ele>
        <time>2013-03-10T15:04:58Z</time>
      </trkpt>
      <trkpt lat="43.83844" lon="7.25102">
        <ele>651</ele>
        <time>2013-03-10T15:04:59Z</time>
      </trkpt>
      <trkpt lat="43.83846" lon="7.251">
        <ele>650</ele>
        <time>2013-03-10T15:05:00Z</time>
      </trkpt>
      <trkpt lat="43.83846" lon="7.25099">
        <ele>649</ele>
        <time>2013-03-10T15:05:01Z</time>
      </trkpt>
      <trkpt lat="43.83847" lon="7.25098">
        <ele>647</ele>
        <time>2013-03-10T15:05:02Z</time>
      </trkpt>
      <trkpt lat="43.83849" lon="7.25098">
        <ele>643</ele>
        <time>2013-03-10T15:05:10Z</time>
      </trkpt>
      <trkpt lat="43.8385" lon="7.25096">
        <ele>643</ele>
        <time>2013-03-10T15:05:11Z</time>
      </trkpt>
      <trkpt lat="43.83851" lon="7.25094">
        <ele>643</ele>
        <time>2013-03-10T15:05:12Z</time>
      </trkpt>
      <trkpt lat="43.83854" lon="7.25088">
        <ele>643</ele>
        <time>2013-03-10T15:05:14Z</time>
      </trkpt>
      <trkpt lat="43.83855" lon="7.25085">
        <ele>642</ele>
        <time>2013-03-10T15:05:15Z</time>
      </trkpt>
      <trkpt lat="43.83856" lon="7.25082">
        <ele>642</ele>
        <time>2013-03-10T15:05:16Z</time>
      </trkpt>
      <trkpt lat="43.83858" lon="7.2508">
        <ele>641</ele>
        <time>2013-03-10T15:05:17Z</time>
      </trkpt>
      <trkpt lat="43.8386" lon="7.2508">
        <ele>640</ele>
        <time>2013-03-10T15:05:18Z</time>
      </trkpt>
      <trkpt lat="43.83864" lon="7.2508">
        <ele>639</ele>
        <time>2013-03-10T15:05:19Z</time>
      </trkpt>
      <trkpt lat="43.83866" lon="7.25081">
        <ele>638</ele>
        <time>2013-03-10T15:05:20Z</time>
      </trkpt>
      <trkpt lat="43.83868" lon="7.25082">
        <ele>637</ele>
        <time>2013-03-10T15:05:21Z</time>
      </trkpt>
      <trkpt lat="43.8387" lon="7.25083">
        <ele>637</ele>
        <time>2013-03-10T15:05:22Z</time>
      </trkpt>
      <trkpt lat="43.83872" lon="7.25084">
        <ele>636</ele>
        <time>2013-03-10T15:05:23Z</time>
      </trkpt>
      <trkpt lat="43.83874" lon="7.25085">
        <ele>635</ele>
        <time>2013-03-10T15:05:24Z</time>
      </trkpt>
      <trkpt lat="43.83877" lon="7.25084">
        <ele>633</ele>
        <time>2013-03-10T15:05:25Z</time>
      </trkpt>
      <trkpt lat="43.83879" lon="7.25083">
        <ele>632</ele>
        <time>2013-03-10T15:05:26Z</time>
      </trkpt>
      <trkpt lat="43.83881" lon="7.2508">
        <ele>631</ele>
        <time>2013-03-10T15:05:27Z</time>
      </trkpt>
      <trkpt lat="43.83882" lon="7.25077">
        <ele>630</ele>
        <time>2013-03-10T15:05:28Z</time>
      </trkpt>
      <trkpt lat="43.83884" lon="7.25073">
        <ele>629</ele>
        <time>2013-03-10T15:05:29Z</time>
      </trkpt>
      <trkpt lat="43.83885" lon="7.2507">
        <ele>628</ele>
        <time>2013-03-10T15:05:30Z</time>
      </trkpt>
      <trkpt lat="43.83885" lon="7.25065">
        <ele>627</ele>
        <time>2013-03-10T15:05:31Z</time>
      </trkpt>
      <trkpt lat="43.83886" lon="7.25061">
        <ele>625</ele>
        <time>2013-03-10T15:05:32Z</time>
      </trkpt>
      <trkpt lat="43.83886" lon="7.25059">
        <ele>624</ele>
        <time>2013-03-10T15:05:33Z</time>
      </trkpt>
      <trkpt lat="43.83888" lon="7.2506">
        <ele>623</ele>
        <time>2013-03-10T15:05:34Z</time>
      </trkpt>
      <trkpt lat="43.83889" lon="7.25061">
        <ele>622</ele>
        <time>2013-03-10T15:05:35Z</time>
      </trkpt>
      <trkpt lat="43.83891" lon="7.25063">
        <ele>622</ele>
        <time>2013-03-10T15:05:36Z</time>
      </trkpt>
      <trkpt lat="43.83893" lon="7.25067">
        <ele>621</ele>
        <time>2013-03-10T15:05:37Z</time>
      </trkpt>
      <trkpt lat="43.83895" lon="7.25068">
        <ele>620</ele>
        <time>2013-03-10T15:05:38Z</time>
      </trkpt>
      <trkpt lat="43.83896" lon="7.25069">
        <ele>619</ele>
        <time>2013-03-10T15:05:39Z</time>
      </trkpt>
      <trkpt lat="43.83897" lon="7.25067">
        <ele>619</ele>
        <time>2013-03-10T15:05:40Z</time>
      </trkpt>
      <trkpt lat="43.83898" lon="7.25062">
        <ele>618</ele>
        <time>2013-03-10T15:05:41Z</time>
      </trkpt>
      <trkpt lat="43.83898" lon="7.25056">
        <ele>617</ele>
        <time>2013-03-10T15:05:42Z</time>
      </trkpt>
      <trkpt lat="43.83898" lon="7.25052">
        <ele>616</ele>
        <time>2013-03-10T15:05:43Z</time>
      </trkpt>
      <trkpt lat="43.83899" lon="7.25048">
        <ele>615</ele>
        <time>2013-03-10T15:05:44Z</time>
      </trkpt>
      <trkpt lat="43.83899" lon="7.25044">
        <ele>615</ele>
        <time>2013-03-10T15:05:45Z</time>
      </trkpt>
      <trkpt lat="43.839" lon="7.2504">
        <ele>614</ele>
        <time>2013-03-10T15:05:46Z</time>
      </trkpt>
      <trkpt lat="43.839" lon="7.25036">
        <ele>613</ele>
        <time>2013-03-10T15:05:47Z</time>
      </trkpt>
      <trkpt lat="43.83901" lon="7.25032">
        <ele>612</ele>
        <time>2013-03-10T15:05:48Z</time>
      </trkpt>
      <trkpt lat="43.83901" lon="7.25027">
        <ele>611</ele>
        <time>2013-03-10T15:05:49Z</time>
      </trkpt>
      <trkpt lat="43.839" lon="7.25023">
        <ele>610</ele>
        <time>2013-03-10T15:05:50Z</time>
      </trkpt>
      <trkpt lat="43.83899" lon="7.25018">
        <ele>609</ele>
        <time>2013-03-10T15:05:51Z</time>
      </trkpt>
      <trkpt lat="43.83898" lon="7.25013">
        <ele>608</ele>
        <time>2013-03-10T15:05:52Z</time>
      </trkpt>
      <trkpt lat="43.83895" lon="7.25008">
        <ele>607</ele>
        <time>2013-03-10T15:05:53Z</time>
      </trkpt>
      <trkpt lat="43.83894" lon="7.25005">
        <ele>606</ele>
        <time>2013-03-10T15:05:54Z</time>
      </trkpt>
      <trkpt lat="43.83893" lon="7.25003">
        <ele>605</ele>
        <time>2013-03-10T15:05:55Z</time>
      </trkpt>
      <trkpt lat="43.83893" lon="7.25002">
        <ele>605</ele>
        <time>2013-03-10T15:05:56Z</time>
      </trkpt>
      <trkpt lat="43.83894" lon="7.25001">
        <ele>604</ele>
        <time>2013-03-10T15:05:57Z</time>
      </trkpt>
      <trkpt lat="43.83895" lon="7.25">
        <ele>603</ele>
        <time>2013-03-10T15:05:58Z</time>
      </trkpt>
      <trkpt lat="43.83896" lon="7.24998">
        <ele>603</ele>
        <time>2013-03-10T15:05:59Z</time>
      </trkpt>
      <trkpt lat="43.83897" lon="7.24995">
        <ele>602</ele>
        <time>2013-03-10T15:06:00Z</time>
      </trkpt>
      <trkpt lat="43.83896" lon="7.24992">
        <ele>602</ele>
        <time>2013-03-10T15:06:01Z</time>
      </trkpt>
      <trkpt lat="43.83896" lon="7.24991">
        <ele>601</ele>
        <time>2013-03-10T15:06:02Z</time>
      </trkpt>
      <trkpt lat="43.83897" lon="7.24991">
        <ele>600</ele>
        <time>2013-03-10T15:06:03Z</time>
      </trkpt>
      <trkpt lat="43.83898" lon="7.24991">
        <ele>600</ele>
        <time>2013-03-10T15:06:04Z</time>
      </trkpt>
      <trkpt lat="43.839" lon="7.24992">
        <ele>599</ele>
        <time>2013-03-10T15:06:05Z</time>
      </trkpt>
      <trkpt lat="43.83902" lon="7.24992">
        <ele>599</ele>
        <time>2013-03-10T15:06:06Z</time>
      </trkpt>
      <trkpt lat="43.83905" lon="7.24992">
        <ele>598</ele>
        <time>2013-03-10T15:06:07Z</time>
      </trkpt>
      <trkpt lat="43.83908" lon="7.24994">
        <ele>598</ele>
        <time>2013-03-10T15:06:08Z</time>
      </trkpt>
      <trkpt lat="43.8391" lon="7.24996">
        <ele>597</ele>
        <time>2013-03-10T15:06:09Z</time>
      </trkpt>
      <trkpt lat="43.83913" lon="7.24997">
        <ele>596</ele>
        <time>2013-03-10T15:06:10Z</time>
      </trkpt>
      <trkpt lat="43.83915" lon="7.24997">
        <ele>596</ele>
        <time>2013-03-10T15:06:11Z</time>
      </trkpt>
      <trkpt lat="43.83916" lon="7.24996">
        <ele>595</ele>
        <time>2013-03-10T15:06:12Z</time>
      </trkpt>
      <trkpt lat="43.83917" lon="7.24994">
        <ele>594</ele>
        <time>2013-03-10T15:06:13Z</time>
      </trkpt>
      <trkpt lat="43.83916" lon="7.24991">
        <ele>593</ele>
        <time>2013-03-10T15:06:14Z</time>
      </trkpt>
      <trkpt lat="43.83914" lon="7.24988">
        <ele>592</ele>
        <time>2013-03-10T15:06:15Z</time>
      </trkpt>
      <trkpt lat="43.83914" lon="7.24986">
        <ele>592</ele>
        <time>2013-03-10T15:06:16Z</time>
      </trkpt>
      <trkpt lat="43.83914" lon="7.24986">
        <ele>591</ele>
        <time>2013-03-10T15:06:17Z</time>
      </trkpt>
      <trkpt lat="43.83915" lon="7.24987">
        <ele>590</ele>
        <time>2013-03-10T15:06:19Z</time>
      </trkpt>
      <trkpt lat="43.83916" lon="7.2499">
        <ele>590</ele>
        <time>2013-03-10T15:06:20Z</time>
      </trkpt>
      <trkpt lat="43.83919" lon="7.24993">
        <ele>589</ele>
        <time>2013-03-10T15:06:21Z</time>
      </trkpt>
      <trkpt lat="43.83922" lon="7.24995">
        <ele>589</ele>
        <time>2013-03-10T15:06:22Z</time>
      </trkpt>
      <trkpt lat="43.83925" lon="7.24997">
        <ele>588</ele>
        <time>2013-03-10T15:06:23Z</time>
      </trkpt>
      <trkpt lat="43.83927" lon="7.25">
        <ele>588</ele>
        <time>2013-03-10T15:06:24Z</time>
      </trkpt>
      <trkpt lat="43.83929" lon="7.25001">
        <ele>587</ele>
        <time>2013-03-10T15:06:25Z</time>
      </trkpt>
      <trkpt lat="43.83931" lon="7.25002">
        <ele>586</ele>
        <time>2013-03-10T15:06:26Z</time>
      </trkpt>
      <trkpt lat="43.83934" lon="7.25004">
        <ele>586</ele>
        <time>2013-03-10T15:06:27Z</time>
      </trkpt>
      <trkpt lat="43.83936" lon="7.25006">
        <ele>585</ele>
        <time>2013-03-10T15:06:28Z</time>
      </trkpt>
      <trkpt lat="43.83938" lon="7.25007">
        <ele>584</ele>
        <time>2013-03-10T15:06:29Z</time>
      </trkpt>
      <trkpt lat="43.8394" lon="7.25007">
        <ele>583</ele>
        <time>2013-03-10T15:06:30Z</time>
      </trkpt>
      <trkpt lat="43.8394" lon="7.25007">
        <ele>583</ele>
        <time>2013-03-10T15:06:31Z</time>
      </trkpt>
      <trkpt lat="43.8394" lon="7.25005">
        <ele>582</ele>
        <time>2013-03-10T15:06:32Z</time>
      </trkpt>
      <trkpt lat="43.8394" lon="7.25003">
        <ele>581</ele>
        <time>2013-03-10T15:06:33Z</time>
      </trkpt>
      <trkpt lat="43.8394" lon="7.25">
        <ele>581</ele>
        <time>2013-03-10T15:06:34Z</time>
      </trkpt>
      <trkpt lat="43.83939" lon="7.24996">
        <ele>580</ele>
        <time>2013-03-10T15:06:35Z</time>
      </trkpt>
      <trkpt lat="43.83938" lon="7.24994">
        <ele>580</ele>
        <time>2013-03-10T15:06:36Z</time>
      </trkpt>
      <trkpt lat="43.83939" lon="7.24994">
        <ele>579</ele>
        <time>2013-03-10T15:06:38Z</time>
      </trkpt>
      <trkpt lat="43.83939" lon="7.24994">
        <ele>578</ele>
        <time>2013-03-10T15:06:39Z</time>
      </trkpt>
      <trkpt lat="43.8394" lon="7.24995">
        <ele>578</ele>
        <time>2013-03-10T15:06:40Z</time>
      </trkpt>
      <trkpt lat="43.8394" lon="7.24997">
        <ele>578</ele>
        <time>2013-03-10T15:06:41Z</time>
      </trkpt>
      <trkpt lat="43.83945" lon="7.25005">
        <ele>578</ele>
        <time>2013-03-10T15:06:44Z</time>
      </trkpt>
      <trkpt lat="43.83946" lon="7.25007">
        <ele>577</ele>
        <time>2013-03-10T15:06:45Z</time>
      </trkpt>
      <trkpt lat="43.83947" lon="7.25006">
        <ele>577</ele>
        <time>2013-03-10T15:06:46Z</time>
      </trkpt>
      <trkpt lat="43.83949" lon="7.25005">
        <ele>576</ele>
        <time>2013-03-10T15:06:47Z</time>
      </trkpt>
      <trkpt lat="43.8395" lon="7.25002">
        <ele>576</ele>
        <time>2013-03-10T15:06:48Z</time>
      </trkpt>
      <trkpt lat="43.83951" lon="7.24998">
        <ele>575</ele>
        <time>2013-03-10T15:06:49Z</time>
      </trkpt>
      <trkpt lat="43.83951" lon="7.24993">
        <ele>575</ele>
        <time>2013-03-10T15:06:50Z</time>
      </trkpt>
      <trkpt lat="43.83951" lon="7.2499">
        <ele>574</ele>
        <time>2013-03-10T15:06:51Z</time>
      </trkpt>
      <trkpt lat="43.83952" lon="7.24989">
        <ele>573</ele>
        <time>2013-03-10T15:06:52Z</time>
      </trkpt>
      <trkpt lat="43.83952" lon="7.24989">
        <ele>573</ele>
        <time>2013-03-10T15:06:53Z</time>
      </trkpt>
      <trkpt lat="43.83953" lon="7.24991">
        <ele>572</ele>
        <time>2013-03-10T15:06:54Z</time>
      </trkpt>
      <trkpt lat="43.83954" lon="7.24994">
        <ele>572</ele>
        <time>2013-03-10T15:06:55Z</time>
      </trkpt>
      <trkpt lat="43.83956" lon="7.24998">
        <ele>571</ele>
        <time>2013-03-10T15:06:56Z</time>
      </trkpt>
      <trkpt lat="43.8396" lon="7.25005">
        <ele>570</ele>
        <time>2013-03-10T15:06:58Z</time>
      </trkpt>
      <trkpt lat="43.83962" lon="7.25009">
        <ele>570</ele>
        <time>2013-03-10T15:06:59Z</time>
      </trkpt>
      <trkpt lat="43.83963" lon="7.25013">
        <ele>569</ele>
        <time>2013-03-10T15:07:00Z</time>
      </trkpt>
      <trkpt lat="43.83964" lon="7.25018">
        <ele>569</ele>
        <time>2013-03-10T15:07:01Z</time>
      </trkpt>
      <trkpt lat="43.83964" lon="7.25023">
        <ele>568</ele>
        <time>2013-03-10T15:07:02Z</time>
      </trkpt>
      <trkpt lat="43.83965" lon="7.25028">
        <ele>567</ele>
        <time>2013-03-10T15:07:03Z</time>
      </trkpt>
      <trkpt lat="43.83966" lon="7.25034">
        <ele>566</ele>
        <time>2013-03-10T15:07:04Z</time>
      </trkpt>
      <trkpt lat="43.83967" lon="7.2504">
        <ele>565</ele>
        <time>2013-03-10T15:07:05Z</time>
      </trkpt>
      <trkpt lat="43.83967" lon="7.25046">
        <ele>565</ele>
        <time>2013-03-10T15:07:06Z</time>
      </trkpt>
      <trkpt lat="43.83967" lon="7.2505">
        <ele>564</ele>
        <time>2013-03-10T15:07:07Z</time>
      </trkpt>
      <trkpt lat="43.83967" lon="7.25054">
        <ele>564</ele>
        <time>2013-03-10T15:07:08Z</time>
      </trkpt>
      <trkpt lat="43.83968" lon="7.25057">
        <ele>563</ele>
        <time>2013-03-10T15:07:09Z</time>
      </trkpt>
      <trkpt lat="43.83969" lon="7.25059">
        <ele>563</ele>
        <time>2013-03-10T15:07:10Z</time>
      </trkpt>
      <trkpt lat="43.83971" lon="7.2506">
        <ele>562</ele>
        <time>2013-03-10T15:07:11Z</time>
      </trkpt>
      <trkpt lat="43.83973" lon="7.25061">
        <ele>561</ele>
        <time>2013-03-10T15:07:12Z</time>
      </trkpt>
      <trkpt lat="43.83975" lon="7.25062">
        <ele>561</ele>
        <time>2013-03-10T15:07:13Z</time>
      </trkpt>
      <trkpt lat="43.83977" lon="7.25062">
        <ele>560</ele>
        <time>2013-03-10T15:07:14Z</time>
      </trkpt>
      <trkpt lat="43.83978" lon="7.25061">
        <ele>559</ele>
        <time>2013-03-10T15:07:15Z</time>
      </trkpt>
      <trkpt lat="43.8398" lon="7.2506">
        <ele>558</ele>
        <time>2013-03-10T15:07:16Z</time>
      </trkpt>
      <trkpt lat="43.83982" lon="7.2506">
        <ele>558</ele>
        <time>2013-03-10T15:07:17Z</time>
      </trkpt>
      <trkpt lat="43.83985" lon="7.2506">
        <ele>557</ele>
        <time>2013-03-10T15:07:18Z</time>
      </trkpt>
      <trkpt lat="43.83987" lon="7.25061">
        <ele>556</ele>
        <time>2013-03-10T15:07:19Z</time>
      </trkpt>
      <trkpt lat="43.83988" lon="7.2506">
        <ele>556</ele>
        <time>2013-03-10T15:07:20Z</time>
      </trkpt>
      <trkpt lat="43.83989" lon="7.2506">
        <ele>555</ele>
        <time>2013-03-10T15:07:21Z</time>
      </trkpt>
      <trkpt lat="43.83991" lon="7.2506">
        <ele>555</ele>
        <time>2013-03-10T15:07:22Z</time>
      </trkpt>
      <trkpt lat="43.83993" lon="7.25061">
        <ele>554</ele>
        <time>2013-03-10T15:07:29Z</time>
      </trkpt>
      <trkpt lat="43.83995" lon="7.25062">
        <ele>554</ele>
        <time>2013-03-10T15:07:30Z</time>
      </trkpt>
      <trkpt lat="43.83997" lon="7.25064">
        <ele>554</ele>
        <time>2013-03-10T15:07:34Z</time>
      </trkpt>
      <trkpt lat="43.83997" lon="7.25065">
        <ele>554</ele>
        <time>2013-03-10T15:07:35Z</time>
      </trkpt>
      <trkpt lat="43.84" lon="7.2503">
        <ele>554</ele>
        <time>2013-03-10T15:10:48Z</time>
      </trkpt>
      <trkpt lat="43.84001" lon="7.25025">
        <ele>554</ele>
        <time>2013-03-10T15:10:50Z</time>
      </trkpt>
      <trkpt lat="43.84002" lon="7.2502">
        <ele>554</ele>
        <time>2013-03-10T15:10:53Z</time>
      </trkpt>
      <trkpt lat="43.84003" lon="7.25016">
        <ele>554</ele>
        <time>2013-03-10T15:11:04Z</time>
      </trkpt>
      <trkpt lat="43.8401" lon="7.25">
        <ele>554</ele>
        <time>2013-03-10T15:11:09Z</time>
      </trkpt>
      <trkpt lat="43.84015" lon="7.2499">
        <ele>554</ele>
        <time>2013-03-10T15:11:14Z</time>
      </trkpt>
      <trkpt lat="43.84012" lon="7.24916">
        <ele>562</ele>
        <time>2013-03-10T15:12:28Z</time>
      </trkpt>
      <trkpt lat="43.84011" lon="7.2491">
        <ele>562</ele>
        <time>2013-03-10T15:12:30Z</time>
      </trkpt>
      <trkpt lat="43.84007" lon="7.24888">
        <ele>562</ele>
        <time>2013-03-10T15:12:36Z</time>
      </trkpt>
      <trkpt lat="43.84004" lon="7.24873">
        <ele>562</ele>
        <time>2013-03-10T15:12:41Z</time>
      </trkpt>
      <trkpt lat="43.84004" lon="7.24868">
        <ele>562</ele>
        <time>2013-03-10T15:12:44Z</time>
      </trkpt>
      <trkpt lat="43.84007" lon="7.24864">
        <ele>562</ele>
        <time>2013-03-10T15:12:46Z</time>
      </trkpt>
      <trkpt lat="43.84013" lon="7.24847">
        <ele>562</ele>
        <time>2013-03-10T15:12:52Z</time>
      </trkpt>
      <trkpt lat="43.84016" lon="7.24834">
        <ele>562</ele>
        <time>2013-03-10T15:12:57Z</time>
      </trkpt>
      <trkpt lat="43.84017" lon="7.24829">
        <ele>562</ele>
        <time>2013-03-10T15:13:01Z</time>
      </trkpt>
      <trkpt lat="43.84016" lon="7.24826">
        <ele>562</ele>
        <time>2013-03-10T15:13:29Z</time>
      </trkpt>
      <trkpt lat="43.84015" lon="7.24811">
        <ele>562</ele>
        <time>2013-03-10T15:13:33Z</time>
      </trkpt>
      <trkpt lat="43.84015" lon="7.24808">
        <ele>561</ele>
        <time>2013-03-10T15:13:34Z</time>
      </trkpt>
      <trkpt lat="43.84015" lon="7.24806">
        <ele>561</ele>
        <time>2013-03-10T15:13:35Z</time>
      </trkpt>
      <trkpt lat="43.84016" lon="7.24805">
        <ele>560</ele>
        <time>2013-03-10T15:13:36Z</time>
      </trkpt>
      <trkpt lat="43.84017" lon="7.24805">
        <ele>560</ele>
        <time>2013-03-10T15:13:37Z</time>
      </trkpt>
      <trkpt lat="43.84022" lon="7.2481">
        <ele>560</ele>
        <time>2013-03-10T15:13:41Z</time>
      </trkpt>
      <trkpt lat="43.84022" lon="7.2481">
        <ele>560</ele>
        <time>2013-03-10T15:13:42Z</time>
      </trkpt>
      <trkpt lat="43.84016" lon="7.24823">
        <ele>558</ele>
        <time>2013-03-10T15:14:24Z</time>
      </trkpt>
      <trkpt lat="43.84016" lon="7.24824">
        <ele>558</ele>
        <time>2013-03-10T15:14:25Z</time>
      </trkpt>
      <trkpt lat="43.84016" lon="7.24826">
        <ele>559</ele>
        <time>2013-03-10T15:14:26Z</time>
      </trkpt>
      <trkpt lat="43.84016" lon="7.24827">
        <ele>559</ele>
        <time>2013-03-10T15:14:27Z</time>
      </trkpt>
      <trkpt lat="43.84016" lon="7.24828">
        <ele>560</ele>
        <time>2013-03-10T15:14:28Z</time>
      </trkpt>
      <trkpt lat="43.84016" lon="7.2483">
        <ele>560</ele>
        <time>2013-03-10T15:14:29Z</time>
      </trkpt>
      <trkpt lat="43.84017" lon="7.24832">
        <ele>560</ele>
        <time>2013-03-10T15:14:32Z</time>
      </trkpt>
      <trkpt lat="43.84018" lon="7.24833">
        <ele>560</ele>
        <time>2013-03-10T15:14:48Z</time>
      </trkpt>
      <trkpt lat="43.84019" lon="7.24832">
        <ele>560</ele>
        <time>2013-03-10T15:14:50Z</time>
      </trkpt>
      <trkpt lat="43.84021" lon="7.24851">
        <ele>562</ele>
        <time>2013-03-10T15:15:17Z</time>
      </trkpt>
      <trkpt lat="43.8402" lon="7.24857">
        <ele>563</ele>
        <time>2013-03-10T15:15:20Z</time>
      </trkpt>
      <trkpt lat="43.8402" lon="7.24858">
        <ele>563</ele>
        <time>2013-03-10T15:15:21Z</time>
      </trkpt>
      <trkpt lat="43.8402" lon="7.24859">
        <ele>563</ele>
        <time>2013-03-10T15:15:22Z</time>
      </trkpt>
      <trkpt lat="43.84022" lon="7.24856">
        <ele>565</ele>
        <time>2013-03-10T15:16:38Z</time>
      </trkpt>
      <trkpt lat="43.84023" lon="7.2485">
        <ele>565</ele>
        <time>2013-03-10T15:16:41Z</time>
      </trkpt>
      <trkpt lat="43.84023" lon="7.24847">
        <ele>565</ele>
        <time>2013-03-10T15:16:43Z</time>
      </trkpt>
      <trkpt lat="43.84022" lon="7.24841">
        <ele>565</ele>
        <time>2013-03-10T15:16:48Z</time>
      </trkpt>
      <trkpt lat="43.84082" lon="7.24932">
        <ele>582</ele>
        <time>2013-03-10T15:22:51Z</time>
      </trkpt>
      <trkpt lat="43.84086" lon="7.24934">
        <ele>582</ele>
        <time>2013-03-10T15:22:55Z</time>
      </trkpt>
      <trkpt lat="43.8409" lon="7.24936">
        <ele>582</ele>
        <time>2013-03-10T15:22:58Z</time>
      </trkpt>
      <trkpt lat="43.84099" lon="7.24942">
        <ele>582</ele>
        <time>2013-03-10T15:23:05Z</time>
      </trkpt>
      <trkpt lat="43.841" lon="7.24943">
        <ele>583</ele>
        <time>2013-03-10T15:23:06Z</time>
      </trkpt>
      <trkpt lat="43.841" lon="7.24943">
        <ele>583</ele>
        <time>2013-03-10T15:23:07Z</time>
      </trkpt>
      <trkpt lat="43.84101" lon="7.24944">
        <ele>584</ele>
        <time>2013-03-10T15:23:08Z</time>
      </trkpt>
      <trkpt lat="43.84103" lon="7.24945">
        <ele>584</ele>
        <time>2013-03-10T15:23:09Z</time>
      </trkpt>
      <trkpt lat="43.84106" lon="7.24947">
        <ele>584</ele>
        <time>2013-03-10T15:23:13Z</time>
      </trkpt>
      <trkpt lat="43.84106" lon="7.24947">
        <ele>584</ele>
        <time>2013-03-10T15:23:14Z</time>
      </trkpt>
      <trkpt lat="43.84108" lon="7.24947">
        <ele>584</ele>
        <time>2013-03-10T15:23:17Z</time>
      </trkpt>
      <trkpt lat="43.8411" lon="7.24949">
        <ele>584</ele>
        <time>2013-03-10T15:23:19Z</time>
      </trkpt>
      <trkpt lat="43.84116" lon="7.24951">
        <ele>584</ele>
        <time>2013-03-10T15:23:22Z</time>
      </trkpt>
      <trkpt lat="43.84118" lon="7.24952">
        <ele>585</ele>
        <time>2013-03-10T15:23:23Z</time>
      </trkpt>
      <trkpt lat="43.8412" lon="7.24952">
        <ele>585</ele>
        <time>2013-03-10T15:23:24Z</time>
      </trkpt>
      <trkpt lat="43.84122" lon="7.24952">
        <ele>586</ele>
        <time>2013-03-10T15:23:25Z</time>
      </trkpt>
      <trkpt lat="43.84124" lon="7.24953">
        <ele>586</ele>
        <time>2013-03-10T15:23:26Z</time>
      </trkpt>
      <trkpt lat="43.84131" lon="7.24955">
        <ele>586</ele>
        <time>2013-03-10T15:23:30Z</time>
      </trkpt>
      <trkpt lat="43.84142" lon="7.24959">
        <ele>586</ele>
        <time>2013-03-10T15:23:35Z</time>
      </trkpt>
      <trkpt lat="43.84154" lon="7.24963">
        <ele>586</ele>
        <time>2013-03-10T15:23:40Z</time>
      </trkpt>
      <trkpt lat="43.84156" lon="7.24963">
        <ele>587</ele>
        <time>2013-03-10T15:23:41Z</time>
      </trkpt>
      <trkpt lat="43.84159" lon="7.24964">
        <ele>587</ele>
        <time>2013-03-10T15:23:42Z</time>
      </trkpt>
      <trkpt lat="43.84161" lon="7.24964">
        <ele>588</ele>
        <time>2013-03-10T15:23:43Z</time>
      </trkpt>
      <trkpt lat="43.84164" lon="7.24965">
        <ele>588</ele>
        <time>2013-03-10T15:23:44Z</time>
      </trkpt>
      <trkpt lat="43.84175" lon="7.24968">
        <ele>588</ele>
        <time>2013-03-10T15:23:48Z</time>
      </trkpt>
      <trkpt lat="43.84186" lon="7.24971">
        <ele>588</ele>
        <time>2013-03-10T15:23:53Z</time>
      </trkpt>
      <trkpt lat="43.84191" lon="7.24972">
        <ele>589</ele>
        <time>2013-03-10T15:23:56Z</time>
      </trkpt>
      <trkpt lat="43.84192" lon="7.24971">
        <ele>589</ele>
        <time>2013-03-10T15:23:57Z</time>
      </trkpt>
      <trkpt lat="43.84192" lon="7.24971">
        <ele>590</ele>
        <time>2013-03-10T15:23:58Z</time>
      </trkpt>
      <trkpt lat="43.84193" lon="7.24972">
        <ele>590</ele>
        <time>2013-03-10T15:23:59Z</time>
      </trkpt>
      <trkpt lat="43.84198" lon="7.24975">
        <ele>590</ele>
        <time>2013-03-10T15:24:05Z</time>
      </trkpt>
      <trkpt lat="43.842" lon="7.24976">
        <ele>590</ele>
        <time>2013-03-10T15:24:06Z</time>
      </trkpt>
      <trkpt lat="43.84213" lon="7.2498">
        <ele>590</ele>
        <time>2013-03-10T15:24:14Z</time>
      </trkpt>
      <trkpt lat="43.84222" lon="7.24983">
        <ele>590</ele>
        <time>2013-03-10T15:24:19Z</time>
      </trkpt>
      <trkpt lat="43.84232" lon="7.24985">
        <ele>590</ele>
        <time>2013-03-10T15:24:24Z</time>
      </trkpt>
      <trkpt lat="43.84235" lon="7.24986">
        <ele>591</ele>
        <time>2013-03-10T15:24:26Z</time>
      </trkpt>
      <trkpt lat="43.84236" lon="7.24986">
        <ele>591</ele>
        <time>2013-03-10T15:24:27Z</time>
      </trkpt>
      <trkpt lat="43.84238" lon="7.24986">
        <ele>591</ele>
        <time>2013-03-10T15:24:28Z</time>
      </trkpt>
      <trkpt lat="43.84239" lon="7.24987">
        <ele>592</ele>
        <time>2013-03-10T15:24:29Z</time>
      </trkpt>
      <trkpt lat="43.84241" lon="7.24988">
        <ele>592</ele>
        <time>2013-03-10T15:24:30Z</time>
      </trkpt>
      <trkpt lat="43.8425" lon="7.24993">
        <ele>592</ele>
        <time>2013-03-10T15:24:35Z</time>
      </trkpt>
      <trkpt lat="43.84264" lon="7.24997">
        <ele>592</ele>
        <time>2013-03-10T15:24:42Z</time>
      </trkpt>
      <trkpt lat="43.84276" lon="7.24998">
        <ele>592</ele>
        <time>2013-03-10T15:24:48Z</time>
      </trkpt>
      <trkpt lat="43.84287" lon="7.24999">
        <ele>592</ele>
        <time>2013-03-10T15:24:53Z</time>
      </trkpt>
      <trkpt lat="43.84288" lon="7.24998">
        <ele>592</ele>
        <time>2013-03-10T15:24:54Z</time>
      </trkpt>
      <trkpt lat="43.84288" lon="7.24998">
        <ele>591</ele>
        <time>2013-03-10T15:24:55Z</time>
      </trkpt>
      <trkpt lat="43.84309" lon="7.2499">
        <ele>590</ele>
        <time>2013-03-10T15:25:36Z</time>
      </trkpt>
      <trkpt lat="43.84311" lon="7.2499">
        <ele>590</ele>
        <time>2013-03-10T15:25:37Z</time>
      </trkpt>
      <trkpt lat="43.84313" lon="7.24991">
        <ele>591</ele>
        <time>2013-03-10T15:25:38Z</time>
      </trkpt>
      <trkpt lat="43.84316" lon="7.24991">
        <ele>591</ele>
        <time>2013-03-10T15:25:39Z</time>
      </trkpt>
      <trkpt lat="43.84319" lon="7.24991">
        <ele>591</ele>
        <time>2013-03-10T15:25:40Z</time>
      </trkpt>
      <trkpt lat="43.84321" lon="7.2499">
        <ele>592</ele>
        <time>2013-03-10T15:25:41Z</time>
      </trkpt>
      <trkpt lat="43.84322" lon="7.2499">
        <ele>592</ele>
        <time>2013-03-10T15:25:42Z</time>
      </trkpt>
      <trkpt lat="43.84324" lon="7.2499">
        <ele>592</ele>
        <time>2013-03-10T15:25:43Z</time>
      </trkpt>
      <trkpt lat="43.84332" lon="7.24985">
        <ele>592</ele>
        <time>2013-03-10T15:25:50Z</time>
      </trkpt>
      <trkpt lat="43.84338" lon="7.24984">
        <ele>593</ele>
        <time>2013-03-10T15:25:55Z</time>
      </trkpt>
      <trkpt lat="43.84338" lon="7.24984">
        <ele>593</ele>
        <time>2013-03-10T15:25:56Z</time>
      </trkpt>
      <trkpt lat="43.84353" lon="7.24983">
        <ele>594</ele>
        <time>2013-03-10T15:26:14Z</time>
      </trkpt>
      <trkpt lat="43.84358" lon="7.24984">
        <ele>594</ele>
        <time>2013-03-10T15:26:17Z</time>
      </trkpt>
      <trkpt lat="43.84366" lon="7.24988">
        <ele>595</ele>
        <time>2013-03-10T15:26:22Z</time>
      </trkpt>
      <trkpt lat="43.84368" lon="7.24988">
        <ele>595</ele>
        <time>2013-03-10T15:26:23Z</time>
      </trkpt>
      <trkpt lat="43.84369" lon="7.24988">
        <ele>595</ele>
        <time>2013-03-10T15:26:24Z</time>
      </trkpt>
      <trkpt lat="43.84369" lon="7.24988">
        <ele>596</ele>
        <time>2013-03-10T15:26:25Z</time>
      </trkpt>
      <trkpt lat="43.84387" lon="7.24935">
        <ele>604</ele>
        <time>2013-03-10T15:28:07Z</time>
      </trkpt>
      <trkpt lat="43.84388" lon="7.24935">
        <ele>604</ele>
        <time>2013-03-10T15:28:08Z</time>
      </trkpt>
      <trkpt lat="43.8439" lon="7.24932">
        <ele>604</ele>
        <time>2013-03-10T15:28:13Z</time>
      </trkpt>
      <trkpt lat="43.84392" lon="7.24932">
        <ele>605</ele>
        <time>2013-03-10T15:28:15Z</time>
      </trkpt>
      <trkpt lat="43.84393" lon="7.24932">
        <ele>605</ele>
        <time>2013-03-10T15:28:16Z</time>
      </trkpt>
      <trkpt lat="43.84393" lon="7.24932">
        <ele>606</ele>
        <time>2013-03-10T15:28:17Z</time>
      </trkpt>
      <trkpt lat="43.84402" lon="7.24921">
        <ele>607</ele>
        <time>2013-03-10T15:28:41Z</time>
      </trkpt>
      <trkpt lat="43.84403" lon="7.24918">
        <ele>607</ele>
        <time>2013-03-10T15:28:42Z</time>
      </trkpt>
      <trkpt lat="43.84409" lon="7.24909">
        <ele>607</ele>
        <time>2013-03-10T15:28:46Z</time>
      </trkpt>
      <trkpt lat="43.84415" lon="7.24905">
        <ele>607</ele>
        <time>2013-03-10T15:28:50Z</time>
      </trkpt>
      <trkpt lat="43.84418" lon="7.24904">
        <ele>607</ele>
        <time>2013-03-10T15:28:52Z</time>
      </trkpt>
      <trkpt lat="43.8442" lon="7.24904">
        <ele>607</ele>
        <time>2013-03-10T15:28:53Z</time>
      </trkpt>
      <trkpt lat="43.84421" lon="7.24903">
        <ele>607</ele>
        <time>2013-03-10T15:28:54Z</time>
      </trkpt>
      <trkpt lat="43.84423" lon="7.24902">
        <ele>608</ele>
        <time>2013-03-10T15:28:55Z</time>
      </trkpt>
      <trkpt lat="43.84424" lon="7.24902">
        <ele>609</ele>
        <time>2013-03-10T15:28:56Z</time>
      </trkpt>
      <trkpt lat="43.84431" lon="7.24897">
        <ele>609</ele>
        <time>2013-03-10T15:29:02Z</time>
      </trkpt>
      <trkpt lat="43.84434" lon="7.24896">
        <ele>609</ele>
        <time>2013-03-10T15:29:05Z</time>
      </trkpt>
      <trkpt lat="43.84435" lon="7.24897">
        <ele>609</ele>
        <time>2013-03-10T15:29:06Z</time>
      </trkpt>
      <trkpt lat="43.84436" lon="7.24897">
        <ele>610</ele>
        <time>2013-03-10T15:29:07Z</time>
      </trkpt>
      <trkpt lat="43.84438" lon="7.24897">
        <ele>610</ele>
        <time>2013-03-10T15:29:08Z</time>
      </trkpt>
      <trkpt lat="43.84439" lon="7.24897">
        <ele>611</ele>
        <time>2013-03-10T15:29:09Z</time>
      </trkpt>
      <trkpt lat="43.84439" lon="7.24896">
        <ele>611</ele>
        <time>2013-03-10T15:29:10Z</time>
      </trkpt>
      <trkpt lat="43.84434" lon="7.24892">
        <ele>611</ele>
        <time>2013-03-10T15:29:35Z</time>
      </trkpt>
      <trkpt lat="43.84434" lon="7.24892">
        <ele>611</ele>
        <time>2013-03-10T15:29:36Z</time>
      </trkpt>
      <trkpt lat="43.84433" lon="7.24884">
        <ele>611</ele>
        <time>2013-03-10T15:29:47Z</time>
      </trkpt>
      <trkpt lat="43.84433" lon="7.24882">
        <ele>611</ele>
        <time>2013-03-10T15:29:48Z</time>
      </trkpt>
      <trkpt lat="43.84434" lon="7.24879">
        <ele>611</ele>
        <time>2013-03-10T15:29:51Z</time>
      </trkpt>
      <trkpt lat="43.8444" lon="7.24885">
        <ele>609</ele>
        <time>2013-03-10T15:30:19Z</time>
      </trkpt>
      <trkpt lat="43.84441" lon="7.24885">
        <ele>610</ele>
        <time>2013-03-10T15:30:20Z</time>
      </trkpt>
      <trkpt lat="43.84442" lon="7.24886">
        <ele>610</ele>
        <time>2013-03-10T15:30:21Z</time>
      </trkpt>
      <trkpt lat="43.84443" lon="7.24886">
        <ele>610</ele>
        <time>2013-03-10T15:30:22Z</time>
      </trkpt>
      <trkpt lat="43.84444" lon="7.24887">
        <ele>610</ele>
        <time>2013-03-10T15:30:24Z</time>
      </trkpt>
      <trkpt lat="43.84447" lon="7.24887">
        <ele>610</ele>
        <time>2013-03-10T15:30:28Z</time>
      </trkpt>
      <trkpt lat="43.8446" lon="7.24883">
        <ele>612</ele>
        <time>2013-03-10T15:30:45Z</time>
      </trkpt>
      <trkpt lat="43.8446" lon="7.24882">
        <ele>612</ele>
        <time>2013-03-10T15:30:46Z</time>
      </trkpt>
      <trkpt lat="43.84466" lon="7.24879">
        <ele>612</ele>
        <time>2013-03-10T15:30:51Z</time>
      </trkpt>
      <trkpt lat="43.84469" lon="7.24879">
        <ele>612</ele>
        <time>2013-03-10T15:30:53Z</time>
      </trkpt>
      <trkpt lat="43.84472" lon="7.24876">
        <ele>612</ele>
        <time>2013-03-10T15:30:58Z</time>
      </trkpt>
      <trkpt lat="43.84476" lon="7.24867">
        <ele>612</ele>
        <time>2013-03-10T15:31:06Z</time>
      </trkpt>
      <trkpt lat="43.84476" lon="7.24861">
        <ele>612</ele>
        <time>2013-03-10T15:31:11Z</time>
      </trkpt>
      <trkpt lat="43.84475" lon="7.24854">
        <ele>612</ele>
        <time>2013-03-10T15:31:15Z</time>
      </trkpt>
      <trkpt lat="43.84474" lon="7.24853">
        <ele>612</ele>
        <time>2013-03-10T15:31:17Z</time>
      </trkpt>
      <trkpt lat="43.84473" lon="7.24842">
        <ele>612</ele>
        <time>2013-03-10T15:31:23Z</time>
      </trkpt>
      <trkpt lat="43.84474" lon="7.24838">
        <ele>612</ele>
        <time>2013-03-10T15:31:26Z</time>
      </trkpt>
      <trkpt lat="43.84475" lon="7.24836">
        <ele>613</ele>
        <time>2013-03-10T15:31:27Z</time>
      </trkpt>
      <trkpt lat="43.84476" lon="7.24836">
        <ele>613</ele>
        <time>2013-03-10T15:31:28Z</time>
      </trkpt>
      <trkpt lat="43.84477" lon="7.24836">
        <ele>614</ele>
        <time>2013-03-10T15:31:29Z</time>
      </trkpt>
      <trkpt lat="43.84478" lon="7.24836">
        <ele>614</ele>
        <time>2013-03-10T15:31:30Z</time>
      </trkpt>
      <trkpt lat="43.8448" lon="7.24837">
        <ele>615</ele>
        <time>2013-03-10T15:31:31Z</time>
      </trkpt>
      <trkpt lat="43.84487" lon="7.2484">
        <ele>615</ele>
        <time>2013-03-10T15:31:38Z</time>
      </trkpt>
      <trkpt lat="43.84494" lon="7.2484">
        <ele>615</ele>
        <time>2013-03-10T15:31:45Z</time>
      </trkpt>
      <trkpt lat="43.84498" lon="7.24839">
        <ele>615</ele>
        <time>2013-03-10T15:31:48Z</time>
      </trkpt>
      <trkpt lat="43.84499" lon="7.24839">
        <ele>615</ele>
        <time>2013-03-10T15:31:49Z</time>
      </trkpt>
      <trkpt lat="43.845" lon="7.24839">
        <ele>616</ele>
        <time>2013-03-10T15:31:50Z</time>
      </trkpt>
      <trkpt lat="43.84501" lon="7.24839">
        <ele>616</ele>
        <time>2013-03-10T15:31:51Z</time>
      </trkpt>
      <trkpt lat="43.84502" lon="7.2484">
        <ele>617</ele>
        <time>2013-03-10T15:31:52Z</time>
      </trkpt>
      <trkpt lat="43.84504" lon="7.24841">
        <ele>617</ele>
        <time>2013-03-10T15:31:54Z</time>
      </trkpt>
      <trkpt lat="43.84507" lon="7.24845">
        <ele>617</ele>
        <time>2013-03-10T15:31:58Z</time>
      </trkpt>
      <trkpt lat="43.84511" lon="7.24853">
        <ele>617</ele>
        <time>2013-03-10T15:32:05Z</time>
      </trkpt>
      <trkpt lat="43.84512" lon="7.24854">
        <ele>617</ele>
        <time>2013-03-10T15:32:07Z</time>
      </trkpt>
      <trkpt lat="43.84523" lon="7.24862">
        <ele>617</ele>
        <time>2013-03-10T15:32:23Z</time>
      </trkpt>
      <trkpt lat="43.84524" lon="7.24863">
        <ele>617</ele>
        <time>2013-03-10T15:32:25Z</time>
      </trkpt>
      <trkpt lat="43.84525" lon="7.24863">
        <ele>617</ele>
        <time>2013-03-10T15:32:26Z</time>
      </trkpt>
      <trkpt lat="43.84526" lon="7.24863">
        <ele>618</ele>
        <time>2013-03-10T15:32:27Z</time>
      </trkpt>
      <trkpt lat="43.84527" lon="7.24863">
        <ele>618</ele>
        <time>2013-03-10T15:32:28Z</time>
      </trkpt>
      <trkpt lat="43.84528" lon="7.24863">
        <ele>618</ele>
        <time>2013-03-10T15:32:29Z</time>
      </trkpt>
      <trkpt lat="43.84529" lon="7.24863">
        <ele>619</ele>
        <time>2013-03-10T15:32:30Z</time>
      </trkpt>
      <trkpt lat="43.8453" lon="7.24863">
        <ele>619</ele>
        <time>2013-03-10T15:32:31Z</time>
      </trkpt>
      <trkpt lat="43.84531" lon="7.24863">
        <ele>619</ele>
        <time>2013-03-10T15:32:33Z</time>
      </trkpt>
      <trkpt lat="43.84535" lon="7.24862">
        <ele>620</ele>
        <time>2013-03-10T15:32:38Z</time>
      </trkpt>
      <trkpt lat="43.84536" lon="7.24861">
        <ele>620</ele>
        <time>2013-03-10T15:32:39Z</time>
      </trkpt>
      <trkpt lat="43.84537" lon="7.2486">
        <ele>620</ele>
        <time>2013-03-10T15:32:40Z</time>
      </trkpt>
      <trkpt lat="43.84538" lon="7.24859">
        <ele>621</ele>
        <time>2013-03-10T15:32:41Z</time>
      </trkpt>
      <trkpt lat="43.84541" lon="7.24849">
        <ele>621</ele>
        <time>2013-03-10T15:32:46Z</time>
      </trkpt>
      <trkpt lat="43.84543" lon="7.24841">
        <ele>621</ele>
        <time>2013-03-10T15:32:52Z</time>
      </trkpt>
      <trkpt lat="43.84544" lon="7.24839">
        <ele>621</ele>
        <time>2013-03-10T15:32:54Z</time>
      </trkpt>
      <trkpt lat="43.8455" lon="7.24841">
        <ele>623</ele>
        <time>2013-03-10T15:33:02Z</time>
      </trkpt>
      <trkpt lat="43.84552" lon="7.24843">
        <ele>623</ele>
        <time>2013-03-10T15:33:04Z</time>
      </trkpt>
      <trkpt lat="43.84554" lon="7.24844">
        <ele>623</ele>
        <time>2013-03-10T15:33:07Z</time>
      </trkpt>
      <trkpt lat="43.84558" lon="7.24848">
        <ele>623</ele>
        <time>2013-03-10T15:33:13Z</time>
      </trkpt>
      <trkpt lat="43.8456" lon="7.2485">
        <ele>623</ele>
        <time>2013-03-10T15:33:15Z</time>
      </trkpt>
      <trkpt lat="43.84566" lon="7.24853">
        <ele>623</ele>
        <time>2013-03-10T15:33:19Z</time>
      </trkpt>
      <trkpt lat="43.84567" lon="7.24853">
        <ele>624</ele>
        <time>2013-03-10T15:33:20Z</time>
      </trkpt>
      <trkpt lat="43.84568" lon="7.24854">
        <ele>624</ele>
        <time>2013-03-10T15:33:21Z</time>
      </trkpt>
      <trkpt lat="43.8457" lon="7.24855">
        <ele>625</ele>
        <time>2013-03-10T15:33:22Z</time>
      </trkpt>
      <trkpt lat="43.84571" lon="7.24855">
        <ele>625</ele>
        <time>2013-03-10T15:33:23Z</time>
      </trkpt>
      <trkpt lat="43.84577" lon="7.24854">
        <ele>625</ele>
        <time>2013-03-10T15:33:26Z</time>
      </trkpt>
      <trkpt lat="43.84581" lon="7.24855">
        <ele>626</ele>
        <time>2013-03-10T15:33:28Z</time>
      </trkpt>
      <trkpt lat="43.84582" lon="7.24855">
        <ele>626</ele>
        <time>2013-03-10T15:33:29Z</time>
      </trkpt>
      <trkpt lat="43.84584" lon="7.24855">
        <ele>627</ele>
        <time>2013-03-10T15:33:30Z</time>
      </trkpt>
      <trkpt lat="43.84585" lon="7.24856">
        <ele>627</ele>
        <time>2013-03-10T15:33:31Z</time>
      </trkpt>
      <trkpt lat="43.84587" lon="7.24855">
        <ele>627</ele>
        <time>2013-03-10T15:33:32Z</time>
      </trkpt>
      <trkpt lat="43.84588" lon="7.24855">
        <ele>627</ele>
        <time>2013-03-10T15:33:33Z</time>
      </trkpt>
      <trkpt lat="43.84593" lon="7.24851">
        <ele>627</ele>
        <time>2013-03-10T15:33:38Z</time>
      </trkpt>
      <trkpt lat="43.84594" lon="7.24849">
        <ele>627</ele>
        <time>2013-03-10T15:33:39Z</time>
      </trkpt>
      <trkpt lat="43.84597" lon="7.24845">
        <ele>628</ele>
        <time>2013-03-10T15:33:42Z</time>
      </trkpt>
      <trkpt lat="43.84598" lon="7.24844">
        <ele>628</ele>
        <time>2013-03-10T15:33:43Z</time>
      </trkpt>
      <trkpt lat="43.84599" lon="7.24843">
        <ele>629</ele>
        <time>2013-03-10T15:33:44Z</time>
      </trkpt>
      <trkpt lat="43.846" lon="7.24842">
        <ele>629</ele>
        <time>2013-03-10T15:33:45Z</time>
      </trkpt>
      <trkpt lat="43.84601" lon="7.24841">
        <ele>630</ele>
        <time>2013-03-10T15:33:46Z</time>
      </trkpt>
      <trkpt lat="43.84607" lon="7.24837">
        <ele>630</ele>
        <time>2013-03-10T15:33:51Z</time>
      </trkpt>
      <trkpt lat="43.8461" lon="7.24835">
        <ele>630</ele>
        <time>2013-03-10T15:33:53Z</time>
      </trkpt>
      <trkpt lat="43.84611" lon="7.24834">
        <ele>631</ele>
        <time>2013-03-10T15:33:54Z</time>
      </trkpt>
      <trkpt lat="43.84612" lon="7.24833">
        <ele>631</ele>
        <time>2013-03-10T15:33:55Z</time>
      </trkpt>
      <trkpt lat="43.84613" lon="7.24832">
        <ele>631</ele>
        <time>2013-03-10T15:33:56Z</time>
      </trkpt>
      <trkpt lat="43.84615" lon="7.24831">
        <ele>632</ele>
        <time>2013-03-10T15:33:57Z</time>
      </trkpt>
      <trkpt lat="43.8462" lon="7.24828">
        <ele>632</ele>
        <time>2013-03-10T15:34:01Z</time>
      </trkpt>
      <trkpt lat="43.8463" lon="7.24828">
        <ele>632</ele>
        <time>2013-03-10T15:34:08Z</time>
      </trkpt>
      <trkpt lat="43.84631" lon="7.24828">
        <ele>632</ele>
        <time>2013-03-10T15:34:09Z</time>
      </trkpt>
      <trkpt lat="43.84633" lon="7.24828">
        <ele>633</ele>
        <time>2013-03-10T15:34:10Z</time>
      </trkpt>
      <trkpt lat="43.84634" lon="7.24828">
        <ele>633</ele>
        <time>2013-03-10T15:34:11Z</time>
      </trkpt>
      <trkpt lat="43.84636" lon="7.24827">
        <ele>633</ele>
        <time>2013-03-10T15:34:12Z</time>
      </trkpt>
      <trkpt lat="43.84637" lon="7.24826">
        <ele>634</ele>
        <time>2013-03-10T15:34:13Z</time>
      </trkpt>
      <trkpt lat="43.84642" lon="7.24824">
        <ele>634</ele>
        <time>2013-03-10T15:34:16Z</time>
      </trkpt>
      <trkpt lat="43.84652" lon="7.24818">
        <ele>634</ele>
        <time>2013-03-10T15:34:23Z</time>
      </trkpt>
      <trkpt lat="43.84653" lon="7.24817">
        <ele>634</ele>
        <time>2013-03-10T15:34:24Z</time>
      </trkpt>
      <trkpt lat="43.84657" lon="7.24815">
        <ele>634</ele>
        <time>2013-03-10T15:34:26Z</time>
      </trkpt>
      <trkpt lat="43.84659" lon="7.24815">
        <ele>635</ele>
        <time>2013-03-10T15:34:27Z</time>
      </trkpt>
      <trkpt lat="43.8466" lon="7.24814">
        <ele>635</ele>
        <time>2013-03-10T15:34:28Z</time>
      </trkpt>
      <trkpt lat="43.84662" lon="7.24815">
        <ele>635</ele>
        <time>2013-03-10T15:34:29Z</time>
      </trkpt>
      <trkpt lat="43.84664" lon="7.24815">
        <ele>636</ele>
        <time>2013-03-10T15:34:30Z</time>
      </trkpt>
      <trkpt lat="43.84666" lon="7.24818">
        <ele>636</ele>
        <time>2013-03-10T15:34:32Z</time>
      </trkpt>
      <trkpt lat="43.84667" lon="7.24819">
        <ele>636</ele>
        <time>2013-03-10T15:34:33Z</time>
      </trkpt>
      <trkpt lat="43.84671" lon="7.24825">
        <ele>636</ele>
        <time>2013-03-10T15:34:37Z</time>
      </trkpt>
      <trkpt lat="43.84673" lon="7.24827">
        <ele>636</ele>
        <time>2013-03-10T15:34:39Z</time>
      </trkpt>
      <trkpt lat="43.8468" lon="7.24834">
        <ele>636</ele>
        <time>2013-03-10T15:34:45Z</time>
      </trkpt>
      <trkpt lat="43.84681" lon="7.24834">
        <ele>637</ele>
        <time>2013-03-10T15:34:46Z</time>
      </trkpt>
      <trkpt lat="43.84682" lon="7.24835">
        <ele>637</ele>
        <time>2013-03-10T15:34:47Z</time>
      </trkpt>
      <trkpt lat="43.84683" lon="7.24835">
        <ele>638</ele>
        <time>2013-03-10T15:34:48Z</time>
      </trkpt>
      <trkpt lat="43.84684" lon="7.24836">
        <ele>638</ele>
        <time>2013-03-10T15:34:49Z</time>
      </trkpt>
      <trkpt lat="43.84687" lon="7.24837">
        <ele>638</ele>
        <time>2013-03-10T15:34:51Z</time>
      </trkpt>
      <trkpt lat="43.84688" lon="7.24837">
        <ele>638</ele>
        <time>2013-03-10T15:34:52Z</time>
      </trkpt>
      <trkpt lat="43.84694" lon="7.24839">
        <ele>638</ele>
        <time>2013-03-10T15:34:59Z</time>
      </trkpt>
      <trkpt lat="43.84698" lon="7.24846">
        <ele>638</ele>
        <time>2013-03-10T15:35:05Z</time>
      </trkpt>
      <trkpt lat="43.84698" lon="7.24847">
        <ele>638</ele>
        <time>2013-03-10T15:35:06Z</time>
      </trkpt>
      <trkpt lat="43.84698" lon="7.2485">
        <ele>638</ele>
        <time>2013-03-10T15:35:09Z</time>
      </trkpt>
      <trkpt lat="43.84697" lon="7.24852">
        <ele>638</ele>
        <time>2013-03-10T15:35:11Z</time>
      </trkpt>
      <trkpt lat="43.84697" lon="7.24853">
        <ele>639</ele>
        <time>2013-03-10T15:35:12Z</time>
      </trkpt>
      <trkpt lat="43.84696" lon="7.24854">
        <ele>639</ele>
        <time>2013-03-10T15:35:13Z</time>
      </trkpt>
      <trkpt lat="43.84696" lon="7.24855">
        <ele>640</ele>
        <time>2013-03-10T15:35:14Z</time>
      </trkpt>
      <trkpt lat="43.84695" lon="7.24856">
        <ele>640</ele>
        <time>2013-03-10T15:35:15Z</time>
      </trkpt>
      <trkpt lat="43.84695" lon="7.2486">
        <ele>640</ele>
        <time>2013-03-10T15:35:19Z</time>
      </trkpt>
      <trkpt lat="43.84695" lon="7.2486">
        <ele>640</ele>
        <time>2013-03-10T15:35:20Z</time>
      </trkpt>
      <trkpt lat="43.84694" lon="7.24871">
        <ele>640</ele>
        <time>2013-03-10T15:37:41Z</time>
      </trkpt>
      <trkpt lat="43.84694" lon="7.24877">
        <ele>640</ele>
        <time>2013-03-10T15:37:43Z</time>
      </trkpt>
      <trkpt lat="43.84692" lon="7.2489">
        <ele>641</ele>
        <time>2013-03-10T15:37:48Z</time>
      </trkpt>
      <trkpt lat="43.84692" lon="7.24892">
        <ele>641</ele>
        <time>2013-03-10T15:37:49Z</time>
      </trkpt>
      <trkpt lat="43.84692" lon="7.24894">
        <ele>642</ele>
        <time>2013-03-10T15:37:50Z</time>
      </trkpt>
      <trkpt lat="43.84692" lon="7.24895">
        <ele>642</ele>
        <time>2013-03-10T15:37:51Z</time>
      </trkpt>
      <trkpt lat="43.84692" lon="7.24897">
        <ele>643</ele>
        <time>2013-03-10T15:37:52Z</time>
      </trkpt>
      <trkpt lat="43.84691" lon="7.24902">
        <ele>643</ele>
        <time>2013-03-10T15:37:55Z</time>
      </trkpt>
      <trkpt lat="43.84691" lon="7.24902">
        <ele>643</ele>
        <time>2013-03-10T15:37:56Z</time>
      </trkpt>
      <trkpt lat="43.84691" lon="7.24903">
        <ele>644</ele>
        <time>2013-03-10T15:37:57Z</time>
      </trkpt>
      <trkpt lat="43.84729" lon="7.25007">
        <ele>674</ele>
        <time>2013-03-10T15:41:19Z</time>
      </trkpt>
      <trkpt lat="43.84732" lon="7.2501">
        <ele>674</ele>
        <time>2013-03-10T15:41:22Z</time>
      </trkpt>
      <trkpt lat="43.84733" lon="7.2501">
        <ele>674</ele>
        <time>2013-03-10T15:41:25Z</time>
      </trkpt>
      <trkpt lat="43.84734" lon="7.25011">
        <ele>674</ele>
        <time>2013-03-10T15:41:36Z</time>
      </trkpt>
      <trkpt lat="43.84735" lon="7.25011">
        <ele>674</ele>
        <time>2013-03-10T15:41:37Z</time>
      </trkpt>
      <trkpt lat="43.84737" lon="7.25011">
        <ele>674</ele>
        <time>2013-03-10T15:41:39Z</time>
      </trkpt>
      <trkpt lat="43.84738" lon="7.25012">
        <ele>674</ele>
        <time>2013-03-10T15:41:42Z</time>
      </trkpt>
      <trkpt lat="43.84749" lon="7.25011">
        <ele>674</ele>
        <time>2013-03-10T15:41:58Z</time>
      </trkpt>
      <trkpt lat="43.8476" lon="7.25015">
        <ele>674</ele>
        <time>2013-03-10T15:42:04Z</time>
      </trkpt>
      <trkpt lat="43.84767" lon="7.2502">
        <ele>674</ele>
        <time>2013-03-10T15:42:10Z</time>
      </trkpt>
      <trkpt lat="43.84768" lon="7.25021">
        <ele>675</ele>
        <time>2013-03-10T15:42:11Z</time>
      </trkpt>
      <trkpt lat="43.84768" lon="7.25021">
        <ele>675</ele>
        <time>2013-03-10T15:42:12Z</time>
      </trkpt>
      <trkpt lat="43.84771" lon="7.25022">
        <ele>676</ele>
        <time>2013-03-10T15:43:04Z</time>
      </trkpt>
      <trkpt lat="43.84776" lon="7.25022">
        <ele>676</ele>
        <time>2013-03-10T15:43:06Z</time>
      </trkpt>
      <trkpt lat="43.84778" lon="7.25021">
        <ele>676</ele>
        <time>2013-03-10T15:43:09Z</time>
      </trkpt>
      <trkpt lat="43.84778" lon="7.2502">
        <ele>676</ele>
        <time>2013-03-10T15:43:57Z</time>
      </trkpt>
      <trkpt lat="43.84775" lon="7.25011">
        <ele>676</ele>
        <time>2013-03-10T15:44:01Z</time>
      </trkpt>
      <trkpt lat="43.8477" lon="7.25005">
        <ele>676</ele>
        <time>2013-03-10T15:44:03Z</time>
      </trkpt>
      <trkpt lat="43.84768" lon="7.25001">
        <ele>675</ele>
        <time>2013-03-10T15:44:04Z</time>
      </trkpt>
      <trkpt lat="43.84765" lon="7.24998">
        <ele>675</ele>
        <time>2013-03-10T15:44:05Z</time>
      </trkpt>
      <trkpt lat="43.84764" lon="7.24995">
        <ele>674</ele>
        <time>2013-03-10T15:44:06Z</time>
      </trkpt>
      <trkpt lat="43.84763" lon="7.24993">
        <ele>674</ele>
        <time>2013-03-10T15:44:07Z</time>
      </trkpt>
      <trkpt lat="43.84761" lon="7.24991">
        <ele>673</ele>
        <time>2013-03-10T15:44:08Z</time>
      </trkpt>
      <trkpt lat="43.8476" lon="7.24988">
        <ele>672</ele>
        <time>2013-03-10T15:44:09Z</time>
      </trkpt>
      <trkpt lat="43.84758" lon="7.24984">
        <ele>671</ele>
        <time>2013-03-10T15:44:10Z</time>
      </trkpt>
      <trkpt lat="43.84756" lon="7.24982">
        <ele>670</ele>
        <time>2013-03-10T15:44:11Z</time>
      </trkpt>
      <trkpt lat="43.84754" lon="7.2498">
        <ele>669</ele>
        <time>2013-03-10T15:44:12Z</time>
      </trkpt>
      <trkpt lat="43.84752" lon="7.24976">
        <ele>667</ele>
        <time>2013-03-10T15:44:13Z</time>
      </trkpt>
      <trkpt lat="43.8475" lon="7.24971">
        <ele>666</ele>
        <time>2013-03-10T15:44:14Z</time>
      </trkpt>
      <trkpt lat="43.84749" lon="7.24965">
        <ele>665</ele>
        <time>2013-03-10T15:44:15Z</time>
      </trkpt>
      <trkpt lat="43.84747" lon="7.24957">
        <ele>664</ele>
        <time>2013-03-10T15:44:16Z</time>
      </trkpt>
      <trkpt lat="43.84744" lon="7.24949">
        <ele>663</ele>
        <time>2013-03-10T15:44:17Z</time>
      </trkpt>
      <trkpt lat="43.84742" lon="7.24939">
        <ele>661</ele>
        <time>2013-03-10T15:44:18Z</time>
      </trkpt>
      <trkpt lat="43.84738" lon="7.24931">
        <ele>660</ele>
        <time>2013-03-10T15:44:19Z</time>
      </trkpt>
      <trkpt lat="43.84735" lon="7.24924">
        <ele>658</ele>
        <time>2013-03-10T15:44:20Z</time>
      </trkpt>
      <trkpt lat="43.84733" lon="7.24918">
        <ele>656</ele>
        <time>2013-03-10T15:44:21Z</time>
      </trkpt>
      <trkpt lat="43.84731" lon="7.24914">
        <ele>655</ele>
        <time>2013-03-10T15:44:22Z</time>
      </trkpt>
      <trkpt lat="43.84728" lon="7.24911">
        <ele>653</ele>
        <time>2013-03-10T15:44:23Z</time>
      </trkpt>
      <trkpt lat="43.84726" lon="7.24908">
        <ele>652</ele>
        <time>2013-03-10T15:44:24Z</time>
      </trkpt>
      <trkpt lat="43.84725" lon="7.24906">
        <ele>651</ele>
        <time>2013-03-10T15:44:25Z</time>
      </trkpt>
      <trkpt lat="43.84724" lon="7.24905">
        <ele>650</ele>
        <time>2013-03-10T15:44:26Z</time>
      </trkpt>
      <trkpt lat="43.84723" lon="7.24902">
        <ele>649</ele>
        <time>2013-03-10T15:44:27Z</time>
      </trkpt>
      <trkpt lat="43.84721" lon="7.249">
        <ele>648</ele>
        <time>2013-03-10T15:44:28Z</time>
      </trkpt>
      <trkpt lat="43.84718" lon="7.24897">
        <ele>647</ele>
        <time>2013-03-10T15:44:29Z</time>
      </trkpt>
      <trkpt lat="43.84715" lon="7.24892">
        <ele>647</ele>
        <time>2013-03-10T15:44:30Z</time>
      </trkpt>
      <trkpt lat="43.84712" lon="7.24887">
        <ele>646</ele>
        <time>2013-03-10T15:44:31Z</time>
      </trkpt>
      <trkpt lat="43.84711" lon="7.2488">
        <ele>645</ele>
        <time>2013-03-10T15:44:32Z</time>
      </trkpt>
      <trkpt lat="43.84709" lon="7.24871">
        <ele>644</ele>
        <time>2013-03-10T15:44:33Z</time>
      </trkpt>
      <trkpt lat="43.84711" lon="7.24863">
        <ele>644</ele>
        <time>2013-03-10T15:44:34Z</time>
      </trkpt>
      <trkpt lat="43.84713" lon="7.24854">
        <ele>643</ele>
        <time>2013-03-10T15:44:35Z</time>
      </trkpt>
      <trkpt lat="43.84715" lon="7.24847">
        <ele>642</ele>
        <time>2013-03-10T15:44:36Z</time>
      </trkpt>
      <trkpt lat="43.84718" lon="7.24834">
        <ele>642</ele>
        <time>2013-03-10T15:44:38Z</time>
      </trkpt>
      <trkpt lat="43.8472" lon="7.24823">
        <ele>642</ele>
        <time>2013-03-10T15:44:41Z</time>
      </trkpt>
      <trkpt lat="43.84724" lon="7.24821">
        <ele>642</ele>
        <time>2013-03-10T15:44:44Z</time>
      </trkpt>
      <trkpt lat="43.84734" lon="7.24818">
        <ele>642</ele>
        <time>2013-03-10T15:44:50Z</time>
      </trkpt>
      <trkpt lat="43.84744" lon="7.24808">
        <ele>642</ele>
        <time>2013-03-10T15:44:57Z</time>
      </trkpt>
      <trkpt lat="43.84752" lon="7.248">
        <ele>642</ele>
        <time>2013-03-10T15:45:02Z</time>
      </trkpt>
      <trkpt lat="43.84756" lon="7.24797">
        <ele>643</ele>
        <time>2013-03-10T15:45:05Z</time>
      </trkpt>
      <trkpt lat="43.84758" lon="7.24797">
        <ele>643</ele>
        <time>2013-03-10T15:45:06Z</time>
      </trkpt>
      <trkpt lat="43.8476" lon="7.24796">
        <ele>644</ele>
        <time>2013-03-10T15:45:07Z</time>
      </trkpt>
      <trkpt lat="43.84761" lon="7.24795">
        <ele>644</ele>
        <time>2013-03-10T15:45:08Z</time>
      </trkpt>
      <trkpt lat="43.84763" lon="7.24794">
        <ele>644</ele>
        <time>2013-03-10T15:45:09Z</time>
      </trkpt>
      <trkpt lat="43.84769" lon="7.24789">
        <ele>644</ele>
        <time>2013-03-10T15:45:13Z</time>
      </trkpt>
      <trkpt lat="43.84777" lon="7.24781">
        <ele>644</ele>
        <time>2013-03-10T15:45:19Z</time>
      </trkpt>
      <trkpt lat="43.84782" lon="7.2477">
        <ele>644</ele>
        <time>2013-03-10T15:45:25Z</time>
      </trkpt>
      <trkpt lat="43.84788" lon="7.24762">
        <ele>644</ele>
        <time>2013-03-10T15:45:41Z</time>
      </trkpt>
      <trkpt lat="43.84793" lon="7.24755">
        <ele>644</ele>
        <time>2013-03-10T15:45:44Z</time>
      </trkpt>
      <trkpt lat="43.84797" lon="7.24737">
        <ele>644</ele>
        <time>2013-03-10T15:45:48Z</time>
      </trkpt>
      <trkpt lat="43.84799" lon="7.24727">
        <ele>644</ele>
        <time>2013-03-10T15:45:50Z</time>
      </trkpt>
      <trkpt lat="43.848" lon="7.24721">
        <ele>644</ele>
        <time>2013-03-10T15:45:51Z</time>
      </trkpt>
      <trkpt lat="43.848" lon="7.24715">
        <ele>643</ele>
        <time>2013-03-10T15:45:52Z</time>
      </trkpt>
      <trkpt lat="43.84799" lon="7.24708">
        <ele>642</ele>
        <time>2013-03-10T15:45:53Z</time>
      </trkpt>
      <trkpt lat="43.84802" lon="7.24687">
        <ele>642</ele>
        <time>2013-03-10T15:45:57Z</time>
      </trkpt>
      <trkpt lat="43.84805" lon="7.2468">
        <ele>642</ele>
        <time>2013-03-10T15:45:58Z</time>
      </trkpt>
      <trkpt lat="43.84807" lon="7.24673">
        <ele>642</ele>
        <time>2013-03-10T15:45:59Z</time>
      </trkpt>
      <trkpt lat="43.84811" lon="7.24666">
        <ele>642</ele>
        <time>2013-03-10T15:46:00Z</time>
      </trkpt>
      <trkpt lat="43.84813" lon="7.24661">
        <ele>641</ele>
        <time>2013-03-10T15:46:01Z</time>
      </trkpt>
      <trkpt lat="43.84813" lon="7.24655">
        <ele>641</ele>
        <time>2013-03-10T15:46:02Z</time>
      </trkpt>
      <trkpt lat="43.84813" lon="7.24651">
        <ele>640</ele>
        <time>2013-03-10T15:46:03Z</time>
      </trkpt>
      <trkpt lat="43.84814" lon="7.24649">
        <ele>640</ele>
        <time>2013-03-10T15:46:04Z</time>
      </trkpt>
      <trkpt lat="43.84815" lon="7.24645">
        <ele>640</ele>
        <time>2013-03-10T15:46:07Z</time>
      </trkpt>
      <trkpt lat="43.84815" lon="7.24645">
        <ele>640</ele>
        <time>2013-03-10T15:46:08Z</time>
      </trkpt>
      <trkpt lat="43.84816" lon="7.24645">
        <ele>639</ele>
        <time>2013-03-10T15:46:09Z</time>
      </trkpt>
      <trkpt lat="43.84819" lon="7.24638">
        <ele>638</ele>
        <time>2013-03-10T15:46:27Z</time>
      </trkpt>
      <trkpt lat="43.84821" lon="7.24632">
        <ele>638</ele>
        <time>2013-03-10T15:46:30Z</time>
      </trkpt>
      <trkpt lat="43.84822" lon="7.24627">
        <ele>638</ele>
        <time>2013-03-10T15:46:33Z</time>
      </trkpt>
      <trkpt lat="43.84825" lon="7.24624">
        <ele>637</ele>
        <time>2013-03-10T15:46:34Z</time>
      </trkpt>
      <trkpt lat="43.84826" lon="7.24621">
        <ele>637</ele>
        <time>2013-03-10T15:46:35Z</time>
      </trkpt>
      <trkpt lat="43.84829" lon="7.24615">
        <ele>637</ele>
        <time>2013-03-10T15:46:36Z</time>
      </trkpt>
      <trkpt lat="43.84831" lon="7.24613">
        <ele>636</ele>
        <time>2013-03-10T15:46:37Z</time>
      </trkpt>
      <trkpt lat="43.84832" lon="7.24611">
        <ele>636</ele>
        <time>2013-03-10T15:46:38Z</time>
      </trkpt>
      <trkpt lat="43.84842" lon="7.24601">
        <ele>635</ele>
        <time>2013-03-10T15:46:42Z</time>
      </trkpt>
      <trkpt lat="43.84844" lon="7.24599">
        <ele>635</ele>
        <time>2013-03-10T15:46:43Z</time>
      </trkpt>
      <trkpt lat="43.84843" lon="7.24599">
        <ele>634</ele>
        <time>2013-03-10T15:46:44Z</time>
      </trkpt>
      <trkpt lat="43.84846" lon="7.2459">
        <ele>632</ele>
        <time>2013-03-10T15:46:48Z</time>
      </trkpt>
      <trkpt lat="43.84848" lon="7.24589">
        <ele>632</ele>
        <time>2013-03-10T15:46:49Z</time>
      </trkpt>
      <trkpt lat="43.84851" lon="7.24588">
        <ele>631</ele>
        <time>2013-03-10T15:46:50Z</time>
      </trkpt>
      <trkpt lat="43.84854" lon="7.24588">
        <ele>631</ele>
        <time>2013-03-10T15:46:51Z</time>
      </trkpt>
      <trkpt lat="43.84858" lon="7.24586">
        <ele>630</ele>
        <time>2013-03-10T15:46:52Z</time>
      </trkpt>
      <trkpt lat="43.84861" lon="7.24584">
        <ele>630</ele>
        <time>2013-03-10T15:46:53Z</time>
      </trkpt>
      <trkpt lat="43.84865" lon="7.24585">
        <ele>629</ele>
        <time>2013-03-10T15:46:54Z</time>
      </trkpt>
      <trkpt lat="43.84868" lon="7.24585">
        <ele>628</ele>
        <time>2013-03-10T15:46:55Z</time>
      </trkpt>
      <trkpt lat="43.8487" lon="7.24584">
        <ele>627</ele>
        <time>2013-03-10T15:46:56Z</time>
      </trkpt>
      <trkpt lat="43.84872" lon="7.24581">
        <ele>627</ele>
        <time>2013-03-10T15:46:57Z</time>
      </trkpt>
      <trkpt lat="43.84875" lon="7.24578">
        <ele>626</ele>
        <time>2013-03-10T15:46:58Z</time>
      </trkpt>
      <trkpt lat="43.84877" lon="7.24573">
        <ele>625</ele>
        <time>2013-03-10T15:46:59Z</time>
      </trkpt>
      <trkpt lat="43.8488" lon="7.24569">
        <ele>624</ele>
        <time>2013-03-10T15:47:00Z</time>
      </trkpt>
      <trkpt lat="43.84883" lon="7.24565">
        <ele>624</ele>
        <time>2013-03-10T15:47:01Z</time>
      </trkpt>
      <trkpt lat="43.84888" lon="7.24561">
        <ele>623</ele>
        <time>2013-03-10T15:47:02Z</time>
      </trkpt>
      <trkpt lat="43.84892" lon="7.24557">
        <ele>622</ele>
        <time>2013-03-10T15:47:03Z</time>
      </trkpt>
      <trkpt lat="43.84896" lon="7.24553">
        <ele>621</ele>
        <time>2013-03-10T15:47:04Z</time>
      </trkpt>
      <trkpt lat="43.849" lon="7.2455">
        <ele>620</ele>
        <time>2013-03-10T15:47:05Z</time>
      </trkpt>
      <trkpt lat="43.84903" lon="7.24548">
        <ele>618</ele>
        <time>2013-03-10T15:47:06Z</time>
      </trkpt>
      <trkpt lat="43.84905" lon="7.24545">
        <ele>617</ele>
        <time>2013-03-10T15:47:07Z</time>
      </trkpt>
      <trkpt lat="43.84907" lon="7.24542">
        <ele>616</ele>
        <time>2013-03-10T15:47:08Z</time>
      </trkpt>
      <trkpt lat="43.84909" lon="7.24539">
        <ele>615</ele>
        <time>2013-03-10T15:47:09Z</time>
      </trkpt>
      <trkpt lat="43.84913" lon="7.24537">
        <ele>614</ele>
        <time>2013-03-10T15:47:10Z</time>
      </trkpt>
      <trkpt lat="43.84915" lon="7.24536">
        <ele>613</ele>
        <time>2013-03-10T15:47:11Z</time>
      </trkpt>
      <trkpt lat="43.84919" lon="7.24535">
        <ele>612</ele>
        <time>2013-03-10T15:47:12Z</time>
      </trkpt>
      <trkpt lat="43.84921" lon="7.24533">
        <ele>611</ele>
        <time>2013-03-10T15:47:13Z</time>
      </trkpt>
      <trkpt lat="43.84924" lon="7.24531">
        <ele>610</ele>
        <time>2013-03-10T15:47:14Z</time>
      </trkpt>
      <trkpt lat="43.84927" lon="7.24528">
        <ele>610</ele>
        <time>2013-03-10T15:47:15Z</time>
      </trkpt>
      <trkpt lat="43.84929" lon="7.24524">
        <ele>609</ele>
        <time>2013-03-10T15:47:16Z</time>
      </trkpt>
      <trkpt lat="43.8493" lon="7.24524">
        <ele>608</ele>
        <time>2013-03-10T15:47:17Z</time>
      </trkpt>
      <trkpt lat="43.8493" lon="7.24523">
        <ele>607</ele>
        <time>2013-03-10T15:47:18Z</time>
      </trkpt>
      <trkpt lat="43.84929" lon="7.2452">
        <ele>607</ele>
        <time>2013-03-10T15:47:19Z</time>
      </trkpt>
      <trkpt lat="43.84927" lon="7.24517">
        <ele>606</ele>
        <time>2013-03-10T15:47:20Z</time>
      </trkpt>
      <trkpt lat="43.84926" lon="7.24515">
        <ele>606</ele>
        <time>2013-03-10T15:47:21Z</time>
      </trkpt>
      <trkpt lat="43.84925" lon="7.24513">
        <ele>605</ele>
        <time>2013-03-10T15:47:22Z</time>
      </trkpt>
      <trkpt lat="43.84924" lon="7.24511">
        <ele>605</ele>
        <time>2013-03-10T15:47:23Z</time>
      </trkpt>
      <trkpt lat="43.84923" lon="7.2451">
        <ele>604</ele>
        <time>2013-03-10T15:47:24Z</time>
      </trkpt>
      <trkpt lat="43.84922" lon="7.24508">
        <ele>604</ele>
        <time>2013-03-10T15:47:25Z</time>
      </trkpt>
      <trkpt lat="43.84922" lon="7.24508">
        <ele>603</ele>
        <time>2013-03-10T15:47:26Z</time>
      </trkpt>
      <trkpt lat="43.84923" lon="7.24507">
        <ele>603</ele>
        <time>2013-03-10T15:47:27Z</time>
      </trkpt>
      <trkpt lat="43.84923" lon="7.24506">
        <ele>602</ele>
        <time>2013-03-10T15:47:28Z</time>
      </trkpt>
      <trkpt lat="43.84921" lon="7.24498">
        <ele>601</ele>
        <time>2013-03-10T15:47:31Z</time>
      </trkpt>
      <trkpt lat="43.84921" lon="7.24493">
        <ele>600</ele>
        <time>2013-03-10T15:47:33Z</time>
      </trkpt>
      <trkpt lat="43.8492" lon="7.24492">
        <ele>600</ele>
        <time>2013-03-10T15:47:34Z</time>
      </trkpt>
      <trkpt lat="43.84919" lon="7.24491">
        <ele>599</ele>
        <time>2013-03-10T15:47:35Z</time>
      </trkpt>
      <trkpt lat="43.84919" lon="7.2449">
        <ele>599</ele>
        <time>2013-03-10T15:47:36Z</time>
      </trkpt>
      <trkpt lat="43.84918" lon="7.2449">
        <ele>598</ele>
        <time>2013-03-10T15:47:37Z</time>
      </trkpt>
      <trkpt lat="43.84917" lon="7.24487">
        <ele>598</ele>
        <time>2013-03-10T15:47:39Z</time>
      </trkpt>
      <trkpt lat="43.84916" lon="7.24485">
        <ele>598</ele>
        <time>2013-03-10T15:47:40Z</time>
      </trkpt>
      <trkpt lat="43.84917" lon="7.24483">
        <ele>597</ele>
        <time>2013-03-10T15:47:41Z</time>
      </trkpt>
      <trkpt lat="43.84917" lon="7.24482">
        <ele>597</ele>
        <time>2013-03-10T15:47:42Z</time>
      </trkpt>
      <trkpt lat="43.84917" lon="7.24482">
        <ele>596</ele>
        <time>2013-03-10T15:47:43Z</time>
      </trkpt>
      <trkpt lat="43.84918" lon="7.24481">
        <ele>596</ele>
        <time>2013-03-10T15:47:44Z</time>
      </trkpt>
      <trkpt lat="43.84919" lon="7.24471">
        <ele>594</ele>
        <time>2013-03-10T15:49:04Z</time>
      </trkpt>
      <trkpt lat="43.8492" lon="7.24469">
        <ele>594</ele>
        <time>2013-03-10T15:49:05Z</time>
      </trkpt>
      <trkpt lat="43.8492" lon="7.24469">
        <ele>594</ele>
        <time>2013-03-10T15:49:06Z</time>
      </trkpt>
      <trkpt lat="43.84922" lon="7.2447">
        <ele>594</ele>
        <time>2013-03-10T15:49:10Z</time>
      </trkpt>
      <trkpt lat="43.84924" lon="7.24473">
        <ele>594</ele>
        <time>2013-03-10T15:49:12Z</time>
      </trkpt>
      <trkpt lat="43.84923" lon="7.24473">
        <ele>594</ele>
        <time>2013-03-10T15:49:13Z</time>
      </trkpt>
      <trkpt lat="43.84924" lon="7.24474">
        <ele>593</ele>
        <time>2013-03-10T15:49:14Z</time>
      </trkpt>
      <trkpt lat="43.84926" lon="7.24479">
        <ele>592</ele>
        <time>2013-03-10T15:49:31Z</time>
      </trkpt>
      <trkpt lat="43.84927" lon="7.24482">
        <ele>592</ele>
        <time>2013-03-10T15:49:33Z</time>
      </trkpt>
      <trkpt lat="43.84931" lon="7.24484">
        <ele>592</ele>
        <time>2013-03-10T15:49:35Z</time>
      </trkpt>
      <trkpt lat="43.84933" lon="7.24482">
        <ele>591</ele>
        <time>2013-03-10T15:49:36Z</time>
      </trkpt>
      <trkpt lat="43.84935" lon="7.24482">
        <ele>591</ele>
        <time>2013-03-10T15:49:37Z</time>
      </trkpt>
      <trkpt lat="43.84938" lon="7.24483">
        <ele>590</ele>
        <time>2013-03-10T15:49:38Z</time>
      </trkpt>
      <trkpt lat="43.8494" lon="7.24482">
        <ele>590</ele>
        <time>2013-03-10T15:49:39Z</time>
      </trkpt>
      <trkpt lat="43.84942" lon="7.24482">
        <ele>589</ele>
        <time>2013-03-10T15:49:40Z</time>
      </trkpt>
      <trkpt lat="43.84945" lon="7.24481">
        <ele>589</ele>
        <time>2013-03-10T15:49:41Z</time>
      </trkpt>
      <trkpt lat="43.84948" lon="7.24479">
        <ele>588</ele>
        <time>2013-03-10T15:49:42Z</time>
      </trkpt>
      <trkpt lat="43.8495" lon="7.24479">
        <ele>588</ele>
        <time>2013-03-10T15:49:43Z</time>
      </trkpt>
      <trkpt lat="43.84952" lon="7.24481">
        <ele>587</ele>
        <time>2013-03-10T15:49:44Z</time>
      </trkpt>
      <trkpt lat="43.84953" lon="7.24484">
        <ele>587</ele>
        <time>2013-03-10T15:49:45Z</time>
      </trkpt>
      <trkpt lat="43.84954" lon="7.24484">
        <ele>586</ele>
        <time>2013-03-10T15:49:46Z</time>
      </trkpt>
      <trkpt lat="43.84954" lon="7.24485">
        <ele>586</ele>
        <time>2013-03-10T15:49:47Z</time>
      </trkpt>
      <trkpt lat="43.84957" lon="7.24489">
        <ele>585</ele>
        <time>2013-03-10T15:50:33Z</time>
      </trkpt>
      <trkpt lat="43.84962" lon="7.24496">
        <ele>585</ele>
        <time>2013-03-10T15:50:35Z</time>
      </trkpt>
      <trkpt lat="43.84975" lon="7.24517">
        <ele>585</ele>
        <time>2013-03-10T15:50:39Z</time>
      </trkpt>
      <trkpt lat="43.84979" lon="7.24524">
        <ele>585</ele>
        <time>2013-03-10T15:50:40Z</time>
      </trkpt>
      <trkpt lat="43.84984" lon="7.24532">
        <ele>584</ele>
        <time>2013-03-10T15:50:41Z</time>
      </trkpt>
      <trkpt lat="43.84989" lon="7.2454">
        <ele>584</ele>
        <time>2013-03-10T15:50:42Z</time>
      </trkpt>
      <trkpt lat="43.84995" lon="7.24544">
        <ele>583</ele>
        <time>2013-03-10T15:50:43Z</time>
      </trkpt>
      <trkpt lat="43.85" lon="7.24547">
        <ele>583</ele>
        <time>2013-03-10T15:50:44Z</time>
      </trkpt>
      <trkpt lat="43.85006" lon="7.24545">
        <ele>582</ele>
        <time>2013-03-10T15:50:45Z</time>
      </trkpt>
      <trkpt lat="43.85009" lon="7.24539">
        <ele>582</ele>
        <time>2013-03-10T15:50:46Z</time>
      </trkpt>
      <trkpt lat="43.8501" lon="7.24532">
        <ele>581</ele>
        <time>2013-03-10T15:50:47Z</time>
      </trkpt>
      <trkpt lat="43.85012" lon="7.24524">
        <ele>580</ele>
        <time>2013-03-10T15:50:48Z</time>
      </trkpt>
      <trkpt lat="43.85012" lon="7.24516">
        <ele>579</ele>
        <time>2013-03-10T15:50:49Z</time>
      </trkpt>
      <trkpt lat="43.85012" lon="7.24506">
        <ele>579</ele>
        <time>2013-03-10T15:50:50Z</time>
      </trkpt>
      <trkpt lat="43.85014" lon="7.24495">
        <ele>578</ele>
        <time>2013-03-10T15:50:51Z</time>
      </trkpt>
      <trkpt lat="43.85016" lon="7.24485">
        <ele>578</ele>
        <time>2013-03-10T15:50:52Z</time>
      </trkpt>
      <trkpt lat="43.85021" lon="7.24477">
        <ele>577</ele>
        <time>2013-03-10T15:50:53Z</time>
      </trkpt>
      <trkpt lat="43.85025" lon="7.24468">
        <ele>577</ele>
        <time>2013-03-10T15:50:54Z</time>
      </trkpt>
      <trkpt lat="43.85028" lon="7.2446">
        <ele>576</ele>
        <time>2013-03-10T15:50:55Z</time>
      </trkpt>
      <trkpt lat="43.8504" lon="7.24433">
        <ele>576</ele>
        <time>2013-03-10T15:50:59Z</time>
      </trkpt>
      <trkpt lat="43.85047" lon="7.24414">
        <ele>576</ele>
        <time>2013-03-10T15:51:03Z</time>
      </trkpt>
      <trkpt lat="43.85053" lon="7.24381">
        <ele>576</ele>
        <time>2013-03-10T15:51:08Z</time>
      </trkpt>
      <trkpt lat="43.85064" lon="7.24339">
        <ele>576</ele>
        <time>2013-03-10T15:51:14Z</time>
      </trkpt>
      <trkpt lat="43.85072" lon="7.24316">
        <ele>576</ele>
        <time>2013-03-10T15:51:19Z</time>
      </trkpt>
      <trkpt lat="43.85081" lon="7.24291">
        <ele>576</ele>
        <time>2013-03-10T15:51:24Z</time>
      </trkpt>
      <trkpt lat="43.85092" lon="7.24272">
        <ele>576</ele>
        <time>2013-03-10T15:51:28Z</time>
      </trkpt>
      <trkpt lat="43.85103" lon="7.24254">
        <ele>576</ele>
        <time>2013-03-10T15:51:32Z</time>
      </trkpt>
      <trkpt lat="43.85106" lon="7.2425">
        <ele>576</ele>
        <time>2013-03-10T15:51:33Z</time>
      </trkpt>
      <trkpt lat="43.85112" lon="7.24242">
        <ele>576</ele>
        <time>2013-03-10T15:51:35Z</time>
      </trkpt>
      <trkpt lat="43.85123" lon="7.24237">
        <ele>576</ele>
        <time>2013-03-10T15:51:38Z</time>
      </trkpt>
      <trkpt lat="43.85126" lon="7.24237">
        <ele>576</ele>
        <time>2013-03-10T15:51:39Z</time>
      </trkpt>
      <trkpt lat="43.85131" lon="7.24233">
        <ele>576</ele>
        <time>2013-03-10T15:51:41Z</time>
      </trkpt>
      <trkpt lat="43.85133" lon="7.24231">
        <ele>576</ele>
        <time>2013-03-10T15:51:42Z</time>
      </trkpt>
      <trkpt lat="43.85134" lon="7.24225">
        <ele>576</ele>
        <time>2013-03-10T15:51:43Z</time>
      </trkpt>
      <trkpt lat="43.85137" lon="7.24211">
        <ele>576</ele>
        <time>2013-03-10T15:51:46Z</time>
      </trkpt>
      <trkpt lat="43.8514" lon="7.24195">
        <ele>576</ele>
        <time>2013-03-10T15:51:49Z</time>
      </trkpt>
      <trkpt lat="43.85143" lon="7.24185">
        <ele>576</ele>
        <time>2013-03-10T15:51:51Z</time>
      </trkpt>
      <trkpt lat="43.85147" lon="7.2417">
        <ele>576</ele>
        <time>2013-03-10T15:51:53Z</time>
      </trkpt>
      <trkpt lat="43.85149" lon="7.24163">
        <ele>576</ele>
        <time>2013-03-10T15:51:54Z</time>
      </trkpt>
      <trkpt lat="43.85151" lon="7.24156">
        <ele>576</ele>
        <time>2013-03-10T15:51:55Z</time>
      </trkpt>
      <trkpt lat="43.85153" lon="7.24148">
        <ele>575</ele>
        <time>2013-03-10T15:51:56Z</time>
      </trkpt>
      <trkpt lat="43.85156" lon="7.24141">
        <ele>575</ele>
        <time>2013-03-10T15:51:57Z</time>
      </trkpt>
      <trkpt lat="43.85158" lon="7.24133">
        <ele>574</ele>
        <time>2013-03-10T15:51:58Z</time>
      </trkpt>
      <trkpt lat="43.85164" lon="7.24115">
        <ele>574</ele>
        <time>2013-03-10T15:52:00Z</time>
      </trkpt>
      <trkpt lat="43.85167" lon="7.24106">
        <ele>573</ele>
        <time>2013-03-10T15:52:01Z</time>
      </trkpt>
      <trkpt lat="43.8517" lon="7.24095">
        <ele>572</ele>
        <time>2013-03-10T15:52:02Z</time>
      </trkpt>
      <trkpt lat="43.85173" lon="7.24084">
        <ele>571</ele>
        <time>2013-03-10T15:52:03Z</time>
      </trkpt>
      <trkpt lat="43.85178" lon="7.24073">
        <ele>571</ele>
        <time>2013-03-10T15:52:04Z</time>
      </trkpt>
      <trkpt lat="43.85184" lon="7.24063">
        <ele>570</ele>
        <time>2013-03-10T15:52:05Z</time>
      </trkpt>
      <trkpt lat="43.85189" lon="7.24053">
        <ele>569</ele>
        <time>2013-03-10T15:52:06Z</time>
      </trkpt>
      <trkpt lat="43.85198" lon="7.24044">
        <ele>568</ele>
        <time>2013-03-10T15:52:07Z</time>
      </trkpt>
      <trkpt lat="43.85206" lon="7.24035">
        <ele>568</ele>
        <time>2013-03-10T15:52:08Z</time>
      </trkpt>
      <trkpt lat="43.85214" lon="7.24025">
        <ele>567</ele>
        <time>2013-03-10T15:52:09Z</time>
      </trkpt>
      <trkpt lat="43.85222" lon="7.24015">
        <ele>566</ele>
        <time>2013-03-10T15:52:10Z</time>
      </trkpt>
      <trkpt lat="43.85228" lon="7.24004">
        <ele>565</ele>
        <time>2013-03-10T15:52:11Z</time>
      </trkpt>
      <trkpt lat="43.85232" lon="7.23991">
        <ele>564</ele>
        <time>2013-03-10T15:52:12Z</time>
      </trkpt>
      <trkpt lat="43.85234" lon="7.2398">
        <ele>564</ele>
        <time>2013-03-10T15:52:13Z</time>
      </trkpt>
      <trkpt lat="43.85234" lon="7.23968">
        <ele>563</ele>
        <time>2013-03-10T15:52:14Z</time>
      </trkpt>
      <trkpt lat="43.85232" lon="7.23958">
        <ele>562</ele>
        <time>2013-03-10T15:52:15Z</time>
      </trkpt>
      <trkpt lat="43.85231" lon="7.23948">
        <ele>562</ele>
        <time>2013-03-10T15:52:16Z</time>
      </trkpt>
      <trkpt lat="43.85225" lon="7.23906">
        <ele>562</ele>
        <time>2013-03-10T15:52:21Z</time>
      </trkpt>
      <trkpt lat="43.85221" lon="7.23879">
        <ele>563</ele>
        <time>2013-03-10T15:52:25Z</time>
      </trkpt>
      <trkpt lat="43.8522" lon="7.23873">
        <ele>563</ele>
        <time>2013-03-10T15:52:26Z</time>
      </trkpt>
      <trkpt lat="43.85219" lon="7.23866">
        <ele>564</ele>
        <time>2013-03-10T15:52:27Z</time>
      </trkpt>
      <trkpt lat="43.85219" lon="7.2386">
        <ele>564</ele>
        <time>2013-03-10T15:52:28Z</time>
      </trkpt>
      <trkpt lat="43.85214" lon="7.23814">
        <ele>564</ele>
        <time>2013-03-10T15:52:35Z</time>
      </trkpt>
      <trkpt lat="43.85211" lon="7.2378">
        <ele>564</ele>
        <time>2013-03-10T15:52:41Z</time>
      </trkpt>
      <trkpt lat="43.85201" lon="7.2377">
        <ele>564</ele>
        <time>2013-03-10T15:52:45Z</time>
      </trkpt>
      <trkpt lat="43.85193" lon="7.23766">
        <ele>564</ele>
        <time>2013-03-10T15:52:47Z</time>
      </trkpt>
      <trkpt lat="43.85179" lon="7.23758">
        <ele>564</ele>
        <time>2013-03-10T15:52:50Z</time>
      </trkpt>
      <trkpt lat="43.85173" lon="7.23754">
        <ele>564</ele>
        <time>2013-03-10T15:52:51Z</time>
      </trkpt>
      <trkpt lat="43.85163" lon="7.23744">
        <ele>564</ele>
        <time>2013-03-10T15:52:53Z</time>
      </trkpt>
      <trkpt lat="43.85158" lon="7.23738">
        <ele>564</ele>
        <time>2013-03-10T15:52:54Z</time>
      </trkpt>
      <trkpt lat="43.85154" lon="7.23731">
        <ele>563</ele>
        <time>2013-03-10T15:52:55Z</time>
      </trkpt>
      <trkpt lat="43.85151" lon="7.23725">
        <ele>563</ele>
        <time>2013-03-10T15:52:56Z</time>
      </trkpt>
      <trkpt lat="43.85149" lon="7.2372">
        <ele>562</ele>
        <time>2013-03-10T15:52:57Z</time>
      </trkpt>
      <trkpt lat="43.85147" lon="7.23716">
        <ele>562</ele>
        <time>2013-03-10T15:52:58Z</time>
      </trkpt>
      <trkpt lat="43.85146" lon="7.23711">
        <ele>561</ele>
        <time>2013-03-10T15:52:59Z</time>
      </trkpt>
      <trkpt lat="43.85143" lon="7.23706">
        <ele>561</ele>
        <time>2013-03-10T15:53:00Z</time>
      </trkpt>
      <trkpt lat="43.8514" lon="7.23701">
        <ele>560</ele>
        <time>2013-03-10T15:53:01Z</time>
      </trkpt>
      <trkpt lat="43.85136" lon="7.23696">
        <ele>560</ele>
        <time>2013-03-10T15:53:02Z</time>
      </trkpt>
      <trkpt lat="43.85133" lon="7.23689">
        <ele>560</ele>
        <time>2013-03-10T15:53:03Z</time>
      </trkpt>
      <trkpt lat="43.85129" lon="7.23682">
        <ele>559</ele>
        <time>2013-03-10T15:53:04Z</time>
      </trkpt>
      <trkpt lat="43.85125" lon="7.23675">
        <ele>559</ele>
        <time>2013-03-10T15:53:05Z</time>
      </trkpt>
      <trkpt lat="43.85121" lon="7.23666">
        <ele>558</ele>
        <time>2013-03-10T15:53:06Z</time>
      </trkpt>
      <trkpt lat="43.85116" lon="7.23656">
        <ele>557</ele>
        <time>2013-03-10T15:53:07Z</time>
      </trkpt>
      <trkpt lat="43.8511" lon="7.23647">
        <ele>557</ele>
        <time>2013-03-10T15:53:08Z</time>
      </trkpt>
      <trkpt lat="43.85105" lon="7.2364">
        <ele>556</ele>
        <time>2013-03-10T15:53:09Z</time>
      </trkpt>
      <trkpt lat="43.85102" lon="7.23637">
        <ele>555</ele>
        <time>2013-03-10T15:53:10Z</time>
      </trkpt>
      <trkpt lat="43.85099" lon="7.23635">
        <ele>554</ele>
        <time>2013-03-10T15:53:11Z</time>
      </trkpt>
      <trkpt lat="43.85096" lon="7.23634">
        <ele>553</ele>
        <time>2013-03-10T15:53:12Z</time>
      </trkpt>
      <trkpt lat="43.85094" lon="7.23633">
        <ele>552</ele>
        <time>2013-03-10T15:53:13Z</time>
      </trkpt>
      <trkpt lat="43.85094" lon="7.2363">
        <ele>551</ele>
        <time>2013-03-10T15:53:14Z</time>
      </trkpt>
      <trkpt lat="43.85097" lon="7.23627">
        <ele>550</ele>
        <time>2013-03-10T15:53:15Z</time>
      </trkpt>
      <trkpt lat="43.851" lon="7.23625">
        <ele>549</ele>
        <time>2013-03-10T15:53:16Z</time>
      </trkpt>
      <trkpt lat="43.85103" lon="7.23624">
        <ele>549</ele>
        <time>2013-03-10T15:53:17Z</time>
      </trkpt>
      <trkpt lat="43.85107" lon="7.23622">
        <ele>548</ele>
        <time>2013-03-10T15:53:18Z</time>
      </trkpt>
      <trkpt lat="43.85111" lon="7.2362">
        <ele>548</ele>
        <time>2013-03-10T15:53:19Z</time>
      </trkpt>
      <trkpt lat="43.85115" lon="7.23618">
        <ele>548</ele>
        <time>2013-03-10T15:53:20Z</time>
      </trkpt>
      <trkpt lat="43.85129" lon="7.23611">
        <ele>547</ele>
        <time>2013-03-10T15:53:23Z</time>
      </trkpt>
      <trkpt lat="43.85133" lon="7.23609">
        <ele>547</ele>
        <time>2013-03-10T15:53:24Z</time>
      </trkpt>
      <trkpt lat="43.85137" lon="7.23607">
        <ele>546</ele>
        <time>2013-03-10T15:53:25Z</time>
      </trkpt>
      <trkpt lat="43.85141" lon="7.23605">
        <ele>546</ele>
        <time>2013-03-10T15:53:26Z</time>
      </trkpt>
      <trkpt lat="43.85145" lon="7.23602">
        <ele>546</ele>
        <time>2013-03-10T15:53:27Z</time>
      </trkpt>
      <trkpt lat="43.85149" lon="7.236">
        <ele>546</ele>
        <time>2013-03-10T15:53:28Z</time>
      </trkpt>
      <trkpt lat="43.85163" lon="7.23586">
        <ele>545</ele>
        <time>2013-03-10T15:53:31Z</time>
      </trkpt>
      <trkpt lat="43.85167" lon="7.23581">
        <ele>545</ele>
        <time>2013-03-10T15:53:32Z</time>
      </trkpt>
      <trkpt lat="43.85172" lon="7.23574">
        <ele>544</ele>
        <time>2013-03-10T15:53:33Z</time>
      </trkpt>
      <trkpt lat="43.85177" lon="7.23568">
        <ele>544</ele>
        <time>2013-03-10T15:53:34Z</time>
      </trkpt>
      <trkpt lat="43.85182" lon="7.23562">
        <ele>543</ele>
        <time>2013-03-10T15:53:35Z</time>
      </trkpt>
      <trkpt lat="43.85187" lon="7.23554">
        <ele>543</ele>
        <time>2013-03-10T15:53:36Z</time>
      </trkpt>
      <trkpt lat="43.85193" lon="7.23546">
        <ele>543</ele>
        <time>2013-03-10T15:53:37Z</time>
      </trkpt>
      <trkpt lat="43.85198" lon="7.23536">
        <ele>542</ele>
        <time>2013-03-10T15:53:38Z</time>
      </trkpt>
      <trkpt lat="43.85204" lon="7.23526">
        <ele>542</ele>
        <time>2013-03-10T15:53:39Z</time>
      </trkpt>
      <trkpt lat="43.85209" lon="7.23516">
        <ele>541</ele>
        <time>2013-03-10T15:53:40Z</time>
      </trkpt>
      <trkpt lat="43.85215" lon="7.23505">
        <ele>540</ele>
        <time>2013-03-10T15:53:41Z</time>
      </trkpt>
      <trkpt lat="43.85221" lon="7.23494">
        <ele>540</ele>
        <time>2013-03-10T15:53:42Z</time>
      </trkpt>
      <trkpt lat="43.85227" lon="7.23484">
        <ele>539</ele>
        <time>2013-03-10T15:53:43Z</time>
      </trkpt>
      <trkpt lat="43.85234" lon="7.23474">
        <ele>538</ele>
        <time>2013-03-10T15:53:44Z</time>
      </trkpt>
      <trkpt lat="43.85242" lon="7.23464">
        <ele>538</ele>
        <time>2013-03-10T15:53:45Z</time>
      </trkpt>
      <trkpt lat="43.85251" lon="7.23456">
        <ele>537</ele>
        <time>2013-03-10T15:53:46Z</time>
      </trkpt>
      <trkpt lat="43.8526" lon="7.23449">
        <ele>537</ele>
        <time>2013-03-10T15:53:47Z</time>
      </trkpt>
      <trkpt lat="43.8527" lon="7.23442">
        <ele>536</ele>
        <time>2013-03-10T15:53:48Z</time>
      </trkpt>
      <trkpt lat="43.85279" lon="7.23436">
        <ele>536</ele>
        <time>2013-03-10T15:53:49Z</time>
      </trkpt>
      <trkpt lat="43.85287" lon="7.23428">
        <ele>535</ele>
        <time>2013-03-10T15:53:50Z</time>
      </trkpt>
      <trkpt lat="43.85295" lon="7.2342">
        <ele>534</ele>
        <time>2013-03-10T15:53:51Z</time>
      </trkpt>
      <trkpt lat="43.85301" lon="7.23412">
        <ele>534</ele>
        <time>2013-03-10T15:53:52Z</time>
      </trkpt>
      <trkpt lat="43.85328" lon="7.23371">
        <ele>534</ele>
        <time>2013-03-10T15:53:57Z</time>
      </trkpt>
      <trkpt lat="43.85357" lon="7.23329">
        <ele>534</ele>
        <time>2013-03-10T15:54:03Z</time>
      </trkpt>
      <trkpt lat="43.85383" lon="7.23291">
        <ele>534</ele>
        <time>2013-03-10T15:54:09Z</time>
      </trkpt>
      <trkpt lat="43.85393" lon="7.23282">
        <ele>534</ele>
        <time>2013-03-10T15:54:11Z</time>
      </trkpt>
      <trkpt lat="43.85431" lon="7.23252">
        <ele>533</ele>
        <time>2013-03-10T15:54:18Z</time>
      </trkpt>
      <trkpt lat="43.85436" lon="7.23248">
        <ele>533</ele>
        <time>2013-03-10T15:54:19Z</time>
      </trkpt>
      <trkpt lat="43.85442" lon="7.23244">
        <ele>533</ele>
        <time>2013-03-10T15:54:20Z</time>
      </trkpt>
      <trkpt lat="43.85447" lon="7.2324">
        <ele>532</ele>
        <time>2013-03-10T15:54:21Z</time>
      </trkpt>
      <trkpt lat="43.85453" lon="7.23236">
        <ele>532</ele>
        <time>2013-03-10T15:54:22Z</time>
      </trkpt>
      <trkpt lat="43.85487" lon="7.23213">
        <ele>532</ele>
        <time>2013-03-10T15:54:28Z</time>
      </trkpt>
      <trkpt lat="43.85525" lon="7.23187">
        <ele>532</ele>
        <time>2013-03-10T15:54:35Z</time>
      </trkpt>
      <trkpt lat="43.85572" lon="7.23155">
        <ele>532</ele>
        <time>2013-03-10T15:54:44Z</time>
      </trkpt>
      <trkpt lat="43.85607" lon="7.2313">
        <ele>531</ele>
        <time>2013-03-10T15:54:51Z</time>
      </trkpt>
      <trkpt lat="43.85612" lon="7.23127">
        <ele>531</ele>
        <time>2013-03-10T15:54:52Z</time>
      </trkpt>
      <trkpt lat="43.85617" lon="7.23125">
        <ele>531</ele>
        <time>2013-03-10T15:54:53Z</time>
      </trkpt>
      <trkpt lat="43.85623" lon="7.23122">
        <ele>530</ele>
        <time>2013-03-10T15:54:54Z</time>
      </trkpt>
      <trkpt lat="43.85628" lon="7.23121">
        <ele>530</ele>
        <time>2013-03-10T15:54:55Z</time>
      </trkpt>
      <trkpt lat="43.8564" lon="7.23119">
        <ele>530</ele>
        <time>2013-03-10T15:54:57Z</time>
      </trkpt>
      <trkpt lat="43.85656" lon="7.23119">
        <ele>530</ele>
        <time>2013-03-10T15:55:00Z</time>
      </trkpt>
      <trkpt lat="43.85662" lon="7.23118">
        <ele>530</ele>
        <time>2013-03-10T15:55:01Z</time>
      </trkpt>
      <trkpt lat="43.85687" lon="7.23101">
        <ele>530</ele>
        <time>2013-03-10T15:55:06Z</time>
      </trkpt>
      <trkpt lat="43.85695" lon="7.23091">
        <ele>530</ele>
        <time>2013-03-10T15:55:08Z</time>
      </trkpt>
      <trkpt lat="43.85708" lon="7.23076">
        <ele>530</ele>
        <time>2013-03-10T15:55:11Z</time>
      </trkpt>
      <trkpt lat="43.85738" lon="7.23051">
        <ele>530</ele>
        <time>2013-03-10T15:55:17Z</time>
      </trkpt>
      <trkpt lat="43.85767" lon="7.23038">
        <ele>530</ele>
        <time>2013-03-10T15:55:22Z</time>
      </trkpt>
      <trkpt lat="43.85772" lon="7.23037">
        <ele>530</ele>
        <time>2013-03-10T15:55:23Z</time>
      </trkpt>
      <trkpt lat="43.85809" lon="7.23037">
        <ele>530</ele>
        <time>2013-03-10T15:55:29Z</time>
      </trkpt>
      <trkpt lat="43.8583" lon="7.2304">
        <ele>530</ele>
        <time>2013-03-10T15:55:33Z</time>
      </trkpt>
      <trkpt lat="43.85866" lon="7.23042">
        <ele>530</ele>
        <time>2013-03-10T15:55:39Z</time>
      </trkpt>
      <trkpt lat="43.85878" lon="7.23041">
        <ele>529</ele>
        <time>2013-03-10T15:55:41Z</time>
      </trkpt>
      <trkpt lat="43.85885" lon="7.23039">
        <ele>529</ele>
        <time>2013-03-10T15:55:42Z</time>
      </trkpt>
      <trkpt lat="43.85891" lon="7.23036">
        <ele>529</ele>
        <time>2013-03-10T15:55:43Z</time>
      </trkpt>
      <trkpt lat="43.85897" lon="7.23033">
        <ele>528</ele>
        <time>2013-03-10T15:55:44Z</time>
      </trkpt>
      <trkpt lat="43.85913" lon="7.2302">
        <ele>528</ele>
        <time>2013-03-10T15:55:47Z</time>
      </trkpt>
      <trkpt lat="43.85923" lon="7.23011">
        <ele>528</ele>
        <time>2013-03-10T15:55:49Z</time>
      </trkpt>
      <trkpt lat="43.8595" lon="7.22982">
        <ele>528</ele>
        <time>2013-03-10T15:55:55Z</time>
      </trkpt>
      <trkpt lat="43.85976" lon="7.22953">
        <ele>528</ele>
        <time>2013-03-10T15:56:01Z</time>
      </trkpt>
      <trkpt lat="43.8598" lon="7.22947">
        <ele>528</ele>
        <time>2013-03-10T15:56:02Z</time>
      </trkpt>
      <trkpt lat="43.85985" lon="7.22942">
        <ele>529</ele>
        <time>2013-03-10T15:56:03Z</time>
      </trkpt>
      <trkpt lat="43.85989" lon="7.22937">
        <ele>529</ele>
        <time>2013-03-10T15:56:04Z</time>
      </trkpt>
      <trkpt lat="43.85992" lon="7.22932">
        <ele>529</ele>
        <time>2013-03-10T15:56:05Z</time>
      </trkpt>
      <trkpt lat="43.85997" lon="7.22927">
        <ele>530</ele>
        <time>2013-03-10T15:56:06Z</time>
      </trkpt>
      <trkpt lat="43.86009" lon="7.22913">
        <ele>530</ele>
        <time>2013-03-10T15:56:09Z</time>
      </trkpt>
      <trkpt lat="43.86019" lon="7.2291">
        <ele>530</ele>
        <time>2013-03-10T15:56:11Z</time>
      </trkpt>
      <trkpt lat="43.8605" lon="7.2291">
        <ele>530</ele>
        <time>2013-03-10T15:56:16Z</time>
      </trkpt>
      <trkpt lat="43.86063" lon="7.22911">
        <ele>530</ele>
        <time>2013-03-10T15:56:18Z</time>
      </trkpt>
      <trkpt lat="43.86072" lon="7.2292">
        <ele>530</ele>
        <time>2013-03-10T15:56:20Z</time>
      </trkpt>
      <trkpt lat="43.86073" lon="7.22935">
        <ele>530</ele>
        <time>2013-03-10T15:56:22Z</time>
      </trkpt>
      <trkpt lat="43.86074" lon="7.22941">
        <ele>530</ele>
        <time>2013-03-10T15:56:23Z</time>
      </trkpt>
      <trkpt lat="43.86079" lon="7.22945">
        <ele>530</ele>
        <time>2013-03-10T15:56:25Z</time>
      </trkpt>
      <trkpt lat="43.86078" lon="7.22949">
        <ele>530</ele>
        <time>2013-03-10T15:56:27Z</time>
      </trkpt>
      <trkpt lat="43.86074" lon="7.22942">
        <ele>530</ele>
        <time>2013-03-10T15:56:30Z</time>
      </trkpt>
      <trkpt lat="43.86074" lon="7.22939">
        <ele>530</ele>
        <time>2013-03-10T15:56:31Z</time>
      </trkpt>
      <trkpt lat="43.86077" lon="7.22936">
        <ele>530</ele>
        <time>2013-03-10T15:56:33Z</time>
      </trkpt>
      <trkpt lat="43.8608" lon="7.22934">
        <ele>530</ele>
        <time>2013-03-10T15:56:37Z</time>
      </trkpt>
    </trkseg>
  </trk>
</gpx>